
Distance (Route):
Temperature : 16.7°C
Humidity : 70%
Pressure : 972.11hPa| Receiver | Frames | First received | Last received |
|---|---|---|---|
| DM0DOS-11 | 773 | 2026-09-03 06:47:39 | 2026-09-03 08:55:25 |
| DL1XH-west | 588 | 2026-09-03 06:54:31 | 2026-09-03 08:47:00 |
| BIOWL1-15 | 519 | 2026-09-03 07:09:20 | 2026-09-03 08:53:58 |
| DO2JMG | 458 | 2026-09-03 07:00:06 | 2026-09-03 08:43:31 |
| DL1XH1-15 | 415 | 2026-09-03 06:53:39 | 2026-09-03 08:47:01 |
| AA1-15 | 407 | 2026-09-03 07:10:23 | 2026-09-03 08:39:11 |
| DF8AY | 397 | 2026-09-03 07:24:19 | 2026-09-03 08:52:57 |
| DL1XH-15 | 371 | 2026-09-03 07:00:04 | 2026-09-03 08:43:10 |
| DB0DAN | 310 | 2026-09-03 07:04:40 | 2026-09-03 08:56:25 |
| DN9WHV | 299 | 2026-09-03 06:50:58 | 2026-09-03 07:43:18 |
| HSKMA3-T | 296 | 2026-09-03 07:19:38 | 2026-09-03 08:30:41 |
| DD8BA-10 | 222 | 2026-09-03 06:49:32 | 2026-09-03 08:44:48 |
| GOEST3-10 | 208 | 2026-09-03 06:52:41 | 2026-09-03 08:32:21 |
| DL1NUX | 190 | 2026-09-03 07:21:19 | 2026-09-03 08:30:09 |
| DO2SHX-10 | 161 | 2026-09-03 07:31:06 | 2026-09-03 08:28:31 |
| DJ2DS-15 | 124 | 2026-09-03 06:49:10 | 2026-09-03 08:46:22 |
| DL3AQ-11 | 88 | 2026-09-03 06:58:17 | 2026-09-03 08:46:46 |
| DF5WG-10 | 76 | 2026-09-03 06:58:57 | 2026-09-03 08:26:28 |
| DO9LL-15 | 72 | 2026-09-03 06:49:22 | 2026-09-03 08:33:51 |
| DL4XJ-10 | 54 | 2026-09-03 07:17:52 | 2026-09-03 08:54:39 |
| DO3DL | 48 | 2026-09-03 07:12:10 | 2026-09-03 08:32:08 |
| DB0UT-7 | 43 | 2026-09-03 07:00:15 | 2026-09-03 08:32:19 |
| DF8AY-15 | 41 | 2026-09-03 07:37:36 | 2026-09-03 08:46:43 |
| BIOWL9-15 | 37 | 2026-09-03 06:50:04 | 2026-09-03 08:53:43 |
| DB0NH | 37 | 2026-09-03 07:35:17 | 2026-09-03 08:41:19 |
| DL4BBY-15 | 35 | 2026-09-03 06:49:23 | 2026-09-03 08:18:35 |
| DC6BW-12 | 34 | 2026-09-03 06:49:14 | 2026-09-03 08:38:09 |
| DK9SH | 33 | 2026-09-03 06:53:27 | 2026-09-03 08:50:09 |
| HTAHTA | 31 | 2026-09-03 06:54:53 | 2026-09-03 08:28:07 |
| BUE01 | 31 | 2026-09-03 07:05:49 | 2026-09-03 08:43:39 |
| DD1CC8 | 30 | 2026-09-03 07:05:33 | 2026-09-03 08:39:51 |
| SO1NDE-10 | 30 | 2026-09-03 07:20:45 | 2026-09-03 08:30:39 |
| DL1LOL-11 | 29 | 2026-09-03 06:48:01 | 2026-09-03 08:46:15 |
| D01LWL | 26 | 2026-09-03 07:21:56 | 2026-09-03 08:39:04 |
| DL1CLM-18 | 24 | 2026-09-03 06:49:33 | 2026-09-03 08:46:01 |
| DD1CC3-15 | 24 | 2026-09-03 06:56:18 | 2026-09-03 08:47:42 |
| SONDE2-11 | 23 | 2026-09-03 07:24:18 | 2026-09-03 08:27:57 |
| EDDB2-11 | 23 | 2026-09-03 07:27:34 | 2026-09-03 08:31:42 |
| BIOWL7-15 | 22 | 2026-09-03 06:53:50 | 2026-09-03 08:49:48 |
| SMARD9-15 | 22 | 2026-09-03 07:22:01 | 2026-09-03 08:25:11 |
| DL8OAI-8 | 20 | 2026-09-03 07:18:44 | 2026-09-03 08:54:30 |
| SONCRA | 19 | 2026-09-03 07:07:07 | 2026-09-03 08:48:04 |
| DF4FW | 17 | 2026-09-03 06:54:33 | 2026-09-03 08:08:51 |
| DJ2KF-10 | 17 | 2026-09-03 07:10:39 | 2026-09-03 08:12:50 |
| DL3OBA | 17 | 2026-09-03 07:30:15 | 2026-09-03 08:49:02 |
| DL8DAS-14 | 17 | 2026-09-03 07:35:28 | 2026-09-03 08:22:31 |
| EDDB2-12 | 16 | 2026-09-03 07:19:03 | 2026-09-03 08:37:42 |
| DO2LYB-13 | 14 | 2026-09-03 07:16:35 | 2026-09-03 08:33:08 |
| DK5PH-5 | 13 | 2026-09-03 07:31:47 | 2026-09-03 08:11:53 |
| DF7PN | 12 | 2026-09-03 07:30:48 | 2026-09-03 08:10:39 |
| AU51GT2 | 10 | 2026-09-03 07:27:45 | 2026-09-03 08:05:31 |
| DO2KSM | 9 | 2026-09-03 07:01:39 | 2026-09-03 08:24:38 |
| SMARD9-10 | 9 | 2026-09-03 07:05:34 | 2026-09-03 08:43:27 |
| MET0W-2 | 8 | 2026-09-03 06:57:55 | 2026-09-03 08:09:30 |
| DB0ND-19 | 8 | 2026-09-03 07:21:54 | 2026-09-03 08:32:51 |
| AM1SDL-15 | 7 | 2026-09-03 08:27:47 | 2026-09-03 08:41:59 |
| DL8DAS-15 | 6 | 2026-09-03 07:34:00 | 2026-09-03 07:58:21 |
| HARRO8 | 5 | 2026-09-03 07:43:57 | 2026-09-03 08:18:46 |
| S3001 | 4 | 2026-09-03 08:16:59 | 2026-09-03 08:36:38 |
| WEDDY | 3 | 2026-09-03 07:17:09 | 2026-09-03 08:04:01 |
| DD1CC1-15 | 3 | 2026-09-03 07:22:15 | 2026-09-03 08:15:02 |
| DJ8HS-15 | 3 | 2026-09-03 07:42:22 | 2026-09-03 07:52:44 |
| AP2371 | 3 | 2026-09-03 07:46:08 | 2026-09-03 07:57:28 |
| DO1YAY-16 | 3 | 2026-09-03 07:46:20 | 2026-09-03 08:01:52 |
| DO3MHA-11 | 1 | 2026-09-03 07:53:27 | 2026-09-03 07:53:27 |
| NBG1-10 | 1 | 2026-09-03 08:01:33 | 2026-09-03 08:01:33 |
| DF7ER-10 | 1 | 2026-09-03 08:26:58 | 2026-09-03 08:26:58 |
| Receiver | Date | Latitude | Longitude | Direction | Speed | Altitude | Climb | Temperature | Humidity | Pressure | Voltage | Killtimer | Uptime | BKT | XDATA |
|---|---|---|---|---|---|---|---|---|---|---|---|---|---|---|---|
| DB0DAN | 2026-09-03 08:56:25 | 52.16969 | 9.94534 | 47° | 40km/h | 411m | -3.8m/s | 16.7°C | 70% | 972.11hPa | 2.8V | 00:00:00 | 00:00:00 | 00:00:00 | |
| DB0DAN | 2026-09-03 08:56:10 | 52.16852 | 9.94341 | 48° | 42km/h | 471m | -4.4m/s | 16.2°C | 71.6% | 965.13hPa | 2.8V | 00:00:00 | 00:00:00 | 00:00:00 | |
| DB0DAN | 2026-09-03 08:55:55 | 52.16742 | 9.94127 | 53° | 44km/h | 535m | -4m/s | 15.5°C | 73.7% | 958.05hPa | 2.8V | 00:00:00 | 00:00:00 | 00:00:00 | |
| DB0DAN | 2026-09-03 08:55:40 | 52.16637 | 9.93877 | 58° | 47km/h | 606m | -4.4m/s | 15°C | 76% | 950.03hPa | 2.8V | 00:00:00 | 00:00:00 | 00:00:00 | |
| DB0DAN | 2026-09-03 08:55:25 | 52.16536 | 9.93595 | 59° | 53km/h | 667m | -4m/s | 14.6°C | 78.5% | 943hPa | 2.8V | 00:00:00 | 00:00:00 | 00:00:00 | |
| DM0DOS-11 | 2026-09-03 08:55:25 | 52.16529 | 9.93575 | 59° | 57km/h | 671m | -4m/s | 14.6°C | 78.2% | 942.6hPa | 2.8V | 07:28:34 | 02:23:06 | 00:00:00 | |
| DM0DOS-11 | 2026-09-03 08:55:25 | 52.16514 | 9.93535 | 58° | 57km/h | 679m | -3.8m/s | 14.5°C | 78.5% | 941.8hPa | 2.8V | 07:28:36 | 02:23:04 | 00:00:00 | |
| DM0DOS-11 | 2026-09-03 08:55:25 | 52.16500 | 9.93495 | 58° | 57km/h | 687m | -3.7m/s | 14.4°C | 78.8% | 940.8hPa | 2.8V | 07:28:38 | 02:23:02 | 00:00:00 | |
| DM0DOS-11 | 2026-09-03 08:55:19 | 52.16485 | 9.93455 | 59° | 57km/h | 695m | -4.1m/s | 14.3°C | 79% | 940.1hPa | 2.8V | 07:28:40 | 02:23:00 | 00:00:00 | |
| DM0DOS-11 | 2026-09-03 08:55:19 | 52.16470 | 9.93414 | 59° | 58km/h | 703m | -3.9m/s | 14.3°C | 79.6% | 939hPa | 2.8V | 07:28:42 | 02:22:58 | 00:00:00 | |
| DM0DOS-11 | 2026-09-03 08:55:19 | 52.16448 | 9.93351 | 60° | 60km/h | 716m | -4.6m/s | 14.2°C | 79.9% | 937.6hPa | 2.8V | 07:28:45 | 02:22:55 | 00:00:00 | |
| DM0DOS-11 | 2026-09-03 08:55:14 | 52.16441 | 9.93329 | 61° | 60km/h | 721m | -4.8m/s | 14.2°C | 80.3% | 937.3hPa | 2.8V | 07:28:46 | 02:22:54 | 00:00:00 | |
| DM0DOS-11 | 2026-09-03 08:55:14 | 52.16426 | 9.93285 | 62° | 60km/h | 730m | -4.5m/s | 14.1°C | 80.9% | 936hPa | 2.8V | 07:28:48 | 02:22:52 | 00:00:00 | |
| DM0DOS-11 | 2026-09-03 08:55:14 | 52.16412 | 9.93241 | 63° | 60km/h | 740m | -4.4m/s | 14°C | 81.3% | 935hPa | 2.8V | 07:28:50 | 02:22:50 | 00:00:00 | |
| DB0DAN | 2026-09-03 08:55:10 | 52.16426 | 9.93285 | 62° | 57km/h | 731m | -4.5m/s | 14.1°C | 81.2% | 936.02hPa | 2.8V | 00:00:00 | 00:00:00 | 00:00:00 | |
| DM0DOS-11 | 2026-09-03 08:55:07 | 52.16399 | 9.93195 | 65° | 62km/h | 749m | -4.4m/s | 13.9°C | 81.3% | 934hPa | 2.8V | 07:28:52 | 02:22:48 | 00:00:00 | |
| DM0DOS-11 | 2026-09-03 08:55:07 | 52.16386 | 9.93149 | 65° | 62km/h | 759m | -5.1m/s | 13.8°C | 81.9% | 932.9hPa | 2.8V | 07:28:54 | 02:22:46 | 00:00:00 | |
| DM0DOS-11 | 2026-09-03 08:55:07 | 52.16373 | 9.93103 | 65° | 62km/h | 770m | -5.1m/s | 13.7°C | 82.1% | 931.7hPa | 2.8V | 07:28:56 | 02:22:44 | 00:00:00 | |
| DM0DOS-11 | 2026-09-03 08:55:01 | 52.16359 | 9.93057 | 65° | 62km/h | 781m | -6.3m/s | 13.6°C | 82.5% | 930.5hPa | 2.8V | 07:28:58 | 02:22:42 | 00:00:00 | |
| DM0DOS-11 | 2026-09-03 08:55:01 | 52.16347 | 9.93010 | 66° | 62km/h | 793m | -5.5m/s | 13.6°C | 83.5% | 929.1hPa | 2.8V | 07:29:00 | 02:22:40 | 00:00:00 | |
| DM0DOS-11 | 2026-09-03 08:55:01 | 52.16335 | 9.92963 | 68° | 62km/h | 805m | -6.2m/s | 13.6°C | 83.9% | 928hPa | 2.8V | 07:29:02 | 02:22:38 | 00:00:00 | |
| DB0DAN | 2026-09-03 08:54:55 | 52.16329 | 9.92939 | 69° | 60km/h | 811m | -6m/s | 13.7°C | 85% | 927.28hPa | 2.8V | 00:00:00 | 00:00:00 | 00:00:00 | |
| DM0DOS-11 | 2026-09-03 08:54:55 | 52.16323 | 9.92914 | 70° | 62km/h | 817m | -6.2m/s | 13.8°C | 85.5% | 926.5hPa | 2.8V | 07:29:04 | 02:22:36 | 00:00:00 | |
| DM0DOS-11 | 2026-09-03 08:54:55 | 52.16313 | 9.92865 | 72° | 64km/h | 829m | -5.7m/s | 13.8°C | 87.7% | 925.3hPa | 2.8V | 07:29:06 | 02:22:34 | 00:00:00 | |
| DM0DOS-11 | 2026-09-03 08:54:55 | 52.16304 | 9.92815 | 73° | 64km/h | 841m | -5.7m/s | 13.6°C | 86.9% | 924hPa | 2.8V | 07:29:08 | 02:22:32 | 00:00:00 | |
| DM0DOS-11 | 2026-09-03 08:54:49 | 52.16294 | 9.92763 | 74° | 66km/h | 852m | -5.9m/s | 13.4°C | 87.3% | 922.7hPa | 2.8V | 07:29:10 | 02:22:30 | 00:00:00 | |
| DM0DOS-11 | 2026-09-03 08:54:49 | 52.16285 | 9.92710 | 74° | 66km/h | 863m | -5.6m/s | 13.4°C | 89.3% | 921.3hPa | 2.8V | 07:29:12 | 02:22:28 | 00:00:00 | |
| DM0DOS-11 | 2026-09-03 08:54:49 | 52.16277 | 9.92658 | 75° | 66km/h | 874m | -5.6m/s | 13.2°C | 88.2% | 920.3hPa | 2.8V | 07:29:14 | 02:22:26 | 00:00:00 | |
| DM0DOS-11 | 2026-09-03 08:54:43 | 52.16269 | 9.92606 | 76° | 64km/h | 885m | -5.4m/s | 13.1°C | 88.7% | 919hPa | 2.8V | 07:29:16 | 02:22:24 | 00:00:00 | |
| DM0DOS-11 | 2026-09-03 08:54:43 | 52.16261 | 9.92554 | 76° | 64km/h | 896m | -5.3m/s | 13°C | 89.3% | 918hPa | 2.8V | 07:29:18 | 02:22:22 | 00:00:00 | |
| DM0DOS-11 | 2026-09-03 08:54:43 | 52.16250 | 9.92479 | 76° | 64km/h | 910m | -4.9m/s | 12.8°C | 89.6% | 916.4hPa | 2.8V | 07:29:21 | 02:22:19 | 00:00:00 | |
| DB0DAN | 2026-09-03 08:54:40 | 52.16261 | 9.92554 | 77° | 60km/h | 896m | -5.3m/s | 13°C | 89.6% | 917.98hPa | 2.8V | 00:00:00 | 00:00:00 | 00:00:00 | |
| DL4XJ-10 | 2026-09-03 08:54:39 | 52.16257 | 9.92529 | 77° | 64km/h | 901m | -4.9m/s | 14.2°C | 0% | 0hPa | 2.8V | 00:00:00 | 00:00:00 | 00:00:00 | |
| DM0DOS-11 | 2026-09-03 08:54:37 | 52.16246 | 9.92453 | 76° | 64km/h | 916m | -5m/s | 12.9°C | 89.5% | 915.8hPa | 2.8V | 07:29:22 | 02:22:18 | 00:00:00 | |
| DM0DOS-11 | 2026-09-03 08:54:37 | 52.16238 | 9.92402 | 77° | 64km/h | 926m | -5.1m/s | 13.1°C | 90.5% | 914.6hPa | 2.8V | 07:29:24 | 02:22:16 | 00:00:00 | |
| DM0DOS-11 | 2026-09-03 08:54:37 | 52.16225 | 9.92297 | 78° | 66km/h | 946m | -4.9m/s | 13.4°C | 91% | 912.5hPa | 2.8V | 07:29:28 | 02:22:12 | 00:00:00 | |
| DM0DOS-11 | 2026-09-03 08:54:32 | 52.16221 | 9.92271 | 78° | 66km/h | 951m | -5m/s | 13.4°C | 91.4% | 911.7hPa | 2.8V | 07:29:29 | 02:22:11 | 00:00:00 | |
| DM0DOS-11 | 2026-09-03 08:54:32 | 52.16215 | 9.92219 | 78° | 64km/h | 960m | -5.1m/s | 13.3°C | 91.6% | 910.9hPa | 2.8V | 07:29:31 | 02:22:09 | 00:00:00 | |
| DM0DOS-11 | 2026-09-03 08:54:32 | 52.16208 | 9.92167 | 78° | 66km/h | 971m | -5.1m/s | 13.2°C | 91.9% | 909.8hPa | 2.8V | 07:29:33 | 02:22:07 | 00:00:00 | |
| DL8OAI-8 | 2026-09-03 08:54:30 | 52.16228 | 9.92323 | 79° | 64km/h | 941m | -5.0m/s | 13.4°C | 91.9% | 912.8hPa | 2.8V | 07:29:00 | 00:00:00 | 00:00:00 | |
| DB0DAN | 2026-09-03 08:54:25 | 52.16208 | 9.92167 | 78° | 62km/h | 971m | -5.1m/s | 13.2°C | 92.2% | 909.77hPa | 2.8V | 00:00:00 | 00:00:00 | 00:00:00 | |
| DM0DOS-11 | 2026-09-03 08:54:24 | 52.16201 | 9.92114 | 77° | 66km/h | 981m | -5.1m/s | 13.2°C | 92.2% | 908.6hPa | 2.8V | 07:29:35 | 02:22:05 | 00:00:00 | |
| DM0DOS-11 | 2026-09-03 08:54:24 | 52.16195 | 9.92062 | 77° | 66km/h | 991m | -5m/s | 13.1°C | 92.2% | 907.6hPa | 2.8V | 07:29:37 | 02:22:03 | 00:00:00 | |
| DM0DOS-11 | 2026-09-03 08:54:24 | 52.16188 | 9.92009 | 78° | 66km/h | 1001m | -4.9m/s | 13°C | 92.3% | 906.2hPa | 2.7V | 07:29:39 | 02:22:01 | 00:00:00 | |
| DL4XJ-10 | 2026-09-03 08:54:21 | 52.16195 | 9.92062 | 78° | 66km/h | 991m | -5.0m/s | 14.4°C | 0% | 0hPa | 2.8V | 00:00:00 | 00:00:00 | 00:00:00 | |
| DM0DOS-11 | 2026-09-03 08:54:18 | 52.16181 | 9.91956 | 78° | 66km/h | 1011m | -5.1m/s | 13°C | 92.4% | 905.3hPa | 2.8V | 07:29:41 | 02:21:59 | 00:00:00 | |
| DM0DOS-11 | 2026-09-03 08:54:18 | 52.16175 | 9.91903 | 78° | 66km/h | 1021m | -5.1m/s | 12.9°C | 92.5% | 904.2hPa | 2.8V | 07:29:43 | 02:21:57 | 00:00:00 | |
| DM0DOS-11 | 2026-09-03 08:54:12 | 52.16161 | 9.91798 | 78° | 66km/h | 1041m | -5.3m/s | 12.8°C | 92.6% | 902.2hPa | 2.8V | 07:29:47 | 02:21:53 | 00:00:00 | |
| DB0DAN | 2026-09-03 08:54:10 | 52.16158 | 9.91772 | 79° | 62km/h | 1046m | -5.2m/s | 12.7°C | 93.1% | 901.58hPa | 2.8V | 00:00:00 | 00:00:00 | 00:00:00 | |
| DL4XJ-10 | 2026-09-03 08:54:10 | 52.16158 | 9.91771 | 79° | 66km/h | 1046m | -5.2m/s | 14.0°C | 0% | 0hPa | 2.8V | 00:00:00 | 00:00:00 | 00:00:00 | |
| DM0DOS-11 | 2026-09-03 08:54:06 | 52.16142 | 9.91640 | 79° | 66km/h | 1072m | -5.1m/s | 12.5°C | 93.3% | 898.8hPa | 2.8V | 07:29:53 | 02:21:47 | 00:00:00 | |
| DM0DOS-11 | 2026-09-03 08:54:06 | 52.16136 | 9.91587 | 79° | 66km/h | 1082m | -5m/s | 12.4°C | 93.7% | 897.7hPa | 2.8V | 07:29:55 | 02:21:45 | 00:00:00 | |
| DM0DOS-11 | 2026-09-03 08:54:06 | 52.16130 | 9.91534 | 79° | 66km/h | 1092m | -5m/s | 12.3°C | 94.1% | 896.7hPa | 2.8V | 07:29:57 | 02:21:43 | 00:00:00 | |
| DM0DOS-11 | 2026-09-03 08:54:00 | 52.16124 | 9.91481 | 78° | 66km/h | 1102m | -4.9m/s | 12.2°C | 94.7% | 895.7hPa | 2.8V | 07:29:59 | 02:21:41 | 00:00:00 | |
| DM0DOS-11 | 2026-09-03 08:54:00 | 52.16117 | 9.91428 | 79° | 66km/h | 1112m | -5m/s | 12.1°C | 95.1% | 894.6hPa | 2.8V | 07:30:01 | 02:21:39 | 00:00:00 | |
| BIOWL1-15 | 2026-09-03 08:53:58 | 52.16121 | 9.91455 | 79° | 66km/h | 1107m | -4.9m/s | 12.2°C | 99.7% | 895.2hPa | 2.8V | 07:32:16 | 02:21:40 | 00:00:00 | |
| DB0DAN | 2026-09-03 08:53:55 | 52.16111 | 9.91375 | 79° | 62km/h | 1122m | -5m/s | 12.1°C | 95.7% | 893.65hPa | 2.8V | 00:00:00 | 00:00:00 | 00:00:00 | |
| DM0DOS-11 | 2026-09-03 08:53:54 | 52.16105 | 9.91322 | 78° | 66km/h | 1132m | -4.8m/s | 12°C | 95.9% | 892.5hPa | 2.7V | 07:30:05 | 02:21:35 | 00:00:00 | |
| DM0DOS-11 | 2026-09-03 08:53:54 | 52.16099 | 9.91270 | 78° | 66km/h | 1141m | -5.1m/s | 11.9°C | 96.2% | 891.5hPa | 2.8V | 07:30:07 | 02:21:33 | 00:00:00 | |
| DM0DOS-11 | 2026-09-03 08:53:54 | 52.16092 | 9.91217 | 78° | 66km/h | 1152m | -5.1m/s | 11.8°C | 96.3% | 890.3hPa | 2.8V | 07:30:09 | 02:21:31 | 00:00:00 | |
| BIOWL1-15 | 2026-09-03 08:53:54 | 52.16108 | 9.91349 | 80° | 66km/h | 1127m | -4.7m/s | 12°C | 100% | 893hPa | 2.8V | 07:32:16 | 02:21:36 | 00:00:00 | |
| BIOWL1-15 | 2026-09-03 08:53:52 | 52.16102 | 9.91296 | 79° | 66km/h | 1137m | -5m/s | 11.9°C | 100% | 892hPa | 2.8V | 07:32:16 | 02:21:34 | 00:00:00 | |
| DL4XJ-10 | 2026-09-03 08:53:50 | 52.16095 | 9.91243 | 80° | 66km/h | 1147m | -5.1m/s | 13.1°C | 0% | 0hPa | 2.8V | 00:00:00 | 00:00:00 | 00:00:00 | |
| DL8OAI-8 | 2026-09-03 08:53:49 | 52.16096 | 9.91243 | 80° | 66km/h | 1147m | -5.1m/s | 11.9°C | 96.6% | 890.9hPa | 2.8V | 07:30:00 | 00:00:00 | 00:00:00 | |
| DM0DOS-11 | 2026-09-03 08:53:48 | 52.16086 | 9.91164 | 79° | 64km/h | 1162m | -4.7m/s | 11.7°C | 96.6% | 889.3hPa | 2.8V | 07:30:11 | 02:21:29 | 00:00:00 | |
| DM0DOS-11 | 2026-09-03 08:53:48 | 52.16080 | 9.91112 | 78° | 66km/h | 1171m | -4.8m/s | 11.7°C | 97% | 888.1hPa | 2.8V | 07:30:13 | 02:21:27 | 00:00:00 | |
| DM0DOS-11 | 2026-09-03 08:53:48 | 52.16074 | 9.91059 | 78° | 64km/h | 1181m | -5m/s | 11.6°C | 97.3% | 887.3hPa | 2.8V | 07:30:15 | 02:21:25 | 00:00:00 | |
| BIOWL1-15 | 2026-09-03 08:53:44 | 52.16067 | 9.91007 | 79° | 66km/h | 1191m | -5.1m/s | 11.5°C | 100% | 886.3hPa | 2.8V | 07:32:16 | 02:21:23 | 00:00:00 | |
| BIOWL9-15 | 2026-09-03 08:53:43 | 52.16070 | 9.91033 | 79° | 64km/h | 1186m | -5.0m/s | 11.5°C | 97.7% | 886.6hPa | 2.8V | 00:00:00 | 00:00:00 | 00:00:00 | |
| DM0DOS-11 | 2026-09-03 08:53:42 | 52.16061 | 9.90954 | 78° | 66km/h | 1201m | -4.9m/s | 11.4°C | 98% | 885.3hPa | 2.8V | 07:30:19 | 02:21:21 | 00:00:00 | |
| DM0DOS-11 | 2026-09-03 08:53:42 | 52.16054 | 9.90901 | 78° | 66km/h | 1211m | -4.7m/s | 11.4°C | 98.2% | 884.2hPa | 2.8V | 07:30:21 | 02:21:19 | 00:00:00 | |
| BIOWL1-15 | 2026-09-03 08:53:42 | 52.16064 | 9.90980 | 79° | 66km/h | 1196m | -4.9m/s | 11.5°C | 100% | 885.6hPa | 2.7V | 07:32:16 | 02:21:22 | 00:00:00 | |
| DB0DAN | 2026-09-03 08:53:40 | 52.16064 | 9.90980 | 79° | 62km/h | 1196m | -4.9m/s | 11.5°C | 98.1% | 885.65hPa | 2.7V | 00:00:00 | 00:00:00 | 00:00:00 | |
| BIOWL1-15 | 2026-09-03 08:53:38 | 52.16054 | 9.90901 | 78° | 66km/h | 1211m | -4.7m/s | 11.4°C | 100% | 884.2hPa | 2.8V | 07:32:16 | 02:21:19 | 00:00:00 | |
| DM0DOS-11 | 2026-09-03 08:53:36 | 52.16047 | 9.90848 | 78° | 66km/h | 1220m | -4.8m/s | 11.3°C | 98.3% | 883.2hPa | 2.8V | 07:30:23 | 02:21:17 | 00:00:00 | |
| DM0DOS-11 | 2026-09-03 08:53:36 | 52.16040 | 9.90796 | 77° | 66km/h | 1230m | -4.8m/s | 11.2°C | 98.4% | 882.1hPa | 2.8V | 07:30:25 | 02:21:15 | 00:00:00 | |
| DM0DOS-11 | 2026-09-03 08:53:36 | 52.16034 | 9.90744 | 78° | 64km/h | 1239m | -4.7m/s | 11.2°C | 98.5% | 881.4hPa | 2.8V | 07:30:27 | 02:21:13 | 00:00:00 | |
| BIOWL1-15 | 2026-09-03 08:53:33 | 52.16040 | 9.90796 | 78° | 66km/h | 1230m | -4.8m/s | 11.2°C | 100% | 882.1hPa | 2.8V | 07:32:16 | 02:21:15 | 00:00:00 | |
| BIOWL1-15 | 2026-09-03 08:53:31 | 52.16034 | 9.90744 | 78° | 64km/h | 1239m | -4.7m/s | 11.2°C | 100% | 881.4hPa | 2.8V | 07:32:16 | 02:21:13 | 00:00:00 | |
| BIOWL1-15 | 2026-09-03 08:53:31 | 52.16027 | 9.90692 | 79° | 66km/h | 1248m | -4.5m/s | 11.1°C | 100% | 880.2hPa | 2.8V | 07:32:16 | 02:21:11 | 00:00:00 | |
| DM0DOS-11 | 2026-09-03 08:53:30 | 52.16027 | 9.90692 | 79° | 66km/h | 1248m | -4.5m/s | 11.1°C | 98.2% | 880.2hPa | 2.8V | 07:30:29 | 02:21:11 | 00:00:00 | |
| DM0DOS-11 | 2026-09-03 08:53:30 | 52.16020 | 9.90639 | 77° | 66km/h | 1258m | -4.6m/s | 11.1°C | 97.9% | 879.1hPa | 2.8V | 07:30:31 | 02:21:09 | 00:00:00 | |
| DM0DOS-11 | 2026-09-03 08:53:30 | 52.16013 | 9.90586 | 78° | 66km/h | 1267m | -4.8m/s | 11°C | 98.2% | 878.3hPa | 2.8V | 07:30:33 | 02:21:07 | 00:00:00 | |
| BIOWL1-15 | 2026-09-03 08:53:27 | 52.16017 | 9.90613 | 78° | 66km/h | 1262m | -4.8m/s | 11°C | 100% | 878.8hPa | 2.8V | 07:32:16 | 02:21:08 | 00:00:00 | |
| BIOWL1-15 | 2026-09-03 08:53:27 | 52.16013 | 9.90586 | 78° | 66km/h | 1267m | -4.9m/s | 11°C | 100% | 878.3hPa | 2.8V | 07:32:16 | 02:21:07 | 00:00:00 | |
| DB0DAN | 2026-09-03 08:53:25 | 52.16013 | 9.90586 | 78° | 62km/h | 1267m | -4.9m/s | 11°C | 98.5% | 878.28hPa | 2.8V | 00:00:00 | 00:00:00 | 00:00:00 | |
| DM0DOS-11 | 2026-09-03 08:53:24 | 52.16007 | 9.90534 | 77° | 66km/h | 1277m | -4.5m/s | 10.9°C | 98.4% | 877.1hPa | 2.8V | 07:30:35 | 02:21:05 | 00:00:00 | |
| DL4XJ-10 | 2026-09-03 08:53:19 | 52.15993 | 9.90429 | 79° | 64km/h | 1296m | -4.6m/s | 12.0°C | 0% | 0hPa | 2.8V | 00:00:00 | 00:00:00 | 00:00:00 | |
| DM0DOS-11 | 2026-09-03 08:53:18 | 52.15973 | 9.90275 | 78° | 64km/h | 1324m | -4.5m/s | 10.6°C | 0% | 872.2hPa | 2.8V | 07:30:45 | 02:20:55 | 00:00:00 | |
| BIOWL1-15 | 2026-09-03 08:53:12 | 52.15955 | 9.90121 | 80° | 64km/h | 1352m | -4.5m/s | 10.5°C | 100% | 869.4hPa | 2.8V | 07:32:16 | 02:20:49 | 00:00:00 | |
| BIOWL1-15 | 2026-09-03 08:53:12 | 52.15953 | 9.90096 | 80° | 62km/h | 1356m | -4.5m/s | 10.5°C | 100% | 869hPa | 2.8V | 07:32:16 | 02:20:48 | 00:00:00 | |
| DM0DOS-11 | 2026-09-03 08:53:12 | 52.15967 | 9.90224 | 79° | 64km/h | 1333m | -4.8m/s | 10.6°C | 0% | 871.3hPa | 2.8V | 07:30:47 | 02:20:53 | 00:00:00 | |
| DM0DOS-11 | 2026-09-03 08:53:12 | 52.15961 | 9.90172 | 80° | 64km/h | 1343m | -4.7m/s | 10.5°C | 0% | 870.6hPa | 2.8V | 07:30:49 | 02:20:51 | 00:00:00 | |
| DM0DOS-11 | 2026-09-03 08:53:12 | 52.15955 | 9.90121 | 79° | 64km/h | 1352m | -4.5m/s | 10.5°C | 99.8% | 869.4hPa | 2.8V | 07:30:51 | 02:20:49 | 00:00:00 | |
| DB0DAN | 2026-09-03 08:53:10 | 52.15964 | 9.90198 | 79° | 60km/h | 1338m | -4.7m/s | 10.6°C | 100% | 870.93hPa | 2.8V | 00:00:00 | 00:00:00 | 00:00:00 | |
| DL4XJ-10 | 2026-09-03 08:53:09 | 52.15961 | 9.90172 | 81° | 62km/h | 1343m | -4.7m/s | 11.8°C | 0% | 0hPa | 2.7V | 00:00:00 | 00:00:00 | 00:00:00 | |
| DL8OAI-8 | 2026-09-03 08:53:07 | 52.15958 | 9.90147 | 80° | 64km/h | 1347m | -4.5m/s | 10.5°C | 100.3% | 869.9hPa | 2.7V | 07:31:00 | 00:00:00 | 00:00:00 | |
| DM0DOS-11 | 2026-09-03 08:53:06 | 52.15950 | 9.90070 | 78° | 62km/h | 1361m | -4.3m/s | 10.5°C | 99.4% | 868.6hPa | 2.7V | 07:30:53 | 02:20:47 | 00:00:00 | |
| DM0DOS-11 | 2026-09-03 08:53:06 | 52.15937 | 9.89971 | 78° | 60km/h | 1379m | -4.7m/s | 10.4°C | 99.6% | 866.6hPa | 2.8V | 07:30:57 | 02:20:43 | 00:00:00 | |
| BIOWL1-15 | 2026-09-03 08:53:06 | 52.15947 | 9.90045 | 79° | 62km/h | 1365m | -4.6m/s | 10.5°C | 100% | 868.1hPa | 2.8V | 07:32:16 | 02:20:46 | 00:00:00 | |
| BIOWL1-15 | 2026-09-03 08:53:02 | 52.15941 | 9.89996 | 78° | 62km/h | 1374m | -4.6m/s | 10.5°C | 100% | 867.2hPa | 2.8V | 07:32:16 | 02:20:44 | 00:00:00 | |
| DM0DOS-11 | 2026-09-03 08:53:00 | 52.15925 | 9.89873 | 78° | 62km/h | 1397m | -4.1m/s | 10.3°C | 99.9% | 864.6hPa | 2.8V | 07:31:01 | 02:20:39 | 00:00:00 | |
| DM0DOS-11 | 2026-09-03 08:53:00 | 52.15916 | 9.89798 | 79° | 62km/h | 1410m | -4.8m/s | 10.3°C | 99.6% | 863.4hPa | 2.8V | 07:31:04 | 02:20:36 | 00:00:00 | |
| BIOWL1-15 | 2026-09-03 08:53:00 | 52.15934 | 9.89947 | 78° | 60km/h | 1383m | -4.6m/s | 10.4°C | 100% | 866hPa | 2.8V | 07:32:16 | 02:20:42 | 00:00:00 | |
| DF8AY | 2026-09-03 08:52:57 | 52.15925 | 9.89873 | 78° | 62km/h | 1397m | -4.1m/s | 10.3°C | 100% | 864.6hPa | 2.8V | 07:32:16 | 02:20:39 | 00:00:00 | |
| DB0DAN | 2026-09-03 08:52:55 | 52.15919 | 9.89823 | 79° | 58km/h | 1406m | -4.5m/s | 10.3°C | 100% | 863.79hPa | 2.8V | 00:00:00 | 00:00:00 | 00:00:00 | |
| DM0DOS-11 | 2026-09-03 08:52:54 | 52.15907 | 9.89723 | 79° | 62km/h | 1424m | -4.8m/s | 10.2°C | 0% | 861.6hPa | 2.8V | 07:31:07 | 02:20:33 | 00:00:00 | |
| DM0DOS-11 | 2026-09-03 08:52:54 | 52.15901 | 9.89674 | 79° | 60km/h | 1433m | -4.3m/s | 10.1°C | 0% | 860.9hPa | 2.8V | 07:31:09 | 02:20:31 | 00:00:00 | |
| BIOWL1-15 | 2026-09-03 08:52:53 | 52.15913 | 9.89773 | 79° | 60km/h | 1415m | -4.5m/s | 10.2°C | 100% | 862.8hPa | 2.7V | 07:32:16 | 02:20:35 | 00:00:00 | |
| BIOWL1-15 | 2026-09-03 08:52:50 | 52.15901 | 9.89674 | 79° | 60km/h | 1433m | -4.3m/s | 10.1°C | 100% | 860.9hPa | 2.8V | 07:32:16 | 02:20:31 | 00:00:00 | |
| BIOWL1-15 | 2026-09-03 08:52:50 | 52.15898 | 9.89649 | 78° | 60km/h | 1437m | -4.3m/s | 10.1°C | 100% | 860.4hPa | 2.8V | 07:32:16 | 02:20:30 | 00:00:00 | |
| DM0DOS-11 | 2026-09-03 08:52:48 | 52.15895 | 9.89624 | 78° | 62km/h | 1442m | -4.5m/s | 10.1°C | 0% | 860.1hPa | 2.8V | 07:31:11 | 02:20:29 | 00:00:00 | |
| BIOWL1-15 | 2026-09-03 08:52:44 | 52.15886 | 9.89551 | 79° | 62km/h | 1456m | -4.7m/s | 10°C | 100% | 858.5hPa | 2.8V | 07:32:16 | 02:20:26 | 00:00:00 | |
| BIOWL1-15 | 2026-09-03 08:52:43 | 52.15883 | 9.89526 | 79° | 60km/h | 1460m | -4.9m/s | 10°C | 100% | 858.1hPa | 2.8V | 07:32:16 | 02:20:25 | 00:00:00 | |
| DM0DOS-11 | 2026-09-03 08:52:42 | 52.15878 | 9.89477 | 79° | 62km/h | 1469m | -4.2m/s | 9.9°C | 0% | 857hPa | 2.8V | 07:31:17 | 02:20:23 | 00:00:00 | |
| DM0DOS-11 | 2026-09-03 08:52:42 | 52.15866 | 9.89378 | 79° | 60km/h | 1487m | -4.5m/s | 9.8°C | 99.4% | 855.4hPa | 2.8V | 07:31:21 | 02:20:19 | 00:00:00 | |
| DB0DAN | 2026-09-03 08:52:40 | 52.15875 | 9.89452 | 80° | 58km/h | 1474m | -4.5m/s | 9.9°C | 100% | 856.66hPa | 2.8V | 00:00:00 | 00:00:00 | 00:00:00 | |
| BIOWL1-15 | 2026-09-03 08:52:40 | 52.15869 | 9.89403 | 80° | 60km/h | 1483m | -4.6m/s | 9.9°C | 100% | 855.8hPa | 2.8V | 07:32:16 | 02:20:20 | 00:00:00 | |
| DL4XJ-10 | 2026-09-03 08:52:39 | 52.15872 | 9.89427 | 80° | 60km/h | 1478m | -4.6m/s | 11.1°C | 0% | 0hPa | 2.8V | 00:00:00 | 00:00:00 | 00:00:00 | |
| DM0DOS-11 | 2026-09-03 08:52:36 | 52.15861 | 9.89330 | 80° | 60km/h | 1496m | -4.3m/s | 9.8°C | 99.6% | 854.2hPa | 2.8V | 07:31:23 | 02:20:17 | 00:00:00 | |
| BIOWL1-15 | 2026-09-03 08:52:35 | 52.15848 | 9.89208 | 81° | 60km/h | 1518m | -4.6m/s | 9.6°C | 100% | 852hPa | 2.8V | 07:32:16 | 02:20:12 | 00:00:00 | |
| BIOWL1-15 | 2026-09-03 08:52:34 | 52.15846 | 9.89184 | 81° | 58km/h | 1523m | -4.3m/s | 9.6°C | 100% | 851.6hPa | 2.8V | 07:32:16 | 02:20:11 | 00:00:00 | |
| DF8AY | 2026-09-03 08:52:32 | 52.15842 | 9.89136 | 82° | 58km/h | 1532m | -4.3m/s | 9.6°C | 100% | 850.8hPa | 2.8V | 07:32:16 | 02:20:09 | 00:00:00 | |
| BIOWL1-15 | 2026-09-03 08:52:30 | 52.15844 | 9.89160 | 82° | 58km/h | 1527m | -4.5m/s | 9.6°C | 100% | 851.2hPa | 2.8V | 07:32:16 | 02:20:10 | 00:00:00 | |
| BIOWL1-15 | 2026-09-03 08:52:26 | 52.15838 | 9.89089 | 83° | 58km/h | 1540m | -4.4m/s | 9.5°C | 100% | 849.8hPa | 2.8V | 07:32:16 | 02:20:07 | 00:00:00 | |
| BIOWL1-15 | 2026-09-03 08:52:26 | 52.15836 | 9.89065 | 83° | 57km/h | 1545m | -4.5m/s | 9.5°C | 100% | 849.3hPa | 2.8V | 07:32:16 | 02:20:06 | 00:00:00 | |
| DB0DAN | 2026-09-03 08:52:25 | 52.15838 | 9.89089 | 83° | 55km/h | 1540m | -4.4m/s | 9.5°C | 99.8% | 849.78hPa | 2.8V | 00:00:00 | 00:00:00 | 00:00:00 | |
| DM0DOS-11 | 2026-09-03 08:52:24 | 52.15834 | 9.89042 | 83° | 57km/h | 1549m | -4.3m/s | 9.5°C | 99.3% | 848.7hPa | 2.8V | 07:31:35 | 02:20:05 | 00:00:00 | |
| DM0DOS-11 | 2026-09-03 08:52:24 | 52.15828 | 9.88949 | 83° | 57km/h | 1567m | -4.2m/s | 9.4°C | 99.2% | 847.2hPa | 2.8V | 07:31:39 | 02:20:01 | 00:00:00 | |
| BIOWL1-15 | 2026-09-03 08:52:23 | 52.15834 | 9.89042 | 83° | 57km/h | 1549m | -4.4m/s | 9.5°C | 100% | 848.7hPa | 2.8V | 07:32:16 | 02:20:05 | 00:00:00 | |
| BIOWL1-15 | 2026-09-03 08:52:21 | 52.15831 | 9.88995 | 83° | 57km/h | 1558m | -4.6m/s | 9.5°C | 100% | 848hPa | 2.8V | 07:32:16 | 02:20:03 | 00:00:00 | |
| BIOWL1-15 | 2026-09-03 08:52:19 | 52.15828 | 9.88949 | 84° | 57km/h | 1567m | -4.2m/s | 9.4°C | 100% | 847.2hPa | 2.8V | 07:32:16 | 02:20:01 | 00:00:00 | |
| DM0DOS-11 | 2026-09-03 08:52:18 | 52.15825 | 9.88903 | 83° | 57km/h | 1575m | -4m/s | 9.4°C | 99.4% | 846.2hPa | 2.8V | 07:31:41 | 02:19:59 | 00:00:00 | |
| BIOWL1-15 | 2026-09-03 08:52:18 | 52.15826 | 9.88926 | 83° | 57km/h | 1571m | -4.3m/s | 9.4°C | 100% | 846.7hPa | 2.8V | 07:32:16 | 02:20:00 | 00:00:00 | |
| BIOWL1-15 | 2026-09-03 08:52:16 | 52.15823 | 9.88880 | 84° | 57km/h | 1579m | -4.3m/s | 9.4°C | 100% | 845.7hPa | 2.8V | 07:32:16 | 02:19:58 | 00:00:00 | |
| BIOWL1-15 | 2026-09-03 08:52:14 | 52.15820 | 9.88834 | 85° | 57km/h | 1587m | -4.2m/s | 9.3°C | 100% | 844.9hPa | 2.8V | 07:32:16 | 02:19:56 | 00:00:00 | |
| BIOWL1-15 | 2026-09-03 08:52:12 | 52.15818 | 9.88788 | 86° | 57km/h | 1596m | -4.3m/s | 9.3°C | 100% | 844.1hPa | 2.8V | 07:32:16 | 02:19:54 | 00:00:00 | |
| DF8AY | 2026-09-03 08:52:11 | 52.15817 | 9.88765 | 86° | 57km/h | 1600m | -4.4m/s | 9.3°C | 100% | 843.7hPa | 2.8V | 07:32:16 | 02:19:53 | 00:00:00 | |
| DB0DAN | 2026-09-03 08:52:10 | 52.15816 | 9.88742 | 86° | 51km/h | 1604m | -4.4m/s | 9.3°C | 99.2% | 843.3hPa | 2.8V | 00:00:00 | 00:00:00 | 00:00:00 | |
| BIOWL1-15 | 2026-09-03 08:52:10 | 52.15816 | 9.88742 | 86° | 55km/h | 1604m | -4.4m/s | 9.3°C | 100% | 843.3hPa | 2.8V | 07:32:16 | 02:19:52 | 00:00:00 | |
| DF8AY | 2026-09-03 08:52:09 | 52.15815 | 9.88720 | 86° | 55km/h | 1609m | -4m/s | 9.2°C | 100% | 842.9hPa | 2.7V | 07:32:16 | 02:19:51 | 00:00:00 | |
| DF8AY | 2026-09-03 08:52:08 | 52.15813 | 9.88675 | 88° | 55km/h | 1617m | -4.2m/s | 9.2°C | 100% | 842.1hPa | 2.8V | 07:32:16 | 02:19:49 | 00:00:00 | |
| BIOWL1-15 | 2026-09-03 08:52:08 | 52.15813 | 9.88653 | 88° | 53km/h | 1621m | -4.1m/s | 9.2°C | 100% | 841.7hPa | 2.8V | 07:32:16 | 02:19:48 | 00:00:00 | |
| DM0DOS-11 | 2026-09-03 08:52:06 | 52.15812 | 9.88631 | 87° | 55km/h | 1625m | -3.9m/s | 9.2°C | 98.9% | 841.3hPa | 2.8V | 07:31:53 | 02:19:47 | 00:00:00 | |
| DF8AY | 2026-09-03 08:52:05 | 52.15812 | 9.88631 | 87° | 55km/h | 1625m | -3.9m/s | 9.2°C | 100% | 841.3hPa | 2.8V | 07:32:16 | 02:19:47 | 00:00:00 | |
| BIOWL1-15 | 2026-09-03 08:52:04 | 52.15809 | 9.88516 | 88° | 57km/h | 1645m | -4.2m/s | 9°C | 100% | 839.2hPa | 2.8V | 07:32:16 | 02:19:42 | 00:00:00 | |
| DF8AY | 2026-09-03 08:52:01 | 52.15810 | 9.88539 | 87° | 57km/h | 1641m | -3.8m/s | 9.1°C | 100% | 839.6hPa | 2.8V | 07:32:16 | 02:19:43 | 00:00:00 | |
| DM0DOS-11 | 2026-09-03 08:52:00 | 52.15808 | 9.88492 | 87° | 57km/h | 1649m | -4.2m/s | 9°C | 99.6% | 838.9hPa | 2.7V | 07:31:59 | 02:19:41 | 00:00:00 | |
| BIOWL1-15 | 2026-09-03 08:51:58 | 52.15808 | 9.88445 | 88° | 57km/h | 1658m | -4.1m/s | 9°C | 100% | 838.1hPa | 2.8V | 07:32:16 | 02:19:39 | 00:00:00 | |
| DF8AY | 2026-09-03 08:51:58 | 52.15808 | 9.88469 | 88° | 57km/h | 1654m | -4.1m/s | 9°C | 100% | 838.3hPa | 2.8V | 07:32:16 | 02:19:40 | 00:00:00 | |
| DF8AY | 2026-09-03 08:51:56 | 52.15807 | 9.88422 | 88° | 55km/h | 1661m | -3.8m/s | 9°C | 100% | 837.7hPa | 2.8V | 07:32:16 | 02:19:38 | 00:00:00 | |
| DF8AY | 2026-09-03 08:51:56 | 52.15806 | 9.88400 | 86° | 55km/h | 1665m | -3.7m/s | 8.9°C | 100% | 837.2hPa | 2.8V | 07:32:16 | 02:19:37 | 00:00:00 | |
| DB0DAN | 2026-09-03 08:51:55 | 52.15806 | 9.88400 | 86° | 51km/h | 1665m | -3.7m/s | 8.9°C | 99.7% | 837.25hPa | 2.8V | 00:00:00 | 00:00:00 | 00:00:00 | |
| BIOWL1-15 | 2026-09-03 08:51:54 | 52.15805 | 9.88378 | 85° | 55km/h | 1669m | -3.6m/s | 8.9°C | 100% | 836.8hPa | 2.8V | 07:32:16 | 02:19:36 | 00:00:00 | |
| DF8AY | 2026-09-03 08:51:53 | 52.15804 | 9.88355 | 84° | 55km/h | 1673m | -4m/s | 8.9°C | 100% | 836.4hPa | 2.8V | 07:32:16 | 02:19:35 | 00:00:00 | |
| BIOWL1-15 | 2026-09-03 08:51:52 | 52.15803 | 9.88333 | 85° | 55km/h | 1677m | -4.1m/s | 8.9°C | 100% | 836.2hPa | 2.8V | 07:32:16 | 02:19:34 | 00:00:00 | |
| BIOWL1-15 | 2026-09-03 08:51:51 | 52.15801 | 9.88311 | 84° | 55km/h | 1681m | -4.2m/s | 8.9°C | 100% | 835.5hPa | 2.8V | 07:32:16 | 02:19:33 | 00:00:00 | |
| DF8AY | 2026-09-03 08:51:49 | 52.15799 | 9.88266 | 87° | 53km/h | 1689m | -3.5m/s | 9°C | 100% | 834.9hPa | 2.7V | 07:32:16 | 02:19:31 | 00:00:00 | |
| BIOWL1-15 | 2026-09-03 08:51:49 | 52.15798 | 9.88223 | 86° | 53km/h | 1697m | -3.9m/s | 9°C | 100% | 834.1hPa | 2.8V | 07:32:16 | 02:19:29 | 00:00:00 | |
| DL4XJ-10 | 2026-09-03 08:51:49 | 52.15799 | 9.88266 | 88° | 53km/h | 1689m | -3.4m/s | 10.2°C | 0% | 0hPa | 2.8V | 00:00:00 | 00:00:00 | 00:00:00 | |
| DM0DOS-11 | 2026-09-03 08:51:48 | 52.15796 | 9.88134 | 89° | 53km/h | 1712m | -3.8m/s | 8.9°C | 98.7% | 832.6hPa | 2.8V | 07:32:15 | 02:19:25 | 00:00:00 | |
| DF8AY | 2026-09-03 08:51:48 | 52.15798 | 9.88244 | 88° | 53km/h | 1693m | -3.8m/s | 9°C | 100% | 834.6hPa | 2.8V | 07:32:16 | 02:19:30 | 00:00:00 | |
| DF8AY | 2026-09-03 08:51:46 | 52.15797 | 9.88201 | 86° | 53km/h | 1700m | -3.9m/s | 9°C | 100% | 833.7hPa | 2.8V | 07:32:16 | 02:19:28 | 00:00:00 | |
| BIOWL1-15 | 2026-09-03 08:51:45 | 52.15796 | 9.88179 | 87° | 55km/h | 1704m | -3.8m/s | 9°C | 100% | 833.4hPa | 2.8V | 07:32:16 | 02:19:27 | 00:00:00 | |
| BIOWL1-15 | 2026-09-03 08:51:43 | 52.15795 | 9.88134 | 90° | 53km/h | 1712m | -3.8m/s | 8.9°C | 100% | 832.6hPa | 2.8V | 07:32:16 | 02:19:25 | 00:00:00 | |
| DF8AY | 2026-09-03 08:51:42 | 52.15795 | 9.88112 | 88° | 51km/h | 1715m | -3.8m/s | 8.9°C | 100% | 832.1hPa | 2.8V | 07:32:16 | 02:19:24 | 00:00:00 | |
| BIOWL1-15 | 2026-09-03 08:51:41 | 52.15793 | 9.88048 | 88° | 53km/h | 1726m | -3.9m/s | 8.8°C | 100% | 831.1hPa | 2.7V | 07:33:07 | 02:19:21 | 00:00:00 | |
| DB0DAN | 2026-09-03 08:51:40 | 52.15794 | 9.88070 | 87° | 49km/h | 1723m | -3.5m/s | 8.8°C | 99.7% | 831.53hPa | 2.8V | 00:00:00 | 00:00:00 | 00:00:00 | |
| DF8AY | 2026-09-03 08:51:40 | 52.15794 | 9.88070 | 87° | 53km/h | 1723m | -3.5m/s | 8.8°C | 100% | 831.5hPa | 2.8V | 07:33:58 | 02:19:22 | 00:00:00 | |
| DF8AY | 2026-09-03 08:51:38 | 52.15793 | 9.88027 | 89° | 51km/h | 1730m | -4.1m/s | 8.8°C | 100% | 830.7hPa | 2.8V | 07:33:58 | 02:19:20 | 00:00:00 | |
| BIOWL1-15 | 2026-09-03 08:51:37 | 52.15792 | 9.87984 | 89° | 55km/h | 1738m | -3.5m/s | 8.8°C | 100% | 829.8hPa | 2.8V | 07:33:07 | 02:19:18 | 00:00:00 | |
| DF8AY | 2026-09-03 08:51:37 | 52.15793 | 9.88005 | 88° | 53km/h | 1734m | -4m/s | 8.8°C | 100% | 830.2hPa | 2.8V | 07:33:58 | 02:19:19 | 00:00:00 | |
| DM0DOS-11 | 2026-09-03 08:51:36 | 52.15791 | 9.87869 | 85° | 57km/h | 1757m | -3.5m/s | 8.8°C | 99.4% | 828.1hPa | 2.8V | 07:32:27 | 02:19:13 | 00:00:00 | |
| DF8AY | 2026-09-03 08:51:35 | 52.15792 | 9.87961 | 89° | 57km/h | 1742m | -3.7m/s | 8.8°C | 100% | 829.6hPa | 2.8V | 07:33:58 | 02:19:17 | 00:00:00 | |
| DF8AY | 2026-09-03 08:51:35 | 52.15792 | 9.87938 | 90° | 57km/h | 1745m | -3.8m/s | 8.8°C | 100% | 829hPa | 2.8V | 07:33:58 | 02:19:16 | 00:00:00 | |
| BIOWL1-15 | 2026-09-03 08:51:33 | 52.15792 | 9.87915 | 91° | 57km/h | 1749m | -4m/s | 8.8°C | 100% | 828.8hPa | 2.8V | 07:33:07 | 02:19:15 | 00:00:00 | |
| BIOWL1-15 | 2026-09-03 08:51:32 | 52.15792 | 9.87892 | 89° | 55km/h | 1753m | -3.6m/s | 8.8°C | 100% | 828.4hPa | 2.8V | 07:33:07 | 02:19:14 | 00:00:00 | |
| BIOWL1-15 | 2026-09-03 08:51:30 | 52.15790 | 9.87846 | 84° | 57km/h | 1760m | -3.4m/s | 8.7°C | 100% | 827.6hPa | 2.8V | 07:33:07 | 02:19:12 | 00:00:00 | |
| DF8AY | 2026-09-03 08:51:27 | 52.15786 | 9.87773 | 88° | 62km/h | 1771m | -4m/s | 8.8°C | 100% | 826.5hPa | 2.8V | 07:33:58 | 02:19:09 | 00:00:00 | |
| DF8AY | 2026-09-03 08:51:26 | 52.15786 | 9.87748 | 90° | 60km/h | 1775m | -3.7m/s | 8.8°C | 100% | 826.2hPa | 2.8V | 07:33:58 | 02:19:08 | 00:00:00 | |
| DB0DAN | 2026-09-03 08:51:25 | 52.15786 | 9.87723 | 92° | 57km/h | 1779m | -3.4m/s | 8.7°C | 99.8% | 825.91hPa | 2.8V | 00:00:00 | 00:00:00 | 00:00:00 | |
| DM0DOS-11 | 2026-09-03 08:51:24 | 52.15788 | 9.87676 | 93° | 55km/h | 1786m | -3.9m/s | 8.7°C | 99.8% | 825.1hPa | 2.8V | 07:32:35 | 02:19:05 | 00:00:00 | |
| DM0DOS-11 | 2026-09-03 08:51:24 | 52.15791 | 9.87593 | 92° | 46km/h | 1801m | -3.5m/s | 8.6°C | 0% | 823.8hPa | 2.7V | 07:32:39 | 02:19:01 | 00:00:00 | |
| BIOWL1-15 | 2026-09-03 08:51:24 | 52.15787 | 9.87699 | 93° | 57km/h | 1782m | -3.6m/s | 8.7°C | 100% | 825.5hPa | 2.8V | 07:33:07 | 02:19:06 | 00:00:00 | |
| DF8AY | 2026-09-03 08:51:22 | 52.15788 | 9.87654 | 95° | 53km/h | 1789m | -4.1m/s | 8.7°C | 100% | 824.8hPa | 2.8V | 07:33:58 | 02:19:04 | 00:00:00 | |
| DF8AY | 2026-09-03 08:51:20 | 52.15790 | 9.87612 | 93° | 49km/h | 1797m | -3.7m/s | 8.7°C | 100% | 824hPa | 2.8V | 07:33:58 | 02:19:02 | 00:00:00 | |
| BIOWL1-15 | 2026-09-03 08:51:20 | 52.15791 | 9.87574 | 88° | 46km/h | 1804m | -3.6m/s | 8.6°C | 100% | 823.4hPa | 2.8V | 07:33:07 | 02:19:00 | 00:00:00 | |
| DF8AY | 2026-09-03 08:51:19 | 52.15791 | 9.87593 | 92° | 46km/h | 1801m | -3.5m/s | 8.6°C | 100% | 823.8hPa | 2.7V | 07:33:58 | 02:19:01 | 00:00:00 | |
| DM0DOS-11 | 2026-09-03 08:51:18 | 52.15790 | 9.87556 | 86° | 46km/h | 1808m | -3.8m/s | 8.6°C | 99.5% | 822.9hPa | 2.8V | 07:32:41 | 02:18:59 | 00:00:00 | |
| BIOWL1-15 | 2026-09-03 08:51:16 | 52.15788 | 9.87517 | 83° | 47km/h | 1816m | -3.7m/s | 8.5°C | 100% | 822.2hPa | 2.8V | 07:33:07 | 02:18:57 | 00:00:00 | |
| DF8AY | 2026-09-03 08:51:14 | 52.15786 | 9.87497 | 82° | 51km/h | 1819m | -3.4m/s | 8.5°C | 100% | 821.9hPa | 2.8V | 07:33:58 | 02:18:56 | 00:00:00 | |
| DM0DOS-11 | 2026-09-03 08:51:12 | 52.15782 | 9.87428 | 87° | 60km/h | 1829m | -3.3m/s | 8.5°C | 99.3% | 820.8hPa | 2.8V | 07:32:47 | 02:18:53 | 00:00:00 | |
| DM0DOS-11 | 2026-09-03 08:51:12 | 52.15780 | 9.87330 | 86° | 60km/h | 1843m | -3.4m/s | 8.4°C | 99.6% | 819.4hPa | 2.8V | 07:32:51 | 02:18:49 | 00:00:00 | |
| BIOWL1-15 | 2026-09-03 08:51:12 | 52.15783 | 9.87452 | 86° | 58km/h | 1826m | -3.2m/s | 8.5°C | 100% | 821.1hPa | 2.8V | 07:33:07 | 02:18:54 | 00:00:00 | |
| BIOWL1-15 | 2026-09-03 08:51:11 | 52.15782 | 9.87428 | 87° | 60km/h | 1829m | -3.3m/s | 8.5°C | 100% | 820.8hPa | 2.8V | 07:33:07 | 02:18:53 | 00:00:00 | |
| DB0DAN | 2026-09-03 08:51:10 | 52.15781 | 9.87404 | 88° | 57km/h | 1832m | -3.6m/s | 8.5°C | 99.3% | 820.37hPa | 2.7V | 00:00:00 | 00:00:00 | 00:00:00 | |
| DF8AY | 2026-09-03 08:51:10 | 52.15781 | 9.87404 | 88° | 60km/h | 1832m | -3.6m/s | 8.5°C | 100% | 820.4hPa | 2.7V | 07:33:58 | 02:18:52 | 00:00:00 | |
| BIOWL1-15 | 2026-09-03 08:51:09 | 52.15779 | 9.87306 | 85° | 58km/h | 1846m | -3.3m/s | 8.4°C | 100% | 819hPa | 2.8V | 07:33:07 | 02:18:48 | 00:00:00 | |
| DF8AY | 2026-09-03 08:51:09 | 52.15781 | 9.87379 | 89° | 60km/h | 1836m | -3.4m/s | 8.4°C | 100% | 820.2hPa | 2.8V | 07:33:58 | 02:18:51 | 00:00:00 | |
| DF8AY | 2026-09-03 08:51:07 | 52.15780 | 9.87330 | 87° | 60km/h | 1843m | -3.4m/s | 8.4°C | 100% | 819.4hPa | 2.8V | 07:33:58 | 02:18:49 | 00:00:00 | |
| BIOWL1-15 | 2026-09-03 08:51:07 | 52.15777 | 9.87282 | 83° | 58km/h | 1850m | -3.5m/s | 8.4°C | 100% | 818.7hPa | 2.8V | 07:33:07 | 02:18:47 | 00:00:00 | |
| DM0DOS-11 | 2026-09-03 08:51:06 | 52.15773 | 9.87237 | 81° | 51km/h | 1856m | -3.1m/s | 8.3°C | 99.7% | 818.1hPa | 2.8V | 07:32:55 | 02:18:45 | 00:00:00 | |
| DM0DOS-11 | 2026-09-03 08:51:06 | 52.15770 | 9.87197 | 84° | 46km/h | 1862m | -3.2m/s | 8.3°C | 99.9% | 817.5hPa | 2.8V | 07:32:57 | 02:18:43 | 00:00:00 | |
| DL8OAI-8 | 2026-09-03 08:51:03 | 52.15775 | 9.87259 | 82° | 55km/h | 1853m | -3.0m/s | 8.4°C | 99.7% | 818.4hPa | 2.8V | 07:33:00 | 00:00:00 | 00:00:00 | |
| DM0DOS-11 | 2026-09-03 08:51:00 | 52.15770 | 9.87159 | 91° | 46km/h | 1869m | -3.2m/s | 8.3°C | 99% | 817hPa | 2.8V | 07:32:59 | 02:18:41 | 00:00:00 | |
| BIOWL1-15 | 2026-09-03 08:51:00 | 52.15769 | 9.87178 | 88° | 46km/h | 1866m | -3.3m/s | 8.3°C | 100% | 817.2hPa | 2.7V | 07:33:07 | 02:18:42 | 00:00:00 | |
| BIOWL1-15 | 2026-09-03 08:50:58 | 52.15770 | 9.87140 | 94° | 46km/h | 1872m | -3.4m/s | 8.3°C | 100% | 816.6hPa | 2.8V | 07:33:07 | 02:18:40 | 00:00:00 | |
| BIOWL1-15 | 2026-09-03 08:50:56 | 52.15776 | 9.87061 | 99° | 51km/h | 1885m | -3.5m/s | 8.6°C | 97.4% | 815.3hPa | 2.8V | 07:33:07 | 02:18:36 | 00:00:00 | |
| BIOWL1-15 | 2026-09-03 08:50:55 | 52.15778 | 9.87040 | 100° | 53km/h | 1889m | -3.7m/s | 8.6°C | 96.7% | 814.9hPa | 2.8V | 07:33:07 | 02:18:35 | 00:00:00 | |
| DB0DAN | 2026-09-03 08:50:55 | 52.15774 | 9.87082 | 98° | 47km/h | 1882m | -3.2m/s | 8.6°C | 95.6% | 815.58hPa | 2.8V | 00:00:00 | 00:00:00 | 00:00:00 | |
| DM0DOS-11 | 2026-09-03 08:50:54 | 52.15778 | 9.87040 | 99° | 53km/h | 1889m | -3.7m/s | 8.6°C | 94.3% | 814.9hPa | 2.8V | 07:33:05 | 02:18:35 | 00:00:00 | |
| DM0DOS-11 | 2026-09-03 08:50:54 | 52.15782 | 9.86996 | 98° | 57km/h | 1896m | -3.7m/s | 8.7°C | 93.5% | 814.2hPa | 2.7V | 07:33:07 | 02:18:33 | 00:00:00 | |
| BIOWL1-15 | 2026-09-03 08:50:51 | 52.15784 | 9.86973 | 98° | 58km/h | 1900m | -2.8m/s | 8.8°C | 94.6% | 813.9hPa | 2.8V | 07:33:58 | 02:18:32 | 00:00:00 | |
| BIOWL1-15 | 2026-09-03 08:50:51 | 52.15786 | 9.86949 | 95° | 60km/h | 1903m | -2.7m/s | 8.9°C | 92.7% | 813.4hPa | 2.8V | 07:33:58 | 02:18:31 | 00:00:00 | |
| BIOWL1-15 | 2026-09-03 08:50:47 | 52.15787 | 9.86898 | 90° | 62km/h | 1908m | -2.9m/s | 9°C | 92.6% | 813.1hPa | 2.8V | 07:33:58 | 02:18:29 | 00:00:00 | |
| BIOWL1-15 | 2026-09-03 08:50:45 | 52.15782 | 9.86763 | 89° | 47km/h | 1926m | -3.3m/s | 9.1°C | 85.9% | 811.3hPa | 2.8V | 07:33:58 | 02:18:23 | 00:00:00 | |
| BIOWL1-15 | 2026-09-03 08:50:45 | 52.15782 | 9.86743 | 92° | 47km/h | 1930m | -3.5m/s | 9.1°C | 85% | 810.9hPa | 2.8V | 07:33:58 | 02:18:22 | 00:00:00 | |
| DF8AY | 2026-09-03 08:50:45 | 52.15786 | 9.86849 | 86° | 58km/h | 1914m | -2.8m/s | 9.3°C | 86.4% | 812.4hPa | 2.8V | 07:33:58 | 02:18:27 | 00:00:00 | |
| DF8AY | 2026-09-03 08:50:43 | 52.15783 | 9.86804 | 86° | 53km/h | 1920m | -3.2m/s | 9.2°C | 86.2% | 812hPa | 2.8V | 07:33:58 | 02:18:25 | 00:00:00 | |
| DM0DOS-11 | 2026-09-03 08:50:42 | 52.15782 | 9.86763 | 88° | 47km/h | 1926m | -3.2m/s | 9.1°C | 82.2% | 811.3hPa | 2.8V | 07:33:17 | 02:18:23 | 00:00:00 | |
| DM0DOS-11 | 2026-09-03 08:50:42 | 52.15783 | 9.86723 | 94° | 47km/h | 1933m | -3.2m/s | 9.1°C | 82.4% | 810.6hPa | 2.8V | 07:33:19 | 02:18:21 | 00:00:00 | |
| DM0DOS-11 | 2026-09-03 08:50:42 | 52.15786 | 9.86684 | 99° | 47km/h | 1939m | -3.2m/s | 9°C | 82.4% | 810.1hPa | 2.8V | 07:33:21 | 02:18:19 | 00:00:00 | |
| DF8AY | 2026-09-03 08:50:42 | 52.15783 | 9.86783 | 87° | 49km/h | 1923m | -3.2m/s | 9.1°C | 86.2% | 811.5hPa | 2.7V | 07:33:58 | 02:18:24 | 00:00:00 | |
| DF8AY | 2026-09-03 08:50:40 | 52.15783 | 9.86723 | 95° | 47km/h | 1933m | -3.2m/s | 9.1°C | 85.5% | 810.6hPa | 2.8V | 07:33:58 | 02:18:21 | 00:00:00 | |
| DB0DAN | 2026-09-03 08:50:40 | 52.15782 | 9.86743 | 92° | 46km/h | 1930m | -3.5m/s | 9.1°C | 82.2% | 810.89hPa | 2.8V | 00:00:00 | 00:00:00 | 00:00:00 | |
| BIOWL1-15 | 2026-09-03 08:50:37 | 52.15786 | 9.86684 | 99° | 47km/h | 1939m | -3.3m/s | 9°C | 86.5% | 810.1hPa | 2.8V | 07:33:58 | 02:18:19 | 00:00:00 | |
| DM0DOS-11 | 2026-09-03 08:50:36 | 52.15791 | 9.86644 | 101° | 51km/h | 1946m | -3.4m/s | 9°C | 82.4% | 809.2hPa | 2.8V | 07:33:23 | 02:18:17 | 00:00:00 | |
| DM0DOS-11 | 2026-09-03 08:50:36 | 52.15796 | 9.86601 | 99° | 57km/h | 1952m | -3.5m/s | 8.9°C | 83% | 808.6hPa | 2.7V | 07:33:25 | 02:18:15 | 00:00:00 | |
| DM0DOS-11 | 2026-09-03 08:50:36 | 52.15800 | 9.86553 | 94° | 60km/h | 1959m | -3.5m/s | 8.8°C | 83.1% | 808.1hPa | 2.8V | 07:33:27 | 02:18:13 | 00:00:00 | |
| BIOWL1-15 | 2026-09-03 08:50:35 | 52.15791 | 9.86644 | 101° | 51km/h | 1946m | -3.4m/s | 9°C | 86.9% | 809.2hPa | 2.8V | 07:33:58 | 02:18:17 | 00:00:00 | |
| BIOWL1-15 | 2026-09-03 08:50:34 | 52.15793 | 9.86623 | 102° | 55km/h | 1949m | -3.2m/s | 8.9°C | 87.4% | 808.7hPa | 2.8V | 07:33:58 | 02:18:16 | 00:00:00 | |
| BIOWL1-15 | 2026-09-03 08:50:32 | 52.15798 | 9.86577 | 98° | 58km/h | 1956m | -3m/s | 8.9°C | 87.6% | 808.3hPa | 2.8V | 07:33:58 | 02:18:14 | 00:00:00 | |
| DM0DOS-11 | 2026-09-03 08:50:30 | 52.15801 | 9.86505 | 89° | 57km/h | 1966m | -3.4m/s | 8.8°C | 82.9% | 807.5hPa | 2.8V | 07:33:29 | 02:18:11 | 00:00:00 | |
| DM0DOS-11 | 2026-09-03 08:50:30 | 52.15800 | 9.86460 | 88° | 51km/h | 1972m | -3.4m/s | 8.8°C | 82.1% | 806.7hPa | 2.8V | 07:33:31 | 02:18:09 | 00:00:00 | |
| DM0DOS-11 | 2026-09-03 08:50:30 | 52.15800 | 9.86420 | 93° | 47km/h | 1979m | -3.4m/s | 8.7°C | 82.3% | 806.1hPa | 2.8V | 07:33:33 | 02:18:07 | 00:00:00 | |
| BIOWL1-15 | 2026-09-03 08:50:30 | 52.15801 | 9.86528 | 92° | 60km/h | 1962m | -3.4m/s | 8.8°C | 87.4% | 807.6hPa | 2.8V | 07:33:58 | 02:18:12 | 00:00:00 | |
| DF8AY | 2026-09-03 08:50:28 | 52.15801 | 9.86482 | 88° | 55km/h | 1969m | -3.1m/s | 8.8°C | 86.4% | 807.1hPa | 2.8V | 07:33:58 | 02:18:10 | 00:00:00 | |
| DB0DAN | 2026-09-03 08:50:25 | 52.15800 | 9.86420 | 94° | 46km/h | 1979m | -3.4m/s | 8.7°C | 82.4% | 806.16hPa | 2.8V | 00:00:00 | 00:00:00 | 00:00:00 | |
| DM0DOS-11 | 2026-09-03 08:50:24 | 52.15804 | 9.86381 | 101° | 49km/h | 1986m | -3.4m/s | 8.7°C | 82.7% | 805.5hPa | 2.8V | 07:33:35 | 02:18:05 | 00:00:00 | |
| DM0DOS-11 | 2026-09-03 08:50:24 | 52.15809 | 9.86339 | 102° | 55km/h | 1992m | -3.2m/s | 8.8°C | 80.2% | 804.9hPa | 2.8V | 07:33:37 | 02:18:03 | 00:00:00 | |
| DM0DOS-11 | 2026-09-03 08:50:24 | 52.15815 | 9.86293 | 97° | 60km/h | 1999m | -3.5m/s | 8.8°C | 78.9% | 804.1hPa | 2.8V | 07:33:39 | 02:18:01 | 00:00:00 | |
| BIOWL1-15 | 2026-09-03 08:50:19 | 52.15815 | 9.86293 | 98° | 60km/h | 1999m | -3.5m/s | 8.8°C | 81.5% | 804.1hPa | 2.8V | 07:33:58 | 02:18:01 | 00:00:00 | |
| DL4XJ-10 | 2026-09-03 08:50:19 | 52.15814 | 9.86292 | 98° | 51km/h | 1999m | -3.4m/s | 10.0°C | 0% | 0hPa | 2.8V | 00:00:00 | 00:00:00 | 00:00:00 | |
| DM0DOS-11 | 2026-09-03 08:50:15 | 52.15821 | 9.86094 | 98° | 46km/h | 2031m | -3.7m/s | 9°C | 70.2% | 801.1hPa | 2.8V | 07:33:48 | 02:17:52 | 00:00:00 | |
| BIOWL1-15 | 2026-09-03 08:50:13 | 52.15819 | 9.86112 | 96° | 46km/h | 2027m | -3.6m/s | 9°C | 75.3% | 801.5hPa | 2.8V | 07:33:58 | 02:17:53 | 00:00:00 | |
| DM0DOS-11 | 2026-09-03 08:50:10 | 52.15833 | 9.85999 | 102° | 47km/h | 2049m | -3.8m/s | 9.2°C | 72.7% | 799.2hPa | 2.8V | 07:33:53 | 02:17:47 | 00:00:00 | |
| DB0DAN | 2026-09-03 08:50:10 | 52.15821 | 9.86093 | 99° | 44km/h | 2031m | -3.7m/s | 9°C | 70.3% | 801.15hPa | 2.8V | 00:00:00 | 00:00:00 | 00:00:00 | |
| DK9SH | 2026-09-03 08:50:09 | 52.15821 | 9.86093 | 100° | 46km/h | 2031m | -3.7m/s | 9.0°C | 70.3% | 801.1hPa | 2.8V | 07:33:00 | 00:00:00 | 00:00:00 | |
| DM0DOS-11 | 2026-09-03 08:50:05 | 52.15848 | 9.85900 | 104° | 51km/h | 2069m | -4.1m/s | 9.2°C | 79.2% | 797.5hPa | 2.8V | 07:33:58 | 02:17:42 | 00:00:00 | |
| BIOWL1-15 | 2026-09-03 08:50:00 | 52.15848 | 9.85900 | 105° | 51km/h | 2069m | -4.1m/s | 9.3°C | 84.9% | 797.5hPa | 2.8V | 07:33:58 | 02:17:42 | 00:00:00 | |
| DF8AY | 2026-09-03 08:49:57 | 52.15858 | 9.85838 | 105° | 55km/h | 2081m | -3.9m/s | 9.2°C | 85.4% | 796.3hPa | 2.8V | 07:34:49 | 02:17:39 | 00:00:00 | |
| DM0DOS-11 | 2026-09-03 08:49:55 | 52.15882 | 9.85672 | 98° | 62km/h | 2107m | -3.6m/s | 9.2°C | 82.9% | 793.8hPa | 2.7V | 07:34:08 | 02:17:32 | 00:00:00 | |
| DB0DAN | 2026-09-03 08:49:55 | 52.15866 | 9.85793 | 104° | 55km/h | 2089m | -3.7m/s | 9.2°C | 81.4% | 795.65hPa | 2.8V | 00:00:00 | 00:00:00 | 00:00:00 | |
| BIOWL1-15 | 2026-09-03 08:49:49 | 52.15884 | 9.85647 | 96° | 60km/h | 2110m | -3.3m/s | 9.2°C | 85.9% | 793.3hPa | 2.8V | 07:36:31 | 02:17:31 | 00:00:00 | |
| BIOWL7-15 | 2026-09-03 08:49:48 | 52.15884 | 9.85647 | 97° | 60km/h | 2110m | -3.3m/s | 9.2°C | 81.5% | 793.3hPa | 2.8V | 00:00:00 | 00:00:00 | 00:00:00 | |
| DM0DOS-11 | 2026-09-03 08:49:45 | 52.15895 | 9.85457 | 104° | 49km/h | 2142m | -3.5m/s | 9°C | 81.5% | 790.4hPa | 2.8V | 07:34:18 | 02:17:22 | 00:00:00 | |
| DL4XJ-10 | 2026-09-03 08:49:43 | 52.15888 | 9.85516 | 98° | 57km/h | 2131m | -3.5m/s | 10.3°C | 0% | 0hPa | 2.8V | 00:00:00 | 00:00:00 | 00:00:00 | |
| DB0DAN | 2026-09-03 08:49:40 | 52.15896 | 9.85457 | 105° | 47km/h | 2142m | -3.5m/s | 9°C | 81.6% | 790.42hPa | 2.8V | 00:00:00 | 00:00:00 | 00:00:00 | |
| DF8AY | 2026-09-03 08:49:40 | 52.15896 | 9.85457 | 105° | 49km/h | 2142m | -3.5m/s | 9°C | 86.3% | 790.4hPa | 2.8V | 07:34:49 | 02:17:22 | 00:00:00 | |
| BIOWL1-15 | 2026-09-03 08:49:39 | 52.15907 | 9.85395 | 107° | 57km/h | 2152m | -3.7m/s | 9°C | 85.6% | 789.5hPa | 2.8V | 07:36:31 | 02:17:19 | 00:00:00 | |
| DM0DOS-11 | 2026-09-03 08:49:35 | 52.15915 | 9.85349 | 104° | 60km/h | 2160m | -3.7m/s | 8.9°C | 80.6% | 788.7hPa | 2.8V | 07:34:23 | 02:17:17 | 00:00:00 | |
| DM0DOS-11 | 2026-09-03 08:49:35 | 52.15928 | 9.85226 | 96° | 57km/h | 2177m | -3.5m/s | 8.9°C | 79.9% | 787.1hPa | 2.8V | 07:34:28 | 02:17:12 | 00:00:00 | |
| DF8AY | 2026-09-03 08:49:30 | 52.15928 | 9.85226 | 96° | 57km/h | 2177m | -3.5m/s | 8.9°C | 83.3% | 787.1hPa | 2.8V | 07:34:49 | 02:17:12 | 00:00:00 | |
| BIOWL1-15 | 2026-09-03 08:49:26 | 52.15937 | 9.85133 | 100° | 58km/h | 2192m | -3.8m/s | 9°C | 82.2% | 785.7hPa | 2.7V | 07:36:31 | 02:17:08 | 00:00:00 | |
| DM0DOS-11 | 2026-09-03 08:49:25 | 52.15939 | 9.85110 | 97° | 58km/h | 2195m | -3.8m/s | 8.9°C | 77.8% | 785.2hPa | 2.8V | 07:34:33 | 02:17:07 | 00:00:00 | |
| DM0DOS-11 | 2026-09-03 08:49:25 | 52.15946 | 9.84999 | 99° | 49km/h | 2214m | -3.8m/s | 8.8°C | 77.7% | 783.6hPa | 2.7V | 07:34:38 | 02:17:02 | 00:00:00 | |
| DB0DAN | 2026-09-03 08:49:25 | 52.15939 | 9.85110 | 97° | 57km/h | 2195m | -3.8m/s | 8.9°C | 77.9% | 785.21hPa | 2.8V | 00:00:00 | 00:00:00 | 00:00:00 | |
| DL4XJ-10 | 2026-09-03 08:49:23 | 52.15942 | 9.85062 | 94° | 58km/h | 2203m | -3.5m/s | 10.1°C | 0% | 0hPa | 2.8V | 00:00:00 | 00:00:00 | 00:00:00 | |
| DM0DOS-11 | 2026-09-03 08:49:20 | 52.15963 | 9.84891 | 105° | 60km/h | 2233m | -4m/s | 8.7°C | 76.5% | 781.8hPa | 2.8V | 07:34:43 | 02:16:57 | 00:00:00 | |
| DF8AY | 2026-09-03 08:49:19 | 52.15948 | 9.84979 | 103° | 51km/h | 2218m | -3.8m/s | 8.8°C | 82.9% | 783.2hPa | 2.7V | 07:34:49 | 02:17:01 | 00:00:00 | |
| BIOWL1-15 | 2026-09-03 08:49:16 | 52.15959 | 9.84914 | 107° | 58km/h | 2229m | -3.9m/s | 8.7°C | 82.4% | 782.1hPa | 2.8V | 07:36:31 | 02:16:58 | 00:00:00 | |
| DM0DOS-11 | 2026-09-03 08:49:15 | 52.15983 | 9.84766 | 102° | 64km/h | 2252m | -3.9m/s | 8.6°C | 77.1% | 780hPa | 2.8V | 07:34:48 | 02:16:52 | 00:00:00 | |
| DB0DAN | 2026-09-03 08:49:10 | 52.15983 | 9.84766 | 102° | 60km/h | 2252m | -3.9m/s | 8.6°C | 77.2% | 779.96hPa | 2.8V | 00:00:00 | 00:00:00 | 00:00:00 | |
| DF8AY | 2026-09-03 08:49:08 | 52.16001 | 9.84503 | 106° | 55km/h | 2295m | -3.7m/s | 8.6°C | 69.3% | 776hPa | 2.7V | 07:35:40 | 02:16:41 | 00:00:00 | |
| BIOWL1-15 | 2026-09-03 08:49:06 | 52.15993 | 9.84612 | 91° | 58km/h | 2276m | -3.9m/s | 8.7°C | 74% | 777.7hPa | 2.7V | 07:36:31 | 02:16:46 | 00:00:00 | |
| DM0DOS-11 | 2026-09-03 08:49:05 | 52.15993 | 9.84636 | 91° | 60km/h | 2272m | -3.8m/s | 8.6°C | 70.3% | 778.2hPa | 2.8V | 07:34:53 | 02:16:47 | 00:00:00 | |
| DM0DOS-11 | 2026-09-03 08:49:05 | 52.15998 | 9.84524 | 102° | 53km/h | 2291m | -3.7m/s | 8.7°C | 64.5% | 776.4hPa | 2.8V | 07:34:58 | 02:16:42 | 00:00:00 | |
| DL4XJ-10 | 2026-09-03 08:49:03 | 52.15993 | 9.84588 | 93° | 57km/h | 2280m | -3.9m/s | 9.9°C | 0% | 0hPa | 2.8V | 00:00:00 | 00:00:00 | 00:00:00 | |
| DL3OBA | 2026-09-03 08:49:02 | 52.15993 | 9.84588 | 93° | 55km/h | 2280m | -4.0m/s | 8.7°C | 66.2% | 777.4hPa | 2.8V | 07:35:00 | 00:00:00 | 00:00:00 | |
| DM0DOS-11 | 2026-09-03 08:49:00 | 52.16017 | 9.84407 | 101° | 64km/h | 2310m | -3.8m/s | 8.6°C | 63.1% | 774.4hPa | 2.8V | 07:35:03 | 02:16:37 | 00:00:00 | |
| DL8OAI-8 | 2026-09-03 08:48:59 | 52.15998 | 9.84524 | 103° | 53km/h | 2291m | -3.7m/s | 8.7°C | 64.6% | 776.4hPa | 2.7V | 07:35:00 | 00:00:00 | 00:00:00 | |
| DM0DOS-11 | 2026-09-03 08:48:55 | 52.16024 | 9.84281 | 91° | 57km/h | 2329m | -4.1m/s | 8.3°C | 68.6% | 772.6hPa | 2.7V | 07:35:08 | 02:16:32 | 00:00:00 | |
| DB0DAN | 2026-09-03 08:48:55 | 52.16017 | 9.84407 | 102° | 60km/h | 2310m | -3.8m/s | 8.6°C | 63.2% | 774.43hPa | 2.8V | 00:00:00 | 00:00:00 | 00:00:00 | |
| BIOWL1-15 | 2026-09-03 08:48:53 | 52.16023 | 9.84305 | 92° | 58km/h | 2325m | -3.8m/s | 8.4°C | 73.8% | 773hPa | 2.7V | 07:36:31 | 02:16:33 | 00:00:00 | |
| DM0DOS-11 | 2026-09-03 08:48:50 | 52.16027 | 9.84173 | 96° | 49km/h | 2350m | -4.2m/s | 8.2°C | 70.7% | 770.8hPa | 2.8V | 07:35:13 | 02:16:27 | 00:00:00 | |
| DF8AY | 2026-09-03 08:48:48 | 52.16025 | 9.84236 | 93° | 53km/h | 2337m | -4m/s | 8.3°C | 74% | 772hPa | 2.7V | 07:35:40 | 02:16:30 | 00:00:00 | |
| DK9SH | 2026-09-03 08:48:46 | 52.16025 | 9.84214 | 94° | 51km/h | 2341m | -4.0m/s | 8.2°C | 68.3% | 771.7hPa | 2.8V | 07:35:00 | 00:00:00 | 00:00:00 | |
| DM0DOS-11 | 2026-09-03 08:48:45 | 52.16040 | 9.84072 | 106° | 55km/h | 2370m | -3.9m/s | 8.1°C | 74.9% | 769hPa | 2.8V | 07:35:18 | 02:16:22 | 00:00:00 | |
| DL4XJ-10 | 2026-09-03 08:48:43 | 52.16031 | 9.84133 | 101° | 58km/h | 2358m | -3.9m/s | 9.4°C | 0% | 0hPa | 2.8V | 00:00:00 | 00:00:00 | 00:00:00 | |
| DB0DAN | 2026-09-03 08:48:40 | 52.16040 | 9.84072 | 106° | 51km/h | 2370m | -3.9m/s | 8.1°C | 74.9% | 769.05hPa | 2.8V | 00:00:00 | 00:00:00 | 00:00:00 | |
| DM0DOS-11 | 2026-09-03 08:48:40 | 52.16058 | 9.83949 | 98° | 66km/h | 2388m | -4m/s | 8°C | 75.3% | 767.3hPa | 2.7V | 07:35:23 | 02:16:17 | 00:00:00 | |
| DF8AY | 2026-09-03 08:48:37 | 52.16052 | 9.84001 | 103° | 64km/h | 2381m | -3.6m/s | 8°C | 81% | 768.1hPa | 2.7V | 07:35:40 | 02:16:19 | 00:00:00 | |
| BIOWL1-15 | 2026-09-03 08:48:34 | 52.16060 | 9.83922 | 96° | 66km/h | 2392m | -3.9m/s | 7.9°C | 81.6% | 766.9hPa | 2.7V | 07:36:31 | 02:16:16 | 00:00:00 | |
| BIOWL9-15 | 2026-09-03 08:48:32 | 52.16062 | 9.83870 | 93° | 62km/h | 2400m | -4.0m/s | 7.9°C | 75.2% | 766.1hPa | 2.8V | 00:00:00 | 00:00:00 | 00:00:00 | |
| DM0DOS-11 | 2026-09-03 08:48:30 | 52.16063 | 9.83701 | 90° | 53km/h | 2429m | -4m/s | 7.7°C | 75.3% | 763.5hPa | 2.8V | 07:35:33 | 02:16:07 | 00:00:00 | |
| BIOWL1-15 | 2026-09-03 08:48:29 | 52.16064 | 9.83659 | 92° | 51km/h | 2437m | -3.9m/s | 7.6°C | 80.7% | 762.8hPa | 2.7V | 07:36:31 | 02:16:05 | 00:00:00 | |
| DF8AY | 2026-09-03 08:48:26 | 52.16064 | 9.83724 | 90° | 55km/h | 2425m | -4m/s | 7.7°C | 80.8% | 763.9hPa | 2.7V | 07:35:40 | 02:16:08 | 00:00:00 | |
| DB0DAN | 2026-09-03 08:48:25 | 52.16063 | 9.83701 | 90° | 51km/h | 2429m | -4m/s | 7.7°C | 75.4% | 763.48hPa | 2.8V | 00:00:00 | 00:00:00 | 00:00:00 | |
| DF8AY | 2026-09-03 08:48:15 | 52.16084 | 9.83487 | 103° | 62km/h | 2468m | -3.7m/s | 7.4°C | 80.5% | 759.8hPa | 2.7V | 07:36:31 | 02:15:57 | 00:00:00 | |
| DB0DAN | 2026-09-03 08:48:10 | 52.16096 | 9.83356 | 94° | 62km/h | 2488m | -4.1m/s | 7.3°C | 75% | 757.92hPa | 2.7V | 00:00:00 | 00:00:00 | 00:00:00 | |
| DM0DOS-11 | 2026-09-03 08:48:10 | 52.16096 | 9.83356 | 94° | 64km/h | 2488m | -4m/s | 7.3°C | 74.9% | 757.9hPa | 2.7V | 07:35:48 | 02:15:52 | 00:00:00 | |
| BIOWL1-15 | 2026-09-03 08:48:07 | 52.16097 | 9.83229 | 88° | 57km/h | 2508m | -3.9m/s | 7.1°C | 81.4% | 756.2hPa | 2.7V | 07:36:31 | 02:15:47 | 00:00:00 | |
| DM0DOS-11 | 2026-09-03 08:48:05 | 52.16100 | 9.83122 | 99° | 51km/h | 2527m | -4.2m/s | 6.9°C | 76.1% | 754.5hPa | 2.7V | 07:35:58 | 02:15:42 | 00:00:00 | |
| SONCRA | 2026-09-03 08:48:04 | 52.16096 | 9.83184 | 90° | 51km/h | 2515m | -3.7m/s | 7.0°C | 75.3% | 755.4hPa | 2.7V | 00:00:00 | 00:00:00 | 00:00:00 | |
| DL4XJ-10 | 2026-09-03 08:48:03 | 52.16096 | 9.83184 | 91° | 60km/h | 2515m | -3.7m/s | 8.3°C | 0% | 0hPa | 2.7V | 00:00:00 | 00:00:00 | 00:00:00 | |
| BIOWL9-15 | 2026-09-03 08:48:01 | 52.16098 | 9.83143 | 96° | 49km/h | 2523m | -3.9m/s | 7.0°C | 75.8% | 754.8hPa | 2.7V | 00:00:00 | 00:00:00 | 00:00:00 | |
| DM0DOS-11 | 2026-09-03 08:48:00 | 52.16115 | 9.83013 | 103° | 58km/h | 2547m | -4m/s | 6.8°C | 76.8% | 752.6hPa | 2.7V | 07:36:03 | 02:15:37 | 00:00:00 | |
| DF8AY | 2026-09-03 08:48:00 | 52.16099 | 9.83122 | 100° | 51km/h | 2527m | -4.2m/s | 6.9°C | 83.3% | 754.5hPa | 2.7V | 07:36:31 | 02:15:42 | 00:00:00 | |
| DL8OAI-8 | 2026-09-03 08:47:57 | 52.16105 | 9.83080 | 104° | 53km/h | 2535m | -4.0m/s | 6.9°C | 76.3% | 753.7hPa | 2.7V | 07:36:00 | 00:00:00 | 00:00:00 | |
| DB0DAN | 2026-09-03 08:47:55 | 52.16115 | 9.83013 | 104° | 55km/h | 2547m | -4m/s | 6.8°C | 76.8% | 752.59hPa | 2.7V | 00:00:00 | 00:00:00 | 00:00:00 | |
| DM0DOS-11 | 2026-09-03 08:47:55 | 52.16132 | 9.82889 | 100° | 66km/h | 2566m | -3.8m/s | 6.6°C | 77.5% | 750.9hPa | 2.7V | 07:36:08 | 02:15:32 | 00:00:00 | |
| BIOWL1-15 | 2026-09-03 08:47:54 | 52.16119 | 9.82990 | 103° | 60km/h | 2551m | -3.9m/s | 6.8°C | 82.8% | 752.3hPa | 2.7V | 07:36:31 | 02:15:36 | 00:00:00 | |
| DF8AY | 2026-09-03 08:47:51 | 52.16132 | 9.82889 | 100° | 66km/h | 2566m | -3.8m/s | 6.6°C | 82.3% | 750.9hPa | 2.7V | 07:36:31 | 02:15:32 | 00:00:00 | |
| DM0DOS-11 | 2026-09-03 08:47:50 | 52.16145 | 9.82753 | 95° | 68km/h | 2586m | -4.1m/s | 6.5°C | 79.4% | 749.1hPa | 2.7V | 07:36:13 | 02:15:27 | 00:00:00 | |
| BIOWL1-15 | 2026-09-03 08:47:43 | 52.16147 | 9.82699 | 92° | 64km/h | 2594m | -3.7m/s | 6.4°C | 85% | 748.4hPa | 2.7V | 07:36:31 | 02:15:25 | 00:00:00 | |
| DL4XJ-10 | 2026-09-03 08:47:43 | 52.16146 | 9.82699 | 92° | 62km/h | 2593m | -3.6m/s | 7.6°C | 0% | 0hPa | 2.7V | 00:00:00 | 00:00:00 | 00:00:00 | |
| DD1CC3-15 | 2026-09-03 08:47:42 | 52.16147 | 9.82699 | 93° | 64km/h | 2594m | -3.7m/s | 6.4°C | 79.6% | 748.4hPa | 2.7V | 00:00:00 | 00:00:00 | 00:00:00 | |
| DM0DOS-11 | 2026-09-03 08:47:40 | 52.16147 | 9.82625 | 91° | 55km/h | 2604m | -3.5m/s | 6.2°C | 80.4% | 747.3hPa | 2.7V | 07:36:18 | 02:15:22 | 00:00:00 | |
| DM0DOS-11 | 2026-09-03 08:47:40 | 52.16156 | 9.82517 | 104° | 55km/h | 2622m | -3.5m/s | 6.2°C | 81.4% | 745.6hPa | 2.7V | 07:36:23 | 02:15:17 | 00:00:00 | |
| DB0DAN | 2026-09-03 08:47:40 | 52.16147 | 9.82625 | 91° | 53km/h | 2604m | -3.5m/s | 6.2°C | 80.4% | 747.3hPa | 2.7V | 00:00:00 | 00:00:00 | 00:00:00 | |
| DF8AY | 2026-09-03 08:47:39 | 52.16148 | 9.82603 | 93° | 53km/h | 2608m | -3.4m/s | 6.2°C | 87.4% | 747.1hPa | 2.7V | 07:36:31 | 02:15:21 | 00:00:00 | |
| BIOWL1-15 | 2026-09-03 08:47:34 | 52.16168 | 9.82448 | 105° | 62km/h | 2633m | -3.8m/s | 6.1°C | 86.4% | 744.8hPa | 2.7V | 07:36:31 | 02:15:14 | 00:00:00 | |
| DM0DOS-11 | 2026-09-03 08:47:30 | 52.16176 | 9.82397 | 103° | 66km/h | 2640m | -3.7m/s | 6°C | 81.9% | 744.1hPa | 2.7V | 07:36:28 | 02:15:12 | 00:00:00 | |
| DM0DOS-11 | 2026-09-03 08:47:30 | 52.16193 | 9.82259 | 98° | 69km/h | 2659m | -3.5m/s | 5.9°C | 82.8% | 742.5hPa | 2.7V | 07:36:33 | 02:15:07 | 00:00:00 | |
| DF8AY | 2026-09-03 08:47:29 | 52.16180 | 9.82371 | 103° | 68km/h | 2644m | -3.6m/s | 6°C | 86.7% | 743.7hPa | 2.7V | 07:36:31 | 02:15:11 | 00:00:00 | |
| DB0DAN | 2026-09-03 08:47:25 | 52.16193 | 9.82259 | 98° | 68km/h | 2659m | -3.5m/s | 5.9°C | 82.8% | 742.47hPa | 2.7V | 00:00:00 | 00:00:00 | 00:00:00 | |
| DM0DOS-11 | 2026-09-03 08:47:25 | 52.16200 | 9.82119 | 91° | 66km/h | 2677m | -3.5m/s | 5.7°C | 83.7% | 740.8hPa | 2.7V | 07:36:38 | 02:15:02 | 00:00:00 | |
| BIOWL1-15 | 2026-09-03 08:47:22 | 52.16199 | 9.82174 | 94° | 69km/h | 2670m | -3.6m/s | 5.8°C | 88.3% | 741.4hPa | 2.7V | 07:37:22 | 02:15:04 | 00:00:00 | |
| DF8AY | 2026-09-03 08:47:18 | 52.16201 | 9.82066 | 91° | 62km/h | 2684m | -3.4m/s | 5.6°C | 89.9% | 740.2hPa | 2.7V | 07:37:22 | 02:15:00 | 00:00:00 | |
| DL8OAI-8 | 2026-09-03 08:47:17 | 52.16201 | 9.82066 | 92° | 62km/h | 2684m | -3.4m/s | 5.6°C | 83.9% | 740.2hPa | 2.7V | 07:37:00 | 00:00:00 | 00:00:00 | |
| DD1CC3-15 | 2026-09-03 08:47:16 | 52.16201 | 9.82041 | 93° | 58km/h | 2687m | -3.2m/s | 5.6°C | 84.2% | 740.0hPa | 2.7V | 07:37:00 | 00:00:00 | 00:00:00 | |
| DM0DOS-11 | 2026-09-03 08:47:15 | 52.16221 | 9.81876 | 105° | 64km/h | 2710m | -3.1m/s | 5.4°C | 84.2% | 737.9hPa | 2.7V | 07:36:48 | 02:14:52 | 00:00:00 | |
| BIOWL1-15 | 2026-09-03 08:47:12 | 52.16213 | 9.81925 | 106° | 60km/h | 2703m | -3.3m/s | 5.5°C | 89.2% | 738.4hPa | 2.7V | 07:37:22 | 02:14:54 | 00:00:00 | |
| DB0DAN | 2026-09-03 08:47:10 | 52.16221 | 9.81876 | 106° | 62km/h | 2710m | -3.1m/s | 5.4°C | 84.2% | 737.86hPa | 2.7V | 00:00:00 | 00:00:00 | 00:00:00 | |
| DF8AY | 2026-09-03 08:47:09 | 52.16230 | 9.81823 | 105° | 68km/h | 2716m | -3.5m/s | 5.4°C | 88.4% | 737.4hPa | 2.7V | 07:37:22 | 02:14:50 | 00:00:00 | |
| DM0DOS-11 | 2026-09-03 08:47:05 | 52.16242 | 9.81740 | 100° | 71km/h | 2726m | -3.4m/s | 5.3°C | 85% | 736.3hPa | 2.7V | 07:36:53 | 02:14:47 | 00:00:00 | |
| DM0DOS-11 | 2026-09-03 08:47:05 | 52.16251 | 9.81598 | 91° | 66km/h | 2742m | -3.1m/s | 5.1°C | 85.9% | 734.8hPa | 2.7V | 07:36:58 | 02:14:42 | 00:00:00 | |
| BIOWL1-15 | 2026-09-03 08:47:02 | 52.16249 | 9.81653 | 94° | 69km/h | 2736m | -3.2m/s | 5.2°C | 89.8% | 735.5hPa | 2.7V | 07:37:22 | 02:14:44 | 00:00:00 | |
| DL1XH1-15 | 2026-09-03 08:47:01 | 52.16252 | 9.81496 | 91° | 60km/h | 2755m | -3.2m/s | 5°C | 86.5% | 733.7hPa | 2.7V | 07:37:02 | 02:14:38 | 00:00:00 | |
| DL1XH-west | 2026-09-03 08:47:00 | 52.16251 | 9.81598 | 92° | 66km/h | 2742m | -3.2m/s | 5.1°C | 90.3% | 734.8hPa | 2.7V | 07:37:22 | 02:14:42 | 00:00:00 | |
| DF8AY | 2026-09-03 08:46:57 | 52.16252 | 9.81521 | 92° | 60km/h | 2752m | -3.2m/s | 5°C | 91.6% | 734hPa | 2.7V | 07:37:22 | 02:14:39 | 00:00:00 | |
| DB0DAN | 2026-09-03 08:46:55 | 52.16253 | 9.81471 | 93° | 57km/h | 2758m | -3.2m/s | 5°C | 86.7% | 733.5hPa | 2.7V | 00:00:00 | 00:00:00 | 00:00:00 | |
| DM0DOS-11 | 2026-09-03 08:46:55 | 52.16262 | 9.81355 | 102° | 57km/h | 2774m | -3.2m/s | 4.9°C | 85.6% | 732hPa | 2.7V | 07:37:08 | 02:14:32 | 00:00:00 | |
| DL1XH1-15 | 2026-09-03 08:46:53 | 52.16270 | 9.81309 | 104° | 60km/h | 2781m | -3.3m/s | 4.8°C | 85.6% | 731.6hPa | 2.7V | 07:37:10 | 02:14:30 | 00:00:00 | |
| BIOWL1-15 | 2026-09-03 08:46:51 | 52.16259 | 9.81378 | 101° | 57km/h | 2771m | -3.3m/s | 4.9°C | 92% | 732.4hPa | 2.7V | 07:37:22 | 02:14:33 | 00:00:00 | |
| DL1XH-west | 2026-09-03 08:46:49 | 52.16266 | 9.81332 | 104° | 58km/h | 2777m | -3.4m/s | 4.9°C | 90.6% | 731.8hPa | 2.7V | 07:37:22 | 02:14:31 | 00:00:00 | |
| DF8AY | 2026-09-03 08:46:46 | 52.16278 | 9.81260 | 106° | 64km/h | 2787m | -3.2m/s | 4.9°C | 89% | 730.7hPa | 2.7V | 07:37:22 | 02:14:28 | 00:00:00 | |
| DL3AQ-11 | 2026-09-03 08:46:46 | 52.16282 | 9.81234 | 105° | 64km/h | 2790m | -3.3m/s | 4.9°C | 84.1% | 730.5hPa | 2.7V | 00:00:00 | 00:00:00 | 00:00:00 | |
| DM0DOS-11 | 2026-09-03 08:46:45 | 52.16282 | 9.81234 | 105° | 66km/h | 2790m | -3.3m/s | 4.8°C | 84.2% | 730.5hPa | 2.7V | 07:37:13 | 02:14:27 | 00:00:00 | |
| DM0DOS-11 | 2026-09-03 08:46:45 | 52.16300 | 9.81094 | 95° | 71km/h | 2805m | -3.1m/s | 4.8°C | 82.2% | 729.1hPa | 2.7V | 07:37:18 | 02:14:22 | 00:00:00 | |
| DL1XH1-15 | 2026-09-03 08:46:43 | 52.16291 | 9.81181 | 103° | 69km/h | 2797m | -2.9m/s | 4.8°C | 83.7% | 730hPa | 2.7V | 07:37:15 | 02:14:25 | 00:00:00 | |
| DL1XH1-15 | 2026-09-03 08:46:43 | 52.16302 | 9.81036 | 91° | 68km/h | 2812m | -3.1m/s | 4.7°C | 81.8% | 728.6hPa | 2.7V | 07:37:20 | 02:14:20 | 00:00:00 | |
| DF8AY-15 | 2026-09-03 08:46:43 | 52.16291 | 9.81180 | 104° | 66km/h | 2797m | -2.9m/s | 4.8°C | 83.7% | 729.9hPa | 2.7V | 00:00:00 | 02:14:25 | 00:00:00 | |
| DB0DAN | 2026-09-03 08:46:40 | 52.16300 | 9.81094 | 96° | 68km/h | 2806m | -3.1m/s | 4.8°C | 82.1% | 729.14hPa | 2.7V | 00:00:00 | 00:00:00 | 00:00:00 | |
| DM0DOS-11 | 2026-09-03 08:46:40 | 52.16303 | 9.80958 | 92° | 60km/h | 2821m | -3.1m/s | 4.6°C | 81.8% | 727.7hPa | 2.7V | 07:37:23 | 02:14:17 | 00:00:00 | |
| BIOWL1-15 | 2026-09-03 08:46:40 | 52.16300 | 9.81094 | 96° | 71km/h | 2806m | -3.1m/s | 4.8°C | 87.4% | 729.1hPa | 2.7V | 07:37:22 | 02:14:22 | 00:00:00 | |
| DL1XH-west | 2026-09-03 08:46:38 | 52.16302 | 9.81036 | 92° | 68km/h | 2812m | -3.1m/s | 4.7°C | 86.9% | 728.6hPa | 2.7V | 07:37:22 | 02:14:20 | 00:00:00 | |
| DF8AY | 2026-09-03 08:46:36 | 52.16303 | 9.80983 | 91° | 62km/h | 2818m | -3.3m/s | 4.6°C | 86.8% | 728hPa | 2.7V | 07:37:22 | 02:14:18 | 00:00:00 | |
| DM0DOS-11 | 2026-09-03 08:46:35 | 52.16315 | 9.80839 | 105° | 60km/h | 2836m | -3m/s | 4.5°C | 80.4% | 726.3hPa | 2.7V | 07:37:28 | 02:14:12 | 00:00:00 | |
| DL1XH1-15 | 2026-09-03 08:46:33 | 52.16306 | 9.80910 | 97° | 57km/h | 2827m | -3m/s | 4.6°C | 80.8% | 727.2hPa | 2.7V | 07:37:25 | 02:14:15 | 00:00:00 | |
| DL1XH1-15 | 2026-09-03 08:46:33 | 52.16324 | 9.80788 | 105° | 66km/h | 2843m | -3.1m/s | 4.5°C | 81.1% | 725.9hPa | 2.7V | 07:37:30 | 02:14:10 | 00:00:00 | |
| DM0DOS-11 | 2026-09-03 08:46:30 | 52.16336 | 9.80704 | 101° | 71km/h | 2852m | -3m/s | 4.4°C | 81.7% | 725.1hPa | 2.7V | 07:37:33 | 02:14:07 | 00:00:00 | |
| BIOWL1-15 | 2026-09-03 08:46:29 | 52.16319 | 9.80814 | 105° | 64km/h | 2840m | -3.1m/s | 4.5°C | 85.1% | 726hPa | 2.7V | 07:40:46 | 02:14:11 | 00:00:00 | |
| DL1XH-west | 2026-09-03 08:46:27 | 52.16328 | 9.80761 | 105° | 69km/h | 2846m | -3.3m/s | 4.4°C | 85.8% | 725.6hPa | 2.7V | 07:38:13 | 02:14:09 | 00:00:00 | |
| DF8AY | 2026-09-03 08:46:26 | 52.16332 | 9.80733 | 103° | 71km/h | 2849m | -3m/s | 4.4°C | 86.1% | 725.4hPa | 2.7V | 07:38:13 | 02:14:08 | 00:00:00 | |
| DB0DAN | 2026-09-03 08:46:25 | 52.16336 | 9.80704 | 101° | 69km/h | 2852m | -3m/s | 4.4°C | 81.6% | 725.1hPa | 2.7V | 00:00:00 | 00:00:00 | 00:00:00 | |
| DF8AY-15 | 2026-09-03 08:46:23 | 52.16342 | 9.80645 | 98° | 64km/h | 2858m | -3.1m/s | 4.3°C | 81.6% | 724.4hPa | 2.6V | 00:00:00 | 02:14:05 | 00:00:00 | |
| DJ2DS-15 | 2026-09-03 08:46:22 | 52.16345 | 9.80615 | 97° | 64km/h | 2861m | -3.1m/s | 4.3°C | 81.6% | 724.0hPa | 2.6V | 00:00:00 | 02:14:04 | 00:00:00 | |
| DM0DOS-11 | 2026-09-03 08:46:20 | 52.16352 | 9.80416 | 91° | 62km/h | 2884m | -3.1m/s | 4.1°C | 80.4% | 722.3hPa | 2.7V | 07:37:43 | 02:13:57 | 00:00:00 | |
| BIOWL1-15 | 2026-09-03 08:46:19 | 52.16350 | 9.80527 | 94° | 71km/h | 2871m | -3.1m/s | 4.3°C | 85.4% | 723.4hPa | 2.7V | 07:40:46 | 02:14:01 | 00:00:00 | |
| DL1XH1-15 | 2026-09-03 08:46:18 | 52.16353 | 9.80366 | 93° | 58km/h | 2890m | -3.3m/s | 4.1°C | 80.7% | 721.7hPa | 2.7V | 07:37:45 | 02:13:55 | 00:00:00 | |
| DL1XH-west | 2026-09-03 08:46:16 | 52.16352 | 9.80442 | 91° | 66km/h | 2881m | -3.3m/s | 4.2°C | 85.3% | 722.5hPa | 2.7V | 07:38:13 | 02:13:58 | 00:00:00 | |
| DL1LOL-11 | 2026-09-03 08:46:15 | 52.16352 | 9.80442 | 92° | 66km/h | 2881m | -3.3m/s | 4.2°C | 80.4% | 722.5hPa | 2.7V | 00:00:00 | 00:00:00 | 00:00:00 | |
| DJ2DS-15 | 2026-09-03 08:46:14 | 52.16353 | 9.80391 | 92° | 60km/h | 2887m | -3.0m/s | 4.1°C | 80.4% | 721.9hPa | 2.7V | 00:00:00 | 00:00:00 | 00:00:00 | |
| DB0DAN | 2026-09-03 08:46:10 | 52.16358 | 9.80295 | 100° | 55km/h | 2900m | -2.9m/s | 4°C | 80.4% | 720.95hPa | 2.7V | 00:00:00 | 00:00:00 | 00:00:00 | |
| DM0DOS-11 | 2026-09-03 08:46:10 | 52.16358 | 9.80295 | 99° | 57km/h | 2900m | -2.9m/s | 4°C | 80.5% | 720.9hPa | 2.7V | 07:37:48 | 02:13:52 | 00:00:00 | |
| DM0DOS-11 | 2026-09-03 08:46:10 | 52.16375 | 9.80176 | 105° | 60km/h | 2914m | -3.1m/s | 3.9°C | 80.7% | 719.5hPa | 2.7V | 07:37:53 | 02:13:47 | 00:00:00 | |
| DL1XH1-15 | 2026-09-03 08:46:08 | 52.16364 | 9.80249 | 103° | 58km/h | 2905m | -2.8m/s | 4°C | 80.5% | 720.4hPa | 2.7V | 07:37:50 | 02:13:50 | 00:00:00 | |
| DL1XH1-15 | 2026-09-03 08:46:08 | 52.16383 | 9.80128 | 105° | 62km/h | 2921m | -2.9m/s | 3.9°C | 79.9% | 719hPa | 2.7V | 07:37:55 | 02:13:45 | 00:00:00 | |
| BIOWL1-15 | 2026-09-03 08:46:08 | 52.16364 | 9.80249 | 103° | 58km/h | 2905m | -2.8m/s | 4°C | 85.3% | 720.5hPa | 2.7V | 07:40:46 | 02:13:50 | 00:00:00 | |
| DL1XH-west | 2026-09-03 08:46:06 | 52.16371 | 9.80201 | 105° | 60km/h | 2911m | -3m/s | 3.9°C | 85.5% | 719.7hPa | 2.7V | 07:38:13 | 02:13:48 | 00:00:00 | |
| DF8AY | 2026-09-03 08:46:05 | 52.16375 | 9.80176 | 105° | 60km/h | 2914m | -3.1m/s | 3.9°C | 85.4% | 719.5hPa | 2.7V | 07:38:13 | 02:13:47 | 00:00:00 | |
| DL4XJ-10 | 2026-09-03 08:46:03 | 52.16383 | 9.80127 | 106° | 69km/h | 2921m | -2.8m/s | 5.1°C | 0% | 0hPa | 2.6V | 00:00:00 | 00:00:00 | 00:00:00 | |
| DL1CLM-18 | 2026-09-03 08:46:01 | 52.16388 | 9.80103 | 107° | 64km/h | 2924m | -3.0m/s | 3.9°C | 79.6% | 718.8hPa | 2.6V | 00:00:00 | 00:00:00 | 00:00:00 | |
| DM0DOS-11 | 2026-09-03 08:46:00 | 52.16418 | 9.79920 | 103° | 69km/h | 2945m | -3.2m/s | 3.9°C | 72.7% | 716.8hPa | 2.6V | 07:38:03 | 02:13:37 | 00:00:00 | |
| BIOWL1-15 | 2026-09-03 08:45:59 | 52.16409 | 9.79974 | 105° | 66km/h | 2939m | -3.1m/s | 3.9°C | 79.9% | 717.4hPa | 2.7V | 07:40:46 | 02:13:39 | 00:00:00 | |
| DL1XH1-15 | 2026-09-03 08:45:58 | 52.16405 | 9.80000 | 105° | 66km/h | 2936m | -3.2m/s | 3.9°C | 77.3% | 717.7hPa | 2.7V | 07:38:00 | 02:13:40 | 00:00:00 | |
| DL1XH1-15 | 2026-09-03 08:45:58 | 52.16426 | 9.79864 | 103° | 69km/h | 2951m | -2.9m/s | 3.8°C | 72.2% | 716.4hPa | 2.7V | 07:38:05 | 02:13:35 | 00:00:00 | |
| DL1XH-west | 2026-09-03 08:45:56 | 52.16414 | 9.79947 | 105° | 68km/h | 2942m | -3.1m/s | 3.9°C | 78.8% | 717.1hPa | 2.7V | 07:38:13 | 02:13:38 | 00:00:00 | |
| DM0DOS-11 | 2026-09-03 08:45:55 | 52.16437 | 9.79778 | 100° | 71km/h | 2961m | -3.1m/s | 3.8°C | 71.9% | 715.6hPa | 2.7V | 07:38:08 | 02:13:32 | 00:00:00 | |
| DB0DAN | 2026-09-03 08:45:55 | 52.16418 | 9.79920 | 104° | 66km/h | 2945m | -3.2m/s | 3.9°C | 72.6% | 716.77hPa | 2.6V | 00:00:00 | 00:00:00 | 00:00:00 | |
| DF8AY | 2026-09-03 08:45:54 | 52.16422 | 9.79892 | 103° | 69km/h | 2948m | -3.2m/s | 3.9°C | 78.2% | 716.7hPa | 2.7V | 07:38:13 | 02:13:36 | 00:00:00 | |
| DM0DOS-11 | 2026-09-03 08:45:50 | 52.16452 | 9.79631 | 98° | 73km/h | 2976m | -3.3m/s | 3.7°C | 72.3% | 714.2hPa | 2.7V | 07:38:13 | 02:13:27 | 00:00:00 | |
| BIOWL1-15 | 2026-09-03 08:45:47 | 52.16446 | 9.79690 | 99° | 73km/h | 2970m | -3.1m/s | 3.7°C | 76.4% | 714.6hPa | 2.7V | 07:40:46 | 02:13:29 | 00:00:00 | |
| DL1XH-west | 2026-09-03 08:45:45 | 52.16452 | 9.79631 | 99° | 73km/h | 2976m | -3.3m/s | 3.7°C | 76.3% | 714.2hPa | 2.7V | 07:38:13 | 02:13:27 | 00:00:00 | |
| DF8AY | 2026-09-03 08:45:44 | 52.16455 | 9.79601 | 97° | 71km/h | 2979m | -2.9m/s | 3.6°C | 76.1% | 713.9hPa | 2.7V | 07:39:04 | 02:13:26 | 00:00:00 | |
| DL1XH1-15 | 2026-09-03 08:45:43 | 52.16457 | 9.79572 | 96° | 71km/h | 2982m | -2.8m/s | 3.6°C | 72% | 713.5hPa | 2.6V | 07:38:15 | 02:13:25 | 00:00:00 | |
| DF8AY-15 | 2026-09-03 08:45:43 | 52.16457 | 9.79572 | 97° | 64km/h | 2982m | -2.8m/s | 3.6°C | 72.0% | 713.5hPa | 2.7V | 07:38:00 | 02:13:25 | 00:00:00 | |
| DB0DAN | 2026-09-03 08:45:40 | 52.16461 | 9.79486 | 93° | 66km/h | 2991m | -2.8m/s | 3.6°C | 71.4% | 712.88hPa | 2.7V | 00:00:00 | 00:00:00 | 00:00:00 | |
| DL1XH1-15 | 2026-09-03 08:45:38 | 52.16470 | 9.79306 | 100° | 58km/h | 3012m | -2.9m/s | 3.4°C | 73.9% | 711.1hPa | 2.6V | 07:38:25 | 02:13:15 | 00:00:00 | |
| BIOWL1-15 | 2026-09-03 08:45:38 | 52.16465 | 9.79379 | 94° | 62km/h | 3003m | -3m/s | 3.4°C | 78.5% | 711.8hPa | 2.7V | 07:40:46 | 02:13:18 | 00:00:00 | |
| DJ2DS-15 | 2026-09-03 08:45:38 | 52.16463 | 9.79431 | 92° | 64km/h | 2997m | -3.0m/s | 3.5°C | 72.2% | 712.4hPa | 2.7V | 00:00:00 | 00:00:00 | 00:00:00 | |
| DL1LOL-11 | 2026-09-03 08:45:37 | 52.16463 | 9.79431 | 94° | 66km/h | 2997m | -3.0m/s | 3.5°C | 72.2% | 712.4hPa | 2.7V | 00:00:00 | 00:00:00 | 00:00:00 | |
| DM0DOS-11 | 2026-09-03 08:45:35 | 52.16466 | 9.79354 | 94° | 60km/h | 3006m | -2.9m/s | 3.4°C | 73.1% | 711.5hPa | 2.7V | 07:38:23 | 02:13:17 | 00:00:00 | |
| DM0DOS-11 | 2026-09-03 08:45:35 | 52.16480 | 9.79234 | 106° | 62km/h | 3020m | -2.7m/s | 3.3°C | 74.7% | 710.3hPa | 2.7V | 07:38:28 | 02:13:12 | 00:00:00 | |
| DL1XH-west | 2026-09-03 08:45:34 | 52.16467 | 9.79330 | 97° | 58km/h | 3009m | -2.9m/s | 3.4°C | 79% | 711.2hPa | 2.6V | 07:39:04 | 02:13:16 | 00:00:00 | |
| DF8AY | 2026-09-03 08:45:33 | 52.16470 | 9.79306 | 100° | 58km/h | 3012m | -2.9m/s | 3.4°C | 79.2% | 711.1hPa | 2.6V | 07:39:04 | 02:13:15 | 00:00:00 | |
| BIOWL7-15 | 2026-09-03 08:45:32 | 52.16469 | 9.79306 | 101° | 58km/h | 3012m | -2.9m/s | 3.4°C | 73.7% | 711.1hPa | 2.7V | 00:00:00 | 00:00:00 | 00:00:00 | |
| DM0DOS-11 | 2026-09-03 08:45:30 | 52.16505 | 9.79105 | 107° | 68km/h | 3035m | -2.8m/s | 3.3°C | 72.1% | 708.9hPa | 2.7V | 07:38:33 | 02:13:07 | 00:00:00 | |
| DL1CLM-18 | 2026-09-03 08:45:29 | 52.16480 | 9.79234 | 107° | 62km/h | 3020m | -2.7m/s | 3.3°C | 74.5% | 710.3hPa | 2.6V | 00:00:00 | 00:00:00 | 00:00:00 | |
| DL1XH1-15 | 2026-09-03 08:45:28 | 52.16516 | 9.79051 | 106° | 69km/h | 3040m | -3.2m/s | 3.3°C | 71.9% | 708.5hPa | 2.6V | 07:38:35 | 02:13:05 | 00:00:00 | |
| BIOWL9-15 | 2026-09-03 08:45:26 | 52.16500 | 9.79132 | 107° | 66km/h | 3032m | -3.0m/s | 3.3°C | 72.9% | 709.2hPa | 2.7V | 00:00:00 | 00:00:00 | 00:00:00 | |
| DM0DOS-11 | 2026-09-03 08:45:25 | 52.16531 | 9.78967 | 105° | 71km/h | 3049m | -2.9m/s | 3.2°C | 71.8% | 707.6hPa | 2.7V | 07:38:38 | 02:13:02 | 00:00:00 | |
| DB0DAN | 2026-09-03 08:45:25 | 52.16505 | 9.79105 | 107° | 64km/h | 3035m | -2.8m/s | 3.3°C | 72% | 708.94hPa | 2.7V | 00:00:00 | 00:00:00 | 00:00:00 | |
| BIOWL1-15 | 2026-09-03 08:45:25 | 52.16505 | 9.79105 | 107° | 68km/h | 3035m | -2.8m/s | 3.3°C | 77.4% | 708.9hPa | 2.7V | 07:40:46 | 02:13:07 | 00:00:00 | |
| DL1XH-west | 2026-09-03 08:45:24 | 52.16510 | 9.79078 | 108° | 69km/h | 3037m | -2.7m/s | 3.3°C | 77% | 708.7hPa | 2.6V | 07:39:04 | 02:13:06 | 00:00:00 | |
| DL1XH1-15 | 2026-09-03 08:45:23 | 52.16539 | 9.78909 | 103° | 73km/h | 3055m | -3.2m/s | 3.2°C | 71.6% | 707.2hPa | 2.7V | 07:38:40 | 02:13:00 | 00:00:00 | |
| DF8AY | 2026-09-03 08:45:23 | 52.16516 | 9.79051 | 107° | 69km/h | 3040m | -3.2m/s | 3.3°C | 77% | 708.5hPa | 2.6V | 07:39:04 | 02:13:05 | 00:00:00 | |
| DL4XJ-10 | 2026-09-03 08:45:23 | 52.16516 | 9.79051 | 107° | 71km/h | 3040m | -3.2m/s | 4.5°C | 0% | 0hPa | 2.7V | 00:00:00 | 00:00:00 | 00:00:00 | |
| DJ2DS-15 | 2026-09-03 08:45:22 | 52.16521 | 9.79023 | 107° | 71km/h | 3043m | -3.1m/s | 3.2°C | 71.7% | 708.1hPa | 2.7V | 00:00:00 | 02:13:04 | 00:00:00 | |
| DM0DOS-11 | 2026-09-03 08:45:20 | 52.16551 | 9.78820 | 99° | 73km/h | 3064m | -3.2m/s | 3.1°C | 70.9% | 706.5hPa | 2.7V | 07:38:43 | 02:12:57 | 00:00:00 | |
| DL3OBA | 2026-09-03 08:45:16 | 52.16543 | 9.78880 | 103° | 73km/h | 3059m | -2.9m/s | 3.1°C | 71.4% | 706.9hPa | 2.7V | 07:39:00 | 00:00:00 | 00:00:00 | |
| DM0DOS-11 | 2026-09-03 08:45:15 | 52.16562 | 9.78671 | 96° | 73km/h | 3079m | -3.1m/s | 3°C | 70.2% | 705.2hPa | 2.7V | 07:38:48 | 02:12:52 | 00:00:00 | |
| DL1XH1-15 | 2026-09-03 08:45:13 | 52.16556 | 9.78761 | 97° | 73km/h | 3070m | -3.1m/s | 3°C | 71.2% | 705.8hPa | 2.7V | 07:38:45 | 02:12:55 | 00:00:00 | |
| DL1XH1-15 | 2026-09-03 08:45:13 | 52.16566 | 9.78613 | 94° | 71km/h | 3085m | -3m/s | 3°C | 70% | 704.6hPa | 2.6V | 07:38:50 | 02:12:50 | 00:00:00 | |
| DL1XH-west | 2026-09-03 08:45:13 | 52.16556 | 9.78761 | 97° | 73km/h | 3071m | -3.1m/s | 3°C | 75.4% | 705.8hPa | 2.7V | 07:39:04 | 02:12:55 | 00:00:00 | |
| DF8AY | 2026-09-03 08:45:12 | 52.16558 | 9.78731 | 97° | 73km/h | 3074m | -3.1m/s | 3°C | 75.6% | 705.6hPa | 2.7V | 07:39:04 | 02:12:54 | 00:00:00 | |
| DB0DAN | 2026-09-03 08:45:10 | 52.16562 | 9.78671 | 96° | 69km/h | 3079m | -3.1m/s | 3°C | 70% | 705.23hPa | 2.7V | 00:00:00 | 00:00:00 | 00:00:00 | |
| DL3AQ-11 | 2026-09-03 08:45:10 | 52.16564 | 9.78642 | 95° | 71km/h | 3082m | -2.8m/s | 3.0°C | 69.9% | 704.8hPa | 2.7V | 00:00:00 | 00:00:00 | 00:00:00 | |
| DL1XH1-15 | 2026-09-03 08:45:08 | 52.16571 | 9.78471 | 92° | 68km/h | 3101m | -3.1m/s | 2.9°C | 69.5% | 703.2hPa | 2.7V | 07:38:55 | 02:12:45 | 00:00:00 | |
| DL1XH-west | 2026-09-03 08:45:02 | 52.16572 | 9.78444 | 93° | 66km/h | 3104m | -2.8m/s | 2.9°C | 74.9% | 703hPa | 2.7V | 07:39:04 | 02:12:44 | 00:00:00 | |
| DF8AY | 2026-09-03 08:45:01 | 52.16573 | 9.78417 | 93° | 66km/h | 3107m | -2.8m/s | 2.9°C | 75.4% | 702.8hPa | 2.7V | 07:39:04 | 02:12:43 | 00:00:00 | |
| DM0DOS-11 | 2026-09-03 08:45:00 | 52.16574 | 9.78390 | 92° | 64km/h | 3110m | -2.7m/s | 2.9°C | 69.8% | 702.5hPa | 2.7V | 07:38:58 | 02:12:42 | 00:00:00 | |
| DL1XH1-15 | 2026-09-03 08:44:58 | 52.16576 | 9.78338 | 93° | 64km/h | 3116m | -3m/s | 2.8°C | 70% | 702hPa | 2.6V | 07:39:00 | 02:12:40 | 00:00:00 | |
| DL1XH1-15 | 2026-09-03 08:44:58 | 52.16580 | 9.78201 | 93° | 69km/h | 3131m | -3.1m/s | 2.7°C | 69.5% | 700.6hPa | 2.7V | 07:39:05 | 02:12:35 | 00:00:00 | |
| DL3AQ-11 | 2026-09-03 08:44:57 | 52.16578 | 9.78257 | 92° | 68km/h | 3125m | -3.0m/s | 2.7°C | 69.4% | 701.3hPa | 2.7V | 00:00:00 | 00:00:00 | 00:00:00 | |
| DB0DAN | 2026-09-03 08:44:55 | 52.16578 | 9.78257 | 93° | 64km/h | 3125m | -3m/s | 2.7°C | 69.4% | 701.3hPa | 2.7V | 00:00:00 | 00:00:00 | 00:00:00 | |
| DL1XH-west | 2026-09-03 08:44:51 | 52.16582 | 9.78143 | 94° | 71km/h | 3137m | -3.3m/s | 2.6°C | 75.7% | 700hPa | 2.7V | 07:39:55 | 02:12:33 | 00:00:00 | |
| BIOWL1-15 | 2026-09-03 08:44:50 | 52.16584 | 9.78114 | 94° | 71km/h | 3141m | -3.1m/s | 2.6°C | 75.4% | 699.8hPa | 2.7V | 07:40:46 | 02:12:32 | 00:00:00 | |
| DL1XH1-15 | 2026-09-03 08:44:48 | 52.16586 | 9.78056 | 93° | 71km/h | 3147m | -2.9m/s | 2.5°C | 69.5% | 699.4hPa | 2.7V | 07:39:10 | 02:12:30 | 00:00:00 | |
| DD8BA-10 | 2026-09-03 08:44:48 | 52.16586 | 9.78056 | 94° | 68km/h | 3147m | -2.8m/s | 2.5°C | 69.5% | 699.3hPa | 2.7V | 00:00:00 | 00:00:00 | 00:00:00 | |
| DL3AQ-11 | 2026-09-03 08:44:46 | 52.16589 | 9.77943 | 93° | 64km/h | 3159m | -3.2m/s | 2.4°C | 68.8% | 698.4hPa | 2.7V | 00:00:00 | 00:00:00 | 00:00:00 | |
| DM0DOS-11 | 2026-09-03 08:44:45 | 52.16595 | 9.77842 | 98° | 58km/h | 3171m | -3.1m/s | 2.3°C | 69.4% | 697.2hPa | 2.7V | 07:39:18 | 02:12:22 | 00:00:00 | |
| DL1XH1-15 | 2026-09-03 08:44:43 | 52.16600 | 9.77795 | 101° | 58km/h | 3178m | -3.2m/s | 2.3°C | 69.4% | 696.7hPa | 2.7V | 07:39:20 | 02:12:20 | 00:00:00 | |
| DF8AY-15 | 2026-09-03 08:44:43 | 52.16590 | 9.77916 | 94° | 64km/h | 3162m | -2.9m/s | 2.3°C | 69.3% | 697.8hPa | 2.7V | 00:00:00 | 02:12:25 | 00:00:00 | |
| DB0DAN | 2026-09-03 08:44:40 | 52.16595 | 9.77842 | 98° | 57km/h | 3171m | -3.1m/s | 2.3°C | 69.2% | 697.23hPa | 2.7V | 00:00:00 | 00:00:00 | 00:00:00 | |
| DM0DOS-11 | 2026-09-03 08:44:40 | 52.16610 | 9.77724 | 104° | 60km/h | 3187m | -3m/s | 2.2°C | 69.7% | 695.8hPa | 2.7V | 07:39:23 | 02:12:17 | 00:00:00 | |
| DL1XH-west | 2026-09-03 08:44:40 | 52.16595 | 9.77842 | 98° | 58km/h | 3171m | -3.1m/s | 2.3°C | 74.9% | 697.2hPa | 2.7V | 07:39:55 | 02:12:22 | 00:00:00 | |
| DF8AY | 2026-09-03 08:44:39 | 52.16597 | 9.77818 | 100° | 58km/h | 3174m | -3m/s | 2.3°C | 74.9% | 696.9hPa | 2.7V | 07:39:55 | 02:12:21 | 00:00:00 | |
| DD8BA-10 | 2026-09-03 08:44:38 | 52.16600 | 9.77795 | 102° | 69km/h | 3178m | -3.1m/s | 2.2°C | 69.4% | 696.6hPa | 2.7V | 00:00:00 | 00:00:00 | 00:00:00 | |
| DM0DOS-11 | 2026-09-03 08:44:35 | 52.16632 | 9.77598 | 106° | 68km/h | 3203m | -3.1m/s | 2°C | 70.4% | 694.4hPa | 2.7V | 07:39:28 | 02:12:12 | 00:00:00 | |
| BIOWL1-15 | 2026-09-03 08:44:35 | 52.16610 | 9.77724 | 104° | 60km/h | 3187m | -3m/s | 2.2°C | 75.1% | 695.8hPa | 2.7V | 07:40:46 | 02:12:17 | 00:00:00 | |
| DL1XH1-15 | 2026-09-03 08:44:33 | 52.16618 | 9.77675 | 106° | 62km/h | 3193m | -3.2m/s | 2.1°C | 69.8% | 695.4hPa | 2.7V | 07:39:25 | 02:12:15 | 00:00:00 | |
| DL1XH1-15 | 2026-09-03 08:44:33 | 52.16642 | 9.77543 | 104° | 71km/h | 3209m | -3m/s | 2°C | 70.6% | 694hPa | 2.7V | 07:39:30 | 02:12:10 | 00:00:00 | |
| DL1LOL-11 | 2026-09-03 08:44:32 | 52.16618 | 9.77675 | 107° | 62km/h | 3193m | -3.2m/s | 2.1°C | 69.6% | 695.4hPa | 2.7V | 00:00:00 | 00:00:00 | 00:00:00 | |
| DD1CC3-15 | 2026-09-03 08:44:31 | 52.16623 | 9.77650 | 108° | 66km/h | 3196m | -3.2m/s | 2.1°C | 69.8% | 695.1hPa | 2.7V | 00:00:00 | 00:00:00 | 00:00:00 | |
| DM0DOS-11 | 2026-09-03 08:44:30 | 52.16655 | 9.77456 | 102° | 73km/h | 3218m | -3m/s | 1.9°C | 70.9% | 693.2hPa | 2.7V | 07:39:33 | 02:12:07 | 00:00:00 | |
| DL1XH-west | 2026-09-03 08:44:30 | 52.16632 | 9.77598 | 107° | 68km/h | 3203m | -3.1m/s | 2.1°C | 76% | 694.4hPa | 2.7V | 07:39:55 | 02:12:12 | 00:00:00 | |
| DF8AY | 2026-09-03 08:44:28 | 52.16642 | 9.77543 | 105° | 71km/h | 3209m | -3m/s | 2°C | 76.7% | 694hPa | 2.7V | 07:39:55 | 02:12:10 | 00:00:00 | |
| DJ2DS-15 | 2026-09-03 08:44:26 | 52.16655 | 9.77456 | 102° | 73km/h | 3218m | -3.0m/s | 1.9°C | 70.7% | 693.2hPa | 2.7V | 00:00:00 | 00:00:00 | 00:00:00 | |
| DM0DOS-11 | 2026-09-03 08:44:25 | 52.16675 | 9.77308 | 103° | 73km/h | 3234m | -3.1m/s | 1.8°C | 71.4% | 692hPa | 2.7V | 07:39:38 | 02:12:02 | 00:00:00 | |
| DB0DAN | 2026-09-03 08:44:25 | 52.16655 | 9.77456 | 103° | 69km/h | 3218m | -3m/s | 1.9°C | 70.7% | 693.18hPa | 2.7V | 00:00:00 | 00:00:00 | 00:00:00 | |
| BIOWL9-15 | 2026-09-03 08:44:24 | 52.16659 | 9.77426 | 102° | 73km/h | 3221m | -3.3m/s | 1.9°C | 70.9% | 692.9hPa | 2.6V | 00:00:00 | 00:00:00 | 00:00:00 | |
| DL1XH1-15 | 2026-09-03 08:44:23 | 52.16684 | 9.77249 | 103° | 73km/h | 3240m | -3.1m/s | 1.7°C | 71.8% | 691.3hPa | 2.6V | 07:39:40 | 02:12:00 | 00:00:00 | |
| BIOWL1-15 | 2026-09-03 08:44:21 | 52.16671 | 9.77338 | 103° | 73km/h | 3231m | -3.1m/s | 1.8°C | 77.1% | 692.1hPa | 2.7V | 07:40:46 | 02:12:03 | 00:00:00 | |
| DL1XH-west | 2026-09-03 08:44:19 | 52.16680 | 9.77279 | 104° | 73km/h | 3237m | -3.1m/s | 1.7°C | 77.2% | 691.5hPa | 2.7V | 07:39:55 | 02:12:01 | 00:00:00 | |
| DF8AY | 2026-09-03 08:44:17 | 52.16689 | 9.77219 | 104° | 75km/h | 3244m | -3.1m/s | 1.7°C | 77.5% | 691.2hPa | 2.7V | 07:39:55 | 02:11:59 | 00:00:00 | |
| DM0DOS-11 | 2026-09-03 08:44:15 | 52.16697 | 9.77160 | 102° | 75km/h | 3250m | -3.2m/s | 1.6°C | 71.9% | 690.6hPa | 2.7V | 07:39:43 | 02:11:57 | 00:00:00 | |
| DM0DOS-11 | 2026-09-03 08:44:15 | 52.16716 | 9.77009 | 99° | 75km/h | 3266m | -3.1m/s | 1.5°C | 72.5% | 689.1hPa | 2.6V | 07:39:48 | 02:11:52 | 00:00:00 | |
| DL1XH1-15 | 2026-09-03 08:44:13 | 52.16705 | 9.77100 | 102° | 75km/h | 3256m | -3.2m/s | 1.5°C | 72.4% | 690hPa | 2.7V | 07:39:45 | 02:11:55 | 00:00:00 | |
| DL1XH1-15 | 2026-09-03 08:44:13 | 52.16722 | 9.76948 | 97° | 75km/h | 3272m | -2.9m/s | 1.4°C | 72.5% | 688.6hPa | 2.7V | 07:39:50 | 02:11:50 | 00:00:00 | |
| DD8BA-10 | 2026-09-03 08:44:13 | 52.16705 | 9.77100 | 103° | 73km/h | 3256m | -3.2m/s | 1.5°C | 72.4% | 690.0hPa | 2.6V | 00:00:00 | 00:00:00 | 00:00:00 | |
| DL8OAI-8 | 2026-09-03 08:44:12 | 52.16705 | 9.77100 | 103° | 75km/h | 3256m | -3.2m/s | 1.5°C | 72.2% | 690.0hPa | 2.6V | 07:39:00 | 00:00:00 | 00:00:00 | |
| DB0DAN | 2026-09-03 08:44:10 | 52.16716 | 9.77009 | 100° | 71km/h | 3266m | -3.1m/s | 1.5°C | 72.3% | 689.09hPa | 2.6V | 00:00:00 | 00:00:00 | 00:00:00 | |
| DL1XH-west | 2026-09-03 08:44:08 | 52.16722 | 9.76948 | 97° | 75km/h | 3272m | -2.9m/s | 1.4°C | 77.7% | 688.6hPa | 2.7V | 07:39:55 | 02:11:50 | 00:00:00 | |
| DF8AY | 2026-09-03 08:44:07 | 52.16724 | 9.76918 | 97° | 75km/h | 3275m | -3m/s | 1.4°C | 77.9% | 688.3hPa | 2.7V | 07:39:55 | 02:11:49 | 00:00:00 | |
| DM0DOS-11 | 2026-09-03 08:44:05 | 52.16728 | 9.76858 | 94° | 71km/h | 3282m | -3.3m/s | 1.3°C | 72.3% | 687.7hPa | 2.7V | 07:39:53 | 02:11:47 | 00:00:00 | |
| DM0DOS-11 | 2026-09-03 08:44:05 | 52.16732 | 9.76717 | 92° | 66km/h | 3298m | -3.1m/s | 1.2°C | 71.1% | 686.3hPa | 2.6V | 07:39:58 | 02:11:42 | 00:00:00 | |
| DL1XH1-15 | 2026-09-03 08:44:03 | 52.16730 | 9.76800 | 92° | 69km/h | 3288m | -3.1m/s | 1.3°C | 71.4% | 687.2hPa | 2.7V | 07:39:55 | 02:11:45 | 00:00:00 | |
| DL1XH1-15 | 2026-09-03 08:44:03 | 52.16733 | 9.76663 | 92° | 64km/h | 3305m | -3.3m/s | 1.2°C | 71% | 685.9hPa | 2.7V | 07:40:00 | 02:11:40 | 00:00:00 | |
| DD8BA-10 | 2026-09-03 08:44:03 | 52.16730 | 9.76800 | 93° | 62km/h | 3289m | -3.0m/s | 1.3°C | 71.4% | 687.2hPa | 2.7V | 07:39:00 | 00:00:00 | 00:00:00 | |
| DJ2DS-15 | 2026-09-03 08:44:02 | 52.16730 | 9.76772 | 93° | 62km/h | 3292m | -3.2m/s | 1.2°C | 70.9% | 687.0hPa | 2.7V | 07:39:00 | 02:11:44 | 00:00:00 | |
| DM0DOS-11 | 2026-09-03 08:44:00 | 52.16735 | 9.76587 | 93° | 60km/h | 3314m | -3.5m/s | 1.1°C | 70.3% | 684.8hPa | 2.7V | 07:40:03 | 02:11:37 | 00:00:00 | |
| DL1XH1-15 | 2026-09-03 08:43:58 | 52.16738 | 9.76538 | 96° | 58km/h | 3321m | -3.1m/s | 1.1°C | 69.6% | 684.5hPa | 2.7V | 07:40:05 | 02:11:35 | 00:00:00 | |
| DL1XH-west | 2026-09-03 08:43:57 | 52.16734 | 9.76637 | 93° | 62km/h | 3308m | -3.3m/s | 1.1°C | 75.9% | 685.5hPa | 2.7V | 07:40:46 | 02:11:39 | 00:00:00 | |
| BIOWL1-15 | 2026-09-03 08:43:56 | 52.16735 | 9.76612 | 93° | 60km/h | 3311m | -3.2m/s | 1.1°C | 75.5% | 685.3hPa | 2.7V | 07:40:46 | 02:11:38 | 00:00:00 | |
| DB0DAN | 2026-09-03 08:43:55 | 52.16735 | 9.76587 | 94° | 57km/h | 3314m | -3.5m/s | 1.1°C | 70.1% | 684.85hPa | 2.7V | 00:00:00 | 00:00:00 | 00:00:00 | |
| DL3OBA | 2026-09-03 08:43:54 | 52.16735 | 9.76587 | 95° | 60km/h | 3315m | -3.5m/s | 1.1°C | 70.1% | 684.8hPa | 2.7V | 07:40:00 | 00:00:00 | 00:00:00 | |
| DM0DOS-11 | 2026-09-03 08:43:50 | 52.16744 | 9.76467 | 100° | 58km/h | 3330m | -3.4m/s | 1°C | 69.4% | 683.6hPa | 2.7V | 07:40:08 | 02:11:32 | 00:00:00 | |
| DM0DOS-11 | 2026-09-03 08:43:50 | 52.16759 | 9.76349 | 103° | 60km/h | 3347m | -3.1m/s | 0.9°C | 70.1% | 682.2hPa | 2.7V | 07:40:13 | 02:11:27 | 00:00:00 | |
| DJ2DS-15 | 2026-09-03 08:43:50 | 52.16747 | 9.76444 | 101° | 57km/h | 3334m | -3.3m/s | 1.0°C | 69.2% | 683.3hPa | 2.7V | 00:00:00 | 00:00:00 | 00:00:00 | |
| DL1XH1-15 | 2026-09-03 08:43:48 | 52.16750 | 9.76420 | 101° | 58km/h | 3337m | -3.3m/s | 1°C | 69.7% | 683.1hPa | 2.7V | 07:40:10 | 02:11:30 | 00:00:00 | |
| DL1XH1-15 | 2026-09-03 08:43:48 | 52.16767 | 9.76300 | 104° | 64km/h | 3353m | -3.2m/s | 0.8°C | 70.2% | 681.6hPa | 2.6V | 07:40:15 | 02:11:25 | 00:00:00 | |
| DL1XH-west | 2026-09-03 08:43:46 | 52.16756 | 9.76373 | 103° | 58km/h | 3344m | -3.4m/s | 0.9°C | 75.3% | 682.5hPa | 2.7V | 07:40:46 | 02:11:28 | 00:00:00 | |
| DF8AY-15 | 2026-09-03 08:43:43 | 52.16767 | 9.76300 | 105° | 69km/h | 3354m | -3.1m/s | 0.8°C | 70.2% | 681.5hPa | 2.7V | 00:00:00 | 02:11:25 | 00:00:00 | |
| DJ2DS-15 | 2026-09-03 08:43:42 | 52.16771 | 9.76273 | 105° | 69km/h | 3357m | -3.2m/s | 0.8°C | 70.1% | 681.3hPa | 2.7V | 00:00:00 | 02:11:24 | 00:00:00 | |
| DM0DOS-11 | 2026-09-03 08:43:40 | 52.16795 | 9.76074 | 98° | 73km/h | 3380m | -3.5m/s | 0.6°C | 69.5% | 679.4hPa | 2.7V | 07:40:23 | 02:11:17 | 00:00:00 | |
| DB0DAN | 2026-09-03 08:43:40 | 52.16779 | 9.76219 | 103° | 66km/h | 3363m | -3.4m/s | 0.8°C | 69.8% | 680.8hPa | 2.7V | 00:00:00 | 00:00:00 | 00:00:00 | |
| BUE01 | 2026-09-03 08:43:39 | 52.16783 | 9.76191 | 102° | 69km/h | 3367m | -3.4m/s | 0.7°C | 70.0% | 680.5hPa | 2.7V | 00:00:00 | 00:00:00 | 00:00:00 | |
| DL1XH1-15 | 2026-09-03 08:43:38 | 52.16800 | 9.76014 | 98° | 71km/h | 3387m | -3.5m/s | 0.5°C | 69.4% | 678.8hPa | 2.7V | 07:40:25 | 02:11:15 | 00:00:00 | |
| DL1XH-west | 2026-09-03 08:43:36 | 52.16793 | 9.76103 | 99° | 73km/h | 3377m | -3.4m/s | 0.6°C | 75.6% | 679.6hPa | 2.7V | 07:40:46 | 02:11:18 | 00:00:00 | |
| DO2JMG | 2026-09-03 08:43:31 | 52.16805 | 9.75957 | 98° | 68km/h | 3394m | -3.4m/s | 0.5°C | 73.9% | 678.2hPa | 2.7V | 07:40:46 | 02:11:13 | 00:00:00 | |
| DM0DOS-11 | 2026-09-03 08:43:30 | 52.16807 | 9.75930 | 97° | 66km/h | 3397m | -3.3m/s | 0.5°C | 69.7% | 677.9hPa | 2.6V | 07:40:28 | 02:11:12 | 00:00:00 | |
| DM0DOS-11 | 2026-09-03 08:43:30 | 52.16813 | 9.75794 | 92° | 71km/h | 3414m | -3.5m/s | 0.3°C | 70.3% | 676.4hPa | 2.7V | 07:40:33 | 02:11:07 | 00:00:00 | |
| DL1XH1-15 | 2026-09-03 08:43:28 | 52.16811 | 9.75877 | 94° | 64km/h | 3404m | -3.5m/s | 0.4°C | 69.8% | 677.3hPa | 2.7V | 07:40:30 | 02:11:10 | 00:00:00 | |
| DL1XH1-15 | 2026-09-03 08:43:28 | 52.16816 | 9.75735 | 95° | 71km/h | 3421m | -3.5m/s | 0.2°C | 71.1% | 676hPa | 2.7V | 07:40:35 | 02:11:05 | 00:00:00 | |
| SMARD9-10 | 2026-09-03 08:43:27 | 52.16811 | 9.75877 | 96° | 64km/h | 3404m | -3.5m/s | 0.4°C | 69.6% | 677.3hPa | 2.6V | 00:00:00 | 00:00:00 | 00:00:00 | |
| DL3AQ-11 | 2026-09-03 08:43:26 | 52.16813 | 9.75794 | 92° | 69km/h | 3414m | -3.5m/s | 0.3°C | 70.1% | 676.4hPa | 2.6V | 00:00:00 | 00:00:00 | 00:00:00 | |
| DM0DOS-11 | 2026-09-03 08:43:25 | 52.16823 | 9.75652 | 100° | 62km/h | 3432m | -3.4m/s | 0.1°C | 71.3% | 675hPa | 2.6V | 07:40:38 | 02:11:02 | 00:00:00 | |
| DL1XH-west | 2026-09-03 08:43:25 | 52.16813 | 9.75794 | 92° | 71km/h | 3414m | -3.5m/s | 0.3°C | 74.5% | 676.4hPa | 2.7V | 07:40:46 | 02:11:07 | 00:00:00 | |
| DB0DAN | 2026-09-03 08:43:25 | 52.16813 | 9.75794 | 92° | 68km/h | 3414m | -3.5m/s | 0.3°C | 70.1% | 676.42hPa | 2.7V | 00:00:00 | 00:00:00 | 00:00:00 | |
| BIOWL1-15 | 2026-09-03 08:43:23 | 52.16816 | 9.75735 | 96° | 71km/h | 3421m | -3.5m/s | 0.2°C | 75% | 676hPa | 2.7V | 07:40:46 | 02:11:05 | 00:00:00 | |
| DO2JMG | 2026-09-03 08:43:21 | 52.16820 | 9.75678 | 100° | 66km/h | 3428m | -3.4m/s | 0.2°C | 74.8% | 675.3hPa | 2.6V | 07:40:46 | 02:11:03 | 00:00:00 | |
| DM0DOS-11 | 2026-09-03 08:43:20 | 52.16835 | 9.75531 | 101° | 60km/h | 3450m | -3.6m/s | 0.1°C | 67.9% | 673.5hPa | 2.7V | 07:40:43 | 02:10:57 | 00:00:00 | |
| DL1XH1-15 | 2026-09-03 08:43:18 | 52.16842 | 9.75481 | 103° | 64km/h | 3457m | -3.5m/s | 0.1°C | 66.8% | 672.8hPa | 2.7V | 07:40:45 | 02:10:55 | 00:00:00 | |
| DL1XH-west | 2026-09-03 08:43:14 | 52.16838 | 9.75506 | 102° | 62km/h | 3453m | -3.5m/s | 0.1°C | 71.9% | 673.2hPa | 2.7V | 07:40:46 | 02:10:56 | 00:00:00 | |
| BIOWL1-15 | 2026-09-03 08:43:12 | 52.16846 | 9.75455 | 104° | 66km/h | 3460m | -3.6m/s | 0.1°C | 71.8% | 672.6hPa | 2.6V | 07:40:46 | 02:10:54 | 00:00:00 | |
| DO2JMG | 2026-09-03 08:43:11 | 52.16850 | 9.75429 | 105° | 68km/h | 3464m | -3.9m/s | 0.1°C | 71.5% | 672.2hPa | 2.6V | 07:41:37 | 02:10:53 | 00:00:00 | |
| DL1XH-15 | 2026-09-03 08:43:10 | 52.16854 | 9.75402 | 104° | 68km/h | 3468m | -4m/s | 0.1°C | 65.7% | 672.1hPa | 2.7V | 07:40:48 | 02:10:52 | 00:00:00 | |
| DB0DAN | 2026-09-03 08:43:10 | 52.16854 | 9.75402 | 105° | 64km/h | 3468m | -4m/s | 0.1°C | 65.4% | 672.07hPa | 2.7V | 00:00:00 | 00:00:00 | 00:00:00 | |
| DL8OAI-8 | 2026-09-03 08:43:09 | 52.16854 | 9.75402 | 106° | 68km/h | 3468m | -4.0m/s | 0.1°C | 65.4% | 672.1hPa | 2.7V | 07:41:00 | 00:00:00 | 00:00:00 | |
| BUE01 | 2026-09-03 08:43:08 | 52.16863 | 9.75347 | 103° | 69km/h | 3476m | -3.9m/s | 0.0°C | 64.9% | 671.4hPa | 2.7V | 00:00:00 | 00:00:00 | 00:00:00 | |
| DL1XH1-15 | 2026-09-03 08:43:08 | 52.16883 | 9.75202 | 101° | 75km/h | 3495m | -3.9m/s | 0.1°C | 60.9% | 669.7hPa | 2.6V | 07:40:55 | 02:10:45 | 00:00:00 | |
| DD1CC3-15 | 2026-09-03 08:43:07 | 52.16863 | 9.75347 | 105° | 69km/h | 3476m | -3.9m/s | 0.0°C | 64.9% | 671.4hPa | 2.7V | 07:41:00 | 00:00:00 | 00:00:00 | |
| DK9SH | 2026-09-03 08:43:06 | 52.16867 | 9.75319 | 105° | 71km/h | 3480m | -3.7m/s | 0.1°C | 64.0% | 670.9hPa | 2.7V | 00:00:00 | 00:00:00 | 00:00:00 | |
| DL1XH-15 | 2026-09-03 08:43:05 | 52.16893 | 9.75111 | 98° | 75km/h | 3506m | -3.6m/s | 0.2°C | 51.4% | 668.8hPa | 2.7V | 07:40:58 | 02:10:42 | 00:00:00 | |
| DF8AY | 2026-09-03 08:43:04 | 52.16879 | 9.75232 | 102° | 73km/h | 3491m | -3.9m/s | 0.1°C | 65.1% | 670hPa | 2.6V | 07:41:37 | 02:10:46 | 00:00:00 | |
| DL1XH-west | 2026-09-03 08:43:03 | 52.16883 | 9.75202 | 101° | 75km/h | 3495m | -3.9m/s | 0.1°C | 64.1% | 669.7hPa | 2.6V | 07:41:37 | 02:10:45 | 00:00:00 | |
| DO2JMG | 2026-09-03 08:43:01 | 52.16890 | 9.75142 | 100° | 75km/h | 3502m | -3.8m/s | 0.1°C | 60.4% | 669hPa | 2.7V | 07:41:37 | 02:10:43 | 00:00:00 | |
| BIOWL1-15 | 2026-09-03 08:42:57 | 52.16900 | 9.75020 | 95° | 71km/h | 3516m | -3.5m/s | 0.2°C | 50.5% | 667.9hPa | 2.7V | 07:42:28 | 02:10:39 | 00:00:00 | |
| DL3AQ-11 | 2026-09-03 08:42:56 | 52.16901 | 9.74991 | 93° | 68km/h | 3520m | -3.3m/s | 0.2°C | 45.7% | 667.6hPa | 2.6V | 00:00:00 | 00:00:00 | 00:00:00 | |
| DB0DAN | 2026-09-03 08:42:55 | 52.16902 | 9.74964 | 93° | 62km/h | 3523m | -3.6m/s | 0.1°C | 46% | 667.33hPa | 2.6V | 00:00:00 | 00:00:00 | 00:00:00 | |
| DM0DOS-11 | 2026-09-03 08:42:55 | 52.16902 | 9.74964 | 93° | 66km/h | 3523m | -3.6m/s | 0.1°C | 46.2% | 667.3hPa | 2.6V | 07:41:03 | 02:10:37 | 00:00:00 | |
| DL1XH1-15 | 2026-09-03 08:42:53 | 52.16904 | 9.74912 | 93° | 62km/h | 3530m | -3.6m/s | 0°C | 47% | 666.7hPa | 2.7V | 07:41:05 | 02:10:35 | 00:00:00 | |
| DL1XH1-15 | 2026-09-03 08:42:53 | 52.16912 | 9.74789 | 101° | 58km/h | 3549m | -3.8m/s | 0.2°C | 41% | 665.2hPa | 2.7V | 07:41:10 | 02:10:30 | 00:00:00 | |
| DL1XH-west | 2026-09-03 08:42:53 | 52.16904 | 9.74912 | 94° | 62km/h | 3530m | -3.6m/s | 0°C | 52.2% | 666.7hPa | 2.7V | 07:41:37 | 02:10:35 | 00:00:00 | |
| DO2JMG | 2026-09-03 08:42:50 | 52.16908 | 9.74837 | 97° | 60km/h | 3541m | -3.8m/s | -0°C | 51.4% | 665.8hPa | 2.7V | 07:41:37 | 02:10:32 | 00:00:00 | |
| BIOWL1-15 | 2026-09-03 08:42:46 | 52.16919 | 9.74741 | 106° | 60km/h | 3556m | -3.8m/s | 0.4°C | 37.5% | 664.5hPa | 2.6V | 07:42:28 | 02:10:28 | 00:00:00 | |
| DM0DOS-11 | 2026-09-03 08:42:45 | 52.16924 | 9.74717 | 107° | 62km/h | 3560m | -4.1m/s | 0.4°C | 32.3% | 664.1hPa | 2.7V | 07:41:13 | 02:10:27 | 00:00:00 | |
| DM0DOS-11 | 2026-09-03 08:42:45 | 52.16952 | 9.74588 | 109° | 69km/h | 3580m | -3.8m/s | 0.6°C | 26.2% | 662.5hPa | 2.7V | 07:41:18 | 02:10:22 | 00:00:00 | |
| DL1XH-west | 2026-09-03 08:42:43 | 52.16935 | 9.74667 | 109° | 66km/h | 3568m | -3.9m/s | 0.5°C | 35% | 663.5hPa | 2.7V | 07:41:37 | 02:10:25 | 00:00:00 | |
| DF8AY | 2026-09-03 08:42:42 | 52.16940 | 9.74641 | 110° | 68km/h | 3572m | -3.9m/s | 0.6°C | 30.9% | 663.1hPa | 2.7V | 07:41:37 | 02:10:24 | 00:00:00 | |
| DJ2DS-15 | 2026-09-03 08:42:42 | 52.16940 | 9.74641 | 110° | 68km/h | 3572m | -3.8m/s | 0.6°C | 27.1% | 663.1hPa | 2.7V | 00:00:00 | 02:10:24 | 00:00:00 | |
| DM0DOS-11 | 2026-09-03 08:42:40 | 52.16978 | 9.74443 | 101° | 73km/h | 3598m | -3.7m/s | 0.5°C | 26.5% | 660.9hPa | 2.7V | 07:41:23 | 02:10:17 | 00:00:00 | |
| DB0DAN | 2026-09-03 08:42:40 | 52.16952 | 9.74588 | 110° | 68km/h | 3580m | -3.8m/s | 0.6°C | 26.1% | 662.48hPa | 2.7V | 00:00:00 | 00:00:00 | 00:00:00 | |
| DD8BA-10 | 2026-09-03 08:42:40 | 52.16952 | 9.74588 | 110° | 71km/h | 3580m | -3.7m/s | 0.6°C | 26.2% | 662.4hPa | 2.6V | 00:00:00 | 00:00:00 | 00:00:00 | |
| DL1XH-15 | 2026-09-03 08:42:39 | 52.16981 | 9.74414 | 100° | 73km/h | 3602m | -3.9m/s | 0.5°C | 26.6% | 660.6hPa | 2.6V | 07:41:24 | 02:10:16 | 00:00:00 | |
| DO2JMG | 2026-09-03 08:42:39 | 52.16958 | 9.74560 | 109° | 71km/h | 3584m | -3.7m/s | 0.6°C | 30.2% | 662.2hPa | 2.7V | 07:41:37 | 02:10:21 | 00:00:00 | |
| DL1XH1-15 | 2026-09-03 08:42:38 | 52.16984 | 9.74385 | 98° | 71km/h | 3606m | -3.9m/s | 0.4°C | 26.9% | 660.4hPa | 2.6V | 07:41:25 | 02:10:15 | 00:00:00 | |
| DJ2DS-15 | 2026-09-03 08:42:38 | 52.16969 | 9.74503 | 105° | 73km/h | 3591m | -3.8m/s | 0.5°C | 26.2% | 661.7hPa | 2.7V | 00:00:00 | 00:00:00 | 00:00:00 | |
| BUE01 | 2026-09-03 08:42:37 | 52.16969 | 9.74503 | 105° | 73km/h | 3591m | -3.8m/s | 0.5°C | 26.2% | 661.7hPa | 2.7V | 00:00:00 | 00:00:00 | 00:00:00 | |
| DM0DOS-11 | 2026-09-03 08:42:35 | 52.16991 | 9.74301 | 97° | 66km/h | 3618m | -3.9m/s | 0.4°C | 26.8% | 659.4hPa | 2.7V | 07:41:28 | 02:10:12 | 00:00:00 | |
| BIOWL1-15 | 2026-09-03 08:42:35 | 52.16978 | 9.74443 | 102° | 73km/h | 3598m | -3.7m/s | 0.5°C | 30.8% | 661hPa | 2.7V | 07:42:28 | 02:10:17 | 00:00:00 | |
| DL1XH1-15 | 2026-09-03 08:42:33 | 52.16996 | 9.74249 | 98° | 62km/h | 3626m | -3.8m/s | 0.3°C | 26.8% | 658.8hPa | 2.7V | 07:41:30 | 02:10:10 | 00:00:00 | |
| DL1XH-west | 2026-09-03 08:42:32 | 52.16987 | 9.74356 | 98° | 69km/h | 3610m | -3.9m/s | 0.4°C | 31.3% | 660.1hPa | 2.7V | 07:41:37 | 02:10:14 | 00:00:00 | |
| DM0DOS-11 | 2026-09-03 08:42:30 | 52.17004 | 9.74177 | 104° | 58km/h | 3637m | -3.9m/s | 0.2°C | 26.6% | 657.8hPa | 2.6V | 07:41:33 | 02:10:07 | 00:00:00 | |
| DL1XH-15 | 2026-09-03 08:42:29 | 52.16993 | 9.74275 | 97° | 64km/h | 3622m | -4.1m/s | 0.3°C | 26.9% | 659hPa | 2.7V | 07:41:29 | 02:10:11 | 00:00:00 | |
| DL1XH-15 | 2026-09-03 08:42:29 | 52.17008 | 9.74155 | 106° | 57km/h | 3641m | -3.9m/s | 0.2°C | 26.8% | 657.3hPa | 2.7V | 07:41:34 | 02:10:06 | 00:00:00 | |
| DL1XH1-15 | 2026-09-03 08:42:28 | 52.17012 | 9.74132 | 109° | 58km/h | 3645m | -4m/s | 0.1°C | 26.8% | 657hPa | 2.7V | 07:41:35 | 02:10:05 | 00:00:00 | |
| DO2JMG | 2026-09-03 08:42:28 | 52.16995 | 9.74249 | 98° | 62km/h | 3626m | -3.8m/s | 0.3°C | 31.4% | 658.8hPa | 2.7V | 07:41:37 | 02:10:10 | 00:00:00 | |
| DD1CC3-15 | 2026-09-03 08:42:27 | 52.16995 | 9.74249 | 99° | 62km/h | 3626m | -3.8m/s | 0.3°C | 26.7% | 658.8hPa | 2.7V | 07:41:00 | 00:00:00 | 00:00:00 | |
| DM0DOS-11 | 2026-09-03 08:42:25 | 52.17028 | 9.74065 | 113° | 60km/h | 3657m | -3.9m/s | 0°C | 26.8% | 656.2hPa | 2.7V | 07:41:38 | 02:10:02 | 00:00:00 | |
| BIOWL1-15 | 2026-09-03 08:42:25 | 52.17012 | 9.74132 | 109° | 58km/h | 3645m | -4m/s | 0.2°C | 31.1% | 657hPa | 2.7V | 07:42:28 | 02:10:05 | 00:00:00 | |
| DB0DAN | 2026-09-03 08:42:25 | 52.17004 | 9.74177 | 104° | 55km/h | 3637m | -3.9m/s | 0.2°C | 26.5% | 657.78hPa | 2.6V | 00:00:00 | 00:00:00 | 00:00:00 | |
| DL1XH1-15 | 2026-09-03 08:42:23 | 52.17041 | 9.74018 | 113° | 62km/h | 3665m | -3.9m/s | 0°C | 26.4% | 655.5hPa | 2.6V | 07:41:40 | 02:10:00 | 00:00:00 | |
| DL1XH-west | 2026-09-03 08:42:22 | 52.17017 | 9.74110 | 111° | 58km/h | 3649m | -4m/s | 0.1°C | 31.1% | 656.8hPa | 2.7V | 07:41:37 | 02:10:04 | 00:00:00 | |
| DF8AY | 2026-09-03 08:42:21 | 52.17023 | 9.74087 | 112° | 58km/h | 3653m | -3.9m/s | 0.1°C | 31.1% | 656.5hPa | 2.7V | 07:41:37 | 02:10:03 | 00:00:00 | |
| DO2JMG | 2026-09-03 08:42:17 | 52.17047 | 9.73995 | 115° | 64km/h | 3669m | -3.9m/s | -0°C | 30.3% | 655.2hPa | 2.6V | 07:43:19 | 02:09:59 | 00:00:00 | |
| DL3AQ-11 | 2026-09-03 08:42:17 | 52.17054 | 9.73971 | 113° | 64km/h | 3673m | -4.2m/s | -0.0°C | 25.6% | 654.9hPa | 2.6V | 00:00:00 | 00:00:00 | 00:00:00 | |
| DM0DOS-11 | 2026-09-03 08:42:15 | 52.17091 | 9.73813 | 109° | 71km/h | 3696m | -3.8m/s | -0.1°C | 24.9% | 652.9hPa | 2.6V | 07:41:48 | 02:09:52 | 00:00:00 | |
| DL1XH1-15 | 2026-09-03 08:42:13 | 52.17073 | 9.73894 | 111° | 69km/h | 3685m | -3.8m/s | -0.1°C | 25.5% | 653.8hPa | 2.7V | 07:41:45 | 02:09:55 | 00:00:00 | |
| DL1XH1-15 | 2026-09-03 08:42:13 | 52.17103 | 9.73758 | 109° | 69km/h | 3704m | -4.1m/s | -0.2°C | 24.9% | 652.2hPa | 2.7V | 07:41:50 | 02:09:50 | 00:00:00 | |
| DL1XH-west | 2026-09-03 08:42:11 | 52.17085 | 9.73840 | 110° | 71km/h | 3693m | -3.6m/s | -0.1°C | 29.3% | 653.5hPa | 2.7V | 07:42:28 | 02:09:53 | 00:00:00 | |
| DB0DAN | 2026-09-03 08:42:10 | 52.17091 | 9.73813 | 109° | 68km/h | 3696m | -3.8m/s | -0.1°C | 24.8% | 652.87hPa | 2.6V | 00:00:00 | 00:00:00 | 00:00:00 | |
| DD8BA-10 | 2026-09-03 08:42:10 | 52.17091 | 9.73812 | 110° | 69km/h | 3696m | -3.7m/s | -0.1°C | 24.9% | 652.8hPa | 2.7V | 00:00:00 | 00:00:00 | 00:00:00 | |
| DL8OAI-8 | 2026-09-03 08:42:07 | 52.17103 | 9.73758 | 111° | 69km/h | 3704m | -4.1m/s | -0.2°C | 24.8% | 652.2hPa | 2.7V | 07:42:00 | 00:00:00 | 00:00:00 | |
| DL3AQ-11 | 2026-09-03 08:42:06 | 52.17122 | 9.73678 | 110° | 69km/h | 3717m | -4.4m/s | -0.3°C | 24.8% | 651.3hPa | 2.7V | 00:00:00 | 00:00:00 | 00:00:00 | |
| DM0DOS-11 | 2026-09-03 08:42:05 | 52.17148 | 9.73540 | 103° | 69km/h | 3738m | -4.5m/s | -0.4°C | 24.8% | 649.7hPa | 2.7V | 07:41:58 | 02:09:42 | 00:00:00 | |
| BIOWL1-15 | 2026-09-03 08:42:04 | 52.17139 | 9.73595 | 106° | 71km/h | 3730m | -4.2m/s | -0.4°C | 29.2% | 650.3hPa | 2.6V | 07:42:28 | 02:09:44 | 00:00:00 | |
| DL1XH1-15 | 2026-09-03 08:42:03 | 52.17156 | 9.73485 | 102° | 69km/h | 3747m | -4.3m/s | -0.5°C | 24.9% | 648.9hPa | 2.7V | 07:42:00 | 02:09:40 | 00:00:00 | |
| DF8AY | 2026-09-03 08:42:01 | 52.17144 | 9.73568 | 105° | 71km/h | 3734m | -4.4m/s | -0.4°C | 29.2% | 649.9hPa | 2.6V | 07:42:28 | 02:09:43 | 00:00:00 | |
| DL1XH-west | 2026-09-03 08:42:00 | 52.17148 | 9.73540 | 104° | 69km/h | 3738m | -4.5m/s | -0.4°C | 29.2% | 649.7hPa | 2.7V | 07:42:28 | 02:09:42 | 00:00:00 | |
| DJ2DS-15 | 2026-09-03 08:42:00 | 52.17148 | 9.73540 | 104° | 64km/h | 3738m | -4.4m/s | -0.4°C | 24.8% | 649.7hPa | 2.7V | 00:00:00 | 02:09:42 | 00:00:00 | |
| AM1SDL-15 | 2026-09-03 08:41:59 | 52.17152 | 9.73512 | 103° | 64km/h | 3743m | -4.3m/s | -0.4°C | 24.9% | 649.3hPa | 2.7V | 00:00:00 | 02:09:41 | 00:00:00 | |
| DL1XH1-15 | 2026-09-03 08:41:58 | 52.17173 | 9.73347 | 100° | 68km/h | 3769m | -4.5m/s | -0.7°C | 25.1% | 647.4hPa | 2.6V | 07:42:05 | 02:09:35 | 00:00:00 | |
| DM0DOS-11 | 2026-09-03 08:41:55 | 52.17181 | 9.73269 | 99° | 62km/h | 3781m | -4m/s | -0.8°C | 25.2% | 646.3hPa | 2.7V | 07:42:08 | 02:09:32 | 00:00:00 | |
| DB0DAN | 2026-09-03 08:41:55 | 52.17166 | 9.73402 | 100° | 64km/h | 3760m | -4.3m/s | -0.6°C | 24.9% | 648.06hPa | 2.7V | 00:00:00 | 00:00:00 | 00:00:00 | |
| BIOWL1-15 | 2026-09-03 08:41:51 | 52.17179 | 9.73294 | 100° | 64km/h | 3777m | -3.9m/s | -0.7°C | 29.6% | 646.7hPa | 2.7V | 07:42:28 | 02:09:33 | 00:00:00 | |
| DM0DOS-11 | 2026-09-03 08:41:50 | 52.17196 | 9.73149 | 102° | 58km/h | 3802m | -4.4m/s | -1°C | 25.7% | 644.5hPa | 2.6V | 07:42:13 | 02:09:27 | 00:00:00 | |
| DF8AY | 2026-09-03 08:41:50 | 52.17181 | 9.73269 | 100° | 62km/h | 3781m | -4.1m/s | -0.8°C | 29.7% | 646.3hPa | 2.7V | 07:42:28 | 02:09:32 | 00:00:00 | |
| DL3AQ-11 | 2026-09-03 08:41:50 | 52.17184 | 9.73244 | 100° | 60km/h | 3785m | -4.4m/s | -0.8°C | 25.2% | 645.9hPa | 2.7V | 00:00:00 | 00:00:00 | 00:00:00 | |
| BIOWL9-15 | 2026-09-03 08:41:49 | 52.17184 | 9.73244 | 100° | 60km/h | 3785m | -4.4m/s | -0.8°C | 25.2% | 645.9hPa | 2.7V | 00:00:00 | 00:00:00 | 00:00:00 | |
| DL1XH-west | 2026-09-03 08:41:49 | 52.17184 | 9.73244 | 101° | 62km/h | 3785m | -4.4m/s | -0.8°C | 29.9% | 645.9hPa | 2.7V | 07:42:28 | 02:09:31 | 00:00:00 | |
| DL1XH1-15 | 2026-09-03 08:41:48 | 52.17187 | 9.73219 | 102° | 60km/h | 3790m | -4.1m/s | -0.8°C | 25.5% | 645.6hPa | 2.7V | 07:42:10 | 02:09:30 | 00:00:00 | |
| DO2JMG | 2026-09-03 08:41:48 | 52.17187 | 9.73219 | 103° | 60km/h | 3790m | -4.1m/s | -0.8°C | 30% | 645.6hPa | 2.7V | 07:43:19 | 02:09:30 | 00:00:00 | |
| DD1CC3-15 | 2026-09-03 08:41:46 | 52.17190 | 9.73195 | 103° | 58km/h | 3794m | -3.8m/s | -0.9°C | 25.4% | 645.2hPa | 2.7V | 07:42:00 | 00:00:00 | 00:00:00 | |
| DM0DOS-11 | 2026-09-03 08:41:45 | 52.17213 | 9.73035 | 108° | 57km/h | 3824m | -4.1m/s | -1.2°C | 26% | 642.8hPa | 2.7V | 07:42:18 | 02:09:22 | 00:00:00 | |
| BIOWL1-15 | 2026-09-03 08:41:44 | 52.17213 | 9.73035 | 108° | 57km/h | 3824m | -4.1m/s | -1.2°C | 30.5% | 642.9hPa | 2.7V | 07:42:28 | 02:09:22 | 00:00:00 | |
| DL1XH1-15 | 2026-09-03 08:41:43 | 52.17223 | 9.72991 | 109° | 57km/h | 3832m | -4.3m/s | -1.2°C | 26% | 642.1hPa | 2.6V | 07:42:20 | 02:09:20 | 00:00:00 | |
| DF8AY-15 | 2026-09-03 08:41:43 | 52.17202 | 9.73103 | 103° | 60km/h | 3811m | -4.4m/s | -1.0°C | 25.7% | 643.8hPa | 2.6V | 00:00:00 | 02:09:25 | 00:00:00 | |
| DL1XH-15 | 2026-09-03 08:41:42 | 52.17228 | 9.72969 | 110° | 58km/h | 3837m | -4.5m/s | -1.3°C | 26.1% | 641.5hPa | 2.6V | 07:42:21 | 02:09:19 | 00:00:00 | |
| DB0DAN | 2026-09-03 08:41:40 | 52.17213 | 9.73035 | 108° | 53km/h | 3824m | -4.1m/s | -1.2°C | 25.8% | 642.85hPa | 2.7V | 00:00:00 | 00:00:00 | 00:00:00 | |
| DL1XH-west | 2026-09-03 08:41:39 | 52.17218 | 9.73013 | 109° | 57km/h | 3828m | -4.2m/s | -1.2°C | 30.5% | 642.2hPa | 2.7V | 07:42:28 | 02:09:21 | 00:00:00 | |
| DL1XH1-15 | 2026-09-03 08:41:38 | 52.17249 | 9.72879 | 111° | 58km/h | 3855m | -4.5m/s | -1.4°C | 26.5% | 640.1hPa | 2.7V | 07:42:25 | 02:09:15 | 00:00:00 | |
| DL1XH-15 | 2026-09-03 08:41:37 | 52.17260 | 9.72833 | 112° | 62km/h | 3863m | -4.4m/s | -1.5°C | 26.6% | 639.6hPa | 2.7V | 07:42:27 | 02:09:13 | 00:00:00 | |
| DM0DOS-11 | 2026-09-03 08:41:35 | 52.17238 | 9.72924 | 111° | 58km/h | 3845m | -4.3m/s | -1.4°C | 26.4% | 640.9hPa | 2.7V | 07:42:23 | 02:09:17 | 00:00:00 | |
| DM0DOS-11 | 2026-09-03 08:41:35 | 52.17266 | 9.72810 | 113° | 62km/h | 3868m | -4.6m/s | -1.5°C | 26.6% | 639.2hPa | 2.6V | 07:42:28 | 02:09:12 | 00:00:00 | |
| BIOWL1-15 | 2026-09-03 08:41:29 | 52.17273 | 9.72786 | 113° | 64km/h | 3872m | -4.7m/s | -1.6°C | 31.4% | 638.7hPa | 2.6V | 07:43:19 | 02:09:11 | 00:00:00 | |
| DL1XH1-15 | 2026-09-03 08:41:28 | 52.17279 | 9.72762 | 112° | 64km/h | 3877m | -4.8m/s | -1.6°C | 26.7% | 638.4hPa | 2.7V | 07:42:30 | 02:09:10 | 00:00:00 | |
| DL1XH1-15 | 2026-09-03 08:41:28 | 52.17311 | 9.72639 | 112° | 64km/h | 3900m | -4.7m/s | -1.8°C | 26.7% | 636.6hPa | 2.6V | 07:42:35 | 02:09:05 | 00:00:00 | |
| DL1XH-west | 2026-09-03 08:41:28 | 52.17279 | 9.72762 | 113° | 64km/h | 3877m | -4.8m/s | -1.6°C | 31.3% | 638.5hPa | 2.7V | 07:43:19 | 02:09:10 | 00:00:00 | |
| DM0DOS-11 | 2026-09-03 08:41:25 | 52.17298 | 9.72687 | 113° | 66km/h | 3891m | -4.4m/s | -1.7°C | 26.7% | 637.3hPa | 2.7V | 07:42:33 | 02:09:07 | 00:00:00 | |
| DM0DOS-11 | 2026-09-03 08:41:25 | 52.17329 | 9.72568 | 110° | 60km/h | 3914m | -4.5m/s | -1.9°C | 26.9% | 635.5hPa | 2.7V | 07:42:38 | 02:09:02 | 00:00:00 | |
| DB0DAN | 2026-09-03 08:41:25 | 52.17298 | 9.72687 | 113° | 62km/h | 3891m | -4.4m/s | -1.7°C | 26.5% | 637.26hPa | 2.7V | 00:00:00 | 00:00:00 | 00:00:00 | |
| BIOWL1-15 | 2026-09-03 08:41:22 | 52.17334 | 9.72545 | 111° | 60km/h | 3919m | -4.8m/s | -2°C | 31.7% | 635.1hPa | 2.7V | 07:43:19 | 02:09:01 | 00:00:00 | |
| AM1SDL-15 | 2026-09-03 08:41:21 | 52.17323 | 9.72592 | 113° | 62km/h | 3909m | -4.7m/s | -1.8°C | 26.8% | 635.8hPa | 2.7V | 00:00:00 | 02:09:03 | 00:00:00 | |
| DM0DOS-11 | 2026-09-03 08:41:20 | 52.17356 | 9.72454 | 111° | 60km/h | 3937m | -4.8m/s | -2.1°C | 27.3% | 633.6hPa | 2.6V | 07:42:43 | 02:08:57 | 00:00:00 | |
| DJ2DS-15 | 2026-09-03 08:41:20 | 52.17329 | 9.72568 | 111° | 60km/h | 3914m | -4.5m/s | -1.9°C | 26.9% | 635.5hPa | 2.7V | 07:42:00 | 02:09:02 | 00:00:00 | |
| DB0NH | 2026-09-03 08:41:19 | 52.17334 | 9.72545 | 111° | 64km/h | 3919m | -4.7m/s | -1.9°C | 27.0% | 635.1hPa | 2.7V | 00:00:00 | 02:09:01 | 00:00:00 | |
| DL1XH1-15 | 2026-09-03 08:41:18 | 52.17367 | 9.72407 | 111° | 62km/h | 3947m | -4.8m/s | -2.2°C | 27.4% | 632.9hPa | 2.7V | 07:42:45 | 02:08:55 | 00:00:00 | |
| DL1XH-west | 2026-09-03 08:41:17 | 52.17345 | 9.72500 | 111° | 60km/h | 3928m | -4.9m/s | -2.1°C | 31.8% | 634.3hPa | 2.7V | 07:43:19 | 02:08:59 | 00:00:00 | |
| DM0DOS-11 | 2026-09-03 08:41:15 | 52.17385 | 9.72334 | 111° | 64km/h | 3961m | -4.8m/s | -2.4°C | 27.6% | 631.6hPa | 2.7V | 07:42:48 | 02:08:52 | 00:00:00 | |
| DO2JMG | 2026-09-03 08:41:14 | 52.17361 | 9.72431 | 112° | 60km/h | 3942m | -4.7m/s | -2.2°C | 32% | 633.3hPa | 2.6V | 07:43:19 | 02:08:56 | 00:00:00 | |
| DL1XH1-15 | 2026-09-03 08:41:13 | 52.17397 | 9.72285 | 109° | 62km/h | 3971m | -4.8m/s | -2.4°C | 27.8% | 631hPa | 2.7V | 07:42:50 | 02:08:50 | 00:00:00 | |
| DL3OBA | 2026-09-03 08:41:11 | 52.17373 | 9.72383 | 113° | 64km/h | 3952m | -4.5m/s | -2.3°C | 27.3% | 632.4hPa | 2.7V | 07:43:00 | 00:00:00 | 00:00:00 | |
| DM0DOS-11 | 2026-09-03 08:41:10 | 52.17411 | 9.72215 | 107° | 58km/h | 3985m | -4.7m/s | -2.6°C | 28% | 629.9hPa | 2.7V | 07:42:53 | 02:08:47 | 00:00:00 | |
| DB0DAN | 2026-09-03 08:41:10 | 52.17385 | 9.72334 | 111° | 62km/h | 3961m | -4.8m/s | -2.4°C | 27.4% | 631.63hPa | 2.7V | 00:00:00 | 00:00:00 | 00:00:00 | |
| AM1SDL-15 | 2026-09-03 08:41:09 | 52.17391 | 9.72310 | 112° | 60km/h | 3966m | -4.9m/s | -2.4°C | 27.6% | 631.3hPa | 2.7V | 00:00:00 | 02:08:51 | 00:00:00 | |
| DL1XH1-15 | 2026-09-03 08:41:08 | 52.17420 | 9.72169 | 108° | 58km/h | 3995m | -4.8m/s | -2.7°C | 28.3% | 629.1hPa | 2.7V | 07:42:55 | 02:08:45 | 00:00:00 | |
| DL1XH-west | 2026-09-03 08:41:07 | 52.17402 | 9.72261 | 109° | 60km/h | 3976m | -4.9m/s | -2.5°C | 32.7% | 630.6hPa | 2.6V | 07:43:19 | 02:08:49 | 00:00:00 | |
| BIOWL1-15 | 2026-09-03 08:41:06 | 52.17406 | 9.72238 | 108° | 58km/h | 3980m | -4.8m/s | -2.5°C | 32.7% | 630.3hPa | 2.6V | 07:43:19 | 02:08:48 | 00:00:00 | |
| DM0DOS-11 | 2026-09-03 08:41:05 | 52.17435 | 9.72100 | 110° | 60km/h | 4009m | -5.1m/s | -2.8°C | 28.4% | 628hPa | 2.6V | 07:42:58 | 02:08:42 | 00:00:00 | |
| BUE01 | 2026-09-03 08:41:04 | 52.17420 | 9.72169 | 108° | 57km/h | 3995m | -4.8m/s | -2.7°C | 28.1% | 629.1hPa | 2.7V | 00:00:00 | 00:00:00 | 00:00:00 | |
| DL1XH1-15 | 2026-09-03 08:41:03 | 52.17446 | 9.72052 | 111° | 66km/h | 4019m | -5.1m/s | -2.9°C | 28.4% | 627.1hPa | 2.7V | 07:43:00 | 02:08:40 | 00:00:00 | |
| DO2JMG | 2026-09-03 08:41:03 | 52.17420 | 9.72169 | 108° | 58km/h | 3995m | -4.8m/s | -2.7°C | 33.2% | 629.1hPa | 2.7V | 07:43:19 | 02:08:45 | 00:00:00 | |
| DL4XJ-10 | 2026-09-03 08:41:03 | 52.17420 | 9.72169 | 109° | 71km/h | 3995m | -4.8m/s | -1.3°C | 0% | 0hPa | 2.7V | 00:00:00 | 00:00:00 | 00:00:00 | |
| DJ2DS-15 | 2026-09-03 08:41:00 | 52.17435 | 9.72100 | 111° | 73km/h | 4010m | -5.0m/s | -2.7°C | 28.4% | 628.0hPa | 2.7V | 00:00:00 | 02:08:42 | 00:00:00 | |
| DL1XH1-15 | 2026-09-03 08:40:58 | 52.17476 | 9.71914 | 105° | 75km/h | 4044m | -4.8m/s | -3°C | 28.4% | 625.2hPa | 2.7V | 07:43:05 | 02:08:35 | 00:00:00 | |
| DL1XH-west | 2026-09-03 08:40:56 | 52.17458 | 9.72000 | 110° | 69km/h | 4029m | -4.8m/s | -2.9°C | 33.2% | 626.4hPa | 2.7V | 07:43:19 | 02:08:38 | 00:00:00 | |
| DB0DAN | 2026-09-03 08:40:55 | 52.17464 | 9.71972 | 109° | 69km/h | 4034m | -4.9m/s | -3°C | 28.2% | 626.01hPa | 2.7V | 00:00:00 | 00:00:00 | 00:00:00 | |
| DO2JMG | 2026-09-03 08:40:52 | 52.17480 | 9.71884 | 104° | 75km/h | 4049m | -4.8m/s | -3.1°C | 32.9% | 624.9hPa | 2.6V | 07:43:19 | 02:08:34 | 00:00:00 | |
| BIOWL1-15 | 2026-09-03 08:40:51 | 52.17485 | 9.71853 | 103° | 75km/h | 4054m | -5.1m/s | -3.1°C | 32.7% | 624.3hPa | 2.6V | 07:43:19 | 02:08:33 | 00:00:00 | |
| SONCRA | 2026-09-03 08:40:49 | 52.17492 | 9.71792 | 100° | 75km/h | 4063m | -5.1m/s | -3.1°C | 27.7% | 623.7hPa | 2.7V | 00:00:00 | 00:00:00 | 00:00:00 | |
| DL1XH1-15 | 2026-09-03 08:40:48 | 52.17496 | 9.71761 | 99° | 77km/h | 4068m | -4.9m/s | -3.1°C | 27.6% | 623.3hPa | 2.7V | 07:43:10 | 02:08:30 | 00:00:00 | |
| DL1XH1-15 | 2026-09-03 08:40:48 | 52.17514 | 9.71605 | 101° | 78km/h | 4093m | -5.1m/s | -3.3°C | 27.6% | 621.2hPa | 2.7V | 07:43:15 | 02:08:25 | 00:00:00 | |
| BIOWL9-15 | 2026-09-03 08:40:47 | 52.17503 | 9.71699 | 100° | 77km/h | 4078m | -4.9m/s | -3.2°C | 27.5% | 622.5hPa | 2.7V | 00:00:00 | 00:00:00 | 00:00:00 | |
| DL1XH-15 | 2026-09-03 08:40:46 | 52.17503 | 9.71699 | 100° | 77km/h | 4078m | -4.9m/s | -3.2°C | 27.7% | 622.5hPa | 2.7V | 07:43:12 | 02:08:28 | 00:00:00 | |
| DL1XH-west | 2026-09-03 08:40:46 | 52.17503 | 9.71699 | 101° | 77km/h | 4079m | -4.9m/s | -3.2°C | 32.4% | 622.5hPa | 2.7V | 07:43:19 | 02:08:28 | 00:00:00 | |
| DO2JMG | 2026-09-03 08:40:41 | 52.17521 | 9.71543 | 100° | 77km/h | 4103m | -5m/s | -3.4°C | 32.2% | 620.5hPa | 2.7V | 07:43:19 | 02:08:23 | 00:00:00 | |
| DB0DAN | 2026-09-03 08:40:40 | 52.17524 | 9.71512 | 100° | 73km/h | 4108m | -4.8m/s | -3.4°C | 27.5% | 620.12hPa | 2.7V | 00:00:00 | 00:00:00 | 00:00:00 | |
| BIOWL1-15 | 2026-09-03 08:40:40 | 52.17524 | 9.71512 | 100° | 77km/h | 4108m | -4.8m/s | -3.4°C | 32.4% | 620.1hPa | 2.7V | 07:43:19 | 02:08:22 | 00:00:00 | |
| DL1XH1-15 | 2026-09-03 08:40:38 | 52.17530 | 9.71451 | 98° | 73km/h | 4118m | -5.1m/s | -3.5°C | 27.7% | 619.4hPa | 2.7V | 07:43:20 | 02:08:20 | 00:00:00 | |
| DL1XH1-15 | 2026-09-03 08:40:38 | 52.17543 | 9.71305 | 97° | 73km/h | 4143m | -5.2m/s | -3.8°C | 27.9% | 617.3hPa | 2.7V | 07:43:25 | 02:08:15 | 00:00:00 | |
| DF8AY | 2026-09-03 08:40:36 | 52.17536 | 9.71392 | 98° | 71km/h | 4128m | -5.3m/s | -3.6°C | 32.3% | 618.4hPa | 2.6V | 07:44:10 | 02:08:18 | 00:00:00 | |
| DL1XH-15 | 2026-09-03 08:40:35 | 52.17538 | 9.71363 | 98° | 71km/h | 4133m | -4.9m/s | -3.7°C | 27.7% | 618.1hPa | 2.7V | 07:43:23 | 02:08:17 | 00:00:00 | |
| DL1XH-west | 2026-09-03 08:40:35 | 52.17538 | 9.71363 | 98° | 71km/h | 4133m | -4.9m/s | -3.7°C | 32.4% | 618.2hPa | 2.7V | 07:44:10 | 02:08:17 | 00:00:00 | |
| DL1XH1-15 | 2026-09-03 08:40:33 | 52.17556 | 9.71161 | 98° | 69km/h | 4169m | -5.2m/s | -4°C | 28.3% | 615.3hPa | 2.7V | 07:43:30 | 02:08:10 | 00:00:00 | |
| BUE01 | 2026-09-03 08:40:33 | 52.17546 | 9.71275 | 98° | 71km/h | 4149m | -5.0m/s | -3.8°C | 27.8% | 617.0hPa | 2.7V | 00:00:00 | 00:00:00 | 00:00:00 | |
| DL1XH-15 | 2026-09-03 08:40:30 | 52.17563 | 9.71075 | 97° | 71km/h | 4185m | -5m/s | -4.1°C | 28.3% | 614hPa | 2.7V | 07:43:33 | 02:08:07 | 00:00:00 | |
| BIOWL1-15 | 2026-09-03 08:40:30 | 52.17551 | 9.71218 | 98° | 69km/h | 4159m | -5.3m/s | -3.9°C | 32.9% | 616.2hPa | 2.6V | 07:44:10 | 02:08:12 | 00:00:00 | |
| DL3OBA | 2026-09-03 08:40:29 | 52.17551 | 9.71218 | 99° | 69km/h | 4159m | -5.3m/s | -3.9°C | 27.8% | 616.2hPa | 2.6V | 07:44:00 | 00:00:00 | 00:00:00 | |
| DL1XH1-15 | 2026-09-03 08:40:28 | 52.17568 | 9.71016 | 97° | 73km/h | 4195m | -5m/s | -4.2°C | 28.5% | 613.3hPa | 2.6V | 07:43:35 | 02:08:05 | 00:00:00 | |
| DF8AY | 2026-09-03 08:40:26 | 52.17561 | 9.71104 | 98° | 71km/h | 4179m | -5.1m/s | -4.1°C | 33.1% | 614.6hPa | 2.7V | 07:44:10 | 02:08:08 | 00:00:00 | |
| DL1XH-west | 2026-09-03 08:40:25 | 52.17563 | 9.71075 | 98° | 71km/h | 4185m | -5.1m/s | -4.1°C | 33.2% | 614hPa | 2.7V | 07:44:10 | 02:08:07 | 00:00:00 | |
| DB0DAN | 2026-09-03 08:40:25 | 52.17563 | 9.71075 | 98° | 68km/h | 4185m | -5.1m/s | -4.1°C | 28% | 614.05hPa | 2.7V | 00:00:00 | 00:00:00 | 00:00:00 | |
| DL8OAI-8 | 2026-09-03 08:40:24 | 52.17563 | 9.71075 | 99° | 71km/h | 4185m | -5.1m/s | -4.1°C | 28.0% | 614.1hPa | 2.7V | 07:44:00 | 00:00:00 | 00:00:00 | |
| DL1XH1-15 | 2026-09-03 08:40:23 | 52.17580 | 9.70864 | 96° | 75km/h | 4221m | -5.3m/s | -4.4°C | 28.7% | 611.4hPa | 2.7V | 07:43:40 | 02:08:00 | 00:00:00 | |
| DF8AY-15 | 2026-09-03 08:40:23 | 52.17568 | 9.71016 | 98° | 75km/h | 4195m | -5.0m/s | -4.1°C | 28.5% | 613.3hPa | 2.7V | 07:43:00 | 02:08:05 | 00:00:00 | |
| DL1XH-15 | 2026-09-03 08:40:20 | 52.17575 | 9.70925 | 97° | 75km/h | 4210m | -5.1m/s | -4.3°C | 28.6% | 612.2hPa | 2.7V | 07:43:38 | 02:08:02 | 00:00:00 | |
| DO2JMG | 2026-09-03 08:40:19 | 52.17578 | 9.70894 | 97° | 75km/h | 4215m | -5.1m/s | -4.4°C | 33.7% | 611.7hPa | 2.7V | 07:46:43 | 02:08:01 | 00:00:00 | |
| DF8AY | 2026-09-03 08:40:16 | 52.17585 | 9.70803 | 97° | 75km/h | 4231m | -5.4m/s | -4.5°C | 34.1% | 610.6hPa | 2.7V | 07:44:10 | 02:07:58 | 00:00:00 | |
| DM0DOS-11 | 2026-09-03 08:40:15 | 52.17587 | 9.70772 | 96° | 75km/h | 4236m | -5.2m/s | -4.5°C | 29.3% | 610.1hPa | 2.6V | 07:43:43 | 02:07:57 | 00:00:00 | |
| DL1XH-west | 2026-09-03 08:40:15 | 52.17587 | 9.70772 | 97° | 75km/h | 4236m | -5.2m/s | -4.5°C | 34.3% | 610.1hPa | 2.6V | 07:44:10 | 02:07:57 | 00:00:00 | |
| DJ2DS-15 | 2026-09-03 08:40:13 | 52.17592 | 9.70711 | 97° | 75km/h | 4247m | -5.2m/s | -4.6°C | 29.4% | 609.4hPa | 2.6V | 00:00:00 | 00:00:00 | 00:00:00 | |
| DL1XH-15 | 2026-09-03 08:40:12 | 52.17612 | 9.70530 | 104° | 75km/h | 4276m | -4.8m/s | -4.8°C | 28% | 607.2hPa | 2.6V | 07:43:51 | 02:07:49 | 00:00:00 | |
| DB0DAN | 2026-09-03 08:40:10 | 52.17600 | 9.70620 | 100° | 71km/h | 4262m | -4.6m/s | -4.7°C | 28.9% | 608.19hPa | 2.7V | 00:00:00 | 00:00:00 | 00:00:00 | |
| BIOWL1-15 | 2026-09-03 08:40:09 | 52.17603 | 9.70590 | 102° | 75km/h | 4267m | -4.7m/s | -4.7°C | 32.5% | 607.8hPa | 2.7V | 07:44:10 | 02:07:51 | 00:00:00 | |
| DF8AY | 2026-09-03 08:40:06 | 52.17617 | 9.70500 | 105° | 75km/h | 4281m | -4.9m/s | -4.8°C | 32.5% | 606.6hPa | 2.7V | 07:44:10 | 02:07:48 | 00:00:00 | |
| DM0DOS-11 | 2026-09-03 08:40:05 | 52.17622 | 9.70470 | 105° | 77km/h | 4286m | -5.1m/s | -4.8°C | 28% | 606.2hPa | 2.7V | 07:43:53 | 02:07:47 | 00:00:00 | |
| DL1XH-west | 2026-09-03 08:40:04 | 52.17627 | 9.70440 | 106° | 75km/h | 4291m | -5m/s | -4.9°C | 32.3% | 605.9hPa | 2.7V | 07:44:10 | 02:07:46 | 00:00:00 | |
| DD8BA-10 | 2026-09-03 08:40:04 | 52.17627 | 9.70440 | 106° | 75km/h | 4291m | -5.0m/s | -4.9°C | 28.1% | 605.9hPa | 2.7V | 00:00:00 | 00:00:00 | 00:00:00 | |
| DL1XH1-15 | 2026-09-03 08:40:03 | 52.17654 | 9.70260 | 102° | 75km/h | 4321m | -4.9m/s | -5.1°C | 27.9% | 603.6hPa | 2.7V | 07:44:00 | 02:07:40 | 00:00:00 | |
| DL1XH-15 | 2026-09-03 08:40:02 | 52.17637 | 9.70380 | 104° | 75km/h | 4301m | -4.8m/s | -5°C | 27.8% | 605.1hPa | 2.7V | 07:43:56 | 02:07:44 | 00:00:00 | |
| BUE01 | 2026-09-03 08:40:02 | 52.17642 | 9.70350 | 103° | 73km/h | 4306m | -5.0m/s | -5.0°C | 27.7% | 604.8hPa | 2.7V | 00:00:00 | 00:00:00 | 00:00:00 | |
| DM0DOS-11 | 2026-09-03 08:40:00 | 52.17667 | 9.70170 | 103° | 75km/h | 4337m | -5.1m/s | -5.2°C | 27.7% | 602.3hPa | 2.7V | 07:44:03 | 02:07:37 | 00:00:00 | |
| DJ2DS-15 | 2026-09-03 08:40:00 | 52.17646 | 9.70320 | 104° | 77km/h | 4311m | -4.5m/s | -5.0°C | 27.7% | 604.4hPa | 2.6V | 00:00:00 | 02:07:42 | 00:00:00 | |
| DL1XH1-15 | 2026-09-03 08:39:58 | 52.17677 | 9.70111 | 104° | 73km/h | 4347m | -5.2m/s | -5.3°C | 27.2% | 601.5hPa | 2.6V | 07:44:05 | 02:07:35 | 00:00:00 | |
| DO2JMG | 2026-09-03 08:39:58 | 52.17655 | 9.70260 | 102° | 75km/h | 4321m | -4.9m/s | -5.1°C | 32.2% | 603.6hPa | 2.7V | 07:46:43 | 02:07:40 | 00:00:00 | |
| DM0DOS-11 | 2026-09-03 08:39:55 | 52.17691 | 9.70023 | 106° | 75km/h | 4363m | -5.1m/s | -5.4°C | 27.4% | 600.3hPa | 2.7V | 07:44:08 | 02:07:32 | 00:00:00 | |
| DF8AY | 2026-09-03 08:39:55 | 52.17667 | 9.70170 | 103° | 75km/h | 4337m | -5.1m/s | -5.2°C | 32.3% | 602.3hPa | 2.7V | 07:44:10 | 02:07:37 | 00:00:00 | |
| DB0DAN | 2026-09-03 08:39:55 | 52.17667 | 9.70170 | 103° | 71km/h | 4337m | -5.1m/s | -5.2°C | 27.4% | 602.28hPa | 2.7V | 00:00:00 | 00:00:00 | 00:00:00 | |
| DD8BA-10 | 2026-09-03 08:39:54 | 52.17671 | 9.70140 | 106° | 77km/h | 4342m | -5.2m/s | -5.2°C | 27.8% | 602.0hPa | 2.7V | 00:00:00 | 00:00:00 | 00:00:00 | |
| DL1XH1-15 | 2026-09-03 08:39:53 | 52.17703 | 9.69963 | 108° | 77km/h | 4373m | -4.8m/s | -5.4°C | 28.7% | 599.5hPa | 2.7V | 07:44:10 | 02:07:30 | 00:00:00 | |
| DL1XH-west | 2026-09-03 08:39:53 | 52.17676 | 9.70111 | 105° | 73km/h | 4347m | -5.2m/s | -5.3°C | 31.7% | 601.5hPa | 2.6V | 07:44:10 | 02:07:35 | 00:00:00 | |
| DL1XH-15 | 2026-09-03 08:39:52 | 52.17709 | 9.69933 | 109° | 78km/h | 4378m | -4.9m/s | -5.4°C | 33.9% | 599.2hPa | 2.6V | 07:44:11 | 02:07:29 | 00:00:00 | |
| DD1CC8 | 2026-09-03 08:39:51 | 52.17686 | 9.70052 | 105° | 73km/h | 4357m | -5.4m/s | -5.4°C | 27.0% | 600.7hPa | 2.7V | 00:00:00 | 00:00:00 | 00:00:00 | |
| DM0DOS-11 | 2026-09-03 08:39:50 | 52.17723 | 9.69872 | 109° | 78km/h | 4388m | -5.1m/s | -5.5°C | 35.9% | 598.3hPa | 2.7V | 07:44:13 | 02:07:27 | 00:00:00 | |
| BIOWL1-15 | 2026-09-03 08:39:50 | 52.17703 | 9.69963 | 109° | 77km/h | 4373m | -4.8m/s | -5.4°C | 33.5% | 599.5hPa | 2.7V | 07:44:10 | 02:07:30 | 00:00:00 | |
| DL3AQ-11 | 2026-09-03 08:39:50 | 52.17697 | 9.69993 | 107° | 75km/h | 4368m | -5.0m/s | -5.4°C | 26.7% | 599.9hPa | 2.6V | 00:00:00 | 00:00:00 | 00:00:00 | |
| SONCRA | 2026-09-03 08:39:47 | 52.17709 | 9.69933 | 109° | 77km/h | 4378m | -4.9m/s | -5.4°C | 33.5% | 599.2hPa | 2.6V | 00:00:00 | 00:00:00 | 00:00:00 | |
| DK9SH | 2026-09-03 08:39:46 | 52.17709 | 9.69933 | 110° | 78km/h | 4378m | -4.9m/s | -5.4°C | 33.5% | 599.2hPa | 2.6V | 07:45:00 | 00:00:00 | 00:00:00 | |
| DM0DOS-11 | 2026-09-03 08:39:45 | 52.17755 | 9.69719 | 109° | 82km/h | 4414m | -5.6m/s | -5.7°C | 33.4% | 596.3hPa | 2.6V | 07:44:18 | 02:07:22 | 00:00:00 | |
| DF8AY | 2026-09-03 08:39:45 | 52.17723 | 9.69872 | 109° | 78km/h | 4388m | -5.1m/s | -5.5°C | 41.7% | 598.3hPa | 2.7V | 07:45:01 | 02:07:27 | 00:00:00 | |
| BIOWL9-15 | 2026-09-03 08:39:45 | 52.17723 | 9.69872 | 109° | 77km/h | 4388m | -5.1m/s | -5.5°C | 35.5% | 598.3hPa | 2.7V | 00:00:00 | 00:00:00 | 00:00:00 | |
| DL1XH1-15 | 2026-09-03 08:39:43 | 52.17735 | 9.69811 | 108° | 78km/h | 4398m | -5.5m/s | -5.6°C | 36.6% | 597.5hPa | 2.7V | 07:44:15 | 02:07:25 | 00:00:00 | |
| DL1XH1-15 | 2026-09-03 08:39:43 | 52.17768 | 9.69654 | 108° | 84km/h | 4426m | -5.1m/s | -5.9°C | 29.6% | 595.6hPa | 2.7V | 07:44:20 | 02:07:20 | 00:00:00 | |
| DL1XH-west | 2026-09-03 08:39:42 | 52.17742 | 9.69781 | 109° | 78km/h | 4403m | -5.6m/s | -5.6°C | 41.6% | 597.2hPa | 2.7V | 07:45:01 | 02:07:24 | 00:00:00 | |
| DB0DAN | 2026-09-03 08:39:40 | 52.17755 | 9.69719 | 109° | 78km/h | 4415m | -5.6m/s | -5.7°C | 33% | 596.3hPa | 2.6V | 00:00:00 | 00:00:00 | 00:00:00 | |
| DJ2DS-15 | 2026-09-03 08:39:40 | 52.17755 | 9.69719 | 110° | 86km/h | 4415m | -5.6m/s | -5.7°C | 33.4% | 596.2hPa | 2.7V | 00:00:00 | 02:07:22 | 00:00:00 | |
| DL1XH-15 | 2026-09-03 08:39:37 | 52.17775 | 9.69621 | 108° | 86km/h | 4431m | -4.9m/s | -5.9°C | 30.4% | 595.1hPa | 2.7V | 07:44:21 | 02:07:19 | 00:00:00 | |
| DL1XH-15 | 2026-09-03 08:39:37 | 52.17810 | 9.69453 | 108° | 88km/h | 4456m | -4.8m/s | -6.1°C | 32.8% | 593.3hPa | 2.6V | 07:44:26 | 02:07:14 | 00:00:00 | |
| BIOWL1-15 | 2026-09-03 08:39:37 | 52.17775 | 9.69621 | 108° | 86km/h | 4431m | -4.9m/s | -5.9°C | 35.4% | 595.1hPa | 2.7V | 07:45:01 | 02:07:19 | 00:00:00 | |
| DM0DOS-11 | 2026-09-03 08:39:34 | 52.17831 | 9.69351 | 107° | 88km/h | 4471m | -5.4m/s | -6.2°C | 32.2% | 592.1hPa | 2.7V | 07:44:29 | 02:07:11 | 00:00:00 | |
| DF8AY | 2026-09-03 08:39:34 | 52.17796 | 9.69520 | 109° | 86km/h | 4446m | -5.2m/s | -5.9°C | 35.8% | 594hPa | 2.7V | 07:45:01 | 02:07:16 | 00:00:00 | |
| DL1XH1-15 | 2026-09-03 08:39:33 | 52.17803 | 9.69487 | 108° | 88km/h | 4451m | -5.1m/s | -6°C | 31.4% | 593.5hPa | 2.6V | 07:44:25 | 02:07:15 | 00:00:00 | |
| DL1XH-west | 2026-09-03 08:39:31 | 52.17817 | 9.69419 | 108° | 86km/h | 4461m | -4.9m/s | -6.1°C | 38.4% | 592.9hPa | 2.7V | 07:45:01 | 02:07:13 | 00:00:00 | |
| BIOWL1-15 | 2026-09-03 08:39:29 | 52.17843 | 9.69282 | 107° | 88km/h | 4482m | -5.5m/s | -6.3°C | 38% | 591.3hPa | 2.7V | 07:45:01 | 02:07:09 | 00:00:00 | |
| DL1XH-15 | 2026-09-03 08:39:27 | 52.17843 | 9.69282 | 106° | 88km/h | 4481m | -5.5m/s | -6.3°C | 32.9% | 591.3hPa | 2.7V | 07:44:31 | 02:07:09 | 00:00:00 | |
| DL1XH-15 | 2026-09-03 08:39:27 | 52.17872 | 9.69111 | 105° | 86km/h | 4509m | -5.3m/s | -6.5°C | 36% | 589.2hPa | 2.7V | 07:44:36 | 02:07:04 | 00:00:00 | |
| DB0DAN | 2026-09-03 08:39:25 | 52.17855 | 9.69213 | 105° | 82km/h | 4492m | -5.4m/s | -6.3°C | 34.7% | 590.5hPa | 2.6V | 00:00:00 | 00:00:00 | 00:00:00 | |
| DF8AY | 2026-09-03 08:39:24 | 52.17861 | 9.69179 | 106° | 86km/h | 4498m | -5.7m/s | -6.4°C | 41.1% | 590.1hPa | 2.7V | 07:45:01 | 02:07:06 | 00:00:00 | |
| DL1XH1-15 | 2026-09-03 08:39:23 | 52.17867 | 9.69145 | 104° | 86km/h | 4503m | -5.3m/s | -6.4°C | 36.7% | 589.6hPa | 2.7V | 07:44:35 | 02:07:05 | 00:00:00 | |
| DF8AY-15 | 2026-09-03 08:39:23 | 52.17867 | 9.69145 | 105° | 86km/h | 4504m | -5.3m/s | -6.4°C | 36.7% | 589.6hPa | 2.7V | 00:00:00 | 02:07:05 | 00:00:00 | |
| DL1XH-15 | 2026-09-03 08:39:22 | 52.17904 | 9.68941 | 105° | 86km/h | 4537m | -5.8m/s | -6.7°C | 38.7% | 587.2hPa | 2.7V | 07:44:41 | 02:06:59 | 00:00:00 | |
| DL1XH-west | 2026-09-03 08:39:20 | 52.17884 | 9.69043 | 108° | 86km/h | 4520m | -5.3m/s | -6.6°C | 38.8% | 588.4hPa | 2.7V | 07:45:01 | 02:07:02 | 00:00:00 | |
| DM0DOS-11 | 2026-09-03 08:39:19 | 52.17891 | 9.69009 | 106° | 86km/h | 4525m | -5.9m/s | -6.6°C | 35.1% | 588hPa | 2.6V | 07:44:39 | 02:07:01 | 00:00:00 | |
| DM0DOS-11 | 2026-09-03 08:39:19 | 52.17920 | 9.68839 | 105° | 84km/h | 4554m | -6m/s | -6.9°C | 44.6% | 585.8hPa | 2.7V | 07:44:44 | 02:06:56 | 00:00:00 | |
| BIOWL1-15 | 2026-09-03 08:39:18 | 52.17909 | 9.68907 | 106° | 86km/h | 4542m | -5.7m/s | -6.8°C | 48.9% | 586.8hPa | 2.7V | 07:45:01 | 02:06:58 | 00:00:00 | |
| DL1XH-15 | 2026-09-03 08:39:17 | 52.17931 | 9.68772 | 105° | 86km/h | 4567m | -6.2m/s | -7°C | 53.6% | 584.9hPa | 2.6V | 07:44:46 | 02:06:54 | 00:00:00 | |
| DF8AY | 2026-09-03 08:39:13 | 52.17926 | 9.68806 | 105° | 84km/h | 4560m | -6.1m/s | -7°C | 57.4% | 585.5hPa | 2.7V | 07:45:01 | 02:06:55 | 00:00:00 | |
| AA1-15 | 2026-09-03 08:39:11 | 52.17937 | 9.68738 | 105° | 86km/h | 4573m | -6.5m/s | -7.1°C | 60.7% | 584.4hPa | 2.6V | 07:45:01 | 02:06:53 | 00:00:00 | |
| DB0DAN | 2026-09-03 08:39:10 | 52.17943 | 9.68704 | 106° | 82km/h | 4579m | -6.4m/s | -7.2°C | 53.4% | 583.9hPa | 2.7V | 00:00:00 | 00:00:00 | 00:00:00 | |
| DM0DOS-11 | 2026-09-03 08:39:09 | 52.17949 | 9.68670 | 105° | 86km/h | 4585m | -6.2m/s | -7.2°C | 54.7% | 583.6hPa | 2.7V | 07:44:49 | 02:06:51 | 00:00:00 | |
| DM0DOS-11 | 2026-09-03 08:39:09 | 52.17978 | 9.68503 | 104° | 84km/h | 4620m | -6.8m/s | -7.5°C | 55.3% | 581hPa | 2.6V | 07:44:54 | 02:06:46 | 00:00:00 | |
| DL1XH-west | 2026-09-03 08:39:09 | 52.17949 | 9.68670 | 106° | 86km/h | 4585m | -6.2m/s | -7.2°C | 61.1% | 583.6hPa | 2.7V | 07:45:01 | 02:06:51 | 00:00:00 | |
| DL1XH-15 | 2026-09-03 08:39:07 | 52.17961 | 9.68603 | 106° | 84km/h | 4599m | -6.8m/s | -7.3°C | 59.4% | 582.7hPa | 2.7V | 07:44:51 | 02:06:49 | 00:00:00 | |
| DL1XH-15 | 2026-09-03 08:39:07 | 52.17988 | 9.68436 | 104° | 82km/h | 4633m | -6.7m/s | -7.6°C | 52.6% | 580hPa | 2.7V | 07:44:56 | 02:06:44 | 00:00:00 | |
| BIOWL1-15 | 2026-09-03 08:39:06 | 52.17966 | 9.68570 | 106° | 84km/h | 4606m | -7.2m/s | -7.4°C | 62.1% | 582hPa | 2.7V | 07:45:01 | 02:06:48 | 00:00:00 | |
| DK9SH | 2026-09-03 08:39:05 | 52.17966 | 9.68569 | 107° | 84km/h | 4606m | -7.2m/s | -7.4°C | 54.4% | 582.0hPa | 2.6V | 07:45:00 | 00:00:00 | 00:00:00 | |
| D01LWL | 2026-09-03 08:39:04 | 52.18013 | 9.68275 | 104° | 77km/h | 4665m | -6.1m/s | -7.9°C | 48.8% | 577.6hPa | 2.6V | 00:00:00 | 00:00:00 | 00:00:00 | |
| DL1XH1-15 | 2026-09-03 08:39:03 | 52.18008 | 9.68307 | 103° | 78km/h | 4659m | -6.1m/s | -7.8°C | 51.5% | 578.1hPa | 2.6V | 07:45:00 | 02:06:40 | 00:00:00 | |
| DF8AY | 2026-09-03 08:39:03 | 52.17983 | 9.68470 | 104° | 84km/h | 4626m | -6.6m/s | -7.6°C | 59.7% | 580.6hPa | 2.7V | 07:45:01 | 02:06:45 | 00:00:00 | |
| AA1-15 | 2026-09-03 08:39:01 | 52.17993 | 9.68403 | 104° | 82km/h | 4640m | -6.7m/s | -7.7°C | 53.8% | 579.5hPa | 2.7V | 07:45:01 | 02:06:43 | 00:00:00 | |
| DL1XH-west | 2026-09-03 08:38:58 | 52.18008 | 9.68307 | 104° | 78km/h | 4659m | -6.1m/s | -7.8°C | 56.9% | 578.1hPa | 2.6V | 07:45:01 | 02:06:40 | 00:00:00 | |
| DL1XH-15 | 2026-09-03 08:38:57 | 52.18036 | 9.68121 | 103° | 77km/h | 4695m | -6.1m/s | -8.1°C | 50.7% | 575.3hPa | 2.7V | 07:45:06 | 02:06:34 | 00:00:00 | |
| BIOWL1-15 | 2026-09-03 08:38:56 | 52.18018 | 9.68244 | 104° | 77km/h | 4671m | -6.1m/s | -7.9°C | 49.7% | 577.2hPa | 2.7V | 07:45:52 | 02:06:38 | 00:00:00 | |
| DB0DAN | 2026-09-03 08:38:55 | 52.18023 | 9.68213 | 104° | 73km/h | 4677m | -6.4m/s | -8°C | 47.9% | 576.69hPa | 2.7V | 00:00:00 | 00:00:00 | 00:00:00 | |
| DL1LOL-11 | 2026-09-03 08:38:54 | 52.18023 | 9.68213 | 105° | 77km/h | 4677m | -6.4m/s | -8.0°C | 47.9% | 576.7hPa | 2.7V | 07:45:00 | 00:00:00 | 00:00:00 | |
| DL1XH1-15 | 2026-09-03 08:38:53 | 52.18055 | 9.67996 | 103° | 78km/h | 4720m | -6.3m/s | -8.4°C | 62.6% | 573.5hPa | 2.7V | 07:45:10 | 02:06:30 | 00:00:00 | |
| DF8AY | 2026-09-03 08:38:53 | 52.18032 | 9.68152 | 104° | 77km/h | 4689m | -6.2m/s | -8°C | 51.6% | 575.8hPa | 2.7V | 07:45:52 | 02:06:35 | 00:00:00 | |
| AA1-15 | 2026-09-03 08:38:50 | 52.18045 | 9.68059 | 104° | 78km/h | 4708m | -6.1m/s | -8.3°C | 57.6% | 574.5hPa | 2.6V | 07:46:43 | 02:06:32 | 00:00:00 | |
| DM0DOS-11 | 2026-09-03 08:38:49 | 52.18074 | 9.67868 | 103° | 80km/h | 4743m | -5.7m/s | -8.6°C | 53.9% | 571.7hPa | 2.6V | 07:45:14 | 02:06:26 | 00:00:00 | |
| DL1XH-west | 2026-09-03 08:38:48 | 52.18054 | 9.67996 | 103° | 78km/h | 4720m | -6.3m/s | -8.4°C | 68.1% | 573.5hPa | 2.7V | 07:45:52 | 02:06:30 | 00:00:00 | |
| DL1XH-15 | 2026-09-03 08:38:47 | 52.18059 | 9.67964 | 103° | 78km/h | 4726m | -5.9m/s | -8.5°C | 70.4% | 573.1hPa | 2.7V | 07:45:11 | 02:06:29 | 00:00:00 | |
| DL3AQ-11 | 2026-09-03 08:38:45 | 52.18069 | 9.67900 | 103° | 80km/h | 4738m | -5.7m/s | -8.6°C | 62.7% | 572.2hPa | 2.6V | 00:00:00 | 00:00:00 | 00:00:00 | |
| BIOWL1-15 | 2026-09-03 08:38:44 | 52.18074 | 9.67868 | 103° | 80km/h | 4743m | -5.7m/s | -8.6°C | 58.4% | 571.7hPa | 2.6V | 07:45:52 | 02:06:26 | 00:00:00 | |
| DF8AY | 2026-09-03 08:38:42 | 52.18083 | 9.67804 | 104° | 80km/h | 4755m | -6.1m/s | -8.7°C | 53% | 570.9hPa | 2.7V | 07:45:52 | 02:06:24 | 00:00:00 | |
| DB0DAN | 2026-09-03 08:38:40 | 52.18094 | 9.67738 | 105° | 78km/h | 4767m | -5.9m/s | -8.8°C | 53% | 569.99hPa | 2.7V | 00:00:00 | 00:00:00 | 00:00:00 | |
| DM0DOS-11 | 2026-09-03 08:38:39 | 52.18099 | 9.67706 | 104° | 82km/h | 4773m | -5.7m/s | -8.9°C | 59.8% | 569.6hPa | 2.7V | 07:45:19 | 02:06:21 | 00:00:00 | |
| DM0DOS-11 | 2026-09-03 08:38:39 | 52.18126 | 9.67540 | 104° | 82km/h | 4802m | -6m/s | -9.2°C | 67.8% | 567.4hPa | 2.7V | 07:45:24 | 02:06:16 | 00:00:00 | |
| AA1-15 | 2026-09-03 08:38:39 | 52.18099 | 9.67706 | 105° | 82km/h | 4773m | -5.7m/s | -8.9°C | 64.8% | 569.6hPa | 2.7V | 07:46:43 | 02:06:21 | 00:00:00 | |
| DL1XH-west | 2026-09-03 08:38:38 | 52.18104 | 9.67672 | 105° | 84km/h | 4779m | -6.2m/s | -9°C | 64.2% | 569.1hPa | 2.7V | 07:45:52 | 02:06:20 | 00:00:00 | |
| DL1XH-15 | 2026-09-03 08:38:37 | 52.18110 | 9.67639 | 104° | 84km/h | 4785m | -5.8m/s | -9.1°C | 69.2% | 568.6hPa | 2.6V | 07:45:21 | 02:06:19 | 00:00:00 | |
| BIOWL1-15 | 2026-09-03 08:38:34 | 52.18126 | 9.67540 | 104° | 82km/h | 4802m | -6.1m/s | -9.2°C | 73% | 567.4hPa | 2.7V | 07:45:52 | 02:06:16 | 00:00:00 | |
| DL1XH1-15 | 2026-09-03 08:38:33 | 52.18131 | 9.67508 | 103° | 80km/h | 4809m | -6m/s | -9.2°C | 50.1% | 567hPa | 2.7V | 07:45:25 | 02:06:15 | 00:00:00 | |
| DL1XH1-15 | 2026-09-03 08:38:33 | 52.18153 | 9.67350 | 102° | 78km/h | 4837m | -5.6m/s | -9.4°C | 32.6% | 564.8hPa | 2.7V | 07:45:30 | 02:06:10 | 00:00:00 | |
| DF8AY | 2026-09-03 08:38:31 | 52.18140 | 9.67444 | 103° | 78km/h | 4820m | -5.8m/s | -9.2°C | 33.1% | 566.2hPa | 2.7V | 07:45:52 | 02:06:13 | 00:00:00 | |
| DM0DOS-11 | 2026-09-03 08:38:29 | 52.18149 | 9.67381 | 102° | 78km/h | 4832m | -5.6m/s | -9.3°C | 33.2% | 565.3hPa | 2.6V | 07:45:29 | 02:06:11 | 00:00:00 | |
| DM0DOS-11 | 2026-09-03 08:38:29 | 52.18169 | 9.67227 | 100° | 75km/h | 4859m | -5.5m/s | -9.6°C | 46.7% | 563.1hPa | 2.6V | 07:45:34 | 02:06:06 | 00:00:00 | |
| DL1XH1-15 | 2026-09-03 08:38:28 | 52.18173 | 9.67197 | 100° | 75km/h | 4865m | -5.3m/s | -9.7°C | 41.6% | 562.8hPa | 2.6V | 07:45:35 | 02:06:05 | 00:00:00 | |
| AA1-15 | 2026-09-03 08:38:28 | 52.18153 | 9.67350 | 103° | 78km/h | 4837m | -5.6m/s | -9.4°C | 37.5% | 564.8hPa | 2.7V | 07:46:43 | 02:06:10 | 00:00:00 | |
| DL1XH-15 | 2026-09-03 08:38:27 | 52.18177 | 9.67167 | 101° | 73km/h | 4870m | -5.6m/s | -9.8°C | 48.4% | 562.5hPa | 2.7V | 07:45:36 | 02:06:04 | 00:00:00 | |
| DL1XH-west | 2026-09-03 08:38:27 | 52.18158 | 9.67318 | 103° | 78km/h | 4843m | -5.5m/s | -9.5°C | 37.6% | 564.4hPa | 2.7V | 07:45:52 | 02:06:09 | 00:00:00 | |
| DB0DAN | 2026-09-03 08:38:25 | 52.18166 | 9.67257 | 102° | 71km/h | 4854m | -5.4m/s | -9.5°C | 48.3% | 563.44hPa | 2.7V | 00:00:00 | 00:00:00 | 00:00:00 | |
| DK9SH | 2026-09-03 08:38:24 | 52.18166 | 9.67257 | 103° | 75km/h | 4854m | -5.4m/s | -9.5°C | 48.3% | 563.4hPa | 2.7V | 07:45:00 | 00:00:00 | 00:00:00 | |
| DM0DOS-11 | 2026-09-03 08:38:24 | 52.18187 | 9.67076 | 100° | 75km/h | 4887m | -5.5m/s | -9.9°C | 33.3% | 561.2hPa | 2.7V | 07:45:39 | 02:06:01 | 00:00:00 | |
| DL1XH1-15 | 2026-09-03 08:38:23 | 52.18190 | 9.67046 | 100° | 75km/h | 4893m | -5.5m/s | -10°C | 27.8% | 560.9hPa | 2.7V | 07:45:40 | 02:06:00 | 00:00:00 | |
| BIOWL1-15 | 2026-09-03 08:38:23 | 52.18173 | 9.67197 | 101° | 75km/h | 4865m | -5.3m/s | -9.7°C | 47.4% | 562.8hPa | 2.6V | 07:45:52 | 02:06:05 | 00:00:00 | |
| DF8AY | 2026-09-03 08:38:21 | 52.18180 | 9.67137 | 101° | 75km/h | 4876m | -6.1m/s | -9.8°C | 40.8% | 561.9hPa | 2.7V | 07:45:52 | 02:06:03 | 00:00:00 | |
| DD8BA-10 | 2026-09-03 08:38:21 | 52.18180 | 9.67137 | 101° | 75km/h | 4876m | -6.1m/s | -9.7°C | 35.2% | 561.9hPa | 2.7V | 00:00:00 | 00:00:00 | 00:00:00 | |
| DJ2DS-15 | 2026-09-03 08:38:20 | 52.18184 | 9.67107 | 101° | 75km/h | 4882m | -5.5m/s | -9.8°C | 34.6% | 561.6hPa | 2.7V | 00:00:00 | 02:06:02 | 00:00:00 | |
| DM0DOS-11 | 2026-09-03 08:38:19 | 52.18204 | 9.66923 | 100° | 77km/h | 4912m | -4.6m/s | -10.1°C | 47.7% | 559.3hPa | 2.7V | 07:45:44 | 02:05:56 | 00:00:00 | |
| DL1XH-west | 2026-09-03 08:38:17 | 52.18194 | 9.67015 | 101° | 75km/h | 4898m | -5m/s | -10.1°C | 30.6% | 560.4hPa | 2.6V | 07:45:52 | 02:05:59 | 00:00:00 | |
| DL1XH-15 | 2026-09-03 08:38:16 | 52.18198 | 9.66985 | 100° | 77km/h | 4903m | -4.7m/s | -10.2°C | 30.3% | 560.1hPa | 2.6V | 07:45:42 | 02:05:58 | 00:00:00 | |
| DM0DOS-11 | 2026-09-03 08:38:14 | 52.18221 | 9.66771 | 100° | 73km/h | 4935m | -4.4m/s | -10.7°C | 40.5% | 557.6hPa | 2.6V | 07:45:49 | 02:05:51 | 00:00:00 | |
| DL1XH1-15 | 2026-09-03 08:38:13 | 52.18208 | 9.66892 | 99° | 77km/h | 4916m | -4.5m/s | -10.2°C | 55.3% | 558.9hPa | 2.7V | 07:45:45 | 02:05:55 | 00:00:00 | |
| DL1XH1-15 | 2026-09-03 08:38:13 | 52.18227 | 9.66712 | 101° | 73km/h | 4943m | -4.2m/s | -10.4°C | 62.3% | 557.1hPa | 2.7V | 07:45:51 | 02:05:49 | 00:00:00 | |
| BIOWL1-15 | 2026-09-03 08:38:12 | 52.18211 | 9.66861 | 99° | 75km/h | 4921m | -4.8m/s | -10.2°C | 61.5% | 558.8hPa | 2.7V | 07:45:52 | 02:05:54 | 00:00:00 | |
| DF8AY | 2026-09-03 08:38:10 | 52.18217 | 9.66801 | 100° | 73km/h | 4930m | -4.3m/s | -10.5°C | 56% | 558hPa | 2.6V | 07:45:52 | 02:05:52 | 00:00:00 | |
| DB0DAN | 2026-09-03 08:38:10 | 52.18217 | 9.66801 | 100° | 69km/h | 4930m | -4.3m/s | -10.5°C | 54.2% | 557.98hPa | 2.6V | 00:00:00 | 00:00:00 | 00:00:00 | |
| DC6BW-12 | 2026-09-03 08:38:09 | 52.18217 | 9.66800 | 101° | 73km/h | 4930m | -4.3m/s | -10.5°C | 54.2% | 558.0hPa | 2.7V | 00:00:00 | 00:00:00 | 00:00:00 | |
| DL1XH1-15 | 2026-09-03 08:38:08 | 52.18248 | 9.66566 | 102° | 73km/h | 4964m | -4.3m/s | -9.7°C | 94.7% | 555.7hPa | 2.7V | 07:45:56 | 02:05:44 | 00:00:00 | |
| DL1XH-15 | 2026-09-03 08:38:06 | 52.18231 | 9.66683 | 101° | 73km/h | 4947m | -4.1m/s | -10°C | 74.7% | 556.8hPa | 2.7V | 07:45:52 | 02:05:48 | 00:00:00 | |
| DL1XH-15 | 2026-09-03 08:38:06 | 52.18251 | 9.66537 | 103° | 73km/h | 4969m | -4.2m/s | -9.7°C | 95.1% | 555.3hPa | 2.7V | 07:45:57 | 02:05:43 | 00:00:00 | |
| DL1XH-west | 2026-09-03 08:38:06 | 52.18231 | 9.66683 | 102° | 73km/h | 4948m | -4.1m/s | -10°C | 75.3% | 556.8hPa | 2.7V | 07:45:52 | 02:05:48 | 00:00:00 | |
| BIOWL1-15 | 2026-09-03 08:38:00 | 52.18256 | 9.66508 | 103° | 71km/h | 4973m | -4m/s | -9.7°C | 96.4% | 555hPa | 2.7V | 07:46:43 | 02:05:42 | 00:00:00 | |
| DJ2DS-15 | 2026-09-03 08:38:00 | 52.18256 | 9.66508 | 104° | 77km/h | 4973m | -4.0m/s | -9.7°C | 95.2% | 555.0hPa | 2.7V | 00:00:00 | 02:05:42 | 00:00:00 | |
| DM0DOS-11 | 2026-09-03 08:37:59 | 52.18283 | 9.66337 | 105° | 71km/h | 4997m | -3.8m/s | -9.9°C | 96.8% | 553.3hPa | 2.7V | 07:46:04 | 02:05:36 | 00:00:00 | |
| DL1XH1-15 | 2026-09-03 08:37:57 | 52.18269 | 9.66422 | 104° | 71km/h | 4985m | -4.1m/s | -9.8°C | 96.5% | 554.2hPa | 2.6V | 07:46:01 | 02:05:39 | 00:00:00 | |
| DL1XH1-15 | 2026-09-03 08:37:57 | 52.18293 | 9.66280 | 106° | 73km/h | 5005m | -4.1m/s | -10°C | 96.8% | 552.7hPa | 2.7V | 07:46:06 | 02:05:34 | 00:00:00 | |
| DL1XH-15 | 2026-09-03 08:37:56 | 52.18273 | 9.66394 | 104° | 71km/h | 4989m | -3.8m/s | -9.8°C | 96.6% | 553.9hPa | 2.6V | 07:46:02 | 02:05:38 | 00:00:00 | |
| DL1XH-15 | 2026-09-03 08:37:56 | 52.18298 | 9.66251 | 107° | 73km/h | 5009m | -4m/s | -10°C | 97% | 552.4hPa | 2.7V | 07:46:07 | 02:05:33 | 00:00:00 | |
| DL1XH-west | 2026-09-03 08:37:56 | 52.18273 | 9.66394 | 105° | 71km/h | 4989m | -3.8m/s | -9.8°C | 97.9% | 553.9hPa | 2.6V | 07:46:43 | 02:05:38 | 00:00:00 | |
| DO2JMG | 2026-09-03 08:37:55 | 52.18278 | 9.66365 | 105° | 71km/h | 4993m | -4m/s | -9.9°C | 97.9% | 553.6hPa | 2.7V | 07:46:43 | 02:05:37 | 00:00:00 | |
| DB0DAN | 2026-09-03 08:37:55 | 52.18278 | 9.66365 | 105° | 68km/h | 4993m | -4m/s | -9.9°C | 95.5% | 553.63hPa | 2.7V | 00:00:00 | 00:00:00 | 00:00:00 | |
| AM1SDL-15 | 2026-09-03 08:37:54 | 52.18282 | 9.66337 | 106° | 78km/h | 4997m | -3.8m/s | -9.8°C | 96.8% | 553.3hPa | 2.7V | 07:46:00 | 02:05:36 | 00:00:00 | |
| DD8BA-10 | 2026-09-03 08:37:51 | 52.18298 | 9.66251 | 108° | 80km/h | 5009m | -3.9m/s | -9.9°C | 97.0% | 552.4hPa | 2.7V | 00:00:00 | 00:00:00 | 00:00:00 | |
| DM0DOS-11 | 2026-09-03 08:37:50 | 52.18337 | 9.66069 | 109° | 80km/h | 5033m | -3.9m/s | -10.2°C | 97% | 550.8hPa | 2.7V | 07:46:13 | 02:05:27 | 00:00:00 | |
| BIOWL1-15 | 2026-09-03 08:37:50 | 52.18304 | 9.66222 | 109° | 75km/h | 5013m | -4m/s | -10°C | 98% | 552.3hPa | 2.6V | 07:46:43 | 02:05:32 | 00:00:00 | |
| DF8AY | 2026-09-03 08:37:49 | 52.18310 | 9.66193 | 109° | 77km/h | 5017m | -4m/s | -10.1°C | 97.9% | 551.8hPa | 2.6V | 07:46:43 | 02:05:31 | 00:00:00 | |
| DB0NH | 2026-09-03 08:37:49 | 52.18310 | 9.66192 | 110° | 86km/h | 5017m | -3.9m/s | -10.0°C | 96.7% | 551.8hPa | 2.7V | 00:00:00 | 02:05:31 | 00:00:00 | |
| DL1XH1-15 | 2026-09-03 08:37:47 | 52.18357 | 9.65972 | 107° | 84km/h | 5044m | -3.8m/s | -10.2°C | 97.6% | 550hPa | 2.7V | 07:46:16 | 02:05:24 | 00:00:00 | |
| DL1XH-west | 2026-09-03 08:37:45 | 52.18337 | 9.66069 | 110° | 80km/h | 5033m | -3.9m/s | -10.2°C | 98.4% | 550.8hPa | 2.7V | 07:46:43 | 02:05:27 | 00:00:00 | |
| DO2JMG | 2026-09-03 08:37:44 | 52.18344 | 9.66037 | 109° | 82km/h | 5037m | -3.8m/s | -10.2°C | 98.4% | 550.5hPa | 2.6V | 07:46:43 | 02:05:26 | 00:00:00 | |
| SONCRA | 2026-09-03 08:37:43 | 52.18358 | 9.65972 | 107° | 84km/h | 5044m | -3.8m/s | -10.3°C | 96.6% | 550.0hPa | 2.7V | 00:00:00 | 00:00:00 | 00:00:00 | |
| EDDB2-12 | 2026-09-03 08:37:42 | 52.18358 | 9.65972 | 107° | 84km/h | 5044m | -3.8m/s | -10.3°C | 96.6% | 550.0hPa | 2.7V | 00:00:00 | 00:00:00 | 00:00:00 | |
| BIOWL9-15 | 2026-09-03 08:37:41 | 52.18382 | 9.65837 | 105° | 86km/h | 5059m | -3.8m/s | -10.3°C | 94.8% | 548.9hPa | 2.7V | 00:00:00 | 00:00:00 | 00:00:00 | |
| DM0DOS-11 | 2026-09-03 08:37:40 | 52.18400 | 9.65734 | 105° | 86km/h | 5071m | -3.7m/s | -10.4°C | 95.2% | 548hPa | 2.7V | 07:46:23 | 02:05:17 | 00:00:00 | |
| DB0DAN | 2026-09-03 08:37:40 | 52.18370 | 9.65905 | 106° | 82km/h | 5052m | -3.7m/s | -10.3°C | 94.9% | 549.38hPa | 2.7V | 00:00:00 | 00:00:00 | 00:00:00 | |
| DF8AY | 2026-09-03 08:37:38 | 52.18382 | 9.65837 | 106° | 86km/h | 5059m | -3.8m/s | -10.3°C | 97.2% | 548.9hPa | 2.7V | 07:46:43 | 02:05:20 | 00:00:00 | |
| DL1XH1-15 | 2026-09-03 08:37:37 | 52.18417 | 9.65631 | 105° | 86km/h | 5082m | -3.7m/s | -10.4°C | 94.8% | 547.3hPa | 2.7V | 07:46:26 | 02:05:14 | 00:00:00 | |
| DL1XH-15 | 2026-09-03 08:37:36 | 52.18423 | 9.65596 | 105° | 88km/h | 5086m | -3.6m/s | -10.5°C | 94.6% | 547hPa | 2.6V | 07:46:27 | 02:05:13 | 00:00:00 | |
| DL1XH-west | 2026-09-03 08:37:34 | 52.18406 | 9.65700 | 105° | 86km/h | 5074m | -3.7m/s | -10.4°C | 96.5% | 547.9hPa | 2.7V | 07:46:43 | 02:05:16 | 00:00:00 | |
| DL1LOL-11 | 2026-09-03 08:37:32 | 52.18411 | 9.65665 | 106° | 88km/h | 5078m | -3.8m/s | -10.4°C | 94.0% | 547.5hPa | 2.7V | 07:46:00 | 00:00:00 | 00:00:00 | |
| D01LWL | 2026-09-03 08:37:31 | 52.18428 | 9.65562 | 104° | 86km/h | 5089m | -3.6m/s | -10.5°C | 93.3% | 546.8hPa | 2.7V | 00:00:00 | 00:00:00 | 00:00:00 | |
| DM0DOS-11 | 2026-09-03 08:37:30 | 52.18455 | 9.65388 | 103° | 86km/h | 5107m | -3.2m/s | -10.6°C | 94.3% | 545.5hPa | 2.7V | 07:46:33 | 02:05:07 | 00:00:00 | |
| DF8AY | 2026-09-03 08:37:28 | 52.18439 | 9.65493 | 104° | 88km/h | 5096m | -3.7m/s | -10.6°C | 95.3% | 546.1hPa | 2.7V | 07:46:43 | 02:05:10 | 00:00:00 | |
| DL1XH-15 | 2026-09-03 08:37:26 | 52.18477 | 9.65250 | 105° | 88km/h | 5120m | -3.2m/s | -10.7°C | 94.3% | 544.6hPa | 2.7V | 07:46:37 | 02:05:03 | 00:00:00 | |
| BIOWL1-15 | 2026-09-03 08:37:26 | 52.18450 | 9.65423 | 104° | 88km/h | 5103m | -3.6m/s | -10.6°C | 95.1% | 545.7hPa | 2.7V | 07:46:43 | 02:05:08 | 00:00:00 | |
| DB0DAN | 2026-09-03 08:37:25 | 52.18455 | 9.65389 | 103° | 82km/h | 5107m | -3.2m/s | -10.6°C | 93.3% | 545.55hPa | 2.7V | 00:00:00 | 00:00:00 | 00:00:00 | |
| DL1XH-west | 2026-09-03 08:37:23 | 52.18465 | 9.65319 | 105° | 86km/h | 5113m | -3.1m/s | -10.7°C | 95.3% | 545.1hPa | 2.6V | 07:46:43 | 02:05:05 | 00:00:00 | |
| DL4XJ-10 | 2026-09-03 08:37:23 | 52.18465 | 9.65319 | 105° | 84km/h | 5113m | -3.1m/s | -9.4°C | 0% | 0hPa | 2.7V | 00:00:00 | 00:00:00 | 00:00:00 | |
| DK9SH | 2026-09-03 08:37:22 | 52.18465 | 9.65319 | 106° | 86km/h | 5113m | -3.1m/s | -10.7°C | 93.5% | 545.1hPa | 2.7V | 00:00:00 | 00:00:00 | 00:00:00 | |
| DD8BA-10 | 2026-09-03 08:37:21 | 52.18477 | 9.65250 | 106° | 88km/h | 5120m | -3.2m/s | -10.6°C | 94.3% | 544.5hPa | 2.7V | 00:00:00 | 00:00:00 | 00:00:00 | |
| DM0DOS-11 | 2026-09-03 08:37:20 | 52.18509 | 9.65042 | 101° | 88km/h | 5140m | -3.2m/s | -10.8°C | 93.9% | 543.2hPa | 2.7V | 07:46:43 | 02:04:57 | 00:00:00 | |
| DF8AY | 2026-09-03 08:37:18 | 52.18494 | 9.65147 | 105° | 88km/h | 5130m | -3.2m/s | -10.8°C | 95.1% | 543.7hPa | 2.6V | 07:46:43 | 02:05:00 | 00:00:00 | |
| DL1XH1-15 | 2026-09-03 08:37:17 | 52.18522 | 9.64937 | 99° | 86km/h | 5149m | -3.4m/s | -10.9°C | 93.5% | 542.6hPa | 2.7V | 07:46:46 | 02:04:54 | 00:00:00 | |
| BIOWL1-15 | 2026-09-03 08:37:17 | 52.18509 | 9.65042 | 102° | 88km/h | 5140m | -3.2m/s | -10.8°C | 94.6% | 543.2hPa | 2.7V | 07:46:43 | 02:04:57 | 00:00:00 | |
| DL1XH-west | 2026-09-03 08:37:13 | 52.18518 | 9.64972 | 101° | 86km/h | 5146m | -3.3m/s | -10.8°C | 94.5% | 542.7hPa | 2.7V | 07:47:34 | 02:04:55 | 00:00:00 | |
| DO2JMG | 2026-09-03 08:37:12 | 52.18522 | 9.64937 | 100° | 86km/h | 5149m | -3.4m/s | -10.9°C | 94.2% | 542.6hPa | 2.7V | 07:47:34 | 02:04:54 | 00:00:00 | |
| DB0DAN | 2026-09-03 08:37:10 | 52.18529 | 9.64869 | 99° | 80km/h | 5156m | -3.4m/s | -10.9°C | 92.9% | 542.07hPa | 2.6V | 00:00:00 | 00:00:00 | 00:00:00 | |
| BIOWL1-15 | 2026-09-03 08:37:09 | 52.18543 | 9.64704 | 98° | 77km/h | 5172m | -3m/s | -11°C | 95.3% | 540.9hPa | 2.6V | 07:48:25 | 02:04:47 | 00:00:00 | |
| DF8AY | 2026-09-03 08:37:07 | 52.18538 | 9.64768 | 98° | 80km/h | 5166m | -3.1m/s | -11°C | 94.8% | 541.5hPa | 2.7V | 07:47:34 | 02:04:49 | 00:00:00 | |
| DL1XH1-15 | 2026-09-03 08:37:07 | 52.18551 | 9.64612 | 99° | 73km/h | 5181m | -2.8m/s | -11.1°C | 95.2% | 540.3hPa | 2.7V | 07:46:56 | 02:04:44 | 00:00:00 | |
| DL1XH-west | 2026-09-03 08:37:02 | 52.18551 | 9.64612 | 100° | 73km/h | 5181m | -2.8m/s | -11.1°C | 95.6% | 540.3hPa | 2.7V | 07:47:34 | 02:04:44 | 00:00:00 | |
| AA1-15 | 2026-09-03 08:37:01 | 52.18554 | 9.64583 | 101° | 71km/h | 5183m | -2.9m/s | -11.1°C | 95.3% | 540hPa | 2.7V | 07:47:34 | 02:04:43 | 00:00:00 | |
| D01LWL | 2026-09-03 08:37:00 | 52.18561 | 9.64525 | 100° | 71km/h | 5190m | -3.0m/s | -11.2°C | 94.0% | 539.8hPa | 2.6V | 00:00:00 | 00:00:00 | 00:00:00 | |
| DL1XH1-15 | 2026-09-03 08:36:57 | 52.18582 | 9.64319 | 98° | 73km/h | 5211m | -3m/s | -11.2°C | 93.9% | 538.3hPa | 2.6V | 07:47:06 | 02:04:34 | 00:00:00 | |
| DF8AY | 2026-09-03 08:36:56 | 52.18571 | 9.64438 | 100° | 73km/h | 5198m | -2.9m/s | -11.2°C | 95.8% | 539hPa | 2.7V | 07:47:34 | 02:04:38 | 00:00:00 | |
| DB0DAN | 2026-09-03 08:36:55 | 52.18574 | 9.64408 | 99° | 69km/h | 5201m | -3m/s | -11.2°C | 94.1% | 538.84hPa | 2.7V | 00:00:00 | 00:00:00 | 00:00:00 | |
| BIOWL1-15 | 2026-09-03 08:36:54 | 52.18577 | 9.64378 | 99° | 73km/h | 5204m | -3.1m/s | -11.2°C | 94.9% | 538.7hPa | 2.7V | 07:48:25 | 02:04:36 | 00:00:00 | |
| DL1XH-west | 2026-09-03 08:36:52 | 52.18582 | 9.64319 | 99° | 73km/h | 5211m | -3m/s | -11.2°C | 94.4% | 538.3hPa | 2.6V | 07:47:34 | 02:04:34 | 00:00:00 | |
| DO2JMG | 2026-09-03 08:36:51 | 52.18585 | 9.64290 | 100° | 73km/h | 5213m | -2.9m/s | -11.3°C | 94.1% | 538hPa | 2.6V | 07:47:34 | 02:04:33 | 00:00:00 | |
| DD8BA-10 | 2026-09-03 08:36:51 | 52.18585 | 9.64290 | 100° | 71km/h | 5214m | -2.8m/s | -11.2°C | 93.6% | 537.9hPa | 2.6V | 00:00:00 | 00:00:00 | 00:00:00 | |
| DM0DOS-11 | 2026-09-03 08:36:50 | 52.18607 | 9.64116 | 104° | 71km/h | 5231m | -2.9m/s | -11.3°C | 93.6% | 536.7hPa | 2.6V | 07:47:13 | 02:04:27 | 00:00:00 | |
| AA1-15 | 2026-09-03 08:36:50 | 52.18588 | 9.64260 | 100° | 71km/h | 5216m | -3m/s | -11.3°C | 93.7% | 537.8hPa | 2.7V | 07:47:34 | 02:04:32 | 00:00:00 | |
| DB0NH | 2026-09-03 08:36:49 | 52.18591 | 9.64231 | 101° | 73km/h | 5219m | -3.1m/s | -11.2°C | 93.2% | 537.5hPa | 2.7V | 00:00:00 | 02:04:31 | 00:00:00 | |
| DL1XH1-15 | 2026-09-03 08:36:47 | 52.18621 | 9.64031 | 106° | 73km/h | 5240m | -2.9m/s | -11.4°C | 93.7% | 536.2hPa | 2.7V | 07:47:16 | 02:04:24 | 00:00:00 | |
| DL1XH-15 | 2026-09-03 08:36:46 | 52.18626 | 9.64002 | 106° | 73km/h | 5243m | -2.9m/s | -11.4°C | 93.7% | 536.1hPa | 2.7V | 07:47:17 | 02:04:23 | 00:00:00 | |
| DF8AY | 2026-09-03 08:36:46 | 52.18602 | 9.64145 | 104° | 71km/h | 5228m | -2.8m/s | -11.3°C | 94.2% | 537.1hPa | 2.6V | 07:47:34 | 02:04:28 | 00:00:00 | |
| DL3AQ-11 | 2026-09-03 08:36:45 | 52.18607 | 9.64116 | 104° | 71km/h | 5231m | -2.9m/s | -11.3°C | 92.6% | 536.7hPa | 2.7V | 00:00:00 | 00:00:00 | 00:00:00 | |
| BIOWL1-15 | 2026-09-03 08:36:43 | 52.18616 | 9.64059 | 106° | 71km/h | 5237m | -3m/s | -11.4°C | 94.3% | 536.5hPa | 2.7V | 07:48:25 | 02:04:25 | 00:00:00 | |
| DL1XH-west | 2026-09-03 08:36:42 | 52.18621 | 9.64031 | 106° | 73km/h | 5240m | -2.9m/s | -11.4°C | 94.2% | 536.2hPa | 2.7V | 07:47:34 | 02:04:24 | 00:00:00 | |
| DD8BA-10 | 2026-09-03 08:36:41 | 52.18626 | 9.64002 | 107° | 75km/h | 5243m | -2.9m/s | -11.4°C | 93.7% | 536.0hPa | 2.7V | 00:00:00 | 00:00:00 | 00:00:00 | |
| DM0DOS-11 | 2026-09-03 08:36:40 | 52.18661 | 9.63825 | 108° | 75km/h | 5260m | -2.7m/s | -11.5°C | 93.3% | 534.8hPa | 2.7V | 07:47:23 | 02:04:17 | 00:00:00 | |
| DB0DAN | 2026-09-03 08:36:40 | 52.18632 | 9.63973 | 107° | 71km/h | 5246m | -3m/s | -11.4°C | 92.6% | 535.76hPa | 2.7V | 00:00:00 | 00:00:00 | 00:00:00 | |
| DO2JMG | 2026-09-03 08:36:40 | 52.18632 | 9.63973 | 107° | 75km/h | 5246m | -3m/s | -11.4°C | 94.2% | 535.8hPa | 2.7V | 07:47:34 | 02:04:22 | 00:00:00 | |
| DJ2DS-15 | 2026-09-03 08:36:40 | 52.18632 | 9.63973 | 108° | 73km/h | 5246m | -2.9m/s | -11.4°C | 93.7% | 535.7hPa | 2.7V | 00:00:00 | 02:04:22 | 00:00:00 | |
| DL1CLM-18 | 2026-09-03 08:36:39 | 52.18637 | 9.63944 | 109° | 75km/h | 5249m | -3.0m/s | -11.4°C | 92.4% | 535.6hPa | 2.7V | 07:47:00 | 00:00:00 | 00:00:00 | |
| S3001 | 2026-09-03 08:36:38 | 52.18649 | 9.63885 | 107° | 75km/h | 5255m | -2.9m/s | -11.5°C | 92.3% | 535.1hPa | 2.7V | 00:00:00 | 00:00:00 | 00:00:00 | |
| DJ2DS-15 | 2026-09-03 08:36:37 | 52.18649 | 9.63885 | 107° | 75km/h | 5255m | -2.9m/s | -11.5°C | 92.3% | 535.1hPa | 2.7V | 00:00:00 | 00:00:00 | 00:00:00 | |
| DL1XH1-15 | 2026-09-03 08:36:37 | 52.18678 | 9.63737 | 107° | 73km/h | 5268m | -2.6m/s | -11.5°C | 93.4% | 534.1hPa | 2.6V | 07:47:26 | 02:04:14 | 00:00:00 | |
| DL1XH-15 | 2026-09-03 08:36:36 | 52.18684 | 9.63708 | 106° | 73km/h | 5271m | -2.8m/s | -11.6°C | 93% | 533.9hPa | 2.7V | 07:47:27 | 02:04:13 | 00:00:00 | |
| DF8AY | 2026-09-03 08:36:36 | 52.18655 | 9.63855 | 108° | 77km/h | 5257m | -2.7m/s | -11.5°C | 93.7% | 535hPa | 2.7V | 07:47:34 | 02:04:18 | 00:00:00 | |
| BIOWL1-15 | 2026-09-03 08:36:35 | 52.18673 | 9.63766 | 107° | 75km/h | 5266m | -2.7m/s | -11.5°C | 93.6% | 534.5hPa | 2.6V | 07:48:25 | 02:04:15 | 00:00:00 | |
| DL1XH-west | 2026-09-03 08:36:32 | 52.18678 | 9.63737 | 108° | 73km/h | 5268m | -2.6m/s | -11.5°C | 93.7% | 534.2hPa | 2.6V | 07:47:34 | 02:04:14 | 00:00:00 | |
| DD8BA-10 | 2026-09-03 08:36:31 | 52.18684 | 9.63708 | 107° | 73km/h | 5271m | -2.7m/s | -11.5°C | 93.0% | 533.9hPa | 2.7V | 00:00:00 | 00:00:00 | 00:00:00 | |
| DM0DOS-11 | 2026-09-03 08:36:30 | 52.18715 | 9.63537 | 107° | 73km/h | 5287m | -2.9m/s | -11.7°C | 93% | 532.9hPa | 2.7V | 07:47:33 | 02:04:07 | 00:00:00 | |
| DO2JMG | 2026-09-03 08:36:29 | 52.18694 | 9.63651 | 106° | 71km/h | 5276m | -2.6m/s | -11.6°C | 93.9% | 533.7hPa | 2.7V | 07:47:34 | 02:04:11 | 00:00:00 | |
| D01LWL | 2026-09-03 08:36:29 | 52.18699 | 9.63622 | 106° | 71km/h | 5279m | -2.8m/s | -11.7°C | 92.7% | 533.5hPa | 2.7V | 00:00:00 | 00:00:00 | 00:00:00 | |
| DL1XH1-15 | 2026-09-03 08:36:27 | 52.18732 | 9.63451 | 108° | 73km/h | 5296m | -3m/s | -11.8°C | 92.6% | 532.3hPa | 2.7V | 07:47:36 | 02:04:04 | 00:00:00 | |
| DL1XH-15 | 2026-09-03 08:36:26 | 52.18738 | 9.63422 | 108° | 75km/h | 5299m | -2.7m/s | -11.8°C | 92.6% | 532.1hPa | 2.7V | 07:47:37 | 02:04:03 | 00:00:00 | |
| DF8AY | 2026-09-03 08:36:25 | 52.18715 | 9.63537 | 108° | 73km/h | 5287m | -2.9m/s | -11.7°C | 93.3% | 532.9hPa | 2.7V | 07:47:34 | 02:04:07 | 00:00:00 | |
| DB0DAN | 2026-09-03 08:36:25 | 52.18715 | 9.63537 | 108° | 69km/h | 5287m | -2.9m/s | -11.7°C | 91.9% | 532.94hPa | 2.7V | 00:00:00 | 00:00:00 | 00:00:00 | |
| DL1XH-west | 2026-09-03 08:36:22 | 52.18732 | 9.63451 | 109° | 73km/h | 5296m | -3m/s | -11.8°C | 92.8% | 532.3hPa | 2.7V | 07:48:25 | 02:04:04 | 00:00:00 | |
| DD8BA-10 | 2026-09-03 08:36:21 | 52.18738 | 9.63422 | 109° | 82km/h | 5299m | -2.6m/s | -11.7°C | 92.6% | 532.1hPa | 2.7V | 07:47:00 | 00:00:00 | 00:00:00 | |
| DM0DOS-11 | 2026-09-03 08:36:20 | 52.18776 | 9.63234 | 105° | 86km/h | 5314m | -2.6m/s | -11.9°C | 92.5% | 531hPa | 2.7V | 07:47:43 | 02:03:57 | 00:00:00 | |
| AA1-15 | 2026-09-03 08:36:19 | 52.18751 | 9.63363 | 110° | 78km/h | 5304m | -2.7m/s | -11.8°C | 92.8% | 531.8hPa | 2.6V | 07:48:25 | 02:04:01 | 00:00:00 | |
| DO2JMG | 2026-09-03 08:36:18 | 52.18758 | 9.63332 | 109° | 80km/h | 5307m | -2.5m/s | -11.8°C | 92.6% | 531.6hPa | 2.7V | 07:48:25 | 02:04:00 | 00:00:00 | |
| DL3AQ-11 | 2026-09-03 08:36:17 | 52.18770 | 9.63267 | 106° | 84km/h | 5312m | -2.6m/s | -11.9°C | 91.1% | 531.2hPa | 2.7V | 00:00:00 | 00:00:00 | 00:00:00 | |
| DL1XH-15 | 2026-09-03 08:36:16 | 52.18797 | 9.63096 | 102° | 86km/h | 5325m | -2.6m/s | -11.9°C | 92.5% | 530.3hPa | 2.7V | 07:47:47 | 02:03:53 | 00:00:00 | |
| DF8AY | 2026-09-03 08:36:15 | 52.18776 | 9.63234 | 105° | 86km/h | 5314m | -2.6m/s | -11.9°C | 93.2% | 531hPa | 2.7V | 07:48:25 | 02:03:57 | 00:00:00 | |
| DL1XH-west | 2026-09-03 08:36:12 | 52.18792 | 9.63130 | 103° | 86km/h | 5322m | -2.4m/s | -11.9°C | 93.7% | 530.5hPa | 2.7V | 07:48:25 | 02:03:54 | 00:00:00 | |
| DD8BA-10 | 2026-09-03 08:36:11 | 52.18797 | 9.63096 | 103° | 86km/h | 5325m | -2.6m/s | -11.9°C | 92.5% | 530.2hPa | 2.7V | 00:00:00 | 00:00:00 | 00:00:00 | |
| DM0DOS-11 | 2026-09-03 08:36:10 | 52.18823 | 9.62887 | 99° | 86km/h | 5340m | -2.6m/s | -12.1°C | 92% | 529.2hPa | 2.7V | 07:47:53 | 02:03:47 | 00:00:00 | |
| DB0DAN | 2026-09-03 08:36:10 | 52.18802 | 9.63061 | 102° | 82km/h | 5327m | -2.7m/s | -12°C | 91.3% | 530.21hPa | 2.7V | 00:00:00 | 00:00:00 | 00:00:00 | |
| AA1-15 | 2026-09-03 08:36:09 | 52.18806 | 9.63026 | 102° | 86km/h | 5330m | -2.6m/s | -12°C | 93.6% | 530hPa | 2.7V | 07:48:25 | 02:03:51 | 00:00:00 | |
| DO2JMG | 2026-09-03 08:36:08 | 52.18811 | 9.62991 | 102° | 86km/h | 5333m | -2.6m/s | -12°C | 93.5% | 529.9hPa | 2.6V | 07:48:25 | 02:03:50 | 00:00:00 | |
| BIOWL9-15 | 2026-09-03 08:36:08 | 52.18815 | 9.62957 | 101° | 86km/h | 5335m | -2.6m/s | -12.0°C | 90.9% | 529.6hPa | 2.6V | 00:00:00 | 00:00:00 | 00:00:00 | |
| S3001 | 2026-09-03 08:36:07 | 52.18815 | 9.62957 | 101° | 86km/h | 5335m | -2.6m/s | -12.0°C | 90.9% | 529.6hPa | 2.6V | 00:00:00 | 00:00:00 | 00:00:00 | |
| DL1XH-15 | 2026-09-03 08:36:06 | 52.18836 | 9.62750 | 97° | 82km/h | 5351m | -2.5m/s | -12.1°C | 91.7% | 528.5hPa | 2.6V | 07:47:57 | 02:03:43 | 00:00:00 | |
| DF8AY | 2026-09-03 08:36:04 | 52.18827 | 9.62852 | 100° | 86km/h | 5343m | -2.7m/s | -12.1°C | 92.7% | 529.1hPa | 2.7V | 07:48:25 | 02:03:46 | 00:00:00 | |
| DL1XH-west | 2026-09-03 08:36:02 | 52.18833 | 9.62784 | 98° | 84km/h | 5348m | -2.5m/s | -12.1°C | 92.7% | 528.7hPa | 2.6V | 07:48:25 | 02:03:44 | 00:00:00 | |
| AA1-15 | 2026-09-03 08:35:58 | 52.18843 | 9.62653 | 96° | 77km/h | 5358m | -2.4m/s | -12.1°C | 91.8% | 528hPa | 2.7V | 07:48:25 | 02:03:40 | 00:00:00 | |
| DO2JMG | 2026-09-03 08:35:57 | 52.18845 | 9.62622 | 96° | 75km/h | 5361m | -2.6m/s | -12.2°C | 91.6% | 527.9hPa | 2.7V | 07:48:25 | 02:03:39 | 00:00:00 | |
| DB0DAN | 2026-09-03 08:35:55 | 52.18850 | 9.62561 | 97° | 69km/h | 5366m | -2.5m/s | -12.2°C | 90.5% | 527.49hPa | 2.6V | 00:00:00 | 00:00:00 | 00:00:00 | |
| DF8AY | 2026-09-03 08:35:53 | 52.18855 | 9.62502 | 99° | 71km/h | 5371m | -2.3m/s | -12.2°C | 91.5% | 527.3hPa | 2.7V | 07:48:25 | 02:03:35 | 00:00:00 | |
| DL1XH-west | 2026-09-03 08:35:51 | 52.18861 | 9.62444 | 101° | 69km/h | 5375m | -2.5m/s | -12.2°C | 91.9% | 526.9hPa | 2.7V | 07:48:25 | 02:03:33 | 00:00:00 | |
| DD8BA-10 | 2026-09-03 08:35:51 | 52.18861 | 9.62444 | 101° | 69km/h | 5375m | -2.4m/s | -12.2°C | 91.6% | 526.8hPa | 2.7V | 00:00:00 | 00:00:00 | 00:00:00 | |
| DM0DOS-11 | 2026-09-03 08:35:50 | 52.18884 | 9.62278 | 104° | 69km/h | 5389m | -2.4m/s | -12.3°C | 91.7% | 526hPa | 2.7V | 07:48:13 | 02:03:27 | 00:00:00 | |
| BIOWL1-15 | 2026-09-03 08:35:48 | 52.18872 | 9.62361 | 104° | 69km/h | 5382m | -2.2m/s | -12.3°C | 92.1% | 526.4hPa | 2.6V | 07:48:25 | 02:03:30 | 00:00:00 | |
| DL1XH1-15 | 2026-09-03 08:35:47 | 52.18898 | 9.62196 | 105° | 69km/h | 5396m | -2.5m/s | -12.4°C | 92.5% | 525.5hPa | 2.6V | 07:48:16 | 02:03:24 | 00:00:00 | |
| DO2JMG | 2026-09-03 08:35:47 | 52.18876 | 9.62333 | 104° | 69km/h | 5385m | -2.5m/s | -12.3°C | 92.2% | 526.3hPa | 2.7V | 07:48:25 | 02:03:29 | 00:00:00 | |
| DF8AY | 2026-09-03 08:35:43 | 52.18893 | 9.62223 | 105° | 69km/h | 5394m | -2.5m/s | -12.4°C | 92.6% | 525.6hPa | 2.6V | 07:48:25 | 02:03:25 | 00:00:00 | |
| DF8AY-15 | 2026-09-03 08:35:43 | 52.18893 | 9.62223 | 105° | 77km/h | 5394m | -2.5m/s | -12.3°C | 92.3% | 525.5hPa | 2.7V | 00:00:00 | 02:03:25 | 00:00:00 | |
| DD1CC8 | 2026-09-03 08:35:42 | 52.18898 | 9.62196 | 105° | 68km/h | 5396m | -2.6m/s | -12.4°C | 91.4% | 525.5hPa | 2.7V | 00:00:00 | 00:00:00 | 00:00:00 | |
| DD8BA-10 | 2026-09-03 08:35:41 | 52.18902 | 9.62168 | 106° | 75km/h | 5399m | -2.5m/s | -12.4°C | 92.3% | 525.2hPa | 2.7V | 00:00:00 | 00:00:00 | 00:00:00 | |
| DM0DOS-11 | 2026-09-03 08:35:40 | 52.18936 | 9.61995 | 108° | 77km/h | 5413m | -2.3m/s | -12.5°C | 92.3% | 524.3hPa | 2.7V | 07:48:23 | 02:03:17 | 00:00:00 | |
| DL1XH-west | 2026-09-03 08:35:40 | 52.18907 | 9.62140 | 106° | 71km/h | 5402m | -2.2m/s | -12.4°C | 92.5% | 525.1hPa | 2.7V | 07:48:25 | 02:03:22 | 00:00:00 | |
| DB0DAN | 2026-09-03 08:35:40 | 52.18907 | 9.62140 | 106° | 68km/h | 5401m | -2.2m/s | -12.4°C | 91.4% | 525.08hPa | 2.7V | 00:00:00 | 00:00:00 | 00:00:00 | |
| DJ2DS-15 | 2026-09-03 08:35:40 | 52.18907 | 9.62140 | 106° | 78km/h | 5402m | -2.1m/s | -12.4°C | 92.5% | 525.0hPa | 2.7V | 00:00:00 | 02:03:22 | 00:00:00 | |
| DK9SH | 2026-09-03 08:35:39 | 52.18907 | 9.62140 | 107° | 71km/h | 5402m | -2.2m/s | -12.4°C | 91.4% | 525.1hPa | 2.7V | 07:48:00 | 00:00:00 | 00:00:00 | |
| EDDB2-12 | 2026-09-03 08:35:38 | 52.18918 | 9.62084 | 107° | 73km/h | 5406m | -2.3m/s | -12.5°C | 91.2% | 524.7hPa | 2.7V | 00:00:00 | 00:00:00 | 00:00:00 | |
| DL1XH1-15 | 2026-09-03 08:35:37 | 52.18955 | 9.61905 | 109° | 77km/h | 5420m | -2.4m/s | -12.6°C | 92.5% | 523.8hPa | 2.7V | 07:48:26 | 02:03:14 | 00:00:00 | |
| BIOWL1-15 | 2026-09-03 08:35:37 | 52.18924 | 9.62055 | 109° | 75km/h | 5408m | -2.3m/s | -12.5°C | 92.3% | 524.6hPa | 2.6V | 07:48:25 | 02:03:19 | 00:00:00 | |
| DL1XH-15 | 2026-09-03 08:35:36 | 52.18962 | 9.61875 | 109° | 77km/h | 5422m | -2.4m/s | -12.6°C | 92.3% | 523.7hPa | 2.6V | 07:48:27 | 02:03:13 | 00:00:00 | |
| DO2JMG | 2026-09-03 08:35:36 | 52.18930 | 9.62025 | 109° | 77km/h | 5411m | -2.3m/s | -12.5°C | 92.2% | 524.4hPa | 2.6V | 07:48:25 | 02:03:18 | 00:00:00 | |
| DF8AY | 2026-09-03 08:35:32 | 52.18955 | 9.61905 | 109° | 77km/h | 5420m | -2.4m/s | -12.6°C | 92.2% | 523.8hPa | 2.7V | 07:49:16 | 02:03:14 | 00:00:00 | |
| DD8BA-10 | 2026-09-03 08:35:31 | 52.18962 | 9.61875 | 110° | 82km/h | 5422m | -2.3m/s | -12.5°C | 92.3% | 523.7hPa | 2.6V | 00:00:00 | 00:00:00 | 00:00:00 | |
| DM0DOS-11 | 2026-09-03 08:35:30 | 52.18998 | 9.61683 | 104° | 84km/h | 5436m | -2.4m/s | -12.7°C | 92.4% | 522.7hPa | 2.6V | 07:48:33 | 02:03:07 | 00:00:00 | |
| DL1XH-west | 2026-09-03 08:35:29 | 52.18975 | 9.61814 | 109° | 80km/h | 5427m | -2.3m/s | -12.6°C | 92.3% | 523.3hPa | 2.7V | 07:49:16 | 02:03:11 | 00:00:00 | |
| DL1XH-15 | 2026-09-03 08:35:26 | 52.19018 | 9.61547 | 102° | 84km/h | 5445m | -2.2m/s | -12.7°C | 92% | 522hPa | 2.7V | 07:48:37 | 02:03:03 | 00:00:00 | |
| BIOWL1-15 | 2026-09-03 08:35:26 | 52.18993 | 9.61717 | 105° | 84km/h | 5434m | -2.1m/s | -12.6°C | 92.3% | 522.8hPa | 2.7V | 07:49:16 | 02:03:08 | 00:00:00 | |
| DB0DAN | 2026-09-03 08:35:25 | 52.18998 | 9.61683 | 104° | 80km/h | 5436m | -2.4m/s | -12.7°C | 91.2% | 522.73hPa | 2.6V | 00:00:00 | 00:00:00 | 00:00:00 | |
| DO2JMG | 2026-09-03 08:35:25 | 52.18998 | 9.61683 | 104° | 84km/h | 5436m | -2.4m/s | -12.7°C | 92.6% | 522.7hPa | 2.6V | 07:49:16 | 02:03:07 | 00:00:00 | |
| DF8AY | 2026-09-03 08:35:22 | 52.19013 | 9.61581 | 103° | 86km/h | 5443m | -2.4m/s | -12.7°C | 93% | 522.4hPa | 2.7V | 07:49:16 | 02:03:04 | 00:00:00 | |
| DD8BA-10 | 2026-09-03 08:35:21 | 52.19018 | 9.61547 | 103° | 86km/h | 5445m | -2.1m/s | -12.7°C | 92.0% | 522.0hPa | 2.7V | 00:00:00 | 00:00:00 | 00:00:00 | |
| DM0DOS-11 | 2026-09-03 08:35:20 | 52.19049 | 9.61342 | 105° | 86km/h | 5459m | -2.1m/s | -12.8°C | 91.6% | 521.2hPa | 2.7V | 07:48:43 | 02:02:57 | 00:00:00 | |
| DL1XH-west | 2026-09-03 08:35:18 | 52.19033 | 9.61445 | 104° | 86km/h | 5452m | -2.2m/s | -12.8°C | 92.6% | 521.6hPa | 2.6V | 07:49:16 | 02:03:00 | 00:00:00 | |
| DL1XH1-15 | 2026-09-03 08:35:17 | 52.19066 | 9.61240 | 103° | 86km/h | 5466m | -2.2m/s | -12.8°C | 91.2% | 520.8hPa | 2.6V | 07:48:46 | 02:02:54 | 00:00:00 | |
| AA1-15 | 2026-09-03 08:35:15 | 52.19049 | 9.61342 | 105° | 86km/h | 5459m | -2.1m/s | -12.8°C | 92.1% | 521.2hPa | 2.7V | 07:49:16 | 02:02:57 | 00:00:00 | |
| DO2JMG | 2026-09-03 08:35:14 | 52.19055 | 9.61308 | 105° | 86km/h | 5461m | -2.4m/s | -12.8°C | 91.8% | 521.1hPa | 2.7V | 07:49:16 | 02:02:56 | 00:00:00 | |
| DF8AY | 2026-09-03 08:35:12 | 52.19066 | 9.61240 | 104° | 86km/h | 5466m | -2.3m/s | -12.8°C | 91.1% | 520.8hPa | 2.6V | 07:49:16 | 02:02:54 | 00:00:00 | |
| DB0DAN | 2026-09-03 08:35:10 | 52.19075 | 9.61170 | 102° | 82km/h | 5470m | -2.3m/s | -12.9°C | 90.3% | 520.34hPa | 2.7V | 00:00:00 | 00:00:00 | 00:00:00 | |
| DL3AQ-11 | 2026-09-03 08:35:09 | 52.19080 | 9.61135 | 100° | 86km/h | 5472m | -2.2m/s | -12.9°C | 90.5% | 520.2hPa | 2.7V | 00:00:00 | 00:00:00 | 00:00:00 | |
| DL1XH1-15 | 2026-09-03 08:35:07 | 52.19101 | 9.60902 | 96° | 77km/h | 5488m | -2.3m/s | -13°C | 91% | 519.2hPa | 2.7V | 07:48:56 | 02:02:44 | 00:00:00 | |
| DL1XH-west | 2026-09-03 08:35:07 | 52.19087 | 9.61066 | 99° | 84km/h | 5477m | -2.1m/s | -12.9°C | 91.1% | 519.9hPa | 2.6V | 07:49:16 | 02:02:49 | 00:00:00 | |
| AA1-15 | 2026-09-03 08:35:05 | 52.19093 | 9.60999 | 98° | 82km/h | 5481m | -2.3m/s | -12.9°C | 91.2% | 519.7hPa | 2.7V | 07:49:16 | 02:02:47 | 00:00:00 | |
| BIOWL1-15 | 2026-09-03 08:35:05 | 52.19096 | 9.60966 | 98° | 80km/h | 5483m | -2.2m/s | -12.9°C | 91% | 519.4hPa | 2.7V | 07:49:16 | 02:02:46 | 00:00:00 | |
| DO2JMG | 2026-09-03 08:35:03 | 52.19098 | 9.60934 | 97° | 78km/h | 5485m | -2.4m/s | -13°C | 91.2% | 519.3hPa | 2.7V | 07:49:16 | 02:02:45 | 00:00:00 | |
| DF8AY | 2026-09-03 08:35:01 | 52.19103 | 9.60871 | 97° | 75km/h | 5490m | -2.3m/s | -13°C | 90.9% | 519hPa | 2.6V | 07:49:16 | 02:02:43 | 00:00:00 | |
| DJ2DS-15 | 2026-09-03 08:35:00 | 52.19105 | 9.60840 | 97° | 78km/h | 5493m | -2.3m/s | -12.9°C | 90.9% | 518.8hPa | 2.7V | 00:00:00 | 02:02:42 | 00:00:00 | |
| DK9SH | 2026-09-03 08:34:58 | 52.19107 | 9.60809 | 98° | 77km/h | 5495m | -2.3m/s | -13.0°C | 0% | 0hPa | 2.7V | 07:49:00 | 00:00:00 | 00:00:00 | |
| DL1XH1-15 | 2026-09-03 08:34:57 | 52.19125 | 9.60583 | 96° | 78km/h | 5511m | -2.4m/s | -13.1°C | 90.3% | 517.6hPa | 2.7V | 07:49:06 | 02:02:34 | 00:00:00 | |
| DL1XH-west | 2026-09-03 08:34:56 | 52.19115 | 9.60713 | 97° | 80km/h | 5502m | -2.2m/s | -13°C | 90.6% | 518.2hPa | 2.7V | 07:49:16 | 02:02:38 | 00:00:00 | |
| AA1-15 | 2026-09-03 08:34:55 | 52.19117 | 9.60680 | 97° | 80km/h | 5504m | -2.4m/s | -13°C | 90.5% | 518.1hPa | 2.6V | 07:49:16 | 02:02:37 | 00:00:00 | |
| DB0DAN | 2026-09-03 08:34:55 | 52.19117 | 9.60680 | 97° | 77km/h | 5504m | -2.4m/s | -13°C | 89.4% | 518.12hPa | 2.6V | 00:00:00 | 00:00:00 | 00:00:00 | |
| BIOWL1-15 | 2026-09-03 08:34:54 | 52.19120 | 9.60647 | 97° | 80km/h | 5506m | -2.4m/s | -13.1°C | 90.4% | 518hPa | 2.6V | 07:49:16 | 02:02:36 | 00:00:00 | |
| DO2JMG | 2026-09-03 08:34:53 | 52.19122 | 9.60615 | 97° | 78km/h | 5509m | -2.4m/s | -13.1°C | 90.2% | 517.7hPa | 2.7V | 07:49:16 | 02:02:35 | 00:00:00 | |
| BUE01 | 2026-09-03 08:34:51 | 52.19127 | 9.60551 | 97° | 77km/h | 5513m | -2.3m/s | -13.1°C | 89.0% | 517.4hPa | 2.7V | 00:00:00 | 00:00:00 | 00:00:00 | |
| DM0DOS-11 | 2026-09-03 08:34:50 | 52.19141 | 9.60358 | 96° | 82km/h | 5527m | -2.6m/s | -13.2°C | 89.9% | 516.5hPa | 2.7V | 07:49:13 | 02:02:27 | 00:00:00 | |
| DF8AY | 2026-09-03 08:34:50 | 52.19129 | 9.60519 | 97° | 77km/h | 5516m | -2.4m/s | -13.1°C | 90% | 517.2hPa | 2.7V | 07:49:16 | 02:02:32 | 00:00:00 | |
| DD8BA-10 | 2026-09-03 08:34:50 | 52.19129 | 9.60519 | 97° | 80km/h | 5516m | -2.4m/s | -13.0°C | 90.1% | 517.2hPa | 2.6V | 00:00:00 | 00:00:00 | 00:00:00 | |
| DL1XH1-15 | 2026-09-03 08:34:47 | 52.19149 | 9.60258 | 96° | 80km/h | 5535m | -2.5m/s | -13.2°C | 90% | 516hPa | 2.6V | 07:49:16 | 02:02:24 | 00:00:00 | |
| DL1XH-15 | 2026-09-03 08:34:46 | 52.19151 | 9.60226 | 96° | 78km/h | 5537m | -2.3m/s | -13.2°C | 89.9% | 515.8hPa | 2.7V | 07:49:17 | 02:02:23 | 00:00:00 | |
| DL1XH-west | 2026-09-03 08:34:46 | 52.19139 | 9.60391 | 97° | 80km/h | 5525m | -2.2m/s | -13.2°C | 89.8% | 516.8hPa | 2.7V | 07:49:16 | 02:02:28 | 00:00:00 | |
| DL3AQ-11 | 2026-09-03 08:34:45 | 52.19141 | 9.60358 | 96° | 80km/h | 5527m | -2.6m/s | -13.2°C | 88.7% | 516.5hPa | 2.7V | 00:00:00 | 00:00:00 | 00:00:00 | |
| AA1-15 | 2026-09-03 08:34:44 | 52.19144 | 9.60325 | 97° | 82km/h | 5530m | -2.5m/s | -13.2°C | 89.9% | 516.3hPa | 2.7V | 07:49:16 | 02:02:26 | 00:00:00 | |
| DO2JMG | 2026-09-03 08:34:43 | 52.19146 | 9.60291 | 97° | 82km/h | 5532m | -2.4m/s | -13.2°C | 89.8% | 516.2hPa | 2.6V | 07:49:16 | 02:02:25 | 00:00:00 | |
| BIOWL1-15 | 2026-09-03 08:34:41 | 52.19151 | 9.60226 | 97° | 78km/h | 5537m | -2.3m/s | -13.2°C | 89.7% | 515.9hPa | 2.7V | 07:50:07 | 02:02:23 | 00:00:00 | |
| DF8AY | 2026-09-03 08:34:40 | 52.19154 | 9.60193 | 97° | 78km/h | 5539m | -2.3m/s | -13.2°C | 89.7% | 515.6hPa | 2.7V | 07:50:07 | 02:02:22 | 00:00:00 | |
| DB0DAN | 2026-09-03 08:34:40 | 52.19154 | 9.60193 | 97° | 75km/h | 5539m | -2.3m/s | -13.2°C | 88.8% | 515.61hPa | 2.7V | 00:00:00 | 00:00:00 | 00:00:00 | |
| DJ2DS-15 | 2026-09-03 08:34:40 | 52.19153 | 9.60193 | 97° | 73km/h | 5540m | -2.2m/s | -13.2°C | 89.9% | 515.6hPa | 2.6V | 00:00:00 | 02:02:22 | 00:00:00 | |
| DL3OBA | 2026-09-03 08:34:37 | 52.19158 | 9.60131 | 99° | 75km/h | 5545m | -2.3m/s | -13.3°C | 88.8% | 515.4hPa | 2.6V | 07:50:00 | 00:00:00 | 00:00:00 | |
| DL1XH1-15 | 2026-09-03 08:34:37 | 52.19173 | 9.59952 | 98° | 73km/h | 5559m | -2.4m/s | -13.3°C | 90.2% | 514.3hPa | 2.7V | 07:49:26 | 02:02:14 | 00:00:00 | |
| DL1XH-15 | 2026-09-03 08:34:36 | 52.19176 | 9.59923 | 99° | 71km/h | 5561m | -2.5m/s | -13.3°C | 90.3% | 514.2hPa | 2.6V | 07:49:27 | 02:02:13 | 00:00:00 | |
| DL1XH-west | 2026-09-03 08:34:36 | 52.19163 | 9.60071 | 98° | 73km/h | 5549m | -2.3m/s | -13.3°C | 89.9% | 515hPa | 2.6V | 07:50:07 | 02:02:18 | 00:00:00 | |
| AA1-15 | 2026-09-03 08:34:33 | 52.19171 | 9.59981 | 98° | 73km/h | 5556m | -2.3m/s | -13.3°C | 90.1% | 514.5hPa | 2.7V | 07:50:07 | 02:02:15 | 00:00:00 | |
| DO2JMG | 2026-09-03 08:34:32 | 52.19173 | 9.59952 | 99° | 73km/h | 5559m | -2.4m/s | -13.3°C | 90.3% | 514.3hPa | 2.7V | 07:50:07 | 02:02:14 | 00:00:00 | |
| BIOWL1-15 | 2026-09-03 08:34:31 | 52.19176 | 9.59923 | 100° | 71km/h | 5561m | -2.5m/s | -13.4°C | 90.6% | 514.2hPa | 2.6V | 07:50:07 | 02:02:13 | 00:00:00 | |
| DM0DOS-11 | 2026-09-03 08:34:30 | 52.19200 | 9.59753 | 104° | 71km/h | 5576m | -2.8m/s | -13.4°C | 89.9% | 513.3hPa | 2.6V | 07:49:33 | 02:02:07 | 00:00:00 | |
| DF8AY | 2026-09-03 08:34:29 | 52.19183 | 9.59865 | 102° | 69km/h | 5566m | -2.5m/s | -13.4°C | 91% | 514hPa | 2.7V | 07:50:07 | 02:02:11 | 00:00:00 | |
| DL1XH-15 | 2026-09-03 08:34:26 | 52.19222 | 9.59636 | 108° | 80km/h | 5586m | -2.4m/s | -13.5°C | 90.3% | 512.5hPa | 2.7V | 07:49:37 | 02:02:03 | 00:00:00 | |
| DL1XH-west | 2026-09-03 08:34:25 | 52.19200 | 9.59753 | 105° | 71km/h | 5576m | -2.8m/s | -13.5°C | 91.1% | 513.3hPa | 2.6V | 07:50:07 | 02:02:07 | 00:00:00 | |
| DB0DAN | 2026-09-03 08:34:25 | 52.19200 | 9.59753 | 105° | 68km/h | 5576m | -2.8m/s | -13.5°C | 88.6% | 513.26hPa | 2.6V | 00:00:00 | 00:00:00 | 00:00:00 | |
| BIOWL1-15 | 2026-09-03 08:34:24 | 52.19228 | 9.59605 | 109° | 82km/h | 5589m | -2.6m/s | -13.5°C | 90.8% | 512.3hPa | 2.6V | 07:50:07 | 02:02:02 | 00:00:00 | |
| DO2JMG | 2026-09-03 08:34:22 | 52.19216 | 9.59667 | 108° | 77km/h | 5584m | -2.6m/s | -13.5°C | 90.7% | 512.8hPa | 2.7V | 07:50:07 | 02:02:04 | 00:00:00 | |
| DM0DOS-11 | 2026-09-03 08:34:20 | 52.19259 | 9.59438 | 105° | 88km/h | 5602m | -2.6m/s | -13.6°C | 89.9% | 511.4hPa | 2.7V | 07:49:43 | 02:01:57 | 00:00:00 | |
| DF8AY | 2026-09-03 08:34:19 | 52.19235 | 9.59572 | 107° | 84km/h | 5591m | -2.8m/s | -13.5°C | 90.5% | 512.2hPa | 2.6V | 07:50:07 | 02:02:01 | 00:00:00 | |
| DD8BA-10 | 2026-09-03 08:34:19 | 52.19235 | 9.59572 | 108° | 86km/h | 5591m | -2.8m/s | -13.5°C | 90.0% | 512.2hPa | 2.7V | 00:00:00 | 00:00:00 | 00:00:00 | |
| DL1XH1-15 | 2026-09-03 08:34:17 | 52.19275 | 9.59333 | 102° | 88km/h | 5610m | -2.5m/s | -13.6°C | 89.6% | 511hPa | 2.7V | 07:49:46 | 02:01:54 | 00:00:00 | |
| DL1XH-west | 2026-09-03 08:34:15 | 52.19259 | 9.59438 | 105° | 88km/h | 5602m | -2.6m/s | -13.6°C | 89.6% | 511.4hPa | 2.7V | 07:50:07 | 02:01:57 | 00:00:00 | |
| AA1-15 | 2026-09-03 08:34:12 | 52.19275 | 9.59333 | 102° | 88km/h | 5610m | -2.6m/s | -13.6°C | 89.2% | 511hPa | 2.7V | 07:50:07 | 02:01:54 | 00:00:00 | |
| DM0DOS-11 | 2026-09-03 08:34:10 | 52.19297 | 9.59089 | 95° | 82km/h | 5628m | -2.4m/s | -13.7°C | 89.3% | 509.8hPa | 2.7V | 07:49:53 | 02:01:47 | 00:00:00 | |
| DF8AY | 2026-09-03 08:34:10 | 52.19287 | 9.59226 | 99° | 86km/h | 5617m | -2.6m/s | -13.6°C | 88.8% | 510.4hPa | 2.7V | 07:50:07 | 02:01:51 | 00:00:00 | |
| DB0DAN | 2026-09-03 08:34:10 | 52.19283 | 9.59262 | 100° | 84km/h | 5615m | -2.6m/s | -13.6°C | 87.9% | 510.65hPa | 2.7V | 00:00:00 | 00:00:00 | 00:00:00 | |
| BIOWL1-15 | 2026-09-03 08:34:09 | 52.19293 | 9.59156 | 97° | 86km/h | 5623m | -2.7m/s | -13.7°C | 88.9% | 510.2hPa | 2.6V | 07:50:07 | 02:01:49 | 00:00:00 | |
| DD8BA-10 | 2026-09-03 08:34:09 | 52.19287 | 9.59226 | 99° | 80km/h | 5617m | -2.6m/s | -13.6°C | 89.1% | 510.4hPa | 2.7V | 00:00:00 | 00:00:00 | 00:00:00 | |
| DL1XH1-15 | 2026-09-03 08:34:07 | 52.19303 | 9.58991 | 95° | 77km/h | 5636m | -2.7m/s | -13.8°C | 89.1% | 509.2hPa | 2.6V | 07:49:56 | 02:01:44 | 00:00:00 | |
| DL1XH-15 | 2026-09-03 08:34:06 | 52.19305 | 9.58960 | 96° | 75km/h | 5639m | -2.6m/s | -13.8°C | 89.2% | 509.1hPa | 2.6V | 07:49:57 | 02:01:43 | 00:00:00 | |
| DL1XH-west | 2026-09-03 08:34:05 | 52.19297 | 9.59089 | 96° | 82km/h | 5628m | -2.4m/s | -13.7°C | 89.1% | 509.8hPa | 2.7V | 07:50:07 | 02:01:47 | 00:00:00 | |
| AA1-15 | 2026-09-03 08:34:02 | 52.19303 | 9.58991 | 96° | 77km/h | 5636m | -2.7m/s | -13.8°C | 89.5% | 509.2hPa | 2.6V | 07:50:07 | 02:01:44 | 00:00:00 | |
| DM0DOS-11 | 2026-09-03 08:34:00 | 52.19325 | 9.58787 | 103° | 71km/h | 5654m | -2.5m/s | -13.9°C | 89.3% | 508hPa | 2.6V | 07:50:03 | 02:01:37 | 00:00:00 | |
| DO2JMG | 2026-09-03 08:33:59 | 52.19310 | 9.58900 | 99° | 71km/h | 5644m | -2.5m/s | -13.8°C | 89.7% | 508.7hPa | 2.7V | 07:50:07 | 02:01:41 | 00:00:00 | |
| DF8AY | 2026-09-03 08:33:58 | 52.19313 | 9.58872 | 102° | 71km/h | 5646m | -2.5m/s | -13.9°C | 89.8% | 508.6hPa | 2.7V | 07:50:07 | 02:01:40 | 00:00:00 | |
| DL1XH1-15 | 2026-09-03 08:33:57 | 52.19338 | 9.58702 | 104° | 71km/h | 5663m | -2.8m/s | -14°C | 88.6% | 507.4hPa | 2.7V | 07:50:06 | 02:01:34 | 00:00:00 | |
| DL1XH-15 | 2026-09-03 08:33:56 | 52.19343 | 9.58673 | 105° | 71km/h | 5666m | -2.8m/s | -14°C | 88.4% | 507.3hPa | 2.6V | 07:50:07 | 02:01:33 | 00:00:00 | |
| BIOWL1-15 | 2026-09-03 08:33:56 | 52.19321 | 9.58815 | 103° | 71km/h | 5652m | -2.7m/s | -13.9°C | 89.8% | 508.3hPa | 2.6V | 07:50:07 | 02:01:38 | 00:00:00 | |
| DB0DAN | 2026-09-03 08:33:55 | 52.19325 | 9.58787 | 103° | 68km/h | 5654m | -2.5m/s | -13.9°C | 88.1% | 508.03hPa | 2.6V | 00:00:00 | 00:00:00 | 00:00:00 | |
| DL1XH-west | 2026-09-03 08:33:55 | 52.19325 | 9.58787 | 103° | 71km/h | 5654m | -2.5m/s | -13.9°C | 89.8% | 508hPa | 2.6V | 07:50:07 | 02:01:37 | 00:00:00 | |
| AA1-15 | 2026-09-03 08:33:52 | 52.19338 | 9.58702 | 105° | 71km/h | 5663m | -2.8m/s | -14°C | 89.4% | 507.4hPa | 2.7V | 07:50:07 | 02:01:34 | 00:00:00 | |
| DO9LL-15 | 2026-09-03 08:33:51 | 52.19343 | 9.58673 | 106° | 80km/h | 5666m | -2.7m/s | -13.9°C | 88.4% | 507.3hPa | 2.6V | 00:00:00 | 02:01:33 | 00:00:00 | |
| DM0DOS-11 | 2026-09-03 08:33:50 | 52.19376 | 9.58494 | 107° | 80km/h | 5682m | -2.8m/s | -14.1°C | 88.4% | 506.2hPa | 2.6V | 07:50:13 | 02:01:27 | 00:00:00 | |
| DO2JMG | 2026-09-03 08:33:48 | 52.19359 | 9.58586 | 107° | 77km/h | 5674m | -2.7m/s | -14°C | 88.9% | 506.8hPa | 2.7V | 07:53:31 | 02:01:30 | 00:00:00 | |
| DL1XH1-15 | 2026-09-03 08:33:47 | 52.19394 | 9.58396 | 105° | 84km/h | 5691m | -2.9m/s | -14.1°C | 87.2% | 505.5hPa | 2.7V | 07:50:16 | 02:01:24 | 00:00:00 | |
| DL1XH-15 | 2026-09-03 08:33:46 | 52.19400 | 9.58363 | 105° | 84km/h | 5693m | -2.8m/s | -14.1°C | 86.9% | 505.4hPa | 2.7V | 07:50:17 | 02:01:23 | 00:00:00 | |
| DL1XH-west | 2026-09-03 08:33:44 | 52.19382 | 9.58462 | 106° | 82km/h | 5685m | -2.8m/s | -14.1°C | 88.8% | 506hPa | 2.6V | 07:50:58 | 02:01:26 | 00:00:00 | |
| AA1-15 | 2026-09-03 08:33:41 | 52.19400 | 9.58363 | 105° | 84km/h | 5694m | -2.8m/s | -14.1°C | 88% | 505.4hPa | 2.7V | 07:50:58 | 02:01:23 | 00:00:00 | |
| DM0DOS-11 | 2026-09-03 08:33:40 | 52.19431 | 9.58158 | 101° | 88km/h | 5711m | -2.8m/s | -14.2°C | 87.2% | 504.3hPa | 2.7V | 07:50:23 | 02:01:17 | 00:00:00 | |
| DB0DAN | 2026-09-03 08:33:40 | 52.19405 | 9.58329 | 105° | 80km/h | 5696m | -2.9m/s | -14.1°C | 85.6% | 505.22hPa | 2.7V | 00:00:00 | 00:00:00 | 00:00:00 | |
| DO2JMG | 2026-09-03 08:33:38 | 52.19416 | 9.58261 | 104° | 86km/h | 5702m | -2.9m/s | -14.2°C | 87.8% | 504.8hPa | 2.6V | 07:53:31 | 02:01:20 | 00:00:00 | |
| DL1XH1-15 | 2026-09-03 08:33:37 | 52.19443 | 9.58052 | 99° | 86km/h | 5719m | -2.8m/s | -14.3°C | 86.8% | 503.7hPa | 2.6V | 07:50:26 | 02:01:14 | 00:00:00 | |
| DJ2DS-15 | 2026-09-03 08:33:37 | 52.19421 | 9.58227 | 103° | 86km/h | 5705m | -2.9m/s | -14.2°C | 85.8% | 504.7hPa | 2.7V | 00:00:00 | 00:00:00 | 00:00:00 | |
| DL1XH-15 | 2026-09-03 08:33:36 | 52.19447 | 9.58017 | 98° | 86km/h | 5722m | -2.9m/s | -14.3°C | 86.8% | 503.5hPa | 2.7V | 07:50:27 | 02:01:13 | 00:00:00 | |
| DL1XH-west | 2026-09-03 08:33:34 | 52.19435 | 9.58122 | 101° | 88km/h | 5714m | -2.9m/s | -14.2°C | 87.6% | 504hPa | 2.7V | 07:50:58 | 02:01:16 | 00:00:00 | |
| AA1-15 | 2026-09-03 08:33:31 | 52.19446 | 9.58017 | 98° | 86km/h | 5722m | -2.9m/s | -14.3°C | 87.1% | 503.5hPa | 2.7V | 07:50:58 | 02:01:13 | 00:00:00 | |
| DO2JMG | 2026-09-03 08:33:28 | 52.19455 | 9.57911 | 97° | 86km/h | 5731m | -3m/s | -14.3°C | 86.6% | 503hPa | 2.6V | 07:53:31 | 02:01:10 | 00:00:00 | |
| DL1XH-15 | 2026-09-03 08:33:26 | 52.19475 | 9.57665 | 98° | 88km/h | 5752m | -3.1m/s | -14.4°C | 84.8% | 501.5hPa | 2.6V | 07:50:37 | 02:01:03 | 00:00:00 | |
| DB0DAN | 2026-09-03 08:33:25 | 52.19463 | 9.57806 | 97° | 82km/h | 5740m | -3.2m/s | -14.4°C | 85.2% | 502.21hPa | 2.7V | 00:00:00 | 00:00:00 | 00:00:00 | |
| BIOWL1-15 | 2026-09-03 08:33:24 | 52.19466 | 9.57771 | 97° | 86km/h | 5743m | -3m/s | -14.4°C | 86.4% | 502hPa | 2.7V | 07:50:58 | 02:01:06 | 00:00:00 | |
| AA1-15 | 2026-09-03 08:33:21 | 52.19475 | 9.57665 | 99° | 88km/h | 5752m | -3.2m/s | -14.4°C | 85.3% | 501.5hPa | 2.6V | 07:50:58 | 02:01:03 | 00:00:00 | |
| DF8AY | 2026-09-03 08:33:18 | 52.19486 | 9.57558 | 100° | 89km/h | 5762m | -3.3m/s | -14.5°C | 84.5% | 500.8hPa | 2.7V | 07:50:58 | 02:01:00 | 00:00:00 | |
| DL1XH-15 | 2026-09-03 08:33:16 | 52.19507 | 9.57307 | 95° | 86km/h | 5784m | -3.2m/s | -14.6°C | 83.8% | 499.5hPa | 2.6V | 07:50:47 | 02:00:53 | 00:00:00 | |
| DL1XH-west | 2026-09-03 08:33:13 | 52.19502 | 9.57378 | 97° | 88km/h | 5778m | -3.3m/s | -14.6°C | 85.7% | 499.8hPa | 2.7V | 07:50:58 | 02:00:55 | 00:00:00 | |
| DD1CC3-15 | 2026-09-03 08:33:12 | 52.19502 | 9.57378 | 98° | 88km/h | 5778m | -3.3m/s | -14.6°C | 82.7% | 499.8hPa | 2.6V | 07:50:00 | 00:00:00 | 00:00:00 | |
| DM0DOS-11 | 2026-09-03 08:33:10 | 52.19516 | 9.57102 | 93° | 82km/h | 5803m | -3m/s | -14.7°C | 84% | 498.1hPa | 2.6V | 07:50:53 | 02:00:47 | 00:00:00 | |
| AA1-15 | 2026-09-03 08:33:10 | 52.19509 | 9.57272 | 95° | 84km/h | 5788m | -3.2m/s | -14.6°C | 85.7% | 499.1hPa | 2.6V | 07:50:58 | 02:00:52 | 00:00:00 | |
| DB0DAN | 2026-09-03 08:33:10 | 52.19509 | 9.57272 | 95° | 80km/h | 5788m | -3.2m/s | -14.6°C | 82.5% | 499.13hPa | 2.6V | 00:00:00 | 00:00:00 | 00:00:00 | |
| DD8BA-10 | 2026-09-03 08:33:09 | 52.19511 | 9.57238 | 95° | 84km/h | 5791m | -2.9m/s | -14.6°C | 83.8% | 498.9hPa | 2.7V | 00:00:00 | 00:00:00 | 00:00:00 | |
| DO2LYB-13 | 2026-09-03 08:33:08 | 52.19511 | 9.57238 | 96° | 84km/h | 5791m | -3.0m/s | -14.6°C | 82.6% | 498.9hPa | 2.7V | 00:00:00 | 00:00:00 | 00:00:00 | |
| DL1XH1-15 | 2026-09-03 08:33:07 | 52.19521 | 9.56998 | 93° | 86km/h | 5813m | -3.2m/s | -14.8°C | 83.9% | 497.5hPa | 2.7V | 07:50:56 | 02:00:44 | 00:00:00 | |
| DF8AY | 2026-09-03 08:33:07 | 52.19514 | 9.57170 | 94° | 82km/h | 5797m | -3m/s | -14.7°C | 85.2% | 498.6hPa | 2.7V | 07:50:58 | 02:00:49 | 00:00:00 | |
| DL1XH-west | 2026-09-03 08:33:02 | 52.19521 | 9.56998 | 94° | 86km/h | 5813m | -3.2m/s | -14.8°C | 84.1% | 497.5hPa | 2.7V | 07:50:58 | 02:00:44 | 00:00:00 | |
| DJ2DS-15 | 2026-09-03 08:33:01 | 52.19523 | 9.56928 | 93° | 84km/h | 5819m | -3.1m/s | -14.8°C | 82.6% | 497.1hPa | 2.7V | 00:00:00 | 00:00:00 | 00:00:00 | |
| DM0DOS-11 | 2026-09-03 08:33:00 | 52.19529 | 9.56760 | 93° | 77km/h | 5834m | -3m/s | -14.9°C | 84.6% | 496.1hPa | 2.7V | 07:51:03 | 02:00:37 | 00:00:00 | |
| AA1-15 | 2026-09-03 08:33:00 | 52.19523 | 9.56928 | 94° | 86km/h | 5819m | -3.1m/s | -14.8°C | 83.8% | 497.1hPa | 2.6V | 07:50:58 | 02:00:42 | 00:00:00 | |
| DJ2DS-15 | 2026-09-03 08:33:00 | 52.19523 | 9.56928 | 94° | 75km/h | 5819m | -3.1m/s | -14.7°C | 83.9% | 497.1hPa | 2.7V | 00:00:00 | 02:00:42 | 00:00:00 | |
| DD8BA-10 | 2026-09-03 08:32:59 | 52.19525 | 9.56893 | 94° | 77km/h | 5822m | -2.8m/s | -14.8°C | 84.3% | 496.9hPa | 2.7V | 00:00:00 | 00:00:00 | 00:00:00 | |
| DL1XH1-15 | 2026-09-03 08:32:57 | 52.19533 | 9.56667 | 95° | 73km/h | 5843m | -3m/s | -15°C | 84.8% | 495.5hPa | 2.7V | 07:51:06 | 02:00:34 | 00:00:00 | |
| DF8AY | 2026-09-03 08:32:57 | 52.19527 | 9.56825 | 93° | 80km/h | 5828m | -3.3m/s | -14.9°C | 84.5% | 496.6hPa | 2.7V | 07:51:49 | 02:00:39 | 00:00:00 | |
| DL3AQ-11 | 2026-09-03 08:32:57 | 52.19528 | 9.56792 | 92° | 78km/h | 5831m | -3.0m/s | -14.9°C | 83.1% | 496.2hPa | 2.7V | 00:00:00 | 00:00:00 | 00:00:00 | |
| DB0DAN | 2026-09-03 08:32:55 | 52.19529 | 9.56760 | 93° | 73km/h | 5834m | -3m/s | -14.9°C | 83.3% | 496.09hPa | 2.7V | 00:00:00 | 00:00:00 | 00:00:00 | |
| DL1XH-west | 2026-09-03 08:32:52 | 52.19533 | 9.56667 | 96° | 73km/h | 5843m | -3m/s | -15°C | 85.7% | 495.5hPa | 2.7V | 07:51:49 | 02:00:34 | 00:00:00 | |
| DB0ND-19 | 2026-09-03 08:32:51 | 52.19537 | 9.56607 | 96° | 71km/h | 5849m | -3.1m/s | -15.0°C | 82.8% | 495.1hPa | 2.7V | 00:00:00 | 00:00:00 | 00:00:00 | |
| DM0DOS-11 | 2026-09-03 08:32:50 | 52.19548 | 9.56460 | 98° | 71km/h | 5864m | -3.2m/s | -15.1°C | 83.8% | 494.1hPa | 2.7V | 07:51:13 | 02:00:27 | 00:00:00 | |
| AA1-15 | 2026-09-03 08:32:49 | 52.19539 | 9.56577 | 97° | 73km/h | 5852m | -3m/s | -15°C | 85.3% | 494.9hPa | 2.6V | 07:51:49 | 02:00:31 | 00:00:00 | |
| DB0NH | 2026-09-03 08:32:49 | 52.19539 | 9.56577 | 98° | 80km/h | 5852m | -3.0m/s | -15.0°C | 83.7% | 494.9hPa | 2.6V | 00:00:00 | 02:00:31 | 00:00:00 | |
| DL1XH1-15 | 2026-09-03 08:32:47 | 52.19559 | 9.56372 | 102° | 73km/h | 5874m | -3.1m/s | -15.2°C | 83.7% | 493.4hPa | 2.6V | 07:51:16 | 02:00:24 | 00:00:00 | |
| DF8AY | 2026-09-03 08:32:46 | 52.19546 | 9.56489 | 97° | 71km/h | 5861m | -3.2m/s | -15.1°C | 86.2% | 494.3hPa | 2.7V | 07:51:49 | 02:00:28 | 00:00:00 | |
| DL3AQ-11 | 2026-09-03 08:32:46 | 52.19548 | 9.56460 | 98° | 71km/h | 5864m | -3.3m/s | -15.1°C | 82.5% | 494.1hPa | 2.6V | 00:00:00 | 00:00:00 | 00:00:00 | |
| DL1XH-west | 2026-09-03 08:32:42 | 52.19559 | 9.56372 | 103° | 73km/h | 5874m | -3.1m/s | -15.2°C | 86% | 493.4hPa | 2.6V | 07:51:49 | 02:00:24 | 00:00:00 | |
| BIOWL1-15 | 2026-09-03 08:32:41 | 52.19563 | 9.56342 | 103° | 75km/h | 5877m | -3.1m/s | -15.2°C | 85.7% | 493.3hPa | 2.7V | 07:51:49 | 02:00:23 | 00:00:00 | |
| DB0DAN | 2026-09-03 08:32:40 | 52.19567 | 9.56312 | 104° | 73km/h | 5880m | -3.2m/s | -15.3°C | 82% | 493.09hPa | 2.7V | 00:00:00 | 00:00:00 | 00:00:00 | |
| AA1-15 | 2026-09-03 08:32:39 | 52.19572 | 9.56282 | 104° | 77km/h | 5883m | -3.3m/s | -15.3°C | 84.9% | 492.8hPa | 2.7V | 07:51:49 | 02:00:21 | 00:00:00 | |
| DF8AY | 2026-09-03 08:32:36 | 52.19587 | 9.56187 | 105° | 82km/h | 5893m | -3.3m/s | -15.3°C | 84.7% | 492.2hPa | 2.7V | 07:51:49 | 02:00:18 | 00:00:00 | |
| BIOWL1-15 | 2026-09-03 08:32:31 | 52.19612 | 9.56021 | 104° | 84km/h | 5910m | -3.3m/s | -15.5°C | 84.5% | 491hPa | 2.6V | 07:51:49 | 02:00:13 | 00:00:00 | |
| AA1-15 | 2026-09-03 08:32:28 | 52.19628 | 9.55919 | 104° | 86km/h | 5920m | -3.3m/s | -15.5°C | 84.6% | 490.5hPa | 2.7V | 07:51:49 | 02:00:10 | 00:00:00 | |
| DL1XH1-15 | 2026-09-03 08:32:27 | 52.19658 | 9.55707 | 100° | 89km/h | 5941m | -3.5m/s | -15.6°C | 82.3% | 489.1hPa | 2.6V | 07:51:36 | 02:00:04 | 00:00:00 | |
| DF8AY | 2026-09-03 08:32:26 | 52.19638 | 9.55850 | 104° | 88km/h | 5927m | -3.3m/s | -15.6°C | 84.5% | 490hPa | 2.7V | 07:51:49 | 02:00:08 | 00:00:00 | |
| DB0DAN | 2026-09-03 08:32:25 | 52.19643 | 9.55814 | 103° | 84km/h | 5930m | -3.5m/s | -15.6°C | 82.2% | 489.82hPa | 2.7V | 00:00:00 | 00:00:00 | 00:00:00 | |
| BIOWL1-15 | 2026-09-03 08:32:24 | 52.19665 | 9.55634 | 98° | 89km/h | 5948m | -3.2m/s | -15.7°C | 82.7% | 488.7hPa | 2.7V | 07:51:49 | 02:00:02 | 00:00:00 | |
| DL1XH-west | 2026-09-03 08:32:21 | 52.19662 | 9.55670 | 100° | 89km/h | 5945m | -3.4m/s | -15.6°C | 82.6% | 488.9hPa | 2.6V | 07:51:49 | 02:00:03 | 00:00:00 | |
| GOEST3-10 | 2026-09-03 08:32:21 | 52.19662 | 9.55670 | 100° | 88km/h | 5945m | -3.3m/s | -15.6°C | 82.4% | 488.9hPa | 2.6V | 00:00:00 | 02:00:03 | 00:00:00 | |
| DM0DOS-11 | 2026-09-03 08:32:20 | 52.19676 | 9.55457 | 93° | 84km/h | 5965m | -3.5m/s | -15.8°C | 83.9% | 487.6hPa | 2.6V | 07:51:43 | 01:59:57 | 00:00:00 | |
| DO9LL-15 | 2026-09-03 08:32:20 | 52.19665 | 9.55634 | 99° | 82km/h | 5948m | -3.1m/s | -15.6°C | 82.6% | 488.7hPa | 2.7V | 07:51:00 | 02:00:02 | 00:00:00 | |
| DB0UT-7 | 2026-09-03 08:32:19 | 52.19668 | 9.55597 | 98° | 82km/h | 5951m | -3.2m/s | -15.6°C | 82.7% | 488.4hPa | 2.7V | 00:00:00 | 00:00:00 | 00:00:00 | |
| DL1XH1-15 | 2026-09-03 08:32:17 | 52.19680 | 9.55354 | 93° | 82km/h | 5976m | -3.8m/s | -16°C | 84.6% | 486.9hPa | 2.7V | 07:51:46 | 01:59:54 | 00:00:00 | |
| AA1-15 | 2026-09-03 08:32:17 | 52.19673 | 9.55527 | 95° | 84km/h | 5958m | -3.7m/s | -15.8°C | 83.3% | 488.1hPa | 2.7V | 07:51:49 | 01:59:59 | 00:00:00 | |
| DF8AY | 2026-09-03 08:32:16 | 52.19675 | 9.55492 | 94° | 84km/h | 5962m | -3.5m/s | -15.9°C | 83.4% | 487.7hPa | 2.7V | 07:51:49 | 01:59:58 | 00:00:00 | |
| BIOWL1-15 | 2026-09-03 08:32:12 | 52.19684 | 9.55288 | 95° | 78km/h | 5983m | -3.3m/s | -16.1°C | 85.6% | 486.3hPa | 2.7V | 07:51:49 | 01:59:52 | 00:00:00 | |
| DL1XH-west | 2026-09-03 08:32:11 | 52.19682 | 9.55321 | 94° | 80km/h | 5980m | -3.7m/s | -16°C | 85% | 486.6hPa | 2.7V | 07:51:49 | 01:59:53 | 00:00:00 | |
| DB0DAN | 2026-09-03 08:32:10 | 52.19684 | 9.55288 | 95° | 75km/h | 5983m | -3.3m/s | -16.1°C | 84.3% | 486.3hPa | 2.7V | 00:00:00 | 00:00:00 | 00:00:00 | |
| DD8BA-10 | 2026-09-03 08:32:09 | 52.19685 | 9.55256 | 97° | 75km/h | 5987m | -3.5m/s | -16.1°C | 85.6% | 486.1hPa | 2.7V | 00:00:00 | 00:00:00 | 00:00:00 | |
| DO3DL | 2026-09-03 08:32:08 | 52.19685 | 9.55256 | 97° | 77km/h | 5987m | -3.6m/s | -16.1°C | 84.2% | 486.2hPa | 2.7V | 07:51:00 | 00:00:00 | 00:00:00 | |
| DL1XH1-15 | 2026-09-03 08:32:07 | 52.19711 | 9.55048 | 105° | 75km/h | 6015m | -4.4m/s | -16.4°C | 86% | 484.3hPa | 2.7V | 07:51:56 | 01:59:44 | 00:00:00 | |
| DL1XH-15 | 2026-09-03 08:32:06 | 52.19716 | 9.55018 | 106° | 75km/h | 6019m | -4.3m/s | -16.4°C | 86.1% | 484.1hPa | 2.7V | 07:51:57 | 01:59:43 | 00:00:00 | |
| AA1-15 | 2026-09-03 08:32:06 | 52.19694 | 9.55166 | 101° | 73km/h | 5998m | -4.1m/s | -16.2°C | 87.9% | 485.3hPa | 2.6V | 07:52:40 | 01:59:48 | 00:00:00 | |
| DL1XH-west | 2026-09-03 08:32:01 | 52.19716 | 9.55018 | 106° | 75km/h | 6019m | -4.3m/s | -16.4°C | 88.8% | 484.1hPa | 2.7V | 07:52:40 | 01:59:43 | 00:00:00 | |
| DM0DOS-11 | 2026-09-03 08:32:00 | 52.19753 | 9.54826 | 106° | 86km/h | 6045m | -4.3m/s | -16.4°C | 84.8% | 482.4hPa | 2.7V | 07:52:03 | 01:59:37 | 00:00:00 | |
| BIOWL1-15 | 2026-09-03 08:31:59 | 52.19728 | 9.54957 | 107° | 80km/h | 6028m | -4.2m/s | -16.4°C | 87.5% | 483.5hPa | 2.6V | 07:52:40 | 01:59:41 | 00:00:00 | |
| DD8BA-10 | 2026-09-03 08:31:59 | 52.19727 | 9.54957 | 107° | 88km/h | 6028m | -4.2m/s | -16.4°C | 85.7% | 483.5hPa | 2.6V | 00:00:00 | 00:00:00 | 00:00:00 | |
| GOEST3-10 | 2026-09-03 08:31:58 | 52.19734 | 9.54925 | 108° | 84km/h | 6033m | -4.2m/s | -16.4°C | 85.7% | 483.1hPa | 2.6V | 00:00:00 | 01:59:40 | 00:00:00 | |
| DL1XH1-15 | 2026-09-03 08:31:57 | 52.19772 | 9.54721 | 105° | 91km/h | 6058m | -4.2m/s | -16.5°C | 86.5% | 481.4hPa | 2.6V | 07:52:06 | 01:59:34 | 00:00:00 | |
| DL1XH-15 | 2026-09-03 08:31:56 | 52.19777 | 9.54684 | 103° | 91km/h | 6062m | -3.6m/s | -16.5°C | 86.3% | 481.3hPa | 2.6V | 07:52:07 | 01:59:33 | 00:00:00 | |
| AA1-15 | 2026-09-03 08:31:56 | 52.19746 | 9.54860 | 107° | 84km/h | 6041m | -4.3m/s | -16.4°C | 85.5% | 482.6hPa | 2.7V | 07:52:40 | 01:59:38 | 00:00:00 | |
| DB0DAN | 2026-09-03 08:31:55 | 52.19753 | 9.54826 | 107° | 82km/h | 6045m | -4.4m/s | -16.4°C | 83.4% | 482.35hPa | 2.7V | 00:00:00 | 00:00:00 | 00:00:00 | |
| DO2LYB-13 | 2026-09-03 08:31:54 | 52.19753 | 9.54826 | 108° | 86km/h | 6046m | -4.4m/s | -16.4°C | 83.4% | 482.4hPa | 2.6V | 00:00:00 | 00:00:00 | 00:00:00 | |
| GOEST3-10 | 2026-09-03 08:31:53 | 52.19766 | 9.54756 | 107° | 91km/h | 6054m | -4.2m/s | -16.4°C | 86.1% | 481.8hPa | 2.6V | 07:52:00 | 00:00:00 | 00:00:00 | |
| DD1CC3-15 | 2026-09-03 08:31:51 | 52.19771 | 9.54721 | 106° | 91km/h | 6059m | -4.2m/s | -16.5°C | 85.1% | 481.4hPa | 2.6V | 07:52:00 | 00:00:00 | 00:00:00 | |
| DM0DOS-11 | 2026-09-03 08:31:50 | 52.19800 | 9.54467 | 97° | 82km/h | 6088m | -4.2m/s | -16.9°C | 87.2% | 479.6hPa | 2.6V | 07:52:13 | 01:59:27 | 00:00:00 | |
| DL1XH-west | 2026-09-03 08:31:50 | 52.19783 | 9.54647 | 102° | 93km/h | 6066m | -4.1m/s | -16.5°C | 84.1% | 481.1hPa | 2.7V | 07:52:40 | 01:59:32 | 00:00:00 | |
| BIOWL1-15 | 2026-09-03 08:31:49 | 52.19787 | 9.54610 | 101° | 91km/h | 6070m | -4.4m/s | -16.6°C | 84.3% | 480.9hPa | 2.7V | 07:52:40 | 01:59:31 | 00:00:00 | |
| DJ2DS-15 | 2026-09-03 08:31:49 | 52.19791 | 9.54573 | 99° | 89km/h | 6075m | -4.5m/s | -16.8°C | 85.6% | 480.6hPa | 2.7V | 00:00:00 | 00:00:00 | 00:00:00 | |
| GOEST3-10 | 2026-09-03 08:31:48 | 52.19791 | 9.54573 | 100° | 86km/h | 6075m | -4.5m/s | -16.7°C | 87.0% | 480.5hPa | 2.7V | 00:00:00 | 01:59:30 | 00:00:00 | |
| DL1XH1-15 | 2026-09-03 08:31:47 | 52.19810 | 9.54371 | 102° | 77km/h | 6101m | -4.2m/s | -16.9°C | 86.3% | 478.9hPa | 2.7V | 07:52:16 | 01:59:24 | 00:00:00 | |
| DL1XH-15 | 2026-09-03 08:31:46 | 52.19815 | 9.54341 | 105° | 77km/h | 6105m | -4.2m/s | -16.8°C | 85% | 478.6hPa | 2.7V | 07:52:17 | 01:59:23 | 00:00:00 | |
| AA1-15 | 2026-09-03 08:31:45 | 52.19800 | 9.54467 | 98° | 82km/h | 6088m | -4.2m/s | -16.9°C | 85% | 479.6hPa | 2.6V | 07:52:40 | 01:59:27 | 00:00:00 | |
| BUE01 | 2026-09-03 08:31:45 | 52.19803 | 9.54434 | 98° | 78km/h | 6092m | -4.4m/s | -16.9°C | 0% | 479.5hPa | 2.7V | 00:00:00 | 00:00:00 | 00:00:00 | |
| DF8AY-15 | 2026-09-03 08:31:43 | 52.19806 | 9.54402 | 101° | 80km/h | 6096m | -4.1m/s | -16.9°C | 86.9% | 479.2hPa | 2.7V | 00:00:00 | 01:59:25 | 00:00:00 | |
| EDDB2-11 | 2026-09-03 08:31:42 | 52.19811 | 9.54371 | 102° | 75km/h | 6100m | -4.2m/s | -16.9°C | 84.9% | 478.9hPa | 2.7V | 00:00:00 | 00:00:00 | 00:00:00 | |
| DO3DL | 2026-09-03 08:31:41 | 52.19810 | 9.54371 | 104° | 77km/h | 6101m | -4.2m/s | -16.9°C | 84.9% | 478.9hPa | 2.7V | 07:52:00 | 00:00:00 | 00:00:00 | |
| DM0DOS-11 | 2026-09-03 08:31:40 | 52.19851 | 9.54163 | 110° | 77km/h | 6132m | -4.6m/s | -16.9°C | 82.8% | 476.8hPa | 2.7V | 07:52:23 | 01:59:17 | 00:00:00 | |
| DB0DAN | 2026-09-03 08:31:40 | 52.19820 | 9.54311 | 107° | 71km/h | 6109m | -4.3m/s | -16.7°C | 81.2% | 478.36hPa | 2.7V | 00:00:00 | 00:00:00 | 00:00:00 | |
| DL1XH-west | 2026-09-03 08:31:39 | 52.19826 | 9.54281 | 108° | 75km/h | 6113m | -4.6m/s | -16.8°C | 83.9% | 478.2hPa | 2.6V | 07:52:40 | 01:59:21 | 00:00:00 | |
| BIOWL1-15 | 2026-09-03 08:31:38 | 52.19832 | 9.54252 | 109° | 75km/h | 6118m | -4.5m/s | -16.8°C | 83.9% | 477.8hPa | 2.6V | 07:52:40 | 01:59:20 | 00:00:00 | |
| GOEST3-10 | 2026-09-03 08:31:38 | 52.19832 | 9.54252 | 109° | 77km/h | 6118m | -4.5m/s | -16.8°C | 82.0% | 477.8hPa | 2.6V | 00:00:00 | 01:59:20 | 00:00:00 | |
| DL1XH1-15 | 2026-09-03 08:31:37 | 52.19874 | 9.54072 | 112° | 82km/h | 6146m | -4.5m/s | -16.8°C | 80.7% | 476hPa | 2.6V | 07:52:26 | 01:59:14 | 00:00:00 | |
| DL3AQ-11 | 2026-09-03 08:31:37 | 52.19845 | 9.54193 | 109° | 75km/h | 6127m | -4.8m/s | -16.9°C | 80.9% | 477.2hPa | 2.6V | 00:00:00 | 00:00:00 | 00:00:00 | |
| DL1XH-15 | 2026-09-03 08:31:36 | 52.19882 | 9.54040 | 112° | 84km/h | 6150m | -4.2m/s | -16.8°C | 80.7% | 475.6hPa | 2.6V | 07:52:27 | 01:59:13 | 00:00:00 | |
| AA1-15 | 2026-09-03 08:31:35 | 52.19851 | 9.54163 | 111° | 77km/h | 6132m | -4.6m/s | -16.9°C | 82.9% | 476.8hPa | 2.7V | 07:52:40 | 01:59:17 | 00:00:00 | |
| DO2JMG | 2026-09-03 08:31:34 | 52.19858 | 9.54133 | 111° | 78km/h | 6137m | -4.4m/s | -16.9°C | 82.5% | 476.5hPa | 2.7V | 07:53:31 | 01:59:16 | 00:00:00 | |
| DD1CC8 | 2026-09-03 08:31:34 | 52.19866 | 9.54103 | 112° | 80km/h | 6141m | -4.4m/s | -16.8°C | 80.2% | 476.4hPa | 2.6V | 00:00:00 | 00:00:00 | 00:00:00 | |
| GOEST3-10 | 2026-09-03 08:31:33 | 52.19866 | 9.54103 | 113° | 84km/h | 6141m | -4.4m/s | -16.8°C | 81.6% | 476.3hPa | 2.6V | 00:00:00 | 00:00:00 | 00:00:00 | |
| BIOWL7-15 | 2026-09-03 08:31:32 | 52.19866 | 9.54103 | 114° | 80km/h | 6141m | -4.4m/s | -16.8°C | 80.2% | 476.4hPa | 2.6V | 07:52:00 | 00:00:00 | 00:00:00 | |
| DO3DL | 2026-09-03 08:31:31 | 52.19874 | 9.54072 | 114° | 82km/h | 6146m | -4.5m/s | -16.8°C | 79.3% | 476.0hPa | 2.6V | 07:52:00 | 00:00:00 | 00:00:00 | |
| DM0DOS-11 | 2026-09-03 08:31:30 | 52.19933 | 9.53843 | 113° | 89km/h | 6177m | -4.5m/s | -16.9°C | 76.8% | 473.9hPa | 2.6V | 07:52:33 | 01:59:07 | 00:00:00 | |
| DL1XH-west | 2026-09-03 08:31:29 | 52.19899 | 9.53976 | 113° | 86km/h | 6159m | -4.5m/s | -16.9°C | 80.1% | 475.1hPa | 2.7V | 07:52:40 | 01:59:11 | 00:00:00 | |
| BIOWL1-15 | 2026-09-03 08:31:28 | 52.19907 | 9.53943 | 113° | 88km/h | 6163m | -4.4m/s | -16.9°C | 79.9% | 474.9hPa | 2.7V | 07:52:40 | 01:59:10 | 00:00:00 | |
| GOEST3-10 | 2026-09-03 08:31:27 | 52.19916 | 9.53910 | 114° | 89km/h | 6168m | -4.6m/s | -16.9°C | 79.9% | 474.5hPa | 2.6V | 00:00:00 | 01:59:09 | 00:00:00 | |
| DL1XH-15 | 2026-09-03 08:31:26 | 52.19967 | 9.53704 | 109° | 93km/h | 6195m | -4.6m/s | -16.9°C | 76% | 472.9hPa | 2.6V | 07:52:37 | 01:59:03 | 00:00:00 | |
| DB0DAN | 2026-09-03 08:31:25 | 52.19933 | 9.53843 | 113° | 86km/h | 6177m | -4.5m/s | -16.9°C | 75.5% | 473.9hPa | 2.6V | 00:00:00 | 00:00:00 | 00:00:00 | |
| DF8AY | 2026-09-03 08:31:24 | 52.19942 | 9.53809 | 113° | 89km/h | 6182m | -4.7m/s | -16.9°C | 77.3% | 473.7hPa | 2.7V | 07:52:40 | 01:59:06 | 00:00:00 | |
| AA1-15 | 2026-09-03 08:31:23 | 52.19951 | 9.53775 | 112° | 91km/h | 6186m | -4.4m/s | -16.9°C | 77.1% | 473.5hPa | 2.7V | 07:52:40 | 01:59:05 | 00:00:00 | |
| DF8AY-15 | 2026-09-03 08:31:23 | 52.19951 | 9.53775 | 112° | 86km/h | 6186m | -4.4m/s | -16.8°C | 76.0% | 473.5hPa | 2.6V | 00:00:00 | 01:59:05 | 00:00:00 | |
| GOEST3-10 | 2026-09-03 08:31:22 | 52.19959 | 9.53739 | 111° | 91km/h | 6191m | -4.6m/s | -16.9°C | 76.1% | 473.1hPa | 2.6V | 00:00:00 | 00:00:00 | 00:00:00 | |
| DM0DOS-11 | 2026-09-03 08:31:20 | 52.20007 | 9.53487 | 103° | 89km/h | 6222m | -4.7m/s | -17.2°C | 76.6% | 471.1hPa | 2.6V | 07:52:43 | 01:58:57 | 00:00:00 | |
| BIOWL1-15 | 2026-09-03 08:31:18 | 52.19989 | 9.53595 | 106° | 91km/h | 6209m | -4.5m/s | -17°C | 77.7% | 472hPa | 2.7V | 07:52:40 | 01:59:00 | 00:00:00 | |
| DL1XH1-15 | 2026-09-03 08:31:17 | 52.20021 | 9.53381 | 102° | 86km/h | 6237m | -4.7m/s | -17.3°C | 77.2% | 470.3hPa | 2.7V | 07:52:46 | 01:58:54 | 00:00:00 | |
| DF8AY | 2026-09-03 08:31:13 | 52.20017 | 9.53416 | 102° | 88km/h | 6232m | -4.8m/s | -17.3°C | 78.9% | 470.5hPa | 2.6V | 07:53:31 | 01:58:55 | 00:00:00 | |
| AA1-15 | 2026-09-03 08:31:12 | 52.20021 | 9.53381 | 102° | 86km/h | 6237m | -4.7m/s | -17.3°C | 78.9% | 470.3hPa | 2.7V | 07:53:31 | 01:58:54 | 00:00:00 | |
| EDDB2-11 | 2026-09-03 08:31:11 | 52.20026 | 9.53347 | 101° | 84km/h | 6241m | -4.8m/s | -17.4°C | 76.2% | 469.8hPa | 2.7V | 00:00:00 | 00:00:00 | 00:00:00 | |
| DM0DOS-11 | 2026-09-03 08:31:10 | 52.20052 | 9.53153 | 103° | 75km/h | 6270m | -4.8m/s | -17.7°C | 79.1% | 468.1hPa | 2.7V | 07:52:53 | 01:58:47 | 00:00:00 | |
| DB0DAN | 2026-09-03 08:31:10 | 52.20030 | 9.53313 | 102° | 80km/h | 6246m | -4.9m/s | -17.4°C | 76.5% | 469.61hPa | 2.7V | 00:00:00 | 00:00:00 | 00:00:00 | |
| DL3AQ-11 | 2026-09-03 08:31:10 | 52.20034 | 9.53279 | 101° | 80km/h | 6251m | -5.0m/s | -17.5°C | 76.7% | 469.4hPa | 2.7V | 00:00:00 | 00:00:00 | 00:00:00 | |
| DD8BA-10 | 2026-09-03 08:31:09 | 52.20034 | 9.53279 | 102° | 77km/h | 6251m | -4.9m/s | -17.4°C | 78.1% | 469.3hPa | 2.7V | 00:00:00 | 00:00:00 | 00:00:00 | |
| DL1XH1-15 | 2026-09-03 08:31:07 | 52.20067 | 9.53065 | 107° | 73km/h | 6284m | -4.8m/s | -17.8°C | 79.7% | 467.3hPa | 2.6V | 07:52:56 | 01:58:44 | 00:00:00 | |
| DL1XH-west | 2026-09-03 08:31:07 | 52.20043 | 9.53215 | 103° | 78km/h | 6261m | -4.4m/s | -17.6°C | 79.7% | 468.8hPa | 2.6V | 07:53:31 | 01:58:49 | 00:00:00 | |
| DF8AY | 2026-09-03 08:31:03 | 52.20062 | 9.53094 | 107° | 73km/h | 6279m | -4.6m/s | -17.8°C | 80.7% | 467.6hPa | 2.6V | 07:53:31 | 01:58:45 | 00:00:00 | |
| AA1-15 | 2026-09-03 08:31:02 | 52.20067 | 9.53065 | 108° | 73km/h | 6284m | -4.8m/s | -17.8°C | 80.9% | 467.3hPa | 2.6V | 07:53:31 | 01:58:44 | 00:00:00 | |
| DM0DOS-11 | 2026-09-03 08:31:00 | 52.20116 | 9.52865 | 114° | 78km/h | 6318m | -4.9m/s | -18°C | 79.5% | 465.2hPa | 2.7V | 07:53:03 | 01:58:37 | 00:00:00 | |
| EDDB2-12 | 2026-09-03 08:30:59 | 52.20093 | 9.52951 | 112° | 73km/h | 6303m | -4.8m/s | -17.9°C | 78.6% | 466.1hPa | 2.6V | 00:00:00 | 00:00:00 | 00:00:00 | |
| GOEST3-10 | 2026-09-03 08:30:58 | 52.20093 | 9.52951 | 113° | 77km/h | 6303m | -4.7m/s | -17.9°C | 80.1% | 466.0hPa | 2.6V | 00:00:00 | 00:00:00 | 00:00:00 | |
| DL1XH1-15 | 2026-09-03 08:30:57 | 52.20142 | 9.52773 | 114° | 84km/h | 6333m | -5m/s | -18.1°C | 79.6% | 464.2hPa | 2.6V | 07:53:06 | 01:58:34 | 00:00:00 | |
| DL3AQ-11 | 2026-09-03 08:30:57 | 52.20108 | 9.52894 | 113° | 75km/h | 6313m | -4.8m/s | -18.0°C | 78.2% | 465.4hPa | 2.7V | 00:00:00 | 00:00:00 | 00:00:00 | |
| DL1XH-15 | 2026-09-03 08:30:56 | 52.20151 | 9.52741 | 113° | 86km/h | 6337m | -5.1m/s | -18.2°C | 80.1% | 463.9hPa | 2.7V | 07:53:07 | 01:58:33 | 00:00:00 | |
| DL1XH-west | 2026-09-03 08:30:56 | 52.20108 | 9.52894 | 114° | 77km/h | 6313m | -4.8m/s | -18°C | 81.6% | 465.4hPa | 2.7V | 07:53:31 | 01:58:38 | 00:00:00 | |
| DB0DAN | 2026-09-03 08:30:55 | 52.20116 | 9.52865 | 114° | 75km/h | 6318m | -4.9m/s | -18°C | 78.1% | 465.22hPa | 2.7V | 00:00:00 | 00:00:00 | 00:00:00 | |
| DO2JMG | 2026-09-03 08:30:53 | 52.20133 | 9.52805 | 115° | 82km/h | 6327m | -5m/s | -18.1°C | 81.2% | 464.5hPa | 2.6V | 07:53:31 | 01:58:35 | 00:00:00 | |
| DF8AY | 2026-09-03 08:30:52 | 52.20142 | 9.52773 | 114° | 84km/h | 6333m | -5m/s | -18.1°C | 81.1% | 464.3hPa | 2.6V | 07:53:31 | 01:58:34 | 00:00:00 | |
| AA1-15 | 2026-09-03 08:30:51 | 52.20151 | 9.52741 | 114° | 86km/h | 6337m | -5.1m/s | -18.2°C | 81.3% | 463.9hPa | 2.7V | 07:53:31 | 01:58:33 | 00:00:00 | |
| DO9LL-15 | 2026-09-03 08:30:50 | 52.20159 | 9.52709 | 114° | 80km/h | 6343m | -5.0m/s | -18.2°C | 80.1% | 463.6hPa | 2.7V | 00:00:00 | 01:58:32 | 00:00:00 | |
| DB0NH | 2026-09-03 08:30:49 | 52.20168 | 9.52675 | 113° | 80km/h | 6348m | -5.1m/s | -18.2°C | 80.7% | 463.2hPa | 2.7V | 07:53:00 | 01:58:31 | 00:00:00 | |
| DL1XH1-15 | 2026-09-03 08:30:47 | 52.20216 | 9.52427 | 103° | 89km/h | 6383m | -5.2m/s | -18.5°C | 79.9% | 461.1hPa | 2.6V | 07:53:16 | 01:58:24 | 00:00:00 | |
| DL1XH-15 | 2026-09-03 08:30:46 | 52.20221 | 9.52391 | 102° | 88km/h | 6388m | -4.8m/s | -18.6°C | 79.8% | 460.8hPa | 2.7V | 07:53:17 | 01:58:23 | 00:00:00 | |
| BIOWL1-15 | 2026-09-03 08:30:46 | 52.20191 | 9.52570 | 108° | 91km/h | 6362m | -5m/s | -18.4°C | 80.3% | 462.3hPa | 2.7V | 07:53:31 | 01:58:28 | 00:00:00 | |
| DL1XH-west | 2026-09-03 08:30:45 | 52.20198 | 9.52535 | 106° | 91km/h | 6368m | -5.2m/s | -18.4°C | 80.1% | 462.1hPa | 2.7V | 07:53:31 | 01:58:27 | 00:00:00 | |
| DO2JMG | 2026-09-03 08:30:43 | 52.20211 | 9.52462 | 105° | 91km/h | 6378m | -5.1m/s | -18.5°C | 79.7% | 461.4hPa | 2.6V | 07:53:31 | 01:58:25 | 00:00:00 | |
| DF8AY | 2026-09-03 08:30:42 | 52.20216 | 9.52426 | 104° | 89km/h | 6383m | -5.2m/s | -18.5°C | 79.6% | 461.1hPa | 2.6V | 07:53:31 | 01:58:24 | 00:00:00 | |
| HSKMA3-T | 2026-09-03 08:30:41 | 52.20221 | 9.52391 | 103° | 88km/h | 6388m | -4.8m/s | -18.6°C | 79.7% | 460.8hPa | 2.7V | 07:56:04 | 01:58:23 | 00:00:00 | |
| DB0DAN | 2026-09-03 08:30:40 | 52.20226 | 9.52356 | 102° | 82km/h | 6393m | -4.9m/s | -18.6°C | 78.5% | 460.46hPa | 2.7V | 00:00:00 | 00:00:00 | 00:00:00 | |
| DJ2DS-15 | 2026-09-03 08:30:40 | 52.20226 | 9.52356 | 103° | 77km/h | 6393m | -4.9m/s | -18.6°C | 80.1% | 460.4hPa | 2.6V | 07:53:00 | 01:58:22 | 00:00:00 | |
| SO1NDE-10 | 2026-09-03 08:30:39 | 52.20230 | 9.52322 | 102° | 82km/h | 6398m | -4.9m/s | -18.6°C | 80.5% | 460.1hPa | 2.6V | 00:00:00 | 01:58:21 | 00:00:00 | |
| GOEST3-10 | 2026-09-03 08:30:38 | 52.20234 | 9.52289 | 102° | 80km/h | 6403m | -5.0m/s | -18.7°C | 80.9% | 459.8hPa | 2.6V | 00:00:00 | 00:00:00 | 00:00:00 | |
| DL1XH1-15 | 2026-09-03 08:30:37 | 52.20261 | 9.52107 | 106° | 71km/h | 6432m | -4.8m/s | -18.9°C | 77.6% | 458hPa | 2.6V | 07:53:26 | 01:58:14 | 00:00:00 | |
| BIOWL1-15 | 2026-09-03 08:30:37 | 52.20247 | 9.52195 | 103° | 75km/h | 6418m | -5m/s | -18.9°C | 81% | 458.9hPa | 2.7V | 07:53:31 | 01:58:17 | 00:00:00 | |
| DJ2DS-15 | 2026-09-03 08:30:37 | 52.20242 | 9.52225 | 102° | 77km/h | 6413m | -5.0m/s | -18.8°C | 78.5% | 459.2hPa | 2.7V | 00:00:00 | 00:00:00 | 00:00:00 | |
| DL1XH-15 | 2026-09-03 08:30:36 | 52.20266 | 9.52079 | 108° | 73km/h | 6437m | -4.9m/s | -19°C | 78.7% | 457.7hPa | 2.7V | 07:53:27 | 01:58:13 | 00:00:00 | |
| DL1XH-west | 2026-09-03 08:30:34 | 52.20251 | 9.52165 | 104° | 73km/h | 6423m | -5m/s | -18.9°C | 80.1% | 458.6hPa | 2.7V | 07:53:31 | 01:58:16 | 00:00:00 | |
| DO2JMG | 2026-09-03 08:30:32 | 52.20261 | 9.52107 | 107° | 71km/h | 6432m | -4.8m/s | -19°C | 79.1% | 458hPa | 2.6V | 07:53:31 | 01:58:14 | 00:00:00 | |
| AA1-15 | 2026-09-03 08:30:30 | 52.20272 | 9.52050 | 111° | 73km/h | 6442m | -5.1m/s | -19°C | 80.3% | 457.4hPa | 2.7V | 07:53:31 | 01:58:12 | 00:00:00 | |
| HSKMA3-T | 2026-09-03 08:30:28 | 52.20286 | 9.51994 | 112° | 75km/h | 6452m | -5m/s | -19.1°C | 78.3% | 456.8hPa | 2.6V | 07:56:04 | 01:58:10 | 00:00:00 | |
| SONCRA | 2026-09-03 08:30:28 | 52.20293 | 9.51966 | 112° | 73km/h | 6457m | -5.2m/s | -19.1°C | 75.0% | 456.5hPa | 2.6V | 00:00:00 | 00:00:00 | 00:00:00 | |
| DL1XH1-15 | 2026-09-03 08:30:27 | 52.20333 | 9.51821 | 115° | 78km/h | 6482m | -4.9m/s | -19.3°C | 81.3% | 454.9hPa | 2.6V | 07:53:36 | 01:58:04 | 00:00:00 | |
| DL1XH-15 | 2026-09-03 08:30:26 | 52.20341 | 9.51792 | 115° | 80km/h | 6487m | -5m/s | -19.3°C | 80.1% | 454.7hPa | 2.7V | 07:53:37 | 01:58:03 | 00:00:00 | |
| BIOWL1-15 | 2026-09-03 08:30:26 | 52.20316 | 9.51880 | 114° | 77km/h | 6473m | -4.8m/s | -19.2°C | 79.1% | 455.6hPa | 2.7V | 07:54:22 | 01:58:06 | 00:00:00 | |
| DB0DAN | 2026-09-03 08:30:25 | 52.20308 | 9.51909 | 114° | 73km/h | 6468m | -5m/s | -19.2°C | 75.4% | 455.81hPa | 2.7V | 00:00:00 | 00:00:00 | 00:00:00 | |
| DL1XH-west | 2026-09-03 08:30:23 | 52.20324 | 9.51851 | 115° | 78km/h | 6478m | -4.8m/s | -19.2°C | 80.7% | 455.3hPa | 2.6V | 07:54:22 | 01:58:05 | 00:00:00 | |
| DO2JMG | 2026-09-03 08:30:21 | 52.20341 | 9.51792 | 115° | 80km/h | 6487m | -5m/s | -19.3°C | 80.9% | 454.7hPa | 2.7V | 07:54:22 | 01:58:03 | 00:00:00 | |
| AA1-15 | 2026-09-03 08:30:20 | 52.20350 | 9.51761 | 115° | 82km/h | 6492m | -4.8m/s | -19.4°C | 79.9% | 454.4hPa | 2.7V | 07:54:22 | 01:58:02 | 00:00:00 | |
| DO9LL-15 | 2026-09-03 08:30:20 | 52.20350 | 9.51761 | 116° | 80km/h | 6493m | -4.8m/s | -19.3°C | 79.4% | 454.3hPa | 2.6V | 00:00:00 | 01:58:02 | 00:00:00 | |
| DB0NH | 2026-09-03 08:30:19 | 52.20359 | 9.51731 | 116° | 82km/h | 6497m | -4.4m/s | -19.4°C | 79.4% | 454.1hPa | 2.6V | 00:00:00 | 01:58:01 | 00:00:00 | |
| DL1XH1-15 | 2026-09-03 08:30:17 | 52.20419 | 9.51497 | 110° | 89km/h | 6530m | -5.2m/s | -19.7°C | 78% | 452hPa | 2.6V | 07:53:46 | 01:57:54 | 00:00:00 | |
| DL3AQ-11 | 2026-09-03 08:30:17 | 52.20385 | 9.51633 | 112° | 88km/h | 6511m | -4.7m/s | -19.5°C | 77.5% | 453.2hPa | 2.7V | 00:00:00 | 00:00:00 | 00:00:00 | |
| DL1XH-15 | 2026-09-03 08:30:16 | 52.20427 | 9.51462 | 109° | 91km/h | 6535m | -5.3m/s | -19.8°C | 77.8% | 451.6hPa | 2.7V | 07:53:47 | 01:57:53 | 00:00:00 | |
| BIOWL1-15 | 2026-09-03 08:30:16 | 52.20402 | 9.51565 | 112° | 89km/h | 6520m | -4.7m/s | -19.7°C | 79.4% | 452.6hPa | 2.7V | 07:54:22 | 01:57:56 | 00:00:00 | |
| DL1XH-west | 2026-09-03 08:30:13 | 52.20411 | 9.51531 | 112° | 89km/h | 6525m | -4.7m/s | -19.7°C | 78.4% | 452.3hPa | 2.6V | 07:54:22 | 01:57:55 | 00:00:00 | |
| HSKMA3-T | 2026-09-03 08:30:11 | 52.20427 | 9.51461 | 110° | 91km/h | 6535m | -5.3m/s | -19.8°C | 78.2% | 451.7hPa | 2.7V | 07:56:04 | 01:57:53 | 00:00:00 | |
| DO2JMG | 2026-09-03 08:30:10 | 52.20434 | 9.51426 | 109° | 89km/h | 6540m | -4.9m/s | -19.8°C | 77.9% | 451.3hPa | 2.7V | 07:54:22 | 01:57:52 | 00:00:00 | |
| DB0DAN | 2026-09-03 08:30:10 | 52.20434 | 9.51426 | 109° | 86km/h | 6540m | -4.9m/s | -19.8°C | 76% | 451.32hPa | 2.7V | 00:00:00 | 00:00:00 | 00:00:00 | |
| DL1NUX | 2026-09-03 08:30:09 | 52.20470 | 9.51227 | 106° | 75km/h | 6570m | -4.9m/s | -20.1°C | 75.7% | 449.6hPa | 2.6V | 07:53:54 | 01:57:46 | 00:00:00 | |
| AA1-15 | 2026-09-03 08:30:09 | 52.20441 | 9.51391 | 107° | 88km/h | 6545m | -5.1m/s | -19.9°C | 76.9% | 451hPa | 2.6V | 07:54:22 | 01:57:51 | 00:00:00 | |
| DD8BA-10 | 2026-09-03 08:30:09 | 52.20441 | 9.51391 | 108° | 78km/h | 6546m | -5.1m/s | -19.8°C | 76.5% | 451.0hPa | 2.6V | 00:00:00 | 00:00:00 | 00:00:00 | |
| DL1XH1-15 | 2026-09-03 08:30:07 | 52.20481 | 9.51169 | 108° | 73km/h | 6580m | -4.9m/s | -20.2°C | 75.6% | 449hPa | 2.6V | 07:53:56 | 01:57:44 | 00:00:00 | |
| SO1NDE-10 | 2026-09-03 08:30:07 | 52.20453 | 9.51322 | 106° | 82km/h | 6556m | -5.0m/s | -19.9°C | 75.0% | 450.4hPa | 2.7V | 00:00:00 | 01:57:49 | 00:00:00 | |
| DL1XH-15 | 2026-09-03 08:30:06 | 52.20487 | 9.51140 | 109° | 73km/h | 6585m | -5m/s | -20.3°C | 75.8% | 448.6hPa | 2.7V | 07:53:57 | 01:57:43 | 00:00:00 | |
| BIOWL1-15 | 2026-09-03 08:30:03 | 52.20475 | 9.51197 | 108° | 73km/h | 6575m | -5.1m/s | -20.2°C | 77.6% | 449.3hPa | 2.6V | 07:54:22 | 01:57:45 | 00:00:00 | |
| DL1XH-west | 2026-09-03 08:30:02 | 52.20481 | 9.51169 | 109° | 73km/h | 6580m | -4.9m/s | -20.2°C | 77.7% | 449hPa | 2.6V | 07:54:22 | 01:57:44 | 00:00:00 | |
| HSKMA3-T | 2026-09-03 08:30:00 | 52.20494 | 9.51112 | 111° | 73km/h | 6590m | -5m/s | -20.3°C | 76.8% | 448.4hPa | 2.7V | 07:56:04 | 01:57:42 | 00:00:00 | |
| AA1-15 | 2026-09-03 08:29:59 | 52.20500 | 9.51085 | 112° | 73km/h | 6595m | -5m/s | -20.3°C | 77% | 448hPa | 2.7V | 07:54:22 | 01:57:41 | 00:00:00 | |
| DD8BA-10 | 2026-09-03 08:29:59 | 52.20500 | 9.51084 | 112° | 78km/h | 6595m | -5.0m/s | -20.3°C | 75.8% | 448.0hPa | 2.6V | 00:00:00 | 00:00:00 | 00:00:00 | |
| DL1XH1-15 | 2026-09-03 08:29:57 | 52.20562 | 9.50887 | 119° | 84km/h | 6630m | -5m/s | -20.7°C | 73% | 446hPa | 2.6V | 07:54:06 | 01:57:34 | 00:00:00 | |
| SONCRA | 2026-09-03 08:29:57 | 52.20523 | 9.51002 | 117° | 75km/h | 6610m | -5.0m/s | -20.5°C | 75.1% | 447.0hPa | 2.7V | 00:00:00 | 00:00:00 | 00:00:00 | |
| DL1XH-15 | 2026-09-03 08:29:56 | 52.20572 | 9.50857 | 118° | 86km/h | 6635m | -4.8m/s | -20.7°C | 73% | 445.6hPa | 2.7V | 07:54:07 | 01:57:33 | 00:00:00 | |
| DB0DAN | 2026-09-03 08:29:55 | 52.20532 | 9.50974 | 119° | 73km/h | 6615m | -5.2m/s | -20.5°C | 74.9% | 446.83hPa | 2.7V | 00:00:00 | 00:00:00 | 00:00:00 | |
| BIOWL1-15 | 2026-09-03 08:29:53 | 52.20552 | 9.50917 | 120° | 80km/h | 6625m | -5m/s | -20.6°C | 74.3% | 446.2hPa | 2.6V | 07:54:22 | 01:57:35 | 00:00:00 | |
| DL1XH-west | 2026-09-03 08:29:51 | 52.20572 | 9.50857 | 119° | 86km/h | 6635m | -4.8m/s | -20.7°C | 73.6% | 445.6hPa | 2.7V | 07:54:22 | 01:57:33 | 00:00:00 | |
| DF8AY | 2026-09-03 08:29:50 | 52.20583 | 9.50825 | 118° | 88km/h | 6640m | -4.7m/s | -20.8°C | 73.7% | 445.3hPa | 2.7V | 07:54:22 | 01:57:32 | 00:00:00 | |
| AA1-15 | 2026-09-03 08:29:48 | 52.20603 | 9.50760 | 116° | 91km/h | 6649m | -4.9m/s | -20.9°C | 73.6% | 444.8hPa | 2.6V | 07:54:22 | 01:57:30 | 00:00:00 | |
| DL1XH1-15 | 2026-09-03 08:29:47 | 52.20653 | 9.50553 | 107° | 86km/h | 6677m | -5m/s | -21.1°C | 74.2% | 443hPa | 2.6V | 07:54:16 | 01:57:24 | 00:00:00 | |
| DL1XH-15 | 2026-09-03 08:29:46 | 52.20659 | 9.50519 | 106° | 84km/h | 6682m | -5m/s | -21.1°C | 73.7% | 442.8hPa | 2.6V | 07:54:17 | 01:57:23 | 00:00:00 | |
| DF8AY | 2026-09-03 08:29:45 | 52.20665 | 9.50486 | 106° | 82km/h | 6687m | -5m/s | -21.2°C | 75.1% | 442.5hPa | 2.6V | 07:54:22 | 01:57:22 | 00:00:00 | |
| BIOWL1-15 | 2026-09-03 08:29:42 | 52.20653 | 9.50553 | 107° | 86km/h | 6677m | -5m/s | -21.1°C | 75.5% | 443hPa | 2.6V | 07:54:22 | 01:57:24 | 00:00:00 | |
| DL1XH-west | 2026-09-03 08:29:41 | 52.20659 | 9.50519 | 106° | 84km/h | 6682m | -5m/s | -21.1°C | 75.2% | 442.8hPa | 2.6V | 07:54:22 | 01:57:23 | 00:00:00 | |
| DB0DAN | 2026-09-03 08:29:40 | 52.20665 | 9.50486 | 106° | 78km/h | 6687m | -5m/s | -21.2°C | 71.9% | 442.48hPa | 2.6V | 00:00:00 | 00:00:00 | 00:00:00 | |
| DO2JMG | 2026-09-03 08:29:39 | 52.20671 | 9.50454 | 106° | 80km/h | 6692m | -5.1m/s | -21.3°C | 74.5% | 442.2hPa | 2.7V | 07:54:22 | 01:57:21 | 00:00:00 | |
| AA1-15 | 2026-09-03 08:29:38 | 52.20676 | 9.50422 | 105° | 80km/h | 6697m | -5m/s | -21.3°C | 74.5% | 441.9hPa | 2.7V | 07:54:22 | 01:57:20 | 00:00:00 | |
| DL1XH1-15 | 2026-09-03 08:29:37 | 52.20709 | 9.50242 | 108° | 71km/h | 6726m | -5m/s | -21.6°C | 72.4% | 440.2hPa | 2.7V | 07:54:26 | 01:57:14 | 00:00:00 | |
| DL3AQ-11 | 2026-09-03 08:29:37 | 52.20687 | 9.50359 | 105° | 77km/h | 6707m | -4.9m/s | -21.4°C | 70.1% | 441.3hPa | 2.7V | 00:00:00 | 00:00:00 | 00:00:00 | |
| DL1XH-15 | 2026-09-03 08:29:36 | 52.20715 | 9.50214 | 109° | 71km/h | 6731m | -5.1m/s | -21.6°C | 72.8% | 439.8hPa | 2.7V | 07:54:27 | 01:57:13 | 00:00:00 | |
| BIOWL1-15 | 2026-09-03 08:29:33 | 52.20715 | 9.50215 | 110° | 71km/h | 6731m | -5.1m/s | -21.6°C | 74.5% | 439.8hPa | 2.7V | 07:55:13 | 01:57:13 | 00:00:00 | |
| DL1XH-west | 2026-09-03 08:29:30 | 52.20721 | 9.50187 | 111° | 71km/h | 6736m | -5.2m/s | -21.6°C | 75.4% | 439.4hPa | 2.7V | 07:55:13 | 01:57:12 | 00:00:00 | |
| DO2JMG | 2026-09-03 08:29:29 | 52.20728 | 9.50160 | 112° | 69km/h | 6741m | -5m/s | -21.6°C | 76.5% | 439.2hPa | 2.6V | 07:56:04 | 01:57:11 | 00:00:00 | |
| AA1-15 | 2026-09-03 08:29:28 | 52.20735 | 9.50134 | 114° | 69km/h | 6746m | -4.9m/s | -21.7°C | 76% | 438.9hPa | 2.6V | 07:55:13 | 01:57:10 | 00:00:00 | |
| DL1XH-15 | 2026-09-03 08:29:26 | 52.20794 | 9.49942 | 118° | 82km/h | 6781m | -5m/s | -21.9°C | 77.9% | 436.9hPa | 2.6V | 07:54:37 | 01:57:03 | 00:00:00 | |
| DB0DAN | 2026-09-03 08:29:25 | 52.20758 | 9.50054 | 117° | 69km/h | 6761m | -4.9m/s | -21.8°C | 75.3% | 438.08hPa | 2.6V | 00:00:00 | 00:00:00 | 00:00:00 | |
| BIOWL1-15 | 2026-09-03 08:29:21 | 52.20794 | 9.49942 | 118° | 82km/h | 6781m | -5m/s | -21.9°C | 78.5% | 436.9hPa | 2.6V | 07:55:13 | 01:57:03 | 00:00:00 | |
| DL1XH-west | 2026-09-03 08:29:20 | 52.20804 | 9.49913 | 118° | 84km/h | 6787m | -5.1m/s | -22°C | 78.7% | 436.5hPa | 2.7V | 07:55:13 | 01:57:02 | 00:00:00 | |
| DJ2DS-15 | 2026-09-03 08:29:20 | 52.20804 | 9.49912 | 118° | 82km/h | 6787m | -5.1m/s | -21.9°C | 78.2% | 436.5hPa | 2.7V | 00:00:00 | 01:57:02 | 00:00:00 | |
| DL1NUX | 2026-09-03 08:29:19 | 52.20857 | 9.49715 | 109° | 88km/h | 6817m | -5.1m/s | -22.3°C | 79.3% | 434.7hPa | 2.7V | 07:54:44 | 01:56:56 | 00:00:00 | |
| DO2JMG | 2026-09-03 08:29:19 | 52.20814 | 9.49882 | 117° | 86km/h | 6792m | -5m/s | -22°C | 79.1% | 436.3hPa | 2.7V | 07:56:04 | 01:57:01 | 00:00:00 | |
| AA1-15 | 2026-09-03 08:29:18 | 52.20823 | 9.49850 | 116° | 88km/h | 6797m | -5.1m/s | -22.1°C | 79.4% | 436hPa | 2.6V | 07:55:13 | 01:57:00 | 00:00:00 | |
| DC6BW-12 | 2026-09-03 08:29:17 | 52.20833 | 9.49817 | 115° | 88km/h | 6802m | -5.0m/s | -22.1°C | 77.2% | 435.7hPa | 2.6V | 07:55:00 | 00:00:00 | 00:00:00 | |
| DL1XH-15 | 2026-09-03 08:29:16 | 52.20877 | 9.49613 | 106° | 86km/h | 6832m | -5.2m/s | -22.4°C | 79% | 433.9hPa | 2.6V | 07:54:47 | 01:56:53 | 00:00:00 | |
| BIOWL1-15 | 2026-09-03 08:29:10 | 52.20883 | 9.49580 | 106° | 84km/h | 6837m | -5.2m/s | -22.4°C | 79.6% | 433.6hPa | 2.6V | 07:55:13 | 01:56:52 | 00:00:00 | |
| DB0DAN | 2026-09-03 08:29:10 | 52.20883 | 9.49580 | 106° | 80km/h | 6837m | -5.2m/s | -22.4°C | 77.3% | 433.61hPa | 2.6V | 00:00:00 | 00:00:00 | 00:00:00 | |
| DL1NUX | 2026-09-03 08:29:09 | 52.20916 | 9.49395 | 107° | 73km/h | 6867m | -4.8m/s | -22.7°C | 79.2% | 431.9hPa | 2.6V | 07:54:54 | 01:56:46 | 00:00:00 | |
| DL1XH-west | 2026-09-03 08:29:09 | 52.20888 | 9.49547 | 106° | 82km/h | 6842m | -5.1m/s | -22.5°C | 79.7% | 433.3hPa | 2.6V | 07:55:13 | 01:56:51 | 00:00:00 | |
| DF8AY | 2026-09-03 08:29:08 | 52.20893 | 9.49515 | 106° | 80km/h | 6848m | -5m/s | -22.5°C | 79.7% | 433hPa | 2.7V | 07:55:13 | 01:56:50 | 00:00:00 | |
| AA1-15 | 2026-09-03 08:29:07 | 52.20899 | 9.49484 | 106° | 77km/h | 6853m | -4.8m/s | -22.6°C | 79.5% | 432.7hPa | 2.7V | 07:55:13 | 01:56:49 | 00:00:00 | |
| BIOWL1-15 | 2026-09-03 08:29:04 | 52.20938 | 9.49280 | 108° | 75km/h | 6886m | -4.4m/s | -22.9°C | 79% | 430.7hPa | 2.7V | 07:55:13 | 01:56:42 | 00:00:00 | |
| DF8AY-15 | 2026-09-03 08:29:03 | 52.20921 | 9.49367 | 108° | 77km/h | 6871m | -4.9m/s | -22.7°C | 79.1% | 431.5hPa | 2.6V | 00:00:00 | 01:56:45 | 00:00:00 | |
| AM1SDL-15 | 2026-09-03 08:29:01 | 52.20932 | 9.49309 | 108° | 78km/h | 6881m | -4.6m/s | 0°C | 0% | 0hPa | 2.6V | 00:00:00 | 01:56:43 | 00:00:00 | |
| DM0DOS-11 | 2026-09-03 08:29:00 | 52.20967 | 9.49127 | 106° | 80km/h | 6909m | -4.7m/s | -23.1°C | 78.8% | 429.3hPa | 2.6V | 07:55:03 | 01:56:37 | 00:00:00 | |
| DL1XH-west | 2026-09-03 08:28:58 | 52.20949 | 9.49220 | 107° | 77km/h | 6895m | -4.5m/s | -22.9°C | 79% | 430.2hPa | 2.6V | 07:55:13 | 01:56:40 | 00:00:00 | |
| AA1-15 | 2026-09-03 08:28:57 | 52.20955 | 9.49189 | 107° | 78km/h | 6899m | -4.9m/s | -23°C | 79% | 429.8hPa | 2.6V | 07:55:13 | 01:56:39 | 00:00:00 | |
| DL3AQ-11 | 2026-09-03 08:28:57 | 52.20961 | 9.49158 | 106° | 78km/h | 6904m | -4.9m/s | -23.0°C | 76.8% | 429.6hPa | 2.6V | 00:00:00 | 00:00:00 | 00:00:00 | |
| DL1XH-15 | 2026-09-03 08:28:56 | 52.20990 | 9.48998 | 105° | 80km/h | 6927m | -4.7m/s | -23.2°C | 78.2% | 428.2hPa | 2.6V | 07:55:07 | 01:56:33 | 00:00:00 | |
| DB0DAN | 2026-09-03 08:28:55 | 52.20967 | 9.49127 | 107° | 77km/h | 6909m | -4.7m/s | -23.1°C | 76.9% | 429.27hPa | 2.6V | 00:00:00 | 00:00:00 | 00:00:00 | |
| BIOWL1-15 | 2026-09-03 08:28:52 | 52.20995 | 9.48966 | 105° | 80km/h | 6931m | -4.8m/s | -23.3°C | 79.2% | 427.9hPa | 2.6V | 07:55:13 | 01:56:32 | 00:00:00 | |
| HSKMA3-T | 2026-09-03 08:28:51 | 52.20990 | 9.48998 | 105° | 82km/h | 6927m | -4.7m/s | -23.2°C | 79.1% | 428.2hPa | 2.6V | 07:56:04 | 01:56:33 | 00:00:00 | |
| GOEST3-10 | 2026-09-03 08:28:51 | 52.20990 | 9.48998 | 106° | 80km/h | 6927m | -4.6m/s | -23.2°C | 78.2% | 428.2hPa | 2.6V | 00:00:00 | 00:00:00 | 00:00:00 | |
| DM0DOS-11 | 2026-09-03 08:28:50 | 52.21020 | 9.48812 | 105° | 75km/h | 6956m | -4.9m/s | -23.5°C | 78.1% | 426.5hPa | 2.6V | 07:55:13 | 01:56:27 | 00:00:00 | |
| DL1XH-west | 2026-09-03 08:28:48 | 52.21005 | 9.48902 | 104° | 78km/h | 6941m | -5.3m/s | -23.3°C | 79.3% | 427.4hPa | 2.6V | 07:55:13 | 01:56:30 | 00:00:00 | |
| DF8AY | 2026-09-03 08:28:47 | 52.21010 | 9.48872 | 105° | 77km/h | 6946m | -5.3m/s | -23.4°C | 79.3% | 427.1hPa | 2.7V | 07:55:13 | 01:56:29 | 00:00:00 | |
| AA1-15 | 2026-09-03 08:28:46 | 52.21015 | 9.48841 | 105° | 75km/h | 6951m | -5m/s | -23.4°C | 79.3% | 426.8hPa | 2.7V | 07:55:13 | 01:56:28 | 00:00:00 | |
| GOEST3-10 | 2026-09-03 08:28:46 | 52.21015 | 9.48841 | 106° | 73km/h | 6952m | -5.0m/s | -23.4°C | 78.0% | 426.7hPa | 2.7V | 00:00:00 | 01:56:28 | 00:00:00 | |
| DD1CC3-15 | 2026-09-03 08:28:45 | 52.21015 | 9.48841 | 106° | 75km/h | 6952m | -5.0m/s | -23.4°C | 76.1% | 426.8hPa | 2.7V | 07:55:00 | 00:00:00 | 00:00:00 | |
| DL4XJ-10 | 2026-09-03 08:28:43 | 52.21030 | 9.48754 | 107° | 69km/h | 6966m | -4.7m/s | -22.3°C | 0% | 0hPa | 2.7V | 00:00:00 | 00:00:00 | 00:00:00 | |
| DB0DAN | 2026-09-03 08:28:40 | 52.21047 | 9.48671 | 109° | 66km/h | 6981m | -5.2m/s | -23.6°C | 71.3% | 425.14hPa | 2.7V | 00:00:00 | 00:00:00 | 00:00:00 | |
| BIOWL1-15 | 2026-09-03 08:28:39 | 52.21052 | 9.48644 | 109° | 69km/h | 6986m | -4.9m/s | -23.6°C | 74.5% | 424.8hPa | 2.6V | 07:56:04 | 01:56:21 | 00:00:00 | |
| DL1XH-west | 2026-09-03 08:28:38 | 52.21057 | 9.48617 | 107° | 69km/h | 6990m | -4.8m/s | -23.7°C | 74.5% | 424.5hPa | 2.6V | 07:56:04 | 01:56:20 | 00:00:00 | |
| DL1XH1-15 | 2026-09-03 08:28:37 | 52.21087 | 9.48451 | 104° | 69km/h | 7020m | -5.1m/s | -23.8°C | 70.8% | 422.8hPa | 2.6V | 07:55:26 | 01:56:14 | 00:00:00 | |
| DF8AY | 2026-09-03 08:28:37 | 52.21063 | 9.48590 | 107° | 71km/h | 6995m | -4.9m/s | -23.7°C | 74.2% | 424.3hPa | 2.6V | 07:56:04 | 01:56:19 | 00:00:00 | |
| AA1-15 | 2026-09-03 08:28:35 | 52.21073 | 9.48534 | 107° | 69km/h | 7005m | -4.6m/s | -23.7°C | 73.1% | 423.7hPa | 2.6V | 07:56:04 | 01:56:17 | 00:00:00 | |
| GOEST3-10 | 2026-09-03 08:28:34 | 52.21078 | 9.48506 | 106° | 68km/h | 7009m | -4.9m/s | -23.7°C | 70.9% | 423.4hPa | 2.6V | 00:00:00 | 01:56:16 | 00:00:00 | |
| SMARD9-10 | 2026-09-03 08:28:33 | 52.21078 | 9.48506 | 106° | 69km/h | 7009m | -4.9m/s | -23.7°C | 69.0% | 423.4hPa | 2.6V | 00:00:00 | 00:00:00 | 00:00:00 | |
| DO2SHX-10 | 2026-09-03 08:28:31 | 52.21092 | 9.48424 | 107° | 68km/h | 7025m | -4.9m/s | -23.7°C | 70.9% | 422.5hPa | 2.6V | 07:55:00 | 01:56:13 | 00:00:00 | |
| DM0DOS-11 | 2026-09-03 08:28:30 | 52.21130 | 9.48271 | 118° | 73km/h | 7053m | -4.6m/s | -24°C | 70.3% | 420.9hPa | 2.7V | 07:55:33 | 01:56:07 | 00:00:00 | |
| BIOWL1-15 | 2026-09-03 08:28:29 | 52.21102 | 9.48372 | 109° | 66km/h | 7034m | -5m/s | -23.9°C | 72.7% | 422hPa | 2.6V | 07:56:04 | 01:56:11 | 00:00:00 | |
| DO2JMG | 2026-09-03 08:28:28 | 52.21108 | 9.48347 | 113° | 66km/h | 7039m | -4.6m/s | -23.9°C | 72.6% | 421.8hPa | 2.6V | 07:56:04 | 01:56:10 | 00:00:00 | |
| DL1XH-west | 2026-09-03 08:28:27 | 52.21114 | 9.48322 | 115° | 68km/h | 7044m | -4.6m/s | -23.9°C | 72% | 421.5hPa | 2.6V | 07:56:04 | 01:56:09 | 00:00:00 | |
| DF8AY | 2026-09-03 08:28:26 | 52.21122 | 9.48297 | 117° | 69km/h | 7049m | -4.7m/s | -24°C | 71.8% | 421.2hPa | 2.7V | 07:56:04 | 01:56:08 | 00:00:00 | |
| DB0DAN | 2026-09-03 08:28:25 | 52.21130 | 9.48271 | 119° | 69km/h | 7053m | -4.6m/s | -24°C | 68.4% | 420.9hPa | 2.7V | 00:00:00 | 00:00:00 | 00:00:00 | |
| AA1-15 | 2026-09-03 08:28:24 | 52.21139 | 9.48244 | 118° | 75km/h | 7058m | -4.8m/s | -24°C | 72.2% | 420.7hPa | 2.6V | 07:56:04 | 01:56:06 | 00:00:00 | |
| DF8AY-15 | 2026-09-03 08:28:23 | 52.21148 | 9.48216 | 118° | 82km/h | 7063m | -4.6m/s | -24.0°C | 71.2% | 420.3hPa | 2.6V | 00:00:00 | 01:56:05 | 00:00:00 | |
| BIOWL9-15 | 2026-09-03 08:28:22 | 52.21157 | 9.48187 | 116° | 80km/h | 7067m | -4.5m/s | -24.1°C | 69.7% | 420.1hPa | 2.6V | 00:00:00 | 00:00:00 | 00:00:00 | |
| DO2SHX-10 | 2026-09-03 08:28:21 | 52.21166 | 9.48156 | 115° | 84km/h | 7072m | -4.6m/s | -24.1°C | 71.9% | 419.7hPa | 2.6V | 00:00:00 | 01:56:03 | 00:00:00 | |
| DM0DOS-11 | 2026-09-03 08:28:20 | 52.21212 | 9.47961 | 108° | 84km/h | 7098m | -4.6m/s | -24.3°C | 72.5% | 418.4hPa | 2.6V | 07:55:43 | 01:55:57 | 00:00:00 | |
| HSKMA3-T | 2026-09-03 08:28:20 | 52.21175 | 9.48126 | 114° | 82km/h | 7076m | -3.8m/s | -24.2°C | 73.4% | 419.6hPa | 2.6V | 07:56:04 | 01:56:02 | 00:00:00 | |
| BIOWL1-15 | 2026-09-03 08:28:19 | 52.21183 | 9.48094 | 112° | 84km/h | 7080m | -4.5m/s | -24.2°C | 73.6% | 419.3hPa | 2.6V | 07:56:04 | 01:56:01 | 00:00:00 | |
| DO2JMG | 2026-09-03 08:28:18 | 52.21191 | 9.48061 | 112° | 86km/h | 7084m | -4.3m/s | -24.2°C | 73.8% | 419.1hPa | 2.6V | 07:56:04 | 01:56:00 | 00:00:00 | |
| DL1XH-west | 2026-09-03 08:28:16 | 52.21206 | 9.47995 | 108° | 86km/h | 7093m | -4.6m/s | -24.2°C | 74.5% | 418.6hPa | 2.6V | 07:56:04 | 01:55:58 | 00:00:00 | |
| DF8AY | 2026-09-03 08:28:16 | 52.21213 | 9.47961 | 108° | 84km/h | 7098m | -4.6m/s | -24.3°C | 74.6% | 418.4hPa | 2.6V | 07:56:04 | 01:55:57 | 00:00:00 | |
| AA1-15 | 2026-09-03 08:28:14 | 52.21219 | 9.47928 | 108° | 86km/h | 7102m | -4.8m/s | -24.3°C | 74.7% | 418.1hPa | 2.7V | 07:56:04 | 01:55:56 | 00:00:00 | |
| DO2SHX-10 | 2026-09-03 08:28:14 | 52.21219 | 9.47928 | 108° | 78km/h | 7102m | -4.7m/s | -24.3°C | 72.8% | 418.1hPa | 2.7V | 00:00:00 | 01:55:56 | 00:00:00 | |
| AM1SDL-15 | 2026-09-03 08:28:13 | 52.21226 | 9.47894 | 108° | 78km/h | 7107m | -4.9m/s | 0°C | 0% | 0hPa | 2.6V | 07:55:00 | 01:55:55 | 00:00:00 | |
| D01LWL | 2026-09-03 08:28:12 | 52.21238 | 9.47826 | 105° | 84km/h | 7117m | -5.0m/s | -24.5°C | 71.6% | 417.1hPa | 2.6V | 00:00:00 | 00:00:00 | 00:00:00 | |
| GOEST3-10 | 2026-09-03 08:28:11 | 52.21238 | 9.47826 | 106° | 82km/h | 7117m | -5.0m/s | -24.4°C | 73.5% | 417.0hPa | 2.6V | 00:00:00 | 01:55:53 | 00:00:00 | |
| DM0DOS-11 | 2026-09-03 08:28:10 | 52.21265 | 9.47634 | 102° | 73km/h | 7145m | -5.1m/s | -24.7°C | 74.4% | 415.6hPa | 2.6V | 07:55:53 | 01:55:47 | 00:00:00 | |
| BIOWL1-15 | 2026-09-03 08:28:10 | 52.21253 | 9.47726 | 102° | 80km/h | 7132m | -4.4m/s | -24.6°C | 75.9% | 416.3hPa | 2.6V | 07:56:04 | 01:55:50 | 00:00:00 | |
| DB0DAN | 2026-09-03 08:28:10 | 52.21243 | 9.47792 | 104° | 80km/h | 7122m | -5m/s | -24.5°C | 71.8% | 416.88hPa | 2.6V | 00:00:00 | 00:00:00 | 00:00:00 | |
| DO2JMG | 2026-09-03 08:28:07 | 52.21257 | 9.47694 | 103° | 78km/h | 7136m | -4.4m/s | -24.7°C | 76% | 416hPa | 2.6V | 07:56:04 | 01:55:49 | 00:00:00 | |
| HTAHTA | 2026-09-03 08:28:07 | 52.21269 | 9.47606 | 103° | 69km/h | 7150m | -4.9m/s | -24.8°C | 72.9% | 415.4hPa | 2.6V | 00:00:00 | 00:00:00 | 00:00:00 | |
| DL1XH-15 | 2026-09-03 08:28:06 | 52.21283 | 9.47522 | 107° | 69km/h | 7163m | -4.4m/s | -24.8°C | 76.2% | 414.4hPa | 2.6V | 07:55:57 | 01:55:43 | 00:00:00 | |
| DL1XH-west | 2026-09-03 08:28:06 | 52.21261 | 9.47664 | 102° | 75km/h | 7140m | -4.5m/s | -24.7°C | 76.3% | 415.9hPa | 2.6V | 07:56:04 | 01:55:48 | 00:00:00 | |
| DF8AY | 2026-09-03 08:28:04 | 52.21269 | 9.47606 | 103° | 69km/h | 7150m | -4.9m/s | -24.8°C | 76.6% | 415.4hPa | 2.6V | 07:56:04 | 01:55:46 | 00:00:00 | |
| AA1-15 | 2026-09-03 08:28:03 | 52.21273 | 9.47578 | 105° | 69km/h | 7155m | -4.4m/s | -24.8°C | 77% | 415hPa | 2.7V | 07:56:04 | 01:55:45 | 00:00:00 | |
| DL4XJ-10 | 2026-09-03 08:28:03 | 52.21273 | 9.47577 | 105° | 78km/h | 7155m | -4.3m/s | -23.5°C | 0% | 0hPa | 2.6V | 00:00:00 | 00:00:00 | 00:00:00 | |
| GOEST3-10 | 2026-09-03 08:28:01 | 52.21283 | 9.47522 | 108° | 71km/h | 7164m | -4.4m/s | -24.7°C | 76.2% | 414.4hPa | 2.6V | 00:00:00 | 01:55:43 | 00:00:00 | |
| DM0DOS-11 | 2026-09-03 08:28:00 | 52.21325 | 9.47354 | 115° | 78km/h | 7191m | -4.9m/s | -25°C | 77.2% | 413hPa | 2.6V | 07:56:03 | 01:55:37 | 00:00:00 | |
| BIOWL1-15 | 2026-09-03 08:28:00 | 52.21302 | 9.47440 | 112° | 73km/h | 7177m | -4.6m/s | -24.9°C | 78.7% | 413.8hPa | 2.6V | 07:56:04 | 01:55:40 | 00:00:00 | |
| DJ2DS-15 | 2026-09-03 08:28:00 | 52.21289 | 9.47495 | 111° | 80km/h | 7168m | -4.3m/s | -24.8°C | 76.6% | 414.3hPa | 2.6V | 07:55:00 | 01:55:42 | 00:00:00 | |
| DD8BA-10 | 2026-09-03 08:27:59 | 52.21295 | 9.47468 | 112° | 78km/h | 7173m | -4.6m/s | -24.8°C | 76.7% | 413.9hPa | 2.6V | 00:00:00 | 00:00:00 | 00:00:00 | |
| DL1NUX | 2026-09-03 08:27:58 | 52.21342 | 9.47295 | 113° | 80km/h | 7201m | -4.8m/s | -25.1°C | 77.9% | 412.4hPa | 2.6V | 07:56:05 | 01:55:35 | 00:00:00 | |
| DO2JMG | 2026-09-03 08:27:57 | 52.21309 | 9.47412 | 113° | 75km/h | 7181m | -4.5m/s | -24.9°C | 78.9% | 413.5hPa | 2.6V | 07:56:04 | 01:55:39 | 00:00:00 | |
| SONDE2-11 | 2026-09-03 08:27:57 | 52.21317 | 9.47383 | 113° | 75km/h | 7186m | -4.9m/s | -24.9°C | 75.2% | 413.3hPa | 2.6V | 00:00:00 | 00:00:00 | 00:00:00 | |
| DL1XH-15 | 2026-09-03 08:27:56 | 52.21358 | 9.47233 | 112° | 84km/h | 7210m | -4.9m/s | -25.1°C | 78.6% | 411.9hPa | 2.6V | 07:56:07 | 01:55:33 | 00:00:00 | |
| HSKMA3-T | 2026-09-03 08:27:56 | 52.21317 | 9.47383 | 114° | 77km/h | 7186m | -4.9m/s | -24.9°C | 79.2% | 413.3hPa | 2.7V | 07:56:04 | 01:55:38 | 00:00:00 | |
| DL1XH-west | 2026-09-03 08:27:55 | 52.21325 | 9.47354 | 115° | 78km/h | 7191m | -4.9m/s | -25°C | 79.3% | 413.1hPa | 2.6V | 07:56:04 | 01:55:37 | 00:00:00 | |
| DF8AY | 2026-09-03 08:27:54 | 52.21333 | 9.47325 | 114° | 80km/h | 7196m | -4.7m/s | -25°C | 79.6% | 412.7hPa | 2.6V | 07:56:04 | 01:55:36 | 00:00:00 | |
| AA1-15 | 2026-09-03 08:27:52 | 52.21350 | 9.47264 | 113° | 82km/h | 7205m | -4.9m/s | -25.1°C | 80% | 412.2hPa | 2.6V | 07:56:55 | 01:55:34 | 00:00:00 | |
| BIOWL1-15 | 2026-09-03 08:27:51 | 52.21391 | 9.47103 | 112° | 86km/h | 7230m | -4.8m/s | -25.3°C | 81.4% | 410.8hPa | 2.6V | 07:56:55 | 01:55:29 | 00:00:00 | |
| GOEST3-10 | 2026-09-03 08:27:51 | 52.21358 | 9.47232 | 113° | 86km/h | 7210m | -4.9m/s | -25.1°C | 78.6% | 411.8hPa | 2.6V | 00:00:00 | 01:55:33 | 00:00:00 | |
| DM0DOS-11 | 2026-09-03 08:27:50 | 52.21407 | 9.47038 | 111° | 84km/h | 7239m | -4.8m/s | -25.4°C | 79.7% | 410.2hPa | 2.6V | 07:56:13 | 01:55:27 | 00:00:00 | |
| DL3AQ-11 | 2026-09-03 08:27:50 | 52.21375 | 9.47168 | 112° | 86km/h | 7220m | -4.9m/s | -25.3°C | 77.0% | 411.4hPa | 2.7V | 00:00:00 | 00:00:00 | 00:00:00 | |
| DB0NH | 2026-09-03 08:27:49 | 52.21375 | 9.47168 | 113° | 86km/h | 7220m | -4.9m/s | -25.2°C | 79.1% | 411.3hPa | 2.7V | 00:00:00 | 01:55:31 | 00:00:00 | |
| DL1CLM-18 | 2026-09-03 08:27:48 | 52.21375 | 9.47168 | 113° | 86km/h | 7220m | -4.9m/s | -25.3°C | 77.0% | 411.4hPa | 2.6V | 07:56:00 | 00:00:00 | 00:00:00 | |
| AM1SDL-15 | 2026-09-03 08:27:47 | 52.21391 | 9.47103 | 112° | 84km/h | 7230m | -4.8m/s | 0°C | 0% | 0hPa | 2.6V | 00:00:00 | 01:55:29 | 00:00:00 | |
| DL1XH-15 | 2026-09-03 08:27:46 | 52.21439 | 9.46913 | 113° | 82km/h | 7259m | -4.9m/s | -25.6°C | 80.4% | 409.2hPa | 2.6V | 07:56:17 | 01:55:23 | 00:00:00 | |
| DL1XH-west | 2026-09-03 08:27:45 | 52.21407 | 9.47038 | 112° | 84km/h | 7240m | -4.8m/s | -25.4°C | 81.8% | 410.2hPa | 2.6V | 07:56:55 | 01:55:27 | 00:00:00 | |
| DF8AY | 2026-09-03 08:27:43 | 52.21423 | 9.46975 | 113° | 82km/h | 7249m | -4.8m/s | -25.5°C | 82.1% | 409.7hPa | 2.6V | 07:56:55 | 01:55:25 | 00:00:00 | |
| AA1-15 | 2026-09-03 08:27:42 | 52.21431 | 9.46944 | 113° | 82km/h | 7254m | -4.9m/s | -25.5°C | 82.2% | 409.4hPa | 2.6V | 07:56:55 | 01:55:24 | 00:00:00 | |
| D01LWL | 2026-09-03 08:27:41 | 52.21448 | 9.46882 | 113° | 80km/h | 7264m | -5.1m/s | -25.6°C | 78.4% | 408.8hPa | 2.6V | 00:00:00 | 00:00:00 | 00:00:00 | |
| DM0DOS-11 | 2026-09-03 08:27:40 | 52.21489 | 9.46717 | 110° | 89km/h | 7289m | -5m/s | -25.8°C | 79.9% | 407.5hPa | 2.6V | 07:56:23 | 01:55:17 | 00:00:00 | |
| DB0DAN | 2026-09-03 08:27:40 | 52.21448 | 9.46882 | 113° | 78km/h | 7264m | -5.1m/s | -25.6°C | 78.4% | 408.81hPa | 2.6V | 00:00:00 | 00:00:00 | 00:00:00 | |
| BIOWL1-15 | 2026-09-03 08:27:39 | 52.21472 | 9.46785 | 112° | 88km/h | 7279m | -4.9m/s | -25.8°C | 82.3% | 408hPa | 2.6V | 07:56:55 | 01:55:19 | 00:00:00 | |
| DL1XH-15 | 2026-09-03 08:27:36 | 52.21519 | 9.46575 | 106° | 93km/h | 7308m | -5m/s | -25.9°C | 79% | 406.4hPa | 2.6V | 07:56:27 | 01:55:13 | 00:00:00 | |
| DO2JMG | 2026-09-03 08:27:34 | 52.21497 | 9.46682 | 111° | 89km/h | 7294m | -5m/s | -25.8°C | 80.9% | 407.1hPa | 2.5V | 07:56:55 | 01:55:16 | 00:00:00 | |
| DF8AY | 2026-09-03 08:27:33 | 52.21505 | 9.46647 | 109° | 91km/h | 7299m | -5.2m/s | -25.9°C | 80.7% | 406.9hPa | 2.6V | 07:56:55 | 01:55:15 | 00:00:00 | |
| AA1-15 | 2026-09-03 08:27:31 | 52.21519 | 9.46575 | 107° | 93km/h | 7308m | -5m/s | -26°C | 80.1% | 406.5hPa | 2.6V | 07:56:55 | 01:55:13 | 00:00:00 | |
| GOEST3-10 | 2026-09-03 08:27:31 | 52.21519 | 9.46575 | 107° | 91km/h | 7309m | -5.0m/s | -25.9°C | 79.0% | 406.4hPa | 2.6V | 00:00:00 | 01:55:13 | 00:00:00 | |
| DL1NUX | 2026-09-03 08:27:29 | 52.21555 | 9.46327 | 100° | 82km/h | 7343m | -4.9m/s | -26.2°C | 78.1% | 404.4hPa | 2.6V | 07:56:34 | 01:55:06 | 00:00:00 | |
| HSKMA3-T | 2026-09-03 08:27:29 | 52.21532 | 9.46503 | 105° | 91km/h | 7319m | -4.8m/s | -26°C | 79.9% | 405.8hPa | 2.6V | 07:56:55 | 01:55:11 | 00:00:00 | |
| BIOWL1-15 | 2026-09-03 08:27:29 | 52.21542 | 9.46430 | 103° | 88km/h | 7328m | -4.8m/s | -26.1°C | 79.4% | 405.3hPa | 2.6V | 07:56:55 | 01:55:09 | 00:00:00 | |
| DB0UT-7 | 2026-09-03 08:27:29 | 52.21532 | 9.46503 | 105° | 78km/h | 7319m | -4.7m/s | -26.0°C | 78.9% | 405.8hPa | 2.6V | 00:00:00 | 01:55:11 | 00:00:00 | |
| DL3OBA | 2026-09-03 08:27:27 | 52.21537 | 9.46466 | 104° | 89km/h | 7323m | -5.1m/s | -26.1°C | 76.4% | 405.5hPa | 2.6V | 07:56:00 | 00:00:00 | 00:00:00 | |
| DB0DAN | 2026-09-03 08:27:25 | 52.21551 | 9.46360 | 102° | 80km/h | 7338m | -4.8m/s | -26.2°C | 76% | 404.68hPa | 2.6V | 00:00:00 | 00:00:00 | 00:00:00 | |
| DO2JMG | 2026-09-03 08:27:23 | 52.21559 | 9.46294 | 101° | 80km/h | 7348m | -5.2m/s | -26.3°C | 79.5% | 404.2hPa | 2.6V | 07:56:55 | 01:55:05 | 00:00:00 | |
| AA1-15 | 2026-09-03 08:27:21 | 52.21567 | 9.46231 | 103° | 77km/h | 7358m | -5.2m/s | -26.3°C | 79.9% | 403.7hPa | 2.6V | 07:56:55 | 01:55:03 | 00:00:00 | |
| DJ2DS-15 | 2026-09-03 08:27:20 | 52.21572 | 9.46201 | 105° | 77km/h | 7363m | -5.0m/s | -26.3°C | 78.7% | 403.3hPa | 2.6V | 00:00:00 | 01:55:02 | 00:00:00 | |
| DO3DL | 2026-09-03 08:27:19 | 52.21572 | 9.46201 | 106° | 75km/h | 7363m | -5.0m/s | -26.3°C | 76.5% | 403.4hPa | 2.6V | 07:56:00 | 00:00:00 | 00:00:00 | |
| DL1NUX | 2026-09-03 08:27:17 | 52.21619 | 9.45971 | 112° | 75km/h | 7402m | -4.7m/s | -26.7°C | 80% | 401.2hPa | 2.6V | 07:56:46 | 01:54:54 | 00:00:00 | |
| BIOWL1-15 | 2026-09-03 08:27:17 | 52.21587 | 9.46114 | 108° | 73km/h | 7377m | -4.7m/s | -26.5°C | 80.8% | 402.6hPa | 2.6V | 07:56:55 | 01:54:59 | 00:00:00 | |
| DF8AY | 2026-09-03 08:27:13 | 52.21612 | 9.46000 | 111° | 75km/h | 7397m | -5m/s | -26.6°C | 81.5% | 401.4hPa | 2.6V | 07:56:55 | 01:54:55 | 00:00:00 | |
| DL1XH-west | 2026-09-03 08:27:12 | 52.21619 | 9.45971 | 112° | 75km/h | 7402m | -4.7m/s | -26.7°C | 81.5% | 401.2hPa | 2.6V | 07:56:55 | 01:54:54 | 00:00:00 | |
| AA1-15 | 2026-09-03 08:27:10 | 52.21634 | 9.45914 | 114° | 77km/h | 7412m | -4.6m/s | -26.8°C | 81.9% | 400.7hPa | 2.6V | 07:56:55 | 01:54:52 | 00:00:00 | |
| DB0DAN | 2026-09-03 08:27:10 | 52.21634 | 9.45914 | 114° | 73km/h | 7412m | -4.6m/s | -26.8°C | 78.3% | 400.67hPa | 2.6V | 00:00:00 | 00:00:00 | 00:00:00 | |
| HSKMA3-T | 2026-09-03 08:27:07 | 52.21656 | 9.45828 | 113° | 77km/h | 7426m | -4.8m/s | -26.9°C | 82.4% | 399.9hPa | 2.6V | 07:56:55 | 01:54:49 | 00:00:00 | |
| DL1NUX | 2026-09-03 08:27:07 | 52.21697 | 9.45680 | 114° | 82km/h | 7448m | -4.6m/s | -27.1°C | 81.4% | 398.6hPa | 2.6V | 07:56:56 | 01:54:44 | 00:00:00 | |
| DL1XH-15 | 2026-09-03 08:27:06 | 52.21706 | 9.45650 | 114° | 82km/h | 7453m | -4.7m/s | -27.1°C | 80.7% | 398.4hPa | 2.6V | 07:56:57 | 01:54:43 | 00:00:00 | |
| BIOWL1-15 | 2026-09-03 08:27:06 | 52.21664 | 9.45799 | 115° | 77km/h | 7430m | -4.4m/s | -26.9°C | 82.6% | 399.6hPa | 2.6V | 07:56:55 | 01:54:48 | 00:00:00 | |
| DO2JMG | 2026-09-03 08:27:02 | 52.21697 | 9.45680 | 114° | 82km/h | 7448m | -4.6m/s | -27.1°C | 83.1% | 398.6hPa | 2.6V | 07:57:46 | 01:54:44 | 00:00:00 | |
| DL1XH-west | 2026-09-03 08:27:01 | 52.21705 | 9.45650 | 114° | 82km/h | 7453m | -4.7m/s | -27.1°C | 82.9% | 398.4hPa | 2.6V | 07:57:46 | 01:54:43 | 00:00:00 | |
| AA1-15 | 2026-09-03 08:27:00 | 52.21714 | 9.45619 | 115° | 84km/h | 7458m | -4.7m/s | -27.2°C | 82.3% | 398.1hPa | 2.6V | 07:57:46 | 01:54:42 | 00:00:00 | |
| DJ2DS-15 | 2026-09-03 08:27:00 | 52.21714 | 9.45619 | 115° | 91km/h | 7458m | -4.7m/s | -27.1°C | 80.0% | 398.0hPa | 2.6V | 00:00:00 | 01:54:42 | 00:00:00 | |
| DB0UT-7 | 2026-09-03 08:26:59 | 52.21723 | 9.45587 | 116° | 88km/h | 7462m | -4.8m/s | -27.2°C | 78.6% | 397.8hPa | 2.6V | 00:00:00 | 00:00:00 | 00:00:00 | |
| DF7ER-10 | 2026-09-03 08:26:58 | 52.21723 | 9.45587 | 117° | 84km/h | 7462m | -4.8m/s | 0°C | 0% | 0hPa | 2.6V | 00:00:00 | 00:00:00 | 00:00:00 | |
| DL1NUX | 2026-09-03 08:26:57 | 52.21784 | 9.45350 | 110° | 93km/h | 7497m | -5m/s | -27.5°C | 79.3% | 395.9hPa | 2.6V | 07:57:06 | 01:54:34 | 00:00:00 | |
| DL3AQ-11 | 2026-09-03 08:26:57 | 52.21750 | 9.45490 | 113° | 88km/h | 7477m | -5.2m/s | -27.3°C | 76.2% | 397.0hPa | 2.6V | 00:00:00 | 00:00:00 | 00:00:00 | |
| DL1XH-15 | 2026-09-03 08:26:56 | 52.21792 | 9.45314 | 107° | 93km/h | 7502m | -4.6m/s | -27.5°C | 79.2% | 395.6hPa | 2.6V | 07:57:07 | 01:54:33 | 00:00:00 | |
| HSKMA3-T | 2026-09-03 08:26:56 | 52.21750 | 9.45490 | 113° | 88km/h | 7478m | -5.2m/s | -27.3°C | 80.9% | 397hPa | 2.6V | 07:57:46 | 01:54:38 | 00:00:00 | |
| BIOWL1-15 | 2026-09-03 08:26:55 | 52.21759 | 9.45456 | 113° | 91km/h | 7483m | -5.1m/s | -27.4°C | 80.9% | 396.7hPa | 2.6V | 07:57:46 | 01:54:37 | 00:00:00 | |
| DB0DAN | 2026-09-03 08:26:55 | 52.21759 | 9.45456 | 113° | 86km/h | 7483m | -5.1m/s | -27.4°C | 76.3% | 396.72hPa | 2.6V | 00:00:00 | 00:00:00 | 00:00:00 | |
| DO2JMG | 2026-09-03 08:26:51 | 52.21792 | 9.45314 | 108° | 93km/h | 7502m | -4.6m/s | -27.5°C | 81.5% | 395.6hPa | 2.6V | 07:57:46 | 01:54:33 | 00:00:00 | |
| DL1XH-west | 2026-09-03 08:26:50 | 52.21799 | 9.45277 | 108° | 93km/h | 7507m | -4.9m/s | -27.6°C | 81.5% | 395.4hPa | 2.6V | 07:57:46 | 01:54:32 | 00:00:00 | |
| AA1-15 | 2026-09-03 08:26:49 | 52.21806 | 9.45240 | 107° | 95km/h | 7512m | -5.1m/s | -27.6°C | 81.3% | 395.1hPa | 2.6V | 07:57:46 | 01:54:31 | 00:00:00 | |
| DO9LL-15 | 2026-09-03 08:26:49 | 52.21806 | 9.45240 | 107° | 86km/h | 7512m | -5.1m/s | -27.5°C | 78.9% | 395.1hPa | 2.6V | 00:00:00 | 01:54:31 | 00:00:00 | |
| DO2SHX-10 | 2026-09-03 08:26:48 | 52.21813 | 9.45203 | 108° | 95km/h | 7517m | -5.0m/s | -27.6°C | 79.1% | 394.8hPa | 2.6V | 00:00:00 | 01:54:30 | 00:00:00 | |
| DL1NUX | 2026-09-03 08:26:47 | 52.21849 | 9.44980 | 102° | 89km/h | 7546m | -4.7m/s | -27.9°C | 81% | 393.2hPa | 2.6V | 07:57:16 | 01:54:24 | 00:00:00 | |
| DL1XH-15 | 2026-09-03 08:26:46 | 52.21853 | 9.44944 | 101° | 88km/h | 7551m | -4.4m/s | -27.9°C | 81.3% | 392.9hPa | 2.6V | 07:57:17 | 01:54:23 | 00:00:00 | |
| HSKMA3-T | 2026-09-03 08:26:45 | 52.21833 | 9.45091 | 104° | 93km/h | 7532m | -5m/s | -27.8°C | 81.1% | 394hPa | 2.6V | 07:57:46 | 01:54:27 | 00:00:00 | |
| DO2JMG | 2026-09-03 08:26:41 | 52.21853 | 9.44945 | 102° | 88km/h | 7551m | -4.4m/s | -28°C | 82% | 392.9hPa | 2.6V | 07:57:46 | 01:54:23 | 00:00:00 | |
| DL1XH-west | 2026-09-03 08:26:40 | 52.21858 | 9.44909 | 102° | 88km/h | 7555m | -4.7m/s | -28°C | 82.2% | 392.8hPa | 2.6V | 07:57:46 | 01:54:22 | 00:00:00 | |
| DB0DAN | 2026-09-03 08:26:40 | 52.21858 | 9.44909 | 102° | 82km/h | 7555m | -4.7m/s | -28°C | 78.8% | 392.76hPa | 2.6V | 00:00:00 | 00:00:00 | 00:00:00 | |
| AA1-15 | 2026-09-03 08:26:38 | 52.21867 | 9.44842 | 103° | 82km/h | 7565m | -4.2m/s | -28.1°C | 82.6% | 392.2hPa | 2.6V | 07:57:46 | 01:54:20 | 00:00:00 | |
| DO2SHX-10 | 2026-09-03 08:26:38 | 52.21867 | 9.44842 | 104° | 80km/h | 7565m | -4.2m/s | -28.0°C | 81.4% | 392.1hPa | 2.5V | 00:00:00 | 01:54:20 | 00:00:00 | |
| DL1XH-15 | 2026-09-03 08:26:36 | 52.21906 | 9.44621 | 110° | 80km/h | 7598m | -5m/s | -28.3°C | 82.8% | 390.4hPa | 2.5V | 07:57:27 | 01:54:13 | 00:00:00 | |
| HSKMA3-T | 2026-09-03 08:26:34 | 52.21887 | 9.44715 | 106° | 78km/h | 7583m | -5.2m/s | -28.2°C | 83.3% | 391.1hPa | 2.6V | 07:57:46 | 01:54:16 | 00:00:00 | |
| DF8AY | 2026-09-03 08:26:30 | 52.21914 | 9.44590 | 112° | 82km/h | 7603m | -5m/s | -28.3°C | 84.2% | 390.2hPa | 2.6V | 07:57:46 | 01:54:12 | 00:00:00 | |
| DL1XH-west | 2026-09-03 08:26:29 | 52.21922 | 9.44559 | 114° | 84km/h | 7608m | -4.5m/s | -28.4°C | 84.4% | 389.8hPa | 2.6V | 07:57:46 | 01:54:11 | 00:00:00 | |
| AA1-15 | 2026-09-03 08:26:28 | 52.21931 | 9.44527 | 113° | 84km/h | 7612m | -4.7m/s | -28.4°C | 84.7% | 389.6hPa | 2.6V | 07:57:46 | 01:54:10 | 00:00:00 | |
| DF5WG-10 | 2026-09-03 08:26:28 | 52.21930 | 9.44527 | 114° | 84km/h | 7612m | -4.7m/s | -28.4°C | 83.6% | 389.5hPa | 2.6V | 00:00:00 | 01:54:10 | 00:00:00 | |
| DB0DAN | 2026-09-03 08:26:25 | 52.21955 | 9.44431 | 111° | 80km/h | 7626m | -4.8m/s | -28.5°C | 82% | 388.8hPa | 2.6V | 00:00:00 | 00:00:00 | 00:00:00 | |
| BIOWL1-15 | 2026-09-03 08:26:24 | 52.21963 | 9.44399 | 110° | 82km/h | 7631m | -4.7m/s | -28.5°C | 85.9% | 388.6hPa | 2.6V | 07:57:46 | 01:54:06 | 00:00:00 | |
| SONDE2-11 | 2026-09-03 08:26:24 | 52.21970 | 9.44367 | 109° | 80km/h | 7636m | -4.8m/s | -28.6°C | 82.3% | 388.3hPa | 2.5V | 00:00:00 | 00:00:00 | 00:00:00 | |
| DF8AY-15 | 2026-09-03 08:26:23 | 52.21970 | 9.44367 | 110° | 82km/h | 7636m | -4.7m/s | -28.5°C | 84.8% | 388.3hPa | 2.5V | 00:00:00 | 01:54:05 | 00:00:00 | |
| SO1NDE-10 | 2026-09-03 08:26:22 | 52.21977 | 9.44335 | 109° | 86km/h | 7640m | -5.2m/s | -28.5°C | 84.8% | 387.9hPa | 2.5V | 00:00:00 | 01:54:04 | 00:00:00 | |
| BIOWL7-15 | 2026-09-03 08:26:21 | 52.21976 | 9.44335 | 109° | 82km/h | 7640m | -5.2m/s | -28.6°C | 82.3% | 388.0hPa | 2.5V | 07:57:00 | 00:00:00 | 00:00:00 | |
| DM0DOS-11 | 2026-09-03 08:26:20 | 52.22021 | 9.44113 | 106° | 82km/h | 7674m | -5m/s | -28.8°C | 85.9% | 386.2hPa | 2.5V | 07:57:43 | 01:53:57 | 00:00:00 | |
| DF8AY | 2026-09-03 08:26:20 | 52.21989 | 9.44272 | 108° | 80km/h | 7650m | -4.9m/s | -28.7°C | 86.7% | 387.5hPa | 2.5V | 07:57:46 | 01:54:02 | 00:00:00 | |
| DL1XH-west | 2026-09-03 08:26:19 | 52.21996 | 9.44240 | 109° | 80km/h | 7655m | -5m/s | -28.7°C | 86.9% | 387.2hPa | 2.6V | 07:57:46 | 01:54:01 | 00:00:00 | |
| DO2JMG | 2026-09-03 08:26:18 | 52.22002 | 9.44209 | 108° | 80km/h | 7660m | -4.6m/s | -28.7°C | 87% | 387hPa | 2.6V | 07:57:46 | 01:54:00 | 00:00:00 | |
| AA1-15 | 2026-09-03 08:26:17 | 52.22009 | 9.44177 | 109° | 82km/h | 7664m | -4.6m/s | -28.8°C | 87% | 386.8hPa | 2.6V | 07:57:46 | 01:53:59 | 00:00:00 | |
| BIOWL1-15 | 2026-09-03 08:26:13 | 52.22033 | 9.44049 | 108° | 82km/h | 7683m | -4.6m/s | -28.9°C | 87% | 385.6hPa | 2.6V | 07:57:46 | 01:53:55 | 00:00:00 | |
| DO3DL | 2026-09-03 08:26:12 | 52.22033 | 9.44049 | 109° | 82km/h | 7683m | -4.6m/s | -28.9°C | 83.5% | 385.7hPa | 2.5V | 00:00:00 | 00:00:00 | 00:00:00 | |
| DO2SHX-10 | 2026-09-03 08:26:11 | 52.22045 | 9.43985 | 108° | 80km/h | 7693m | -4.7m/s | -28.9°C | 86.3% | 385.1hPa | 2.5V | 00:00:00 | 01:53:53 | 00:00:00 | |
| DM0DOS-11 | 2026-09-03 08:26:10 | 52.22088 | 9.43797 | 111° | 84km/h | 7722m | -4.9m/s | -29.1°C | 86.5% | 383.6hPa | 2.5V | 07:57:53 | 01:53:47 | 00:00:00 | |
| DF8AY | 2026-09-03 08:26:10 | 52.22052 | 9.43954 | 109° | 80km/h | 7697m | -5m/s | -29°C | 87.1% | 384.9hPa | 2.6V | 07:58:37 | 01:53:52 | 00:00:00 | |
| DB0DAN | 2026-09-03 08:26:10 | 52.22052 | 9.43954 | 109° | 77km/h | 7697m | -5m/s | -29°C | 83.8% | 384.94hPa | 2.6V | 00:00:00 | 00:00:00 | 00:00:00 | |
| DL1XH-west | 2026-09-03 08:26:08 | 52.22065 | 9.43891 | 110° | 80km/h | 7707m | -5m/s | -29°C | 86.8% | 384.4hPa | 2.6V | 07:58:37 | 01:53:50 | 00:00:00 | |
| DO2SHX-10 | 2026-09-03 08:26:08 | 52.22065 | 9.43891 | 111° | 82km/h | 7707m | -5.0m/s | -29.0°C | 86.0% | 384.4hPa | 2.6V | 00:00:00 | 01:53:50 | 00:00:00 | |
| DL1NUX | 2026-09-03 08:26:07 | 52.22113 | 9.43699 | 112° | 88km/h | 7737m | -5.2m/s | -29.2°C | 87.9% | 382.9hPa | 2.6V | 07:57:56 | 01:53:44 | 00:00:00 | |
| DO2JMG | 2026-09-03 08:26:07 | 52.22073 | 9.43860 | 111° | 80km/h | 7712m | -5m/s | -29°C | 86.5% | 384.1hPa | 2.6V | 07:58:37 | 01:53:49 | 00:00:00 | |
| AA1-15 | 2026-09-03 08:26:06 | 52.22080 | 9.43829 | 111° | 82km/h | 7717m | -5.1m/s | -29.1°C | 86.4% | 383.9hPa | 2.5V | 07:58:37 | 01:53:48 | 00:00:00 | |
| HSKMA3-T | 2026-09-03 08:26:03 | 52.22104 | 9.43732 | 112° | 88km/h | 7732m | -5m/s | -29.2°C | 87% | 383.1hPa | 2.6V | 07:58:37 | 01:53:45 | 00:00:00 | |
| BIOWL1-15 | 2026-09-03 08:26:02 | 52.22113 | 9.43699 | 113° | 88km/h | 7737m | -5.2m/s | -29.3°C | 87.3% | 382.9hPa | 2.6V | 07:58:37 | 01:53:44 | 00:00:00 | |
| DF8AY | 2026-09-03 08:25:59 | 52.22138 | 9.43597 | 112° | 89km/h | 7752m | -4.9m/s | -29.4°C | 88.3% | 382hPa | 2.6V | 07:58:37 | 01:53:41 | 00:00:00 | |
| DD8BA-10 | 2026-09-03 08:25:59 | 52.22138 | 9.43597 | 112° | 95km/h | 7752m | -4.8m/s | -29.3°C | 89.3% | 382.0hPa | 2.6V | 00:00:00 | 00:00:00 | 00:00:00 | |
| DO2SHX-10 | 2026-09-03 08:25:58 | 52.22147 | 9.43562 | 112° | 89km/h | 7757m | -4.3m/s | -29.4°C | 89.8% | 381.7hPa | 2.6V | 00:00:00 | 01:53:40 | 00:00:00 | |
| DL1NUX | 2026-09-03 08:25:57 | 52.22200 | 9.43348 | 111° | 100km/h | 7785m | -5.3m/s | -29.7°C | 86.8% | 380.2hPa | 2.6V | 07:58:06 | 01:53:34 | 00:00:00 | |
| DL1XH-west | 2026-09-03 08:25:57 | 52.22155 | 9.43528 | 112° | 89km/h | 7761m | -4.6m/s | -29.5°C | 89.3% | 381.5hPa | 2.6V | 07:58:37 | 01:53:39 | 00:00:00 | |
| DO2JMG | 2026-09-03 08:25:56 | 52.22164 | 9.43494 | 112° | 91km/h | 7766m | -4.4m/s | -29.5°C | 89.5% | 381.3hPa | 2.5V | 07:58:37 | 01:53:38 | 00:00:00 | |
| DB0DAN | 2026-09-03 08:25:55 | 52.22172 | 9.43459 | 112° | 89km/h | 7770m | -4.5m/s | -29.6°C | 86.9% | 381.03hPa | 2.6V | 00:00:00 | 00:00:00 | 00:00:00 | |
| BIOWL1-15 | 2026-09-03 08:25:52 | 52.22200 | 9.43348 | 112° | 100km/h | 7785m | -5.3m/s | -29.7°C | 87.8% | 380.2hPa | 2.6V | 07:58:37 | 01:53:34 | 00:00:00 | |
| DO2SHX-10 | 2026-09-03 08:25:52 | 52.22200 | 9.43348 | 112° | 100km/h | 7785m | -5.3m/s | -29.6°C | 86.8% | 380.2hPa | 2.5V | 00:00:00 | 01:53:34 | 00:00:00 | |
| DC6BW-12 | 2026-09-03 08:25:51 | 52.22200 | 9.43348 | 113° | 100km/h | 7785m | -5.3m/s | -29.7°C | 84.2% | 380.2hPa | 2.5V | 07:58:00 | 00:00:00 | 00:00:00 | |
| DM0DOS-11 | 2026-09-03 08:25:50 | 52.22265 | 9.43069 | 109° | 108km/h | 7821m | -5.3m/s | -29.2°C | 82.2% | 378.3hPa | 2.5V | 07:58:13 | 01:53:27 | 00:00:00 | |
| DF8AY | 2026-09-03 08:25:48 | 52.22238 | 9.43192 | 110° | 104km/h | 7806m | -5.1m/s | -29.5°C | 85.8% | 379.2hPa | 2.6V | 07:58:37 | 01:53:30 | 00:00:00 | |
| DL1NUX | 2026-09-03 08:25:47 | 52.22293 | 9.42943 | 109° | 110km/h | 7837m | -5.2m/s | -29.4°C | 83.7% | 377.5hPa | 2.6V | 07:58:16 | 01:53:24 | 00:00:00 | |
| DO2JMG | 2026-09-03 08:25:46 | 52.22256 | 9.43111 | 110° | 106km/h | 7816m | -5.2m/s | -29.4°C | 85.5% | 378.7hPa | 2.6V | 07:58:37 | 01:53:28 | 00:00:00 | |
| BIOWL1-15 | 2026-09-03 08:25:41 | 52.22302 | 9.42901 | 110° | 110km/h | 7842m | -5.3m/s | -29.5°C | 85.5% | 377.3hPa | 2.6V | 07:58:37 | 01:53:23 | 00:00:00 | |
| HSKMA3-T | 2026-09-03 08:25:40 | 52.22312 | 9.42859 | 110° | 110km/h | 7847m | -5.2m/s | -29.5°C | 85.4% | 377hPa | 2.6V | 07:58:37 | 01:53:22 | 00:00:00 | |
| DB0DAN | 2026-09-03 08:25:40 | 52.22312 | 9.42859 | 110° | 104km/h | 7847m | -5.2m/s | -29.5°C | 81.7% | 377hPa | 2.6V | 00:00:00 | 00:00:00 | 00:00:00 | |
| DF8AY | 2026-09-03 08:25:38 | 52.22331 | 9.42773 | 109° | 111km/h | 7857m | -5m/s | -29.6°C | 85.3% | 376.4hPa | 2.6V | 07:58:37 | 01:53:20 | 00:00:00 | |
| DF5WG-10 | 2026-09-03 08:25:37 | 52.22339 | 9.42730 | 109° | 115km/h | 7863m | -4.7m/s | -29.6°C | 85.1% | 376.1hPa | 2.6V | 07:58:00 | 01:53:19 | 00:00:00 | |
| DL1XH-15 | 2026-09-03 08:25:36 | 52.22388 | 9.42459 | 104° | 115km/h | 7891m | -4.9m/s | -29.9°C | 88.2% | 374.6hPa | 2.6V | 07:58:27 | 01:53:13 | 00:00:00 | |
| DL1XH-west | 2026-09-03 08:25:36 | 52.22348 | 9.42686 | 107° | 113km/h | 7867m | -4.7m/s | -29.7°C | 85.2% | 375.9hPa | 2.5V | 07:58:37 | 01:53:18 | 00:00:00 | |
| DO2JMG | 2026-09-03 08:25:35 | 52.22357 | 9.42641 | 107° | 113km/h | 7872m | -4.8m/s | -29.7°C | 85.2% | 375.6hPa | 2.6V | 07:58:37 | 01:53:17 | 00:00:00 | |
| BIOWL1-15 | 2026-09-03 08:25:31 | 52.22388 | 9.42459 | 105° | 115km/h | 7891m | -4.9m/s | -29.9°C | 86.3% | 374.6hPa | 2.6V | 07:58:37 | 01:53:13 | 00:00:00 | |
| DM0DOS-11 | 2026-09-03 08:25:30 | 52.22428 | 9.42183 | 101° | 111km/h | 7919m | -4.7m/s | -29.8°C | 81.7% | 373.2hPa | 2.6V | 07:58:33 | 01:53:07 | 00:00:00 | |
| DF8AY | 2026-09-03 08:25:28 | 52.22409 | 9.42320 | 103° | 115km/h | 7905m | -4.7m/s | -29.7°C | 85.8% | 373.9hPa | 2.6V | 07:58:37 | 01:53:10 | 00:00:00 | |
| DO2SHX-10 | 2026-09-03 08:25:28 | 52.22409 | 9.42320 | 104° | 113km/h | 7906m | -4.7m/s | -29.7°C | 83.9% | 373.9hPa | 2.6V | 00:00:00 | 01:53:10 | 00:00:00 | |
| DF5WG-10 | 2026-09-03 08:25:27 | 52.22416 | 9.42274 | 103° | 106km/h | 7910m | -4.6m/s | -29.7°C | 82.9% | 373.7hPa | 2.6V | 00:00:00 | 01:53:09 | 00:00:00 | |
| DL1XH-15 | 2026-09-03 08:25:26 | 52.22451 | 9.42005 | 101° | 110km/h | 7939m | -4.8m/s | -29.9°C | 80.8% | 372.2hPa | 2.6V | 07:58:37 | 01:53:03 | 00:00:00 | |
| AA1-15 | 2026-09-03 08:25:26 | 52.22422 | 9.42229 | 102° | 113km/h | 7915m | -4.6m/s | -29.8°C | 84.7% | 373.5hPa | 2.6V | 07:58:37 | 01:53:08 | 00:00:00 | |
| DL1XH-west | 2026-09-03 08:25:25 | 52.22428 | 9.42183 | 102° | 111km/h | 7919m | -4.7m/s | -29.8°C | 84% | 373.2hPa | 2.6V | 07:58:37 | 01:53:07 | 00:00:00 | |
| DB0DAN | 2026-09-03 08:25:25 | 52.22428 | 9.42183 | 102° | 106km/h | 7919m | -4.7m/s | -29.8°C | 79.1% | 373.17hPa | 2.6V | 00:00:00 | 00:00:00 | 00:00:00 | |
| BIOWL1-15 | 2026-09-03 08:25:22 | 52.22456 | 9.41961 | 101° | 108km/h | 7944m | -5.1m/s | -29.9°C | 82.8% | 372hPa | 2.5V | 07:59:28 | 01:53:02 | 00:00:00 | |
| SONDE2-11 | 2026-09-03 08:25:22 | 52.22450 | 9.42005 | 101° | 108km/h | 7939m | -4.8m/s | -29.9°C | 78.2% | 372.2hPa | 2.5V | 00:00:00 | 00:00:00 | 00:00:00 | |
| DM0DOS-11 | 2026-09-03 08:25:20 | 52.22482 | 9.41750 | 101° | 102km/h | 7968m | -5m/s | -30.1°C | 83.1% | 370.7hPa | 2.5V | 07:58:43 | 01:52:57 | 00:00:00 | |
| DJ2DS-15 | 2026-09-03 08:25:20 | 52.22456 | 9.41961 | 102° | 100km/h | 7944m | -5.1m/s | -29.8°C | 81.4% | 371.9hPa | 2.5V | 07:58:00 | 01:53:02 | 00:00:00 | |
| DD8BA-10 | 2026-09-03 08:25:19 | 52.22461 | 9.41918 | 102° | 100km/h | 7949m | -4.8m/s | -29.9°C | 81.8% | 371.7hPa | 2.6V | 00:00:00 | 00:00:00 | 00:00:00 | |
| DL1NUX | 2026-09-03 08:25:17 | 52.22498 | 9.41630 | 102° | 99km/h | 7982m | -4.8m/s | -30.2°C | 84.7% | 370hPa | 2.6V | 07:58:46 | 01:52:54 | 00:00:00 | |
| HSKMA3-T | 2026-09-03 08:25:17 | 52.22471 | 9.41833 | 101° | 104km/h | 7958m | -4.8m/s | -30°C | 83.8% | 371.1hPa | 2.6V | 07:59:28 | 01:52:59 | 00:00:00 | |
| DO9LL-15 | 2026-09-03 08:25:17 | 52.22471 | 9.41833 | 102° | 104km/h | 7958m | -4.8m/s | -30.0°C | 82.5% | 371.1hPa | 2.6V | 00:00:00 | 01:52:59 | 00:00:00 | |
| DL1XH-15 | 2026-09-03 08:25:16 | 52.22503 | 9.41590 | 102° | 97km/h | 7987m | -4.8m/s | -30.3°C | 84.7% | 369.6hPa | 2.6V | 07:58:47 | 01:52:53 | 00:00:00 | |
| DO2JMG | 2026-09-03 08:25:15 | 52.22482 | 9.41750 | 102° | 102km/h | 7968m | -5.1m/s | -30.1°C | 84.7% | 370.7hPa | 2.5V | 08:01:10 | 01:52:57 | 00:00:00 | |
| DL1XH-west | 2026-09-03 08:25:14 | 52.22487 | 9.41710 | 102° | 100km/h | 7973m | -4.6m/s | -30.1°C | 85.3% | 370.4hPa | 2.5V | 07:59:28 | 01:52:56 | 00:00:00 | |
| BIOWL1-15 | 2026-09-03 08:25:11 | 52.22515 | 9.41513 | 105° | 97km/h | 7997m | -4.9m/s | -30.4°C | 87.8% | 369.2hPa | 2.5V | 07:59:28 | 01:52:51 | 00:00:00 | |
| SMARD9-15 | 2026-09-03 08:25:11 | 52.22509 | 9.41551 | 103° | 97km/h | 7992m | -5.0m/s | -30.3°C | 82.1% | 369.4hPa | 2.6V | 00:00:00 | 00:00:00 | 00:00:00 | |
| DM0DOS-11 | 2026-09-03 08:25:10 | 52.22544 | 9.41361 | 109° | 97km/h | 8016m | -4.9m/s | -30.5°C | 85.5% | 368.2hPa | 2.6V | 07:58:53 | 01:52:47 | 00:00:00 | |
| DB0DAN | 2026-09-03 08:25:10 | 52.22509 | 9.41551 | 104° | 93km/h | 7992m | -5m/s | -30.3°C | 82.1% | 369.42hPa | 2.6V | 00:00:00 | 00:00:00 | 00:00:00 | |
| DF8AY | 2026-09-03 08:25:07 | 52.22529 | 9.41436 | 108° | 97km/h | 8006m | -4.7m/s | -30.5°C | 88.1% | 368.7hPa | 2.6V | 07:59:28 | 01:52:49 | 00:00:00 | |
| DO2SHX-10 | 2026-09-03 08:25:07 | 52.22529 | 9.41436 | 108° | 97km/h | 8006m | -4.6m/s | -30.4°C | 84.8% | 368.7hPa | 2.6V | 00:00:00 | 01:52:49 | 00:00:00 | |
| DL1XH-15 | 2026-09-03 08:25:06 | 52.22579 | 9.41209 | 111° | 100km/h | 8035m | -4.8m/s | -30.7°C | 86.9% | 367.2hPa | 2.6V | 07:58:57 | 01:52:43 | 00:00:00 | |
| HSKMA3-T | 2026-09-03 08:25:05 | 52.22545 | 9.41361 | 109° | 97km/h | 8016m | -4.9m/s | -30.5°C | 88.5% | 368.2hPa | 2.6V | 07:59:28 | 01:52:47 | 00:00:00 | |
| AA1-15 | 2026-09-03 08:25:04 | 52.22553 | 9.41323 | 110° | 97km/h | 8021m | -4.9m/s | -30.6°C | 88.7% | 368hPa | 2.6V | 07:59:28 | 01:52:46 | 00:00:00 | |
| DL1XH-west | 2026-09-03 08:25:03 | 52.22561 | 9.41285 | 110° | 97km/h | 8026m | -4.8m/s | -30.6°C | 88.9% | 367.8hPa | 2.5V | 07:59:28 | 01:52:45 | 00:00:00 | |
| DL4XJ-10 | 2026-09-03 08:25:03 | 52.22561 | 9.41285 | 111° | 110km/h | 8026m | -4.8m/s | -29.4°C | 0% | 0hPa | 2.6V | 00:00:00 | 00:00:00 | 00:00:00 | |
| BUE01 | 2026-09-03 08:25:01 | 52.22579 | 9.41209 | 111° | 99km/h | 8035m | -4.8m/s | -30.7°C | 84.1% | 367.2hPa | 2.6V | 00:00:00 | 00:00:00 | 00:00:00 | |
| DM0DOS-11 | 2026-09-03 08:25:00 | 52.22638 | 9.40964 | 109° | 113km/h | 8064m | -4.8m/s | -31°C | 88.1% | 365.7hPa | 2.6V | 07:59:03 | 01:52:37 | 00:00:00 | |
| BIOWL1-15 | 2026-09-03 08:25:00 | 52.22608 | 9.41091 | 112° | 108km/h | 8050m | -4.7m/s | -30.9°C | 89.5% | 366.5hPa | 2.6V | 07:59:28 | 01:52:40 | 00:00:00 | |
| DJ2DS-15 | 2026-09-03 08:25:00 | 52.22588 | 9.41171 | 112° | 111km/h | 8040m | -4.8m/s | -30.7°C | 87.0% | 366.8hPa | 2.5V | 00:00:00 | 01:52:42 | 00:00:00 | |
| DB0UT-7 | 2026-09-03 08:24:59 | 52.22598 | 9.41131 | 112° | 108km/h | 8045m | -4.7m/s | -30.8°C | 87.4% | 366.6hPa | 2.5V | 00:00:00 | 00:00:00 | 00:00:00 | |
| DL1NUX | 2026-09-03 08:24:57 | 52.22664 | 9.40830 | 107° | 115km/h | 8079m | -4.8m/s | -31.1°C | 89.3% | 365hPa | 2.5V | 07:59:06 | 01:52:34 | 00:00:00 | |
| DL3AQ-11 | 2026-09-03 08:24:57 | 52.22628 | 9.41007 | 110° | 110km/h | 8059m | -4.9m/s | -31.0°C | 85.2% | 365.9hPa | 2.6V | 00:00:00 | 00:00:00 | 00:00:00 | |
| DB0DAN | 2026-09-03 08:24:55 | 52.22637 | 9.40964 | 109° | 108km/h | 8064m | -4.8m/s | -31°C | 85.3% | 365.69hPa | 2.6V | 00:00:00 | 00:00:00 | 00:00:00 | |
| DO2JMG | 2026-09-03 08:24:54 | 52.22647 | 9.40919 | 108° | 113km/h | 8069m | -4.7m/s | -31°C | 89.7% | 365.4hPa | 2.5V | 08:01:10 | 01:52:36 | 00:00:00 | |
| AA1-15 | 2026-09-03 08:24:53 | 52.22656 | 9.40875 | 108° | 115km/h | 8074m | -5.1m/s | -31.1°C | 89.8% | 365.1hPa | 2.5V | 07:59:28 | 01:52:35 | 00:00:00 | |
| DL1XH-west | 2026-09-03 08:24:52 | 52.22664 | 9.40830 | 107° | 115km/h | 8079m | -4.8m/s | -31.1°C | 90% | 365hPa | 2.5V | 07:59:28 | 01:52:34 | 00:00:00 | |
| DF8AY | 2026-09-03 08:24:51 | 52.22673 | 9.40784 | 107° | 115km/h | 8084m | -4.9m/s | -31.2°C | 90.4% | 364.8hPa | 2.6V | 07:59:28 | 01:52:33 | 00:00:00 | |
| DO2SHX-10 | 2026-09-03 08:24:51 | 52.22673 | 9.40784 | 107° | 115km/h | 8084m | -4.8m/s | -31.1°C | 89.7% | 364.7hPa | 2.6V | 07:59:00 | 01:52:33 | 00:00:00 | |
| DM0DOS-11 | 2026-09-03 08:24:50 | 52.22717 | 9.40513 | 102° | 111km/h | 8112m | -4.6m/s | -31.4°C | 90.9% | 363.2hPa | 2.6V | 07:59:13 | 01:52:27 | 00:00:00 | |
| BIOWL1-15 | 2026-09-03 08:24:49 | 52.22704 | 9.40603 | 104° | 113km/h | 8102m | -4.8m/s | -31.3°C | 91.7% | 363.8hPa | 2.5V | 07:59:28 | 01:52:29 | 00:00:00 | |
| DD8BA-10 | 2026-09-03 08:24:49 | 52.22689 | 9.40693 | 106° | 111km/h | 8093m | -4.7m/s | -31.2°C | 90.3% | 364.1hPa | 2.5V | 00:00:00 | 00:00:00 | 00:00:00 | |
| DO2SHX-10 | 2026-09-03 08:24:48 | 52.22697 | 9.40648 | 105° | 113km/h | 8098m | -4.7m/s | -31.2°C | 90.6% | 363.9hPa | 2.5V | 00:00:00 | 01:52:30 | 00:00:00 | |
| DL1NUX | 2026-09-03 08:24:47 | 52.22734 | 9.40380 | 101° | 108km/h | 8127m | -5m/s | -31.6°C | 91.3% | 362.5hPa | 2.5V | 07:59:16 | 01:52:24 | 00:00:00 | |
| EDDB2-12 | 2026-09-03 08:24:46 | 52.22710 | 9.40558 | 103° | 111km/h | 8107m | -4.7m/s | -31.4°C | 87.9% | 363.4hPa | 2.6V | 00:00:00 | 00:00:00 | 00:00:00 | |
| BIOWL9-15 | 2026-09-03 08:24:45 | 52.22723 | 9.40469 | 102° | 110km/h | 8117m | -4.7m/s | -31.5°C | 88.2% | 363.0hPa | 2.6V | 00:00:00 | 00:00:00 | 00:00:00 | |
| DL1XH-15 | 2026-09-03 08:24:44 | 52.22750 | 9.40251 | 100° | 104km/h | 8142m | -5m/s | -31.7°C | 91.9% | 361.8hPa | 2.6V | 07:59:19 | 01:52:21 | 00:00:00 | |
| DL1XH-west | 2026-09-03 08:24:42 | 52.22734 | 9.40380 | 102° | 108km/h | 8127m | -5m/s | -31.6°C | 92.6% | 362.5hPa | 2.5V | 07:59:28 | 01:52:24 | 00:00:00 | |
| DB0DAN | 2026-09-03 08:24:40 | 52.22745 | 9.40294 | 101° | 100km/h | 8136m | -4.9m/s | -31.7°C | 88.8% | 361.9hPa | 2.6V | 00:00:00 | 00:00:00 | 00:00:00 | |
| HSKMA3-T | 2026-09-03 08:24:39 | 52.22750 | 9.40251 | 101° | 104km/h | 8142m | -5m/s | -31.7°C | 93% | 361.8hPa | 2.6V | 07:59:28 | 01:52:21 | 00:00:00 | |
| DD8BA-10 | 2026-09-03 08:24:39 | 52.22750 | 9.40251 | 101° | 99km/h | 8142m | -5.0m/s | -31.6°C | 91.9% | 361.7hPa | 2.6V | 00:00:00 | 00:00:00 | 00:00:00 | |
| DO2KSM | 2026-09-03 08:24:38 | 52.22750 | 9.40251 | 102° | 104km/h | 8142m | -5.0m/s | -31.7°C | 88.9% | 361.8hPa | 2.6V | 07:59:00 | 00:00:00 | 00:00:00 | |
| DL1NUX | 2026-09-03 08:24:37 | 52.22789 | 9.39973 | 106° | 95km/h | 8175m | -4.8m/s | -32°C | 93.8% | 360hPa | 2.6V | 07:59:26 | 01:52:14 | 00:00:00 | |
| BIOWL1-15 | 2026-09-03 08:24:36 | 52.22765 | 9.40128 | 102° | 99km/h | 8156m | -4.9m/s | -31.8°C | 94.3% | 360.9hPa | 2.5V | 07:59:28 | 01:52:18 | 00:00:00 | |
| GOEST3-10 | 2026-09-03 08:24:35 | 52.22771 | 9.40088 | 104° | 97km/h | 8161m | -4.7m/s | -31.8°C | 93.3% | 360.8hPa | 2.5V | 00:00:00 | 00:00:00 | 00:00:00 | |
| DL1XH-15 | 2026-09-03 08:24:34 | 52.22812 | 9.39861 | 109° | 97km/h | 8189m | -4.7m/s | -32.1°C | 94% | 359.3hPa | 2.5V | 07:59:29 | 01:52:11 | 00:00:00 | |
| AA1-15 | 2026-09-03 08:24:32 | 52.22789 | 9.39973 | 107° | 95km/h | 8175m | -4.8m/s | -32°C | 96.2% | 360hPa | 2.6V | 07:59:28 | 01:52:14 | 00:00:00 | |
| DL1XH-west | 2026-09-03 08:24:31 | 52.22796 | 9.39936 | 108° | 95km/h | 8180m | -4.7m/s | -32.1°C | 96.5% | 359.8hPa | 2.6V | 07:59:28 | 01:52:13 | 00:00:00 | |
| DL3AQ-11 | 2026-09-03 08:24:30 | 52.22812 | 9.39861 | 109° | 95km/h | 8189m | -4.7m/s | -32.2°C | 91.0% | 359.3hPa | 2.5V | 00:00:00 | 00:00:00 | 00:00:00 | |
| DB0UT-7 | 2026-09-03 08:24:29 | 52.22812 | 9.39861 | 110° | 111km/h | 8189m | -4.7m/s | -32.1°C | 94.0% | 359.3hPa | 2.5V | 00:00:00 | 01:52:11 | 00:00:00 | |
| EDDB2-11 | 2026-09-03 08:24:28 | 52.22830 | 9.39786 | 111° | 99km/h | 8199m | -4.8m/s | -32.2°C | 90.2% | 358.8hPa | 2.5V | 00:00:00 | 00:00:00 | 00:00:00 | |
| DL1NUX | 2026-09-03 08:24:27 | 52.22879 | 9.39588 | 111° | 110km/h | 8223m | -4.8m/s | -32.4°C | 94.6% | 357.6hPa | 2.5V | 07:59:36 | 01:52:04 | 00:00:00 | |
| BIOWL1-15 | 2026-09-03 08:24:26 | 52.22839 | 9.39748 | 112° | 100km/h | 8204m | -5m/s | -32.3°C | 96.8% | 358.5hPa | 2.5V | 08:00:19 | 01:52:08 | 00:00:00 | |
| DF8AY | 2026-09-03 08:24:25 | 52.22849 | 9.39710 | 112° | 102km/h | 8209m | -5.1m/s | -32.3°C | 96.7% | 358.4hPa | 2.6V | 08:00:19 | 01:52:07 | 00:00:00 | |
| DB0DAN | 2026-09-03 08:24:25 | 52.22849 | 9.39710 | 112° | 97km/h | 8209m | -5.1m/s | -32.3°C | 90.9% | 358.38hPa | 2.6V | 00:00:00 | 00:00:00 | 00:00:00 | |
| DL1XH-15 | 2026-09-03 08:24:24 | 52.22909 | 9.39457 | 109° | 115km/h | 8237m | -4.8m/s | -32.5°C | 94.3% | 356.9hPa | 2.6V | 07:59:39 | 01:52:01 | 00:00:00 | |
| HSKMA3-T | 2026-09-03 08:24:23 | 52.22869 | 9.39630 | 112° | 108km/h | 8218m | -4.6m/s | -32.4°C | 96.2% | 357.8hPa | 2.6V | 08:01:10 | 01:52:05 | 00:00:00 | |
| AA1-15 | 2026-09-03 08:24:22 | 52.22879 | 9.39588 | 111° | 110km/h | 8223m | -4.8m/s | -32.4°C | 96.1% | 357.6hPa | 2.5V | 08:00:19 | 01:52:04 | 00:00:00 | |
| DL1XH-west | 2026-09-03 08:24:20 | 52.22899 | 9.39501 | 110° | 115km/h | 8232m | -4.7m/s | -32.5°C | 95.7% | 357.1hPa | 2.6V | 08:00:19 | 01:52:02 | 00:00:00 | |
| DJ2DS-15 | 2026-09-03 08:24:20 | 52.22899 | 9.39501 | 110° | 115km/h | 8232m | -4.7m/s | -32.4°C | 94.4% | 357.1hPa | 2.6V | 00:00:00 | 01:52:02 | 00:00:00 | |
| DD8BA-10 | 2026-09-03 08:24:19 | 52.22909 | 9.39457 | 110° | 115km/h | 8237m | -4.7m/s | -32.5°C | 94.3% | 356.8hPa | 2.6V | 07:59:00 | 00:00:00 | 00:00:00 | |
| BIOWL7-15 | 2026-09-03 08:24:18 | 52.22909 | 9.39457 | 110° | 115km/h | 8237m | -4.8m/s | -32.5°C | 91.2% | 356.9hPa | 2.6V | 08:00:00 | 00:00:00 | 00:00:00 | |
| DL1NUX | 2026-09-03 08:24:17 | 52.22970 | 9.39139 | 105° | 115km/h | 8271m | -4.8m/s | -32.8°C | 93% | 355.2hPa | 2.6V | 07:59:46 | 01:51:54 | 00:00:00 | |
| BIOWL1-15 | 2026-09-03 08:24:16 | 52.22937 | 9.39322 | 108° | 117km/h | 8252m | -4.9m/s | -32.7°C | 94.5% | 356.1hPa | 2.5V | 08:00:19 | 01:51:58 | 00:00:00 | |
| DF8AY | 2026-09-03 08:24:15 | 52.22945 | 9.39276 | 107° | 115km/h | 8256m | -4.9m/s | -32.7°C | 94.6% | 356hPa | 2.6V | 08:00:19 | 01:51:57 | 00:00:00 | |
| HSKMA3-T | 2026-09-03 08:24:12 | 52.22970 | 9.39139 | 105° | 115km/h | 8271m | -4.8m/s | -32.8°C | 94.1% | 355.2hPa | 2.6V | 08:01:10 | 01:51:54 | 00:00:00 | |
| AA1-15 | 2026-09-03 08:24:11 | 52.22977 | 9.39093 | 105° | 115km/h | 8275m | -4.7m/s | -32.9°C | 94% | 354.9hPa | 2.5V | 08:00:19 | 01:51:53 | 00:00:00 | |
| DL1XH-west | 2026-09-03 08:24:10 | 52.22985 | 9.39047 | 105° | 115km/h | 8280m | -4.8m/s | -33°C | 94.2% | 354.6hPa | 2.5V | 08:00:19 | 01:51:52 | 00:00:00 | |
| DB0DAN | 2026-09-03 08:24:10 | 52.22985 | 9.39047 | 104° | 110km/h | 8280m | -4.8m/s | -33°C | 90.4% | 354.6hPa | 2.5V | 00:00:00 | 00:00:00 | 00:00:00 | |
| DO2JMG | 2026-09-03 08:24:09 | 52.22992 | 9.39001 | 105° | 115km/h | 8285m | -4.9m/s | -33°C | 94.3% | 354.4hPa | 2.6V | 08:01:10 | 01:51:51 | 00:00:00 | |
| SMARD9-15 | 2026-09-03 08:24:09 | 52.22999 | 9.38955 | 104° | 113km/h | 8290m | -4.9m/s | -33.1°C | 91.7% | 354.2hPa | 2.6V | 00:00:00 | 00:00:00 | 00:00:00 | |
| DF8AY-15 | 2026-09-03 08:24:08 | 52.22999 | 9.38955 | 105° | 100km/h | 8290m | -4.8m/s | -33.0°C | 94.9% | 354.1hPa | 2.6V | 00:00:00 | 01:51:50 | 00:00:00 | |
| DL1NUX | 2026-09-03 08:24:07 | 52.23038 | 9.38683 | 101° | 108km/h | 8320m | -5.3m/s | -33.4°C | 95.8% | 352.6hPa | 2.6V | 07:59:56 | 01:51:44 | 00:00:00 | |
| DF8AY | 2026-09-03 08:24:05 | 52.23020 | 9.38817 | 103° | 115km/h | 8305m | -5.2m/s | -33.2°C | 96.2% | 353.5hPa | 2.5V | 08:00:19 | 01:51:47 | 00:00:00 | |
| AA1-15 | 2026-09-03 08:24:00 | 52.23050 | 9.38598 | 103° | 102km/h | 8331m | -5m/s | -33.5°C | 98% | 352.1hPa | 2.6V | 08:00:19 | 01:51:42 | 00:00:00 | |
| DL1XH-west | 2026-09-03 08:23:59 | 52.23056 | 9.38557 | 104° | 100km/h | 8336m | -4.9m/s | -33.6°C | 97.9% | 351.9hPa | 2.5V | 08:00:19 | 01:51:41 | 00:00:00 | |
| BUE01 | 2026-09-03 08:23:59 | 52.23056 | 9.38557 | 103° | 100km/h | 8336m | -4.9m/s | -33.6°C | 92.9% | 351.9hPa | 2.5V | 00:00:00 | 00:00:00 | 00:00:00 | |
| HTAHTA | 2026-09-03 08:23:58 | 52.23069 | 9.38478 | 106° | 97km/h | 8345m | -5.0m/s | -33.7°C | 92.4% | 351.4hPa | 2.5V | 00:00:00 | 00:00:00 | 00:00:00 | |
| DL1NUX | 2026-09-03 08:23:57 | 52.23106 | 9.38288 | 108° | 95km/h | 8370m | -5.1m/s | -33.9°C | 96.7% | 350.1hPa | 2.5V | 08:00:06 | 01:51:34 | 00:00:00 | |
| DF8AY | 2026-09-03 08:23:55 | 52.23083 | 9.38401 | 108° | 97km/h | 8355m | -4.8m/s | -33.8°C | 98.2% | 350.9hPa | 2.6V | 08:00:19 | 01:51:37 | 00:00:00 | |
| BIOWL1-15 | 2026-09-03 08:23:54 | 52.23090 | 9.38363 | 108° | 97km/h | 8360m | -5.2m/s | -33.8°C | 98.2% | 350.6hPa | 2.6V | 08:00:19 | 01:51:36 | 00:00:00 | |
| DO2SHX-10 | 2026-09-03 08:23:53 | 52.23098 | 9.38326 | 109° | 95km/h | 8366m | -4.9m/s | -33.8°C | 96.6% | 350.2hPa | 2.5V | 08:00:00 | 01:51:35 | 00:00:00 | |
| SO1NDE-10 | 2026-09-03 08:23:52 | 52.23106 | 9.38288 | 109° | 110km/h | 8371m | -5.0m/s | -33.9°C | 96.7% | 350.1hPa | 2.6V | 00:00:00 | 01:51:34 | 00:00:00 | |
| DM0DOS-11 | 2026-09-03 08:23:50 | 52.23169 | 9.38025 | 113° | 104km/h | 8405m | -5.1m/s | -34.3°C | 96.8% | 348.4hPa | 2.6V | 08:00:13 | 01:51:27 | 00:00:00 | |
| AA1-15 | 2026-09-03 08:23:50 | 52.23122 | 9.38214 | 110° | 97km/h | 8380m | -5m/s | -34°C | 98.9% | 349.6hPa | 2.6V | 08:00:19 | 01:51:32 | 00:00:00 | |
| DL1XH-west | 2026-09-03 08:23:49 | 52.23130 | 9.38177 | 111° | 97km/h | 8385m | -4.9m/s | -34°C | 99.3% | 349.4hPa | 2.6V | 08:00:19 | 01:51:31 | 00:00:00 | |
| DD1CC8 | 2026-09-03 08:23:48 | 52.23148 | 9.38102 | 112° | 99km/h | 8395m | -5.0m/s | -34.1°C | 92.5% | 348.9hPa | 2.6V | 00:00:00 | 00:00:00 | 00:00:00 | |
| DF8AY | 2026-09-03 08:23:44 | 52.23179 | 9.37985 | 114° | 106km/h | 8411m | -5m/s | -34.3°C | 99.3% | 348.1hPa | 2.6V | 08:00:19 | 01:51:26 | 00:00:00 | |
| DO2SHX-10 | 2026-09-03 08:23:44 | 52.23179 | 9.37985 | 115° | 108km/h | 8411m | -5.0m/s | -34.2°C | 96.8% | 348.1hPa | 2.6V | 00:00:00 | 01:51:26 | 00:00:00 | |
| BIOWL9-15 | 2026-09-03 08:23:43 | 52.23202 | 9.37904 | 114° | 110km/h | 8420m | -4.8m/s | -34.3°C | 94.4% | 347.6hPa | 2.6V | 00:00:00 | 00:00:00 | 00:00:00 | |
| DL1XH-15 | 2026-09-03 08:23:42 | 52.23256 | 9.37686 | 110° | 119km/h | 8445m | -4.8m/s | -34.6°C | 98.1% | 346.4hPa | 2.6V | 08:00:21 | 01:51:19 | 00:00:00 | |
| DO2SHX-10 | 2026-09-03 08:23:41 | 52.23213 | 9.37862 | 114° | 113km/h | 8426m | -5.0m/s | -34.3°C | 98.6% | 347.3hPa | 2.5V | 00:00:00 | 01:51:23 | 00:00:00 | |
| DM0DOS-11 | 2026-09-03 08:23:40 | 52.23277 | 9.37594 | 108° | 119km/h | 8455m | -4.8m/s | -34.6°C | 96.3% | 345.9hPa | 2.5V | 08:00:23 | 01:51:17 | 00:00:00 | |
| AA1-15 | 2026-09-03 08:23:40 | 52.23224 | 9.37819 | 113° | 113km/h | 8430m | -5.1m/s | -34.4°C | 98.3% | 347.1hPa | 2.5V | 08:00:19 | 01:51:22 | 00:00:00 | |
| DB0DAN | 2026-09-03 08:23:40 | 52.23224 | 9.37819 | 113° | 108km/h | 8430m | -5.1m/s | -34.4°C | 95.8% | 347.09hPa | 2.5V | 00:00:00 | 00:00:00 | 00:00:00 | |
| DL1XH-west | 2026-09-03 08:23:38 | 52.23246 | 9.37731 | 111° | 117km/h | 8441m | -5m/s | -34.6°C | 97.3% | 346.6hPa | 2.6V | 08:01:10 | 01:51:20 | 00:00:00 | |
| DO2SHX-10 | 2026-09-03 08:23:38 | 52.23246 | 9.37731 | 112° | 119km/h | 8441m | -4.9m/s | -34.5°C | 98.9% | 346.5hPa | 2.6V | 00:00:00 | 01:51:20 | 00:00:00 | |
| DL1XH1-15 | 2026-09-03 08:23:37 | 52.23304 | 9.37453 | 106° | 119km/h | 8470m | -5m/s | -34.8°C | 96% | 345.3hPa | 2.6V | 08:00:26 | 01:51:14 | 00:00:00 | |
| BIOWL1-15 | 2026-09-03 08:23:34 | 52.23286 | 9.37547 | 108° | 120km/h | 8460m | -5m/s | -34.7°C | 95.7% | 345.6hPa | 2.5V | 08:01:10 | 01:51:16 | 00:00:00 | |
| DO2SHX-10 | 2026-09-03 08:23:32 | 52.23304 | 9.37453 | 107° | 117km/h | 8470m | -5.0m/s | -34.8°C | 96.0% | 345.2hPa | 2.6V | 00:00:00 | 01:51:14 | 00:00:00 | |
| DM0DOS-11 | 2026-09-03 08:23:30 | 52.23355 | 9.37138 | 105° | 104km/h | 8505m | -4.9m/s | -35.1°C | 92.2% | 343.4hPa | 2.6V | 08:00:33 | 01:51:07 | 00:00:00 | |
| AA1-15 | 2026-09-03 08:23:29 | 52.23328 | 9.37313 | 105° | 115km/h | 8485m | -4.9m/s | -35°C | 94.5% | 344.4hPa | 2.5V | 08:01:10 | 01:51:11 | 00:00:00 | |
| DB0UT-7 | 2026-09-03 08:23:29 | 52.23327 | 9.37313 | 105° | 115km/h | 8485m | -4.8m/s | -34.9°C | 96.5% | 344.4hPa | 2.5V | 00:00:00 | 01:51:11 | 00:00:00 | |
| BUE01 | 2026-09-03 08:23:28 | 52.23335 | 9.37268 | 104° | 111km/h | 8490m | -5.2m/s | -35.0°C | 93.2% | 344.1hPa | 2.5V | 00:00:00 | 00:00:00 | 00:00:00 | |
| DL1XH1-15 | 2026-09-03 08:23:27 | 52.23380 | 9.37019 | 110° | 102km/h | 8520m | -5.3m/s | -35.2°C | 85.3% | 342.6hPa | 2.5V | 08:00:36 | 01:51:04 | 00:00:00 | |
| DL1XH-west | 2026-09-03 08:23:27 | 52.23342 | 9.37223 | 104° | 110km/h | 8495m | -5m/s | -35.1°C | 94.6% | 343.9hPa | 2.5V | 08:01:10 | 01:51:09 | 00:00:00 | |
| DL1NUX | 2026-09-03 08:23:26 | 52.23389 | 9.36979 | 111° | 102km/h | 8525m | -5m/s | -35.2°C | 82.6% | 342.4hPa | 2.6V | 08:00:37 | 01:51:03 | 00:00:00 | |
| DB0DAN | 2026-09-03 08:23:25 | 52.23356 | 9.37138 | 106° | 99km/h | 8505m | -4.9m/s | -35.1°C | 88.9% | 343.38hPa | 2.6V | 00:00:00 | 00:00:00 | 00:00:00 | |
| HSKMA3-T | 2026-09-03 08:23:23 | 52.23371 | 9.37058 | 109° | 100km/h | 8515m | -5m/s | -35.2°C | 89.4% | 342.9hPa | 2.5V | 08:01:10 | 01:51:05 | 00:00:00 | |
| DL4XJ-10 | 2026-09-03 08:23:23 | 52.23371 | 9.37058 | 109° | 115km/h | 8515m | -4.9m/s | -34.0°C | 0% | 0hPa | 2.6V | 00:00:00 | 00:00:00 | 00:00:00 | |
| SO1NDE-10 | 2026-09-03 08:23:22 | 52.23379 | 9.37019 | 111° | 115km/h | 8520m | -5.3m/s | -35.2°C | 85.3% | 342.5hPa | 2.6V | 00:00:00 | 01:51:04 | 00:00:00 | |
| DM0DOS-11 | 2026-09-03 08:23:20 | 52.23456 | 9.36740 | 116° | 113km/h | 8555m | -4.9m/s | -35.3°C | 67.6% | 341.1hPa | 2.6V | 08:00:43 | 01:50:57 | 00:00:00 | |
| AA1-15 | 2026-09-03 08:23:19 | 52.23409 | 9.36901 | 114° | 104km/h | 8535m | -5.1m/s | -35.3°C | 81% | 342hPa | 2.6V | 08:01:10 | 01:51:01 | 00:00:00 | |
| DB0NH | 2026-09-03 08:23:19 | 52.23408 | 9.36901 | 114° | 117km/h | 8535m | -5.0m/s | -35.2°C | 77.7% | 342.0hPa | 2.6V | 00:00:00 | 01:51:01 | 00:00:00 | |
| DL1XH1-15 | 2026-09-03 08:23:17 | 52.23496 | 9.36612 | 116° | 119km/h | 8569m | -4.9m/s | -35.2°C | 60.4% | 340.3hPa | 2.6V | 08:00:46 | 01:50:54 | 00:00:00 | |
| DL1XH-west | 2026-09-03 08:23:16 | 52.23443 | 9.36781 | 116° | 111km/h | 8550m | -4.9m/s | -35.3°C | 73.5% | 341.2hPa | 2.5V | 08:01:10 | 01:50:58 | 00:00:00 | |
| BIOWL7-15 | 2026-09-03 08:23:15 | 52.23443 | 9.36782 | 117° | 111km/h | 8551m | -4.9m/s | -35.3°C | 67.2% | 341.2hPa | 2.6V | 08:01:00 | 00:00:00 | 00:00:00 | |
| GOEST3-10 | 2026-09-03 08:23:13 | 52.23482 | 9.36655 | 118° | 117km/h | 8565m | -4.8m/s | -35.2°C | 62.6% | 340.5hPa | 2.6V | 00:00:00 | 01:50:55 | 00:00:00 | |
| DL1XH-15 | 2026-09-03 08:23:12 | 52.23563 | 9.36384 | 114° | 126km/h | 8595m | -5.1m/s | -35.4°C | 57.7% | 338.9hPa | 2.6V | 08:00:51 | 01:50:49 | 00:00:00 | |
| HSKMA3-T | 2026-09-03 08:23:12 | 52.23496 | 9.36612 | 117° | 119km/h | 8569m | -4.9m/s | -35.3°C | 63.2% | 340.3hPa | 2.6V | 08:01:10 | 01:50:54 | 00:00:00 | |
| AA1-15 | 2026-09-03 08:23:08 | 52.23550 | 9.36431 | 115° | 124km/h | 8590m | -5m/s | -35.3°C | 59.8% | 339.3hPa | 2.6V | 08:01:10 | 01:50:50 | 00:00:00 | |
| DL1XH1-15 | 2026-09-03 08:23:07 | 52.23624 | 9.36143 | 110° | 128km/h | 8620m | -5m/s | -35.8°C | 56.8% | 337.7hPa | 2.6V | 08:00:56 | 01:50:44 | 00:00:00 | |
| DL1XH-west | 2026-09-03 08:23:05 | 52.23588 | 9.36289 | 113° | 128km/h | 8605m | -5.2m/s | -35.5°C | 59.9% | 338.4hPa | 2.5V | 08:01:10 | 01:50:47 | 00:00:00 | |
| DK9SH | 2026-09-03 08:23:04 | 52.23588 | 9.36289 | 114° | 128km/h | 8605m | -5.2m/s | -35.5°C | 54.7% | 338.4hPa | 2.5V | 08:01:00 | 00:00:00 | 00:00:00 | |
| DF8AY-15 | 2026-09-03 08:23:03 | 52.23613 | 9.36192 | 112° | 135km/h | 8615m | -5.2m/s | -35.6°C | 56.3% | 337.9hPa | 2.5V | 00:00:00 | 01:50:45 | 00:00:00 | |
| DL1XH-15 | 2026-09-03 08:23:02 | 52.23673 | 9.35905 | 108° | 115km/h | 8646m | -4.9m/s | -36°C | 55.8% | 336.4hPa | 2.5V | 08:01:01 | 01:50:39 | 00:00:00 | |
| DF8AY | 2026-09-03 08:23:02 | 52.23624 | 9.36143 | 111° | 128km/h | 8620m | -5.1m/s | -35.8°C | 59% | 337.7hPa | 2.6V | 08:02:01 | 01:50:44 | 00:00:00 | |
| GOEST3-10 | 2026-09-03 08:23:02 | 52.23624 | 9.36143 | 111° | 115km/h | 8620m | -5.0m/s | -35.7°C | 56.8% | 337.7hPa | 2.6V | 00:00:00 | 01:50:44 | 00:00:00 | |
| DL1NUX | 2026-09-03 08:23:01 | 52.23682 | 9.35860 | 108° | 111km/h | 8651m | -4.9m/s | -36°C | 54.8% | 336.3hPa | 2.6V | 08:01:02 | 01:50:38 | 00:00:00 | |
| BIOWL1-15 | 2026-09-03 08:23:01 | 52.23635 | 9.36094 | 109° | 126km/h | 8626m | -5.2m/s | -35.7°C | 58.8% | 337.6hPa | 2.6V | 08:01:10 | 01:50:43 | 00:00:00 | |
| AA1-15 | 2026-09-03 08:22:58 | 52.23664 | 9.35950 | 108° | 117km/h | 8641m | -5m/s | -35.9°C | 58.6% | 336.8hPa | 2.5V | 08:01:10 | 01:50:40 | 00:00:00 | |
| DL3AQ-11 | 2026-09-03 08:22:57 | 52.23682 | 9.35860 | 108° | 111km/h | 8651m | -4.9m/s | -36.0°C | 52.1% | 336.3hPa | 2.6V | 00:00:00 | 00:00:00 | 00:00:00 | |
| HTAHTA | 2026-09-03 08:22:56 | 52.23682 | 9.35860 | 108° | 111km/h | 8651m | -4.9m/s | -36.0°C | 52.1% | 336.3hPa | 2.6V | 00:00:00 | 00:00:00 | 00:00:00 | |
| DB0DAN | 2026-09-03 08:22:55 | 52.23692 | 9.35817 | 110° | 104km/h | 8656m | -5m/s | -36°C | 50.8% | 336.06hPa | 2.6V | 00:00:00 | 00:00:00 | 00:00:00 | |
| DL1XH-west | 2026-09-03 08:22:54 | 52.23702 | 9.35775 | 112° | 110km/h | 8661m | -5m/s | -36.1°C | 55.3% | 335.8hPa | 2.6V | 08:01:10 | 01:50:36 | 00:00:00 | |
| DO3DL | 2026-09-03 08:22:53 | 52.23702 | 9.35775 | 113° | 110km/h | 8661m | -5.0m/s | -36.1°C | 49.4% | 335.8hPa | 2.5V | 08:01:00 | 00:00:00 | 00:00:00 | |
| DL1XH-15 | 2026-09-03 08:22:52 | 52.23787 | 9.35485 | 117° | 117km/h | 8696m | -5m/s | -36.3°C | 44.2% | 334.1hPa | 2.5V | 08:01:11 | 01:50:29 | 00:00:00 | |
| DF8AY | 2026-09-03 08:22:51 | 52.23735 | 9.35651 | 115° | 111km/h | 8676m | -5m/s | -36.1°C | 48.7% | 335.1hPa | 2.5V | 08:02:01 | 01:50:33 | 00:00:00 | |
| DL1NUX | 2026-09-03 08:22:51 | 52.23801 | 9.35442 | 118° | 119km/h | 8701m | -4.9m/s | -36.3°C | 43.5% | 333.9hPa | 2.5V | 08:01:12 | 01:50:28 | 00:00:00 | |
| DM0DOS-11 | 2026-09-03 08:22:50 | 52.23816 | 9.35398 | 118° | 120km/h | 8706m | -5.3m/s | -36.4°C | 42.7% | 333.7hPa | 2.5V | 08:01:13 | 01:50:27 | 00:00:00 | |
| DO2JMG | 2026-09-03 08:22:50 | 52.23747 | 9.35610 | 116° | 111km/h | 8681m | -5m/s | -36.1°C | 48.7% | 334.8hPa | 2.6V | 08:01:10 | 01:50:32 | 00:00:00 | |
| AA1-15 | 2026-09-03 08:22:48 | 52.23773 | 9.35527 | 118° | 115km/h | 8690m | -4.9m/s | -36.3°C | 48.4% | 334.3hPa | 2.6V | 08:01:10 | 01:50:30 | 00:00:00 | |
| DL1XH1-15 | 2026-09-03 08:22:47 | 52.23860 | 9.35264 | 118° | 124km/h | 8721m | -5.3m/s | -36.5°C | 41% | 332.9hPa | 2.6V | 08:01:16 | 01:50:24 | 00:00:00 | |
| DD1CC8 | 2026-09-03 08:22:46 | 52.23815 | 9.35398 | 118° | 120km/h | 8706m | -5.3m/s | -36.4°C | 40.2% | 333.7hPa | 2.6V | 00:00:00 | 00:00:00 | 00:00:00 | |
| DL1XH-west | 2026-09-03 08:22:43 | 52.23845 | 9.35309 | 118° | 122km/h | 8716m | -5.3m/s | -36.4°C | 45.4% | 333.1hPa | 2.6V | 08:02:01 | 01:50:25 | 00:00:00 | |
| DL4XJ-10 | 2026-09-03 08:22:43 | 52.23845 | 9.35309 | 119° | 130km/h | 8716m | -5.2m/s | -35.3°C | 0% | 0hPa | 2.5V | 00:00:00 | 00:00:00 | 00:00:00 | |
| EDDB2-12 | 2026-09-03 08:22:42 | 52.23860 | 9.35264 | 118° | 124km/h | 8721m | -5.3m/s | -36.5°C | 38.5% | 332.9hPa | 2.5V | 00:00:00 | 00:00:00 | 00:00:00 | |
| DM0DOS-11 | 2026-09-03 08:22:40 | 52.23964 | 9.34930 | 114° | 135km/h | 8757m | -5.1m/s | -36.8°C | 39.7% | 331.2hPa | 2.5V | 08:01:23 | 01:50:17 | 00:00:00 | |
| BIOWL1-15 | 2026-09-03 08:22:40 | 52.23890 | 9.35173 | 118° | 128km/h | 8732m | -5.2m/s | -36.6°C | 43.8% | 332.4hPa | 2.5V | 08:02:01 | 01:50:22 | 00:00:00 | |
| DB0DAN | 2026-09-03 08:22:40 | 52.23890 | 9.35173 | 118° | 120km/h | 8732m | -5.2m/s | -36.6°C | 37.6% | 332.44hPa | 2.5V | 00:00:00 | 00:00:00 | 00:00:00 | |
| DO2JMG | 2026-09-03 08:22:39 | 52.23905 | 9.35126 | 117° | 130km/h | 8737m | -5m/s | -36.6°C | 43.7% | 332.2hPa | 2.6V | 08:02:01 | 01:50:21 | 00:00:00 | |
| DD8BA-10 | 2026-09-03 08:22:39 | 52.23905 | 9.35126 | 118° | 133km/h | 8737m | -4.9m/s | -36.5°C | 39.9% | 332.1hPa | 2.6V | 08:01:00 | 00:00:00 | 00:00:00 | |
| DL3OBA | 2026-09-03 08:22:38 | 52.23905 | 9.35126 | 118° | 130km/h | 8737m | -5.0m/s | -36.6°C | 37.4% | 332.2hPa | 2.6V | 08:02:00 | 00:00:00 | 00:00:00 | |
| DL1XH1-15 | 2026-09-03 08:22:37 | 52.24005 | 9.34777 | 113° | 135km/h | 8772m | -5.1m/s | -36.9°C | 39.7% | 330.5hPa | 2.6V | 08:01:26 | 01:50:14 | 00:00:00 | |
| AA1-15 | 2026-09-03 08:22:37 | 52.23935 | 9.35029 | 116° | 131km/h | 8747m | -4.8m/s | -36.7°C | 43.5% | 331.7hPa | 2.6V | 08:02:01 | 01:50:19 | 00:00:00 | |
| DL1XH-west | 2026-09-03 08:22:33 | 52.23992 | 9.34829 | 114° | 135km/h | 8767m | -5.1m/s | -36.8°C | 43.1% | 330.7hPa | 2.6V | 08:02:01 | 01:50:15 | 00:00:00 | |
| DL8DAS-14 | 2026-09-03 08:22:31 | 52.24031 | 9.34675 | 111° | 131km/h | 8782m | -5.0m/s | -37.0°C | 36.8% | 330.0hPa | 2.6V | 00:00:00 | 00:00:00 | 00:00:00 | |
| DM0DOS-11 | 2026-09-03 08:22:30 | 52.24086 | 9.34431 | 110° | 119km/h | 8806m | -4.6m/s | -37.2°C | 39.4% | 328.8hPa | 2.6V | 08:01:33 | 01:50:07 | 00:00:00 | |
| HSKMA3-T | 2026-09-03 08:22:29 | 52.24043 | 9.34624 | 111° | 131km/h | 8787m | -5m/s | -37°C | 42.7% | 329.7hPa | 2.5V | 08:02:01 | 01:50:11 | 00:00:00 | |
| DD8BA-10 | 2026-09-03 08:22:29 | 52.24042 | 9.34624 | 111° | 120km/h | 8787m | -5.0m/s | -37.0°C | 39.3% | 329.7hPa | 2.5V | 00:00:00 | 00:00:00 | 00:00:00 | |
| DL8OAI-8 | 2026-09-03 08:22:28 | 52.24042 | 9.34624 | 112° | 131km/h | 8787m | -5.0m/s | -37.0°C | 36.9% | 329.7hPa | 2.5V | 08:02:00 | 00:00:00 | 00:00:00 | |
| DL1XH1-15 | 2026-09-03 08:22:27 | 52.24118 | 9.34298 | 113° | 115km/h | 8821m | -5.2m/s | -37.3°C | 39.7% | 328.1hPa | 2.5V | 08:01:36 | 01:50:04 | 00:00:00 | |
| AA1-15 | 2026-09-03 08:22:26 | 52.24075 | 9.34478 | 110° | 120km/h | 8802m | -4.5m/s | -37.2°C | 42.9% | 329.1hPa | 2.6V | 08:02:01 | 01:50:08 | 00:00:00 | |
| DB0DAN | 2026-09-03 08:22:25 | 52.24086 | 9.34431 | 111° | 113km/h | 8806m | -4.6m/s | -37.2°C | 36.9% | 328.8hPa | 2.6V | 00:00:00 | 00:00:00 | 00:00:00 | |
| DO2SHX-10 | 2026-09-03 08:22:24 | 52.24096 | 9.34386 | 112° | 115km/h | 8811m | -4.7m/s | -37.2°C | 39.6% | 328.5hPa | 2.6V | 00:00:00 | 01:50:06 | 00:00:00 | |
| DL4XJ-10 | 2026-09-03 08:22:23 | 52.24107 | 9.34342 | 113° | 126km/h | 8816m | -4.8m/s | -36.1°C | 0% | 0hPa | 2.5V | 00:00:00 | 00:00:00 | 00:00:00 | |
| DL1XH-15 | 2026-09-03 08:22:22 | 52.24183 | 9.34083 | 118° | 120km/h | 8846m | -4.7m/s | -37.5°C | 40.1% | 327hPa | 2.5V | 08:01:41 | 01:49:59 | 00:00:00 | |
| DF8AY | 2026-09-03 08:22:22 | 52.24130 | 9.34255 | 114° | 113km/h | 8826m | -5.2m/s | -37.4°C | 43.4% | 327.9hPa | 2.5V | 08:02:01 | 01:50:03 | 00:00:00 | |
| DL1XH-west | 2026-09-03 08:22:22 | 52.24118 | 9.34298 | 113° | 115km/h | 8821m | -5.2m/s | -37.3°C | 43.3% | 328.1hPa | 2.5V | 08:02:01 | 01:50:04 | 00:00:00 | |
| BIOWL1-15 | 2026-09-03 08:22:18 | 52.24168 | 9.34126 | 118° | 119km/h | 8842m | -4.9m/s | -37.5°C | 43.6% | 327.2hPa | 2.6V | 08:02:01 | 01:50:00 | 00:00:00 | |
| AA1-15 | 2026-09-03 08:22:16 | 52.24197 | 9.34039 | 119° | 122km/h | 8851m | -4.9m/s | -37.6°C | 43.8% | 326.7hPa | 2.5V | 08:02:01 | 01:49:58 | 00:00:00 | |
| DO2SHX-10 | 2026-09-03 08:22:16 | 52.24197 | 9.34038 | 120° | 124km/h | 8851m | -4.8m/s | -37.5°C | 40.2% | 326.6hPa | 2.6V | 00:00:00 | 01:49:58 | 00:00:00 | |
| SONDE2-11 | 2026-09-03 08:22:15 | 52.24213 | 9.33994 | 119° | 124km/h | 8856m | -4.7m/s | -37.6°C | 37.8% | 326.5hPa | 2.6V | 00:00:00 | 00:00:00 | 00:00:00 | |
| BIOWL7-15 | 2026-09-03 08:22:14 | 52.24212 | 9.33994 | 120° | 124km/h | 8856m | -4.7m/s | -37.6°C | 37.8% | 326.5hPa | 2.6V | 08:02:00 | 00:00:00 | 00:00:00 | |
| DO2SHX-10 | 2026-09-03 08:22:13 | 52.24244 | 9.33904 | 120° | 128km/h | 8866m | -4.8m/s | -37.7°C | 40.8% | 326.0hPa | 2.6V | 00:00:00 | 01:49:55 | 00:00:00 | |
| DL1XH-15 | 2026-09-03 08:22:12 | 52.24339 | 9.33620 | 116° | 135km/h | 8895m | -5.1m/s | -38°C | 41.8% | 324.6hPa | 2.5V | 08:01:51 | 01:49:49 | 00:00:00 | |
| DL1XH-west | 2026-09-03 08:22:12 | 52.24260 | 9.33859 | 120° | 128km/h | 8871m | -4.8m/s | -37.8°C | 44.4% | 325.7hPa | 2.5V | 08:02:01 | 01:49:54 | 00:00:00 | |
| DF8AY | 2026-09-03 08:22:11 | 52.24276 | 9.33813 | 119° | 130km/h | 8875m | -4.9m/s | -37.8°C | 44.5% | 325.5hPa | 2.5V | 08:02:01 | 01:49:53 | 00:00:00 | |
| HSKMA3-T | 2026-09-03 08:22:08 | 52.24324 | 9.33670 | 117° | 135km/h | 8890m | -4.9m/s | -38°C | 44.9% | 324.8hPa | 2.5V | 08:02:01 | 01:49:50 | 00:00:00 | |
| AA1-15 | 2026-09-03 08:22:05 | 52.24369 | 9.33520 | 115° | 137km/h | 8905m | -5m/s | -38.1°C | 45.3% | 324.1hPa | 2.6V | 08:02:01 | 01:49:47 | 00:00:00 | |
| DO2JMG | 2026-09-03 08:22:04 | 52.24384 | 9.33468 | 115° | 137km/h | 8910m | -5.6m/s | -38.2°C | 45.4% | 323.8hPa | 2.5V | 08:02:01 | 01:49:46 | 00:00:00 | |
| DL4XJ-10 | 2026-09-03 08:22:03 | 52.24398 | 9.33417 | 114° | 126km/h | 8916m | -5.3m/s | -37.0°C | 0% | 0hPa | 2.5V | 00:00:00 | 00:00:00 | 00:00:00 | |
| DL1XH-15 | 2026-09-03 08:22:02 | 52.24473 | 9.33111 | 110° | 128km/h | 8946m | -5.5m/s | -38.4°C | 42.8% | 322.2hPa | 2.5V | 08:02:01 | 01:49:39 | 00:00:00 | |
| DF8AY | 2026-09-03 08:22:01 | 52.24438 | 9.33262 | 111° | 133km/h | 8931m | -5.1m/s | -38.3°C | 45.7% | 322.9hPa | 2.6V | 08:02:01 | 01:49:42 | 00:00:00 | |
| DL1XH-west | 2026-09-03 08:22:01 | 52.24425 | 9.33314 | 112° | 135km/h | 8926m | -5.1m/s | -38.3°C | 45.6% | 323.1hPa | 2.6V | 08:02:01 | 01:49:43 | 00:00:00 | |
| BIOWL1-15 | 2026-09-03 08:22:00 | 52.24461 | 9.33161 | 111° | 130km/h | 8941m | -5.2m/s | -38.4°C | 45.8% | 322.4hPa | 2.5V | 08:02:01 | 01:49:40 | 00:00:00 | |
| HSKMA3-T | 2026-09-03 08:21:57 | 52.24473 | 9.33111 | 111° | 128km/h | 8947m | -5.5m/s | -38.4°C | 45.9% | 322.2hPa | 2.5V | 08:02:01 | 01:49:39 | 00:00:00 | |
| AA1-15 | 2026-09-03 08:21:55 | 52.24495 | 9.33014 | 112° | 124km/h | 8957m | -5m/s | -38.5°C | 46% | 321.7hPa | 2.6V | 08:02:52 | 01:49:37 | 00:00:00 | |
| DB0DAN | 2026-09-03 08:21:55 | 52.24495 | 9.33014 | 112° | 119km/h | 8957m | -5m/s | -38.5°C | 40.4% | 321.7hPa | 2.6V | 00:00:00 | 00:00:00 | 00:00:00 | |
| DO2JMG | 2026-09-03 08:21:54 | 52.24507 | 9.32967 | 112° | 122km/h | 8962m | -5.1m/s | -38.6°C | 46.1% | 321.4hPa | 2.6V | 08:02:52 | 01:49:36 | 00:00:00 | |
| EDDB2-11 | 2026-09-03 08:21:53 | 52.24531 | 9.32874 | 113° | 120km/h | 8972m | -5.1m/s | -38.7°C | 40.4% | 320.9hPa | 2.6V | 00:00:00 | 00:00:00 | 00:00:00 | |
| DL1XH-15 | 2026-09-03 08:21:52 | 52.24597 | 9.32650 | 117° | 120km/h | 8997m | -5.2m/s | -38.8°C | 42.8% | 319.9hPa | 2.6V | 08:02:11 | 01:49:29 | 00:00:00 | |
| DL1XH-west | 2026-09-03 08:21:51 | 52.24544 | 9.32829 | 115° | 120km/h | 8977m | -5.2m/s | -38.7°C | 46% | 320.7hPa | 2.5V | 08:02:52 | 01:49:33 | 00:00:00 | |
| DF8AY | 2026-09-03 08:21:50 | 52.24557 | 9.32784 | 115° | 120km/h | 8982m | -5m/s | -38.8°C | 46.1% | 320.5hPa | 2.5V | 08:03:43 | 01:49:32 | 00:00:00 | |
| BIOWL1-15 | 2026-09-03 08:21:48 | 52.24583 | 9.32694 | 117° | 120km/h | 8992m | -5.1m/s | -38.8°C | 45.8% | 320hPa | 2.6V | 08:02:52 | 01:49:30 | 00:00:00 | |
| DL1XH1-15 | 2026-09-03 08:21:47 | 52.24673 | 9.32422 | 119° | 131km/h | 9021m | -4.7m/s | -39°C | 42.6% | 318.6hPa | 2.6V | 08:02:16 | 01:49:24 | 00:00:00 | |
| HSKMA3-T | 2026-09-03 08:21:47 | 52.24597 | 9.32650 | 117° | 120km/h | 8997m | -5.2m/s | -38.8°C | 45.7% | 319.9hPa | 2.6V | 08:02:52 | 01:49:29 | 00:00:00 | |
| AA1-15 | 2026-09-03 08:21:45 | 52.24626 | 9.32560 | 118° | 126km/h | 9007m | -5.1m/s | -38.9°C | 45.5% | 319.3hPa | 2.5V | 08:02:52 | 01:49:27 | 00:00:00 | |
| DF5WG-10 | 2026-09-03 08:21:45 | 52.24626 | 9.32560 | 119° | 135km/h | 9007m | -5.1m/s | -38.9°C | 43.1% | 319.2hPa | 2.5V | 00:00:00 | 01:49:27 | 00:00:00 | |
| DD1CC8 | 2026-09-03 08:21:44 | 52.24657 | 9.32468 | 119° | 128km/h | 9017m | -5.0m/s | -39.0°C | 40.0% | 318.9hPa | 2.5V | 00:00:00 | 00:00:00 | 00:00:00 | |
| DL4XJ-10 | 2026-09-03 08:21:43 | 52.24658 | 9.32468 | 120° | 139km/h | 9017m | -4.9m/s | -37.8°C | 0% | 0hPa | 2.5V | 00:00:00 | 00:00:00 | 00:00:00 | |
| DL1XH-15 | 2026-09-03 08:21:42 | 52.24757 | 9.32178 | 118° | 139km/h | 9046m | -5m/s | -39.2°C | 41.4% | 317.5hPa | 2.5V | 08:02:21 | 01:49:19 | 00:00:00 | |
| DL1XH-west | 2026-09-03 08:21:41 | 52.24690 | 9.32374 | 119° | 133km/h | 9026m | -4.8m/s | -39°C | 45% | 318.4hPa | 2.5V | 08:02:52 | 01:49:23 | 00:00:00 | |
| DM0DOS-11 | 2026-09-03 08:21:40 | 52.24791 | 9.32079 | 119° | 141km/h | 9057m | -5.2m/s | -39.2°C | 41.4% | 317.1hPa | 2.6V | 08:02:23 | 01:49:17 | 00:00:00 | |
| DF8AY | 2026-09-03 08:21:40 | 52.24706 | 9.32326 | 119° | 135km/h | 9031m | -4.8m/s | -39.1°C | 44.9% | 318.2hPa | 2.5V | 08:03:43 | 01:49:22 | 00:00:00 | |
| DB0DAN | 2026-09-03 08:21:40 | 52.24706 | 9.32326 | 119° | 130km/h | 9031m | -4.8m/s | -39.1°C | 39.3% | 0hPa | 2.5V | 00:00:00 | 00:00:00 | 00:00:00 | |
| BIOWL1-15 | 2026-09-03 08:21:39 | 52.24757 | 9.32178 | 119° | 139km/h | 9046m | -5m/s | -39.2°C | 44.5% | 317.5hPa | 2.5V | 08:02:52 | 01:49:19 | 00:00:00 | |
| DD8BA-10 | 2026-09-03 08:21:39 | 52.24723 | 9.32277 | 119° | 139km/h | 9036m | -5.3m/s | -39.1°C | 41.8% | 317.9hPa | 2.6V | 00:00:00 | 00:00:00 | 00:00:00 | |
| DL3OBA | 2026-09-03 08:21:38 | 52.24723 | 9.32277 | 120° | 135km/h | 9036m | -5.3m/s | -39.1°C | 39.0% | 317.9hPa | 2.5V | 08:02:00 | 00:00:00 | 00:00:00 | |
| DL1XH1-15 | 2026-09-03 08:21:37 | 52.24842 | 9.31929 | 119° | 139km/h | 9072m | -5.3m/s | -39.4°C | 40.5% | 316.3hPa | 2.5V | 08:02:26 | 01:49:14 | 00:00:00 | |
| HSKMA3-T | 2026-09-03 08:21:36 | 52.24774 | 9.32129 | 120° | 139km/h | 9051m | -5.6m/s | -39.2°C | 44.4% | 317.3hPa | 2.5V | 08:02:52 | 01:49:18 | 00:00:00 | |
| AA1-15 | 2026-09-03 08:21:34 | 52.24808 | 9.32029 | 119° | 139km/h | 9062m | -5.3m/s | -39.3°C | 44.2% | 316.9hPa | 2.6V | 08:02:52 | 01:49:16 | 00:00:00 | |
| DL1XH-15 | 2026-09-03 08:21:32 | 52.24930 | 9.31674 | 119° | 144km/h | 9099m | -6m/s | -39.6°C | 38.9% | 315hPa | 2.5V | 08:02:31 | 01:49:09 | 00:00:00 | |
| DL1NUX | 2026-09-03 08:21:31 | 52.24948 | 9.31622 | 119° | 146km/h | 9105m | -5.8m/s | -39.7°C | 38.9% | 314.8hPa | 2.5V | 08:02:32 | 01:49:08 | 00:00:00 | |
| DO2JMG | 2026-09-03 08:21:31 | 52.24860 | 9.31879 | 119° | 141km/h | 9077m | -5.3m/s | -39.4°C | 43.5% | 316.1hPa | 2.5V | 08:02:52 | 01:49:13 | 00:00:00 | |
| DM0DOS-11 | 2026-09-03 08:21:30 | 52.24966 | 9.31569 | 119° | 146km/h | 9111m | -5.8m/s | -39.7°C | 38.5% | 314.5hPa | 2.5V | 08:02:33 | 01:49:07 | 00:00:00 | |
| DL1XH-west | 2026-09-03 08:21:30 | 52.24877 | 9.31828 | 120° | 141km/h | 9083m | -5.6m/s | -39.5°C | 43.3% | 315.8hPa | 2.6V | 08:02:52 | 01:49:12 | 00:00:00 | |
| DF8AY | 2026-09-03 08:21:29 | 52.24895 | 9.31777 | 119° | 142km/h | 9088m | -5.7m/s | -39.5°C | 43.1% | 315.5hPa | 2.6V | 08:03:43 | 01:49:11 | 00:00:00 | |
| DD8BA-10 | 2026-09-03 08:21:29 | 52.24895 | 9.31777 | 119° | 148km/h | 9089m | -5.6m/s | -39.5°C | 40.2% | 315.5hPa | 2.6V | 00:00:00 | 00:00:00 | 00:00:00 | |
| DF8AY-15 | 2026-09-03 08:21:28 | 52.24912 | 9.31726 | 120° | 146km/h | 9094m | -5.3m/s | -39.6°C | 40.1% | 315.3hPa | 2.6V | 08:02:00 | 01:49:10 | 00:00:00 | |
| DL1XH1-15 | 2026-09-03 08:21:27 | 52.25021 | 9.31409 | 118° | 150km/h | 9128m | -5.7m/s | -39.8°C | 36.3% | 313.7hPa | 2.6V | 08:02:36 | 01:49:04 | 00:00:00 | |
| BIOWL1-15 | 2026-09-03 08:21:26 | 52.24948 | 9.31622 | 119° | 146km/h | 9105m | -5.8m/s | -39.7°C | 41.9% | 314.8hPa | 2.5V | 08:02:52 | 01:49:08 | 00:00:00 | |
| HSKMA3-T | 2026-09-03 08:21:25 | 52.24966 | 9.31569 | 120° | 146km/h | 9111m | -5.8m/s | -39.7°C | 41.4% | 314.5hPa | 2.5V | 08:02:52 | 01:49:07 | 00:00:00 | |
| DB0DAN | 2026-09-03 08:21:25 | 52.24966 | 9.31569 | 119° | 141km/h | 9111m | -5.8m/s | -39.7°C | 35.7% | 0hPa | 2.5V | 00:00:00 | 00:00:00 | 00:00:00 | |
| AA1-15 | 2026-09-03 08:21:23 | 52.25003 | 9.31463 | 119° | 150km/h | 9123m | -5.9m/s | -39.8°C | 40.1% | 313.9hPa | 2.6V | 08:02:52 | 01:49:05 | 00:00:00 | |
| DL4XJ-10 | 2026-09-03 08:21:23 | 52.25003 | 9.31463 | 119° | 144km/h | 9124m | -5.9m/s | -38.6°C | 0% | 0hPa | 2.6V | 00:00:00 | 00:00:00 | 00:00:00 | |
| DL1XH-15 | 2026-09-03 08:21:22 | 52.25106 | 9.31128 | 113° | 151km/h | 9156m | -5.6m/s | -40°C | 32.7% | 312.4hPa | 2.6V | 08:02:41 | 01:48:59 | 00:00:00 | |
| DL1NUX | 2026-09-03 08:21:21 | 52.25121 | 9.31071 | 112° | 150km/h | 9162m | -5.6m/s | -40.1°C | 31.6% | 312hPa | 2.5V | 08:02:42 | 01:48:58 | 00:00:00 | |
| DO2JMG | 2026-09-03 08:21:21 | 52.25039 | 9.31354 | 118° | 151km/h | 9134m | -5.8m/s | -39.8°C | 38.6% | 313.5hPa | 2.5V | 08:02:52 | 01:49:03 | 00:00:00 | |
| DO2SHX-10 | 2026-09-03 08:21:21 | 52.25039 | 9.31354 | 118° | 151km/h | 9135m | -5.8m/s | -39.8°C | 35.8% | 313.4hPa | 2.5V | 00:00:00 | 01:49:03 | 00:00:00 | |
| DM0DOS-11 | 2026-09-03 08:21:20 | 52.25135 | 9.31014 | 111° | 148km/h | 9167m | -5.7m/s | -40.1°C | 30.1% | 311.9hPa | 2.5V | 08:02:43 | 01:48:57 | 00:00:00 | |
| DL1XH-west | 2026-09-03 08:21:19 | 52.25074 | 9.31242 | 116° | 153km/h | 9146m | -5.5m/s | -39.9°C | 37.4% | 312.9hPa | 2.5V | 08:02:52 | 01:49:01 | 00:00:00 | |
| DF8AY | 2026-09-03 08:21:18 | 52.25090 | 9.31185 | 114° | 153km/h | 9151m | -5.5m/s | -40°C | 36.5% | 312.6hPa | 2.6V | 08:03:43 | 01:49:00 | 00:00:00 | |
| BIOWL1-15 | 2026-09-03 08:21:18 | 52.25120 | 9.31071 | 113° | 150km/h | 9162m | -5.6m/s | -40.1°C | 34.2% | 312hPa | 2.5V | 08:02:52 | 01:48:58 | 00:00:00 | |
| DL1XH1-15 | 2026-09-03 08:21:17 | 52.25175 | 9.30847 | 111° | 142km/h | 9184m | -5.3m/s | -40.1°C | 24.8% | 311.1hPa | 2.5V | 08:02:46 | 01:48:54 | 00:00:00 | |
| HSKMA3-T | 2026-09-03 08:21:15 | 52.25135 | 9.31014 | 112° | 148km/h | 9167m | -5.7m/s | -40.1°C | 32.7% | 311.9hPa | 2.5V | 08:02:52 | 01:48:57 | 00:00:00 | |
| AA1-15 | 2026-09-03 08:21:13 | 52.25162 | 9.30901 | 111° | 144km/h | 9178m | -5.6m/s | -40.1°C | 29.3% | 311.4hPa | 2.6V | 08:02:52 | 01:48:55 | 00:00:00 | |
| DD1CC8 | 2026-09-03 08:21:13 | 52.25175 | 9.30847 | 111° | 141km/h | 9184m | -5.3m/s | -40.1°C | 22.5% | 311.1hPa | 2.5V | 00:00:00 | 00:00:00 | 00:00:00 | |
| DO3DL | 2026-09-03 08:21:11 | 52.25175 | 9.30847 | 112° | 142km/h | 9184m | -5.3m/s | -40.1°C | 22.5% | 311.1hPa | 2.5V | 08:02:00 | 00:00:00 | 00:00:00 | |
| DM0DOS-11 | 2026-09-03 08:21:10 | 52.25267 | 9.30480 | 112° | 133km/h | 9223m | -5.7m/s | -40.2°C | 18.4% | 309.4hPa | 2.5V | 08:02:53 | 01:48:47 | 00:00:00 | |
| DB0DAN | 2026-09-03 08:21:10 | 52.25202 | 9.30739 | 112° | 133km/h | 9195m | -5.5m/s | -40.1°C | 0% | 0hPa | 2.5V | 00:00:00 | 00:00:00 | 00:00:00 | |
| DL1XH-west | 2026-09-03 08:21:09 | 52.25215 | 9.30686 | 112° | 137km/h | 9200m | -5.8m/s | -40°C | 21.8% | 310.4hPa | 2.6V | 08:02:52 | 01:48:51 | 00:00:00 | |
| DF8AY | 2026-09-03 08:21:08 | 52.25228 | 9.30634 | 112° | 137km/h | 9206m | -5.5m/s | -40.1°C | 21.4% | 310.1hPa | 2.6V | 08:03:43 | 01:48:50 | 00:00:00 | |
| DL1XH1-15 | 2026-09-03 08:21:07 | 52.25306 | 9.30330 | 114° | 131km/h | 9239m | -5.7m/s | -40.2°C | 17.9% | 308.6hPa | 2.6V | 08:02:56 | 01:48:44 | 00:00:00 | |
| BIOWL1-15 | 2026-09-03 08:21:06 | 52.25254 | 9.30531 | 112° | 133km/h | 9217m | -5.6m/s | -40.1°C | 20.8% | 309.7hPa | 2.5V | 08:02:52 | 01:48:48 | 00:00:00 | |
| DO2JMG | 2026-09-03 08:21:05 | 52.25266 | 9.30480 | 113° | 133km/h | 9223m | -5.7m/s | -40.2°C | 20.6% | 309.4hPa | 2.5V | 08:05:25 | 01:48:47 | 00:00:00 | |
| AA1-15 | 2026-09-03 08:21:03 | 52.25293 | 9.30380 | 114° | 131km/h | 9234m | -5.6m/s | -40.2°C | 20.2% | 308.9hPa | 2.6V | 08:03:43 | 01:48:45 | 00:00:00 | |
| DL4XJ-10 | 2026-09-03 08:21:03 | 52.25293 | 9.30380 | 114° | 146km/h | 9234m | -5.5m/s | -39.1°C | 0% | 0hPa | 2.6V | 00:00:00 | 00:00:00 | 00:00:00 | |
| DL1XH-15 | 2026-09-03 08:21:02 | 52.25383 | 9.30085 | 118° | 139km/h | 9267m | -5.4m/s | -40.5°C | 17.8% | 307.3hPa | 2.6V | 08:03:01 | 01:48:39 | 00:00:00 | |
| DD1CC3-15 | 2026-09-03 08:21:01 | 52.25306 | 9.30330 | 115° | 131km/h | 9239m | -5.7m/s | -40.2°C | 15.9% | 308.7hPa | 2.5V | 08:03:00 | 00:00:00 | 00:00:00 | |
| DM0DOS-11 | 2026-09-03 08:21:00 | 52.25418 | 9.29983 | 119° | 144km/h | 9277m | -5m/s | -40.6°C | 17.7% | 307hPa | 2.5V | 08:03:03 | 01:48:37 | 00:00:00 | |
| DL1XH-west | 2026-09-03 08:20:58 | 52.25367 | 9.30135 | 119° | 137km/h | 9261m | -5.4m/s | -40.4°C | 20% | 307.6hPa | 2.5V | 08:03:43 | 01:48:40 | 00:00:00 | |
| DF8AY | 2026-09-03 08:20:56 | 52.25488 | 9.29764 | 115° | 155km/h | 9298m | -5.6m/s | -40.7°C | 19.8% | 306hPa | 2.5V | 08:03:43 | 01:48:33 | 00:00:00 | |
| HSKMA3-T | 2026-09-03 08:20:55 | 52.25418 | 9.29983 | 120° | 144km/h | 9277m | -5m/s | -40.6°C | 19.9% | 307hPa | 2.5V | 08:03:43 | 01:48:37 | 00:00:00 | |
| DO2JMG | 2026-09-03 08:20:54 | 52.25436 | 9.29931 | 118° | 148km/h | 9282m | -5.5m/s | -40.6°C | 19.9% | 306.6hPa | 2.5V | 08:05:25 | 01:48:36 | 00:00:00 | |
| BUE01 | 2026-09-03 08:20:53 | 52.25471 | 9.29821 | 116° | 151km/h | 9293m | -5.3m/s | -40.7°C | 15.6% | 306.2hPa | 2.6V | 00:00:00 | 00:00:00 | 00:00:00 | |
| DL1XH-15 | 2026-09-03 08:20:52 | 52.25552 | 9.29529 | 112° | 157km/h | 9320m | -5.6m/s | -40.9°C | 17.3% | 305hPa | 2.6V | 08:03:11 | 01:48:29 | 00:00:00 | |
| AA1-15 | 2026-09-03 08:20:52 | 52.25471 | 9.29821 | 116° | 151km/h | 9293m | -5.3m/s | -40.7°C | 19.9% | 306.2hPa | 2.6V | 08:03:43 | 01:48:34 | 00:00:00 | |
| DL1NUX | 2026-09-03 08:20:51 | 52.25567 | 9.29469 | 112° | 157km/h | 9325m | -5.6m/s | -40.9°C | 17.2% | 304.7hPa | 2.6V | 08:03:12 | 01:48:28 | 00:00:00 | |
| DL1XH-west | 2026-09-03 08:20:48 | 52.25536 | 9.29588 | 113° | 157km/h | 9314m | -5.6m/s | -40.8°C | 19.4% | 305.2hPa | 2.6V | 08:03:43 | 01:48:30 | 00:00:00 | |
| DL3AQ-11 | 2026-09-03 08:20:46 | 52.25582 | 9.29409 | 110° | 155km/h | 9331m | -5.5m/s | -40.8°C | 15.1% | 304.5hPa | 2.5V | 00:00:00 | 00:00:00 | 00:00:00 | |
| HSKMA3-T | 2026-09-03 08:20:44 | 52.25596 | 9.29350 | 110° | 153km/h | 9336m | -5.3m/s | -40.8°C | 19.5% | 304.2hPa | 2.5V | 08:03:43 | 01:48:26 | 00:00:00 | |
| DL4XJ-10 | 2026-09-03 08:20:43 | 52.25609 | 9.29291 | 110° | 144km/h | 9342m | -5.3m/s | -39.7°C | 0% | 0hPa | 2.6V | 00:00:00 | 00:00:00 | 00:00:00 | |
| DO2SHX-10 | 2026-09-03 08:20:42 | 52.25622 | 9.29233 | 110° | 144km/h | 9347m | -5.1m/s | -40.9°C | 17.7% | 303.7hPa | 2.6V | 00:00:00 | 01:48:24 | 00:00:00 | |
| DL1NUX | 2026-09-03 08:20:41 | 52.25709 | 9.28912 | 117° | 144km/h | 9377m | -5.3m/s | -41°C | 19.5% | 302.3hPa | 2.6V | 08:03:22 | 01:48:18 | 00:00:00 | |
| DF8AY | 2026-09-03 08:20:41 | 52.25635 | 9.29177 | 111° | 144km/h | 9352m | -5.2m/s | -40.9°C | 20.2% | 303.5hPa | 2.6V | 08:03:43 | 01:48:23 | 00:00:00 | |
| DB0DAN | 2026-09-03 08:20:40 | 52.25648 | 9.29122 | 112° | 135km/h | 9357m | -5.3m/s | -41°C | 0% | 0hPa | 2.6V | 00:00:00 | 00:00:00 | 00:00:00 | |
| DO2JMG | 2026-09-03 08:20:39 | 52.25662 | 9.29069 | 114° | 141km/h | 9362m | -5m/s | -41°C | 20.8% | 303.1hPa | 2.5V | 08:05:25 | 01:48:21 | 00:00:00 | |
| DL1XH-west | 2026-09-03 08:20:37 | 52.25692 | 9.28964 | 117° | 142km/h | 9372m | -5.3m/s | -41°C | 21.6% | 302.6hPa | 2.5V | 08:03:43 | 01:48:19 | 00:00:00 | |
| BIOWL1-15 | 2026-09-03 08:20:34 | 52.25742 | 9.28806 | 117° | 144km/h | 9388m | -5m/s | -41.1°C | 23.2% | 301.9hPa | 2.5V | 08:03:43 | 01:48:16 | 00:00:00 | |
| HSKMA3-T | 2026-09-03 08:20:33 | 52.25759 | 9.28753 | 118° | 146km/h | 9393m | -5.2m/s | -41.1°C | 23.9% | 301.7hPa | 2.5V | 08:03:43 | 01:48:15 | 00:00:00 | |
| DF5WG-10 | 2026-09-03 08:20:33 | 52.25759 | 9.28753 | 118° | 144km/h | 9393m | -5.1m/s | -41.1°C | 21.2% | 301.7hPa | 2.5V | 00:00:00 | 01:48:15 | 00:00:00 | |
| DO2SHX-10 | 2026-09-03 08:20:32 | 52.25775 | 9.28700 | 117° | 144km/h | 9398m | -5.3m/s | -41.1°C | 21.5% | 301.4hPa | 2.5V | 00:00:00 | 01:48:14 | 00:00:00 | |
| DL1NUX | 2026-09-03 08:20:31 | 52.25872 | 9.28380 | 117° | 146km/h | 9429m | -5.7m/s | -41.4°C | 23.1% | 300.1hPa | 2.5V | 08:03:32 | 01:48:08 | 00:00:00 | |
| DM0DOS-11 | 2026-09-03 08:20:30 | 52.25890 | 9.28326 | 117° | 146km/h | 9434m | -5.3m/s | -41.4°C | 23.3% | 299.7hPa | 2.6V | 08:03:33 | 01:48:07 | 00:00:00 | |
| AA1-15 | 2026-09-03 08:20:30 | 52.25807 | 9.28593 | 116° | 142km/h | 9408m | -5.3m/s | -41.3°C | 24.9% | 301hPa | 2.6V | 08:03:43 | 01:48:12 | 00:00:00 | |
| DO2JMG | 2026-09-03 08:20:29 | 52.25823 | 9.28540 | 116° | 144km/h | 9413m | -5.5m/s | -41.3°C | 25.3% | 300.8hPa | 2.6V | 08:05:25 | 01:48:11 | 00:00:00 | |
| DO2SHX-10 | 2026-09-03 08:20:29 | 52.25823 | 9.28540 | 116° | 144km/h | 9413m | -5.4m/s | -41.2°C | 22.4% | 300.7hPa | 2.6V | 08:03:00 | 01:48:11 | 00:00:00 | |
| DL1XH1-15 | 2026-09-03 08:20:27 | 52.25941 | 9.28165 | 117° | 148km/h | 9451m | -5.4m/s | -41.5°C | 23.7% | 299.1hPa | 2.5V | 08:03:36 | 01:48:04 | 00:00:00 | |
| DL1XH-west | 2026-09-03 08:20:27 | 52.25856 | 9.28433 | 117° | 146km/h | 9424m | -5.3m/s | -41.4°C | 25.8% | 300.3hPa | 2.5V | 08:03:43 | 01:48:09 | 00:00:00 | |
| BIOWL1-15 | 2026-09-03 08:20:25 | 52.25923 | 9.28219 | 117° | 148km/h | 9445m | -5.6m/s | -41.5°C | 26.6% | 299.3hPa | 2.6V | 08:03:43 | 01:48:05 | 00:00:00 | |
| HSKMA3-T | 2026-09-03 08:20:22 | 52.25941 | 9.28165 | 118° | 148km/h | 9451m | -5.4m/s | -41.5°C | 26.7% | 299.1hPa | 2.5V | 08:03:43 | 01:48:04 | 00:00:00 | |
| DL1NUX | 2026-09-03 08:20:21 | 52.26049 | 9.27838 | 119° | 153km/h | 9483m | -5.6m/s | -41.7°C | 24.1% | 297.7hPa | 2.5V | 08:03:42 | 01:47:58 | 00:00:00 | |
| GOEST3-10 | 2026-09-03 08:20:21 | 52.25958 | 9.28111 | 119° | 150km/h | 9456m | -5.0m/s | -41.5°C | 23.8% | 298.8hPa | 2.5V | 00:00:00 | 01:48:03 | 00:00:00 | |
| DM0DOS-11 | 2026-09-03 08:20:20 | 52.26068 | 9.27783 | 119° | 155km/h | 9488m | -5.5m/s | -41.7°C | 24.2% | 297.5hPa | 2.5V | 08:03:43 | 01:47:57 | 00:00:00 | |
| AA1-15 | 2026-09-03 08:20:20 | 52.25976 | 9.28057 | 118° | 148km/h | 9461m | -5.4m/s | -41.6°C | 26.9% | 298.6hPa | 2.5V | 08:03:43 | 01:48:02 | 00:00:00 | |
| DF8AY | 2026-09-03 08:20:19 | 52.25994 | 9.28003 | 118° | 150km/h | 9466m | -5.5m/s | -41.7°C | 27% | 298.5hPa | 2.6V | 08:03:43 | 01:48:01 | 00:00:00 | |
| DO2JMG | 2026-09-03 08:20:18 | 52.26012 | 9.27948 | 119° | 151km/h | 9472m | -5.6m/s | -41.7°C | 27.1% | 298.1hPa | 2.6V | 08:05:25 | 01:48:00 | 00:00:00 | |
| DL1XH-west | 2026-09-03 08:20:17 | 52.26030 | 9.27893 | 119° | 153km/h | 9477m | -5.6m/s | -41.7°C | 27.2% | 297.9hPa | 2.5V | 08:03:43 | 01:47:59 | 00:00:00 | |
| BIOWL1-15 | 2026-09-03 08:20:13 | 52.26107 | 9.27671 | 120° | 155km/h | 9499m | -5.7m/s | -41.8°C | 27.3% | 297hPa | 2.6V | 08:04:34 | 01:47:55 | 00:00:00 | |
| HSKMA3-T | 2026-09-03 08:20:12 | 52.26126 | 9.27615 | 120° | 157km/h | 9504m | -5.5m/s | -41.9°C | 27.3% | 296.7hPa | 2.6V | 08:04:34 | 01:47:54 | 00:00:00 | |
| DO2SHX-10 | 2026-09-03 08:20:11 | 52.26146 | 9.27559 | 121° | 161km/h | 9510m | -5.4m/s | -41.9°C | 24.3% | 296.5hPa | 2.5V | 00:00:00 | 01:47:53 | 00:00:00 | |
| DM0DOS-11 | 2026-09-03 08:20:10 | 52.26270 | 9.27207 | 118° | 170km/h | 9541m | -5.2m/s | -42.1°C | 23.8% | 295.2hPa | 2.5V | 08:03:53 | 01:47:47 | 00:00:00 | |
| DB0DAN | 2026-09-03 08:20:10 | 52.26166 | 9.27503 | 120° | 153km/h | 9515m | -5.4m/s | -42°C | 21.8% | 296.35hPa | 2.5V | 00:00:00 | 00:00:00 | 00:00:00 | |
| AA1-15 | 2026-09-03 08:20:09 | 52.26187 | 9.27445 | 120° | 162km/h | 9520m | -5.6m/s | -42°C | 27.2% | 296.1hPa | 2.5V | 08:04:34 | 01:47:51 | 00:00:00 | |
| DO2JMG | 2026-09-03 08:20:08 | 52.26207 | 9.27387 | 120° | 162km/h | 9526m | -5.6m/s | -42°C | 27.1% | 295.9hPa | 2.6V | 08:05:25 | 01:47:50 | 00:00:00 | |
| DL1XH-west | 2026-09-03 08:20:06 | 52.26248 | 9.27268 | 120° | 168km/h | 9536m | -5.3m/s | -42.1°C | 26.8% | 295.4hPa | 2.6V | 08:04:34 | 01:47:48 | 00:00:00 | |
| BIOWL1-15 | 2026-09-03 08:20:03 | 52.26311 | 9.27084 | 119° | 172km/h | 9552m | -5.2m/s | -42.2°C | 26.5% | 294.6hPa | 2.5V | 08:04:34 | 01:47:45 | 00:00:00 | |
| HSKMA3-T | 2026-09-03 08:20:02 | 52.26332 | 9.27022 | 118° | 173km/h | 9558m | -5.3m/s | -42.3°C | 26.3% | 294.4hPa | 2.5V | 08:04:34 | 01:47:44 | 00:00:00 | |
| DO2SHX-10 | 2026-09-03 08:20:02 | 52.26332 | 9.27022 | 119° | 175km/h | 9558m | -5.3m/s | -42.2°C | 23.6% | 294.4hPa | 2.5V | 08:03:00 | 01:47:44 | 00:00:00 | |
| GOEST3-10 | 2026-09-03 08:20:01 | 52.26352 | 9.26958 | 118° | 175km/h | 9563m | -5.5m/s | -42.3°C | 23.4% | 294.2hPa | 2.6V | 00:00:00 | 01:47:43 | 00:00:00 | |
| DM0DOS-11 | 2026-09-03 08:20:00 | 52.26467 | 9.26568 | 113° | 173km/h | 9596m | -5.2m/s | -42.5°C | 21.4% | 292.9hPa | 2.6V | 08:04:03 | 01:47:37 | 00:00:00 | |
| AA1-15 | 2026-09-03 08:19:58 | 52.26412 | 9.26764 | 116° | 175km/h | 9580m | -5.3m/s | -42.5°C | 25.1% | 293.5hPa | 2.5V | 08:04:34 | 01:47:40 | 00:00:00 | |
| DO2JMG | 2026-09-03 08:19:57 | 52.26431 | 9.26699 | 115° | 175km/h | 9585m | -5.6m/s | -42.4°C | 24.7% | 293.3hPa | 2.5V | 08:05:25 | 01:47:39 | 00:00:00 | |
| DL1XH-west | 2026-09-03 08:19:56 | 52.26449 | 9.26633 | 114° | 175km/h | 9590m | -5.5m/s | -42.5°C | 24.1% | 293hPa | 2.5V | 08:04:34 | 01:47:38 | 00:00:00 | |
| BIOWL1-15 | 2026-09-03 08:19:52 | 52.26518 | 9.26374 | 113° | 168km/h | 9611m | -5.3m/s | -42.5°C | 23.3% | 292.2hPa | 2.5V | 08:04:34 | 01:47:34 | 00:00:00 | |
| HSKMA3-T | 2026-09-03 08:19:51 | 52.26534 | 9.26311 | 113° | 166km/h | 9617m | -5.3m/s | -42.5°C | 23.2% | 292hPa | 2.5V | 08:04:34 | 01:47:33 | 00:00:00 | |
| DL1NUX | 2026-09-03 08:19:51 | 52.26619 | 9.26006 | 115° | 161km/h | 9642m | -5.3m/s | -42.6°C | 21% | 290.9hPa | 2.5V | 08:04:12 | 01:47:28 | 00:00:00 | |
| DF8AY | 2026-09-03 08:19:48 | 52.26584 | 9.26126 | 114° | 161km/h | 9632m | -5.5m/s | -42.6°C | 23.3% | 291.4hPa | 2.6V | 08:04:34 | 01:47:30 | 00:00:00 | |
| AA1-15 | 2026-09-03 08:19:47 | 52.26601 | 9.26066 | 116° | 161km/h | 9637m | -4.9m/s | -42.6°C | 23.4% | 291.1hPa | 2.5V | 08:04:34 | 01:47:29 | 00:00:00 | |
| DL1XH-west | 2026-09-03 08:19:45 | 52.26637 | 9.25947 | 117° | 161km/h | 9648m | -5m/s | -42.7°C | 23.7% | 290.7hPa | 2.5V | 08:04:34 | 01:47:27 | 00:00:00 | |
| BIOWL1-15 | 2026-09-03 08:19:44 | 52.26695 | 9.25769 | 118° | 162km/h | 9662m | -4.9m/s | -42.7°C | 24.7% | 290hPa | 2.6V | 08:04:34 | 01:47:24 | 00:00:00 | |
| DO2SHX-10 | 2026-09-03 08:19:44 | 52.26656 | 9.25888 | 118° | 162km/h | 9653m | -5.1m/s | -42.6°C | 21.3% | 290.4hPa | 2.6V | 00:00:00 | 01:47:26 | 00:00:00 | |
| SO1NDE-10 | 2026-09-03 08:19:43 | 52.26675 | 9.25829 | 119° | 166km/h | 9658m | -4.6m/s | -42.7°C | 21.7% | 290.2hPa | 2.6V | 00:00:00 | 01:47:25 | 00:00:00 | |
| DL1XH-15 | 2026-09-03 08:19:42 | 52.26795 | 9.25474 | 119° | 164km/h | 9687m | -5m/s | -42.9°C | 23.8% | 288.9hPa | 2.6V | 08:04:21 | 01:47:19 | 00:00:00 | |
| HSKMA3-T | 2026-09-03 08:19:41 | 52.26714 | 9.25710 | 119° | 164km/h | 9667m | -4.8m/s | -42.8°C | 25% | 289.8hPa | 2.5V | 08:04:34 | 01:47:23 | 00:00:00 | |
| DO2SHX-10 | 2026-09-03 08:19:41 | 52.26714 | 9.25710 | 119° | 164km/h | 9667m | -4.7m/s | -42.7°C | 22.1% | 289.7hPa | 2.5V | 00:00:00 | 01:47:23 | 00:00:00 | |
| DM0DOS-11 | 2026-09-03 08:19:40 | 52.26835 | 9.25355 | 119° | 164km/h | 9697m | -5.4m/s | -42.9°C | 24.3% | 288.5hPa | 2.5V | 08:04:23 | 01:47:17 | 00:00:00 | |
| DB0DAN | 2026-09-03 08:19:40 | 52.26735 | 9.25651 | 119° | 157km/h | 9672m | -5.2m/s | -42.8°C | 19.9% | 289.54hPa | 2.5V | 00:00:00 | 00:00:00 | 00:00:00 | |
| DF8AY | 2026-09-03 08:19:38 | 52.26775 | 9.25533 | 119° | 164km/h | 9682m | -5.2m/s | -42.8°C | 26.4% | 289.1hPa | 2.6V | 08:04:34 | 01:47:20 | 00:00:00 | |
| AA1-15 | 2026-09-03 08:19:37 | 52.26795 | 9.25474 | 119° | 164km/h | 9687m | -5m/s | -42.9°C | 26.9% | 288.9hPa | 2.6V | 08:04:34 | 01:47:19 | 00:00:00 | |
| DL1XH-west | 2026-09-03 08:19:34 | 52.26855 | 9.25295 | 120° | 166km/h | 9702m | -5m/s | -42.9°C | 27.6% | 288.3hPa | 2.6V | 08:04:34 | 01:47:16 | 00:00:00 | |
| BIOWL1-15 | 2026-09-03 08:19:32 | 52.26898 | 9.25175 | 120° | 168km/h | 9713m | -5.4m/s | -43°C | 27.7% | 287.8hPa | 2.5V | 08:04:34 | 01:47:14 | 00:00:00 | |
| DO2SHX-10 | 2026-09-03 08:19:32 | 52.26897 | 9.25175 | 121° | 170km/h | 9713m | -5.3m/s | -43.0°C | 24.6% | 287.7hPa | 2.5V | 00:00:00 | 01:47:14 | 00:00:00 | |
| GOEST3-10 | 2026-09-03 08:19:31 | 52.26919 | 9.25115 | 121° | 168km/h | 9719m | -5.0m/s | -43.0°C | 24.7% | 287.6hPa | 2.5V | 00:00:00 | 01:47:13 | 00:00:00 | |
| DM0DOS-11 | 2026-09-03 08:19:30 | 52.27041 | 9.24755 | 116° | 162km/h | 9748m | -4.9m/s | -43.2°C | 24.9% | 286.3hPa | 2.5V | 08:04:33 | 01:47:07 | 00:00:00 | |
| HSKMA3-T | 2026-09-03 08:19:30 | 52.26941 | 9.25055 | 120° | 170km/h | 9723m | -5.2m/s | -43.1°C | 27.6% | 287.4hPa | 2.5V | 08:04:34 | 01:47:12 | 00:00:00 | |
| DO2JMG | 2026-09-03 08:19:28 | 52.26983 | 9.24935 | 119° | 166km/h | 9733m | -4.8m/s | -43.1°C | 27.5% | 287hPa | 2.6V | 08:05:25 | 01:47:10 | 00:00:00 | |
| DL1XH1-15 | 2026-09-03 08:19:27 | 52.27098 | 9.24575 | 117° | 164km/h | 9762m | -4.8m/s | -43.4°C | 25.2% | 285.7hPa | 2.6V | 08:04:36 | 01:47:04 | 00:00:00 | |
| AA1-15 | 2026-09-03 08:19:27 | 52.27003 | 9.24875 | 118° | 166km/h | 9738m | -4.7m/s | -43.2°C | 27.5% | 286.7hPa | 2.6V | 08:04:34 | 01:47:09 | 00:00:00 | |
| DB0DAN | 2026-09-03 08:19:25 | 52.27041 | 9.24755 | 117° | 155km/h | 9748m | -4.9m/s | -43.2°C | 22.2% | 286.34hPa | 2.5V | 00:00:00 | 00:00:00 | 00:00:00 | |
| DL1XH-west | 2026-09-03 08:19:23 | 52.27079 | 9.24635 | 118° | 164km/h | 9758m | -5.1m/s | -43.3°C | 27.7% | 285.9hPa | 2.6V | 08:05:25 | 01:47:05 | 00:00:00 | |
| BIOWL1-15 | 2026-09-03 08:19:23 | 52.27118 | 9.24515 | 119° | 166km/h | 9768m | -5m/s | -43.4°C | 27.8% | 285.6hPa | 2.5V | 08:05:25 | 01:47:03 | 00:00:00 | |
| DL4XJ-10 | 2026-09-03 08:19:23 | 52.27079 | 9.24635 | 118° | 175km/h | 9758m | -5.0m/s | -42.2°C | 0% | 0hPa | 2.6V | 00:00:00 | 00:00:00 | 00:00:00 | |
| DL1XH-15 | 2026-09-03 08:19:22 | 52.27201 | 9.24273 | 119° | 172km/h | 9788m | -5.2m/s | -43.5°C | 24.8% | 284.7hPa | 2.6V | 08:04:41 | 01:46:59 | 00:00:00 | |
| GOEST3-10 | 2026-09-03 08:19:21 | 52.27118 | 9.24515 | 119° | 168km/h | 9768m | -4.9m/s | -43.4°C | 25.1% | 285.5hPa | 2.5V | 00:00:00 | 01:47:03 | 00:00:00 | |
| DM0DOS-11 | 2026-09-03 08:19:20 | 52.27245 | 9.24149 | 120° | 175km/h | 9798m | -5.3m/s | -43.6°C | 24.2% | 284.2hPa | 2.5V | 08:04:43 | 01:46:57 | 00:00:00 | |
| HSKMA3-T | 2026-09-03 08:19:19 | 52.27159 | 9.24394 | 119° | 168km/h | 9778m | -5m/s | -43.4°C | 27.8% | 285hPa | 2.5V | 08:05:25 | 01:47:01 | 00:00:00 | |
| DB0NH | 2026-09-03 08:19:19 | 52.27159 | 9.24394 | 120° | 186km/h | 9778m | -5.0m/s | -43.4°C | 25.0% | 284.9hPa | 2.6V | 00:00:00 | 01:47:01 | 00:00:00 | |
| DK9SH | 2026-09-03 08:19:18 | 52.27159 | 9.24394 | 120° | 168km/h | 9778m | -5.0m/s | -43.4°C | 22.3% | 285.0hPa | 2.6V | 08:05:00 | 00:00:00 | 00:00:00 | |
| DL1XH1-15 | 2026-09-03 08:19:17 | 52.27313 | 9.23963 | 120° | 177km/h | 9814m | -5.5m/s | -43.7°C | 23.6% | 283.5hPa | 2.6V | 08:04:46 | 01:46:54 | 00:00:00 | |
| DF8AY | 2026-09-03 08:19:17 | 52.27201 | 9.24273 | 120° | 172km/h | 9788m | -5.3m/s | -43.5°C | 27.8% | 284.7hPa | 2.6V | 08:05:25 | 01:46:59 | 00:00:00 | |
| AA1-15 | 2026-09-03 08:19:16 | 52.27223 | 9.24211 | 120° | 173km/h | 9793m | -5.2m/s | -43.5°C | 27.7% | 284.4hPa | 2.6V | 08:05:25 | 01:46:58 | 00:00:00 | |
| BIOWL1-15 | 2026-09-03 08:19:13 | 52.27336 | 9.23900 | 121° | 177km/h | 9819m | -5.5m/s | -43.7°C | 27% | 283.3hPa | 2.6V | 08:05:25 | 01:46:53 | 00:00:00 | |
| DO9LL-15 | 2026-09-03 08:19:13 | 52.27290 | 9.24025 | 121° | 192km/h | 9809m | -5.2m/s | -43.7°C | 23.8% | 283.6hPa | 2.6V | 00:00:00 | 01:46:55 | 00:00:00 | |
| DL1XH-15 | 2026-09-03 08:19:12 | 52.27430 | 9.23645 | 120° | 184km/h | 9841m | -5.2m/s | -43.8°C | 24.1% | 282.4hPa | 2.6V | 08:04:51 | 01:46:49 | 00:00:00 | |
| DL1XH-west | 2026-09-03 08:19:12 | 52.27313 | 9.23963 | 121° | 177km/h | 9814m | -5.5m/s | -43.7°C | 27.1% | 283.5hPa | 2.6V | 08:05:25 | 01:46:54 | 00:00:00 | |
| DB0DAN | 2026-09-03 08:19:10 | 52.27359 | 9.23838 | 121° | 170km/h | 9825m | -5.4m/s | -43.7°C | 21% | 283.07hPa | 2.5V | 00:00:00 | 00:00:00 | 00:00:00 | |
| HSKMA3-T | 2026-09-03 08:19:09 | 52.27383 | 9.23774 | 121° | 181km/h | 9830m | -5.4m/s | -43.8°C | 26.8% | 282.8hPa | 2.5V | 08:05:25 | 01:46:51 | 00:00:00 | |
| DD8BA-10 | 2026-09-03 08:19:09 | 52.27383 | 9.23774 | 122° | 188km/h | 9830m | -5.4m/s | -43.7°C | 23.8% | 282.8hPa | 2.5V | 00:00:00 | 00:00:00 | 00:00:00 | |
| DO2SHX-10 | 2026-09-03 08:19:08 | 52.27406 | 9.23710 | 121° | 184km/h | 9836m | -5.5m/s | -43.7°C | 23.8% | 282.6hPa | 2.6V | 08:04:00 | 01:46:50 | 00:00:00 | |
| DL1XH1-15 | 2026-09-03 08:19:07 | 52.27548 | 9.23305 | 118° | 193km/h | 9867m | -5.1m/s | -43.9°C | 23.8% | 281.3hPa | 2.6V | 08:04:56 | 01:46:44 | 00:00:00 | |
| DF8AY | 2026-09-03 08:19:06 | 52.27454 | 9.23579 | 120° | 188km/h | 9846m | -5.3m/s | -43.8°C | 26.8% | 282.1hPa | 2.5V | 08:05:25 | 01:46:48 | 00:00:00 | |
| AA1-15 | 2026-09-03 08:19:05 | 52.27478 | 9.23512 | 120° | 190km/h | 9852m | -5.2m/s | -43.8°C | 26.9% | 281.9hPa | 2.5V | 08:05:25 | 01:46:47 | 00:00:00 | |
| DO2SHX-10 | 2026-09-03 08:19:05 | 52.27477 | 9.23512 | 120° | 190km/h | 9852m | -5.1m/s | -43.8°C | 24.2% | 281.9hPa | 2.6V | 00:00:00 | 01:46:47 | 00:00:00 | |
| DO3DL | 2026-09-03 08:19:04 | 52.27477 | 9.23512 | 121° | 190km/h | 9852m | -5.2m/s | -43.8°C | 21.5% | 281.9hPa | 2.6V | 08:05:00 | 00:00:00 | 00:00:00 | |
| DL4XJ-10 | 2026-09-03 08:19:03 | 52.27525 | 9.23375 | 119° | 195km/h | 9862m | -5.3m/s | -42.7°C | 0% | 0hPa | 2.6V | 00:00:00 | 00:00:00 | 00:00:00 | |
| DL1XH-15 | 2026-09-03 08:19:02 | 52.27662 | 9.22952 | 117° | 195km/h | 9894m | -5.5m/s | -44.1°C | 23.5% | 280.2hPa | 2.6V | 08:05:01 | 01:46:39 | 00:00:00 | |
| BIOWL1-15 | 2026-09-03 08:19:01 | 52.27571 | 9.23235 | 118° | 193km/h | 9872m | -5.3m/s | -44°C | 27% | 281.1hPa | 2.6V | 08:05:25 | 01:46:43 | 00:00:00 | |
| GOEST3-10 | 2026-09-03 08:19:01 | 52.27571 | 9.23235 | 118° | 193km/h | 9872m | -5.2m/s | -43.9°C | 23.8% | 281.1hPa | 2.6V | 08:04:00 | 01:46:43 | 00:00:00 | |
| DM0DOS-11 | 2026-09-03 08:19:00 | 52.27708 | 9.22810 | 118° | 195km/h | 9904m | -5.4m/s | -44.2°C | 23.9% | 279.7hPa | 2.5V | 08:05:03 | 01:46:37 | 00:00:00 | |
| HSKMA3-T | 2026-09-03 08:18:58 | 52.27639 | 9.23023 | 118° | 193km/h | 9888m | -5.4m/s | -44.1°C | 27.1% | 280.4hPa | 2.6V | 08:05:25 | 01:46:40 | 00:00:00 | |
| DF8AY | 2026-09-03 08:18:56 | 52.27685 | 9.22881 | 118° | 195km/h | 9899m | -5.6m/s | -44.2°C | 27.3% | 279.9hPa | 2.6V | 08:05:25 | 01:46:38 | 00:00:00 | |
| DB0DAN | 2026-09-03 08:18:55 | 52.27708 | 9.22810 | 118° | 186km/h | 9904m | -5.4m/s | -44.2°C | 21.1% | 279.73hPa | 2.5V | 00:00:00 | 00:00:00 | 00:00:00 | |
| DO2JMG | 2026-09-03 08:18:54 | 52.27732 | 9.22740 | 119° | 195km/h | 9910m | -5.4m/s | -44.3°C | 27.7% | 279.5hPa | 2.5V | 08:05:25 | 01:46:36 | 00:00:00 | |
| BIOWL1-15 | 2026-09-03 08:18:54 | 52.27828 | 9.22456 | 119° | 197km/h | 9931m | -5.4m/s | -44.4°C | 29% | 278.6hPa | 2.6V | 08:05:25 | 01:46:32 | 00:00:00 | |
| D01LWL | 2026-09-03 08:18:53 | 52.27780 | 9.22598 | 118° | 195km/h | 9920m | -5.4m/s | -44.4°C | 22.0% | 279.0hPa | 2.6V | 00:00:00 | 00:00:00 | 00:00:00 | |
| DL1NUX | 2026-09-03 08:18:51 | 52.27922 | 9.22167 | 116° | 199km/h | 9952m | -5.2m/s | -44.6°C | 28.1% | 277.7hPa | 2.6V | 08:05:12 | 01:46:28 | 00:00:00 | |
| DL1XH-west | 2026-09-03 08:18:51 | 52.27804 | 9.22527 | 119° | 197km/h | 9926m | -5.5m/s | -44.4°C | 28.6% | 278.8hPa | 2.6V | 08:05:25 | 01:46:33 | 00:00:00 | |
| HSKMA3-T | 2026-09-03 08:18:48 | 52.27875 | 9.22313 | 118° | 199km/h | 9942m | -5.6m/s | -44.5°C | 30% | 278.1hPa | 2.5V | 08:05:25 | 01:46:30 | 00:00:00 | |
| HTAHTA | 2026-09-03 08:18:48 | 52.27899 | 9.22240 | 117° | 197km/h | 9947m | -5.2m/s | -44.5°C | 24.5% | 277.9hPa | 2.6V | 00:00:00 | 00:00:00 | 00:00:00 | |
| DL1XH1-15 | 2026-09-03 08:18:47 | 52.28009 | 9.21875 | 115° | 195km/h | 9973m | -5m/s | -44.7°C | 31.2% | 276.8hPa | 2.6V | 08:05:16 | 01:46:24 | 00:00:00 | |
| DF8AY | 2026-09-03 08:18:46 | 52.27922 | 9.22167 | 117° | 199km/h | 9953m | -5.2m/s | -44.6°C | 31.1% | 277.7hPa | 2.6V | 08:05:25 | 01:46:28 | 00:00:00 | |
| HARRO8 | 2026-09-03 08:18:46 | 52.27944 | 9.22094 | 116° | 197km/h | 9958m | -5.2m/s | -44.6°C | 25.7% | 277.5hPa | 2.5V | 00:00:00 | 00:00:00 | 00:00:00 | |
| AA1-15 | 2026-09-03 08:18:43 | 52.27988 | 9.21948 | 115° | 195km/h | 9968m | -5.4m/s | -44.7°C | 33.3% | 277hPa | 2.5V | 08:05:25 | 01:46:25 | 00:00:00 | |
| SO1NDE-10 | 2026-09-03 08:18:43 | 52.27988 | 9.21948 | 116° | 192km/h | 9968m | -5.4m/s | -44.6°C | 30.4% | 276.9hPa | 2.5V | 00:00:00 | 01:46:25 | 00:00:00 | |
| DL1XH-15 | 2026-09-03 08:18:42 | 52.28110 | 9.21516 | 114° | 190km/h | 9999m | -5.3m/s | -45°C | 34.8% | 275.8hPa | 2.5V | 08:05:21 | 01:46:19 | 00:00:00 | |
| BIOWL1-15 | 2026-09-03 08:18:41 | 52.28070 | 9.21659 | 114° | 192km/h | 9989m | -5.2m/s | -44.9°C | 36.5% | 276.2hPa | 2.6V | 08:05:25 | 01:46:21 | 00:00:00 | |
| DL1XH-west | 2026-09-03 08:18:41 | 52.28029 | 9.21803 | 115° | 193km/h | 9979m | -5.2m/s | -44.8°C | 34.8% | 276.6hPa | 2.6V | 08:05:25 | 01:46:23 | 00:00:00 | |
| DB0DAN | 2026-09-03 08:18:40 | 52.28050 | 9.21731 | 114° | 183km/h | 9984m | -5.3m/s | -44.8°C | 29.7% | 276.39hPa | 2.6V | 00:00:00 | 00:00:00 | 00:00:00 | |
| HSKMA3-T | 2026-09-03 08:18:37 | 52.28110 | 9.21516 | 115° | 190km/h | 10000m | -5.4m/s | -45°C | 37.9% | 275.8hPa | 2.5V | 08:05:25 | 01:46:19 | 00:00:00 | |
| DF8AY | 2026-09-03 08:18:35 | 52.28150 | 9.21376 | 116° | 186km/h | 10010m | -5.3m/s | -45.1°C | 39.3% | 275.4hPa | 2.6V | 08:05:25 | 01:46:17 | 00:00:00 | |
| DL4BBY-15 | 2026-09-03 08:18:35 | 52.28150 | 9.21376 | 116° | 195km/h | 10011m | -5.2m/s | -44.0°C | 0% | 0hPa | 2.5V | 00:00:00 | 00:00:00 | 00:00:00 | |
| EDDB2-12 | 2026-09-03 08:18:34 | 52.28192 | 9.21239 | 117° | 184km/h | 10021m | -5.0m/s | -45.2°C | 33.8% | 274.9hPa | 2.5V | 00:00:00 | 00:00:00 | 00:00:00 | |
| DF5WG-10 | 2026-09-03 08:18:33 | 52.28192 | 9.21239 | 118° | 184km/h | 10021m | -5.0m/s | -45.2°C | 37.2% | 274.9hPa | 2.5V | 00:00:00 | 01:46:15 | 00:00:00 | |
| DL1XH-15 | 2026-09-03 08:18:32 | 52.28325 | 9.20837 | 118° | 184km/h | 10052m | -5.3m/s | -45.5°C | 40.6% | 273.6hPa | 2.5V | 08:05:31 | 01:46:09 | 00:00:00 | |
| DO2JMG | 2026-09-03 08:18:32 | 52.28214 | 9.21171 | 118° | 184km/h | 10025m | -5.1m/s | -45.3°C | 41.2% | 274.7hPa | 2.5V | 08:06:16 | 01:46:14 | 00:00:00 | |
| DL1XH-west | 2026-09-03 08:18:30 | 52.28258 | 9.21038 | 119° | 184km/h | 10036m | -5.2m/s | -45.4°C | 42.6% | 274.3hPa | 2.6V | 08:06:16 | 01:46:12 | 00:00:00 | |
| BIOWL1-15 | 2026-09-03 08:18:30 | 52.28302 | 9.20904 | 118° | 184km/h | 10047m | -5.3m/s | -45.4°C | 44% | 273.8hPa | 2.6V | 08:06:16 | 01:46:10 | 00:00:00 | |
| DL3AQ-11 | 2026-09-03 08:18:30 | 52.28280 | 9.20971 | 118° | 183km/h | 10041m | -5.2m/s | -45.4°C | 36.2% | 274.0hPa | 2.5V | 00:00:00 | 00:00:00 | 00:00:00 | |
| DO2SHX-10 | 2026-09-03 08:18:29 | 52.28280 | 9.20971 | 119° | 184km/h | 10041m | -5.1m/s | -45.4°C | 39.8% | 274.0hPa | 2.5V | 00:00:00 | 01:46:11 | 00:00:00 | |
| DL1XH1-15 | 2026-09-03 08:18:27 | 52.28440 | 9.20501 | 120° | 192km/h | 10078m | -5.3m/s | -45.6°C | 43.5% | 272.6hPa | 2.5V | 08:05:36 | 01:46:04 | 00:00:00 | |
| HSKMA3-T | 2026-09-03 08:18:26 | 52.28347 | 9.20770 | 118° | 184km/h | 10057m | -5.4m/s | -45.5°C | 45.3% | 273.4hPa | 2.5V | 08:06:16 | 01:46:08 | 00:00:00 | |
| DF8AY | 2026-09-03 08:18:24 | 52.28392 | 9.20636 | 120° | 188km/h | 10068m | -5.1m/s | -45.6°C | 46.6% | 273hPa | 2.6V | 08:06:16 | 01:46:06 | 00:00:00 | |
| DO2SHX-10 | 2026-09-03 08:18:23 | 52.28416 | 9.20569 | 121° | 192km/h | 10073m | -5.2m/s | -45.5°C | 42.8% | 272.6hPa | 2.6V | 00:00:00 | 01:46:05 | 00:00:00 | |
| DL1XH-15 | 2026-09-03 08:18:22 | 52.28565 | 9.20147 | 119° | 203km/h | 10104m | -5.1m/s | -45.8°C | 46.7% | 271.5hPa | 2.6V | 08:05:41 | 01:45:59 | 00:00:00 | |
| D01LWL | 2026-09-03 08:18:22 | 52.28465 | 9.20432 | 120° | 193km/h | 10083m | -5.3m/s | -45.7°C | 40.4% | 272.3hPa | 2.5V | 00:00:00 | 00:00:00 | 00:00:00 | |
| DL1NUX | 2026-09-03 08:18:21 | 52.28590 | 9.20074 | 119° | 204km/h | 10109m | -5.1m/s | -45.8°C | 47.2% | 271.2hPa | 2.5V | 08:05:42 | 01:45:58 | 00:00:00 | |
| AA1-15 | 2026-09-03 08:18:21 | 52.28465 | 9.20432 | 120° | 195km/h | 10083m | -5.3m/s | -45.7°C | 48.2% | 272.3hPa | 2.5V | 08:06:16 | 01:46:03 | 00:00:00 | |
| DL1XH-west | 2026-09-03 08:18:20 | 52.28490 | 9.20362 | 120° | 197km/h | 10089m | -5.2m/s | -45.7°C | 48.8% | 272.1hPa | 2.5V | 08:06:16 | 01:46:02 | 00:00:00 | |
| DO2JMG | 2026-09-03 08:18:19 | 52.28515 | 9.20291 | 120° | 199km/h | 10094m | -5.3m/s | -45.7°C | 49.3% | 271.9hPa | 2.6V | 08:06:16 | 01:46:01 | 00:00:00 | |
| DD8BA-10 | 2026-09-03 08:18:19 | 52.28515 | 9.20291 | 120° | 204km/h | 10094m | -5.2m/s | -45.7°C | 45.4% | 271.8hPa | 2.6V | 00:00:00 | 00:00:00 | 00:00:00 | |
| DL1XH1-15 | 2026-09-03 08:18:17 | 52.28690 | 9.19777 | 118° | 206km/h | 10130m | -5.1m/s | -46°C | 48.7% | 270.4hPa | 2.6V | 08:05:46 | 01:45:54 | 00:00:00 | |
| BIOWL1-15 | 2026-09-03 08:18:17 | 52.28565 | 9.20147 | 119° | 203km/h | 10104m | -5.1m/s | -45.8°C | 50.4% | 271.5hPa | 2.6V | 08:06:16 | 01:45:59 | 00:00:00 | |
| HSKMA3-T | 2026-09-03 08:18:16 | 52.28590 | 9.20074 | 119° | 204km/h | 10109m | -5.1m/s | -45.8°C | 50.9% | 271.2hPa | 2.5V | 08:06:16 | 01:45:58 | 00:00:00 | |
| DF8AY | 2026-09-03 08:18:14 | 52.28640 | 9.19926 | 119° | 206km/h | 10120m | -5.3m/s | -45.9°C | 51.8% | 270.9hPa | 2.5V | 08:06:16 | 01:45:56 | 00:00:00 | |
| DO2SHX-10 | 2026-09-03 08:18:14 | 52.28640 | 9.19925 | 119° | 206km/h | 10120m | -5.2m/s | -45.9°C | 48.1% | 270.8hPa | 2.5V | 08:05:00 | 01:45:56 | 00:00:00 | |
| DF5WG-10 | 2026-09-03 08:18:13 | 52.28665 | 9.19851 | 119° | 204km/h | 10125m | -5.1m/s | -45.9°C | 48.3% | 270.6hPa | 2.6V | 00:00:00 | 01:45:55 | 00:00:00 | |
| DL1XH-15 | 2026-09-03 08:18:12 | 52.28816 | 9.19408 | 119° | 204km/h | 10156m | -5.1m/s | -46.2°C | 50.3% | 269.2hPa | 2.6V | 08:05:51 | 01:45:49 | 00:00:00 | |
| DL1NUX | 2026-09-03 08:18:11 | 52.28841 | 9.19335 | 119° | 204km/h | 10161m | -5.2m/s | -46.3°C | 50.6% | 269.1hPa | 2.6V | 08:05:52 | 01:45:48 | 00:00:00 | |
| AA1-15 | 2026-09-03 08:18:11 | 52.28715 | 9.19702 | 119° | 204km/h | 10135m | -5.2m/s | -46°C | 52.8% | 270.2hPa | 2.5V | 08:06:16 | 01:45:53 | 00:00:00 | |
| DO2SHX-10 | 2026-09-03 08:18:11 | 52.28715 | 9.19702 | 119° | 204km/h | 10135m | -5.2m/s | -46.0°C | 48.9% | 270.1hPa | 2.5V | 00:00:00 | 01:45:53 | 00:00:00 | |
| DM0DOS-11 | 2026-09-03 08:18:10 | 52.28866 | 9.19261 | 119° | 204km/h | 10167m | -5.3m/s | -46.3°C | 51.2% | 268.9hPa | 2.5V | 08:05:53 | 01:45:47 | 00:00:00 | |
| DL1XH-west | 2026-09-03 08:18:10 | 52.28740 | 9.19628 | 119° | 204km/h | 10140m | -5.2m/s | -46.1°C | 53.2% | 269.9hPa | 2.5V | 08:06:16 | 01:45:52 | 00:00:00 | |
| DB0DAN | 2026-09-03 08:18:10 | 52.28740 | 9.19628 | 119° | 195km/h | 10140m | -5.2m/s | -46.1°C | 45.2% | 269.93hPa | 2.5V | 00:00:00 | 00:00:00 | 00:00:00 | |
| DO2JMG | 2026-09-03 08:18:09 | 52.28765 | 9.19555 | 119° | 204km/h | 10146m | -5.3m/s | -46.1°C | 53.5% | 269.7hPa | 2.6V | 08:06:16 | 01:45:51 | 00:00:00 | |
| DO2SHX-10 | 2026-09-03 08:18:08 | 52.28790 | 9.19481 | 120° | 204km/h | 10151m | -5.3m/s | -46.1°C | 49.9% | 269.4hPa | 2.6V | 00:00:00 | 01:45:50 | 00:00:00 | |
| DL1XH1-15 | 2026-09-03 08:18:07 | 52.28941 | 9.19038 | 118° | 206km/h | 10182m | -5.1m/s | -46.4°C | 52.4% | 268.2hPa | 2.6V | 08:05:56 | 01:45:44 | 00:00:00 | |
| HSKMA3-T | 2026-09-03 08:18:06 | 52.28841 | 9.19335 | 119° | 204km/h | 10161m | -5.2m/s | -46.3°C | 54.6% | 269.1hPa | 2.6V | 08:06:16 | 01:45:48 | 00:00:00 | |
| DF8AY | 2026-09-03 08:18:04 | 52.28891 | 9.19187 | 119° | 206km/h | 10172m | -5.1m/s | -46.4°C | 55.5% | 268.7hPa | 2.5V | 08:06:16 | 01:45:46 | 00:00:00 | |
| DL4XJ-10 | 2026-09-03 08:18:03 | 52.28916 | 9.19113 | 119° | 208km/h | 10177m | -5.3m/s | -45.3°C | 0% | 0hPa | 2.6V | 00:00:00 | 00:00:00 | 00:00:00 | |
| DO2SHX-10 | 2026-09-03 08:18:02 | 52.28941 | 9.19038 | 119° | 206km/h | 10182m | -5.1m/s | -46.4°C | 52.4% | 268.2hPa | 2.6V | 00:00:00 | 01:45:44 | 00:00:00 | |
| DL1NUX | 2026-09-03 08:18:01 | 52.29093 | 9.18593 | 119° | 204km/h | 10214m | -5.2m/s | -46.7°C | 54.4% | 267hPa | 2.6V | 08:06:02 | 01:45:38 | 00:00:00 | |
| GOEST3-10 | 2026-09-03 08:18:01 | 52.28966 | 9.18964 | 119° | 206km/h | 10188m | -5.3m/s | -46.4°C | 52.7% | 268.0hPa | 2.6V | 00:00:00 | 01:45:43 | 00:00:00 | |
| DM0DOS-11 | 2026-09-03 08:18:00 | 52.29119 | 9.18520 | 119° | 204km/h | 10219m | -5.2m/s | -46.7°C | 54.8% | 266.8hPa | 2.6V | 08:06:03 | 01:45:37 | 00:00:00 | |
| AA1-15 | 2026-09-03 08:18:00 | 52.28992 | 9.18889 | 119° | 206km/h | 10193m | -5.2m/s | -46.5°C | 57% | 267.9hPa | 2.6V | 08:06:16 | 01:45:42 | 00:00:00 | |
| DL1XH-west | 2026-09-03 08:17:59 | 52.29017 | 9.18815 | 119° | 206km/h | 10198m | -5.2m/s | -46.6°C | 57.5% | 267.6hPa | 2.6V | 08:06:16 | 01:45:41 | 00:00:00 | |
| DO2JMG | 2026-09-03 08:17:58 | 52.29042 | 9.18741 | 119° | 206km/h | 10203m | -5.1m/s | -46.6°C | 57.9% | 267.4hPa | 2.5V | 08:06:16 | 01:45:40 | 00:00:00 | |
| BIOWL1-15 | 2026-09-03 08:17:56 | 52.29093 | 9.18593 | 120° | 204km/h | 10214m | -5.2m/s | -46.7°C | 58.6% | 267hPa | 2.6V | 08:06:16 | 01:45:38 | 00:00:00 | |
| HSKMA3-T | 2026-09-03 08:17:55 | 52.29119 | 9.18520 | 120° | 204km/h | 10219m | -5.2m/s | -46.7°C | 59% | 266.8hPa | 2.6V | 08:06:16 | 01:45:37 | 00:00:00 | |
| DB0DAN | 2026-09-03 08:17:55 | 52.29119 | 9.18520 | 120° | 195km/h | 10219m | -5.2m/s | -46.7°C | 50.7% | 266.81hPa | 2.6V | 00:00:00 | 00:00:00 | 00:00:00 | |
| DF8AY | 2026-09-03 08:17:53 | 52.29170 | 9.18372 | 120° | 206km/h | 10230m | -5.4m/s | -46.8°C | 59.8% | 266.4hPa | 2.5V | 08:06:16 | 01:45:35 | 00:00:00 | |
| DF5WG-10 | 2026-09-03 08:17:53 | 52.29170 | 9.18372 | 120° | 210km/h | 10230m | -5.4m/s | -46.8°C | 55.8% | 266.3hPa | 2.6V | 00:00:00 | 01:45:35 | 00:00:00 | |
| DO2SHX-10 | 2026-09-03 08:17:52 | 52.29195 | 9.18297 | 119° | 208km/h | 10235m | -5.3m/s | -46.8°C | 56.2% | 266.1hPa | 2.6V | 00:00:00 | 01:45:34 | 00:00:00 | |
| DL1NUX | 2026-09-03 08:17:51 | 52.29345 | 9.17841 | 117° | 210km/h | 10267m | -5.3m/s | -47.1°C | 58.6% | 264.8hPa | 2.6V | 08:06:12 | 01:45:28 | 00:00:00 | |
| DB0ND-19 | 2026-09-03 08:17:51 | 52.29246 | 9.18147 | 118° | 208km/h | 10246m | -5.2m/s | -47.0°C | 53.0% | 265.7hPa | 2.6V | 00:00:00 | 00:00:00 | 00:00:00 | |
| DM0DOS-11 | 2026-09-03 08:17:50 | 52.29369 | 9.17763 | 116° | 210km/h | 10272m | -5.4m/s | -47.2°C | 58.9% | 264.7hPa | 2.6V | 08:06:13 | 01:45:27 | 00:00:00 | |
| AA1-15 | 2026-09-03 08:17:49 | 52.29271 | 9.18071 | 118° | 210km/h | 10251m | -5.2m/s | -47°C | 61.3% | 265.5hPa | 2.5V | 08:06:16 | 01:45:31 | 00:00:00 | |
| DO2JMG | 2026-09-03 08:17:48 | 52.29296 | 9.17995 | 118° | 210km/h | 10256m | -5.3m/s | -47.1°C | 61.5% | 265.2hPa | 2.5V | 08:06:16 | 01:45:30 | 00:00:00 | |
| BIOWL1-15 | 2026-09-03 08:17:47 | 52.29369 | 9.17763 | 117° | 210km/h | 10272m | -5.4m/s | -47.2°C | 62.5% | 264.7hPa | 2.6V | 08:06:16 | 01:45:27 | 00:00:00 | |
| HTAHTA | 2026-09-03 08:17:46 | 52.29369 | 9.17763 | 116° | 210km/h | 10272m | -5.4m/s | -47.2°C | 54.6% | 264.7hPa | 2.6V | 00:00:00 | 00:00:00 | 00:00:00 | |
| HSKMA3-T | 2026-09-03 08:17:44 | 52.29393 | 9.17686 | 117° | 210km/h | 10277m | -5.3m/s | -47.3°C | 62.9% | 264.4hPa | 2.6V | 08:06:16 | 01:45:26 | 00:00:00 | |
| DF8AY | 2026-09-03 08:17:42 | 52.29440 | 9.17530 | 116° | 210km/h | 10288m | -5.6m/s | -47.4°C | 63.6% | 264hPa | 2.5V | 08:06:16 | 01:45:24 | 00:00:00 | |
| DO2SHX-10 | 2026-09-03 08:17:42 | 52.29440 | 9.17530 | 117° | 210km/h | 10288m | -5.5m/s | -47.3°C | 60.4% | 264.0hPa | 2.5V | 00:00:00 | 01:45:24 | 00:00:00 | |
| GOEST3-10 | 2026-09-03 08:17:41 | 52.29464 | 9.17453 | 117° | 210km/h | 10293m | -5.1m/s | -47.3°C | 60.7% | 263.7hPa | 2.5V | 00:00:00 | 01:45:23 | 00:00:00 | |
| DM0DOS-11 | 2026-09-03 08:17:40 | 52.29602 | 9.16986 | 115° | 208km/h | 10326m | -5.3m/s | -47.7°C | 61% | 262.6hPa | 2.5V | 08:06:23 | 01:45:17 | 00:00:00 | |
| DB0DAN | 2026-09-03 08:17:40 | 52.29488 | 9.17375 | 116° | 201km/h | 10298m | -5.4m/s | -47.4°C | 56.6% | 263.5hPa | 2.5V | 00:00:00 | 00:00:00 | 00:00:00 | |
| DJ2DS-15 | 2026-09-03 08:17:40 | 52.29488 | 9.17375 | 117° | 206km/h | 10299m | -5.3m/s | -47.4°C | 61.0% | 263.5hPa | 2.5V | 00:00:00 | 01:45:22 | 00:00:00 | |
| DL1XH-15 | 2026-09-03 08:17:39 | 52.29625 | 9.16909 | 115° | 206km/h | 10331m | -5.4m/s | -47.8°C | 61.1% | 262.3hPa | 2.5V | 08:06:24 | 01:45:16 | 00:00:00 | |
| AA1-15 | 2026-09-03 08:17:39 | 52.29511 | 9.17297 | 116° | 210km/h | 10304m | -6.6m/s | -47.5°C | 64.4% | 263.4hPa | 2.6V | 08:07:07 | 01:45:21 | 00:00:00 | |
| DO2JMG | 2026-09-03 08:17:38 | 52.29534 | 9.17219 | 116° | 210km/h | 10310m | -5.4m/s | -47.5°C | 64.6% | 263.2hPa | 2.6V | 08:07:07 | 01:45:20 | 00:00:00 | |
| DL1XH-west | 2026-09-03 08:17:37 | 52.29557 | 9.17141 | 116° | 208km/h | 10315m | -5.2m/s | -47.6°C | 64.7% | 262.9hPa | 2.6V | 08:07:07 | 01:45:19 | 00:00:00 | |
| BIOWL1-15 | 2026-09-03 08:17:37 | 52.29602 | 9.16986 | 115° | 208km/h | 10326m | -5.3m/s | -47.7°C | 65.1% | 262.6hPa | 2.5V | 08:07:07 | 01:45:17 | 00:00:00 | |
| HSKMA3-T | 2026-09-03 08:17:34 | 52.29624 | 9.16909 | 115° | 206km/h | 10331m | -5.4m/s | -47.8°C | 65.2% | 262.3hPa | 2.5V | 08:07:07 | 01:45:16 | 00:00:00 | |
| DF8AY | 2026-09-03 08:17:32 | 52.29669 | 9.16754 | 115° | 208km/h | 10342m | -5.4m/s | -47.9°C | 65.3% | 262hPa | 2.6V | 08:07:07 | 01:45:14 | 00:00:00 | |
| EDDB2-12 | 2026-09-03 08:17:32 | 52.29691 | 9.16676 | 115° | 206km/h | 10348m | -5.4m/s | -47.9°C | 57.4% | 261.7hPa | 2.5V | 00:00:00 | 00:00:00 | 00:00:00 | |
| GOEST3-10 | 2026-09-03 08:17:31 | 52.29691 | 9.16676 | 116° | 208km/h | 10348m | -5.4m/s | -47.9°C | 61.9% | 261.7hPa | 2.5V | 08:06:00 | 01:45:13 | 00:00:00 | |
| DM0DOS-11 | 2026-09-03 08:17:30 | 52.29824 | 9.16209 | 114° | 204km/h | 10381m | -5.4m/s | -48.2°C | 63.4% | 260.3hPa | 2.5V | 08:06:33 | 01:45:07 | 00:00:00 | |
| S3001 | 2026-09-03 08:17:30 | 52.29736 | 9.16520 | 115° | 208km/h | 10359m | -5.7m/s | -48.0°C | 57.8% | 261.2hPa | 2.5V | 00:00:00 | 00:00:00 | 00:00:00 | |
| DL1XH-15 | 2026-09-03 08:17:29 | 52.29845 | 9.16132 | 114° | 204km/h | 10386m | -5.5m/s | -48.2°C | 63.3% | 260.1hPa | 2.5V | 08:06:34 | 01:45:06 | 00:00:00 | |
| DO2JMG | 2026-09-03 08:17:28 | 52.29758 | 9.16442 | 115° | 208km/h | 10364m | -5.6m/s | -48°C | 65.7% | 261hPa | 2.6V | 08:07:07 | 01:45:10 | 00:00:00 | |
| DL1XH-west | 2026-09-03 08:17:27 | 52.29780 | 9.16364 | 115° | 208km/h | 10370m | -5.4m/s | -48.1°C | 65.8% | 260.8hPa | 2.6V | 08:07:07 | 01:45:09 | 00:00:00 | |
| BIOWL1-15 | 2026-09-03 08:17:25 | 52.29824 | 9.16209 | 114° | 204km/h | 10381m | -5.4m/s | -48.2°C | 65.9% | 260.3hPa | 2.5V | 08:07:07 | 01:45:07 | 00:00:00 | |
| DB0DAN | 2026-09-03 08:17:25 | 52.29824 | 9.16209 | 114° | 195km/h | 10381m | -5.4m/s | -48.2°C | 58.7% | 260.32hPa | 2.5V | 00:00:00 | 00:00:00 | 00:00:00 | |
| HSKMA3-T | 2026-09-03 08:17:24 | 52.29845 | 9.16132 | 114° | 204km/h | 10386m | -5.5m/s | -48.2°C | 65.9% | 260.1hPa | 2.5V | 08:07:07 | 01:45:06 | 00:00:00 | |
| DO2SHX-10 | 2026-09-03 08:17:24 | 52.29845 | 9.16132 | 115° | 203km/h | 10386m | -5.4m/s | -48.2°C | 63.3% | 260.1hPa | 2.6V | 00:00:00 | 01:45:06 | 00:00:00 | |
| DL4XJ-10 | 2026-09-03 08:17:23 | 52.29866 | 9.16056 | 115° | 193km/h | 10392m | -5.4m/s | -47.2°C | 0% | 0hPa | 2.6V | 00:00:00 | 00:00:00 | 00:00:00 | |
| DL1NUX | 2026-09-03 08:17:21 | 52.30012 | 9.15538 | 115° | 192km/h | 10430m | -5.5m/s | -48.7°C | 61.6% | 258.4hPa | 2.6V | 08:06:42 | 01:44:58 | 00:00:00 | |
| DF8AY | 2026-09-03 08:17:21 | 52.29908 | 9.15904 | 114° | 201km/h | 10403m | -5.5m/s | -48.4°C | 65.9% | 259.5hPa | 2.6V | 08:07:07 | 01:45:03 | 00:00:00 | |
| DO2SHX-10 | 2026-09-03 08:17:21 | 52.29908 | 9.15904 | 115° | 199km/h | 10403m | -5.5m/s | -48.4°C | 63.2% | 259.4hPa | 2.5V | 00:00:00 | 01:45:03 | 00:00:00 | |
| D01LWL | 2026-09-03 08:17:20 | 52.29991 | 9.15609 | 115° | 192km/h | 10425m | -5.5m/s | -48.7°C | 57.3% | 258.7hPa | 2.5V | 00:00:00 | 00:00:00 | 00:00:00 | |
| DL1XH-15 | 2026-09-03 08:17:19 | 52.30054 | 9.15397 | 116° | 190km/h | 10441m | -5.5m/s | -48.8°C | 61.2% | 258hPa | 2.5V | 08:06:44 | 01:44:56 | 00:00:00 | |
| DB0NH | 2026-09-03 08:17:19 | 52.29949 | 9.15754 | 115° | 193km/h | 10414m | -5.5m/s | -48.5°C | 62.5% | 259.0hPa | 2.5V | 08:06:00 | 01:45:01 | 00:00:00 | |
| DO2SHX-10 | 2026-09-03 08:17:18 | 52.29970 | 9.15681 | 116° | 192km/h | 10419m | -5.3m/s | -48.6°C | 62.4% | 258.8hPa | 2.5V | 08:06:00 | 01:45:00 | 00:00:00 | |
| DL1XH1-15 | 2026-09-03 08:17:17 | 52.30097 | 9.15257 | 116° | 190km/h | 10452m | -5.4m/s | -48.9°C | 59.9% | 257.6hPa | 2.5V | 08:06:46 | 01:44:54 | 00:00:00 | |
| AA1-15 | 2026-09-03 08:17:17 | 52.29991 | 9.15609 | 116° | 192km/h | 10425m | -5.5m/s | -48.7°C | 65.2% | 258.7hPa | 2.6V | 08:07:07 | 01:44:59 | 00:00:00 | |
| DL1XH-west | 2026-09-03 08:17:16 | 52.30012 | 9.15538 | 116° | 192km/h | 10430m | -5.5m/s | -48.7°C | 65% | 258.4hPa | 2.6V | 08:07:07 | 01:44:58 | 00:00:00 | |
| BIOWL1-15 | 2026-09-03 08:17:14 | 52.30054 | 9.15397 | 117° | 190km/h | 10441m | -5.5m/s | -48.9°C | 64.5% | 258hPa | 2.5V | 08:07:07 | 01:44:56 | 00:00:00 | |
| HSKMA3-T | 2026-09-03 08:17:13 | 52.30076 | 9.15327 | 117° | 190km/h | 10446m | -5.5m/s | -48.9°C | 64.1% | 257.8hPa | 2.5V | 08:07:07 | 01:44:55 | 00:00:00 | |
| DF8AY | 2026-09-03 08:17:11 | 52.30119 | 9.15187 | 117° | 190km/h | 10457m | -5.4m/s | -49°C | 62.6% | 257.4hPa | 2.5V | 08:07:07 | 01:44:53 | 00:00:00 | |
| DL1NUX | 2026-09-03 08:17:11 | 52.30227 | 9.14839 | 117° | 188km/h | 10486m | -5.9m/s | -49.1°C | 55.2% | 256.3hPa | 2.5V | 08:06:52 | 01:44:48 | 00:00:00 | |
| DF5WG-10 | 2026-09-03 08:17:11 | 52.30119 | 9.15186 | 117° | 190km/h | 10457m | -5.4m/s | -48.9°C | 58.9% | 257.3hPa | 2.5V | 00:00:00 | 01:44:53 | 00:00:00 | |
| DM0DOS-11 | 2026-09-03 08:17:10 | 52.30249 | 9.14770 | 117° | 188km/h | 10492m | -5.8m/s | -49.2°C | 55.3% | 256hPa | 2.5V | 08:06:53 | 01:44:47 | 00:00:00 | |
| DB0DAN | 2026-09-03 08:17:10 | 52.30141 | 9.15117 | 117° | 181km/h | 10463m | -5.8m/s | -49°C | 53% | 257.15hPa | 2.6V | 00:00:00 | 00:00:00 | 00:00:00 | |
| DL3AQ-11 | 2026-09-03 08:17:10 | 52.30162 | 9.15047 | 116° | 188km/h | 10469m | -5.6m/s | -49.1°C | 52.4% | 256.9hPa | 2.6V | 00:00:00 | 00:00:00 | 00:00:00 | |
| DO2SHX-10 | 2026-09-03 08:17:09 | 52.30162 | 9.15047 | 117° | 190km/h | 10469m | -5.5m/s | -49.0°C | 57.0% | 256.8hPa | 2.6V | 00:00:00 | 01:44:51 | 00:00:00 | |
| DL1XH1-15 | 2026-09-03 08:17:07 | 52.30318 | 9.14563 | 119° | 190km/h | 10508m | -5.7m/s | -49.3°C | 55.5% | 255.4hPa | 2.5V | 08:06:56 | 01:44:44 | 00:00:00 | |
| AA1-15 | 2026-09-03 08:17:07 | 52.30206 | 9.14908 | 117° | 188km/h | 10480m | -5.8m/s | -49.1°C | 59.9% | 256.5hPa | 2.5V | 08:07:07 | 01:44:49 | 00:00:00 | |
| DL1XH-west | 2026-09-03 08:17:06 | 52.30227 | 9.14839 | 117° | 188km/h | 10486m | -5.9m/s | -49.1°C | 59.8% | 256.3hPa | 2.5V | 08:07:07 | 01:44:48 | 00:00:00 | |
| HSKMA3-T | 2026-09-03 08:17:03 | 52.30294 | 9.14632 | 119° | 190km/h | 10503m | -5.6m/s | -49.3°C | 59.6% | 255.6hPa | 2.6V | 08:07:07 | 01:44:45 | 00:00:00 | |
| DF8AY | 2026-09-03 08:17:00 | 52.30365 | 9.14425 | 120° | 193km/h | 10519m | -5.4m/s | -49.4°C | 59.5% | 254.9hPa | 2.5V | 08:07:07 | 01:44:42 | 00:00:00 | |
| DM0DOS-11 | 2026-09-03 08:17:00 | 52.30491 | 9.14071 | 120° | 201km/h | 10547m | -5.8m/s | -49.6°C | 56.8% | 253.9hPa | 2.5V | 08:07:03 | 01:44:37 | 00:00:00 | |
| S3001 | 2026-09-03 08:16:59 | 52.30415 | 9.14285 | 120° | 197km/h | 10531m | -5.4m/s | -49.5°C | 51.4% | 254.5hPa | 2.6V | 00:00:00 | 00:00:00 | 00:00:00 | |
| DL1XH1-15 | 2026-09-03 08:16:57 | 52.30568 | 9.13857 | 120° | 199km/h | 10564m | -5.6m/s | -49.7°C | 57.6% | 253.2hPa | 2.6V | 08:07:06 | 01:44:34 | 00:00:00 | |
| DO2JMG | 2026-09-03 08:16:56 | 52.30465 | 9.14142 | 120° | 201km/h | 10542m | -5.7m/s | -49.6°C | 59.7% | 254.2hPa | 2.5V | 08:07:07 | 01:44:38 | 00:00:00 | |
| DL1XH-west | 2026-09-03 08:16:55 | 52.30491 | 9.14071 | 120° | 201km/h | 10547m | -5.8m/s | -49.6°C | 59.8% | 253.9hPa | 2.5V | 08:07:07 | 01:44:37 | 00:00:00 | |
| DB0DAN | 2026-09-03 08:16:55 | 52.30491 | 9.14071 | 120° | 192km/h | 10547m | -5.8m/s | -49.6°C | 52.1% | 253.88hPa | 2.5V | 00:00:00 | 00:00:00 | 00:00:00 | |
| BIOWL1-15 | 2026-09-03 08:16:53 | 52.30542 | 9.13928 | 120° | 201km/h | 10559m | -5.4m/s | -49.6°C | 60.1% | 253.3hPa | 2.6V | 08:07:07 | 01:44:35 | 00:00:00 | |
| HSKMA3-T | 2026-09-03 08:16:52 | 52.30568 | 9.13857 | 120° | 199km/h | 10564m | -5.6m/s | -49.7°C | 60.4% | 253.2hPa | 2.6V | 08:07:07 | 01:44:34 | 00:00:00 | |
| DO2SHX-10 | 2026-09-03 08:16:51 | 52.30593 | 9.13786 | 121° | 199km/h | 10570m | -5.9m/s | -49.7°C | 57.5% | 252.9hPa | 2.5V | 08:07:00 | 01:44:33 | 00:00:00 | |
| DM0DOS-11 | 2026-09-03 08:16:50 | 52.30741 | 9.13366 | 118° | 192km/h | 10603m | -5.2m/s | -50.1°C | 56% | 251.7hPa | 2.5V | 08:07:13 | 01:44:27 | 00:00:00 | |
| DF8AY | 2026-09-03 08:16:49 | 52.30644 | 9.13645 | 121° | 197km/h | 10581m | -5.7m/s | -49.9°C | 60.6% | 252.6hPa | 2.5V | 08:07:58 | 01:44:31 | 00:00:00 | |
| DB0ND-19 | 2026-09-03 08:16:49 | 52.30669 | 9.13575 | 120° | 195km/h | 10587m | -5.5m/s | -49.9°C | 52.3% | 252.2hPa | 2.6V | 00:00:00 | 00:00:00 | 00:00:00 | |
| DO2SHX-10 | 2026-09-03 08:16:48 | 52.30669 | 9.13575 | 121° | 193km/h | 10587m | -5.4m/s | -49.9°C | 57.1% | 252.2hPa | 2.6V | 00:00:00 | 01:44:30 | 00:00:00 | |
| DL1NUX | 2026-09-03 08:16:47 | 52.30809 | 9.13159 | 118° | 190km/h | 10620m | -5.5m/s | -50.3°C | 55.3% | 251hPa | 2.6V | 08:07:16 | 01:44:24 | 00:00:00 | |
| DO2JMG | 2026-09-03 08:16:46 | 52.30718 | 9.13436 | 119° | 192km/h | 10598m | -5.3m/s | -50.1°C | 60.2% | 251.9hPa | 2.6V | 08:07:58 | 01:44:28 | 00:00:00 | |
| DL1XH-west | 2026-09-03 08:16:45 | 52.30741 | 9.13366 | 118° | 192km/h | 10603m | -5.2m/s | -50.1°C | 59.9% | 251.7hPa | 2.5V | 08:07:58 | 01:44:27 | 00:00:00 | |
| BIOWL1-15 | 2026-09-03 08:16:42 | 52.30809 | 9.13159 | 118° | 190km/h | 10620m | -5.5m/s | -50.3°C | 58.8% | 251hPa | 2.6V | 08:07:58 | 01:44:24 | 00:00:00 | |
| HSKMA3-T | 2026-09-03 08:16:41 | 52.30832 | 9.13090 | 118° | 190km/h | 10626m | -5.6m/s | -50.3°C | 58.3% | 250.8hPa | 2.6V | 08:07:58 | 01:44:23 | 00:00:00 | |
| DB0DAN | 2026-09-03 08:16:40 | 52.30855 | 9.13021 | 119° | 183km/h | 10631m | -5.6m/s | -50.4°C | 49.9% | 250.58hPa | 2.6V | 00:00:00 | 00:00:00 | 00:00:00 | |
| DF8AY | 2026-09-03 08:16:39 | 52.30878 | 9.12952 | 119° | 192km/h | 10637m | -5.5m/s | -50.4°C | 57.2% | 250.3hPa | 2.6V | 08:07:58 | 01:44:21 | 00:00:00 | |
| DD8BA-10 | 2026-09-03 08:16:39 | 52.30878 | 9.12951 | 120° | 193km/h | 10637m | -5.4m/s | -50.3°C | 53.8% | 250.3hPa | 2.6V | 08:07:00 | 00:00:00 | 00:00:00 | |
| DL1XH1-15 | 2026-09-03 08:16:37 | 52.31049 | 9.12470 | 120° | 193km/h | 10677m | -6m/s | -50.6°C | 50.5% | 248.8hPa | 2.5V | 08:07:26 | 01:44:14 | 00:00:00 | |
| DO2JMG | 2026-09-03 08:16:35 | 52.30975 | 9.12676 | 120° | 192km/h | 10659m | -5.8m/s | -50.5°C | 55.7% | 249.6hPa | 2.6V | 08:07:58 | 01:44:17 | 00:00:00 | |
| AA1-15 | 2026-09-03 08:16:34 | 52.30999 | 9.12608 | 120° | 193km/h | 10665m | -5.8m/s | -50.6°C | 55.5% | 249.3hPa | 2.6V | 08:07:58 | 01:44:16 | 00:00:00 | |
| HSKMA3-T | 2026-09-03 08:16:31 | 52.31074 | 9.12401 | 121° | 197km/h | 10683m | -5.7m/s | -50.6°C | 54.9% | 248.6hPa | 2.6V | 08:07:58 | 01:44:13 | 00:00:00 | |
| GOEST3-10 | 2026-09-03 08:16:31 | 52.31074 | 9.12401 | 121° | 201km/h | 10683m | -5.7m/s | -50.6°C | 50.3% | 248.6hPa | 2.6V | 00:00:00 | 01:44:13 | 00:00:00 | |
| DM0DOS-11 | 2026-09-03 08:16:30 | 52.31231 | 9.11966 | 119° | 212km/h | 10717m | -5.7m/s | -50.8°C | 50.1% | 247.3hPa | 2.6V | 08:07:33 | 01:44:07 | 00:00:00 | |
| DF8AY | 2026-09-03 08:16:29 | 52.31126 | 9.12260 | 121° | 201km/h | 10694m | -5.7m/s | -50.7°C | 54.5% | 248.2hPa | 2.6V | 08:07:58 | 01:44:11 | 00:00:00 | |
| DD8BA-10 | 2026-09-03 08:16:29 | 52.31126 | 9.12260 | 121° | 210km/h | 10694m | -5.7m/s | -50.7°C | 49.9% | 248.1hPa | 2.5V | 00:00:00 | 00:00:00 | 00:00:00 | |
| DL1XH1-15 | 2026-09-03 08:16:27 | 52.31308 | 9.11735 | 117° | 214km/h | 10734m | -5.6m/s | -50.9°C | 51% | 246.7hPa | 2.5V | 08:07:36 | 01:44:04 | 00:00:00 | |
| DO2JMG | 2026-09-03 08:16:25 | 52.31231 | 9.11966 | 119° | 212km/h | 10717m | -5.7m/s | -50.8°C | 53.8% | 247.3hPa | 2.6V | 08:07:58 | 01:44:07 | 00:00:00 | |
| DB0DAN | 2026-09-03 08:16:25 | 52.31231 | 9.11966 | 119° | 201km/h | 10717m | -5.7m/s | -50.8°C | 45.4% | 247.33hPa | 2.6V | 00:00:00 | 00:00:00 | 00:00:00 | |
| DL1NUX | 2026-09-03 08:16:24 | 52.31383 | 9.11500 | 116° | 214km/h | 10752m | -5.9m/s | -51.1°C | 51% | 246hPa | 2.6V | 08:07:39 | 01:44:01 | 00:00:00 | |
| DL1XH-west | 2026-09-03 08:16:23 | 52.31283 | 9.11812 | 118° | 214km/h | 10729m | -6.1m/s | -50.9°C | 53.7% | 246.8hPa | 2.6V | 08:07:58 | 01:44:05 | 00:00:00 | |
| SMARD9-15 | 2026-09-03 08:16:23 | 52.31308 | 9.11735 | 117° | 214km/h | 10734m | -5.6m/s | -50.9°C | 46.2% | 246.7hPa | 2.5V | 00:00:00 | 00:00:00 | 00:00:00 | |
| DO2SHX-10 | 2026-09-03 08:16:21 | 52.31334 | 9.11656 | 118° | 214km/h | 10740m | -5.9m/s | -50.9°C | 51.0% | 246.3hPa | 2.5V | 00:00:00 | 01:44:03 | 00:00:00 | |
| DM0DOS-11 | 2026-09-03 08:16:20 | 52.31478 | 9.11188 | 115° | 208km/h | 10775m | -5.6m/s | -51.3°C | 49.9% | 245.1hPa | 2.5V | 08:07:43 | 01:43:57 | 00:00:00 | |
| BIOWL1-15 | 2026-09-03 08:16:20 | 52.31359 | 9.11578 | 117° | 214km/h | 10746m | -6m/s | -51°C | 53.7% | 246.2hPa | 2.6V | 08:07:58 | 01:44:02 | 00:00:00 | |
| DF8AY | 2026-09-03 08:16:19 | 52.31383 | 9.11500 | 117° | 214km/h | 10752m | -5.9m/s | -51.1°C | 53.6% | 246hPa | 2.6V | 08:07:58 | 01:44:01 | 00:00:00 | |
| DD8BA-10 | 2026-09-03 08:16:19 | 52.31383 | 9.11500 | 117° | 208km/h | 10752m | -5.8m/s | -51.0°C | 51.0% | 245.9hPa | 2.5V | 00:00:00 | 00:00:00 | 00:00:00 | |
| DB0ND-19 | 2026-09-03 08:16:18 | 52.31431 | 9.11343 | 116° | 210km/h | 10763m | -5.8m/s | -51.2°C | 45.7% | 245.6hPa | 2.5V | 00:00:00 | 00:00:00 | 00:00:00 | |
| DL3AQ-11 | 2026-09-03 08:16:17 | 52.31455 | 9.11265 | 115° | 208km/h | 10769m | -5.7m/s | -51.2°C | 45.3% | 245.3hPa | 2.5V | 00:00:00 | 00:00:00 | 00:00:00 | |
| GOEST3-10 | 2026-09-03 08:16:16 | 52.31455 | 9.11265 | 116° | 208km/h | 10769m | -5.6m/s | -51.2°C | 50.0% | 245.3hPa | 2.5V | 00:00:00 | 00:00:00 | 00:00:00 | |
| DO2SHX-10 | 2026-09-03 08:16:15 | 52.31477 | 9.11188 | 116° | 208km/h | 10775m | -5.6m/s | -51.2°C | 49.9% | 245.1hPa | 2.5V | 00:00:00 | 01:43:57 | 00:00:00 | |
| DL1NUX | 2026-09-03 08:16:14 | 52.31612 | 9.10728 | 115° | 204km/h | 10809m | -5.7m/s | -51.4°C | 48.3% | 243.8hPa | 2.5V | 08:07:49 | 01:43:51 | 00:00:00 | |
| DO2JMG | 2026-09-03 08:16:14 | 52.31500 | 9.11110 | 116° | 206km/h | 10780m | -5.7m/s | -51.3°C | 53.1% | 244.9hPa | 2.5V | 08:07:58 | 01:43:56 | 00:00:00 | |
| AA1-15 | 2026-09-03 08:16:13 | 52.31523 | 9.11033 | 115° | 206km/h | 10786m | -5.8m/s | -51.4°C | 52.9% | 244.7hPa | 2.6V | 08:07:58 | 01:43:55 | 00:00:00 | |
| DL1XH-west | 2026-09-03 08:16:12 | 52.31545 | 9.10957 | 115° | 204km/h | 10792m | -5.7m/s | -51.4°C | 52.7% | 244.5hPa | 2.6V | 08:07:58 | 01:43:54 | 00:00:00 | |
| DO2SHX-10 | 2026-09-03 08:16:12 | 52.31545 | 9.10957 | 116° | 204km/h | 10792m | -5.6m/s | -51.3°C | 49.1% | 244.4hPa | 2.6V | 00:00:00 | 01:43:54 | 00:00:00 | |
| GOEST3-10 | 2026-09-03 08:16:11 | 52.31567 | 9.10880 | 116° | 206km/h | 10798m | -5.7m/s | -51.4°C | 49.0% | 244.2hPa | 2.6V | 00:00:00 | 01:43:53 | 00:00:00 | |
| DM0DOS-11 | 2026-09-03 08:16:10 | 52.31702 | 9.10418 | 115° | 210km/h | 10833m | -6m/s | -51.6°C | 48.8% | 243hPa | 2.6V | 08:07:53 | 01:43:47 | 00:00:00 | |
| DB0DAN | 2026-09-03 08:16:10 | 52.31589 | 9.10804 | 115° | 195km/h | 10804m | -5.9m/s | -51.4°C | 43.6% | 244.05hPa | 2.6V | 00:00:00 | 00:00:00 | 00:00:00 | |
| DL1XH-15 | 2026-09-03 08:16:09 | 52.31725 | 9.10340 | 115° | 208km/h | 10839m | -5.9m/s | -51.6°C | 49.1% | 242.7hPa | 2.5V | 08:07:54 | 01:43:46 | 00:00:00 | |
| BIOWL1-15 | 2026-09-03 08:16:09 | 52.31612 | 9.10728 | 116° | 204km/h | 10809m | -5.7m/s | -51.4°C | 52.1% | 243.8hPa | 2.5V | 08:07:58 | 01:43:51 | 00:00:00 | |
| DF8AY | 2026-09-03 08:16:08 | 52.31634 | 9.10651 | 116° | 206km/h | 10815m | -5.8m/s | -51.5°C | 52% | 243.7hPa | 2.5V | 08:07:58 | 01:43:50 | 00:00:00 | |
| DO2SHX-10 | 2026-09-03 08:16:08 | 52.31634 | 9.10651 | 116° | 208km/h | 10815m | -5.7m/s | -51.4°C | 48.2% | 243.6hPa | 2.5V | 00:00:00 | 01:43:50 | 00:00:00 | |
| DF5WG-10 | 2026-09-03 08:16:07 | 52.31656 | 9.10574 | 116° | 206km/h | 10821m | -6.0m/s | -51.5°C | 48.5% | 243.3hPa | 2.5V | 08:07:00 | 01:43:49 | 00:00:00 | |
| GOEST3-10 | 2026-09-03 08:16:06 | 52.31679 | 9.10496 | 116° | 208km/h | 10827m | -5.9m/s | -51.5°C | 48.3% | 243.1hPa | 2.6V | 00:00:00 | 00:00:00 | 00:00:00 | |
| DL3AQ-11 | 2026-09-03 08:16:05 | 52.31702 | 9.10418 | 115° | 208km/h | 10833m | -6.0m/s | -51.6°C | 44.0% | 243.0hPa | 2.6V | 00:00:00 | 00:00:00 | 00:00:00 | |
| DL1NUX | 2026-09-03 08:16:04 | 52.31834 | 9.09962 | 116° | 197km/h | 10869m | -5.8m/s | -52°C | 49% | 241.6hPa | 2.6V | 08:07:59 | 01:43:41 | 00:00:00 | |
| AA1-15 | 2026-09-03 08:16:03 | 52.31747 | 9.10263 | 115° | 206km/h | 10845m | -6m/s | -51.7°C | 52% | 242.6hPa | 2.5V | 08:07:58 | 01:43:45 | 00:00:00 | |
| DL1XH-west | 2026-09-03 08:16:01 | 52.31791 | 9.10110 | 115° | 203km/h | 10857m | -5.8m/s | -51.8°C | 52% | 242hPa | 2.6V | 08:07:58 | 01:43:43 | 00:00:00 | |
| DO2SHX-10 | 2026-09-03 08:16:01 | 52.31791 | 9.10110 | 116° | 199km/h | 10857m | -5.8m/s | -51.8°C | 48.9% | 242.0hPa | 2.6V | 00:00:00 | 01:43:43 | 00:00:00 | |
| DJ2DS-15 | 2026-09-03 08:16:00 | 52.31813 | 9.10035 | 116° | 199km/h | 10863m | -5.9m/s | -51.8°C | 48.9% | 241.8hPa | 2.6V | 00:00:00 | 01:43:42 | 00:00:00 | |
| DL1XH-15 | 2026-09-03 08:15:59 | 52.31949 | 9.09607 | 119° | 195km/h | 10898m | -5.8m/s | -52.2°C | 49.1% | 240.5hPa | 2.6V | 08:08:04 | 01:43:36 | 00:00:00 | |
| BIOWL1-15 | 2026-09-03 08:15:59 | 52.31835 | 9.09962 | 116° | 197km/h | 10869m | -5.8m/s | -52°C | 52% | 241.6hPa | 2.6V | 08:08:49 | 01:43:41 | 00:00:00 | |
| HSKMA3-T | 2026-09-03 08:15:58 | 52.31857 | 9.09889 | 117° | 195km/h | 10874m | -5.9m/s | -52°C | 51.9% | 241.4hPa | 2.5V | 08:08:49 | 01:43:40 | 00:00:00 | |
| DF8AY | 2026-09-03 08:15:57 | 52.31879 | 9.09818 | 117° | 193km/h | 10880m | -5.8m/s | -52.1°C | 51.8% | 241.2hPa | 2.5V | 08:08:49 | 01:43:39 | 00:00:00 | |
| DF5WG-10 | 2026-09-03 08:15:57 | 52.31879 | 9.09818 | 118° | 195km/h | 10880m | -5.8m/s | -52.0°C | 48.8% | 241.1hPa | 2.6V | 00:00:00 | 01:43:39 | 00:00:00 | |
| GOEST3-10 | 2026-09-03 08:15:56 | 52.31902 | 9.09747 | 119° | 195km/h | 10886m | -5.7m/s | -52.1°C | 48.9% | 240.9hPa | 2.6V | 00:00:00 | 00:00:00 | 00:00:00 | |
| DO2SHX-10 | 2026-09-03 08:15:55 | 52.31925 | 9.09677 | 119° | 195km/h | 10892m | -5.8m/s | -52.1°C | 49.1% | 240.7hPa | 2.6V | 08:08:00 | 01:43:37 | 00:00:00 | |
| DL1NUX | 2026-09-03 08:15:54 | 52.32076 | 9.09254 | 120° | 203km/h | 10926m | -5.7m/s | -52.3°C | 48.7% | 239.4hPa | 2.6V | 08:08:09 | 01:43:31 | 00:00:00 | |
| DO2JMG | 2026-09-03 08:15:53 | 52.31973 | 9.09537 | 120° | 195km/h | 10904m | -5.8m/s | -52.2°C | 51.6% | 240.3hPa | 2.5V | 08:08:49 | 01:43:35 | 00:00:00 | |
| AA1-15 | 2026-09-03 08:15:52 | 52.31998 | 9.09467 | 120° | 197km/h | 10909m | -5.6m/s | -52.2°C | 51.4% | 240.1hPa | 2.5V | 08:08:49 | 01:43:34 | 00:00:00 | |
| DL1XH-west | 2026-09-03 08:15:51 | 52.32024 | 9.09396 | 121° | 199km/h | 10915m | -5.7m/s | -52.3°C | 51.4% | 239.9hPa | 2.6V | 08:08:49 | 01:43:33 | 00:00:00 | |
| GOEST3-10 | 2026-09-03 08:15:51 | 52.32024 | 9.09396 | 121° | 201km/h | 10915m | -5.6m/s | -52.2°C | 49.0% | 239.9hPa | 2.6V | 00:00:00 | 01:43:33 | 00:00:00 | |
| DF8AY-15 | 2026-09-03 08:15:50 | 52.32050 | 9.09325 | 121° | 206km/h | 10921m | -5.6m/s | -52.3°C | 48.9% | 239.6hPa | 2.6V | 00:00:00 | 01:43:32 | 00:00:00 | |
| DL1XH-15 | 2026-09-03 08:15:49 | 52.32207 | 9.08896 | 120° | 201km/h | 10955m | -5.8m/s | -52.5°C | 47.7% | 238.4hPa | 2.6V | 08:08:14 | 01:43:26 | 00:00:00 | |
| BIOWL1-15 | 2026-09-03 08:15:48 | 52.32102 | 9.09182 | 121° | 203km/h | 10932m | -5.8m/s | -52.4°C | 51.2% | 239.2hPa | 2.6V | 08:08:49 | 01:43:30 | 00:00:00 | |
| HSKMA3-T | 2026-09-03 08:15:47 | 52.32129 | 9.09111 | 121° | 203km/h | 10938m | -5.6m/s | -52.4°C | 51.1% | 239.1hPa | 2.5V | 08:08:49 | 01:43:29 | 00:00:00 | |
| DF8AY | 2026-09-03 08:15:46 | 52.32155 | 9.09039 | 121° | 203km/h | 10944m | -5.9m/s | -52.4°C | 50.9% | 238.8hPa | 2.5V | 08:08:49 | 01:43:28 | 00:00:00 | |
| DO2SHX-10 | 2026-09-03 08:15:46 | 52.32155 | 9.09039 | 121° | 203km/h | 10944m | -5.8m/s | -52.4°C | 48.3% | 238.8hPa | 2.5V | 00:00:00 | 01:43:28 | 00:00:00 | |
| DC6BW-12 | 2026-09-03 08:15:45 | 52.32155 | 9.09039 | 122° | 203km/h | 10944m | -5.9m/s | 0°C | 0% | 0hPa | 2.5V | 00:00:00 | 00:00:00 | 00:00:00 | |
| DL1NUX | 2026-09-03 08:15:44 | 52.32339 | 9.08539 | 121° | 203km/h | 10985m | -5.8m/s | -52.6°C | 45.3% | 237.3hPa | 2.5V | 08:08:19 | 01:43:21 | 00:00:00 | |
| DO2JMG | 2026-09-03 08:15:42 | 52.32260 | 9.08753 | 121° | 203km/h | 10967m | -5.9m/s | -52.6°C | 49.9% | 238hPa | 2.6V | 08:08:49 | 01:43:24 | 00:00:00 | |
| DL1XH-west | 2026-09-03 08:15:40 | 52.32312 | 9.08610 | 121° | 201km/h | 10979m | -6.1m/s | -52.6°C | 49.3% | 237.5hPa | 2.5V | 08:08:49 | 01:43:22 | 00:00:00 | |
| DB0DAN | 2026-09-03 08:15:40 | 52.32312 | 9.08610 | 121° | 192km/h | 10979m | -6.1m/s | -52.6°C | 40.4% | 237.52hPa | 2.5V | 00:00:00 | 00:00:00 | 00:00:00 | |
| DL1XH-15 | 2026-09-03 08:15:39 | 52.32476 | 9.08179 | 121° | 212km/h | 11015m | -6m/s | -52.7°C | 43.8% | 236.2hPa | 2.6V | 08:08:24 | 01:43:16 | 00:00:00 | |
| BIOWL1-15 | 2026-09-03 08:15:38 | 52.32366 | 9.08468 | 122° | 203km/h | 10991m | -5.9m/s | -52.6°C | 48.9% | 237.1hPa | 2.6V | 08:08:49 | 01:43:20 | 00:00:00 | |
| DL1XH1-15 | 2026-09-03 08:15:37 | 52.32532 | 9.08027 | 120° | 219km/h | 11027m | -5.9m/s | -52.8°C | 43.8% | 235.8hPa | 2.6V | 08:08:26 | 01:43:14 | 00:00:00 | |
| HSKMA3-T | 2026-09-03 08:15:37 | 52.32393 | 9.08397 | 122° | 204km/h | 10997m | -6m/s | -52.6°C | 48.7% | 236.9hPa | 2.6V | 08:08:49 | 01:43:19 | 00:00:00 | |
| DF8AY | 2026-09-03 08:15:36 | 52.32420 | 9.08325 | 122° | 206km/h | 11003m | -6.1m/s | -52.7°C | 48.5% | 236.7hPa | 2.6V | 08:08:49 | 01:43:18 | 00:00:00 | |
| GOEST3-10 | 2026-09-03 08:15:36 | 52.32420 | 9.08325 | 122° | 212km/h | 11003m | -6.1m/s | -52.6°C | 44.3% | 236.7hPa | 2.5V | 00:00:00 | 00:00:00 | 00:00:00 | |
| DF5WG-10 | 2026-09-03 08:15:35 | 52.32447 | 9.08252 | 122° | 215km/h | 11009m | -6.2m/s | -52.7°C | 44.3% | 236.4hPa | 2.5V | 00:00:00 | 01:43:17 | 00:00:00 | |
| DL1NUX | 2026-09-03 08:15:34 | 52.32615 | 9.07788 | 117° | 223km/h | 11044m | -5.7m/s | -52.9°C | 44.3% | 235.1hPa | 2.5V | 08:08:29 | 01:43:11 | 00:00:00 | |
| DO2JMG | 2026-09-03 08:15:32 | 52.32532 | 9.08027 | 121° | 219km/h | 11027m | -5.9m/s | -52.8°C | 47.9% | 235.8hPa | 2.6V | 08:08:49 | 01:43:14 | 00:00:00 | |
| AA1-15 | 2026-09-03 08:15:31 | 52.32560 | 9.07948 | 120° | 221km/h | 11033m | -5.8m/s | -52.8°C | 47.9% | 235.6hPa | 2.6V | 08:08:49 | 01:43:13 | 00:00:00 | |
| DL1XH-west | 2026-09-03 08:15:30 | 52.32588 | 9.07869 | 119° | 223km/h | 11039m | -5.7m/s | -52.8°C | 47.8% | 235.4hPa | 2.6V | 08:08:49 | 01:43:12 | 00:00:00 | |
| DF8AY | 2026-09-03 08:15:27 | 52.32716 | 9.07458 | 116° | 223km/h | 11068m | -6m/s | -52.9°C | 48.5% | 234.2hPa | 2.6V | 08:08:49 | 01:43:07 | 00:00:00 | |
| DL1XH1-15 | 2026-09-03 08:15:27 | 52.32787 | 9.07211 | 114° | 217km/h | 11086m | -6.1m/s | -53°C | 47% | 233.6hPa | 2.6V | 08:08:36 | 01:43:04 | 00:00:00 | |
| BIOWL1-15 | 2026-09-03 08:15:27 | 52.32666 | 9.07623 | 117° | 223km/h | 11056m | -6.1m/s | -52.9°C | 48.1% | 234.7hPa | 2.6V | 08:08:49 | 01:43:09 | 00:00:00 | |
| DB0DAN | 2026-09-03 08:15:25 | 52.32716 | 9.07458 | 116° | 212km/h | 11068m | -6m/s | -52.9°C | 41% | 234.25hPa | 2.6V | 00:00:00 | 00:00:00 | 00:00:00 | |
| DO2JMG | 2026-09-03 08:15:21 | 52.32809 | 9.07130 | 114° | 215km/h | 11092m | -5.7m/s | -53.1°C | 49.4% | 233.4hPa | 2.6V | 08:08:49 | 01:43:03 | 00:00:00 | |
| DL1XH-west | 2026-09-03 08:15:20 | 52.32832 | 9.07049 | 114° | 214km/h | 11098m | -5.8m/s | -53.1°C | 49.4% | 233.2hPa | 2.6V | 08:08:49 | 01:43:02 | 00:00:00 | |
| DB0NH | 2026-09-03 08:15:19 | 52.32853 | 9.06969 | 115° | 206km/h | 11104m | -5.8m/s | -53.2°C | 46.2% | 232.9hPa | 2.6V | 00:00:00 | 01:43:01 | 00:00:00 | |
| DL1XH1-15 | 2026-09-03 08:15:17 | 52.33006 | 9.06430 | 115° | 203km/h | 11144m | -6m/s | -53.6°C | 46% | 231.5hPa | 2.6V | 08:08:46 | 01:42:54 | 00:00:00 | |
| BIOWL1-15 | 2026-09-03 08:15:16 | 52.32919 | 9.06735 | 115° | 206km/h | 11121m | -5.7m/s | -53.5°C | 49.6% | 232.4hPa | 2.5V | 08:08:49 | 01:42:58 | 00:00:00 | |
| DF8AY | 2026-09-03 08:15:15 | 52.32940 | 9.06658 | 115° | 204km/h | 11127m | -5.9m/s | -53.5°C | 49.6% | 232.1hPa | 2.6V | 08:08:49 | 01:42:57 | 00:00:00 | |
| DO2JMG | 2026-09-03 08:15:11 | 52.33028 | 9.06354 | 115° | 203km/h | 11150m | -5.6m/s | -53.6°C | 49.9% | 231.3hPa | 2.5V | 08:08:49 | 01:42:53 | 00:00:00 | |
| DL1XH-west | 2026-09-03 08:15:10 | 52.33050 | 9.06278 | 115° | 203km/h | 11156m | -5.9m/s | -53.7°C | 50.1% | 231.1hPa | 2.5V | 08:08:49 | 01:42:52 | 00:00:00 | |
| DB0DAN | 2026-09-03 08:15:10 | 52.33050 | 9.06278 | 115° | 193km/h | 11156m | -5.9m/s | -53.7°C | 41.4% | 231.14hPa | 2.5V | 00:00:00 | 00:00:00 | 00:00:00 | |
| AA1-15 | 2026-09-03 08:15:09 | 52.33072 | 9.06202 | 115° | 203km/h | 11162m | -5.9m/s | -53.7°C | 50.4% | 231hPa | 2.6V | 08:08:49 | 01:42:51 | 00:00:00 | |
| BIOWL1-15 | 2026-09-03 08:15:07 | 52.33158 | 9.05900 | 116° | 199km/h | 11186m | -5.9m/s | -53.9°C | 51.1% | 230hPa | 2.6V | 08:09:40 | 01:42:47 | 00:00:00 | |
| HSKMA3-T | 2026-09-03 08:15:06 | 52.33136 | 9.05975 | 115° | 201km/h | 11180m | -6.2m/s | -53.8°C | 50.9% | 230.3hPa | 2.5V | 08:09:40 | 01:42:48 | 00:00:00 | |
| DF8AY | 2026-09-03 08:15:04 | 52.33180 | 9.05826 | 116° | 199km/h | 11192m | -5.9m/s | -53.9°C | 51.3% | 229.8hPa | 2.6V | 08:09:40 | 01:42:46 | 00:00:00 | |
| DO9LL-15 | 2026-09-03 08:15:04 | 52.33180 | 9.05826 | 117° | 214km/h | 11192m | -5.9m/s | -53.9°C | 47.2% | 229.8hPa | 2.6V | 00:00:00 | 01:42:46 | 00:00:00 | |
| DL4XJ-10 | 2026-09-03 08:15:03 | 52.33202 | 9.05752 | 117° | 210km/h | 11198m | -5.9m/s | -52.9°C | 0% | 0hPa | 2.6V | 00:00:00 | 00:00:00 | 00:00:00 | |
| DD1CC1-15 | 2026-09-03 08:15:02 | 52.33202 | 9.05752 | 118° | 199km/h | 11198m | -5.9m/s | -54.0°C | 42.5% | 229.6hPa | 2.6V | 08:09:00 | 00:00:00 | 00:00:00 | |
| SONDE2-11 | 2026-09-03 08:15:01 | 52.33271 | 9.05534 | 118° | 197km/h | 11216m | -6.1m/s | -54.0°C | 0% | 229.0hPa | 2.6V | 00:00:00 | 00:00:00 | 00:00:00 | |
| DM0DOS-11 | 2026-09-03 08:15:00 | 52.33396 | 9.05168 | 119° | 212km/h | 11246m | -5.7m/s | -54.3°C | 49.4% | 227.9hPa | 2.6V | 08:09:03 | 01:42:37 | 00:00:00 | |
| DO2JMG | 2026-09-03 08:15:00 | 52.33271 | 9.05534 | 118° | 197km/h | 11216m | -6.1m/s | -54°C | 52.3% | 229hPa | 2.5V | 08:09:40 | 01:42:42 | 00:00:00 | |
| DL1XH-west | 2026-09-03 08:14:59 | 52.33295 | 9.05462 | 119° | 199km/h | 11222m | -6.3m/s | -54.1°C | 52.5% | 228.8hPa | 2.6V | 08:09:40 | 01:42:41 | 00:00:00 | |
| AA1-15 | 2026-09-03 08:14:58 | 52.33319 | 9.05390 | 119° | 201km/h | 11229m | -5.8m/s | -54.2°C | 52.7% | 228.5hPa | 2.6V | 08:09:40 | 01:42:40 | 00:00:00 | |
| BIOWL1-15 | 2026-09-03 08:14:56 | 52.33422 | 9.05092 | 119° | 214km/h | 11251m | -5.6m/s | -54.4°C | 53.3% | 227.7hPa | 2.6V | 08:09:40 | 01:42:36 | 00:00:00 | |
| HSKMA3-T | 2026-09-03 08:14:56 | 52.33370 | 9.05244 | 120° | 208km/h | 11240m | -5.6m/s | -54.3°C | 53.1% | 228.1hPa | 2.6V | 08:09:40 | 01:42:38 | 00:00:00 | |
| DB0DAN | 2026-09-03 08:14:55 | 52.33396 | 9.05168 | 119° | 201km/h | 11246m | -5.7m/s | -54.3°C | 44.1% | 227.89hPa | 2.6V | 00:00:00 | 00:00:00 | 00:00:00 | |
| DF8AY | 2026-09-03 08:14:53 | 52.33448 | 9.05014 | 119° | 217km/h | 11257m | -5.7m/s | -54.4°C | 53.5% | 227.4hPa | 2.6V | 08:09:40 | 01:42:35 | 00:00:00 | |
| DL8OAI-8 | 2026-09-03 08:14:52 | 52.33448 | 9.05014 | 120° | 217km/h | 11257m | -5.7m/s | -54.4°C | 44.6% | 227.4hPa | 2.7V | 08:09:00 | 00:00:00 | 00:00:00 | |
| DO2SHX-10 | 2026-09-03 08:14:51 | 52.33501 | 9.04856 | 119° | 219km/h | 11269m | -5.6m/s | -54.5°C | 49.6% | 227.0hPa | 2.7V | 00:00:00 | 01:42:33 | 00:00:00 | |
| DM0DOS-11 | 2026-09-03 08:14:50 | 52.33658 | 9.04378 | 117° | 221km/h | 11304m | -6m/s | -54.8°C | 49.8% | 225.9hPa | 2.7V | 08:09:13 | 01:42:27 | 00:00:00 | |
| DO2JMG | 2026-09-03 08:14:50 | 52.33527 | 9.04776 | 119° | 219km/h | 11275m | -5.7m/s | -54.6°C | 53.5% | 226.9hPa | 2.6V | 08:09:40 | 01:42:32 | 00:00:00 | |
| DF8AY-15 | 2026-09-03 08:14:50 | 52.33527 | 9.04776 | 119° | 219km/h | 11275m | -5.7m/s | -54.5°C | 49.3% | 226.8hPa | 2.6V | 00:00:00 | 01:42:32 | 00:00:00 | |
| DL1XH-15 | 2026-09-03 08:14:49 | 52.33683 | 9.04298 | 117° | 221km/h | 11310m | -6m/s | -54.9°C | 49.9% | 225.7hPa | 2.6V | 08:09:14 | 01:42:26 | 00:00:00 | |
| DL1XH-west | 2026-09-03 08:14:49 | 52.33553 | 9.04697 | 118° | 217km/h | 11280m | -5.9m/s | -54.6°C | 53.5% | 226.7hPa | 2.5V | 08:09:40 | 01:42:31 | 00:00:00 | |
| DB0NH | 2026-09-03 08:14:49 | 52.33553 | 9.04697 | 119° | 212km/h | 11280m | -5.9m/s | -54.6°C | 49.2% | 226.7hPa | 2.5V | 00:00:00 | 01:42:31 | 00:00:00 | |
| DO3DL | 2026-09-03 08:14:48 | 52.33553 | 9.04697 | 119° | 217km/h | 11280m | -5.9m/s | -54.6°C | 43.9% | 226.7hPa | 2.5V | 08:09:00 | 00:00:00 | 00:00:00 | |
| DL1XH1-15 | 2026-09-03 08:14:47 | 52.33733 | 9.04134 | 115° | 221km/h | 11322m | -5.7m/s | -55°C | 50.3% | 225.2hPa | 2.5V | 08:09:16 | 01:42:24 | 00:00:00 | |
| AA1-15 | 2026-09-03 08:14:47 | 52.33606 | 9.04538 | 118° | 219km/h | 11292m | -6m/s | -54.7°C | 53.5% | 226.3hPa | 2.6V | 08:09:40 | 01:42:29 | 00:00:00 | |
| HSKMA3-T | 2026-09-03 08:14:45 | 52.33658 | 9.04378 | 117° | 221km/h | 11304m | -6m/s | -54.8°C | 53.6% | 225.9hPa | 2.7V | 08:09:40 | 01:42:27 | 00:00:00 | |
| BIOWL1-15 | 2026-09-03 08:14:44 | 52.33683 | 9.04298 | 117° | 221km/h | 11310m | -6m/s | -54.9°C | 53.5% | 225.7hPa | 2.6V | 08:09:40 | 01:42:26 | 00:00:00 | |
| DF8AY | 2026-09-03 08:14:43 | 52.33708 | 9.04216 | 116° | 221km/h | 11316m | -5.8m/s | -54.9°C | 53.5% | 225.5hPa | 2.6V | 08:09:40 | 01:42:25 | 00:00:00 | |
| DL4XJ-10 | 2026-09-03 08:14:43 | 52.33708 | 9.04216 | 117° | 214km/h | 11316m | -5.8m/s | -53.9°C | 0% | 0hPa | 2.6V | 00:00:00 | 00:00:00 | 00:00:00 | |
| DL4BBY-15 | 2026-09-03 08:14:42 | 52.33733 | 9.04134 | 116° | 206km/h | 11322m | -5.7m/s | -53.9°C | 0% | 0hPa | 2.6V | 00:00:00 | 00:00:00 | 00:00:00 | |
| DO2SHX-10 | 2026-09-03 08:14:41 | 52.33757 | 9.04052 | 116° | 221km/h | 11328m | -5.9m/s | -55.0°C | 50.6% | 225.0hPa | 2.6V | 00:00:00 | 01:42:23 | 00:00:00 | |
| DM0DOS-11 | 2026-09-03 08:14:40 | 52.33897 | 9.03557 | 113° | 217km/h | 11364m | -6.2m/s | -55.3°C | 52.3% | 223.7hPa | 2.6V | 08:09:23 | 01:42:17 | 00:00:00 | |
| DJ2DS-15 | 2026-09-03 08:14:40 | 52.33781 | 9.03970 | 116° | 210km/h | 11334m | -5.9m/s | -55.0°C | 51.0% | 224.7hPa | 2.7V | 00:00:00 | 01:42:22 | 00:00:00 | |
| DB0DAN | 2026-09-03 08:14:40 | 52.33781 | 9.03970 | 115° | 210km/h | 11334m | -5.9m/s | -55.1°C | 45.5% | 224.78hPa | 2.6V | 00:00:00 | 00:00:00 | 00:00:00 | |
| DL1XH-15 | 2026-09-03 08:14:39 | 52.33919 | 9.03475 | 113° | 215km/h | 11370m | -6.3m/s | -55.4°C | 51.9% | 223.5hPa | 2.7V | 08:09:24 | 01:42:16 | 00:00:00 | |
| DO2JMG | 2026-09-03 08:14:39 | 52.33805 | 9.03887 | 115° | 221km/h | 11340m | -6.1m/s | -55.1°C | 53.7% | 224.5hPa | 2.6V | 08:09:40 | 01:42:21 | 00:00:00 | |
| DL1XH-west | 2026-09-03 08:14:38 | 52.33828 | 9.03805 | 115° | 221km/h | 11346m | -6m/s | -55.1°C | 53.8% | 224.4hPa | 2.6V | 08:09:40 | 01:42:20 | 00:00:00 | |
| AA1-15 | 2026-09-03 08:14:37 | 52.33851 | 9.03722 | 115° | 221km/h | 11352m | -6.2m/s | -55.2°C | 53.9% | 224.2hPa | 2.5V | 08:09:40 | 01:42:19 | 00:00:00 | |
| HSKMA3-T | 2026-09-03 08:14:35 | 52.33897 | 9.03557 | 114° | 217km/h | 11364m | -6.2m/s | -55.3°C | 54% | 223.7hPa | 2.6V | 08:09:40 | 01:42:17 | 00:00:00 | |
| DO2SHX-10 | 2026-09-03 08:14:35 | 52.33897 | 9.03557 | 114° | 215km/h | 11364m | -6.1m/s | -55.3°C | 52.3% | 223.6hPa | 2.6V | 00:00:00 | 01:42:17 | 00:00:00 | |
| DL1NUX | 2026-09-03 08:14:34 | 52.34022 | 9.03076 | 113° | 206km/h | 11400m | -6m/s | -55.5°C | 50.6% | 222.5hPa | 2.6V | 08:09:29 | 01:42:11 | 00:00:00 | |
| BIOWL1-15 | 2026-09-03 08:14:34 | 52.33919 | 9.03475 | 113° | 215km/h | 11370m | -6.3m/s | -55.4°C | 53.9% | 223.5hPa | 2.7V | 08:09:40 | 01:42:16 | 00:00:00 | |
| DF8AY | 2026-09-03 08:14:33 | 52.33940 | 9.03393 | 113° | 214km/h | 11376m | -6.1m/s | -55.4°C | 53.9% | 223.3hPa | 2.6V | 08:09:40 | 01:42:15 | 00:00:00 | |
| DO2SHX-10 | 2026-09-03 08:14:32 | 52.33961 | 9.03313 | 113° | 208km/h | 11382m | -5.8m/s | -55.4°C | 51.2% | 223.0hPa | 2.5V | 00:00:00 | 01:42:14 | 00:00:00 | |
| GOEST3-10 | 2026-09-03 08:14:31 | 52.33981 | 9.03233 | 113° | 206km/h | 11389m | -5.9m/s | -55.5°C | 51.1% | 222.8hPa | 2.5V | 08:09:00 | 01:42:13 | 00:00:00 | |
| DM0DOS-11 | 2026-09-03 08:14:30 | 52.34103 | 9.02766 | 113° | 203km/h | 11424m | -6.2m/s | -55.7°C | 49.5% | 221.6hPa | 2.6V | 08:09:33 | 01:42:07 | 00:00:00 | |
| SONDE2-11 | 2026-09-03 08:14:30 | 52.34022 | 9.03076 | 113° | 204km/h | 11400m | -6.0m/s | -55.6°C | 44.9% | 222.5hPa | 2.6V | 00:00:00 | 00:00:00 | 00:00:00 | |
| DL1XH-15 | 2026-09-03 08:14:29 | 52.34124 | 9.02690 | 113° | 201km/h | 11430m | -6.2m/s | -55.7°C | 49.2% | 221.4hPa | 2.6V | 08:09:34 | 01:42:06 | 00:00:00 | |
| DL1XH-west | 2026-09-03 08:14:28 | 52.34042 | 9.02998 | 113° | 204km/h | 11406m | -5.8m/s | -55.6°C | 53.4% | 222.2hPa | 2.6V | 08:09:40 | 01:42:10 | 00:00:00 | |
| AA1-15 | 2026-09-03 08:14:26 | 52.34083 | 9.02843 | 113° | 203km/h | 11418m | -6m/s | -55.6°C | 53.1% | 221.9hPa | 2.5V | 08:09:40 | 01:42:08 | 00:00:00 | |
| DB0DAN | 2026-09-03 08:14:25 | 52.34103 | 9.02766 | 113° | 192km/h | 11424m | -6.2m/s | -55.7°C | 43.9% | 221.65hPa | 2.6V | 00:00:00 | 00:00:00 | 00:00:00 | |
| DL1NUX | 2026-09-03 08:14:24 | 52.34226 | 9.02316 | 115° | 195km/h | 11462m | -6.4m/s | -56°C | 48.5% | 220.4hPa | 2.6V | 08:09:39 | 01:42:01 | 00:00:00 | |
| HSKMA3-T | 2026-09-03 08:14:24 | 52.34124 | 9.02690 | 114° | 201km/h | 11430m | -6.2m/s | -55.7°C | 52.8% | 221.4hPa | 2.6V | 08:09:40 | 01:42:06 | 00:00:00 | |
| BIOWL1-15 | 2026-09-03 08:14:23 | 52.34144 | 9.02614 | 114° | 201km/h | 11437m | -6.2m/s | -55.8°C | 52.6% | 221.2hPa | 2.6V | 08:09:40 | 01:42:05 | 00:00:00 | |
| DL4XJ-10 | 2026-09-03 08:14:23 | 52.34144 | 9.02614 | 114° | 204km/h | 11437m | -6.1m/s | -54.7°C | 0% | 0hPa | 2.5V | 00:00:00 | 00:00:00 | 00:00:00 | |
| DO2SHX-10 | 2026-09-03 08:14:22 | 52.34164 | 9.02539 | 114° | 199km/h | 11443m | -6.1m/s | -55.8°C | 48.4% | 221.0hPa | 2.5V | 00:00:00 | 01:42:04 | 00:00:00 | |
| GOEST3-10 | 2026-09-03 08:14:21 | 52.34184 | 9.02464 | 115° | 197km/h | 11449m | -6.2m/s | -55.9°C | 48.4% | 220.7hPa | 2.5V | 00:00:00 | 01:42:03 | 00:00:00 | |
| DM0DOS-11 | 2026-09-03 08:14:20 | 52.34317 | 9.02027 | 118° | 201km/h | 11487m | -5.7m/s | -56.2°C | 48.5% | 219.5hPa | 2.5V | 08:09:43 | 01:41:57 | 00:00:00 | |
| DJ2DS-15 | 2026-09-03 08:14:20 | 52.34205 | 9.02390 | 115° | 206km/h | 11456m | -6.3m/s | -55.9°C | 48.5% | 220.5hPa | 2.5V | 00:00:00 | 01:42:02 | 00:00:00 | |
| DL1XH-15 | 2026-09-03 08:14:19 | 52.34342 | 9.01954 | 119° | 203km/h | 11492m | -5.6m/s | -56.2°C | 48.2% | 219.2hPa | 2.6V | 08:09:44 | 01:41:56 | 00:00:00 | |
| DL1XH-west | 2026-09-03 08:14:18 | 52.34248 | 9.02244 | 116° | 195km/h | 11468m | -6m/s | -56°C | 51.9% | 220.2hPa | 2.6V | 08:09:40 | 01:42:00 | 00:00:00 | |
| DO2JMG | 2026-09-03 08:14:17 | 52.34270 | 9.02172 | 117° | 197km/h | 11475m | -6.5m/s | -56.1°C | 51.7% | 220hPa | 2.7V | 08:10:31 | 01:41:59 | 00:00:00 | |
| AA1-15 | 2026-09-03 08:14:16 | 52.34293 | 9.02099 | 118° | 199km/h | 11481m | -6.1m/s | -56.1°C | 51.5% | 219.7hPa | 2.6V | 08:10:31 | 01:41:58 | 00:00:00 | |
| DO2SHX-10 | 2026-09-03 08:14:16 | 52.34293 | 9.02099 | 118° | 201km/h | 11481m | -6.0m/s | -56.1°C | 48.6% | 219.7hPa | 2.5V | 00:00:00 | 01:41:58 | 00:00:00 | |
| DO3DL | 2026-09-03 08:14:15 | 52.34293 | 9.02099 | 119° | 199km/h | 11481m | -6.1m/s | -56.1°C | 42.9% | 219.7hPa | 2.5V | 08:10:00 | 00:00:00 | 00:00:00 | |
| DL1NUX | 2026-09-03 08:14:14 | 52.34472 | 9.01578 | 119° | 212km/h | 11521m | -5.7m/s | -56.5°C | 46.9% | 218.4hPa | 2.5V | 08:09:49 | 01:41:51 | 00:00:00 | |
| BIOWL1-15 | 2026-09-03 08:14:13 | 52.34367 | 9.01880 | 120° | 206km/h | 11498m | -5.7m/s | -56.3°C | 50.9% | 219.1hPa | 2.6V | 08:10:31 | 01:41:55 | 00:00:00 | |
| SO1NDE-10 | 2026-09-03 08:14:13 | 52.34367 | 9.01880 | 120° | 212km/h | 11498m | -5.6m/s | -56.2°C | 48.2% | 219.0hPa | 2.6V | 00:00:00 | 01:41:55 | 00:00:00 | |
| DD1CC3-15 | 2026-09-03 08:14:11 | 52.34445 | 9.01654 | 120° | 212km/h | 11515m | -5.8m/s | -56.4°C | 41.7% | 218.6hPa | 2.6V | 08:10:00 | 00:00:00 | 00:00:00 | |
| DM0DOS-11 | 2026-09-03 08:14:10 | 52.34576 | 9.01271 | 119° | 212km/h | 11544m | -5.8m/s | -56.7°C | 44.8% | 217.5hPa | 2.6V | 08:09:53 | 01:41:47 | 00:00:00 | |
| DB0DAN | 2026-09-03 08:14:10 | 52.34445 | 9.01654 | 119° | 201km/h | 11515m | -5.8m/s | -56.4°C | 41.7% | 218.56hPa | 2.6V | 00:00:00 | 00:00:00 | 00:00:00 | |
| DO2SHX-10 | 2026-09-03 08:14:10 | 52.34445 | 9.01654 | 120° | 212km/h | 11515m | -5.7m/s | -56.4°C | 47.4% | 218.5hPa | 2.6V | 00:00:00 | 01:41:52 | 00:00:00 | |
| DL1XH-15 | 2026-09-03 08:14:09 | 52.34603 | 9.01195 | 119° | 212km/h | 11550m | -5.7m/s | -56.7°C | 44.4% | 217.3hPa | 2.5V | 08:09:54 | 01:41:46 | 00:00:00 | |
| DL1XH-west | 2026-09-03 08:14:08 | 52.34498 | 9.01501 | 119° | 212km/h | 11527m | -5.7m/s | -56.5°C | 49.3% | 218.1hPa | 2.6V | 08:10:31 | 01:41:50 | 00:00:00 | |
| DD8BA-10 | 2026-09-03 08:14:08 | 52.34498 | 9.01501 | 120° | 212km/h | 11527m | -5.6m/s | -56.5°C | 46.4% | 218.1hPa | 2.6V | 00:00:00 | 00:00:00 | 00:00:00 | |
| DL1XH1-15 | 2026-09-03 08:14:07 | 52.34655 | 9.01044 | 119° | 212km/h | 11562m | -6.2m/s | -56.9°C | 43.8% | 216.9hPa | 2.6V | 08:09:56 | 01:41:44 | 00:00:00 | |
| DO2JMG | 2026-09-03 08:14:07 | 52.34524 | 9.01424 | 119° | 214km/h | 11532m | -5.7m/s | -56.6°C | 49% | 217.9hPa | 2.6V | 08:10:31 | 01:41:49 | 00:00:00 | |
| AA1-15 | 2026-09-03 08:14:06 | 52.34550 | 9.01348 | 119° | 212km/h | 11539m | -5.6m/s | -56.7°C | 48.5% | 217.8hPa | 2.7V | 08:10:31 | 01:41:48 | 00:00:00 | |
| DF8AY | 2026-09-03 08:14:03 | 52.34629 | 9.01119 | 120° | 210km/h | 11556m | -6m/s | -56.8°C | 47% | 217.2hPa | 2.6V | 08:10:31 | 01:41:45 | 00:00:00 | |
| BIOWL1-15 | 2026-09-03 08:14:02 | 52.34655 | 9.01044 | 120° | 212km/h | 11562m | -6.2m/s | -56.9°C | 46.5% | 216.9hPa | 2.6V | 08:10:31 | 01:41:44 | 00:00:00 | |
| GOEST3-10 | 2026-09-03 08:14:01 | 52.34681 | 9.00968 | 120° | 215km/h | 11568m | -6.0m/s | -56.8°C | 43.8% | 216.7hPa | 2.7V | 00:00:00 | 01:41:43 | 00:00:00 | |
| DJ2DS-15 | 2026-09-03 08:14:00 | 52.34708 | 9.00891 | 119° | 210km/h | 11574m | -5.8m/s | -56.9°C | 43.9% | 216.4hPa | 2.6V | 00:00:00 | 01:41:42 | 00:00:00 | |
| DL1XH-15 | 2026-09-03 08:13:59 | 52.34855 | 9.00411 | 114° | 217km/h | 11609m | -5.8m/s | -57.1°C | 42.9% | 215.4hPa | 2.6V | 08:10:04 | 01:41:36 | 00:00:00 | |
| SONDE2-11 | 2026-09-03 08:13:59 | 52.34759 | 9.00734 | 117° | 217km/h | 11586m | -5.7m/s | -57.0°C | 38.2% | 216.1hPa | 2.6V | 00:00:00 | 00:00:00 | 00:00:00 | |
| DD8BA-10 | 2026-09-03 08:13:58 | 52.34759 | 9.00734 | 118° | 215km/h | 11586m | -5.6m/s | -57.0°C | 44.0% | 216.1hPa | 2.6V | 00:00:00 | 00:00:00 | 00:00:00 | |
| DL1XH1-15 | 2026-09-03 08:13:57 | 52.34901 | 9.00248 | 114° | 215km/h | 11621m | -5.7m/s | -57.2°C | 42.1% | 214.9hPa | 2.6V | 08:10:06 | 01:41:34 | 00:00:00 | |
| DL1XH-west | 2026-09-03 08:13:57 | 52.34784 | 9.00654 | 117° | 217km/h | 11592m | -5.6m/s | -57.1°C | 44.4% | 216hPa | 2.5V | 08:10:31 | 01:41:39 | 00:00:00 | |
| DO2JMG | 2026-09-03 08:13:56 | 52.34808 | 9.00573 | 116° | 217km/h | 11597m | -5.6m/s | -57.1°C | 43.9% | 215.7hPa | 2.6V | 08:10:31 | 01:41:38 | 00:00:00 | |
| AA1-15 | 2026-09-03 08:13:55 | 52.34832 | 9.00492 | 115° | 217km/h | 11603m | -5.8m/s | -57.1°C | 43.6% | 215.5hPa | 2.6V | 08:10:31 | 01:41:37 | 00:00:00 | |
| DB0DAN | 2026-09-03 08:13:55 | 52.34832 | 9.00492 | 115° | 208km/h | 11603m | -5.8m/s | -57.1°C | 37.4% | 215.5hPa | 2.6V | 00:00:00 | 00:00:00 | 00:00:00 | |
| DL1NUX | 2026-09-03 08:13:54 | 52.34966 | 9.00006 | 113° | 210km/h | 11638m | -5.8m/s | -57.2°C | 40.1% | 214.3hPa | 2.6V | 08:10:09 | 01:41:31 | 00:00:00 | |
| DF8AY | 2026-09-03 08:13:52 | 52.34901 | 9.00248 | 114° | 215km/h | 11621m | -5.7m/s | -57.2°C | 42.2% | 214.9hPa | 2.6V | 08:10:31 | 01:41:34 | 00:00:00 | |
| BIOWL1-15 | 2026-09-03 08:13:51 | 52.34923 | 9.00167 | 114° | 214km/h | 11626m | -5.7m/s | -57.2°C | 41.7% | 214.7hPa | 2.6V | 08:10:31 | 01:41:33 | 00:00:00 | |
| DO2SHX-10 | 2026-09-03 08:13:51 | 52.34923 | 9.00167 | 114° | 212km/h | 11626m | -5.7m/s | -57.2°C | 41.5% | 214.7hPa | 2.6V | 00:00:00 | 01:41:33 | 00:00:00 | |
| DM0DOS-11 | 2026-09-03 08:13:50 | 52.35046 | 8.99692 | 112° | 203km/h | 11661m | -5.9m/s | -57.1°C | 36.6% | 213.5hPa | 2.6V | 08:10:13 | 01:41:27 | 00:00:00 | |
| DF8AY-15 | 2026-09-03 08:13:50 | 52.34944 | 9.00086 | 114° | 204km/h | 11632m | -5.8m/s | -57.2°C | 40.8% | 214.4hPa | 2.6V | 00:00:00 | 01:41:32 | 00:00:00 | |
| DB0NH | 2026-09-03 08:13:49 | 52.34965 | 9.00006 | 114° | 203km/h | 11638m | -5.7m/s | -57.2°C | 40.1% | 214.3hPa | 2.6V | 00:00:00 | 01:41:31 | 00:00:00 | |
| DO2SHX-10 | 2026-09-03 08:13:48 | 52.34986 | 8.99926 | 113° | 206km/h | 11644m | -5.8m/s | -57.2°C | 39.2% | 214.1hPa | 2.6V | 00:00:00 | 01:41:30 | 00:00:00 | |
| DL1XH1-15 | 2026-09-03 08:13:47 | 52.35106 | 8.99463 | 113° | 199km/h | 11679m | -5.8m/s | -57°C | 34.8% | 213hPa | 2.6V | 08:10:16 | 01:41:24 | 00:00:00 | |
| DO2JMG | 2026-09-03 08:13:46 | 52.35026 | 8.99769 | 113° | 204km/h | 11656m | -5.8m/s | -57.1°C | 39.2% | 213.7hPa | 2.5V | 08:10:31 | 01:41:28 | 00:00:00 | |
| DO2SHX-10 | 2026-09-03 08:13:45 | 52.35046 | 8.99692 | 113° | 201km/h | 11661m | -5.8m/s | -57.1°C | 36.6% | 213.5hPa | 2.7V | 00:00:00 | 01:41:27 | 00:00:00 | |
| DL1NUX | 2026-09-03 08:13:44 | 52.35166 | 8.99236 | 113° | 201km/h | 11696m | -5.8m/s | -57°C | 33.9% | 212.4hPa | 2.7V | 08:10:19 | 01:41:21 | 00:00:00 | |
| AA1-15 | 2026-09-03 08:13:44 | 52.35066 | 8.99615 | 113° | 201km/h | 11667m | -5.9m/s | -57.1°C | 38.3% | 213.3hPa | 2.6V | 08:10:31 | 01:41:26 | 00:00:00 | |
| DF8AY | 2026-09-03 08:13:41 | 52.35126 | 8.99387 | 114° | 199km/h | 11685m | -5.6m/s | -57°C | 37% | 212.7hPa | 2.6V | 08:10:31 | 01:41:23 | 00:00:00 | |
| BIOWL1-15 | 2026-09-03 08:13:40 | 52.35146 | 8.99312 | 114° | 199km/h | 11690m | -5.8m/s | -57°C | 36.7% | 212.6hPa | 2.6V | 08:10:31 | 01:41:22 | 00:00:00 | |
| DB0DAN | 2026-09-03 08:13:40 | 52.35146 | 8.99312 | 113° | 190km/h | 11690m | -5.8m/s | -57°C | 29% | 212.59hPa | 2.6V | 00:00:00 | 00:00:00 | 00:00:00 | |
| DO2SHX-10 | 2026-09-03 08:13:39 | 52.35166 | 8.99236 | 114° | 201km/h | 11696m | -5.8m/s | -56.9°C | 33.9% | 212.3hPa | 2.6V | 00:00:00 | 01:41:21 | 00:00:00 | |
| BUE01 | 2026-09-03 08:13:38 | 52.35207 | 8.99084 | 113° | 201km/h | 11708m | -5.7m/s | -57.0°C | 28.6% | 212.0hPa | 2.6V | 00:00:00 | 00:00:00 | 00:00:00 | |
| DL1XH1-15 | 2026-09-03 08:13:37 | 52.35312 | 8.98694 | 113° | 210km/h | 11737m | -5.9m/s | -57.2°C | 33.1% | 211hPa | 2.6V | 08:10:26 | 01:41:14 | 00:00:00 | |
| DL1XH-west | 2026-09-03 08:13:35 | 52.35248 | 8.98930 | 114° | 204km/h | 11719m | -5.7m/s | -57.1°C | 35.4% | 211.6hPa | 2.6V | 08:10:31 | 01:41:17 | 00:00:00 | |
| AA1-15 | 2026-09-03 08:13:33 | 52.35291 | 8.98773 | 114° | 210km/h | 11731m | -6m/s | -57.1°C | 34.9% | 211.3hPa | 2.6V | 08:10:31 | 01:41:15 | 00:00:00 | |
| DF8AY | 2026-09-03 08:13:31 | 52.35334 | 8.98615 | 114° | 212km/h | 11743m | -6m/s | -57.2°C | 34.4% | 210.8hPa | 2.5V | 08:10:31 | 01:41:13 | 00:00:00 | |
| BIOWL1-15 | 2026-09-03 08:13:29 | 52.35376 | 8.98457 | 114° | 206km/h | 11755m | -6.1m/s | -57.4°C | 33.9% | 210.3hPa | 2.6V | 08:10:31 | 01:41:11 | 00:00:00 | |
| DB0UT-7 | 2026-09-03 08:13:29 | 52.35376 | 8.98457 | 115° | 197km/h | 11755m | -6.0m/s | -57.3°C | 33.1% | 210.3hPa | 2.6V | 08:10:00 | 01:41:11 | 00:00:00 | |
| DD8BA-10 | 2026-09-03 08:13:28 | 52.35398 | 8.98379 | 115° | 197km/h | 11761m | -5.6m/s | -57.3°C | 33.1% | 210.2hPa | 2.6V | 00:00:00 | 00:00:00 | 00:00:00 | |
| DL1XH1-15 | 2026-09-03 08:13:27 | 52.35534 | 8.97940 | 117° | 193km/h | 11795m | -5.9m/s | -57.7°C | 30% | 209hPa | 2.6V | 08:10:36 | 01:41:04 | 00:00:00 | |
| DO2JMG | 2026-09-03 08:13:25 | 52.35465 | 8.98155 | 117° | 197km/h | 11778m | -5.3m/s | -57.5°C | 32.5% | 209.7hPa | 2.5V | 08:11:22 | 01:41:07 | 00:00:00 | |
| DB0DAN | 2026-09-03 08:13:25 | 52.35465 | 8.98155 | 117° | 188km/h | 11778m | -5.3m/s | -57.5°C | 26.4% | 209.66hPa | 2.5V | 00:00:00 | 00:00:00 | 00:00:00 | |
| AA1-15 | 2026-09-03 08:13:22 | 52.35533 | 8.97940 | 117° | 193km/h | 11795m | -5.9m/s | -57.7°C | 31.1% | 209hPa | 2.6V | 08:11:22 | 01:41:04 | 00:00:00 | |
| BIOWL1-15 | 2026-09-03 08:13:21 | 52.35599 | 8.97725 | 116° | 193km/h | 11814m | -6.1m/s | -57.6°C | 29.8% | 208.5hPa | 2.6V | 08:11:22 | 01:41:01 | 00:00:00 | |
| DF8AY | 2026-09-03 08:13:20 | 52.35578 | 8.97797 | 116° | 193km/h | 11807m | -6.1m/s | -57.7°C | 30.2% | 208.7hPa | 2.5V | 08:11:22 | 01:41:02 | 00:00:00 | |
| DM0DOS-11 | 2026-09-03 08:13:20 | 52.35688 | 8.97443 | 118° | 192km/h | 11838m | -6.2m/s | -57.4°C | 26.4% | 207.6hPa | 2.6V | 08:10:43 | 01:40:57 | 00:00:00 | |
| HSKMA3-T | 2026-09-03 08:13:18 | 52.35621 | 8.97654 | 117° | 193km/h | 11820m | -6.2m/s | -57.6°C | 29.3% | 208.3hPa | 2.6V | 08:11:22 | 01:41:00 | 00:00:00 | |
| DL1XH-west | 2026-09-03 08:13:14 | 52.35712 | 8.97374 | 120° | 192km/h | 11845m | -5.8m/s | -57.3°C | 26.9% | 207.4hPa | 2.5V | 08:11:22 | 01:40:56 | 00:00:00 | |
| AA1-15 | 2026-09-03 08:13:12 | 52.35761 | 8.97238 | 121° | 192km/h | 11856m | -5.5m/s | -57.3°C | 25.9% | 207.1hPa | 2.6V | 08:11:22 | 01:40:54 | 00:00:00 | |
| BIOWL1-15 | 2026-09-03 08:13:11 | 52.35838 | 8.97036 | 122° | 193km/h | 11873m | -5.7m/s | -57.4°C | 24.5% | 206.5hPa | 2.5V | 08:11:22 | 01:40:51 | 00:00:00 | |
| DF8AY | 2026-09-03 08:13:10 | 52.35812 | 8.97103 | 122° | 192km/h | 11867m | -5.7m/s | -57.3°C | 25% | 206.7hPa | 2.6V | 08:11:22 | 01:40:52 | 00:00:00 | |
| DB0DAN | 2026-09-03 08:13:10 | 52.35812 | 8.97103 | 122° | 183km/h | 11867m | -5.7m/s | -57.3°C | 19.4% | 206.65hPa | 2.6V | 00:00:00 | 00:00:00 | 00:00:00 | |
| DL3AQ-11 | 2026-09-03 08:13:10 | 52.35838 | 8.97036 | 122° | 193km/h | 11873m | -5.7m/s | -57.4°C | 18.9% | 206.5hPa | 2.6V | 00:00:00 | 00:00:00 | 00:00:00 | |
| DL1XH-15 | 2026-09-03 08:13:09 | 52.35970 | 8.96692 | 120° | 201km/h | 11901m | -5.4m/s | -57.5°C | 21.6% | 205.5hPa | 2.6V | 08:10:54 | 01:40:46 | 00:00:00 | |
| HSKMA3-T | 2026-09-03 08:13:08 | 52.35865 | 8.96968 | 122° | 193km/h | 11879m | -5.6m/s | -57.4°C | 24% | 206.3hPa | 2.5V | 08:11:22 | 01:40:50 | 00:00:00 | |
| DL1XH-west | 2026-09-03 08:13:04 | 52.35970 | 8.96692 | 121° | 201km/h | 11901m | -5.4m/s | -57.5°C | 22.2% | 205.5hPa | 2.6V | 08:11:22 | 01:40:46 | 00:00:00 | |
| DL1NUX | 2026-09-03 08:13:04 | 52.36095 | 8.96331 | 118° | 199km/h | 11930m | -5.8m/s | -57.3°C | 20.2% | 204.6hPa | 2.6V | 08:10:59 | 01:40:41 | 00:00:00 | |
| DO2JMG | 2026-09-03 08:13:03 | 52.35996 | 8.96621 | 120° | 201km/h | 11907m | -5.8m/s | -57.6°C | 21.9% | 205.4hPa | 2.5V | 08:11:22 | 01:40:45 | 00:00:00 | |
| AA1-15 | 2026-09-03 08:13:01 | 52.36046 | 8.96476 | 119° | 203km/h | 11919m | -5.7m/s | -57.3°C | 20.9% | 205hPa | 2.6V | 08:11:22 | 01:40:43 | 00:00:00 | |
| GOEST3-10 | 2026-09-03 08:13:01 | 52.36046 | 8.96476 | 120° | 199km/h | 11919m | -5.7m/s | -57.2°C | 20.6% | 205.0hPa | 2.6V | 08:10:00 | 01:40:43 | 00:00:00 | |
| DJ2DS-15 | 2026-09-03 08:13:00 | 52.36071 | 8.96403 | 119° | 190km/h | 11924m | -5.7m/s | -57.2°C | 20.4% | 204.7hPa | 2.6V | 00:00:00 | 01:40:42 | 00:00:00 | |
| DL1XH-15 | 2026-09-03 08:12:59 | 52.36212 | 8.95970 | 116° | 195km/h | 11959m | -5.8m/s | -57.2°C | 19% | 203.6hPa | 2.6V | 08:11:04 | 01:40:36 | 00:00:00 | |
| DF8AY | 2026-09-03 08:12:59 | 52.36095 | 8.96331 | 119° | 199km/h | 11930m | -5.8m/s | -57.3°C | 20.2% | 204.6hPa | 2.6V | 08:11:22 | 01:40:41 | 00:00:00 | |
| BIOWL1-15 | 2026-09-03 08:12:58 | 52.36119 | 8.96259 | 118° | 199km/h | 11936m | -6m/s | -57.2°C | 19.9% | 204.5hPa | 2.5V | 08:11:22 | 01:40:40 | 00:00:00 | |
| DD8BA-10 | 2026-09-03 08:12:58 | 52.36119 | 8.96259 | 119° | 193km/h | 11936m | -5.9m/s | -57.2°C | 20.0% | 204.4hPa | 2.5V | 00:00:00 | 00:00:00 | 00:00:00 | |
| DL1XH1-15 | 2026-09-03 08:12:57 | 52.36255 | 8.95825 | 115° | 193km/h | 11970m | -5.8m/s | -57.2°C | 18.2% | 203.3hPa | 2.5V | 08:11:06 | 01:40:34 | 00:00:00 | |
| HSKMA3-T | 2026-09-03 08:12:57 | 52.36143 | 8.96187 | 118° | 199km/h | 11942m | -5.6m/s | -57.2°C | 19.5% | 204.2hPa | 2.5V | 08:11:22 | 01:40:39 | 00:00:00 | |
| DD1CC8 | 2026-09-03 08:12:56 | 52.36190 | 8.96042 | 117° | 195km/h | 11953m | -5.7m/s | -57.2°C | 14.9% | 203.9hPa | 2.7V | 00:00:00 | 00:00:00 | 00:00:00 | |
| DB0DAN | 2026-09-03 08:12:55 | 52.36190 | 8.96042 | 117° | 188km/h | 11953m | -5.7m/s | -57.2°C | 14.9% | 203.92hPa | 2.7V | 00:00:00 | 00:00:00 | 00:00:00 | |
| DL1NUX | 2026-09-03 08:12:54 | 52.36314 | 8.95611 | 113° | 188km/h | 11989m | -5.9m/s | -57.2°C | 17.2% | 202.8hPa | 2.7V | 08:11:09 | 01:40:31 | 00:00:00 | |
| DL1XH-west | 2026-09-03 08:12:54 | 52.36212 | 8.95970 | 117° | 195km/h | 11959m | -5.8m/s | -57.2°C | 18.6% | 203.6hPa | 2.6V | 08:11:22 | 01:40:36 | 00:00:00 | |
| DO2JMG | 2026-09-03 08:12:53 | 52.36234 | 8.95897 | 116° | 193km/h | 11965m | -5.6m/s | -57.2°C | 18.3% | 203.5hPa | 2.6V | 08:11:22 | 01:40:35 | 00:00:00 | |
| AA1-15 | 2026-09-03 08:12:50 | 52.36295 | 8.95682 | 114° | 190km/h | 11983m | -6.3m/s | -57.3°C | 17.2% | 203hPa | 2.6V | 08:11:22 | 01:40:32 | 00:00:00 | |
| DJ2KF-10 | 2026-09-03 08:12:50 | 52.36295 | 8.95682 | 115° | 172km/h | 11983m | -6.2m/s | -57.2°C | 17.6% | 202.9hPa | 2.6V | 00:00:00 | 01:40:32 | 00:00:00 | |
| DL1XH-15 | 2026-09-03 08:12:49 | 52.36404 | 8.95258 | 111° | 181km/h | 12018m | -6.1m/s | -56.9°C | 15.4% | 201.7hPa | 2.7V | 08:11:14 | 01:40:26 | 00:00:00 | |
| DF8AY | 2026-09-03 08:12:48 | 52.36333 | 8.95540 | 113° | 186km/h | 11995m | -5.7m/s | -57.1°C | 16.3% | 202.6hPa | 2.6V | 08:11:22 | 01:40:30 | 00:00:00 | |
| BIOWL1-15 | 2026-09-03 08:12:47 | 52.36352 | 8.95469 | 113° | 186km/h | 12000m | -5.5m/s | -57°C | 16% | 202.4hPa | 2.5V | 08:11:22 | 01:40:29 | 00:00:00 | |
| HSKMA3-T | 2026-09-03 08:12:46 | 52.36370 | 8.95398 | 113° | 184km/h | 12006m | -6m/s | -57°C | 15.7% | 202.1hPa | 2.5V | 08:11:22 | 01:40:28 | 00:00:00 | |
| DO2SHX-10 | 2026-09-03 08:12:45 | 52.36387 | 8.95328 | 113° | 181km/h | 12012m | -6.2m/s | -56.9°C | 15.5% | 202.0hPa | 2.6V | 00:00:00 | 01:40:27 | 00:00:00 | |
| DL1NUX | 2026-09-03 08:12:44 | 52.36483 | 8.94919 | 110° | 170km/h | 12050m | -6.2m/s | -57°C | 15.1% | 200.7hPa | 2.6V | 08:11:19 | 01:40:21 | 00:00:00 | |
| DO2JMG | 2026-09-03 08:12:43 | 52.36421 | 8.95189 | 111° | 179km/h | 12025m | -6.4m/s | -57°C | 14.9% | 201.6hPa | 2.6V | 08:11:22 | 01:40:25 | 00:00:00 | |
| DL4XJ-10 | 2026-09-03 08:12:43 | 52.36421 | 8.95189 | 112° | 162km/h | 12025m | -6.4m/s | -56.0°C | 0% | 0hPa | 2.6V | 00:00:00 | 00:00:00 | 00:00:00 | |
| DO2SHX-10 | 2026-09-03 08:12:42 | 52.36437 | 8.95120 | 111° | 175km/h | 12031m | -6.5m/s | -57.0°C | 15.3% | 201.4hPa | 2.6V | 00:00:00 | 01:40:24 | 00:00:00 | |
| GOEST3-10 | 2026-09-03 08:12:41 | 52.36453 | 8.95052 | 111° | 170km/h | 12038m | -6.4m/s | -57.0°C | 15.2% | 201.1hPa | 2.6V | 00:00:00 | 01:40:23 | 00:00:00 | |
| DM0DOS-11 | 2026-09-03 08:12:40 | 52.36544 | 8.94668 | 113° | 159km/h | 12074m | -5.8m/s | -56.8°C | 14% | 200hPa | 2.6V | 08:11:23 | 01:40:17 | 00:00:00 | |
| AA1-15 | 2026-09-03 08:12:40 | 52.36468 | 8.94985 | 111° | 173km/h | 12044m | -6.2m/s | -57°C | 14.4% | 200.9hPa | 2.5V | 08:11:22 | 01:40:22 | 00:00:00 | |
| DB0DAN | 2026-09-03 08:12:40 | 52.36468 | 8.94985 | 110° | 164km/h | 12044m | -6.2m/s | -57°C | 11.2% | 200.95hPa | 2.5V | 00:00:00 | 00:00:00 | 00:00:00 | |
| DF8AY | 2026-09-03 08:12:38 | 52.36498 | 8.94854 | 111° | 166km/h | 12057m | -6.1m/s | -57°C | 13.9% | 200.6hPa | 2.7V | 08:11:22 | 01:40:20 | 00:00:00 | |
| BIOWL1-15 | 2026-09-03 08:12:36 | 52.36528 | 8.94729 | 113° | 161km/h | 12069m | -5.5m/s | -56.7°C | 13.4% | 200.2hPa | 2.5V | 08:11:22 | 01:40:18 | 00:00:00 | |
| BUE01 | 2026-09-03 08:12:36 | 52.36544 | 8.94668 | 113° | 157km/h | 12074m | -5.8m/s | -56.8°C | 10.2% | 200.0hPa | 2.7V | 00:00:00 | 00:00:00 | 00:00:00 | |
| DJ2DS-15 | 2026-09-03 08:12:35 | 52.36544 | 8.94668 | 113° | 157km/h | 12074m | -5.8m/s | -56.8°C | 10.2% | 200.0hPa | 2.7V | 00:00:00 | 00:00:00 | 00:00:00 | |
| DL1NUX | 2026-09-03 08:12:34 | 52.36644 | 8.94319 | 115° | 155km/h | 12111m | -6.2m/s | -56.6°C | 12.5% | 198.9hPa | 2.7V | 08:11:29 | 01:40:11 | 00:00:00 | |
| DL1XH-west | 2026-09-03 08:12:32 | 52.36593 | 8.94492 | 116° | 155km/h | 12092m | -6.1m/s | -56.7°C | 12.3% | 199.4hPa | 2.5V | 08:12:13 | 01:40:14 | 00:00:00 | |
| AA1-15 | 2026-09-03 08:12:30 | 52.36627 | 8.94376 | 116° | 155km/h | 12104m | -6.3m/s | -56.6°C | 11.7% | 199hPa | 2.6V | 08:12:13 | 01:40:12 | 00:00:00 | |
| DO2SHX-10 | 2026-09-03 08:12:30 | 52.36627 | 8.94376 | 116° | 155km/h | 12105m | -6.2m/s | -56.6°C | 12.7% | 198.9hPa | 2.6V | 00:00:00 | 01:40:12 | 00:00:00 | |
| DL1XH-15 | 2026-09-03 08:12:29 | 52.36735 | 8.94028 | 118° | 162km/h | 12141m | -6m/s | -56.5°C | 11.3% | 197.8hPa | 2.6V | 08:11:34 | 01:40:06 | 00:00:00 | |
| DF8AY | 2026-09-03 08:12:27 | 52.36679 | 8.94203 | 117° | 157km/h | 12123m | -6.1m/s | -56.6°C | 10.9% | 198.5hPa | 2.6V | 08:12:13 | 01:40:09 | 00:00:00 | |
| DL1XH1-15 | 2026-09-03 08:12:27 | 52.36775 | 8.93908 | 118° | 166km/h | 12153m | -6.4m/s | -56.5°C | 10.8% | 197.5hPa | 2.6V | 08:11:36 | 01:40:04 | 00:00:00 | |
| BIOWL1-15 | 2026-09-03 08:12:26 | 52.36697 | 8.94145 | 118° | 159km/h | 12129m | -5.9m/s | -56.6°C | 10.6% | 198.2hPa | 2.5V | 08:12:13 | 01:40:08 | 00:00:00 | |
| GOEST3-10 | 2026-09-03 08:12:26 | 52.36697 | 8.94145 | 118° | 162km/h | 12129m | -5.8m/s | -56.5°C | 11.9% | 198.2hPa | 2.6V | 00:00:00 | 00:00:00 | 00:00:00 | |
| DD1CC8 | 2026-09-03 08:12:25 | 52.36735 | 8.94028 | 118° | 162km/h | 12141m | -6.0m/s | -56.6°C | 7.8% | 197.8hPa | 2.6V | 00:00:00 | 00:00:00 | 00:00:00 | |
| DL1NUX | 2026-09-03 08:12:24 | 52.36834 | 8.93722 | 116° | 170km/h | 12172m | -6.2m/s | -56.4°C | 10.3% | 197hPa | 2.6V | 08:11:39 | 01:40:01 | 00:00:00 | |
| DO2JMG | 2026-09-03 08:12:22 | 52.36775 | 8.93908 | 118° | 166km/h | 12153m | -6.4m/s | -56.5°C | 9.2% | 197.5hPa | 2.6V | 08:12:13 | 01:40:04 | 00:00:00 | |
| DL1XH-west | 2026-09-03 08:12:21 | 52.36795 | 8.93847 | 118° | 168km/h | 12160m | -6.5m/s | -56.5°C | 8.8% | 197.3hPa | 2.5V | 08:12:13 | 01:40:03 | 00:00:00 | |
| SONCRA | 2026-09-03 08:12:21 | 52.36815 | 8.93785 | 117° | 170km/h | 12166m | -6.3m/s | -56.4°C | 6.9% | 197.2hPa | 2.5V | 00:00:00 | 00:00:00 | 00:00:00 | |
| BIOWL9-15 | 2026-09-03 08:12:20 | 52.36834 | 8.93722 | 116° | 170km/h | 12172m | -6.2m/s | -56.4°C | 6.8% | 197.0hPa | 2.5V | 00:00:00 | 00:00:00 | 00:00:00 | |
| DL1XH-15 | 2026-09-03 08:12:19 | 52.36920 | 8.93406 | 111° | 162km/h | 12202m | -5.6m/s | -55.8°C | 8.9% | 196hPa | 2.5V | 08:11:44 | 01:39:56 | 00:00:00 | |
| AA1-15 | 2026-09-03 08:12:19 | 52.36834 | 8.93722 | 117° | 170km/h | 12172m | -6.2m/s | -56.4°C | 8.2% | 197hPa | 2.6V | 08:12:13 | 01:40:01 | 00:00:00 | |
| DB0NH | 2026-09-03 08:12:19 | 52.36834 | 8.93722 | 117° | 161km/h | 12172m | -6.1m/s | -56.4°C | 10.3% | 196.9hPa | 2.6V | 00:00:00 | 01:40:01 | 00:00:00 | |
| DO2SHX-10 | 2026-09-03 08:12:18 | 52.36853 | 8.93659 | 116° | 168km/h | 12179m | -6.0m/s | -56.3°C | 10.1% | 196.7hPa | 2.6V | 00:00:00 | 01:40:00 | 00:00:00 | |
| DL1XH1-15 | 2026-09-03 08:12:17 | 52.36949 | 8.93281 | 110° | 162km/h | 12214m | -6m/s | -55.2°C | 8.1% | 195.6hPa | 2.6V | 08:11:46 | 01:39:54 | 00:00:00 | |
| DF8AY | 2026-09-03 08:12:17 | 52.36871 | 8.93596 | 115° | 168km/h | 12185m | -6m/s | -56.3°C | 7.7% | 196.5hPa | 2.6V | 08:12:13 | 01:39:59 | 00:00:00 | |
| BIOWL1-15 | 2026-09-03 08:12:16 | 52.36888 | 8.93532 | 113° | 166km/h | 12190m | -6m/s | -56.2°C | 7.3% | 196.4hPa | 2.6V | 08:12:13 | 01:39:58 | 00:00:00 | |
| GOEST3-10 | 2026-09-03 08:12:16 | 52.36888 | 8.93532 | 114° | 164km/h | 12191m | -6.0m/s | -56.2°C | 9.7% | 196.3hPa | 2.6V | 08:11:00 | 00:00:00 | 00:00:00 | |
| DO2SHX-10 | 2026-09-03 08:12:15 | 52.36905 | 8.93469 | 113° | 164km/h | 12197m | -5.7m/s | -56.0°C | 9.4% | 196.1hPa | 2.6V | 00:00:00 | 01:39:57 | 00:00:00 | |
| DL1NUX | 2026-09-03 08:12:14 | 52.36993 | 8.93092 | 111° | 162km/h | 12233m | -6.2m/s | -55.1°C | 7.7% | 195hPa | 2.6V | 08:11:49 | 01:39:51 | 00:00:00 | |
| DO2JMG | 2026-09-03 08:12:11 | 52.36964 | 8.93218 | 110° | 162km/h | 12220m | -6.6m/s | -55.2°C | 5.8% | 195.4hPa | 2.6V | 08:12:13 | 01:39:53 | 00:00:00 | |
| DL1XH-west | 2026-09-03 08:12:10 | 52.36978 | 8.93155 | 111° | 162km/h | 12227m | -6.3m/s | -55.1°C | 5.7% | 195.2hPa | 2.5V | 08:12:13 | 01:39:52 | 00:00:00 | |
| DB0DAN | 2026-09-03 08:12:10 | 52.36978 | 8.93155 | 110° | 155km/h | 12227m | -6.3m/s | -55.1°C | 4.8% | 195.24hPa | 2.5V | 00:00:00 | 00:00:00 | 00:00:00 | |
| DL4BBY-15 | 2026-09-03 08:12:10 | 52.36978 | 8.93155 | 111° | 159km/h | 12227m | -6.3m/s | -54.1°C | 0% | 0hPa | 2.6V | 00:00:00 | 00:00:00 | 00:00:00 | |
| DL1XH-15 | 2026-09-03 08:12:09 | 52.37076 | 8.92790 | 117° | 157km/h | 12264m | -5.9m/s | -54.8°C | 6.9% | 194.1hPa | 2.6V | 08:11:54 | 01:39:46 | 00:00:00 | |
| AA1-15 | 2026-09-03 08:12:08 | 52.37008 | 8.93030 | 112° | 162km/h | 12239m | -6.6m/s | -55.1°C | 5.4% | 194.8hPa | 2.6V | 08:12:13 | 01:39:50 | 00:00:00 | |
| BIOWL1-15 | 2026-09-03 08:12:06 | 52.37040 | 8.92908 | 115° | 161km/h | 12252m | -6m/s | -54.9°C | 5.1% | 194.5hPa | 2.5V | 08:12:13 | 01:39:48 | 00:00:00 | |
| HSKMA3-T | 2026-09-03 08:12:05 | 52.37058 | 8.92848 | 116° | 159km/h | 12258m | -6m/s | -54.8°C | 4.8% | 194.3hPa | 2.6V | 08:12:13 | 01:39:47 | 00:00:00 | |
| DO2JMG | 2026-09-03 08:12:01 | 52.37132 | 8.92621 | 119° | 155km/h | 12283m | -5.9m/s | -54.3°C | 4.2% | 193.6hPa | 2.6V | 08:12:13 | 01:39:43 | 00:00:00 | |
| DL1XH-west | 2026-09-03 08:12:00 | 52.37151 | 8.92564 | 119° | 157km/h | 12289m | -6.3m/s | -54.2°C | 4.1% | 193.3hPa | 2.5V | 08:12:13 | 01:39:42 | 00:00:00 | |
| AA1-15 | 2026-09-03 08:11:58 | 52.37189 | 8.92450 | 118° | 159km/h | 12301m | -6.1m/s | -54.1°C | 4% | 193hPa | 2.6V | 08:12:13 | 01:39:40 | 00:00:00 | |
| DF8AY | 2026-09-03 08:11:56 | 52.37227 | 8.92332 | 118° | 161km/h | 12313m | -6.2m/s | -54.2°C | 3.9% | 192.6hPa | 2.6V | 08:12:13 | 01:39:38 | 00:00:00 | |
| BIOWL1-15 | 2026-09-03 08:11:55 | 52.37246 | 8.92273 | 117° | 161km/h | 12319m | -6.1m/s | -54.1°C | 3.8% | 192.4hPa | 2.6V | 08:12:13 | 01:39:37 | 00:00:00 | |
| SONDE2-11 | 2026-09-03 08:11:54 | 52.37265 | 8.92214 | 116° | 161km/h | 12325m | -6.2m/s | -54.2°C | 3.4% | 192.2hPa | 2.6V | 00:00:00 | 00:00:00 | 00:00:00 | |
| DK5PH-5 | 2026-09-03 08:11:53 | 52.37282 | 8.92154 | 116° | 153km/h | 12331m | -5.8m/s | -54.1°C | 6.0% | 192.0hPa | 2.6V | 00:00:00 | 01:39:35 | 00:00:00 | |
| GOEST3-10 | 2026-09-03 08:11:51 | 52.37316 | 8.92034 | 115° | 157km/h | 12343m | -5.8m/s | -54.1°C | 6.1% | 191.6hPa | 2.6V | 00:00:00 | 01:39:33 | 00:00:00 | |
| DM0DOS-11 | 2026-09-03 08:11:50 | 52.37412 | 8.91676 | 113° | 157km/h | 12378m | -6m/s | -54.3°C | 6.1% | 190.7hPa | 2.6V | 08:12:13 | 01:39:27 | 00:00:00 | |
| DL1XH-west | 2026-09-03 08:11:50 | 52.37333 | 8.91974 | 114° | 159km/h | 12348m | -5.7m/s | -54.1°C | 3.6% | 191.6hPa | 2.6V | 08:12:13 | 01:39:32 | 00:00:00 | |
| DL3AQ-11 | 2026-09-03 08:11:50 | 52.37349 | 8.91915 | 113° | 157km/h | 12354m | -5.8m/s | -54.2°C | 3.4% | 191.4hPa | 2.6V | 00:00:00 | 00:00:00 | 00:00:00 | |
| EDDB2-12 | 2026-09-03 08:11:49 | 52.37365 | 8.91855 | 113° | 157km/h | 12360m | -5.9m/s | -54.2°C | 3.4% | 191.2hPa | 2.6V | 00:00:00 | 00:00:00 | 00:00:00 | |
| DD8BA-10 | 2026-09-03 08:11:48 | 52.37365 | 8.91855 | 114° | 153km/h | 12360m | -5.9m/s | -54.1°C | 6.0% | 191.2hPa | 2.6V | 00:00:00 | 00:00:00 | 00:00:00 | |
| DL1XH1-15 | 2026-09-03 08:11:47 | 52.37459 | 8.91498 | 113° | 155km/h | 12396m | -6.2m/s | -54°C | 5.8% | 190.1hPa | 2.6V | 08:12:16 | 01:39:24 | 00:00:00 | |
| AA1-15 | 2026-09-03 08:11:47 | 52.37381 | 8.91795 | 114° | 157km/h | 12366m | -5.8m/s | -54.3°C | 3.5% | 191hPa | 2.6V | 08:12:13 | 01:39:29 | 00:00:00 | |
| DF8AY | 2026-09-03 08:11:45 | 52.37412 | 8.91676 | 114° | 157km/h | 12378m | -6m/s | -54.3°C | 3.5% | 190.7hPa | 2.6V | 08:12:13 | 01:39:27 | 00:00:00 | |
| DL1NUX | 2026-09-03 08:11:44 | 52.37503 | 8.91327 | 112° | 144km/h | 12413m | -5.9m/s | -53.9°C | 5.5% | 189.6hPa | 2.6V | 08:12:19 | 01:39:21 | 00:00:00 | |
| HSKMA3-T | 2026-09-03 08:11:44 | 52.37428 | 8.91616 | 113° | 157km/h | 12384m | -5.8m/s | -54.3°C | 3.5% | 190.5hPa | 2.5V | 08:13:04 | 01:39:26 | 00:00:00 | |
| DK9SH | 2026-09-03 08:11:43 | 52.37443 | 8.91557 | 114° | 157km/h | 12390m | -5.9m/s | -54.3°C | 3.3% | 190.3hPa | 2.6V | 08:13:00 | 00:00:00 | 00:00:00 | |
| DL3OBA | 2026-09-03 08:11:42 | 52.37443 | 8.91557 | 114° | 157km/h | 12390m | -5.9m/s | -54.3°C | 3.3% | 190.3hPa | 2.6V | 08:13:00 | 00:00:00 | 00:00:00 | |
| GOEST3-10 | 2026-09-03 08:11:41 | 52.37474 | 8.91440 | 113° | 144km/h | 12402m | -5.6m/s | -53.9°C | 5.7% | 189.9hPa | 2.6V | 00:00:00 | 01:39:23 | 00:00:00 | |
| DM0DOS-11 | 2026-09-03 08:11:40 | 52.37556 | 8.91112 | 112° | 137km/h | 12437m | -6.3m/s | -53.8°C | 5.5% | 188.9hPa | 2.6V | 08:12:23 | 01:39:17 | 00:00:00 | |
| DO2JMG | 2026-09-03 08:11:40 | 52.37489 | 8.91383 | 112° | 148km/h | 12407m | -5.9m/s | -53.9°C | 3% | 189.8hPa | 2.5V | 08:13:04 | 01:39:22 | 00:00:00 | |
| DL1XH-west | 2026-09-03 08:11:39 | 52.37503 | 8.91327 | 112° | 144km/h | 12413m | -5.9m/s | -53.9°C | 2.9% | 189.6hPa | 2.6V | 08:13:04 | 01:39:21 | 00:00:00 | |
| DD8BA-10 | 2026-09-03 08:11:38 | 52.37516 | 8.91272 | 113° | 135km/h | 12419m | -5.9m/s | -53.8°C | 5.5% | 189.4hPa | 2.6V | 00:00:00 | 00:00:00 | 00:00:00 | |
| DL1XH1-15 | 2026-09-03 08:11:37 | 52.37595 | 8.90957 | 112° | 133km/h | 12456m | -6.4m/s | -53.7°C | 5.4% | 188.4hPa | 2.6V | 08:12:26 | 01:39:14 | 00:00:00 | |
| AA1-15 | 2026-09-03 08:11:37 | 52.37529 | 8.91218 | 112° | 141km/h | 12425m | -6.1m/s | -53.9°C | 2.9% | 189.2hPa | 2.7V | 08:13:04 | 01:39:19 | 00:00:00 | |
| DF8AY | 2026-09-03 08:11:35 | 52.37556 | 8.91112 | 112° | 137km/h | 12437m | -6.3m/s | -53.8°C | 2.8% | 188.9hPa | 2.6V | 08:13:04 | 01:39:17 | 00:00:00 | |
| BIOWL1-15 | 2026-09-03 08:11:34 | 52.37569 | 8.91060 | 112° | 135km/h | 12444m | -6.2m/s | -53.8°C | 2.8% | 188.7hPa | 2.5V | 08:13:04 | 01:39:16 | 00:00:00 | |
| DO2SHX-10 | 2026-09-03 08:11:34 | 52.37569 | 8.91060 | 113° | 135km/h | 12444m | -6.1m/s | -53.8°C | 5.5% | 188.7hPa | 2.5V | 00:00:00 | 01:39:16 | 00:00:00 | |
| HTAHTA | 2026-09-03 08:11:33 | 52.37582 | 8.91009 | 112° | 133km/h | 12450m | -6.2m/s | -53.8°C | 2.8% | 188.6hPa | 2.7V | 00:00:00 | 00:00:00 | 00:00:00 | |
| DO9LL-15 | 2026-09-03 08:11:32 | 52.37595 | 8.90957 | 113° | 128km/h | 12456m | -6.3m/s | -53.6°C | 5.4% | 188.3hPa | 2.7V | 00:00:00 | 01:39:14 | 00:00:00 | |
| DO2SHX-10 | 2026-09-03 08:11:31 | 52.37608 | 8.90907 | 114° | 128km/h | 12463m | -6.3m/s | -53.6°C | 5.3% | 188.2hPa | 2.7V | 00:00:00 | 01:39:13 | 00:00:00 | |
| DM0DOS-11 | 2026-09-03 08:11:30 | 52.37690 | 8.90628 | 118° | 122km/h | 12499m | -6.1m/s | -53.5°C | 5.3% | 187.1hPa | 2.7V | 08:12:33 | 01:39:07 | 00:00:00 | |
| DO2JMG | 2026-09-03 08:11:29 | 52.37634 | 8.90810 | 115° | 126km/h | 12475m | -6m/s | -53.6°C | 2.7% | 187.8hPa | 2.5V | 08:13:04 | 01:39:11 | 00:00:00 | |
| DL1XH-west | 2026-09-03 08:11:28 | 52.37648 | 8.90763 | 115° | 124km/h | 12481m | -6.1m/s | -53.5°C | 2.7% | 187.6hPa | 2.6V | 08:13:04 | 01:39:10 | 00:00:00 | |
| AA1-15 | 2026-09-03 08:11:26 | 52.37675 | 8.90672 | 117° | 122km/h | 12493m | -6.1m/s | -53.5°C | 2.7% | 187.2hPa | 2.7V | 08:13:04 | 01:39:08 | 00:00:00 | |
| DF8AY | 2026-09-03 08:11:25 | 52.37690 | 8.90628 | 119° | 122km/h | 12499m | -6.1m/s | -53.5°C | 2.7% | 187.1hPa | 2.7V | 08:13:04 | 01:39:07 | 00:00:00 | |
| DB0DAN | 2026-09-03 08:11:25 | 52.37690 | 8.90628 | 119° | 117km/h | 12499m | -6.1m/s | -53.5°C | 2.8% | 187.05hPa | 2.7V | 00:00:00 | 00:00:00 | 00:00:00 | |
| DL1NUX | 2026-09-03 08:11:24 | 52.37784 | 8.90368 | 122° | 122km/h | 12537m | -6.2m/s | -53°C | 5.1% | 185.9hPa | 2.7V | 08:12:39 | 01:39:01 | 00:00:00 | |
| HSKMA3-T | 2026-09-03 08:11:23 | 52.37720 | 8.90540 | 120° | 122km/h | 12512m | -6.4m/s | -53.5°C | 2.6% | 186.7hPa | 2.5V | 08:13:04 | 01:39:05 | 00:00:00 | |
| DL4XJ-10 | 2026-09-03 08:11:23 | 52.37720 | 8.90540 | 121° | 128km/h | 12512m | -6.3m/s | -52.4°C | 0% | 0hPa | 2.6V | 00:00:00 | 00:00:00 | 00:00:00 | |
| DO2SHX-10 | 2026-09-03 08:11:22 | 52.37736 | 8.90497 | 121° | 122km/h | 12518m | -6.1m/s | -53.3°C | 5.3% | 186.5hPa | 2.6V | 00:00:00 | 01:39:04 | 00:00:00 | |
| GOEST3-10 | 2026-09-03 08:11:21 | 52.37751 | 8.90454 | 122° | 122km/h | 12525m | -6.3m/s | -53.2°C | 5.2% | 186.2hPa | 2.6V | 00:00:00 | 01:39:03 | 00:00:00 | |
| DM0DOS-11 | 2026-09-03 08:11:20 | 52.37852 | 8.90198 | 124° | 126km/h | 12562m | -6.1m/s | -52.9°C | 5% | 185.2hPa | 2.6V | 08:12:43 | 01:38:57 | 00:00:00 | |
| DJ2DS-15 | 2026-09-03 08:11:20 | 52.37767 | 8.90411 | 122° | 130km/h | 12531m | -6.4m/s | -53.0°C | 5.1% | 186.1hPa | 2.7V | 00:00:00 | 01:39:02 | 00:00:00 | |
| DL1XH-15 | 2026-09-03 08:11:19 | 52.37871 | 8.90155 | 124° | 128km/h | 12568m | -6m/s | -52.9°C | 5% | 185.1hPa | 2.5V | 08:12:44 | 01:38:56 | 00:00:00 | |
| DO2JMG | 2026-09-03 08:11:19 | 52.37784 | 8.90368 | 122° | 122km/h | 12537m | -6.2m/s | -53°C | 2.4% | 185.9hPa | 2.7V | 08:13:04 | 01:39:01 | 00:00:00 | |
| DL1XH-west | 2026-09-03 08:11:18 | 52.37800 | 8.90325 | 123° | 122km/h | 12543m | -6.2m/s | -52.9°C | 2.4% | 185.8hPa | 2.6V | 08:13:04 | 01:39:00 | 00:00:00 | |
| BIOWL9-15 | 2026-09-03 08:11:18 | 52.37817 | 8.90283 | 123° | 122km/h | 12549m | -6.0m/s | -53.0°C | 2.6% | 185.7hPa | 2.6V | 00:00:00 | 00:00:00 | 00:00:00 | |
| DL1XH1-15 | 2026-09-03 08:11:17 | 52.37908 | 8.90067 | 123° | 131km/h | 12579m | -5.9m/s | -52.9°C | 5% | 184.8hPa | 2.6V | 08:12:46 | 01:38:54 | 00:00:00 | |
| AA1-15 | 2026-09-03 08:11:15 | 52.37853 | 8.90198 | 125° | 126km/h | 12562m | -6.1m/s | -53°C | 2.4% | 185.2hPa | 2.6V | 08:13:04 | 01:38:57 | 00:00:00 | |
| DF8AY | 2026-09-03 08:11:14 | 52.37871 | 8.90155 | 125° | 128km/h | 12568m | -6m/s | -52.9°C | 2.3% | 185.1hPa | 2.5V | 08:13:04 | 01:38:56 | 00:00:00 | |
| BIOWL1-15 | 2026-09-03 08:11:13 | 52.37889 | 8.90112 | 125° | 130km/h | 12574m | -5.9m/s | -53°C | 2.3% | 184.9hPa | 2.6V | 08:13:04 | 01:38:55 | 00:00:00 | |
| SO1NDE-10 | 2026-09-03 08:11:13 | 52.37889 | 8.90112 | 125° | 122km/h | 12574m | -5.8m/s | -53.0°C | 5.0% | 184.9hPa | 2.7V | 00:00:00 | 01:38:55 | 00:00:00 | |
| SMARD9-15 | 2026-09-03 08:11:12 | 52.37908 | 8.90067 | 123° | 131km/h | 12580m | -5.9m/s | -52.9°C | 2.5% | 184.8hPa | 2.7V | 00:00:00 | 00:00:00 | 00:00:00 | |
| DM0DOS-11 | 2026-09-03 08:11:10 | 52.38032 | 8.89739 | 120° | 133km/h | 12621m | -6.1m/s | -52.5°C | 4.6% | 183.6hPa | 2.7V | 08:12:53 | 01:38:47 | 00:00:00 | |
| DL3AQ-11 | 2026-09-03 08:11:10 | 52.37962 | 8.89929 | 121° | 133km/h | 12597m | -5.9m/s | -52.8°C | 2.5% | 184.3hPa | 2.7V | 00:00:00 | 00:00:00 | 00:00:00 | |
| DL1XH-15 | 2026-09-03 08:11:09 | 52.38049 | 8.89691 | 120° | 133km/h | 12627m | -6.1m/s | -52.3°C | 4.6% | 183.4hPa | 2.7V | 08:12:54 | 01:38:46 | 00:00:00 | |
| DO2JMG | 2026-09-03 08:11:09 | 52.37962 | 8.89929 | 122° | 133km/h | 12597m | -5.9m/s | -52.8°C | 2.2% | 184.3hPa | 2.7V | 08:13:04 | 01:38:51 | 00:00:00 | |
| DF8AY-15 | 2026-09-03 08:11:09 | 52.37962 | 8.89929 | 122° | 126km/h | 12597m | -5.9m/s | -52.8°C | 4.9% | 184.2hPa | 2.7V | 00:00:00 | 01:38:51 | 00:00:00 | |
| DD8BA-10 | 2026-09-03 08:11:08 | 52.37980 | 8.89881 | 121° | 131km/h | 12603m | -5.7m/s | -52.8°C | 4.9% | 184.0hPa | 2.6V | 00:00:00 | 00:00:00 | 00:00:00 | |
| DL1XH1-15 | 2026-09-03 08:11:07 | 52.38083 | 8.89596 | 119° | 133km/h | 12639m | -6.6m/s | -52.2°C | 4.5% | 183.1hPa | 2.6V | 08:12:56 | 01:38:44 | 00:00:00 | |
| DL1XH-west | 2026-09-03 08:11:07 | 52.37997 | 8.89834 | 121° | 135km/h | 12609m | -5.8m/s | -52.8°C | 2.1% | 184hPa | 2.6V | 08:13:04 | 01:38:49 | 00:00:00 | |
| AA1-15 | 2026-09-03 08:11:05 | 52.38032 | 8.89739 | 121° | 133km/h | 12621m | -6.1m/s | -52.5°C | 2% | 183.6hPa | 2.7V | 08:13:04 | 01:38:47 | 00:00:00 | |
| DF8AY | 2026-09-03 08:11:03 | 52.38066 | 8.89643 | 120° | 133km/h | 12633m | -6.2m/s | -52.3°C | 2% | 183.2hPa | 2.6V | 08:13:04 | 01:38:45 | 00:00:00 | |
| HSKMA3-T | 2026-09-03 08:11:02 | 52.38083 | 8.89596 | 119° | 133km/h | 12639m | -6.6m/s | -52.2°C | 1.9% | 183.1hPa | 2.6V | 08:13:04 | 01:38:44 | 00:00:00 | |
| DO9LL-15 | 2026-09-03 08:11:02 | 52.38083 | 8.89596 | 120° | 117km/h | 12639m | -6.5m/s | -52.2°C | 4.5% | 183.1hPa | 2.6V | 00:00:00 | 01:38:44 | 00:00:00 | |
| DO2SHX-10 | 2026-09-03 08:11:01 | 52.38099 | 8.89548 | 119° | 130km/h | 12646m | -6.1m/s | -52.2°C | 4.6% | 182.9hPa | 2.6V | 00:00:00 | 01:38:43 | 00:00:00 | |
| DM0DOS-11 | 2026-09-03 08:11:00 | 52.38179 | 8.89268 | 113° | 117km/h | 12683m | -6.1m/s | -52.2°C | 4.5% | 181.8hPa | 2.6V | 08:13:03 | 01:38:37 | 00:00:00 | |
| DJ2DS-15 | 2026-09-03 08:11:00 | 52.38114 | 8.89500 | 117° | 111km/h | 12652m | -6.4m/s | -52.2°C | 4.5% | 182.7hPa | 2.7V | 00:00:00 | 01:38:42 | 00:00:00 | |
| DL1XH-15 | 2026-09-03 08:10:59 | 52.38191 | 8.89224 | 112° | 115km/h | 12689m | -6.4m/s | -52.2°C | 4.5% | 181.7hPa | 2.7V | 08:13:04 | 01:38:36 | 00:00:00 | |
| DO2JMG | 2026-09-03 08:10:58 | 52.38142 | 8.89405 | 115° | 124km/h | 12664m | -6.3m/s | -52.3°C | 2% | 182.4hPa | 2.6V | 08:13:04 | 01:38:40 | 00:00:00 | |
| DL1XH-west | 2026-09-03 08:10:56 | 52.38167 | 8.89313 | 113° | 119km/h | 12677m | -6.1m/s | -52.2°C | 1.9% | 182hPa | 2.6V | 08:13:04 | 01:38:38 | 00:00:00 | |
| DB0DAN | 2026-09-03 08:10:55 | 52.38179 | 8.89268 | 113° | 111km/h | 12683m | -6.1m/s | -52.2°C | 2.2% | 181.79hPa | 2.6V | 00:00:00 | 00:00:00 | 00:00:00 | |
| AA1-15 | 2026-09-03 08:10:54 | 52.38191 | 8.89224 | 113° | 115km/h | 12689m | -6.4m/s | -52.2°C | 1.9% | 181.7hPa | 2.7V | 08:13:04 | 01:38:36 | 00:00:00 | |
| DF8AY | 2026-09-03 08:10:53 | 52.38202 | 8.89180 | 113° | 113km/h | 12695m | -6.5m/s | -52.3°C | 1.9% | 181.5hPa | 2.7V | 08:13:55 | 01:38:35 | 00:00:00 | |
| BIOWL1-15 | 2026-09-03 08:10:52 | 52.38213 | 8.89137 | 113° | 111km/h | 12702m | -6.2m/s | -52.3°C | 2% | 181.3hPa | 2.6V | 08:13:55 | 01:38:34 | 00:00:00 | |
| HSKMA3-T | 2026-09-03 08:10:51 | 52.38224 | 8.89095 | 113° | 110km/h | 12708m | -6.3m/s | -52.4°C | 1.9% | 181.1hPa | 2.6V | 08:13:55 | 01:38:33 | 00:00:00 | |
| DO2SHX-10 | 2026-09-03 08:10:51 | 52.38224 | 8.89095 | 113° | 108km/h | 12708m | -6.2m/s | -52.3°C | 4.6% | 181.1hPa | 2.7V | 00:00:00 | 01:38:33 | 00:00:00 | |
| DJ2KF-10 | 2026-09-03 08:10:50 | 52.38234 | 8.89054 | 113° | 115km/h | 12714m | -6.0m/s | -52.4°C | 4.6% | 180.9hPa | 2.7V | 00:00:00 | 01:38:32 | 00:00:00 | |
| DL1XH-15 | 2026-09-03 08:10:49 | 52.38297 | 8.88812 | 113° | 104km/h | 12751m | -6.1m/s | -52.6°C | 4.6% | 179.9hPa | 2.7V | 08:13:14 | 01:38:26 | 00:00:00 | |
| DO2JMG | 2026-09-03 08:10:48 | 52.38255 | 8.88972 | 113° | 106km/h | 12727m | -6.3m/s | -52.5°C | 2% | 180.6hPa | 2.5V | 08:13:55 | 01:38:30 | 00:00:00 | |
| DL1XH-west | 2026-09-03 08:10:45 | 52.38286 | 8.88851 | 113° | 104km/h | 12745m | -6.2m/s | -52.6°C | 1.9% | 180.1hPa | 2.7V | 08:13:55 | 01:38:27 | 00:00:00 | |
| AA1-15 | 2026-09-03 08:10:44 | 52.38297 | 8.88812 | 114° | 104km/h | 12752m | -6.1m/s | -52.7°C | 1.9% | 179.9hPa | 2.7V | 08:13:55 | 01:38:26 | 00:00:00 | |
| DF8AY | 2026-09-03 08:10:42 | 52.38318 | 8.88735 | 115° | 102km/h | 12764m | -6m/s | -52.7°C | 1.9% | 179.6hPa | 2.6V | 08:13:55 | 01:38:24 | 00:00:00 | |
| SMARD9-15 | 2026-09-03 08:10:41 | 52.38340 | 8.88659 | 115° | 99km/h | 12776m | -6.0m/s | -52.8°C | 2.2% | 179.3hPa | 2.6V | 00:00:00 | 00:00:00 | 00:00:00 | |
| BIOWL1-15 | 2026-09-03 08:10:41 | 52.38329 | 8.88697 | 115° | 100km/h | 12770m | -6.1m/s | -52.8°C | 1.9% | 179.5hPa | 2.6V | 08:13:55 | 01:38:23 | 00:00:00 | |
| DM0DOS-11 | 2026-09-03 08:10:40 | 52.38391 | 8.88470 | 111° | 100km/h | 12807m | -6.3m/s | -52.9°C | 4.6% | 178.3hPa | 2.6V | 08:13:23 | 01:38:17 | 00:00:00 | |
| DB0DAN | 2026-09-03 08:10:40 | 52.38340 | 8.88659 | 115° | 95km/h | 12776m | -6m/s | -52.8°C | 2.2% | 179.28hPa | 2.6V | 00:00:00 | 00:00:00 | 00:00:00 | |
| DO2SHX-10 | 2026-09-03 08:10:40 | 52.38340 | 8.88659 | 116° | 100km/h | 12776m | -6.0m/s | -52.7°C | 4.5% | 179.2hPa | 2.6V | 00:00:00 | 01:38:22 | 00:00:00 | |
| DF7PN | 2026-09-03 08:10:39 | 52.38351 | 8.88622 | 114° | 99km/h | 12782m | -6.2m/s | 0°C | -1.0% | -1.0hPa | 2.6V | 00:00:00 | 00:00:00 | 00:00:00 | |
| DD8BA-10 | 2026-09-03 08:10:38 | 52.38361 | 8.88584 | 115° | 102km/h | 12788m | -6.4m/s | -52.8°C | 4.6% | 178.8hPa | 2.6V | 08:13:00 | 00:00:00 | 00:00:00 | |
| DL1XH1-15 | 2026-09-03 08:10:37 | 52.38418 | 8.88352 | 110° | 102km/h | 12826m | -6.2m/s | -53°C | 4.6% | 177.8hPa | 2.6V | 08:13:26 | 01:38:14 | 00:00:00 | |
| DO2JMG | 2026-09-03 08:10:37 | 52.38371 | 8.88546 | 114° | 100km/h | 12795m | -6.5m/s | -52.9°C | 1.7% | 178.7hPa | 2.6V | 08:13:55 | 01:38:19 | 00:00:00 | |
| DL1XH-west | 2026-09-03 08:10:35 | 52.38391 | 8.88470 | 112° | 100km/h | 12807m | -6.3m/s | -52.9°C | 1.7% | 178.3hPa | 2.6V | 08:13:55 | 01:38:17 | 00:00:00 | |
| GOEST3-10 | 2026-09-03 08:10:35 | 52.38391 | 8.88470 | 112° | 102km/h | 12807m | -6.2m/s | -52.9°C | 4.6% | 178.3hPa | 2.6V | 00:00:00 | 00:00:00 | 00:00:00 | |
| DL1NUX | 2026-09-03 08:10:34 | 52.38447 | 8.88232 | 113° | 104km/h | 12845m | -6.1m/s | -53.1°C | 4.6% | 177.3hPa | 2.6V | 08:13:29 | 01:38:11 | 00:00:00 | |
| AA1-15 | 2026-09-03 08:10:34 | 52.38400 | 8.88431 | 111° | 102km/h | 12814m | -6.3m/s | -53°C | 1.7% | 178.2hPa | 2.7V | 08:13:55 | 01:38:16 | 00:00:00 | |
| DF8AY | 2026-09-03 08:10:32 | 52.38418 | 8.88352 | 111° | 102km/h | 12826m | -6.2m/s | -53°C | 1.7% | 177.8hPa | 2.6V | 08:13:55 | 01:38:14 | 00:00:00 | |
| DO9LL-15 | 2026-09-03 08:10:32 | 52.38418 | 8.88352 | 111° | 117km/h | 12826m | -6.1m/s | -52.9°C | 4.6% | 177.8hPa | 2.6V | 00:00:00 | 01:38:14 | 00:00:00 | |
| DO2SHX-10 | 2026-09-03 08:10:31 | 52.38427 | 8.88312 | 111° | 104km/h | 12833m | -6.3m/s | -53.0°C | 4.6% | 177.7hPa | 2.6V | 00:00:00 | 01:38:13 | 00:00:00 | |
| DM0DOS-11 | 2026-09-03 08:10:30 | 52.38494 | 8.88074 | 118° | 110km/h | 12869m | -6m/s | -53.3°C | 4.6% | 176.6hPa | 2.6V | 08:13:33 | 01:38:07 | 00:00:00 | |
| BIOWL1-15 | 2026-09-03 08:10:30 | 52.38437 | 8.88272 | 112° | 104km/h | 12839m | -6.3m/s | -53.1°C | 1.7% | 177.5hPa | 2.6V | 08:13:55 | 01:38:12 | 00:00:00 | |
| EDDB2-11 | 2026-09-03 08:10:30 | 52.38447 | 8.88232 | 113° | 104km/h | 12845m | -6.1m/s | -53.1°C | 2.1% | 177.3hPa | 2.7V | 00:00:00 | 00:00:00 | 00:00:00 | |
| DL1XH-15 | 2026-09-03 08:10:29 | 52.38507 | 8.88034 | 117° | 110km/h | 12874m | -5.9m/s | -53.2°C | 4.5% | 176.5hPa | 2.7V | 08:13:34 | 01:38:06 | 00:00:00 | |
| DB0UT-7 | 2026-09-03 08:10:29 | 52.38447 | 8.88232 | 114° | 117km/h | 12845m | -6.0m/s | -53.1°C | 4.6% | 177.3hPa | 2.6V | 00:00:00 | 01:38:11 | 00:00:00 | |
| DD8BA-10 | 2026-09-03 08:10:28 | 52.38458 | 8.88193 | 116° | 110km/h | 12851m | -5.8m/s | -53.1°C | 4.6% | 177.1hPa | 2.6V | 00:00:00 | 00:00:00 | 00:00:00 | |
| DL1XH1-15 | 2026-09-03 08:10:27 | 52.38533 | 8.87953 | 117° | 111km/h | 12886m | -5.8m/s | -53.1°C | 4.5% | 176.2hPa | 2.6V | 08:13:36 | 01:38:04 | 00:00:00 | |
| DO2JMG | 2026-09-03 08:10:27 | 52.38469 | 8.88153 | 116° | 108km/h | 12857m | -5.9m/s | -53.2°C | 1.6% | 177hPa | 2.6V | 08:13:55 | 01:38:09 | 00:00:00 | |
| DB0DAN | 2026-09-03 08:10:25 | 52.38494 | 8.88074 | 118° | 104km/h | 12869m | -6m/s | -53.3°C | 2.1% | 176.65hPa | 2.6V | 00:00:00 | 00:00:00 | 00:00:00 | |
| DL1NUX | 2026-09-03 08:10:24 | 52.38574 | 8.87831 | 119° | 113km/h | 12905m | -6.2m/s | -53°C | 4.4% | 175.7hPa | 2.7V | 08:13:39 | 01:38:01 | 00:00:00 | |
| DL1XH-west | 2026-09-03 08:10:24 | 52.38507 | 8.88034 | 118° | 110km/h | 12874m | -5.9m/s | -53.2°C | 1.5% | 176.5hPa | 2.7V | 08:13:55 | 01:38:06 | 00:00:00 | |
| DF8AY | 2026-09-03 08:10:22 | 52.38534 | 8.87953 | 118° | 111km/h | 12886m | -5.8m/s | -53.1°C | 1.5% | 176.2hPa | 2.6V | 08:13:55 | 01:38:04 | 00:00:00 | |
| DO2SHX-10 | 2026-09-03 08:10:22 | 52.38534 | 8.87953 | 118° | 111km/h | 12887m | -5.8m/s | -53.1°C | 4.5% | 176.1hPa | 2.6V | 00:00:00 | 01:38:04 | 00:00:00 | |
| SONDE2-11 | 2026-09-03 08:10:21 | 52.38547 | 8.87912 | 118° | 110km/h | 12892m | -6.2m/s | -53.1°C | 2.0% | 176.1hPa | 2.6V | 00:00:00 | 00:00:00 | 00:00:00 | |
| DM0DOS-11 | 2026-09-03 08:10:20 | 52.38633 | 8.87669 | 121° | 117km/h | 12930m | -6.5m/s | -52.7°C | 4.4% | 175hPa | 2.6V | 08:13:43 | 01:37:57 | 00:00:00 | |
| DJ2DS-15 | 2026-09-03 08:10:20 | 52.38560 | 8.87872 | 119° | 120km/h | 12899m | -6.1m/s | -52.9°C | 4.3% | 175.8hPa | 2.6V | 08:13:00 | 01:38:02 | 00:00:00 | |
| DL1XH-15 | 2026-09-03 08:10:19 | 52.38649 | 8.87628 | 121° | 119km/h | 12937m | -6.4m/s | -52.7°C | 4.4% | 174.8hPa | 2.6V | 08:13:44 | 01:37:56 | 00:00:00 | |
| BIOWL1-15 | 2026-09-03 08:10:19 | 52.38574 | 8.87831 | 120° | 113km/h | 12905m | -6.2m/s | -53°C | 1.3% | 175.7hPa | 2.7V | 08:13:55 | 01:38:01 | 00:00:00 | |
| DO2JMG | 2026-09-03 08:10:16 | 52.38618 | 8.87710 | 121° | 115km/h | 12924m | -6.3m/s | -52.8°C | 1.4% | 175.2hPa | 2.6V | 08:13:55 | 01:37:58 | 00:00:00 | |
| DO2SHX-10 | 2026-09-03 08:10:16 | 52.38618 | 8.87710 | 122° | 117km/h | 12924m | -6.3m/s | -52.7°C | 4.4% | 175.2hPa | 2.6V | 00:00:00 | 01:37:58 | 00:00:00 | |
| GOEST3-10 | 2026-09-03 08:10:15 | 52.38633 | 8.87669 | 122° | 120km/h | 12931m | -6.5m/s | -52.7°C | 4.4% | 174.9hPa | 2.6V | 00:00:00 | 00:00:00 | 00:00:00 | |
| DL1NUX | 2026-09-03 08:10:14 | 52.38730 | 8.87414 | 121° | 122km/h | 12967m | -6.2m/s | -52.4°C | 4.3% | 173.9hPa | 2.6V | 08:13:49 | 01:37:51 | 00:00:00 | |
| DF8AY | 2026-09-03 08:10:13 | 52.38681 | 8.87543 | 122° | 122km/h | 12949m | -6.1m/s | -52.6°C | 1.4% | 174.5hPa | 2.7V | 08:13:55 | 01:37:54 | 00:00:00 | |
| AA1-15 | 2026-09-03 08:10:13 | 52.38665 | 8.87586 | 122° | 120km/h | 12943m | -6.2m/s | -52.6°C | 1.4% | 174.7hPa | 2.7V | 08:13:55 | 01:37:55 | 00:00:00 | |
| DO2SHX-10 | 2026-09-03 08:10:13 | 52.38665 | 8.87586 | 123° | 122km/h | 12943m | -6.2m/s | -52.6°C | 4.4% | 174.6hPa | 2.6V | 00:00:00 | 01:37:55 | 00:00:00 | |
| DJ2DS-15 | 2026-09-03 08:10:11 | 52.38714 | 8.87457 | 121° | 122km/h | 12962m | -5.9m/s | -52.4°C | 2.0% | 174.1hPa | 2.6V | 00:00:00 | 00:00:00 | 00:00:00 | |
| DM0DOS-11 | 2026-09-03 08:10:10 | 52.38794 | 8.87239 | 120° | 124km/h | 12992m | -6.1m/s | -52°C | 4.1% | 173.3hPa | 2.6V | 08:13:53 | 01:37:47 | 00:00:00 | |
| SMARD9-15 | 2026-09-03 08:10:10 | 52.38730 | 8.87414 | 121° | 122km/h | 12968m | -6.2m/s | -52.4°C | 1.9% | 174.0hPa | 2.6V | 00:00:00 | 00:00:00 | 00:00:00 | |
| DL1XH-15 | 2026-09-03 08:10:09 | 52.38810 | 8.87195 | 120° | 124km/h | 12999m | -6.3m/s | -51.9°C | 4.1% | 173.2hPa | 2.6V | 08:13:54 | 01:37:46 | 00:00:00 | |
| BIOWL1-15 | 2026-09-03 08:10:08 | 52.38746 | 8.87370 | 121° | 122km/h | 12974m | -6.1m/s | -52.3°C | 1.2% | 173.8hPa | 2.7V | 08:13:55 | 01:37:50 | 00:00:00 | |
| DO2JMG | 2026-09-03 08:10:06 | 52.38778 | 8.87283 | 121° | 122km/h | 12986m | -6.2m/s | -52.2°C | 1.3% | 173.5hPa | 2.7V | 08:13:55 | 01:37:48 | 00:00:00 | |
| DL1XH-west | 2026-09-03 08:10:03 | 52.38825 | 8.87151 | 120° | 124km/h | 13005m | -6.4m/s | -51.8°C | 1.1% | 172.9hPa | 2.6V | 08:13:55 | 01:37:45 | 00:00:00 | |
| AA1-15 | 2026-09-03 08:10:02 | 52.38841 | 8.87106 | 120° | 124km/h | 13011m | -6.3m/s | -51.8°C | 1.1% | 172.8hPa | 2.7V | 08:14:46 | 01:37:44 | 00:00:00 | |
| DF8AY | 2026-09-03 08:10:01 | 52.38857 | 8.87061 | 120° | 126km/h | 13018m | -6.7m/s | -51.7°C | 1.1% | 172.6hPa | 2.7V | 08:14:46 | 01:37:43 | 00:00:00 | |
| DO2SHX-10 | 2026-09-03 08:10:01 | 52.38857 | 8.87061 | 120° | 126km/h | 13018m | -6.6m/s | -51.7°C | 3.9% | 172.6hPa | 2.7V | 00:00:00 | 01:37:43 | 00:00:00 | |
| DJ2DS-15 | 2026-09-03 08:10:00 | 52.38872 | 8.87016 | 119° | 113km/h | 13025m | -6.6m/s | -51.6°C | 3.9% | 172.4hPa | 2.7V | 00:00:00 | 01:37:42 | 00:00:00 | |
| DL1XH-15 | 2026-09-03 08:09:59 | 52.38950 | 8.86739 | 109° | 119km/h | 13064m | -6.5m/s | -51.6°C | 4% | 171.4hPa | 2.7V | 08:14:04 | 01:37:36 | 00:00:00 | |
| BIOWL1-15 | 2026-09-03 08:09:58 | 52.38902 | 8.86925 | 116° | 124km/h | 13038m | -6.6m/s | -51.6°C | 1.1% | 172.1hPa | 2.6V | 08:14:46 | 01:37:40 | 00:00:00 | |
| HSKMA3-T | 2026-09-03 08:09:57 | 52.38915 | 8.86878 | 115° | 124km/h | 13044m | -6.6m/s | -51.6°C | 1.2% | 171.9hPa | 2.6V | 08:14:46 | 01:37:39 | 00:00:00 | |
| DO2JMG | 2026-09-03 08:09:55 | 52.38939 | 8.86785 | 111° | 120km/h | 13058m | -6.8m/s | -51.6°C | 1.2% | 171.6hPa | 2.7V | 08:14:46 | 01:37:37 | 00:00:00 | |
| DO2SHX-10 | 2026-09-03 08:09:55 | 52.38939 | 8.86785 | 112° | 119km/h | 13058m | -6.7m/s | -51.5°C | 4.0% | 171.5hPa | 2.7V | 00:00:00 | 01:37:37 | 00:00:00 | |
| DB0DAN | 2026-09-03 08:09:55 | 52.38939 | 8.86785 | 111° | 115km/h | 13058m | -6.8m/s | -51.6°C | 1.8% | 171.6hPa | 2.7V | 00:00:00 | 00:00:00 | 00:00:00 | |
| DL1NUX | 2026-09-03 08:09:54 | 52.38993 | 8.86517 | 106° | 108km/h | 13097m | -6.4m/s | -51.8°C | 4.1% | 170.5hPa | 2.7V | 08:14:09 | 01:37:31 | 00:00:00 | |
| DL1XH-west | 2026-09-03 08:09:53 | 52.38959 | 8.86693 | 109° | 115km/h | 13071m | -6.6m/s | -51.6°C | 1.2% | 171.2hPa | 2.7V | 08:14:46 | 01:37:35 | 00:00:00 | |
| AA1-15 | 2026-09-03 08:09:52 | 52.38969 | 8.86648 | 108° | 113km/h | 13077m | -6.6m/s | -51.6°C | 1.2% | 171.1hPa | 2.6V | 08:14:46 | 01:37:34 | 00:00:00 | |
| DF8AY | 2026-09-03 08:09:51 | 52.38977 | 8.86604 | 107° | 111km/h | 13084m | -6.4m/s | -51.7°C | 1.2% | 170.9hPa | 2.6V | 08:14:46 | 01:37:33 | 00:00:00 | |
| DM0DOS-11 | 2026-09-03 08:09:50 | 52.39023 | 8.86349 | 105° | 106km/h | 13122m | -6.5m/s | -52°C | 4.1% | 169.9hPa | 2.6V | 08:14:13 | 01:37:27 | 00:00:00 | |
| BIOWL1-15 | 2026-09-03 08:09:50 | 52.39001 | 8.86475 | 106° | 106km/h | 13103m | -6.3m/s | -51.8°C | 1.2% | 170.4hPa | 2.7V | 08:14:46 | 01:37:30 | 00:00:00 | |
| GOEST3-10 | 2026-09-03 08:09:50 | 52.38985 | 8.86560 | 107° | 106km/h | 13091m | -6.4m/s | -51.7°C | 4.1% | 170.7hPa | 2.7V | 00:00:00 | 01:37:32 | 00:00:00 | |
| DO2SHX-10 | 2026-09-03 08:09:49 | 52.38993 | 8.86517 | 107° | 106km/h | 13097m | -6.3m/s | -51.7°C | 4.1% | 170.5hPa | 2.7V | 00:00:00 | 01:37:31 | 00:00:00 | |
| DD8BA-10 | 2026-09-03 08:09:48 | 52.39001 | 8.86475 | 107° | 104km/h | 13103m | -6.3m/s | -51.7°C | 4.1% | 170.3hPa | 2.7V | 00:00:00 | 00:00:00 | 00:00:00 | |
| DL1XH1-15 | 2026-09-03 08:09:47 | 52.39043 | 8.86223 | 105° | 104km/h | 13142m | -6.8m/s | -52°C | 4.2% | 169.4hPa | 2.7V | 08:14:16 | 01:37:24 | 00:00:00 | |
| HSKMA3-T | 2026-09-03 08:09:47 | 52.39008 | 8.86433 | 106° | 106km/h | 13109m | -6.3m/s | -51.8°C | 1.2% | 170.2hPa | 2.6V | 08:14:46 | 01:37:29 | 00:00:00 | |
| DO2SHX-10 | 2026-09-03 08:09:46 | 52.39015 | 8.86391 | 107° | 106km/h | 13116m | -6.3m/s | -51.9°C | 4.2% | 170.0hPa | 2.6V | 00:00:00 | 01:37:28 | 00:00:00 | |
| GOEST3-10 | 2026-09-03 08:09:45 | 52.39023 | 8.86349 | 106° | 104km/h | 13122m | -6.5m/s | -51.9°C | 4.1% | 169.8hPa | 2.6V | 00:00:00 | 00:00:00 | 00:00:00 | |
| DL1NUX | 2026-09-03 08:09:44 | 52.39064 | 8.86104 | 107° | 97km/h | 13162m | -6.5m/s | -52.2°C | 4.3% | 168.8hPa | 2.6V | 08:14:19 | 01:37:21 | 00:00:00 | |
| DO2JMG | 2026-09-03 08:09:44 | 52.39030 | 8.86307 | 105° | 106km/h | 13129m | -6.6m/s | -52°C | 1.4% | 169.7hPa | 2.6V | 08:14:46 | 01:37:26 | 00:00:00 | |
| DL1XH-west | 2026-09-03 08:09:43 | 52.39037 | 8.86265 | 105° | 106km/h | 13136m | -6.9m/s | -52°C | 1.3% | 169.6hPa | 2.6V | 08:14:46 | 01:37:25 | 00:00:00 | |
| AA1-15 | 2026-09-03 08:09:42 | 52.39043 | 8.86223 | 105° | 104km/h | 13142m | -6.8m/s | -52°C | 1.3% | 169.4hPa | 2.7V | 08:14:46 | 01:37:24 | 00:00:00 | |
| DF8AY | 2026-09-03 08:09:40 | 52.39057 | 8.86143 | 106° | 99km/h | 13155m | -6.2m/s | -52.2°C | 1.4% | 168.9hPa | 2.7V | 08:14:46 | 01:37:22 | 00:00:00 | |
| DJ2DS-15 | 2026-09-03 08:09:40 | 52.39057 | 8.86143 | 107° | 102km/h | 13155m | -6.2m/s | -52.2°C | 4.3% | 168.9hPa | 2.6V | 00:00:00 | 01:37:22 | 00:00:00 | |
| SMARD9-15 | 2026-09-03 08:09:39 | 52.39071 | 8.86067 | 108° | 93km/h | 13168m | -6.7m/s | -52.3°C | 1.9% | 168.6hPa | 2.6V | 00:00:00 | 00:00:00 | 00:00:00 | |
| DD8BA-10 | 2026-09-03 08:09:38 | 52.39071 | 8.86067 | 109° | 97km/h | 13168m | -6.6m/s | -52.2°C | 4.3% | 168.6hPa | 2.6V | 00:00:00 | 00:00:00 | 00:00:00 | |
| DL1XH1-15 | 2026-09-03 08:09:37 | 52.39128 | 8.85854 | 118° | 97km/h | 13210m | -6.8m/s | -52.3°C | 4.2% | 167.5hPa | 2.6V | 08:14:26 | 01:37:14 | 00:00:00 | |
| BIOWL1-15 | 2026-09-03 08:09:37 | 52.39079 | 8.86030 | 110° | 93km/h | 13175m | -6.8m/s | -52.3°C | 1.5% | 168.5hPa | 2.6V | 08:14:46 | 01:37:19 | 00:00:00 | |
| HSKMA3-T | 2026-09-03 08:09:36 | 52.39087 | 8.85994 | 112° | 93km/h | 13182m | -7m/s | -52.3°C | 1.4% | 168.3hPa | 2.7V | 08:14:46 | 01:37:18 | 00:00:00 | |
| DJ2DS-15 | 2026-09-03 08:09:35 | 52.39096 | 8.85959 | 113° | 91km/h | 13189m | -6.9m/s | -52.3°C | 2.0% | 168.1hPa | 2.7V | 00:00:00 | 00:00:00 | 00:00:00 | |
| DL1NUX | 2026-09-03 08:09:34 | 52.39167 | 8.85748 | 123° | 104km/h | 13230m | -6.7m/s | -52°C | 4.1% | 167.1hPa | 2.7V | 08:14:29 | 01:37:11 | 00:00:00 | |
| DO2JMG | 2026-09-03 08:09:33 | 52.39116 | 8.85889 | 117° | 95km/h | 13203m | -7.2m/s | -52.3°C | 1.4% | 167.7hPa | 2.5V | 08:14:46 | 01:37:15 | 00:00:00 | |
| DL1XH-west | 2026-09-03 08:09:32 | 52.39128 | 8.85854 | 119° | 97km/h | 13210m | -6.8m/s | -52.3°C | 1.4% | 167.5hPa | 2.6V | 08:14:46 | 01:37:14 | 00:00:00 | |
| AA1-15 | 2026-09-03 08:09:31 | 52.39140 | 8.85819 | 120° | 99km/h | 13217m | -6.9m/s | -52.3°C | 1.3% | 167.3hPa | 2.6V | 08:14:46 | 01:37:13 | 00:00:00 | |
| DO2SHX-10 | 2026-09-03 08:09:31 | 52.39140 | 8.85819 | 121° | 102km/h | 13217m | -6.9m/s | -52.3°C | 4.2% | 167.3hPa | 2.7V | 00:00:00 | 01:37:13 | 00:00:00 | |
| MET0W-2 | 2026-09-03 08:09:30 | 52.39167 | 8.85748 | 123° | 104km/h | 13230m | -6.7m/s | -52.0°C | 1.9% | 167.1hPa | 2.7V | 00:00:00 | 00:00:00 | 00:00:00 | |
| DL1XH-15 | 2026-09-03 08:09:29 | 52.39243 | 8.85557 | 121° | 113km/h | 13263m | -6m/s | -52°C | 4.2% | 166.2hPa | 2.7V | 08:14:34 | 01:37:06 | 00:00:00 | |
| DF8AY | 2026-09-03 08:09:29 | 52.39167 | 8.85748 | 124° | 104km/h | 13230m | -6.7m/s | -52°C | 1.3% | 167.1hPa | 2.7V | 08:14:46 | 01:37:11 | 00:00:00 | |
| BIOWL1-15 | 2026-09-03 08:09:28 | 52.39213 | 8.85636 | 123° | 111km/h | 13250m | -6.6m/s | -51.9°C | 1.4% | 166.5hPa | 2.6V | 08:14:46 | 01:37:08 | 00:00:00 | |
| EDDB2-11 | 2026-09-03 08:09:28 | 52.39197 | 8.85674 | 123° | 110km/h | 13243m | -6.7m/s | -51.8°C | 1.9% | 166.7hPa | 2.6V | 00:00:00 | 00:00:00 | 00:00:00 | |
| DL1XH1-15 | 2026-09-03 08:09:27 | 52.39272 | 8.85475 | 118° | 113km/h | 13274m | -5.7m/s | -52.1°C | 4.3% | 165.9hPa | 2.6V | 08:14:36 | 01:37:04 | 00:00:00 | |
| HSKMA3-T | 2026-09-03 08:09:25 | 52.39228 | 8.85597 | 123° | 113km/h | 13257m | -6.2m/s | -51.9°C | 1.3% | 166.4hPa | 2.7V | 08:14:46 | 01:37:07 | 00:00:00 | |
| DO2JMG | 2026-09-03 08:09:22 | 52.39272 | 8.85475 | 118° | 113km/h | 13274m | -5.7m/s | -52.1°C | 1.4% | 165.9hPa | 2.6V | 08:14:46 | 01:37:04 | 00:00:00 | |
| DL1XH-west | 2026-09-03 08:09:21 | 52.39285 | 8.85434 | 117° | 113km/h | 13280m | -6.2m/s | -52°C | 1.4% | 165.8hPa | 2.6V | 08:14:46 | 01:37:03 | 00:00:00 | |
| AA1-15 | 2026-09-03 08:09:20 | 52.39298 | 8.85393 | 116° | 111km/h | 13287m | -6.4m/s | -51.9°C | 1.3% | 165.7hPa | 2.6V | 08:14:46 | 01:37:02 | 00:00:00 | |
| DF8AY | 2026-09-03 08:09:19 | 52.39310 | 8.85351 | 116° | 110km/h | 13293m | -6.4m/s | -51.9°C | 1.3% | 165.5hPa | 2.7V | 08:14:46 | 01:37:01 | 00:00:00 | |
| BIOWL1-15 | 2026-09-03 08:09:18 | 52.39344 | 8.85229 | 113° | 106km/h | 13313m | -6.8m/s | -51.9°C | 1.3% | 165hPa | 2.6V | 08:14:46 | 01:36:58 | 00:00:00 | |
| DD8BA-10 | 2026-09-03 08:09:18 | 52.39322 | 8.85310 | 115° | 100km/h | 13300m | -6.6m/s | -51.9°C | 4.2% | 165.3hPa | 2.6V | 00:00:00 | 00:00:00 | 00:00:00 | |
| DL1XH1-15 | 2026-09-03 08:09:17 | 52.39384 | 8.85072 | 111° | 99km/h | 13340m | -6.8m/s | -51.6°C | 4.1% | 164.3hPa | 2.6V | 08:14:46 | 01:36:54 | 00:00:00 | |
| HSKMA3-T | 2026-09-03 08:09:15 | 52.39355 | 8.85189 | 113° | 106km/h | 13320m | -6.9m/s | -51.8°C | 1.3% | 164.8hPa | 2.7V | 08:14:46 | 01:36:57 | 00:00:00 | |
| DL1XH-west | 2026-09-03 08:09:11 | 52.39392 | 8.85035 | 111° | 95km/h | 13347m | -6.7m/s | -51.6°C | 1.3% | 164.1hPa | 2.6V | 08:15:37 | 01:36:53 | 00:00:00 | |
| AA1-15 | 2026-09-03 08:09:10 | 52.39401 | 8.84999 | 111° | 91km/h | 13354m | -6.9m/s | -51.6°C | 1.2% | 163.9hPa | 2.7V | 08:15:37 | 01:36:52 | 00:00:00 | |
| DB0DAN | 2026-09-03 08:09:10 | 52.39401 | 8.84999 | 111° | 86km/h | 13354m | -6.9m/s | -51.6°C | 1.8% | 163.94hPa | 2.7V | 00:00:00 | 00:00:00 | 00:00:00 | |
| DF8AY | 2026-09-03 08:09:08 | 52.39416 | 8.84932 | 111° | 82km/h | 13368m | -6.6m/s | -51.6°C | 1.2% | 163.6hPa | 2.7V | 08:15:37 | 01:36:50 | 00:00:00 | |
| BIOWL1-15 | 2026-09-03 08:09:07 | 52.39439 | 8.84842 | 114° | 75km/h | 13388m | -6.7m/s | -51.6°C | 1.2% | 163hPa | 2.6V | 08:15:37 | 01:36:47 | 00:00:00 | |
| HSKMA3-T | 2026-09-03 08:09:04 | 52.39447 | 8.84814 | 116° | 73km/h | 13395m | -7m/s | -51.7°C | 1.2% | 162.9hPa | 2.7V | 08:15:37 | 01:36:46 | 00:00:00 | |
| DO2JMG | 2026-09-03 08:09:01 | 52.39474 | 8.84736 | 123° | 73km/h | 13415m | -6.5m/s | -51.9°C | 1.2% | 162.3hPa | 2.6V | 08:15:37 | 01:36:43 | 00:00:00 | |
| DO2SHX-10 | 2026-09-03 08:09:01 | 52.39473 | 8.84736 | 123° | 75km/h | 13415m | -6.4m/s | -51.8°C | 4.1% | 162.3hPa | 2.7V | 00:00:00 | 01:36:43 | 00:00:00 | |
| DM0DOS-11 | 2026-09-03 08:09:00 | 52.39547 | 8.84574 | 126° | 89km/h | 13454m | -6.7m/s | -51.9°C | 4% | 161.4hPa | 2.7V | 08:15:03 | 01:36:37 | 00:00:00 | |
| DL1XH-west | 2026-09-03 08:09:00 | 52.39484 | 8.84711 | 125° | 75km/h | 13422m | -6.6m/s | -51.9°C | 1.1% | 162.2hPa | 2.7V | 08:15:37 | 01:36:42 | 00:00:00 | |
| AA1-15 | 2026-09-03 08:08:59 | 52.39495 | 8.84685 | 126° | 78km/h | 13428m | -6.1m/s | -52°C | 1.2% | 162hPa | 2.7V | 08:15:37 | 01:36:41 | 00:00:00 | |
| DF8AY | 2026-09-03 08:08:58 | 52.39507 | 8.84659 | 127° | 80km/h | 13434m | -6.2m/s | -52°C | 1.1% | 161.8hPa | 2.6V | 08:15:37 | 01:36:40 | 00:00:00 | |
| DO2SHX-10 | 2026-09-03 08:08:58 | 52.39507 | 8.84659 | 128° | 84km/h | 13434m | -6.2m/s | -51.9°C | 4.0% | 161.8hPa | 2.6V | 08:15:00 | 01:36:40 | 00:00:00 | |
| DL1XH1-15 | 2026-09-03 08:08:57 | 52.39588 | 8.84480 | 124° | 97km/h | 13474m | -7m/s | -51.9°C | 4.1% | 160.9hPa | 2.6V | 08:15:06 | 01:36:34 | 00:00:00 | |
| BIOWL1-15 | 2026-09-03 08:08:57 | 52.39547 | 8.84574 | 127° | 89km/h | 13454m | -6.7m/s | -51.9°C | 1.2% | 161.4hPa | 2.7V | 08:15:37 | 01:36:37 | 00:00:00 | |
| HSKMA3-T | 2026-09-03 08:08:54 | 52.39561 | 8.84544 | 127° | 93km/h | 13461m | -6.7m/s | -51.9°C | 1.2% | 161.3hPa | 2.7V | 08:15:37 | 01:36:36 | 00:00:00 | |
| DF5WG-10 | 2026-09-03 08:08:53 | 52.39574 | 8.84513 | 126° | 102km/h | 13467m | -6.9m/s | -51.8°C | 4.1% | 161.0hPa | 2.6V | 00:00:00 | 01:36:35 | 00:00:00 | |
| DO2SHX-10 | 2026-09-03 08:08:52 | 52.39588 | 8.84480 | 125° | 99km/h | 13474m | -6.9m/s | -51.8°C | 4.1% | 160.8hPa | 2.6V | 00:00:00 | 01:36:34 | 00:00:00 | |
| DF4FW | 2026-09-03 08:08:51 | 52.39588 | 8.84480 | 125° | 97km/h | 13474m | -7.0m/s | -51.9°C | 1.8% | 160.9hPa | 2.6V | 00:00:00 | 00:00:00 | 00:00:00 | |
| DM0DOS-11 | 2026-09-03 08:08:50 | 52.39673 | 8.84216 | 112° | 108km/h | 13522m | -6.8m/s | -51.9°C | 3.9% | 159.6hPa | 2.6V | 08:15:13 | 01:36:27 | 00:00:00 | |
| DO2JMG | 2026-09-03 08:08:50 | 52.39615 | 8.84411 | 120° | 102km/h | 13488m | -6.8m/s | -51.9°C | 1.3% | 160.5hPa | 2.6V | 08:15:37 | 01:36:32 | 00:00:00 | |
| DL1XH-west | 2026-09-03 08:08:49 | 52.39628 | 8.84374 | 119° | 104km/h | 13495m | -6.5m/s | -51.9°C | 1.2% | 160.4hPa | 2.7V | 08:15:37 | 01:36:31 | 00:00:00 | |
| DB0NH | 2026-09-03 08:08:49 | 52.39628 | 8.84374 | 119° | 97km/h | 13495m | -6.4m/s | -51.8°C | 4.1% | 160.4hPa | 2.7V | 00:00:00 | 01:36:31 | 00:00:00 | |
| DD8BA-10 | 2026-09-03 08:08:48 | 52.39640 | 8.84336 | 117° | 104km/h | 13502m | -6.6m/s | -51.8°C | 4.1% | 160.2hPa | 2.7V | 00:00:00 | 00:00:00 | 00:00:00 | |
| DL1XH1-15 | 2026-09-03 08:08:47 | 52.39701 | 8.84093 | 108° | 102km/h | 13542m | -6.5m/s | -52.1°C | 4% | 159.2hPa | 2.7V | 08:15:16 | 01:36:24 | 00:00:00 | |
| DF8AY | 2026-09-03 08:08:47 | 52.39651 | 8.84297 | 115° | 106km/h | 13508m | -6.8m/s | -51.9°C | 1.2% | 160hPa | 2.6V | 08:15:37 | 01:36:29 | 00:00:00 | |
| DO2SHX-10 | 2026-09-03 08:08:46 | 52.39662 | 8.84256 | 114° | 108km/h | 13515m | -6.8m/s | -51.9°C | 4.0% | 159.8hPa | 2.6V | 00:00:00 | 01:36:28 | 00:00:00 | |
| GOEST3-10 | 2026-09-03 08:08:45 | 52.39673 | 8.84216 | 113° | 104km/h | 13522m | -6.8m/s | -51.9°C | 3.9% | 159.6hPa | 2.6V | 00:00:00 | 00:00:00 | 00:00:00 | |
| DL1NUX | 2026-09-03 08:08:44 | 52.39724 | 8.83976 | 107° | 95km/h | 13561m | -6m/s | -52.2°C | 4.1% | 158.8hPa | 2.6V | 08:15:19 | 01:36:21 | 00:00:00 | |
| BIOWL1-15 | 2026-09-03 08:08:44 | 52.39683 | 8.84175 | 111° | 106km/h | 13529m | -6.6m/s | -52.1°C | 1.2% | 159.5hPa | 2.7V | 08:15:37 | 01:36:26 | 00:00:00 | |
| DO2SHX-10 | 2026-09-03 08:08:43 | 52.39692 | 8.84134 | 110° | 102km/h | 13536m | -6.8m/s | -52.0°C | 3.9% | 159.3hPa | 2.6V | 00:00:00 | 01:36:25 | 00:00:00 | |
| EDDB2-12 | 2026-09-03 08:08:42 | 52.39701 | 8.84093 | 108° | 102km/h | 13542m | -6.5m/s | -52.1°C | 1.7% | 159.2hPa | 2.6V | 00:00:00 | 00:00:00 | 00:00:00 | |
| DL8OAI-8 | 2026-09-03 08:08:41 | 52.39701 | 8.84093 | 110° | 104km/h | 13542m | -6.5m/s | -52.1°C | 1.8% | 159.2hPa | 2.6V | 08:15:00 | 00:00:00 | 00:00:00 | |
| DM0DOS-11 | 2026-09-03 08:08:40 | 52.39751 | 8.83835 | 108° | 84km/h | 13582m | -5.3m/s | -52.4°C | 4.1% | 158.2hPa | 2.6V | 08:15:23 | 01:36:17 | 00:00:00 | |
| DB0DAN | 2026-09-03 08:08:40 | 52.39717 | 8.84014 | 107° | 93km/h | 13555m | -6m/s | -52.3°C | 1.8% | 158.92hPa | 2.6V | 00:00:00 | 00:00:00 | 00:00:00 | |
| DL1XH-15 | 2026-09-03 08:08:39 | 52.39758 | 8.83802 | 109° | 84km/h | 13588m | -6.5m/s | -52.4°C | 4.2% | 158.1hPa | 2.6V | 08:15:24 | 01:36:16 | 00:00:00 | |
| DL1XH-west | 2026-09-03 08:08:39 | 52.39724 | 8.83976 | 107° | 95km/h | 13561m | -6m/s | -52.2°C | 1.2% | 158.8hPa | 2.6V | 08:15:37 | 01:36:21 | 00:00:00 | |
| AA1-15 | 2026-09-03 08:08:38 | 52.39731 | 8.83939 | 107° | 93km/h | 13567m | -5.2m/s | -52.3°C | 1.2% | 158.6hPa | 2.7V | 08:15:37 | 01:36:20 | 00:00:00 | |
| DF8AY | 2026-09-03 08:08:36 | 52.39744 | 8.83868 | 108° | 88km/h | 13577m | -5.4m/s | -52.4°C | 1.2% | 158.4hPa | 2.7V | 08:15:37 | 01:36:18 | 00:00:00 | |
| BIOWL1-15 | 2026-09-03 08:08:35 | 52.39766 | 8.83769 | 112° | 84km/h | 13595m | -6.3m/s | -52.4°C | 1.3% | 157.9hPa | 2.6V | 08:15:37 | 01:36:15 | 00:00:00 | |
| HSKMA3-T | 2026-09-03 08:08:34 | 52.39758 | 8.83802 | 110° | 84km/h | 13588m | -6.5m/s | -52.4°C | 1.3% | 158.1hPa | 2.6V | 08:15:37 | 01:36:16 | 00:00:00 | |
| DL1NUX | 2026-09-03 08:08:34 | 52.39800 | 8.83637 | 114° | 91km/h | 13618m | -5.5m/s | -52.5°C | 4.2% | 157.3hPa | 2.7V | 08:15:29 | 01:36:11 | 00:00:00 | |
| DO2SHX-10 | 2026-09-03 08:08:34 | 52.39758 | 8.83801 | 110° | 84km/h | 13588m | -6.4m/s | -52.3°C | 4.2% | 158.1hPa | 2.6V | 00:00:00 | 01:36:16 | 00:00:00 | |
| DL8DAS-14 | 2026-09-03 08:08:33 | 52.39766 | 8.83769 | 111° | 84km/h | 13595m | -6.3m/s | -52.4°C | 1.9% | 157.9hPa | 2.6V | 00:00:00 | 00:00:00 | 00:00:00 | |
| DF5WG-10 | 2026-09-03 08:08:32 | 52.39774 | 8.83737 | 113° | 95km/h | 13601m | -6.0m/s | -52.4°C | 4.2% | 157.7hPa | 2.6V | 00:00:00 | 01:36:14 | 00:00:00 | |
| DO2SHX-10 | 2026-09-03 08:08:31 | 52.39782 | 8.83704 | 113° | 89km/h | 13607m | -5.5m/s | -52.4°C | 4.2% | 157.6hPa | 2.7V | 08:15:00 | 01:36:13 | 00:00:00 | |
| DM0DOS-11 | 2026-09-03 08:08:30 | 52.39839 | 8.83492 | 113° | 99km/h | 13641m | -5.3m/s | -52.6°C | 4.2% | 156.8hPa | 2.7V | 08:15:33 | 01:36:07 | 00:00:00 | |
| DJ2KF-10 | 2026-09-03 08:08:30 | 52.39791 | 8.83671 | 114° | 102km/h | 13613m | -5.7m/s | -52.4°C | 4.2% | 157.4hPa | 2.7V | 08:15:00 | 01:36:12 | 00:00:00 | |
| DL1XH-15 | 2026-09-03 08:08:29 | 52.39849 | 8.83455 | 114° | 99km/h | 13646m | -5.5m/s | -52.7°C | 4.1% | 156.6hPa | 2.7V | 08:15:34 | 01:36:06 | 00:00:00 | |
| DL1XH-west | 2026-09-03 08:08:29 | 52.39800 | 8.83637 | 114° | 91km/h | 13618m | -5.5m/s | -52.5°C | 1.3% | 157.3hPa | 2.7V | 08:15:37 | 01:36:11 | 00:00:00 | |
| AA1-15 | 2026-09-03 08:08:28 | 52.39810 | 8.83602 | 114° | 95km/h | 13624m | -5.7m/s | -52.5°C | 1.3% | 157.2hPa | 2.6V | 08:15:37 | 01:36:10 | 00:00:00 | |
| DF8AY | 2026-09-03 08:08:26 | 52.39829 | 8.83529 | 113° | 97km/h | 13636m | -5.9m/s | -52.7°C | 1.3% | 156.9hPa | 2.6V | 08:15:37 | 01:36:08 | 00:00:00 | |
| DO2SHX-10 | 2026-09-03 08:08:25 | 52.39839 | 8.83492 | 114° | 99km/h | 13641m | -5.3m/s | -52.6°C | 4.2% | 156.7hPa | 2.7V | 00:00:00 | 01:36:07 | 00:00:00 | |
| DL1NUX | 2026-09-03 08:08:24 | 52.39904 | 8.83266 | 116° | 106km/h | 13675m | -5.6m/s | -52.7°C | 4.3% | 155.9hPa | 2.7V | 08:15:39 | 01:36:01 | 00:00:00 | |
| HSKMA3-T | 2026-09-03 08:08:23 | 52.39860 | 8.83418 | 115° | 99km/h | 13652m | -6.3m/s | -52.8°C | 1.3% | 156.5hPa | 2.7V | 08:15:37 | 01:36:05 | 00:00:00 | |
| BIOWL1-15 | 2026-09-03 08:08:22 | 52.39870 | 8.83380 | 116° | 100km/h | 13658m | -5.7m/s | -52.7°C | 1.3% | 156.3hPa | 2.6V | 08:15:37 | 01:36:04 | 00:00:00 | |
| DO2SHX-10 | 2026-09-03 08:08:22 | 52.39870 | 8.83380 | 116° | 102km/h | 13658m | -5.7m/s | -52.7°C | 4.2% | 156.3hPa | 2.6V | 00:00:00 | 01:36:04 | 00:00:00 | |
| DL8OAI-8 | 2026-09-03 08:08:21 | 52.39870 | 8.83380 | 117° | 100km/h | 13658m | -5.7m/s | -52.7°C | 1.9% | 156.3hPa | 2.6V | 08:15:00 | 00:00:00 | 00:00:00 | |
| DM0DOS-11 | 2026-09-03 08:08:20 | 52.39951 | 8.83102 | 112° | 113km/h | 13700m | -6.6m/s | -52.5°C | 4.3% | 155.4hPa | 2.6V | 08:15:43 | 01:35:57 | 00:00:00 | |
| DL1XH-15 | 2026-09-03 08:08:19 | 52.39962 | 8.83058 | 111° | 115km/h | 13706m | -6m/s | -52.6°C | 4.3% | 155.2hPa | 2.7V | 08:15:44 | 01:35:56 | 00:00:00 | |
| DL1XH-west | 2026-09-03 08:08:18 | 52.39916 | 8.83226 | 116° | 108km/h | 13682m | -6.1m/s | -52.7°C | 1.5% | 155.7hPa | 2.7V | 08:16:28 | 01:36:00 | 00:00:00 | |
| AA1-15 | 2026-09-03 08:08:17 | 52.39928 | 8.83186 | 115° | 110km/h | 13688m | -6m/s | -52.6°C | 1.5% | 155.7hPa | 2.6V | 08:16:28 | 01:35:59 | 00:00:00 | |
| DF8AY | 2026-09-03 08:08:15 | 52.39951 | 8.83102 | 113° | 113km/h | 13700m | -6.6m/s | -52.5°C | 1.4% | 155.4hPa | 2.6V | 08:16:28 | 01:35:57 | 00:00:00 | |
| HSKMA3-T | 2026-09-03 08:08:13 | 52.39972 | 8.83013 | 110° | 117km/h | 13712m | -6.4m/s | -52.7°C | 1.5% | 155hPa | 2.7V | 08:16:28 | 01:35:55 | 00:00:00 | |
| BIOWL1-15 | 2026-09-03 08:08:12 | 52.39982 | 8.82967 | 108° | 117km/h | 13718m | -6.1m/s | -52.6°C | 1.5% | 154.8hPa | 2.7V | 08:16:28 | 01:35:54 | 00:00:00 | |
| DO2SHX-10 | 2026-09-03 08:08:12 | 52.39982 | 8.82967 | 108° | 115km/h | 13718m | -6.1m/s | -52.6°C | 4.3% | 154.8hPa | 2.7V | 00:00:00 | 01:35:54 | 00:00:00 | |
| BIOWL9-15 | 2026-09-03 08:08:11 | 52.39990 | 8.82921 | 104° | 115km/h | 13725m | -6.0m/s | -52.7°C | 1.9% | 154.8hPa | 2.7V | 00:00:00 | 00:00:00 | 00:00:00 | |
| GOEST3-10 | 2026-09-03 08:08:10 | 52.39997 | 8.82875 | 103° | 104km/h | 13731m | -5.9m/s | -52.6°C | 4.3% | 154.5hPa | 2.7V | 00:00:00 | 01:35:52 | 00:00:00 | |
| DL1XH-15 | 2026-09-03 08:08:09 | 52.40031 | 8.82633 | 108° | 89km/h | 13768m | -6.4m/s | -52.7°C | 4.2% | 153.7hPa | 2.7V | 08:15:54 | 01:35:46 | 00:00:00 | |
| DO2JMG | 2026-09-03 08:08:08 | 52.40008 | 8.82787 | 101° | 104km/h | 13743m | -6.3m/s | -52.6°C | 1.5% | 154.3hPa | 2.7V | 08:16:28 | 01:35:50 | 00:00:00 | |
| DL1XH-west | 2026-09-03 08:08:07 | 52.40013 | 8.82746 | 102° | 100km/h | 13750m | -6m/s | -52.7°C | 1.5% | 154.1hPa | 2.7V | 08:16:28 | 01:35:49 | 00:00:00 | |
| DF8AY | 2026-09-03 08:08:05 | 52.40024 | 8.82669 | 105° | 91km/h | 13762m | -6.2m/s | -52.7°C | 1.4% | 153.8hPa | 2.6V | 08:16:28 | 01:35:47 | 00:00:00 | |
| HSKMA3-T | 2026-09-03 08:08:02 | 52.40047 | 8.82564 | 113° | 91km/h | 13781m | -6.6m/s | -52.8°C | 1.5% | 153.4hPa | 2.6V | 08:16:28 | 01:35:44 | 00:00:00 | |
| BIOWL1-15 | 2026-09-03 08:08:01 | 52.40057 | 8.82529 | 116° | 95km/h | 13788m | -6.7m/s | -52.8°C | 1.5% | 153.3hPa | 2.6V | 08:16:28 | 01:35:43 | 00:00:00 | |
| DM0DOS-11 | 2026-09-03 08:08:00 | 52.40131 | 8.82293 | 114° | 117km/h | 13825m | -6.3m/s | -52.8°C | 4.4% | 152.4hPa | 2.6V | 08:16:03 | 01:35:37 | 00:00:00 | |
| DL1XH-west | 2026-09-03 08:07:57 | 52.40105 | 8.82378 | 118° | 111km/h | 13813m | -5.5m/s | -52.9°C | 1.6% | 152.6hPa | 2.7V | 08:16:28 | 01:35:39 | 00:00:00 | |
| AA1-15 | 2026-09-03 08:07:56 | 52.40118 | 8.82337 | 117° | 115km/h | 13819m | -6.2m/s | -52.8°C | 1.5% | 152.5hPa | 2.6V | 08:16:28 | 01:35:38 | 00:00:00 | |
| DF8AY | 2026-09-03 08:07:54 | 52.40143 | 8.82249 | 113° | 119km/h | 13831m | -5.8m/s | -52.8°C | 1.5% | 152.2hPa | 2.6V | 08:16:28 | 01:35:36 | 00:00:00 | |
| HSKMA3-T | 2026-09-03 08:07:52 | 52.40165 | 8.82158 | 110° | 117km/h | 13844m | -5.7m/s | -52.9°C | 1.6% | 151.9hPa | 2.7V | 08:16:28 | 01:35:34 | 00:00:00 | |
| BIOWL1-15 | 2026-09-03 08:07:50 | 52.40183 | 8.82068 | 107° | 111km/h | 13856m | -6.3m/s | -52.9°C | 1.6% | 151.7hPa | 2.6V | 08:16:28 | 01:35:32 | 00:00:00 | |
| DO2JMG | 2026-09-03 08:07:47 | 52.40205 | 8.81941 | 107° | 102km/h | 13875m | -5.8m/s | -53°C | 1.6% | 151.2hPa | 2.6V | 08:16:28 | 01:35:29 | 00:00:00 | |
| DL1XH-west | 2026-09-03 08:07:46 | 52.40213 | 8.81901 | 108° | 97km/h | 13881m | -6m/s | -53°C | 1.6% | 151hPa | 2.6V | 08:16:28 | 01:35:28 | 00:00:00 | |
| AA1-15 | 2026-09-03 08:07:45 | 52.40221 | 8.81863 | 109° | 95km/h | 13887m | -6.3m/s | -53°C | 1.6% | 151hPa | 2.6V | 08:16:28 | 01:35:27 | 00:00:00 | |
| DD1CC8 | 2026-09-03 08:07:45 | 52.40221 | 8.81863 | 108° | 95km/h | 13887m | -6.3m/s | -53.0°C | 2.0% | 151.0hPa | 2.7V | 00:00:00 | 00:00:00 | 00:00:00 | |
| DF8AY | 2026-09-03 08:07:44 | 52.40229 | 8.81826 | 111° | 95km/h | 13893m | -6.3m/s | -53.1°C | 1.6% | 150.7hPa | 2.7V | 08:16:28 | 01:35:26 | 00:00:00 | |
| HSKMA3-T | 2026-09-03 08:07:41 | 52.40256 | 8.81721 | 116° | 93km/h | 13912m | -6.6m/s | -53.1°C | 1.6% | 150.3hPa | 2.6V | 08:16:28 | 01:35:23 | 00:00:00 | |
| BIOWL1-15 | 2026-09-03 08:07:41 | 52.40278 | 8.81652 | 118° | 93km/h | 13925m | -6.2m/s | -53.1°C | 1.6% | 150hPa | 2.6V | 08:16:28 | 01:35:21 | 00:00:00 | |
| DM0DOS-11 | 2026-09-03 08:07:40 | 52.40321 | 8.81518 | 116° | 89km/h | 13949m | -6.4m/s | -53.1°C | 4.5% | 149.4hPa | 2.6V | 08:16:23 | 01:35:17 | 00:00:00 | |
| DB0DAN | 2026-09-03 08:07:40 | 52.40267 | 8.81686 | 117° | 89km/h | 13918m | -6.6m/s | -53.1°C | 2% | 150.11hPa | 2.6V | 00:00:00 | 00:00:00 | 00:00:00 | |
| DO2SHX-10 | 2026-09-03 08:07:39 | 52.40278 | 8.81652 | 119° | 93km/h | 13925m | -6.2m/s | -53.1°C | 4.5% | 149.9hPa | 2.7V | 00:00:00 | 01:35:21 | 00:00:00 | |
| DD8BA-10 | 2026-09-03 08:07:38 | 52.40289 | 8.81618 | 119° | 89km/h | 13931m | -6.3m/s | -53.1°C | 4.5% | 149.8hPa | 2.7V | 08:16:00 | 00:00:00 | 00:00:00 | |
| DL1XH1-15 | 2026-09-03 08:07:37 | 52.40348 | 8.81419 | 111° | 86km/h | 13969m | -7.2m/s | -53.1°C | 4.4% | 149hPa | 2.6V | 08:16:26 | 01:35:14 | 00:00:00 | |
| DO2JMG | 2026-09-03 08:07:37 | 52.40300 | 8.81584 | 118° | 91km/h | 13937m | -6.4m/s | -53.1°C | 1.6% | 149.7hPa | 2.7V | 08:16:28 | 01:35:19 | 00:00:00 | |
| DL1XH-west | 2026-09-03 08:07:35 | 52.40321 | 8.81518 | 117° | 89km/h | 13949m | -6.4m/s | -53.1°C | 1.7% | 149.4hPa | 2.6V | 08:16:28 | 01:35:17 | 00:00:00 | |
| AA1-15 | 2026-09-03 08:07:34 | 52.40331 | 8.81485 | 114° | 88km/h | 13956m | -6m/s | -53.1°C | 1.7% | 149.3hPa | 2.7V | 08:16:28 | 01:35:16 | 00:00:00 | |
| BIOWL1-15 | 2026-09-03 08:07:31 | 52.40370 | 8.81317 | 107° | 89km/h | 13992m | -7.5m/s | -53°C | 1.6% | 148.5hPa | 2.7V | 08:17:19 | 01:35:11 | 00:00:00 | |
| DM0DOS-11 | 2026-09-03 08:07:30 | 52.40397 | 8.81169 | 107° | 99km/h | 14021m | -7.2m/s | -53.2°C | 4.5% | 147.8hPa | 2.6V | 08:16:33 | 01:35:07 | 00:00:00 | |
| HSKMA3-T | 2026-09-03 08:07:30 | 52.40363 | 8.81352 | 109° | 88km/h | 13984m | -7.7m/s | -53°C | 1.5% | 148.6hPa | 2.6V | 08:16:28 | 01:35:12 | 00:00:00 | |
| DO2SHX-10 | 2026-09-03 08:07:30 | 52.40363 | 8.81352 | 109° | 89km/h | 13984m | -7.7m/s | -53.0°C | 4.4% | 148.6hPa | 2.7V | 00:00:00 | 01:35:12 | 00:00:00 | |
| DB0UT-7 | 2026-09-03 08:07:29 | 52.40370 | 8.81317 | 108° | 93km/h | 13992m | -7.5m/s | -53.0°C | 4.4% | 148.5hPa | 2.7V | 00:00:00 | 01:35:11 | 00:00:00 | |
| DD8BA-10 | 2026-09-03 08:07:28 | 52.40376 | 8.81282 | 107° | 100km/h | 14000m | -7.5m/s | -53.0°C | 4.4% | 148.3hPa | 2.7V | 00:00:00 | 00:00:00 | 00:00:00 | |
| DL1XH1-15 | 2026-09-03 08:07:27 | 52.40422 | 8.81049 | 110° | 104km/h | 14044m | -7.4m/s | -53.1°C | 4.5% | 147.3hPa | 2.7V | 08:16:36 | 01:35:04 | 00:00:00 | |
| DO2JMG | 2026-09-03 08:07:27 | 52.40383 | 8.81245 | 107° | 95km/h | 14007m | -7.3m/s | -53.1°C | 1.6% | 148.1hPa | 2.7V | 08:17:19 | 01:35:09 | 00:00:00 | |
| DB0DAN | 2026-09-03 08:07:25 | 52.40397 | 8.81169 | 108° | 95km/h | 14022m | -7.2m/s | -53.2°C | 2% | 147.8hPa | 2.6V | 00:00:00 | 00:00:00 | 00:00:00 | |
| DL1XH-west | 2026-09-03 08:07:24 | 52.40405 | 8.81130 | 108° | 100km/h | 14029m | -7.7m/s | -53.2°C | 1.6% | 147.7hPa | 2.6V | 08:17:19 | 01:35:06 | 00:00:00 | |
| DL1NUX | 2026-09-03 08:07:24 | 52.40453 | 8.80931 | 114° | 104km/h | 14067m | -7.5m/s | -53°C | 4.4% | 146.8hPa | 2.7V | 08:16:39 | 01:35:01 | 00:00:00 | |
| AA1-15 | 2026-09-03 08:07:23 | 52.40414 | 8.81090 | 109° | 104km/h | 14037m | -7.9m/s | -53.2°C | 1.6% | 147.5hPa | 2.7V | 08:17:19 | 01:35:05 | 00:00:00 | |
| DL4XJ-10 | 2026-09-03 08:07:23 | 52.40413 | 8.81090 | 110° | 97km/h | 14037m | -7.8m/s | -52.1°C | 0% | 0hPa | 2.6V | 00:00:00 | 00:00:00 | 00:00:00 | |
| MET0W-2 | 2026-09-03 08:07:22 | 52.40432 | 8.81010 | 111° | 102km/h | 14052m | -7.7m/s | -53.1°C | 2.0% | 147.1hPa | 2.6V | 00:00:00 | 00:00:00 | 00:00:00 | |
| DO2SHX-10 | 2026-09-03 08:07:21 | 52.40432 | 8.81010 | 112° | 104km/h | 14052m | -7.6m/s | -53.0°C | 4.5% | 147.1hPa | 2.6V | 00:00:00 | 01:35:03 | 00:00:00 | |
| DM0DOS-11 | 2026-09-03 08:07:20 | 52.40498 | 8.80778 | 117° | 102km/h | 14098m | -7.7m/s | -53°C | 4.5% | 146.1hPa | 2.6V | 08:16:43 | 01:34:57 | 00:00:00 | |
| HTAHTA | 2026-09-03 08:07:20 | 52.40453 | 8.80931 | 114° | 104km/h | 14067m | -7.6m/s | -53.0°C | 2.0% | 146.8hPa | 2.7V | 00:00:00 | 00:00:00 | 00:00:00 | |
| DL1XH-15 | 2026-09-03 08:07:19 | 52.40510 | 8.80741 | 118° | 100km/h | 14105m | -7.6m/s | -53°C | 4.5% | 145.9hPa | 2.7V | 08:16:44 | 01:34:56 | 00:00:00 | |
| BIOWL1-15 | 2026-09-03 08:07:19 | 52.40453 | 8.80931 | 115° | 104km/h | 14067m | -7.6m/s | -53°C | 1.6% | 146.8hPa | 2.7V | 08:17:19 | 01:35:01 | 00:00:00 | |
| DB0NH | 2026-09-03 08:07:19 | 52.40453 | 8.80931 | 115° | 88km/h | 14067m | -7.5m/s | -53.0°C | 4.4% | 146.8hPa | 2.7V | 00:00:00 | 01:35:01 | 00:00:00 | |
| DD8BA-10 | 2026-09-03 08:07:18 | 52.40464 | 8.80892 | 117° | 99km/h | 14075m | -7.5m/s | -52.9°C | 4.4% | 146.5hPa | 2.7V | 00:00:00 | 00:00:00 | 00:00:00 | |
| DL1XH1-15 | 2026-09-03 08:07:17 | 52.40534 | 8.80671 | 119° | 97km/h | 14120m | -7.4m/s | -53.1°C | 4.5% | 145.6hPa | 2.7V | 08:16:46 | 01:34:54 | 00:00:00 | |
| DO2JMG | 2026-09-03 08:07:16 | 52.40487 | 8.80816 | 116° | 102km/h | 14090m | -7.7m/s | -53°C | 1.6% | 146.2hPa | 2.6V | 08:17:19 | 01:34:58 | 00:00:00 | |
| DF8AY-15 | 2026-09-03 08:07:16 | 52.40486 | 8.80816 | 117° | 88km/h | 14090m | -7.6m/s | -52.9°C | 4.4% | 146.2hPa | 2.6V | 00:00:00 | 01:34:58 | 00:00:00 | |
| DO2SHX-10 | 2026-09-03 08:07:15 | 52.40498 | 8.80778 | 118° | 100km/h | 14098m | -7.6m/s | -52.9°C | 4.5% | 146.0hPa | 2.6V | 00:00:00 | 01:34:57 | 00:00:00 | |
| DL1NUX | 2026-09-03 08:07:14 | 52.40569 | 8.80571 | 120° | 91km/h | 14144m | -7.7m/s | -53.2°C | 4.5% | 145.1hPa | 2.6V | 08:16:49 | 01:34:51 | 00:00:00 | |
| DL1XH-west | 2026-09-03 08:07:14 | 52.40510 | 8.80741 | 119° | 100km/h | 14105m | -7.6m/s | -53°C | 1.6% | 145.9hPa | 2.7V | 08:17:19 | 01:34:56 | 00:00:00 | |
| AA1-15 | 2026-09-03 08:07:13 | 52.40522 | 8.80706 | 119° | 99km/h | 14113m | -7.8m/s | -53.1°C | 1.5% | 145.7hPa | 2.7V | 08:17:19 | 01:34:55 | 00:00:00 | |
| SO1NDE-10 | 2026-09-03 08:07:13 | 52.40522 | 8.80706 | 119° | 84km/h | 14113m | -7.8m/s | -53.0°C | 4.4% | 145.7hPa | 2.6V | 00:00:00 | 01:34:55 | 00:00:00 | |
| DO2SHX-10 | 2026-09-03 08:07:12 | 52.40534 | 8.80671 | 120° | 93km/h | 14121m | -7.4m/s | -53.1°C | 4.5% | 145.5hPa | 2.6V | 00:00:00 | 01:34:54 | 00:00:00 | |
| DJ2DS-15 | 2026-09-03 08:07:11 | 52.40558 | 8.80603 | 119° | 91km/h | 14136m | -7.9m/s | -53.1°C | 2.0% | 145.2hPa | 2.6V | 00:00:00 | 00:00:00 | 00:00:00 | |
| DM0DOS-11 | 2026-09-03 08:07:10 | 52.40612 | 8.80444 | 117° | 84km/h | 14174m | -7.5m/s | -53.2°C | 4.5% | 144.4hPa | 2.6V | 08:16:53 | 01:34:47 | 00:00:00 | |
| DL3AQ-11 | 2026-09-03 08:07:10 | 52.40569 | 8.80571 | 120° | 89km/h | 14144m | -7.7m/s | -53.2°C | 2.0% | 145.1hPa | 2.7V | 00:00:00 | 00:00:00 | 00:00:00 | |
| DL1XH-15 | 2026-09-03 08:07:09 | 52.40622 | 8.80413 | 115° | 82km/h | 14182m | -7.5m/s | -53.2°C | 4.5% | 144.2hPa | 2.7V | 08:16:54 | 01:34:46 | 00:00:00 | |
| HSKMA3-T | 2026-09-03 08:07:09 | 52.40569 | 8.80571 | 120° | 91km/h | 14144m | -7.7m/s | -53.2°C | 1.6% | 145.1hPa | 2.6V | 08:17:19 | 01:34:51 | 00:00:00 | |
| BIOWL1-15 | 2026-09-03 08:07:08 | 52.40581 | 8.80538 | 120° | 89km/h | 14152m | -7.9m/s | -53.2°C | 1.6% | 144.9hPa | 2.7V | 08:17:19 | 01:34:50 | 00:00:00 | |
| DD8BA-10 | 2026-09-03 08:07:08 | 52.40580 | 8.80538 | 120° | 82km/h | 14152m | -7.8m/s | -53.2°C | 4.5% | 144.8hPa | 2.7V | 00:00:00 | 00:00:00 | 00:00:00 | |
| DL1XH1-15 | 2026-09-03 08:07:07 | 52.40638 | 8.80353 | 114° | 78km/h | 14197m | -7.9m/s | -53.1°C | 4.4% | 143.9hPa | 2.6V | 08:16:56 | 01:34:44 | 00:00:00 | |
| DO2JMG | 2026-09-03 08:07:06 | 52.40602 | 8.80475 | 118° | 86km/h | 14167m | -7.7m/s | -53.2°C | 1.6% | 144.4hPa | 2.6V | 08:17:19 | 01:34:48 | 00:00:00 | |
| DO2SHX-10 | 2026-09-03 08:07:06 | 52.40602 | 8.80475 | 118° | 84km/h | 14167m | -7.6m/s | -53.2°C | 4.5% | 144.4hPa | 2.7V | 00:00:00 | 01:34:48 | 00:00:00 | |
| GOEST3-10 | 2026-09-03 08:07:05 | 52.40612 | 8.80444 | 118° | 80km/h | 14174m | -7.5m/s | -53.1°C | 4.5% | 144.3hPa | 2.7V | 00:00:00 | 00:00:00 | 00:00:00 | |
| DL1NUX | 2026-09-03 08:07:04 | 52.40663 | 8.80266 | 115° | 77km/h | 14220m | -8m/s | -53.2°C | 4.4% | 143.3hPa | 2.7V | 08:16:59 | 01:34:41 | 00:00:00 | |
| AA1-15 | 2026-09-03 08:07:03 | 52.40630 | 8.80383 | 115° | 80km/h | 14189m | -7.4m/s | -53.2°C | 1.5% | 144hPa | 2.7V | 08:17:19 | 01:34:45 | 00:00:00 | |
| DF8AY | 2026-09-03 08:07:02 | 52.40638 | 8.80353 | 114° | 78km/h | 14197m | -7.9m/s | -53.2°C | 1.5% | 143.9hPa | 2.6V | 08:17:19 | 01:34:44 | 00:00:00 | |
| DO9LL-15 | 2026-09-03 08:07:02 | 52.40638 | 8.80353 | 115° | 82km/h | 14197m | -7.9m/s | -53.1°C | 4.4% | 143.8hPa | 2.6V | 00:00:00 | 01:34:44 | 00:00:00 | |
| DO3DL | 2026-09-03 08:07:01 | 52.40638 | 8.80353 | 115° | 78km/h | 14197m | -7.9m/s | -53.2°C | 1.9% | 143.9hPa | 2.6V | 08:17:00 | 00:00:00 | 00:00:00 | |
| DM0DOS-11 | 2026-09-03 08:07:00 | 52.40695 | 8.80154 | 112° | 75km/h | 14252m | -7.9m/s | -53.1°C | 4.4% | 142.6hPa | 2.6V | 08:17:03 | 01:34:37 | 00:00:00 | |
| DJ2DS-15 | 2026-09-03 08:07:00 | 52.40655 | 8.80294 | 116° | 82km/h | 14213m | -7.7m/s | -53.1°C | 4.4% | 143.5hPa | 2.6V | 00:00:00 | 01:34:42 | 00:00:00 | |
| DL1XH-15 | 2026-09-03 08:06:59 | 52.40702 | 8.80124 | 111° | 78km/h | 14260m | -7.8m/s | -53.1°C | 4.5% | 142.4hPa | 2.6V | 08:17:04 | 01:34:36 | 00:00:00 | |
| HSKMA3-T | 2026-09-03 08:06:58 | 52.40672 | 8.80238 | 116° | 75km/h | 14228m | -8m/s | -53.2°C | 1.5% | 143.2hPa | 2.7V | 08:17:19 | 01:34:40 | 00:00:00 | |
| DD8BA-10 | 2026-09-03 08:06:58 | 52.40671 | 8.80238 | 116° | 80km/h | 14229m | -8.0m/s | -53.1°C | 4.4% | 143.1hPa | 2.7V | 00:00:00 | 00:00:00 | 00:00:00 | |
| DL1XH1-15 | 2026-09-03 08:06:57 | 52.40717 | 8.80061 | 108° | 86km/h | 14275m | -7.6m/s | -53.1°C | 4.5% | 142.1hPa | 2.7V | 08:17:06 | 01:34:34 | 00:00:00 | |
| DO2JMG | 2026-09-03 08:06:56 | 52.40688 | 8.80182 | 114° | 75km/h | 14244m | -7.8m/s | -53.2°C | 1.6% | 142.8hPa | 2.6V | 08:17:19 | 01:34:38 | 00:00:00 | |
| DL1XH-west | 2026-09-03 08:06:52 | 52.40717 | 8.80061 | 109° | 86km/h | 14275m | -7.6m/s | -53.1°C | 1.6% | 142.1hPa | 2.7V | 08:17:19 | 01:34:34 | 00:00:00 | |
| MET0W-2 | 2026-09-03 08:06:51 | 52.40730 | 8.79992 | 107° | 89km/h | 14291m | -7.7m/s | -52.9°C | 1.9% | 141.8hPa | 2.6V | 00:00:00 | 00:00:00 | 00:00:00 | |
| DM0DOS-11 | 2026-09-03 08:06:50 | 52.40764 | 8.79820 | 108° | 84km/h | 14330m | -7.8m/s | -52.7°C | 4.3% | 140.9hPa | 2.6V | 08:17:13 | 01:34:27 | 00:00:00 | |
| GOEST3-10 | 2026-09-03 08:06:50 | 52.40730 | 8.79992 | 108° | 88km/h | 14291m | -7.7m/s | -52.9°C | 4.4% | 141.8hPa | 2.7V | 00:00:00 | 01:34:32 | 00:00:00 | |
| DL1XH-15 | 2026-09-03 08:06:49 | 52.40771 | 8.79787 | 109° | 82km/h | 14337m | -7.8m/s | -52.7°C | 4.3% | 140.8hPa | 2.7V | 08:17:14 | 01:34:26 | 00:00:00 | |
| BIOWL1-15 | 2026-09-03 08:06:48 | 52.40743 | 8.79921 | 108° | 89km/h | 14306m | -7.8m/s | -52.6°C | 1.4% | 141.4hPa | 2.7V | 08:17:19 | 01:34:30 | 00:00:00 | |
| DO2JMG | 2026-09-03 08:06:45 | 52.40764 | 8.79820 | 109° | 84km/h | 14330m | -7.8m/s | -52.7°C | 1.4% | 140.9hPa | 2.6V | 08:17:19 | 01:34:27 | 00:00:00 | |
| GOEST3-10 | 2026-09-03 08:06:45 | 52.40764 | 8.79820 | 109° | 82km/h | 14330m | -7.7m/s | -52.7°C | 4.3% | 140.8hPa | 2.6V | 00:00:00 | 00:00:00 | 00:00:00 | |
| DL1NUX | 2026-09-03 08:06:44 | 52.40805 | 8.79627 | 108° | 84km/h | 14377m | -7.8m/s | -52.8°C | 4.3% | 139.9hPa | 2.6V | 08:17:19 | 01:34:21 | 00:00:00 | |
| DL1XH-west | 2026-09-03 08:06:42 | 52.40785 | 8.79724 | 110° | 82km/h | 14353m | -7.7m/s | -52.8°C | 1.5% | 140.4hPa | 2.7V | 08:17:19 | 01:34:24 | 00:00:00 | |
| AA1-15 | 2026-09-03 08:06:41 | 52.40792 | 8.79692 | 110° | 82km/h | 14361m | -8.1m/s | -52.8°C | 1.5% | 140.2hPa | 2.6V | 08:17:19 | 01:34:23 | 00:00:00 | |
| DO2SHX-10 | 2026-09-03 08:06:41 | 52.40792 | 8.79692 | 110° | 82km/h | 14361m | -8.0m/s | -52.7°C | 4.4% | 140.2hPa | 2.6V | 08:17:00 | 01:34:23 | 00:00:00 | |
| DJ2DS-15 | 2026-09-03 08:06:40 | 52.40798 | 8.79660 | 110° | 86km/h | 14369m | -7.7m/s | -52.7°C | 4.3% | 140.1hPa | 2.7V | 00:00:00 | 01:34:22 | 00:00:00 | |
| DL1XH-15 | 2026-09-03 08:06:39 | 52.40837 | 8.79464 | 109° | 82km/h | 14416m | -7.8m/s | -52.9°C | 4.3% | 139.1hPa | 2.7V | 08:17:24 | 01:34:16 | 00:00:00 | |
| BIOWL1-15 | 2026-09-03 08:06:38 | 52.40812 | 8.79595 | 108° | 84km/h | 14384m | -7.8m/s | -52.8°C | 1.4% | 139.8hPa | 2.7V | 08:18:10 | 01:34:20 | 00:00:00 | |
| DD8BA-10 | 2026-09-03 08:06:38 | 52.40812 | 8.79595 | 108° | 82km/h | 14385m | -7.8m/s | -52.7°C | 4.3% | 139.7hPa | 2.7V | 00:00:00 | 00:00:00 | 00:00:00 | |
| DL1XH1-15 | 2026-09-03 08:06:37 | 52.40852 | 8.79401 | 111° | 78km/h | 14431m | -7.9m/s | -53.1°C | 4.4% | 138.7hPa | 2.6V | 08:17:26 | 01:34:14 | 00:00:00 | |
| DF8AY-15 | 2026-09-03 08:06:36 | 52.40825 | 8.79529 | 108° | 91km/h | 14400m | -7.6m/s | -52.8°C | 4.3% | 139.3hPa | 2.6V | 00:00:00 | 01:34:18 | 00:00:00 | |
| DJ2DS-15 | 2026-09-03 08:06:35 | 52.40838 | 8.79464 | 109° | 80km/h | 14416m | -7.8m/s | -52.9°C | 1.9% | 139.1hPa | 2.7V | 00:00:00 | 00:00:00 | 00:00:00 | |
| DL1NUX | 2026-09-03 08:06:34 | 52.40876 | 8.79312 | 115° | 80km/h | 14455m | -8.2m/s | -53.2°C | 4.3% | 138.2hPa | 2.7V | 08:17:29 | 01:34:11 | 00:00:00 | |
| DO2JMG | 2026-09-03 08:06:34 | 52.40838 | 8.79464 | 109° | 82km/h | 14416m | -7.8m/s | -52.9°C | 1.4% | 139.1hPa | 2.7V | 08:18:10 | 01:34:16 | 00:00:00 | |
| DL1XH-west | 2026-09-03 08:06:32 | 52.40852 | 8.79402 | 112° | 78km/h | 14431m | -7.9m/s | -53.1°C | 1.5% | 138.8hPa | 2.6V | 08:18:10 | 01:34:14 | 00:00:00 | |
| AA1-15 | 2026-09-03 08:06:31 | 52.40859 | 8.79371 | 113° | 78km/h | 14439m | -7.8m/s | -53.1°C | 1.5% | 138.6hPa | 2.6V | 08:18:10 | 01:34:13 | 00:00:00 | |
| GOEST3-10 | 2026-09-03 08:06:30 | 52.40867 | 8.79341 | 115° | 82km/h | 14447m | -8.1m/s | -53.1°C | 4.3% | 138.3hPa | 2.6V | 00:00:00 | 01:34:12 | 00:00:00 | |
| DJ2KF-10 | 2026-09-03 08:06:29 | 52.40876 | 8.79312 | 116° | 93km/h | 14455m | -8.1m/s | -53.1°C | 4.3% | 138.2hPa | 2.7V | 00:00:00 | 01:34:11 | 00:00:00 | |
| DD8BA-10 | 2026-09-03 08:06:28 | 52.40885 | 8.79282 | 118° | 97km/h | 14464m | -8.3m/s | -53.1°C | 4.3% | 138.0hPa | 2.7V | 00:00:00 | 00:00:00 | 00:00:00 | |
| DL1XH1-15 | 2026-09-03 08:06:27 | 52.40957 | 8.79087 | 120° | 104km/h | 14512m | -8.1m/s | -53.1°C | 4.5% | 136.9hPa | 2.7V | 08:17:36 | 01:34:04 | 00:00:00 | |
| HSKMA3-T | 2026-09-03 08:06:27 | 52.40895 | 8.79252 | 120° | 84km/h | 14472m | -8.2m/s | -53.2°C | 1.5% | 137.8hPa | 2.7V | 08:18:10 | 01:34:09 | 00:00:00 | |
| DO2LYB-13 | 2026-09-03 08:06:26 | 52.40895 | 8.79252 | 121° | 84km/h | 14472m | -8.2m/s | -53.2°C | 1.9% | 137.8hPa | 2.7V | 08:18:00 | 00:00:00 | 00:00:00 | |
| DO2SHX-10 | 2026-09-03 08:06:25 | 52.40918 | 8.79190 | 123° | 97km/h | 14488m | -8.1m/s | -53.1°C | 4.4% | 137.5hPa | 2.7V | 00:00:00 | 01:34:07 | 00:00:00 | |
| DL1NUX | 2026-09-03 08:06:24 | 52.40995 | 8.78968 | 114° | 111km/h | 14537m | -8m/s | -53°C | 4.5% | 136.5hPa | 2.7V | 08:17:39 | 01:34:01 | 00:00:00 | |
| DO2JMG | 2026-09-03 08:06:23 | 52.40944 | 8.79123 | 122° | 100km/h | 14504m | -8.1m/s | -53.2°C | 1.6% | 137.1hPa | 2.7V | 08:18:10 | 01:34:05 | 00:00:00 | |
| DL1XH-west | 2026-09-03 08:06:21 | 52.40970 | 8.79049 | 119° | 108km/h | 14520m | -8.1m/s | -53°C | 1.7% | 136.8hPa | 2.6V | 08:18:10 | 01:34:03 | 00:00:00 | |
| DF8AY | 2026-09-03 08:06:20 | 52.40983 | 8.79010 | 117° | 110km/h | 14529m | -8m/s | -53°C | 1.6% | 136.7hPa | 2.6V | 08:18:10 | 01:34:02 | 00:00:00 | |
| DJ2DS-15 | 2026-09-03 08:06:20 | 52.40983 | 8.79010 | 118° | 95km/h | 14529m | -8.0m/s | -52.9°C | 4.5% | 136.6hPa | 2.6V | 00:00:00 | 01:34:02 | 00:00:00 | |
| DL1XH-15 | 2026-09-03 08:06:19 | 52.41042 | 8.78758 | 105° | 102km/h | 14576m | -7.6m/s | -52.9°C | 4.4% | 135.6hPa | 2.7V | 08:17:44 | 01:33:56 | 00:00:00 | |
| DO2SHX-10 | 2026-09-03 08:06:19 | 52.40995 | 8.78968 | 115° | 111km/h | 14537m | -7.9m/s | -52.9°C | 4.5% | 136.4hPa | 2.7V | 00:00:00 | 01:34:01 | 00:00:00 | |
| HTAHTA | 2026-09-03 08:06:18 | 52.41017 | 8.78883 | 110° | 110km/h | 14553m | -8.1m/s | -52.9°C | 1.9% | 136.1hPa | 2.7V | 00:00:00 | 00:00:00 | 00:00:00 | |
| DL1XH1-15 | 2026-09-03 08:06:17 | 52.41054 | 8.78679 | 103° | 95km/h | 14592m | -7.8m/s | -52.9°C | 4.4% | 135.3hPa | 2.7V | 08:17:46 | 01:33:54 | 00:00:00 | |
| BIOWL1-15 | 2026-09-03 08:06:16 | 52.41026 | 8.78841 | 108° | 108km/h | 14561m | -8.1m/s | -52.9°C | 1.6% | 136hPa | 2.6V | 08:18:10 | 01:33:58 | 00:00:00 | |
| DF8AY-15 | 2026-09-03 08:06:16 | 52.41026 | 8.78840 | 109° | 84km/h | 14561m | -8.1m/s | -52.9°C | 4.5% | 135.9hPa | 2.6V | 00:00:00 | 01:33:58 | 00:00:00 | |
| GOEST3-10 | 2026-09-03 08:06:15 | 52.41034 | 8.78799 | 107° | 99km/h | 14569m | -7.9m/s | -52.9°C | 4.5% | 135.7hPa | 2.6V | 08:17:00 | 00:00:00 | 00:00:00 | |
| DL1NUX | 2026-09-03 08:06:14 | 52.41069 | 8.78566 | 101° | 93km/h | 14615m | -7.9m/s | -53°C | 4.5% | 134.8hPa | 2.6V | 08:17:49 | 01:33:51 | 00:00:00 | |
| DO2JMG | 2026-09-03 08:06:12 | 52.41054 | 8.78679 | 103° | 95km/h | 14592m | -7.8m/s | -52.9°C | 1.5% | 135.3hPa | 2.7V | 08:18:10 | 01:33:54 | 00:00:00 | |
| DL1XH-west | 2026-09-03 08:06:11 | 52.41059 | 8.78641 | 103° | 93km/h | 14600m | -7.5m/s | -52.9°C | 1.5% | 135.2hPa | 2.6V | 08:18:10 | 01:33:53 | 00:00:00 | |
| AA1-15 | 2026-09-03 08:06:10 | 52.41064 | 8.78603 | 102° | 93km/h | 14607m | -7.6m/s | -53°C | 1.5% | 134.9hPa | 2.6V | 08:18:10 | 01:33:52 | 00:00:00 | |
| DF8AY | 2026-09-03 08:06:09 | 52.41069 | 8.78566 | 101° | 93km/h | 14615m | -7.9m/s | -53°C | 1.5% | 134.8hPa | 2.6V | 08:18:10 | 01:33:51 | 00:00:00 | |
| SONCRA | 2026-09-03 08:06:08 | 52.41077 | 8.78491 | 100° | 89km/h | 14631m | -8.0m/s | -53.1°C | 1.9% | 134.5hPa | 2.6V | 00:00:00 | 00:00:00 | 00:00:00 | |
| DL1XH1-15 | 2026-09-03 08:06:07 | 52.41098 | 8.78323 | 104° | 75km/h | 14670m | -7.5m/s | -53°C | 4.4% | 133.6hPa | 2.6V | 08:17:56 | 01:33:44 | 00:00:00 | |
| HSKMA3-T | 2026-09-03 08:06:06 | 52.41081 | 8.78455 | 101° | 88km/h | 14639m | -8.1m/s | -53.1°C | 1.5% | 134.3hPa | 2.6V | 08:18:10 | 01:33:48 | 00:00:00 | |
| BIOWL1-15 | 2026-09-03 08:06:05 | 52.41085 | 8.78420 | 101° | 86km/h | 14647m | -7.7m/s | -53.1°C | 1.5% | 134.2hPa | 2.6V | 08:18:10 | 01:33:47 | 00:00:00 | |
| DO2JMG | 2026-09-03 08:06:01 | 52.41104 | 8.78293 | 106° | 73km/h | 14677m | -7.3m/s | -53°C | 1.4% | 133.5hPa | 2.6V | 08:18:10 | 01:33:43 | 00:00:00 | |
| DL1XH-west | 2026-09-03 08:06:00 | 52.41109 | 8.78265 | 109° | 71km/h | 14685m | -7.6m/s | -52.9°C | 1.4% | 133.3hPa | 2.6V | 08:18:10 | 01:33:42 | 00:00:00 | |
| DF8AY | 2026-09-03 08:05:58 | 52.41121 | 8.78212 | 113° | 69km/h | 14700m | -7.6m/s | -52.8°C | 1.3% | 132.9hPa | 2.7V | 08:18:10 | 01:33:40 | 00:00:00 | |
| HSKMA3-T | 2026-09-03 08:05:56 | 52.41136 | 8.78160 | 117° | 69km/h | 14715m | -7.4m/s | -52.7°C | 1.3% | 132.7hPa | 2.6V | 08:18:10 | 01:33:38 | 00:00:00 | |
| BIOWL1-15 | 2026-09-03 08:05:55 | 52.41144 | 8.78134 | 117° | 71km/h | 14722m | -7.3m/s | -52.7°C | 1.3% | 132.6hPa | 2.6V | 08:18:10 | 01:33:37 | 00:00:00 | |
| DB0DAN | 2026-09-03 08:05:55 | 52.41144 | 8.78134 | 117° | 68km/h | 14722m | -7.3m/s | -52.7°C | 1.8% | 132.55hPa | 2.6V | 00:00:00 | 00:00:00 | 00:00:00 | |
| DO2JMG | 2026-09-03 08:05:51 | 52.41180 | 8.78027 | 119° | 75km/h | 14750m | -6.8m/s | -52.5°C | 1.3% | 132hPa | 2.6V | 08:18:10 | 01:33:33 | 00:00:00 | |
| DL1XH-west | 2026-09-03 08:05:50 | 52.41189 | 8.78000 | 120° | 77km/h | 14758m | -6.9m/s | -52.5°C | 1.3% | 131.9hPa | 2.6V | 08:18:10 | 01:33:32 | 00:00:00 | |
| DO2SHX-10 | 2026-09-03 08:05:50 | 52.41189 | 8.78000 | 120° | 75km/h | 14758m | -6.9m/s | -52.4°C | 4.2% | 131.8hPa | 2.6V | 00:00:00 | 01:33:32 | 00:00:00 | |
| DL1XH-15 | 2026-09-03 08:05:49 | 52.41247 | 8.77846 | 122° | 69km/h | 14797m | -6.4m/s | -52.4°C | 4.1% | 131hPa | 2.7V | 08:18:14 | 01:33:26 | 00:00:00 | |
| AA1-15 | 2026-09-03 08:05:49 | 52.41199 | 8.77973 | 121° | 75km/h | 14764m | -6.2m/s | -52.4°C | 1.3% | 131.7hPa | 2.7V | 08:18:10 | 01:33:31 | 00:00:00 | |
| DF8AY | 2026-09-03 08:05:48 | 52.41209 | 8.77946 | 121° | 75km/h | 14770m | -6.5m/s | -52.4°C | 1.2% | 131.5hPa | 2.7V | 08:18:10 | 01:33:30 | 00:00:00 | |
| DD8BA-10 | 2026-09-03 08:05:48 | 52.41208 | 8.77946 | 122° | 68km/h | 14771m | -6.4m/s | -52.3°C | 4.1% | 131.5hPa | 2.7V | 00:00:00 | 00:00:00 | 00:00:00 | |
| DL1XH1-15 | 2026-09-03 08:05:47 | 52.41265 | 8.77799 | 122° | 64km/h | 14810m | -6.7m/s | -52.4°C | 4.2% | 130.8hPa | 2.7V | 08:18:16 | 01:33:24 | 00:00:00 | |
| BIOWL1-15 | 2026-09-03 08:05:46 | 52.41247 | 8.77846 | 123° | 69km/h | 14797m | -6.4m/s | -52.4°C | 1.2% | 131hPa | 2.7V | 08:19:01 | 01:33:26 | 00:00:00 | |
| HSKMA3-T | 2026-09-03 08:05:45 | 52.41237 | 8.77870 | 122° | 69km/h | 14791m | -6.9m/s | -52.4°C | 1.2% | 131.2hPa | 2.6V | 08:19:01 | 01:33:27 | 00:00:00 | |
| GOEST3-10 | 2026-09-03 08:05:45 | 52.41237 | 8.77870 | 123° | 66km/h | 14791m | -6.8m/s | -52.4°C | 4.2% | 131.2hPa | 2.6V | 00:00:00 | 00:00:00 | 00:00:00 | |
| DL1NUX | 2026-09-03 08:05:44 | 52.41290 | 8.77734 | 122° | 60km/h | 14832m | -7m/s | -52.4°C | 4.2% | 130.3hPa | 2.6V | 08:18:19 | 01:33:21 | 00:00:00 | |
| DO2SHX-10 | 2026-09-03 08:05:44 | 52.41247 | 8.77846 | 123° | 68km/h | 14798m | -6.4m/s | -52.4°C | 4.1% | 130.9hPa | 2.6V | 00:00:00 | 01:33:26 | 00:00:00 | |
| SO1NDE-10 | 2026-09-03 08:05:43 | 52.41256 | 8.77822 | 123° | 69km/h | 14804m | -6.1m/s | -52.4°C | 4.2% | 130.8hPa | 2.6V | 00:00:00 | 01:33:25 | 00:00:00 | |
| SONDE2-11 | 2026-09-03 08:05:42 | 52.41265 | 8.77799 | 122° | 64km/h | 14810m | -6.7m/s | -52.4°C | 1.8% | 130.8hPa | 2.6V | 00:00:00 | 00:00:00 | 00:00:00 | |
| DO2SHX-10 | 2026-09-03 08:05:41 | 52.41273 | 8.77777 | 121° | 64km/h | 14817m | -7.0m/s | -52.3°C | 4.2% | 130.5hPa | 2.6V | 08:18:00 | 01:33:23 | 00:00:00 | |
| DM0DOS-11 | 2026-09-03 08:05:40 | 52.41324 | 8.77653 | 129° | 62km/h | 14860m | -6.7m/s | -52.3°C | 4.2% | 129.7hPa | 2.6V | 08:18:23 | 01:33:17 | 00:00:00 | |
| DO2JMG | 2026-09-03 08:05:40 | 52.41281 | 8.77755 | 121° | 60km/h | 14825m | -7.4m/s | -52.4°C | 1.3% | 130.5hPa | 2.6V | 08:19:01 | 01:33:22 | 00:00:00 | |
| DB0DAN | 2026-09-03 08:05:40 | 52.41281 | 8.77755 | 121° | 58km/h | 14824m | -7.4m/s | -52.4°C | 1.8% | 130.47hPa | 2.6V | 00:00:00 | 00:00:00 | 00:00:00 | |
| DL1XH-west | 2026-09-03 08:05:39 | 52.41289 | 8.77734 | 123° | 60km/h | 14832m | -7.1m/s | -52.4°C | 1.2% | 130.3hPa | 2.6V | 08:19:01 | 01:33:21 | 00:00:00 | |
| DF8AY | 2026-09-03 08:05:37 | 52.41306 | 8.77693 | 125° | 60km/h | 14846m | -6.9m/s | -52.4°C | 1.2% | 130hPa | 2.7V | 08:19:01 | 01:33:19 | 00:00:00 | |
| HSKMA3-T | 2026-09-03 08:05:34 | 52.41335 | 8.77633 | 131° | 64km/h | 14867m | -6.9m/s | -52.3°C | 1.2% | 129.6hPa | 2.7V | 08:19:01 | 01:33:16 | 00:00:00 | |
| DL1NUX | 2026-09-03 08:05:34 | 52.41394 | 8.77530 | 133° | 75km/h | 14901m | -6.5m/s | -52.3°C | 4.1% | 128.9hPa | 2.7V | 08:18:29 | 01:33:11 | 00:00:00 | |
| DO2SHX-10 | 2026-09-03 08:05:33 | 52.41345 | 8.77613 | 134° | 68km/h | 14874m | -6.4m/s | -52.2°C | 4.1% | 129.5hPa | 2.6V | 00:00:00 | 01:33:15 | 00:00:00 | |
| DO9LL-15 | 2026-09-03 08:05:32 | 52.41357 | 8.77593 | 135° | 69km/h | 14881m | -7.0m/s | -52.3°C | 4.1% | 129.3hPa | 2.6V | 00:00:00 | 01:33:14 | 00:00:00 | |
| AU51GT2 | 2026-09-03 08:05:31 | 52.41382 | 8.77552 | 134° | 71km/h | 14895m | -6.9m/s | -52.4°C | 1.7% | 129.1hPa | 2.6V | 00:00:00 | 00:00:00 | 00:00:00 | |
| DM0DOS-11 | 2026-09-03 08:05:30 | 52.41444 | 8.77426 | 123° | 84km/h | 14928m | -7m/s | -52.2°C | 4% | 128.4hPa | 2.6V | 08:18:33 | 01:33:07 | 00:00:00 | |
| DO2JMG | 2026-09-03 08:05:30 | 52.41382 | 8.77552 | 134° | 71km/h | 14895m | -6.9m/s | -52.4°C | 1.2% | 129.1hPa | 2.6V | 08:19:01 | 01:33:12 | 00:00:00 | |
| DL1XH-west | 2026-09-03 08:05:28 | 52.41407 | 8.77507 | 131° | 78km/h | 14908m | -6.9m/s | -52.3°C | 1.1% | 128.8hPa | 2.7V | 08:19:01 | 01:33:10 | 00:00:00 | |
| DF8AY | 2026-09-03 08:05:27 | 52.41432 | 8.77455 | 125° | 82km/h | 14921m | -6.9m/s | -52.3°C | 1.1% | 128.5hPa | 2.6V | 08:19:01 | 01:33:08 | 00:00:00 | |
| BIOWL1-15 | 2026-09-03 08:05:23 | 52.41466 | 8.77367 | 119° | 82km/h | 14943m | -7.6m/s | -52.2°C | 1% | 128.1hPa | 2.7V | 08:19:01 | 01:33:05 | 00:00:00 | |
| DL4XJ-10 | 2026-09-03 08:05:23 | 52.41466 | 8.77367 | 119° | 66km/h | 14943m | -7.6m/s | -51.1°C | 0% | 0hPa | 2.6V | 00:00:00 | 00:00:00 | 00:00:00 | |
| DO3DL | 2026-09-03 08:05:22 | 52.41466 | 8.77367 | 120° | 82km/h | 14943m | -7.6m/s | -52.2°C | 1.6% | 128.1hPa | 2.6V | 08:19:00 | 00:00:00 | 00:00:00 | |
| BUE01 | 2026-09-03 08:05:21 | 52.41485 | 8.77307 | 113° | 80km/h | 14958m | -7.3m/s | -52.2°C | 1.6% | 127.8hPa | 2.6V | 00:00:00 | 00:00:00 | 00:00:00 | |
| DM0DOS-11 | 2026-09-03 08:05:20 | 52.41529 | 8.77145 | 122° | 62km/h | 15000m | -6.2m/s | -52.3°C | 4.1% | 126.9hPa | 2.6V | 08:18:43 | 01:32:57 | 00:00:00 | |
| DO2SHX-10 | 2026-09-03 08:05:20 | 52.41493 | 8.77276 | 113° | 75km/h | 14966m | -7.5m/s | -52.2°C | 4.0% | 127.6hPa | 2.7V | 00:00:00 | 01:33:02 | 00:00:00 | |
| DL1XH-15 | 2026-09-03 08:05:19 | 52.41537 | 8.77124 | 126° | 60km/h | 15007m | -6.5m/s | -52.3°C | 4.1% | 126.9hPa | 2.7V | 08:18:44 | 01:32:56 | 00:00:00 | |
| DO2JMG | 2026-09-03 08:05:19 | 52.41500 | 8.77247 | 112° | 77km/h | 14973m | -7.4m/s | -52.3°C | 1.1% | 127.5hPa | 2.7V | 08:19:01 | 01:33:01 | 00:00:00 | |
| DL1XH-west | 2026-09-03 08:05:17 | 52.41514 | 8.77192 | 113° | 68km/h | 14987m | -6.3m/s | -52.4°C | 1.2% | 127.2hPa | 2.6V | 08:19:01 | 01:32:59 | 00:00:00 | |
| DF8AY | 2026-09-03 08:05:15 | 52.41529 | 8.77145 | 122° | 62km/h | 15000m | -6.2m/s | -52.3°C | 1.2% | 126.9hPa | 2.6V | 08:19:01 | 01:32:57 | 00:00:00 | |
| BIOWL1-15 | 2026-09-03 08:05:13 | 52.41547 | 8.77104 | 130° | 62km/h | 15013m | -6.2m/s | -52.3°C | 1.2% | 126.8hPa | 2.7V | 08:19:01 | 01:32:55 | 00:00:00 | |
| HSKMA3-T | 2026-09-03 08:05:12 | 52.41557 | 8.77084 | 130° | 62km/h | 15020m | -7m/s | -52.3°C | 1.1% | 126.6hPa | 2.7V | 08:19:01 | 01:32:54 | 00:00:00 | |
| DB0DAN | 2026-09-03 08:05:10 | 52.41577 | 8.77046 | 130° | 57km/h | 15034m | -7.4m/s | -52.4°C | 1.6% | 0hPa | 2.6V | 00:00:00 | 00:00:00 | 00:00:00 | |
| DL3AQ-11 | 2026-09-03 08:05:10 | 52.41586 | 8.77027 | 130° | 58km/h | 15041m | -7.1m/s | -52.5°C | 1.7% | 126.2hPa | 2.7V | 00:00:00 | 00:00:00 | 00:00:00 | |
| DL1XH-15 | 2026-09-03 08:05:09 | 52.41634 | 8.76932 | 130° | 62km/h | 15078m | -6.6m/s | -52.6°C | 4.1% | 125.5hPa | 2.7V | 08:18:54 | 01:32:46 | 00:00:00 | |
| DO2JMG | 2026-09-03 08:05:09 | 52.41586 | 8.77027 | 130° | 60km/h | 15041m | -7.1m/s | -52.5°C | 1.2% | 126.2hPa | 2.6V | 08:19:01 | 01:32:51 | 00:00:00 | |
| DD8BA-10 | 2026-09-03 08:05:08 | 52.41596 | 8.77008 | 129° | 64km/h | 15049m | -7.1m/s | -52.4°C | 4.0% | 126.0hPa | 2.7V | 00:00:00 | 00:00:00 | 00:00:00 | |
| DL1XH1-15 | 2026-09-03 08:05:07 | 52.41656 | 8.76892 | 131° | 68km/h | 15091m | -6.7m/s | -52.6°C | 4.1% | 125.2hPa | 2.6V | 08:18:56 | 01:32:44 | 00:00:00 | |
| DL1XH-west | 2026-09-03 08:05:07 | 52.41605 | 8.76989 | 129° | 58km/h | 15056m | -7.7m/s | -52.5°C | 1.2% | 125.8hPa | 2.7V | 08:19:01 | 01:32:49 | 00:00:00 | |
| DF8AY | 2026-09-03 08:05:05 | 52.41635 | 8.76932 | 131° | 62km/h | 15078m | -6.6m/s | -52.6°C | 1.1% | 125.5hPa | 2.7V | 08:19:01 | 01:32:46 | 00:00:00 | |
| GOEST3-10 | 2026-09-03 08:05:05 | 52.41624 | 8.76951 | 132° | 64km/h | 15071m | -7.7m/s | -52.5°C | 4.1% | 125.6hPa | 2.7V | 00:00:00 | 00:00:00 | 00:00:00 | |
| DL1NUX | 2026-09-03 08:05:04 | 52.41690 | 8.76827 | 128° | 71km/h | 15112m | -7.2m/s | -52.4°C | 4% | 124.8hPa | 2.7V | 08:18:59 | 01:32:41 | 00:00:00 | |
| BIOWL1-15 | 2026-09-03 08:05:02 | 52.41656 | 8.76892 | 131° | 68km/h | 15091m | -6.7m/s | -52.6°C | 1.2% | 125.2hPa | 2.6V | 08:19:01 | 01:32:44 | 00:00:00 | |
| HSKMA3-T | 2026-09-03 08:05:01 | 52.41667 | 8.76871 | 131° | 69km/h | 15098m | -6.6m/s | -52.5°C | 1.2% | 125.1hPa | 2.6V | 08:19:01 | 01:32:43 | 00:00:00 | |
| DM0DOS-11 | 2026-09-03 08:05:00 | 52.41732 | 8.76730 | 121° | 71km/h | 15140m | -6.8m/s | -52.5°C | 4% | 124.2hPa | 2.6V | 08:19:03 | 01:32:37 | 00:00:00 | |
| DO2JMG | 2026-09-03 08:04:58 | 52.41701 | 8.76803 | 128° | 71km/h | 15119m | -7.1m/s | -52.4°C | 1.1% | 124.7hPa | 2.7V | 08:19:01 | 01:32:40 | 00:00:00 | |
| DL1XH-west | 2026-09-03 08:04:57 | 52.41712 | 8.76779 | 126° | 73km/h | 15126m | -6.8m/s | -52.4°C | 1.1% | 124.5hPa | 2.7V | 08:19:01 | 01:32:39 | 00:00:00 | |
| DL8DAS-14 | 2026-09-03 08:04:56 | 52.41750 | 8.76679 | 117° | 69km/h | 15153m | -6.6m/s | -52.6°C | 1.6% | 124.0hPa | 2.6V | 00:00:00 | 00:00:00 | 00:00:00 | |
| GOEST3-10 | 2026-09-03 08:04:55 | 52.41732 | 8.76730 | 122° | 71km/h | 15140m | -6.7m/s | -52.5°C | 4.0% | 124.2hPa | 2.6V | 00:00:00 | 00:00:00 | 00:00:00 | |
| DL1NUX | 2026-09-03 08:04:54 | 52.41781 | 8.76575 | 116° | 71km/h | 15181m | -6.8m/s | -52.9°C | 4.1% | 123.5hPa | 2.6V | 08:19:09 | 01:32:31 | 00:00:00 | |
| DF8AY | 2026-09-03 08:04:54 | 52.41742 | 8.76705 | 120° | 71km/h | 15147m | -6.5m/s | -52.6°C | 1.1% | 124.2hPa | 2.6V | 08:20:43 | 01:32:36 | 00:00:00 | |
| BIOWL1-15 | 2026-09-03 08:04:51 | 52.41765 | 8.76627 | 116° | 69km/h | 15167m | -6.9m/s | -52.8°C | 1.2% | 123.8hPa | 2.7V | 08:19:52 | 01:32:33 | 00:00:00 | |
| HSKMA3-T | 2026-09-03 08:04:50 | 52.41773 | 8.76601 | 115° | 69km/h | 15174m | -6.8m/s | -52.8°C | 1.2% | 123.6hPa | 2.6V | 08:19:52 | 01:32:32 | 00:00:00 | |
| DL1XH-15 | 2026-09-03 08:04:49 | 52.41822 | 8.76445 | 120° | 68km/h | 15215m | -6.5m/s | -53.1°C | 4.3% | 122.7hPa | 2.7V | 08:19:14 | 01:32:26 | 00:00:00 | |
| DO2JMG | 2026-09-03 08:04:48 | 52.41789 | 8.76548 | 116° | 71km/h | 15188m | -7.3m/s | -52.9°C | 1.2% | 123.4hPa | 2.6V | 08:19:52 | 01:32:30 | 00:00:00 | |
| AA1-15 | 2026-09-03 08:04:46 | 52.41805 | 8.76495 | 117° | 71km/h | 15202m | -7.8m/s | -53°C | 1.2% | 123hPa | 2.7V | 08:19:52 | 01:32:28 | 00:00:00 | |
| GOEST3-10 | 2026-09-03 08:04:45 | 52.41814 | 8.76469 | 119° | 66km/h | 15209m | -6.4m/s | -53.0°C | 4.2% | 122.9hPa | 2.7V | 08:19:00 | 00:00:00 | 00:00:00 | |
| DL1NUX | 2026-09-03 08:04:44 | 52.41865 | 8.76332 | 122° | 62km/h | 15248m | -7.3m/s | -53.4°C | 4.3% | 122.2hPa | 2.7V | 08:19:19 | 01:32:21 | 00:00:00 | |
| DF8AY | 2026-09-03 08:04:43 | 52.41831 | 8.76421 | 122° | 66km/h | 15221m | -6.2m/s | -53.2°C | 1.3% | 122.7hPa | 2.6V | 08:20:43 | 01:32:25 | 00:00:00 | |
| BIOWL1-15 | 2026-09-03 08:04:41 | 52.41848 | 8.76376 | 121° | 62km/h | 15235m | -6.7m/s | -53.3°C | 1.4% | 122.5hPa | 2.6V | 08:19:52 | 01:32:23 | 00:00:00 | |
| DB0DAN | 2026-09-03 08:04:40 | 52.41856 | 8.76354 | 123° | 60km/h | 15241m | -6.2m/s | -53.4°C | 1.7% | 0hPa | 2.7V | 00:00:00 | 00:00:00 | 00:00:00 | |
| HSKMA3-T | 2026-09-03 08:04:39 | 52.41865 | 8.76332 | 123° | 62km/h | 15248m | -7.3m/s | -53.4°C | 1.3% | 122.2hPa | 2.7V | 08:19:52 | 01:32:21 | 00:00:00 | |
| DO2JMG | 2026-09-03 08:04:37 | 52.41882 | 8.76290 | 126° | 62km/h | 15262m | -6.9m/s | -53.5°C | 1.3% | 122hPa | 2.6V | 08:19:52 | 01:32:19 | 00:00:00 | |
| DL1XH-west | 2026-09-03 08:04:36 | 52.41892 | 8.76269 | 127° | 66km/h | 15268m | -7.1m/s | -53.5°C | 1.3% | 121.8hPa | 2.6V | 08:19:52 | 01:32:18 | 00:00:00 | |
| AA1-15 | 2026-09-03 08:04:35 | 52.41901 | 8.76247 | 125° | 68km/h | 15276m | -7.5m/s | -53.4°C | 1.3% | 121.7hPa | 2.6V | 08:19:52 | 01:32:17 | 00:00:00 | |
| DF8AY | 2026-09-03 08:04:33 | 52.41921 | 8.76198 | 122° | 73km/h | 15290m | -7m/s | -53.5°C | 1.2% | 121.3hPa | 2.7V | 08:20:43 | 01:32:15 | 00:00:00 | |
| BIOWL1-15 | 2026-09-03 08:04:32 | 52.41947 | 8.76116 | 114° | 77km/h | 15311m | -6.7m/s | -53.5°C | 1.3% | 121hPa | 2.7V | 08:19:52 | 01:32:12 | 00:00:00 | |
| DO9LL-15 | 2026-09-03 08:04:32 | 52.41930 | 8.76172 | 119° | 68km/h | 15297m | -6.9m/s | -53.4°C | 4.3% | 121.2hPa | 2.7V | 00:00:00 | 01:32:14 | 00:00:00 | |
| DL3OBA | 2026-09-03 08:04:31 | 52.41930 | 8.76172 | 120° | 75km/h | 15297m | -6.9m/s | -53.5°C | 1.7% | 121.3hPa | 2.7V | 08:19:00 | 00:00:00 | 00:00:00 | |
| DM0DOS-11 | 2026-09-03 08:04:30 | 52.41978 | 8.75976 | 108° | 66km/h | 15345m | -6.7m/s | -53.2°C | 4.3% | 120.3hPa | 2.7V | 08:19:33 | 01:32:07 | 00:00:00 | |
| HSKMA3-T | 2026-09-03 08:04:28 | 52.41961 | 8.76058 | 110° | 73km/h | 15325m | -7m/s | -53.4°C | 1.4% | 120.7hPa | 2.6V | 08:19:52 | 01:32:10 | 00:00:00 | |
| DO2JMG | 2026-09-03 08:04:27 | 52.41967 | 8.76030 | 110° | 71km/h | 15332m | -6.7m/s | -53.3°C | 1.3% | 120.6hPa | 2.6V | 08:19:52 | 01:32:09 | 00:00:00 | |
| DL1XH-west | 2026-09-03 08:04:25 | 52.41979 | 8.75976 | 109° | 66km/h | 15345m | -6.7m/s | -53.3°C | 1.3% | 120.3hPa | 2.7V | 08:19:52 | 01:32:07 | 00:00:00 | |
| DB0DAN | 2026-09-03 08:04:25 | 52.41979 | 8.75976 | 109° | 62km/h | 15345m | -6.7m/s | -53.3°C | 1.7% | 0hPa | 2.7V | 00:00:00 | 00:00:00 | 00:00:00 | |
| DF8AY | 2026-09-03 08:04:22 | 52.41994 | 8.75902 | 109° | 60km/h | 15366m | -7m/s | -53.2°C | 1.3% | 120hPa | 2.6V | 08:20:43 | 01:32:04 | 00:00:00 | |
| BIOWL1-15 | 2026-09-03 08:04:22 | 52.42004 | 8.75858 | 112° | 55km/h | 15380m | -7.2m/s | -53.3°C | 1.3% | 119.7hPa | 2.6V | 08:19:52 | 01:32:02 | 00:00:00 | |
| DM0DOS-11 | 2026-09-03 08:04:20 | 52.42033 | 8.75769 | 127° | 47km/h | 15418m | -8m/s | -53.4°C | 4.2% | 119hPa | 2.7V | 08:19:43 | 01:31:57 | 00:00:00 | |
| HSKMA3-T | 2026-09-03 08:04:18 | 52.42014 | 8.75819 | 116° | 49km/h | 15395m | -6.9m/s | -53.3°C | 1.3% | 119.5hPa | 2.7V | 08:19:52 | 01:32:00 | 00:00:00 | |
| DO2JMG | 2026-09-03 08:04:17 | 52.42020 | 8.75801 | 119° | 47km/h | 15402m | -7.5m/s | -53.3°C | 1.2% | 119.3hPa | 2.6V | 08:19:52 | 01:31:59 | 00:00:00 | |
| DO3DL | 2026-09-03 08:04:16 | 52.42020 | 8.75801 | 120° | 47km/h | 15402m | -7.5m/s | -53.3°C | 1.7% | 119.3hPa | 2.7V | 08:19:00 | 00:00:00 | 00:00:00 | |
| DO2SHX-10 | 2026-09-03 08:04:15 | 52.42033 | 8.75769 | 128° | 51km/h | 15418m | -8.0m/s | -53.3°C | 4.2% | 118.9hPa | 2.7V | 00:00:00 | 01:31:57 | 00:00:00 | |
| DL1NUX | 2026-09-03 08:04:14 | 52.42094 | 8.75660 | 129° | 73km/h | 15466m | -8.3m/s | -53.3°C | 4.2% | 118.1hPa | 2.7V | 08:19:49 | 01:31:51 | 00:00:00 | |
| DL1XH-west | 2026-09-03 08:04:14 | 52.42041 | 8.75753 | 131° | 51km/h | 15426m | -8.2m/s | -53.4°C | 1.2% | 118.8hPa | 2.7V | 08:19:52 | 01:31:56 | 00:00:00 | |
| DF8AY | 2026-09-03 08:04:12 | 52.42060 | 8.75720 | 135° | 58km/h | 15442m | -7.7m/s | -53.4°C | 1.2% | 118.6hPa | 2.6V | 08:20:43 | 01:31:54 | 00:00:00 | |
| BIOWL1-15 | 2026-09-03 08:04:11 | 52.42094 | 8.75660 | 130° | 73km/h | 15466m | -8.4m/s | -53.3°C | 1.2% | 118.1hPa | 2.7V | 08:19:52 | 01:31:51 | 00:00:00 | |
| DM0DOS-11 | 2026-09-03 08:04:10 | 52.42138 | 8.75552 | 117° | 82km/h | 15499m | -8.1m/s | -53.4°C | 4.2% | 117.5hPa | 2.6V | 08:19:53 | 01:31:47 | 00:00:00 | |
| DB0DAN | 2026-09-03 08:04:10 | 52.42083 | 8.75682 | 133° | 66km/h | 15458m | -8.2m/s | -53.3°C | 1.6% | 0hPa | 2.7V | 00:00:00 | 00:00:00 | 00:00:00 | |
| DO2SHX-10 | 2026-09-03 08:04:09 | 52.42094 | 8.75660 | 130° | 77km/h | 15467m | -8.3m/s | -53.2°C | 4.2% | 118.1hPa | 2.7V | 00:00:00 | 01:31:51 | 00:00:00 | |
| DD1CC8 | 2026-09-03 08:04:08 | 52.42118 | 8.75610 | 123° | 78km/h | 15483m | -8.4m/s | -53.3°C | 1.7% | 117.8hPa | 2.7V | 00:00:00 | 00:00:00 | 00:00:00 | |
| DL1XH1-15 | 2026-09-03 08:04:07 | 52.42162 | 8.75461 | 107° | 77km/h | 15524m | -8.6m/s | -53.3°C | 4.2% | 117.1hPa | 2.7V | 08:19:56 | 01:31:44 | 00:00:00 | |
| DO2JMG | 2026-09-03 08:04:07 | 52.42118 | 8.75610 | 124° | 80km/h | 15483m | -8.4m/s | -53.3°C | 1.3% | 117.8hPa | 2.6V | 08:19:52 | 01:31:49 | 00:00:00 | |
| DK5PH-5 | 2026-09-03 08:04:06 | 52.42128 | 8.75581 | 121° | 88km/h | 15491m | -8.4m/s | -53.3°C | 4.2% | 117.6hPa | 2.6V | 00:00:00 | 01:31:48 | 00:00:00 | |
| DO2SHX-10 | 2026-09-03 08:04:05 | 52.42138 | 8.75552 | 118° | 82km/h | 15500m | -8.0m/s | -53.3°C | 4.2% | 117.4hPa | 2.6V | 08:19:00 | 01:31:47 | 00:00:00 | |
| DL1NUX | 2026-09-03 08:04:04 | 52.42175 | 8.75374 | 101° | 66km/h | 15550m | -8.4m/s | -53.4°C | 4.1% | 116.6hPa | 2.6V | 08:19:59 | 01:31:41 | 00:00:00 | |
| DL1XH-west | 2026-09-03 08:04:04 | 52.42147 | 8.75522 | 114° | 80km/h | 15508m | -8.2m/s | -53.4°C | 1.2% | 117.3hPa | 2.7V | 08:20:43 | 01:31:46 | 00:00:00 | |
| SONCRA | 2026-09-03 08:04:04 | 52.42155 | 8.75491 | 111° | 78km/h | 15516m | -8.5m/s | -53.3°C | 1.7% | 117.2hPa | 2.7V | 00:00:00 | 00:00:00 | 00:00:00 | |
| DL4XJ-10 | 2026-09-03 08:04:03 | 52.42155 | 8.75491 | 112° | 71km/h | 15516m | -8.4m/s | -52.3°C | 0% | 0hPa | 2.7V | 00:00:00 | 00:00:00 | 00:00:00 | |
| DO9LL-15 | 2026-09-03 08:04:02 | 52.42162 | 8.75460 | 108° | 84km/h | 15525m | -8.5m/s | -53.3°C | 4.2% | 117.0hPa | 2.7V | 00:00:00 | 01:31:44 | 00:00:00 | |
| WEDDY | 2026-09-03 08:04:01 | 52.42162 | 8.75460 | 109° | 77km/h | 15525m | -8.6m/s | -53.3°C | 1.7% | 117.1hPa | 2.7V | 00:00:00 | 00:00:00 | 00:00:00 | |
| DM0DOS-11 | 2026-09-03 08:04:00 | 52.42190 | 8.75285 | 115° | 51km/h | 15581m | -6.5m/s | -53.8°C | 4.2% | 116hPa | 2.7V | 08:20:03 | 01:31:37 | 00:00:00 | |
| BIOWL1-15 | 2026-09-03 08:03:59 | 52.42175 | 8.75374 | 101° | 66km/h | 15550m | -8.5m/s | -53.4°C | 1.1% | 116.6hPa | 2.6V | 08:20:43 | 01:31:41 | 00:00:00 | |
| HSKMA3-T | 2026-09-03 08:03:57 | 52.42181 | 8.75326 | 104° | 55km/h | 15567m | -8.2m/s | -53.6°C | 1.1% | 116.2hPa | 2.7V | 08:20:43 | 01:31:39 | 00:00:00 | |
| DO2JMG | 2026-09-03 08:03:56 | 52.42185 | 8.75305 | 109° | 51km/h | 15574m | -7m/s | -53.7°C | 1.1% | 116.1hPa | 2.7V | 08:20:43 | 01:31:38 | 00:00:00 | |
| DB0DAN | 2026-09-03 08:03:55 | 52.42190 | 8.75285 | 115° | 49km/h | 15581m | -6.5m/s | -53.8°C | 1.6% | 0hPa | 2.7V | 00:00:00 | 00:00:00 | 00:00:00 | |
| DL1XH-west | 2026-09-03 08:03:53 | 52.42204 | 8.75246 | 125° | 62km/h | 15594m | -6.4m/s | -54°C | 1.2% | 115.8hPa | 2.6V | 08:20:43 | 01:31:35 | 00:00:00 | |
| D01LWL | 2026-09-03 08:03:52 | 52.42213 | 8.75223 | 124° | 68km/h | 15601m | -6.3m/s | -53.9°C | 1.7% | 115.7hPa | 2.7V | 00:00:00 | 00:00:00 | 00:00:00 | |
| DK9SH | 2026-09-03 08:03:51 | 52.42213 | 8.75223 | 126° | 69km/h | 15601m | -6.3m/s | -53.9°C | 1.7% | 115.7hPa | 2.7V | 08:20:00 | 00:00:00 | 00:00:00 | |
| DM0DOS-11 | 2026-09-03 08:03:50 | 52.42275 | 8.75014 | 106° | 84km/h | 15650m | -7.4m/s | -53.9°C | 4.5% | 114.8hPa | 2.7V | 08:20:13 | 01:31:27 | 00:00:00 | |
| BIOWL1-15 | 2026-09-03 08:03:50 | 52.42253 | 8.75112 | 115° | 84km/h | 15628m | -7.8m/s | -53.9°C | 1.4% | 115.2hPa | 2.6V | 08:20:43 | 01:31:30 | 00:00:00 | |
| DL3AQ-11 | 2026-09-03 08:03:50 | 52.42243 | 8.75143 | 117° | 80km/h | 15620m | -7.4m/s | -53.9°C | 1.7% | 115.3hPa | 2.7V | 00:00:00 | 00:00:00 | 00:00:00 | |
| DB0NH | 2026-09-03 08:03:49 | 52.42243 | 8.75142 | 118° | 82km/h | 15620m | -7.3m/s | -53.8°C | 4.4% | 115.2hPa | 2.7V | 08:20:00 | 01:31:31 | 00:00:00 | |
| DO2SHX-10 | 2026-09-03 08:03:48 | 52.42253 | 8.75112 | 115° | 73km/h | 15628m | -7.8m/s | -53.8°C | 4.5% | 115.1hPa | 2.6V | 00:00:00 | 01:31:30 | 00:00:00 | |
| DL1XH1-15 | 2026-09-03 08:03:47 | 52.42287 | 8.74916 | 98° | 77km/h | 15672m | -7.1m/s | -54°C | 4.5% | 114.4hPa | 2.6V | 08:20:16 | 01:31:24 | 00:00:00 | |
| HSKMA3-T | 2026-09-03 08:03:46 | 52.42268 | 8.75047 | 109° | 84km/h | 15643m | -7.7m/s | -53.9°C | 1.3% | 114.9hPa | 2.6V | 08:20:43 | 01:31:28 | 00:00:00 | |
| DF8AY | 2026-09-03 08:03:45 | 52.42275 | 8.75014 | 106° | 84km/h | 15650m | -7.4m/s | -53.9°C | 1.3% | 114.8hPa | 2.7V | 08:20:43 | 01:31:27 | 00:00:00 | |
| DL1XH-west | 2026-09-03 08:03:42 | 52.42287 | 8.74916 | 99° | 77km/h | 15672m | -7.1m/s | -54°C | 1.3% | 114.4hPa | 2.6V | 08:20:43 | 01:31:24 | 00:00:00 | |
| DB0DAN | 2026-09-03 08:03:40 | 52.42293 | 8.74857 | 100° | 66km/h | 15687m | -7.3m/s | -54.2°C | 1.7% | 0hPa | 2.7V | 00:00:00 | 00:00:00 | 00:00:00 | |
| DJ2DS-15 | 2026-09-03 08:03:40 | 52.42293 | 8.74857 | 100° | 84km/h | 15687m | -7.2m/s | -54.2°C | 4.4% | 114.0hPa | 2.6V | 00:00:00 | 01:31:22 | 00:00:00 | |
| SONDE2-11 | 2026-09-03 08:03:38 | 52.42300 | 8.74804 | 105° | 62km/h | 15702m | -8.0m/s | -54.5°C | 1.7% | 113.8hPa | 2.6V | 00:00:00 | 00:00:00 | 00:00:00 | |
| DL1XH1-15 | 2026-09-03 08:03:37 | 52.42340 | 8.74648 | 117° | 78km/h | 15750m | -8.1m/s | -54.5°C | 4.4% | 113hPa | 2.6V | 08:20:26 | 01:31:14 | 00:00:00 | |
| BIOWL1-15 | 2026-09-03 08:03:37 | 52.42305 | 8.74779 | 109° | 64km/h | 15710m | -7.8m/s | -54.5°C | 1.2% | 113.7hPa | 2.6V | 08:20:43 | 01:31:19 | 00:00:00 | |
| HSKMA3-T | 2026-09-03 08:03:36 | 52.42310 | 8.74754 | 111° | 66km/h | 15718m | -8.2m/s | -54.5°C | 1.2% | 113.6hPa | 2.7V | 08:20:43 | 01:31:18 | 00:00:00 | |
| DO2JMG | 2026-09-03 08:03:34 | 52.42324 | 8.74703 | 116° | 69km/h | 15734m | -8.2m/s | -54.5°C | 1.2% | 113.3hPa | 2.7V | 08:20:43 | 01:31:16 | 00:00:00 | |
| DL1XH-west | 2026-09-03 08:03:31 | 52.42350 | 8.74619 | 118° | 82km/h | 15758m | -8.2m/s | -54.5°C | 1.3% | 112.9hPa | 2.6V | 08:20:43 | 01:31:13 | 00:00:00 | |
| GOEST3-10 | 2026-09-03 08:03:30 | 52.42360 | 8.74587 | 118° | 95km/h | 15767m | -8.1m/s | -54.4°C | 4.6% | 112.6hPa | 2.7V | 00:00:00 | 01:31:12 | 00:00:00 | |
| DJ2KF-10 | 2026-09-03 08:03:29 | 52.42371 | 8.74554 | 118° | 91km/h | 15775m | -7.9m/s | -54.3°C | 4.7% | 112.6hPa | 2.6V | 00:00:00 | 01:31:11 | 00:00:00 | |
| BIOWL7-15 | 2026-09-03 08:03:28 | 52.42371 | 8.74554 | 118° | 93km/h | 15775m | -7.9m/s | -54.4°C | 1.8% | 112.6hPa | 2.6V | 08:20:00 | 00:00:00 | 00:00:00 | |
| DL1XH1-15 | 2026-09-03 08:03:27 | 52.42436 | 8.74288 | 105° | 99km/h | 15831m | -8.1m/s | -54°C | 4.5% | 111.6hPa | 2.6V | 08:20:36 | 01:31:04 | 00:00:00 | |
| BIOWL1-15 | 2026-09-03 08:03:26 | 52.42402 | 8.74445 | 113° | 100km/h | 15799m | -8.1m/s | -54.1°C | 1.3% | 112.1hPa | 2.6V | 08:20:43 | 01:31:08 | 00:00:00 | |
| HSKMA3-T | 2026-09-03 08:03:25 | 52.42412 | 8.74406 | 111° | 102km/h | 15807m | -8.1m/s | -54.1°C | 1.3% | 112hPa | 2.6V | 08:20:43 | 01:31:07 | 00:00:00 | |
| DB0DAN | 2026-09-03 08:03:25 | 52.42412 | 8.74406 | 111° | 97km/h | 15807m | -8.1m/s | -54.1°C | 1.7% | 0hPa | 2.6V | 00:00:00 | 00:00:00 | 00:00:00 | |
| DF8AY | 2026-09-03 08:03:24 | 52.42421 | 8.74367 | 110° | 102km/h | 15815m | -8m/s | -54.1°C | 1.3% | 111.8hPa | 2.7V | 08:20:43 | 01:31:06 | 00:00:00 | |
| DO2JMG | 2026-09-03 08:03:23 | 52.42429 | 8.74327 | 108° | 100km/h | 15823m | -8m/s | -54.1°C | 1.4% | 111.7hPa | 2.7V | 08:20:43 | 01:31:05 | 00:00:00 | |
| AA1-15 | 2026-09-03 08:03:21 | 52.42442 | 8.74249 | 104° | 95km/h | 15839m | -8m/s | -53.9°C | 1.2% | 111.4hPa | 2.6V | 08:20:43 | 01:31:03 | 00:00:00 | |
| D01LWL | 2026-09-03 08:03:21 | 52.42442 | 8.74249 | 104° | 93km/h | 15839m | -8.0m/s | -53.9°C | 1.7% | 111.4hPa | 2.6V | 00:00:00 | 00:00:00 | 00:00:00 | |
| DM0DOS-11 | 2026-09-03 08:03:20 | 52.42470 | 8.74056 | 107° | 66km/h | 15890m | -8.9m/s | -53.8°C | 4.2% | 110.6hPa | 2.6V | 08:20:43 | 01:30:57 | 00:00:00 | |
| DL1XH-west | 2026-09-03 08:03:20 | 52.42448 | 8.74212 | 103° | 89km/h | 15847m | -7.9m/s | -54°C | 1.2% | 111.3hPa | 2.6V | 08:20:43 | 01:31:02 | 00:00:00 | |
| DJ2DS-15 | 2026-09-03 08:03:20 | 52.42448 | 8.74212 | 103° | 77km/h | 15847m | -7.9m/s | -53.9°C | 4.4% | 111.3hPa | 2.6V | 00:00:00 | 01:31:02 | 00:00:00 | |
| DB0NH | 2026-09-03 08:03:19 | 52.42453 | 8.74177 | 102° | 73km/h | 15855m | -8.2m/s | -54.0°C | 4.3% | 111.1hPa | 2.7V | 00:00:00 | 01:31:01 | 00:00:00 | |
| DL1XH1-15 | 2026-09-03 08:03:17 | 52.42490 | 8.73985 | 122° | 62km/h | 15915m | -7.7m/s | -53.2°C | 4% | 110.1hPa | 2.7V | 08:20:46 | 01:30:54 | 00:00:00 | |
| BIOWL1-15 | 2026-09-03 08:03:17 | 52.42470 | 8.74056 | 108° | 66km/h | 15890m | -8.9m/s | -53.8°C | 1.1% | 110.6hPa | 2.6V | 08:20:43 | 01:30:57 | 00:00:00 | |
| DD8BA-10 | 2026-09-03 08:03:17 | 52.42461 | 8.74112 | 103° | 68km/h | 15872m | -8.6m/s | -53.8°C | 4.2% | 110.9hPa | 2.6V | 00:00:00 | 00:00:00 | 00:00:00 | |
| DO3DL | 2026-09-03 08:03:16 | 52.42461 | 8.74112 | 104° | 75km/h | 15872m | -8.6m/s | -53.9°C | 1.6% | 110.9hPa | 2.6V | 08:20:00 | 00:00:00 | 00:00:00 | |
| HARRO8 | 2026-09-03 08:03:15 | 52.42476 | 8.74031 | 112° | 62km/h | 15899m | -8.8m/s | -53.6°C | 1.6% | 110.4hPa | 2.6V | 00:00:00 | 00:00:00 | 00:00:00 | |
| DL1NUX | 2026-09-03 08:03:14 | 52.42521 | 8.73919 | 129° | 73km/h | 15939m | -8.6m/s | -53.2°C | 4.1% | 109.8hPa | 2.6V | 08:20:49 | 01:30:51 | 00:00:00 | |
| HSKMA3-T | 2026-09-03 08:03:14 | 52.42476 | 8.74031 | 112° | 64km/h | 15898m | -8.8m/s | -53.6°C | 1.1% | 110.4hPa | 2.6V | 08:21:34 | 01:30:56 | 00:00:00 | |
| DF8AY | 2026-09-03 08:03:13 | 52.42482 | 8.74007 | 117° | 62km/h | 15907m | -7.7m/s | -53.4°C | 1% | 110.3hPa | 2.7V | 08:21:34 | 01:30:55 | 00:00:00 | |
| DO2JMG | 2026-09-03 08:03:12 | 52.42490 | 8.73985 | 123° | 62km/h | 15915m | -7.7m/s | -53.2°C | 1% | 110.1hPa | 2.7V | 08:21:34 | 01:30:54 | 00:00:00 | |
| HTAHTA | 2026-09-03 08:03:11 | 52.42510 | 8.73941 | 129° | 68km/h | 15931m | -8.2m/s | -53.2°C | 1.5% | 109.9hPa | 2.6V | 00:00:00 | 00:00:00 | 00:00:00 | |
| DM0DOS-11 | 2026-09-03 08:03:10 | 52.42570 | 8.73809 | 120° | 89km/h | 15971m | -7.7m/s | -53.4°C | 4.1% | 109.2hPa | 2.6V | 08:20:53 | 01:30:47 | 00:00:00 | |
| DL1XH-west | 2026-09-03 08:03:10 | 52.42510 | 8.73941 | 129° | 69km/h | 15931m | -8.2m/s | -53.2°C | 1% | 109.9hPa | 2.6V | 08:21:34 | 01:30:52 | 00:00:00 | |
| GOEST3-10 | 2026-09-03 08:03:10 | 52.42510 | 8.73941 | 130° | 78km/h | 15931m | -8.2m/s | -53.1°C | 4.0% | 109.8hPa | 2.7V | 00:00:00 | 01:30:52 | 00:00:00 | |
| DO3DL | 2026-09-03 08:03:09 | 52.42510 | 8.73941 | 130° | 69km/h | 15931m | -8.2m/s | -53.2°C | 1.5% | 109.9hPa | 2.7V | 08:21:00 | 00:00:00 | 00:00:00 | |
| DO2LYB-13 | 2026-09-03 08:03:08 | 52.42521 | 8.73919 | 131° | 73km/h | 15939m | -8.6m/s | -53.2°C | 1.6% | 109.8hPa | 2.7V | 00:00:00 | 00:00:00 | 00:00:00 | |
| DL1XH1-15 | 2026-09-03 08:03:07 | 52.42598 | 8.73708 | 109° | 89km/h | 15995m | -7.8m/s | -53.4°C | 4.2% | 108.8hPa | 2.7V | 08:20:56 | 01:30:44 | 00:00:00 | |
| DO2SHX-10 | 2026-09-03 08:03:07 | 52.42545 | 8.73868 | 127° | 86km/h | 15956m | -7.9m/s | -53.2°C | 4.1% | 109.3hPa | 2.6V | 00:00:00 | 01:30:49 | 00:00:00 | |
| DD1CC8 | 2026-09-03 08:03:06 | 52.42570 | 8.73809 | 120° | 89km/h | 15971m | -7.7m/s | -53.4°C | 1.6% | 109.2hPa | 2.6V | 00:00:00 | 00:00:00 | 00:00:00 | |
| GOEST3-10 | 2026-09-03 08:03:05 | 52.42570 | 8.73809 | 121° | 89km/h | 15972m | -7.6m/s | -53.3°C | 4.1% | 109.1hPa | 2.6V | 00:00:00 | 00:00:00 | 00:00:00 | |
| DL1NUX | 2026-09-03 08:03:04 | 52.42616 | 8.73605 | 101° | 82km/h | 16019m | -8.1m/s | -53.4°C | 4.1% | 108.4hPa | 2.6V | 08:20:59 | 01:30:41 | 00:00:00 | |
| HSKMA3-T | 2026-09-03 08:03:04 | 52.42581 | 8.73776 | 117° | 91km/h | 15979m | -7.8m/s | -53.4°C | 1% | 109hPa | 2.6V | 08:21:34 | 01:30:46 | 00:00:00 | |
| DF8AY | 2026-09-03 08:03:03 | 52.42590 | 8.73742 | 113° | 91km/h | 15987m | -8m/s | -53.4°C | 1% | 108.9hPa | 2.7V | 08:21:34 | 01:30:45 | 00:00:00 | |
| DO2JMG | 2026-09-03 08:03:01 | 52.42606 | 8.73673 | 107° | 88km/h | 16003m | -8m/s | -53.5°C | 1% | 108.6hPa | 2.6V | 08:21:34 | 01:30:43 | 00:00:00 | |
| AA1-15 | 2026-09-03 08:02:59 | 52.42616 | 8.73605 | 102° | 82km/h | 16019m | -8.1m/s | -53.4°C | 1% | 108.4hPa | 2.6V | 08:21:34 | 01:30:41 | 00:00:00 | |
| DJ2DS-15 | 2026-09-03 08:02:58 | 52.42620 | 8.73572 | 98° | 78km/h | 16027m | -8.4m/s | -53.3°C | 1.5% | 108.3hPa | 2.7V | 00:00:00 | 00:00:00 | 00:00:00 | |
| DL1XH1-15 | 2026-09-03 08:02:57 | 52.42629 | 8.73413 | 97° | 49km/h | 16078m | -8.2m/s | -53.3°C | 4.1% | 107.4hPa | 2.7V | 08:21:06 | 01:30:34 | 00:00:00 | |
| DL3AQ-11 | 2026-09-03 08:02:56 | 52.42624 | 8.73511 | 94° | 69km/h | 16044m | -8.2m/s | -53.3°C | 1.5% | 107.9hPa | 2.6V | 00:00:00 | 00:00:00 | 00:00:00 | |
| DB0DAN | 2026-09-03 08:02:55 | 52.42626 | 8.73483 | 93° | 62km/h | 16052m | -8.4m/s | 0°C | 0% | 0hPa | 2.6V | 00:00:00 | 00:00:00 | 00:00:00 | |
| DL1NUX | 2026-09-03 08:02:54 | 52.42639 | 8.73356 | 113° | 47km/h | 16102m | -8m/s | -53.3°C | 4% | 107hPa | 2.6V | 08:21:09 | 01:30:31 | 00:00:00 | |
| BIOWL1-15 | 2026-09-03 08:02:53 | 52.42628 | 8.73434 | 95° | 55km/h | 16069m | -8.4m/s | -53.3°C | 1% | 107.5hPa | 2.6V | 08:21:34 | 01:30:35 | 00:00:00 | |
| DF8AY | 2026-09-03 08:02:52 | 52.42629 | 8.73413 | 98° | 49km/h | 16078m | -8.2m/s | -53.3°C | 1% | 107.4hPa | 2.7V | 08:21:34 | 01:30:34 | 00:00:00 | |
| DO2JMG | 2026-09-03 08:02:51 | 52.42631 | 8.73393 | 103° | 47km/h | 16086m | -8.4m/s | -53.3°C | 1% | 107.3hPa | 2.7V | 08:21:34 | 01:30:33 | 00:00:00 | |
| DL1XH-west | 2026-09-03 08:02:49 | 52.42639 | 8.73356 | 114° | 47km/h | 16102m | -8m/s | -53.3°C | 1% | 107hPa | 2.6V | 08:21:34 | 01:30:31 | 00:00:00 | |
| AA1-15 | 2026-09-03 08:02:48 | 52.42644 | 8.73338 | 117° | 51km/h | 16110m | -7.8m/s | -53.4°C | 0.9% | 106.8hPa | 2.6V | 08:21:34 | 01:30:30 | 00:00:00 | |
| BUE01 | 2026-09-03 08:02:46 | 52.42665 | 8.73276 | 118° | 64km/h | 16134m | -7.8m/s | -53.6°C | 1.5% | 106.5hPa | 2.6V | 00:00:00 | 00:00:00 | 00:00:00 | |
| DF5WG-10 | 2026-09-03 08:02:45 | 52.42665 | 8.73275 | 119° | 78km/h | 16134m | -7.7m/s | -53.6°C | 4.0% | 106.4hPa | 2.6V | 00:00:00 | 01:30:27 | 00:00:00 | |
| DL1NUX | 2026-09-03 08:02:44 | 52.42709 | 8.73106 | 106° | 80km/h | 16181m | -8m/s | -53.7°C | 4.2% | 105.7hPa | 2.6V | 08:21:19 | 01:30:21 | 00:00:00 | |
| HSKMA3-T | 2026-09-03 08:02:43 | 52.42681 | 8.73225 | 116° | 71km/h | 16149m | -7.5m/s | -53.7°C | 0.9% | 106.2hPa | 2.6V | 08:21:34 | 01:30:25 | 00:00:00 | |
| BIOWL1-15 | 2026-09-03 08:02:42 | 52.42689 | 8.73198 | 113° | 75km/h | 16157m | -8m/s | -53.8°C | 0.9% | 106.1hPa | 2.7V | 08:21:34 | 01:30:24 | 00:00:00 | |
| DF8AY | 2026-09-03 08:02:41 | 52.42696 | 8.73169 | 111° | 77km/h | 16165m | -8m/s | -53.7°C | 0.9% | 106hPa | 2.7V | 08:21:34 | 01:30:23 | 00:00:00 | |
| DO2JMG | 2026-09-03 08:02:40 | 52.42703 | 8.73138 | 108° | 78km/h | 16173m | -7.8m/s | -53.7°C | 1% | 105.8hPa | 2.6V | 08:21:34 | 01:30:22 | 00:00:00 | |
| DL1XH-west | 2026-09-03 08:02:38 | 52.42714 | 8.73074 | 104° | 82km/h | 16189m | -8.3m/s | -53.7°C | 1.1% | 105.5hPa | 2.6V | 08:21:34 | 01:30:20 | 00:00:00 | |
| DF8AY-15 | 2026-09-03 08:02:37 | 52.42718 | 8.73041 | 102° | 64km/h | 16198m | -8.3m/s | -53.7°C | 4.3% | 105.3hPa | 2.7V | 00:00:00 | 01:30:19 | 00:00:00 | |
| SONDE2-11 | 2026-09-03 08:02:36 | 52.42725 | 8.72974 | 96° | 80km/h | 16214m | -8.3m/s | -53.8°C | 1.6% | 105.1hPa | 2.7V | 00:00:00 | 00:00:00 | 00:00:00 | |
| DD1CC8 | 2026-09-03 08:02:35 | 52.42727 | 8.72941 | 94° | 80km/h | 16223m | -8.2m/s | -53.9°C | 1.6% | 105.0hPa | 2.7V | 00:00:00 | 00:00:00 | 00:00:00 | |
| DL1NUX | 2026-09-03 08:02:34 | 52.42726 | 8.72786 | 85° | 68km/h | 16264m | -8.4m/s | -54.2°C | 4.3% | 104.3hPa | 2.7V | 08:21:29 | 01:30:11 | 00:00:00 | |
| BIOWL1-15 | 2026-09-03 08:02:33 | 52.42728 | 8.72845 | 88° | 75km/h | 16247m | -8.2m/s | -54.1°C | 1.1% | 104.6hPa | 2.7V | 08:21:34 | 01:30:13 | 00:00:00 | |
| HSKMA3-T | 2026-09-03 08:02:32 | 52.42728 | 8.72876 | 90° | 77km/h | 16239m | -8.1m/s | -54°C | 1.1% | 104.7hPa | 2.6V | 08:21:34 | 01:30:14 | 00:00:00 | |
| DO2JMG | 2026-09-03 08:02:30 | 52.42727 | 8.72815 | 86° | 71km/h | 16255m | -8.4m/s | -54.2°C | 1.1% | 104.5hPa | 2.7V | 08:21:34 | 01:30:12 | 00:00:00 | |
| BIOWL9-15 | 2026-09-03 08:02:30 | 52.42726 | 8.72786 | 85° | 68km/h | 16264m | -8.4m/s | -54.2°C | 1.6% | 104.3hPa | 2.7V | 00:00:00 | 00:00:00 | 00:00:00 | |
| DJ2KF-10 | 2026-09-03 08:02:29 | 52.42726 | 8.72786 | 86° | 68km/h | 16264m | -8.4m/s | -54.2°C | 4.3% | 104.3hPa | 2.7V | 00:00:00 | 01:30:11 | 00:00:00 | |
| DL3OBA | 2026-09-03 08:02:28 | 52.42726 | 8.72786 | 87° | 68km/h | 16264m | -8.4m/s | -54.2°C | 1.6% | 104.3hPa | 2.6V | 08:21:00 | 00:00:00 | 00:00:00 | |
| DL1XH1-15 | 2026-09-03 08:02:27 | 52.42728 | 8.72623 | 101° | 49km/h | 16321m | -8.3m/s | -54°C | 4.1% | 103.3hPa | 2.6V | 08:21:36 | 01:30:04 | 00:00:00 | |
| DL1XH-west | 2026-09-03 08:02:27 | 52.42724 | 8.72733 | 87° | 60km/h | 16280m | -8.2m/s | -54.2°C | 1.1% | 104.1hPa | 2.6V | 08:21:34 | 01:30:09 | 00:00:00 | |
| DB0DAN | 2026-09-03 08:02:25 | 52.42723 | 8.72685 | 92° | 51km/h | 16296m | -7.9m/s | 0°C | 0% | 0hPa | 2.7V | 00:00:00 | 00:00:00 | 00:00:00 | |
| AU51GT2 | 2026-09-03 08:02:25 | 52.42724 | 8.72664 | 95° | 49km/h | 16305m | -8.2m/s | -54.0°C | 1.5% | 103.6hPa | 2.6V | 00:00:00 | 00:00:00 | 00:00:00 | |
| DL1NUX | 2026-09-03 08:02:24 | 52.42738 | 8.72564 | 112° | 51km/h | 16346m | -8.3m/s | -53.8°C | 4% | 103hPa | 2.6V | 08:21:39 | 01:30:01 | 00:00:00 | |
| HSKMA3-T | 2026-09-03 08:02:21 | 52.42731 | 8.72603 | 105° | 49km/h | 16329m | -8.3m/s | -53.9°C | 0.9% | 103.3hPa | 2.7V | 08:22:25 | 01:30:03 | 00:00:00 | |
| DO2JMG | 2026-09-03 08:02:20 | 52.42734 | 8.72584 | 108° | 49km/h | 16338m | -8.1m/s | -53.8°C | 1% | 103.1hPa | 2.7V | 08:22:25 | 01:30:02 | 00:00:00 | |
| DF8AY | 2026-09-03 08:02:19 | 52.42738 | 8.72564 | 112° | 51km/h | 16346m | -8.4m/s | -53.8°C | 0.9% | 103hPa | 2.6V | 08:22:25 | 01:30:01 | 00:00:00 | |
| DB0NH | 2026-09-03 08:02:19 | 52.42738 | 8.72564 | 113° | 71km/h | 16346m | -8.3m/s | -53.7°C | 4.0% | 103.0hPa | 2.6V | 00:00:00 | 01:30:01 | 00:00:00 | |
| DL1XH1-15 | 2026-09-03 08:02:17 | 52.42797 | 8.72413 | 123° | 77km/h | 16405m | -8.4m/s | -53.7°C | 4% | 102hPa | 2.6V | 08:21:46 | 01:29:54 | 00:00:00 | |
| AA1-15 | 2026-09-03 08:02:17 | 52.42750 | 8.72525 | 120° | 55km/h | 16363m | -8.4m/s | -53.7°C | 0.8% | 102.7hPa | 2.6V | 08:22:25 | 01:29:59 | 00:00:00 | |
| DD8BA-10 | 2026-09-03 08:02:17 | 52.42750 | 8.72525 | 121° | 73km/h | 16363m | -8.3m/s | -53.7°C | 3.9% | 102.6hPa | 2.7V | 00:00:00 | 00:00:00 | 00:00:00 | |
| DK5PH-5 | 2026-09-03 08:02:16 | 52.42758 | 8.72505 | 124° | 75km/h | 16371m | -8.3m/s | -53.6°C | 3.8% | 102.5hPa | 2.7V | 00:00:00 | 01:29:58 | 00:00:00 | |
| BUE01 | 2026-09-03 08:02:15 | 52.42776 | 8.72462 | 125° | 68km/h | 16388m | -8.5m/s | -53.6°C | 1.4% | 102.3hPa | 2.7V | 00:00:00 | 00:00:00 | 00:00:00 | |
| DL1NUX | 2026-09-03 08:02:14 | 52.42828 | 8.72324 | 115° | 88km/h | 16431m | -8.4m/s | -53.8°C | 4.2% | 101.6hPa | 2.7V | 08:21:49 | 01:29:51 | 00:00:00 | |
| HSKMA3-T | 2026-09-03 08:02:11 | 52.42808 | 8.72385 | 121° | 80km/h | 16414m | -8.6m/s | -53.7°C | 0.8% | 101.9hPa | 2.6V | 08:22:25 | 01:29:53 | 00:00:00 | |
| BIOWL1-15 | 2026-09-03 08:02:10 | 52.42818 | 8.72356 | 119° | 84km/h | 16422m | -8.4m/s | -53.8°C | 0.9% | 101.8hPa | 2.7V | 08:22:25 | 01:29:52 | 00:00:00 | |
| DO2JMG | 2026-09-03 08:02:09 | 52.42828 | 8.72324 | 116° | 88km/h | 16431m | -8.4m/s | -53.8°C | 1% | 101.6hPa | 2.7V | 08:22:25 | 01:29:51 | 00:00:00 | |
| DL3OBA | 2026-09-03 08:02:08 | 52.42828 | 8.72324 | 117° | 88km/h | 16431m | -8.4m/s | -53.8°C | 1.5% | 101.6hPa | 2.6V | 08:22:00 | 00:00:00 | 00:00:00 | |
| DL1XH1-15 | 2026-09-03 08:02:07 | 52.42866 | 8.72087 | 95° | 73km/h | 16490m | -8.6m/s | -54.3°C | 4.2% | 100.7hPa | 2.6V | 08:21:56 | 01:29:44 | 00:00:00 | |
| DL1XH-west | 2026-09-03 08:02:06 | 52.42852 | 8.72221 | 106° | 89km/h | 16456m | -8.5m/s | -54°C | 1% | 101.2hPa | 2.6V | 08:22:25 | 01:29:48 | 00:00:00 | |
| GOEST3-10 | 2026-09-03 08:02:05 | 52.42857 | 8.72186 | 103° | 78km/h | 16465m | -8.5m/s | -54.0°C | 4.3% | 101.1hPa | 2.6V | 00:00:00 | 00:00:00 | 00:00:00 | |
| DO3DL | 2026-09-03 08:02:04 | 52.42857 | 8.72186 | 103° | 88km/h | 16465m | -8.5m/s | -54.0°C | 1.5% | 101.1hPa | 2.6V | 08:22:00 | 00:00:00 | 00:00:00 | |
| DL4XJ-10 | 2026-09-03 08:02:03 | 52.42864 | 8.72119 | 98° | 75km/h | 16482m | -8.3m/s | -53.1°C | 0% | 0hPa | 2.6V | 00:00:00 | 00:00:00 | 00:00:00 | |
| DL1XH-15 | 2026-09-03 08:02:02 | 52.42878 | 8.71964 | 109° | 53km/h | 16534m | -8.7m/s | -54.6°C | 4.3% | 100hPa | 2.6V | 08:22:01 | 01:29:39 | 00:00:00 | |
| BIOWL7-15 | 2026-09-03 08:02:02 | 52.42866 | 8.72087 | 96° | 73km/h | 16491m | -8.6m/s | -54.3°C | 1.5% | 100.7hPa | 2.7V | 08:22:00 | 00:00:00 | 00:00:00 | |
| DC6BW-12 | 2026-09-03 08:02:01 | 52.42866 | 8.72087 | 96° | 73km/h | 16491m | -8.6m/s | -54.3°C | 1.6% | 100.7hPa | 2.7V | 08:22:00 | 00:00:00 | 00:00:00 | |
| DM0DOS-11 | 2026-09-03 08:02:00 | 52.42889 | 8.71924 | 119° | 57km/h | 16551m | -8.9m/s | -54.6°C | 4.2% | 99.7hPa | 2.7V | 08:22:03 | 01:29:37 | 00:00:00 | |
| HSKMA3-T | 2026-09-03 08:02:00 | 52.42870 | 8.72032 | 96° | 62km/h | 16508m | -8.6m/s | -54.5°C | 0.9% | 100.4hPa | 2.7V | 08:22:25 | 01:29:42 | 00:00:00 | |
| DO2JMG | 2026-09-03 08:01:59 | 52.42872 | 8.72007 | 99° | 57km/h | 16516m | -8.6m/s | -54.5°C | 1% | 100.3hPa | 2.7V | 08:22:25 | 01:29:41 | 00:00:00 | |
| DF8AY | 2026-09-03 08:01:58 | 52.42874 | 8.71985 | 104° | 53km/h | 16525m | -8.5m/s | -54.6°C | 0.9% | 100.1hPa | 2.6V | 08:22:25 | 01:29:40 | 00:00:00 | |
| DL1XH-west | 2026-09-03 08:01:55 | 52.42889 | 8.71924 | 120° | 57km/h | 16552m | -8.9m/s | -54.6°C | 0.9% | 99.8hPa | 2.7V | 08:22:25 | 01:29:37 | 00:00:00 | |
| DB0DAN | 2026-09-03 08:01:55 | 52.42889 | 8.71924 | 120° | 53km/h | 16552m | -8.9m/s | 0°C | 0% | 0hPa | 2.7V | 00:00:00 | 00:00:00 | 00:00:00 | |
| SMARD9-15 | 2026-09-03 08:01:53 | 52.42917 | 8.71857 | 127° | 73km/h | 16577m | -8.4m/s | -54.6°C | 1.5% | 99.3hPa | 2.6V | 00:00:00 | 00:00:00 | 00:00:00 | |
| DO1YAY-16 | 2026-09-03 08:01:52 | 52.42929 | 8.71832 | 126° | 80km/h | 16586m | -8.4m/s | -54.6°C | 1.5% | 99.2hPa | 2.6V | 00:00:00 | 00:00:00 | 00:00:00 | |
| DM0DOS-11 | 2026-09-03 08:01:50 | 52.42997 | 8.71634 | 110° | 97km/h | 16638m | -8.8m/s | -54°C | 4.3% | 98.4hPa | 2.6V | 08:22:13 | 01:29:27 | 00:00:00 | |
| HSKMA3-T | 2026-09-03 08:01:50 | 52.42941 | 8.71804 | 125° | 86km/h | 16594m | -8.5m/s | -54.5°C | 1.1% | 99.1hPa | 2.6V | 08:22:25 | 01:29:32 | 00:00:00 | |
| DO2JMG | 2026-09-03 08:01:49 | 52.42953 | 8.71774 | 123° | 89km/h | 16603m | -8.6m/s | -54.4°C | 1.1% | 99hPa | 2.7V | 08:22:25 | 01:29:31 | 00:00:00 | |
| DF8AY | 2026-09-03 08:01:48 | 52.42965 | 8.71741 | 120° | 93km/h | 16612m | -8.9m/s | -54.2°C | 1.1% | 98.8hPa | 2.7V | 08:22:25 | 01:29:30 | 00:00:00 | |
| DL1XH-west | 2026-09-03 08:01:45 | 52.42997 | 8.71634 | 111° | 97km/h | 16638m | -8.8m/s | -54°C | 1.1% | 98.4hPa | 2.6V | 08:22:25 | 01:29:27 | 00:00:00 | |
| DL1NUX | 2026-09-03 08:01:44 | 52.43027 | 8.71426 | 99° | 71km/h | 16689m | -8.8m/s | -54.3°C | 4.2% | 97.6hPa | 2.7V | 08:22:19 | 01:29:21 | 00:00:00 | |
| AA1-15 | 2026-09-03 08:01:44 | 52.43005 | 8.71597 | 108° | 95km/h | 16647m | -8.8m/s | -54°C | 1% | 98.3hPa | 2.6V | 08:22:25 | 01:29:26 | 00:00:00 | |
| BUE01 | 2026-09-03 08:01:44 | 52.43011 | 8.71559 | 104° | 93km/h | 16655m | -8.4m/s | -54.1°C | 1.5% | 98.2hPa | 2.7V | 00:00:00 | 00:00:00 | 00:00:00 | |
| SO1NDE-10 | 2026-09-03 08:01:43 | 52.43011 | 8.71559 | 105° | 71km/h | 16655m | -8.4m/s | -54.1°C | 4.3% | 98.1hPa | 2.7V | 00:00:00 | 01:29:25 | 00:00:00 | |
| EDDB2-11 | 2026-09-03 08:01:42 | 52.43016 | 8.71523 | 101° | 88km/h | 16664m | -8.3m/s | -54.2°C | 1.5% | 98.0hPa | 2.6V | 00:00:00 | 00:00:00 | 00:00:00 | |
| DO2LYB-13 | 2026-09-03 08:01:41 | 52.43016 | 8.71523 | 103° | 88km/h | 16664m | -8.3m/s | -54.2°C | 1.6% | 98.0hPa | 2.6V | 00:00:00 | 00:00:00 | 00:00:00 | |
| DM0DOS-11 | 2026-09-03 08:01:40 | 52.43042 | 8.71328 | 114° | 55km/h | 16725m | -9m/s | -54.1°C | 4.1% | 97.1hPa | 2.6V | 08:22:23 | 01:29:17 | 00:00:00 | |
| DB0DAN | 2026-09-03 08:01:40 | 52.43024 | 8.71456 | 99° | 73km/h | 16680m | -8.7m/s | 0°C | 0% | 0hPa | 2.6V | 00:00:00 | 00:00:00 | 00:00:00 | |
| HSKMA3-T | 2026-09-03 08:01:39 | 52.43027 | 8.71426 | 100° | 71km/h | 16689m | -8.9m/s | -54.3°C | 0.9% | 97.6hPa | 2.7V | 08:22:25 | 01:29:21 | 00:00:00 | |
| BIOWL1-15 | 2026-09-03 08:01:38 | 52.43030 | 8.71398 | 101° | 66km/h | 16698m | -9.2m/s | -54.2°C | 0.9% | 97.5hPa | 2.7V | 08:22:25 | 01:29:20 | 00:00:00 | |
| DF8AY | 2026-09-03 08:01:37 | 52.43033 | 8.71373 | 104° | 60km/h | 16707m | -8.9m/s | -54.1°C | 0.9% | 97.3hPa | 2.6V | 08:22:25 | 01:29:19 | 00:00:00 | |
| DL3AQ-11 | 2026-09-03 08:01:37 | 52.43037 | 8.71349 | 108° | 57km/h | 16716m | -9.0m/s | -54.1°C | 1.4% | 97.2hPa | 2.6V | 00:00:00 | 00:00:00 | 00:00:00 | |
| GOEST3-10 | 2026-09-03 08:01:35 | 52.43042 | 8.71327 | 115° | 58km/h | 16726m | -9.0m/s | -54.0°C | 4.1% | 97.1hPa | 2.6V | 00:00:00 | 00:00:00 | 00:00:00 | |
| DL1NUX | 2026-09-03 08:01:34 | 52.43101 | 8.71210 | 135° | 77km/h | 16779m | -8.9m/s | -54°C | 4.3% | 96.3hPa | 2.6V | 08:22:29 | 01:29:11 | 00:00:00 | |
| DL1XH-west | 2026-09-03 08:01:34 | 52.43049 | 8.71307 | 121° | 55km/h | 16734m | -8.5m/s | -54.1°C | 1% | 97hPa | 2.7V | 08:22:25 | 01:29:16 | 00:00:00 | |
| DL1XH-15 | 2026-09-03 08:01:33 | 52.43115 | 8.71187 | 134° | 82km/h | 16787m | -7.7m/s | -54°C | 4.3% | 96.1hPa | 2.7V | 08:22:30 | 01:29:10 | 00:00:00 | |
| NBG1-10 | 2026-09-03 08:01:33 | 52.43056 | 8.71288 | 127° | 46km/h | 16743m | -8.6m/s | 0°C | 0% | 0hPa | 2.6V | 00:00:00 | 01:29:15 | 00:00:00 | |
| DD1CC8 | 2026-09-03 08:01:32 | 52.43066 | 8.71270 | 131° | 58km/h | 16752m | -8.8m/s | -54.1°C | 1.5% | 96.7hPa | 2.6V | 00:00:00 | 00:00:00 | 00:00:00 | |
| DO3DL | 2026-09-03 08:01:31 | 52.43066 | 8.71270 | 132° | 60km/h | 16752m | -8.8m/s | -54.1°C | 1.5% | 96.7hPa | 2.6V | 08:23:00 | 00:00:00 | 00:00:00 | |
| DM0DOS-11 | 2026-09-03 08:01:30 | 52.43156 | 8.71104 | 124° | 89km/h | 16813m | -8.6m/s | -53.9°C | 4.4% | 95.8hPa | 2.6V | 08:22:33 | 01:29:07 | 00:00:00 | |
| DO2JMG | 2026-09-03 08:01:28 | 52.43115 | 8.71187 | 134° | 82km/h | 16787m | -7.7m/s | -54°C | 1% | 96.1hPa | 2.7V | 08:23:16 | 01:29:10 | 00:00:00 | |
| BIOWL1-15 | 2026-09-03 08:01:27 | 52.43129 | 8.71162 | 131° | 86km/h | 16796m | -8.6m/s | -53.9°C | 1% | 96hPa | 2.7V | 08:23:16 | 01:29:09 | 00:00:00 | |
| DF8AY | 2026-09-03 08:01:26 | 52.43143 | 8.71134 | 128° | 89km/h | 16804m | -8.7m/s | -53.9°C | 1.1% | 95.9hPa | 2.7V | 08:23:16 | 01:29:08 | 00:00:00 | |
| DB0DAN | 2026-09-03 08:01:25 | 52.43157 | 8.71104 | 124° | 86km/h | 16813m | -8.6m/s | 0°C | 0% | 0hPa | 2.6V | 00:00:00 | 00:00:00 | 00:00:00 | |
| DL1NUX | 2026-09-03 08:01:24 | 52.43207 | 8.70919 | 106° | 68km/h | 16865m | -8.6m/s | -53.5°C | 4.1% | 95hPa | 2.6V | 08:22:39 | 01:29:01 | 00:00:00 | |
| DL1XH-15 | 2026-09-03 08:01:23 | 52.43211 | 8.70893 | 105° | 62km/h | 16874m | -8.9m/s | -53.3°C | 4% | 94.8hPa | 2.6V | 08:22:40 | 01:29:00 | 00:00:00 | |
| DL1XH-west | 2026-09-03 08:01:23 | 52.43179 | 8.71040 | 116° | 88km/h | 16830m | -8.4m/s | -53.9°C | 1% | 95.4hPa | 2.6V | 08:23:16 | 01:29:05 | 00:00:00 | |
| DL4XJ-10 | 2026-09-03 08:01:23 | 52.43179 | 8.71040 | 117° | 58km/h | 16831m | -8.4m/s | -52.8°C | 0% | 0hPa | 2.7V | 00:00:00 | 00:00:00 | 00:00:00 | |
| SMARD9-15 | 2026-09-03 08:01:22 | 52.43195 | 8.70977 | 109° | 78km/h | 16848m | -8.6m/s | -53.7°C | 1.5% | 95.3hPa | 2.7V | 00:00:00 | 00:00:00 | 00:00:00 | |
| DM0DOS-11 | 2026-09-03 08:01:20 | 52.43222 | 8.70828 | 108° | 47km/h | 16901m | -8.9m/s | -53°C | 3.8% | 94.4hPa | 2.7V | 08:22:43 | 01:28:57 | 00:00:00 | |
| HSKMA3-T | 2026-09-03 08:01:18 | 52.43211 | 8.70893 | 105° | 62km/h | 16874m | -8.9m/s | -53.3°C | 0.8% | 94.8hPa | 2.6V | 08:23:16 | 01:29:00 | 00:00:00 | |
| BIOWL1-15 | 2026-09-03 08:01:17 | 52.43215 | 8.70869 | 105° | 57km/h | 16883m | -9.5m/s | -53.2°C | 0.8% | 94.7hPa | 2.6V | 08:23:16 | 01:28:59 | 00:00:00 | |
| DF8AY | 2026-09-03 08:01:16 | 52.43219 | 8.70847 | 106° | 53km/h | 16892m | -9m/s | -53.1°C | 0.8% | 94.5hPa | 2.7V | 08:23:16 | 01:28:58 | 00:00:00 | |
| DK5PH-5 | 2026-09-03 08:01:16 | 52.43219 | 8.70847 | 106° | 49km/h | 16893m | -9.0m/s | -53.1°C | 3.9% | 94.5hPa | 2.7V | 00:00:00 | 01:28:58 | 00:00:00 | |
| GOEST3-10 | 2026-09-03 08:01:15 | 52.43223 | 8.70828 | 109° | 42km/h | 16901m | -8.9m/s | -53.0°C | 3.8% | 94.4hPa | 2.7V | 00:00:00 | 00:00:00 | 00:00:00 | |
| DL1NUX | 2026-09-03 08:01:14 | 52.43260 | 8.70744 | 143° | 49km/h | 16954m | -8.5m/s | -53.1°C | 3.8% | 93.6hPa | 2.6V | 08:22:49 | 01:28:51 | 00:00:00 | |
| DL1XH-15 | 2026-09-03 08:01:13 | 52.43271 | 8.70731 | 144° | 55km/h | 16963m | -9m/s | -53.1°C | 3.8% | 93.5hPa | 2.6V | 08:22:50 | 01:28:50 | 00:00:00 | |
| DL1XH-west | 2026-09-03 08:01:12 | 52.43237 | 8.70780 | 127° | 40km/h | 16928m | -8.6m/s | -53°C | 0.7% | 94hPa | 2.7V | 08:23:16 | 01:28:54 | 00:00:00 | |
| EDDB2-11 | 2026-09-03 08:01:11 | 52.43243 | 8.70768 | 134° | 40km/h | 16937m | -8.5m/s | -53.0°C | 1.3% | 93.9hPa | 2.7V | 00:00:00 | 00:00:00 | 00:00:00 | |
| DM0DOS-11 | 2026-09-03 08:01:10 | 52.43308 | 8.70685 | 139° | 68km/h | 16989m | -8.6m/s | -53.2°C | 3.9% | 93.1hPa | 2.7V | 08:22:53 | 01:28:47 | 00:00:00 | |
| DB0DAN | 2026-09-03 08:01:10 | 52.43251 | 8.70756 | 140° | 42km/h | 16945m | -8.6m/s | 0°C | 0% | 0hPa | 2.6V | 00:00:00 | 00:00:00 | 00:00:00 | |
| DF8AY | 2026-09-03 08:01:07 | 52.43295 | 8.70702 | 142° | 64km/h | 16980m | -8.8m/s | -53.2°C | 0.7% | 93.3hPa | 2.7V | 08:23:16 | 01:28:48 | 00:00:00 | |
| BIOWL1-15 | 2026-09-03 08:01:07 | 52.43283 | 8.70718 | 144° | 60km/h | 16972m | -8.6m/s | -53.1°C | 0.7% | 93.4hPa | 2.7V | 08:23:16 | 01:28:49 | 00:00:00 | |
| DK9SH | 2026-09-03 08:01:07 | 52.43283 | 8.70718 | 145° | 58km/h | 16972m | -8.6m/s | -53.1°C | 1.3% | 93.4hPa | 2.6V | 08:23:00 | 00:00:00 | 00:00:00 | |
| DL3OBA | 2026-09-03 08:01:06 | 52.43283 | 8.70718 | 145° | 58km/h | 16972m | -8.6m/s | -53.1°C | 1.3% | 93.4hPa | 2.6V | 08:23:00 | 00:00:00 | 00:00:00 | |
| DF8AY-15 | 2026-09-03 08:01:05 | 52.43308 | 8.70685 | 140° | 49km/h | 16989m | -8.6m/s | -53.1°C | 3.9% | 93.1hPa | 2.6V | 00:00:00 | 01:28:47 | 00:00:00 | |
| DF4FW | 2026-09-03 08:01:04 | 52.43308 | 8.70685 | 140° | 68km/h | 16989m | -8.6m/s | -53.2°C | 1.4% | 93.1hPa | 2.6V | 08:23:00 | 00:00:00 | 00:00:00 | |
| SONDE2-11 | 2026-09-03 08:01:03 | 52.43345 | 8.70621 | 127° | 73km/h | 17015m | -8.8m/s | -53.4°C | 1.4% | 92.8hPa | 2.6V | 00:00:00 | 00:00:00 | 00:00:00 | |
| DL1XH-15 | 2026-09-03 08:01:02 | 52.43383 | 8.70496 | 104° | 60km/h | 17058m | -8.6m/s | -53.5°C | 4% | 92.2hPa | 2.6V | 08:23:01 | 01:28:39 | 00:00:00 | |
| DL1XH-west | 2026-09-03 08:01:02 | 52.43345 | 8.70621 | 128° | 73km/h | 17015m | -8.8m/s | -53.4°C | 0.8% | 92.8hPa | 2.6V | 08:23:16 | 01:28:44 | 00:00:00 | |
| DD1CC8 | 2026-09-03 08:01:01 | 52.43356 | 8.70597 | 123° | 71km/h | 17024m | -8.7m/s | -53.4°C | 1.4% | 92.7hPa | 2.6V | 00:00:00 | 00:00:00 | 00:00:00 | |
| DB0UT-7 | 2026-09-03 08:00:59 | 52.43373 | 8.70545 | 114° | 46km/h | 17041m | -8.5m/s | -53.4°C | 4.1% | 92.4hPa | 2.6V | 00:00:00 | 00:00:00 | 00:00:00 | |
| DO3DL | 2026-09-03 08:00:58 | 52.43373 | 8.70546 | 115° | 68km/h | 17041m | -8.6m/s | -53.5°C | 1.4% | 92.4hPa | 2.6V | 08:23:00 | 00:00:00 | 00:00:00 | |
| DL1XH1-15 | 2026-09-03 08:00:57 | 52.43391 | 8.70397 | 93° | 35km/h | 17104m | -8.8m/s | -53.4°C | 3.9% | 91.5hPa | 2.6V | 08:23:06 | 01:28:34 | 00:00:00 | |
| HSKMA3-T | 2026-09-03 08:00:57 | 52.43383 | 8.70496 | 105° | 60km/h | 17058m | -8.6m/s | -53.5°C | 0.8% | 92.2hPa | 2.6V | 08:23:16 | 01:28:39 | 00:00:00 | |
| DO2JMG | 2026-09-03 08:00:56 | 52.43386 | 8.70472 | 101° | 57km/h | 17067m | -9m/s | -53.5°C | 0.8% | 92hPa | 2.6V | 08:23:16 | 01:28:38 | 00:00:00 | |
| DF8AY | 2026-09-03 08:00:55 | 52.43389 | 8.70450 | 97° | 51km/h | 17076m | -9.3m/s | -53.5°C | 0.8% | 91.9hPa | 2.7V | 08:23:16 | 01:28:37 | 00:00:00 | |
| DL1XH-west | 2026-09-03 08:00:52 | 52.43391 | 8.70397 | 94° | 35km/h | 17104m | -8.8m/s | -53.4°C | 0.8% | 91.5hPa | 2.6V | 08:23:16 | 01:28:34 | 00:00:00 | |
| AA1-15 | 2026-09-03 08:00:51 | 52.43392 | 8.70384 | 98° | 29km/h | 17112m | -8.5m/s | -53.4°C | 0.8% | 91.4hPa | 2.6V | 08:23:16 | 01:28:33 | 00:00:00 | |
| SMARD9-15 | 2026-09-03 08:00:51 | 52.43393 | 8.70374 | 105° | 24km/h | 17121m | -8.7m/s | -53.5°C | 1.4% | 91.2hPa | 2.6V | 00:00:00 | 00:00:00 | 00:00:00 | |
| DL8DAS-14 | 2026-09-03 08:00:48 | 52.43403 | 8.70351 | 142° | 24km/h | 17147m | -8.9m/s | -53.6°C | 1.4% | 90.8hPa | 2.6V | 00:00:00 | 00:00:00 | 00:00:00 | |
| DL1XH1-15 | 2026-09-03 08:00:47 | 52.43442 | 8.70304 | 135° | 53km/h | 17191m | -8.5m/s | -54°C | 3.9% | 90.2hPa | 2.6V | 08:23:16 | 01:28:24 | 00:00:00 | |
| HSKMA3-T | 2026-09-03 08:00:47 | 52.43403 | 8.70351 | 142° | 26km/h | 17147m | -8.9m/s | -53.6°C | 0.8% | 90.8hPa | 2.6V | 08:23:16 | 01:28:29 | 00:00:00 | |
| DO2JMG | 2026-09-03 08:00:45 | 52.43415 | 8.70337 | 148° | 35km/h | 17165m | -9m/s | -53.8°C | 0.7% | 90.6hPa | 2.7V | 08:23:16 | 01:28:27 | 00:00:00 | |
| DF8AY | 2026-09-03 08:00:44 | 52.43423 | 8.70328 | 146° | 42km/h | 17174m | -8.5m/s | -53.9°C | 0.7% | 90.5hPa | 2.7V | 08:23:16 | 01:28:26 | 00:00:00 | |
| DL1XH-west | 2026-09-03 08:00:41 | 52.43451 | 8.70287 | 129° | 57km/h | 17200m | -8.4m/s | -54.1°C | 0.8% | 90.1hPa | 2.6V | 08:24:07 | 01:28:23 | 00:00:00 | |
| AA1-15 | 2026-09-03 08:00:40 | 52.43460 | 8.70268 | 123° | 58km/h | 17208m | -8.7m/s | -54.1°C | 0.8% | 90.1hPa | 2.7V | 08:24:07 | 01:28:22 | 00:00:00 | |
| DB0DAN | 2026-09-03 08:00:40 | 52.43460 | 8.70268 | 123° | 57km/h | 17208m | -8.7m/s | 0°C | 0% | 0hPa | 2.7V | 00:00:00 | 00:00:00 | 00:00:00 | |
| DO3DL | 2026-09-03 08:00:39 | 52.43459 | 8.70268 | 124° | 58km/h | 17208m | -8.7m/s | -54.1°C | 1.4% | 90.1hPa | 2.7V | 08:24:00 | 00:00:00 | 00:00:00 | |
| MET0W-2 | 2026-09-03 08:00:38 | 52.43478 | 8.70200 | 105° | 60km/h | 17235m | -9.1m/s | -54.0°C | 1.4% | 89.6hPa | 2.7V | 00:00:00 | 00:00:00 | 00:00:00 | |
| DL1XH1-15 | 2026-09-03 08:00:37 | 52.43481 | 8.70088 | 78° | 46km/h | 17280m | -8.6m/s | -54.3°C | 4.1% | 89hPa | 2.7V | 08:23:26 | 01:28:14 | 00:00:00 | |
| HSKMA3-T | 2026-09-03 08:00:36 | 52.43482 | 8.70176 | 100° | 60km/h | 17244m | -9.1m/s | -54°C | 0.9% | 89.5hPa | 2.6V | 08:24:07 | 01:28:18 | 00:00:00 | |
| DO2JMG | 2026-09-03 08:00:34 | 52.43484 | 8.70129 | 89° | 55km/h | 17262m | -9m/s | -54.1°C | 0.9% | 89.2hPa | 2.7V | 08:24:07 | 01:28:16 | 00:00:00 | |
| DL1NUX | 2026-09-03 08:00:34 | 52.43474 | 8.70044 | 78° | 27km/h | 17306m | -8.8m/s | -54.6°C | 4.1% | 88.6hPa | 2.6V | 08:23:29 | 01:28:11 | 00:00:00 | |
| DF8AY | 2026-09-03 08:00:33 | 52.43483 | 8.70107 | 83° | 49km/h | 17271m | -8.9m/s | -54.2°C | 0.8% | 89.1hPa | 2.7V | 08:24:07 | 01:28:15 | 00:00:00 | |
| SONDE2-11 | 2026-09-03 08:00:32 | 52.43478 | 8.70071 | 74° | 38km/h | 17289m | -8.9m/s | -54.4°C | 1.4% | 88.9hPa | 2.6V | 00:00:00 | 00:00:00 | 00:00:00 | |
| DM0DOS-11 | 2026-09-03 08:00:30 | 52.43480 | 8.70003 | 124° | 31km/h | 17342m | -8.7m/s | -54.6°C | 4.1% | 88.1hPa | 2.6V | 08:23:33 | 01:28:07 | 00:00:00 | |
| DL1XH-west | 2026-09-03 08:00:30 | 52.43476 | 8.70056 | 74° | 33km/h | 17297m | -8.8m/s | -54.5°C | 0.8% | 88.8hPa | 2.6V | 08:24:07 | 01:28:12 | 00:00:00 | |
| AA1-15 | 2026-09-03 08:00:29 | 52.43474 | 8.70044 | 78° | 27km/h | 17306m | -8.8m/s | -54.6°C | 0.8% | 88.6hPa | 2.6V | 08:24:07 | 01:28:11 | 00:00:00 | |
| DB0UT-7 | 2026-09-03 08:00:29 | 52.43474 | 8.70043 | 79° | 51km/h | 17307m | -8.7m/s | -54.5°C | 4.1% | 88.6hPa | 2.7V | 00:00:00 | 01:28:11 | 00:00:00 | |
| DO2SHX-10 | 2026-09-03 08:00:28 | 52.43473 | 8.70033 | 89° | 26km/h | 17315m | -8.7m/s | -54.6°C | 4.1% | 88.5hPa | 2.7V | 00:00:00 | 01:28:10 | 00:00:00 | |
| DL1XH1-15 | 2026-09-03 08:00:27 | 52.43499 | 8.69962 | 125° | 49km/h | 17368m | -9m/s | -54.6°C | 4.2% | 87.8hPa | 2.7V | 08:23:36 | 01:28:04 | 00:00:00 | |
| HSKMA3-T | 2026-09-03 08:00:26 | 52.43476 | 8.70013 | 117° | 27km/h | 17333m | -9m/s | -54.6°C | 0.8% | 88.3hPa | 2.7V | 08:24:07 | 01:28:08 | 00:00:00 | |
| DB0DAN | 2026-09-03 08:00:25 | 52.43480 | 8.70003 | 125° | 31km/h | 17342m | -8.7m/s | 0°C | 0% | 0hPa | 2.6V | 00:00:00 | 00:00:00 | 00:00:00 | |
| BIOWL1-15 | 2026-09-03 08:00:24 | 52.43485 | 8.69992 | 128° | 38km/h | 17350m | -8.8m/s | -54.6°C | 0.8% | 88.1hPa | 2.6V | 08:24:07 | 01:28:06 | 00:00:00 | |
| DF8AY | 2026-09-03 08:00:23 | 52.43491 | 8.69978 | 128° | 44km/h | 17359m | -8.9m/s | -54.7°C | 0.9% | 87.9hPa | 2.6V | 08:24:07 | 01:28:05 | 00:00:00 | |
| DL4XJ-10 | 2026-09-03 08:00:23 | 52.43491 | 8.69978 | 128° | 57km/h | 17360m | -8.9m/s | -53.6°C | 0% | 0hPa | 2.7V | 00:00:00 | 00:00:00 | 00:00:00 | |
| DO2SHX-10 | 2026-09-03 08:00:22 | 52.43499 | 8.69962 | 126° | 55km/h | 17368m | -8.9m/s | -54.6°C | 4.2% | 87.7hPa | 2.7V | 00:00:00 | 01:28:04 | 00:00:00 | |
| SMARD9-10 | 2026-09-03 08:00:21 | 52.43499 | 8.69962 | 126° | 51km/h | 17368m | -9.0m/s | -54.6°C | 1.4% | 87.8hPa | 2.7V | 08:24:00 | 00:00:00 | 00:00:00 | |
| DM0DOS-11 | 2026-09-03 08:00:20 | 52.43537 | 8.69790 | 93° | 71km/h | 17431m | -8.5m/s | -54.8°C | 4.7% | 86.9hPa | 2.7V | 08:23:43 | 01:27:57 | 00:00:00 | |
| DL1XH-west | 2026-09-03 08:00:20 | 52.43513 | 8.69923 | 119° | 60km/h | 17386m | -8.9m/s | -54.6°C | 1.1% | 87.5hPa | 2.7V | 08:24:07 | 01:28:02 | 00:00:00 | |
| AA1-15 | 2026-09-03 08:00:19 | 52.43521 | 8.69900 | 114° | 66km/h | 17395m | -9m/s | -54.6°C | 1.1% | 87.4hPa | 2.6V | 08:24:07 | 01:28:01 | 00:00:00 | |
| DB0NH | 2026-09-03 08:00:19 | 52.43521 | 8.69900 | 115° | 64km/h | 17396m | -8.9m/s | -54.5°C | 4.5% | 87.3hPa | 2.7V | 00:00:00 | 01:28:01 | 00:00:00 | |
| DF7PN | 2026-09-03 08:00:18 | 52.43527 | 8.69875 | 109° | 68km/h | 17404m | -9.3m/s | -54.7°C | 1.6% | 87.3hPa | 2.7V | 00:00:00 | 00:00:00 | 00:00:00 | |
| DL1XH1-15 | 2026-09-03 08:00:17 | 52.43534 | 8.69707 | 80° | 62km/h | 17457m | -8.9m/s | -55.1°C | 4.6% | 86.6hPa | 2.7V | 08:23:46 | 01:27:54 | 00:00:00 | |
| DL8DAS-14 | 2026-09-03 08:00:17 | 52.43535 | 8.69819 | 98° | 69km/h | 17422m | -8.9m/s | -54.7°C | 1.6% | 87.1hPa | 2.6V | 00:00:00 | 00:00:00 | 00:00:00 | |
| DO2SHX-10 | 2026-09-03 08:00:16 | 52.43535 | 8.69819 | 99° | 69km/h | 17423m | -8.8m/s | -54.7°C | 4.6% | 87.0hPa | 2.6V | 00:00:00 | 01:27:58 | 00:00:00 | |
| DL1XH-15 | 2026-09-03 08:00:15 | 52.43529 | 8.69660 | 79° | 51km/h | 17474m | -9.2m/s | -55.2°C | 4.6% | 86.3hPa | 2.6V | 08:23:48 | 01:27:52 | 00:00:00 | |
| HSKMA3-T | 2026-09-03 08:00:15 | 52.43537 | 8.69790 | 94° | 71km/h | 17431m | -8.5m/s | -54.8°C | 1.2% | 86.9hPa | 2.7V | 08:24:07 | 01:27:57 | 00:00:00 | |
| D01LWL | 2026-09-03 08:00:15 | 52.43537 | 8.69761 | 88° | 68km/h | 17439m | -8.2m/s | -54.9°C | 1.6% | 86.8hPa | 2.6V | 00:00:00 | 00:00:00 | 00:00:00 | |
| DL1NUX | 2026-09-03 08:00:14 | 52.43527 | 8.69641 | 83° | 46km/h | 17483m | -8.8m/s | -55.1°C | 4.6% | 86.2hPa | 2.6V | 08:23:49 | 01:27:51 | 00:00:00 | |
| DO2JMG | 2026-09-03 08:00:13 | 52.43536 | 8.69733 | 84° | 66km/h | 17448m | -8.5m/s | -55°C | 1.2% | 86.7hPa | 2.6V | 08:24:07 | 01:27:55 | 00:00:00 | |
| DF8AY | 2026-09-03 08:00:12 | 52.43534 | 8.69707 | 80° | 62km/h | 17457m | -9m/s | -55.1°C | 1.1% | 86.6hPa | 2.7V | 08:24:07 | 01:27:54 | 00:00:00 | |
| DO2SHX-10 | 2026-09-03 08:00:11 | 52.43531 | 8.69682 | 79° | 51km/h | 17465m | -8.6m/s | -55.1°C | 4.7% | 86.4hPa | 2.7V | 08:23:00 | 01:27:53 | 00:00:00 | |
| DM0DOS-11 | 2026-09-03 08:00:10 | 52.43535 | 8.69576 | 121° | 44km/h | 17519m | -8.8m/s | -54.6°C | 4.4% | 85.8hPa | 2.6V | 08:23:53 | 01:27:47 | 00:00:00 | |
| DB0DAN | 2026-09-03 08:00:10 | 52.43529 | 8.69660 | 79° | 49km/h | 17474m | -9.2m/s | 0°C | 0% | 0hPa | 2.6V | 00:00:00 | 00:00:00 | 00:00:00 | |
| DL1XH-west | 2026-09-03 08:00:09 | 52.43527 | 8.69641 | 84° | 46km/h | 17483m | -8.8m/s | -55.1°C | 1.1% | 86.2hPa | 2.6V | 08:24:07 | 01:27:51 | 00:00:00 | |
| AA1-15 | 2026-09-03 08:00:08 | 52.43526 | 8.69623 | 92° | 40km/h | 17492m | -9m/s | -55.1°C | 1.1% | 86.1hPa | 2.7V | 08:24:07 | 01:27:50 | 00:00:00 | |
| DO2SHX-10 | 2026-09-03 08:00:08 | 52.43526 | 8.69623 | 92° | 40km/h | 17492m | -8.9m/s | -55.0°C | 4.6% | 86.0hPa | 2.7V | 00:00:00 | 01:27:50 | 00:00:00 | |
| DL1XH1-15 | 2026-09-03 08:00:07 | 52.43559 | 8.69524 | 129° | 60km/h | 17546m | -9.2m/s | -54°C | 4.3% | 85.4hPa | 2.7V | 08:23:56 | 01:27:44 | 00:00:00 | |
| DD8BA-10 | 2026-09-03 08:00:07 | 52.43527 | 8.69607 | 102° | 58km/h | 17501m | -8.7m/s | -54.9°C | 4.5% | 85.9hPa | 2.7V | 08:23:00 | 00:00:00 | 00:00:00 | |
| DL3AQ-11 | 2026-09-03 08:00:06 | 52.43535 | 8.69576 | 121° | 44km/h | 17519m | -8.8m/s | -54.6°C | 1.5% | 85.8hPa | 2.6V | 00:00:00 | 00:00:00 | 00:00:00 | |
| DL1XH-15 | 2026-09-03 08:00:05 | 52.43579 | 8.69481 | 127° | 71km/h | 17565m | -9.3m/s | -53.7°C | 4.3% | 85.2hPa | 2.6V | 08:23:58 | 01:27:42 | 00:00:00 | |
| HSKMA3-T | 2026-09-03 08:00:04 | 52.43542 | 8.69560 | 126° | 49km/h | 17528m | -9m/s | -54.5°C | 1% | 85.6hPa | 2.6V | 08:24:07 | 01:27:46 | 00:00:00 | |
| DL1NUX | 2026-09-03 08:00:04 | 52.43590 | 8.69457 | 125° | 75km/h | 17574m | -9.3m/s | -53.3°C | 4.2% | 85hPa | 2.6V | 08:23:59 | 01:27:41 | 00:00:00 | |
| BIOWL1-15 | 2026-09-03 08:00:03 | 52.43550 | 8.69543 | 128° | 55km/h | 17537m | -9.3m/s | -54.2°C | 1% | 85.6hPa | 2.7V | 08:24:07 | 01:27:45 | 00:00:00 | |
| DF8AY | 2026-09-03 08:00:02 | 52.43569 | 8.69504 | 129° | 66km/h | 17555m | -9.3m/s | -53.9°C | 1% | 85.2hPa | 2.7V | 08:24:07 | 01:27:43 | 00:00:00 | |
| DO2JMG | 2026-09-03 08:00:02 | 52.43559 | 8.69524 | 129° | 60km/h | 17546m | -9.2m/s | -54°C | 1% | 85.4hPa | 2.7V | 08:24:07 | 01:27:44 | 00:00:00 | |
| SONDE2-11 | 2026-09-03 08:00:00 | 52.43579 | 8.69482 | 127° | 69km/h | 17565m | -9.3m/s | -53.7°C | 1.4% | 85.2hPa | 2.7V | 00:00:00 | 00:00:00 | 00:00:00 | |
| DD1CC8 | 2026-09-03 07:59:59 | 52.43590 | 8.69457 | 125° | 75km/h | 17574m | -9.3m/s | -53.3°C | 1.4% | 85.0hPa | 2.7V | 00:00:00 | 00:00:00 | 00:00:00 | |
| DJ2DS-15 | 2026-09-03 07:59:58 | 52.43601 | 8.69431 | 122° | 78km/h | 17583m | -9.2m/s | -53.0°C | 1.4% | 84.9hPa | 2.7V | 00:00:00 | 00:00:00 | 00:00:00 | |
| DL1XH-west | 2026-09-03 07:59:58 | 52.43601 | 8.69431 | 123° | 80km/h | 17583m | -9.2m/s | -53°C | 0.9% | 84.9hPa | 2.6V | 08:24:07 | 01:27:40 | 00:00:00 | |
| DD8BA-10 | 2026-09-03 07:59:57 | 52.43612 | 8.69402 | 120° | 60km/h | 17593m | -9.2m/s | -52.9°C | 4.2% | 84.7hPa | 2.7V | 00:00:00 | 00:00:00 | 00:00:00 | |
| DL1XH-15 | 2026-09-03 07:59:55 | 52.43649 | 8.69216 | 104° | 42km/h | 17655m | -8.6m/s | -52.7°C | 3.9% | 84hPa | 2.7V | 08:24:08 | 01:27:32 | 00:00:00 | |
| BIOWL9-15 | 2026-09-03 07:59:55 | 52.43636 | 8.69311 | 106° | 73km/h | 17620m | -9.2m/s | -53.0°C | 1.4% | 84.4hPa | 2.7V | 00:00:00 | 00:00:00 | 00:00:00 | |
| DL1NUX | 2026-09-03 07:59:54 | 52.43652 | 8.69201 | 112° | 37km/h | 17664m | -9.4m/s | -52.6°C | 3.9% | 83.8hPa | 2.7V | 08:24:09 | 01:27:31 | 00:00:00 | |
| BIOWL1-15 | 2026-09-03 07:59:53 | 52.43640 | 8.69283 | 104° | 68km/h | 17629m | -8.6m/s | -53°C | 0.9% | 84.3hPa | 2.6V | 08:24:07 | 01:27:35 | 00:00:00 | |
| DO2JMG | 2026-09-03 07:59:52 | 52.43644 | 8.69257 | 101° | 58km/h | 17638m | -8.8m/s | -52.9°C | 0.7% | 84.1hPa | 2.6V | 08:24:07 | 01:27:34 | 00:00:00 | |
| DF8AY | 2026-09-03 07:59:51 | 52.43647 | 8.69235 | 101° | 51km/h | 17646m | -8.5m/s | -52.8°C | 0.8% | 84.1hPa | 2.7V | 08:24:07 | 01:27:33 | 00:00:00 | |
| DL1XH-west | 2026-09-03 07:59:48 | 52.43656 | 8.69188 | 123° | 35km/h | 17674m | -9.3m/s | -52.5°C | 0.7% | 83.7hPa | 2.6V | 08:24:58 | 01:27:30 | 00:00:00 | |
| DF7PN | 2026-09-03 07:59:47 | 52.43662 | 8.69177 | 134° | 33km/h | 17683m | -9.5m/s | -52.5°C | 1.3% | 83.6hPa | 2.6V | 00:00:00 | 00:00:00 | 00:00:00 | |
| DL8DAS-14 | 2026-09-03 07:59:46 | 52.43677 | 8.69158 | 149° | 42km/h | 17702m | -9.2m/s | -52.3°C | 1.3% | 83.3hPa | 2.6V | 00:00:00 | 00:00:00 | 00:00:00 | |
| DL1XH-15 | 2026-09-03 07:59:45 | 52.43735 | 8.69099 | 139° | 64km/h | 17747m | -8.9m/s | -52.1°C | 3.8% | 82.8hPa | 2.6V | 08:24:18 | 01:27:22 | 00:00:00 | |
| GOEST3-10 | 2026-09-03 07:59:45 | 52.43677 | 8.69158 | 150° | 53km/h | 17702m | -9.1m/s | -52.3°C | 3.8% | 83.3hPa | 2.7V | 00:00:00 | 00:00:00 | 00:00:00 | |
| DL1NUX | 2026-09-03 07:59:44 | 52.43747 | 8.69080 | 132° | 64km/h | 17756m | -9.2m/s | -52°C | 3.8% | 82.6hPa | 2.7V | 08:24:19 | 01:27:21 | 00:00:00 | |
| HSKMA3-T | 2026-09-03 07:59:43 | 52.43698 | 8.69139 | 151° | 53km/h | 17720m | -9.1m/s | -52.2°C | 0.7% | 83.1hPa | 2.7V | 08:24:58 | 01:27:25 | 00:00:00 | |
| BIOWL1-15 | 2026-09-03 07:59:42 | 52.43710 | 8.69128 | 149° | 57km/h | 17729m | -9m/s | -52.1°C | 0.7% | 83hPa | 2.6V | 08:24:58 | 01:27:24 | 00:00:00 | |
| DL4XJ-10 | 2026-09-03 07:59:41 | 52.43723 | 8.69114 | 145° | 47km/h | 17738m | -9.1m/s | -51.0°C | 0% | 0hPa | 2.7V | 00:00:00 | 00:00:00 | 00:00:00 | |
| DM0DOS-11 | 2026-09-03 07:59:40 | 52.43779 | 8.68991 | 109° | 62km/h | 17792m | -9.2m/s | -51.9°C | 3.9% | 82.2hPa | 2.7V | 08:24:23 | 01:27:17 | 00:00:00 | |
| DF8AY | 2026-09-03 07:59:40 | 52.43735 | 8.69099 | 139° | 64km/h | 17747m | -8.9m/s | -52.1°C | 0.7% | 82.8hPa | 2.6V | 08:24:58 | 01:27:22 | 00:00:00 | |
| DL1XH-west | 2026-09-03 07:59:38 | 52.43757 | 8.69060 | 127° | 66km/h | 17765m | -9m/s | -52.1°C | 0.7% | 82.5hPa | 2.7V | 08:24:58 | 01:27:20 | 00:00:00 | |
| EDDB2-11 | 2026-09-03 07:59:38 | 52.43757 | 8.69060 | 126° | 64km/h | 17765m | -9.0m/s | -52.1°C | 1.3% | 82.5hPa | 2.6V | 00:00:00 | 00:00:00 | 00:00:00 | |
| DL1XH1-15 | 2026-09-03 07:59:37 | 52.43788 | 8.68921 | 94° | 53km/h | 17820m | -9.3m/s | -51.8°C | 3.7% | 81.8hPa | 2.6V | 08:24:26 | 01:27:14 | 00:00:00 | |
| AA1-15 | 2026-09-03 07:59:37 | 52.43766 | 8.69038 | 121° | 64km/h | 17774m | -9m/s | -52.1°C | 0.8% | 82.5hPa | 2.6V | 08:24:58 | 01:27:19 | 00:00:00 | |
| DJ2DS-15 | 2026-09-03 07:59:37 | 52.43766 | 8.69038 | 121° | 46km/h | 17774m | -9.0m/s | -52.0°C | 3.9% | 82.4hPa | 2.7V | 00:00:00 | 01:27:19 | 00:00:00 | |
| MET0W-2 | 2026-09-03 07:59:36 | 52.43779 | 8.68991 | 109° | 60km/h | 17792m | -9.2m/s | -51.9°C | 1.3% | 82.2hPa | 2.7V | 00:00:00 | 00:00:00 | 00:00:00 | |
| DL1XH-15 | 2026-09-03 07:59:35 | 52.43789 | 8.68883 | 87° | 42km/h | 17838m | -9.2m/s | -51.8°C | 3.7% | 81.6hPa | 2.7V | 08:24:28 | 01:27:12 | 00:00:00 | |
| GOEST3-10 | 2026-09-03 07:59:35 | 52.43779 | 8.68991 | 110° | 55km/h | 17792m | -9.1m/s | -51.9°C | 3.9% | 82.1hPa | 2.6V | 00:00:00 | 00:00:00 | 00:00:00 | |
| DL1NUX | 2026-09-03 07:59:34 | 52.43788 | 8.68867 | 85° | 37km/h | 17847m | -8.7m/s | -51.8°C | 3.7% | 81.5hPa | 2.6V | 08:24:29 | 01:27:11 | 00:00:00 | |
| BIOWL1-15 | 2026-09-03 07:59:33 | 52.43789 | 8.68901 | 90° | 47km/h | 17829m | -9.1m/s | -51.8°C | 0.7% | 81.7hPa | 2.7V | 08:24:58 | 01:27:13 | 00:00:00 | |
| DO2JMG | 2026-09-03 07:59:32 | 52.43788 | 8.68921 | 95° | 53km/h | 17820m | -9.3m/s | -51.8°C | 0.6% | 81.8hPa | 2.6V | 08:24:58 | 01:27:14 | 00:00:00 | |
| DM0DOS-11 | 2026-09-03 07:59:30 | 52.43790 | 8.68823 | 119° | 24km/h | 17884m | -9.2m/s | -51.9°C | 3.7% | 81hPa | 2.7V | 08:24:33 | 01:27:07 | 00:00:00 | |
| DF8AY | 2026-09-03 07:59:30 | 52.43789 | 8.68883 | 87° | 42km/h | 17838m | -9.2m/s | -51.8°C | 0.6% | 81.6hPa | 2.7V | 08:24:58 | 01:27:12 | 00:00:00 | |
| GOEST3-10 | 2026-09-03 07:59:30 | 52.43788 | 8.68882 | 88° | 31km/h | 17839m | -9.1m/s | -51.7°C | 3.7% | 81.5hPa | 2.7V | 08:24:00 | 01:27:12 | 00:00:00 | |
| DB0UT-7 | 2026-09-03 07:59:29 | 52.43788 | 8.68867 | 86° | 44km/h | 17848m | -8.7m/s | -51.7°C | 3.7% | 81.4hPa | 2.6V | 00:00:00 | 01:27:11 | 00:00:00 | |
| DD1CC8 | 2026-09-03 07:59:28 | 52.43787 | 8.68853 | 86° | 29km/h | 17856m | -8.8m/s | -51.8°C | 1.2% | 81.3hPa | 2.6V | 00:00:00 | 00:00:00 | 00:00:00 | |
| DL1XH1-15 | 2026-09-03 07:59:27 | 52.43807 | 8.68796 | 141° | 40km/h | 17911m | -9m/s | -51.5°C | 3.5% | 80.7hPa | 2.6V | 08:24:36 | 01:27:04 | 00:00:00 | |
| AA1-15 | 2026-09-03 07:59:27 | 52.43787 | 8.68841 | 93° | 26km/h | 17865m | -9.3m/s | -51.9°C | 0.6% | 81.3hPa | 2.6V | 08:24:58 | 01:27:09 | 00:00:00 | |
| DD8BA-10 | 2026-09-03 07:59:27 | 52.43787 | 8.68841 | 93° | 40km/h | 17865m | -9.2m/s | -51.8°C | 3.8% | 81.2hPa | 2.7V | 00:00:00 | 00:00:00 | 00:00:00 | |
| DO2SHX-10 | 2026-09-03 07:59:26 | 52.43788 | 8.68831 | 105° | 24km/h | 17874m | -9.3m/s | -51.8°C | 3.8% | 81.1hPa | 2.7V | 00:00:00 | 01:27:08 | 00:00:00 | |
| DJ2KF-10 | 2026-09-03 07:59:25 | 52.43790 | 8.68823 | 120° | 49km/h | 17884m | -9.1m/s | -51.8°C | 3.7% | 81.0hPa | 2.7V | 08:24:00 | 01:27:07 | 00:00:00 | |
| DL1NUX | 2026-09-03 07:59:24 | 52.43837 | 8.68756 | 137° | 60km/h | 17938m | -9.3m/s | -51.3°C | 3.6% | 80.3hPa | 2.7V | 08:24:39 | 01:27:01 | 00:00:00 | |
| HSKMA3-T | 2026-09-03 07:59:22 | 52.43807 | 8.68796 | 142° | 40km/h | 17911m | -9m/s | -51.5°C | 0.5% | 80.7hPa | 2.6V | 08:24:58 | 01:27:04 | 00:00:00 | |
| DO2JMG | 2026-09-03 07:59:21 | 52.43816 | 8.68785 | 141° | 47km/h | 17920m | -9m/s | -51.4°C | 0.4% | 80.5hPa | 2.6V | 08:24:58 | 01:27:03 | 00:00:00 | |
| DF8AY | 2026-09-03 07:59:20 | 52.43836 | 8.68756 | 138° | 60km/h | 17938m | -9.3m/s | -51.3°C | 0.6% | 80.3hPa | 2.7V | 08:24:58 | 01:27:01 | 00:00:00 | |
| DO2SHX-10 | 2026-09-03 07:59:20 | 52.43825 | 8.68771 | 140° | 60km/h | 17929m | -9.0m/s | -51.3°C | 3.5% | 80.4hPa | 2.7V | 00:00:00 | 01:27:02 | 00:00:00 | |
| DB0NH | 2026-09-03 07:59:19 | 52.43836 | 8.68756 | 138° | 53km/h | 17938m | -9.3m/s | -51.3°C | 3.6% | 80.3hPa | 2.7V | 08:24:00 | 01:27:01 | 00:00:00 | |
| DO3DL | 2026-09-03 07:59:18 | 52.43836 | 8.68756 | 139° | 60km/h | 17938m | -9.3m/s | -51.3°C | 1.2% | 80.3hPa | 2.7V | 08:24:00 | 00:00:00 | 00:00:00 | |
| DL1XH1-15 | 2026-09-03 07:59:17 | 52.43903 | 8.68593 | 105° | 64km/h | 18004m | -8.8m/s | -51.6°C | 3.8% | 79.5hPa | 2.7V | 08:24:46 | 01:26:54 | 00:00:00 | |
| DL1XH-west | 2026-09-03 07:59:16 | 52.43871 | 8.68695 | 127° | 71km/h | 17967m | -9.8m/s | -51.2°C | 0.6% | 79.9hPa | 2.6V | 08:24:58 | 01:26:58 | 00:00:00 | |
| DF7PN | 2026-09-03 07:59:16 | 52.43871 | 8.68695 | 127° | 69km/h | 17967m | -9.8m/s | -51.2°C | 1.2% | 79.9hPa | 2.6V | 00:00:00 | 00:00:00 | 00:00:00 | |
| DL8DAS-14 | 2026-09-03 07:59:15 | 52.43890 | 8.68646 | 117° | 69km/h | 17986m | -9.6m/s | -51.4°C | 1.2% | 79.7hPa | 2.6V | 00:00:00 | 00:00:00 | 00:00:00 | |
| DL1NUX | 2026-09-03 07:59:14 | 52.43910 | 8.68524 | 93° | 47km/h | 18032m | -9.4m/s | -51.6°C | 3.7% | 79.2hPa | 2.6V | 08:24:49 | 01:26:51 | 00:00:00 | |
| BIOWL1-15 | 2026-09-03 07:59:11 | 52.43906 | 8.68568 | 101° | 60km/h | 18013m | -9.3m/s | -51.7°C | 0.7% | 79.4hPa | 2.6V | 08:24:58 | 01:26:53 | 00:00:00 | |
| DF8AY | 2026-09-03 07:59:09 | 52.43910 | 8.68524 | 94° | 49km/h | 18032m | -9.4m/s | -51.6°C | 0.6% | 79.2hPa | 2.6V | 08:24:58 | 01:26:51 | 00:00:00 | |
| AA1-15 | 2026-09-03 07:59:06 | 52.43911 | 8.68475 | 95° | 29km/h | 18062m | -9.9m/s | -51.4°C | 0.6% | 78.8hPa | 2.7V | 08:24:58 | 01:26:48 | 00:00:00 | |
| DL1XH-west | 2026-09-03 07:59:05 | 52.43913 | 8.68464 | 104° | 26km/h | 18072m | -9.9m/s | -51.5°C | 0.6% | 78.7hPa | 2.6V | 08:24:58 | 01:26:47 | 00:00:00 | |
| MET0W-2 | 2026-09-03 07:59:05 | 52.43915 | 8.68455 | 118° | 22km/h | 18081m | -9.9m/s | 0°C | -1.0% | 78.6hPa | 2.6V | 00:00:00 | 00:00:00 | 00:00:00 | |
| DL1NUX | 2026-09-03 07:59:04 | 52.43949 | 8.68417 | 148° | 49km/h | 18130m | -9.8m/s | -51.6°C | 3.6% | 78hPa | 2.6V | 08:24:59 | 01:26:41 | 00:00:00 | |
| DO2SHX-10 | 2026-09-03 07:59:04 | 52.43915 | 8.68455 | 119° | 26km/h | 18082m | -9.8m/s | -51.5°C | 3.7% | 78.5hPa | 2.6V | 00:00:00 | 01:26:46 | 00:00:00 | |
| HTAHTA | 2026-09-03 07:59:03 | 52.43918 | 8.68448 | 134° | 22km/h | 18091m | -9.3m/s | -51.6°C | 1.2% | 78.4hPa | 2.6V | 00:00:00 | 00:00:00 | 00:00:00 | |
| DO2SHX-10 | 2026-09-03 07:59:01 | 52.43930 | 8.68434 | 152° | 42km/h | 18110m | -9.6m/s | -51.7°C | 3.7% | 78.2hPa | 2.6V | 00:00:00 | 01:26:43 | 00:00:00 | |
| DM0DOS-11 | 2026-09-03 07:59:00 | 52.43995 | 8.68352 | 130° | 69km/h | 18168m | -9.4m/s | -51.4°C | 3.8% | 77.5hPa | 2.6V | 08:25:03 | 01:26:37 | 00:00:00 | |
| BIOWL1-15 | 2026-09-03 07:59:00 | 52.43939 | 8.68427 | 151° | 42km/h | 18120m | -9.8m/s | -51.8°C | 0.6% | 78.1hPa | 2.6V | 08:24:58 | 01:26:42 | 00:00:00 | |
| DF8AY | 2026-09-03 07:58:58 | 52.43960 | 8.68405 | 145° | 57km/h | 18139m | -9.8m/s | -51.6°C | 0.6% | 77.9hPa | 2.7V | 08:25:49 | 01:26:40 | 00:00:00 | |
| AA1-15 | 2026-09-03 07:58:56 | 52.43983 | 8.68373 | 136° | 66km/h | 18158m | -9.2m/s | -51.5°C | 0.6% | 77.6hPa | 2.6V | 08:25:49 | 01:26:38 | 00:00:00 | |
| DL1XH-west | 2026-09-03 07:58:55 | 52.43995 | 8.68352 | 131° | 69km/h | 18168m | -9.4m/s | -51.4°C | 0.7% | 77.5hPa | 2.6V | 08:25:49 | 01:26:37 | 00:00:00 | |
| EDDB2-12 | 2026-09-03 07:58:53 | 52.44023 | 8.68281 | 114° | 64km/h | 18197m | -9.7m/s | -51.4°C | 1.3% | 77.2hPa | 2.7V | 00:00:00 | 00:00:00 | 00:00:00 | |
| DO2SHX-10 | 2026-09-03 07:58:52 | 52.44023 | 8.68280 | 115° | 51km/h | 18197m | -9.6m/s | -51.4°C | 3.8% | 77.1hPa | 2.7V | 00:00:00 | 01:26:34 | 00:00:00 | |
| DO3DL | 2026-09-03 07:58:51 | 52.44023 | 8.68280 | 115° | 66km/h | 18197m | -9.7m/s | -51.4°C | 1.3% | 77.2hPa | 2.7V | 08:25:00 | 00:00:00 | 00:00:00 | |
| DM0DOS-11 | 2026-09-03 07:58:50 | 52.44045 | 8.68163 | 124° | 22km/h | 18263m | -9.9m/s | -51.4°C | 3.6% | 76.4hPa | 2.7V | 08:25:13 | 01:26:27 | 00:00:00 | |
| DO2JMG | 2026-09-03 07:58:50 | 52.44033 | 8.68234 | 105° | 53km/h | 18215m | -9.4m/s | -51.4°C | 0.7% | 77hPa | 2.7V | 08:25:49 | 01:26:32 | 00:00:00 | |
| HSKMA3-T | 2026-09-03 07:58:49 | 52.44036 | 8.68214 | 103° | 46km/h | 18225m | -9.4m/s | -51.5°C | 0.6% | 76.9hPa | 2.7V | 08:25:49 | 01:26:31 | 00:00:00 | |
| DF8AY | 2026-09-03 07:58:47 | 52.44040 | 8.68183 | 102° | 31km/h | 18244m | -9.2m/s | -51.5°C | 0.6% | 76.6hPa | 2.6V | 08:25:49 | 01:26:29 | 00:00:00 | |
| SMARD9-15 | 2026-09-03 07:58:47 | 52.44042 | 8.68171 | 109° | 26km/h | 18253m | -9.4m/s | -51.4°C | 1.2% | 76.5hPa | 2.6V | 00:00:00 | 00:00:00 | 00:00:00 | |
| DL1XH-15 | 2026-09-03 07:58:46 | 52.44080 | 8.68137 | 165° | 46km/h | 18311m | -9.7m/s | -51.2°C | 3.5% | 75.8hPa | 2.6V | 08:25:18 | 01:26:22 | 00:00:00 | |
| DL1XH-west | 2026-09-03 07:58:45 | 52.44045 | 8.68163 | 124° | 22km/h | 18263m | -9.9m/s | -51.4°C | 0.6% | 76.4hPa | 2.7V | 08:25:49 | 01:26:27 | 00:00:00 | |
| DK5PH-5 | 2026-09-03 07:58:45 | 52.44045 | 8.68162 | 125° | 40km/h | 18263m | -9.9m/s | -51.4°C | 3.6% | 76.3hPa | 2.7V | 00:00:00 | 01:26:27 | 00:00:00 | |
| DL8DAS-14 | 2026-09-03 07:58:44 | 52.44054 | 8.68150 | 154° | 26km/h | 18283m | -9.8m/s | -51.4°C | 1.1% | 76.2hPa | 2.7V | 00:00:00 | 00:00:00 | 00:00:00 | |
| SO1NDE-10 | 2026-09-03 07:58:43 | 52.44054 | 8.68150 | 155° | 42km/h | 18283m | -9.7m/s | -51.3°C | 3.5% | 76.1hPa | 2.7V | 08:25:00 | 01:26:25 | 00:00:00 | |
| DL3OBA | 2026-09-03 07:58:42 | 52.44054 | 8.68150 | 155° | 27km/h | 18283m | -9.8m/s | -51.4°C | 1.1% | 76.2hPa | 2.6V | 08:25:00 | 00:00:00 | 00:00:00 | |
| DB0DAN | 2026-09-03 07:58:40 | 52.44080 | 8.68137 | 165° | 44km/h | 18311m | -9.7m/s | -51.2°C | 1.1% | 75.82hPa | 2.6V | 00:00:00 | 00:00:00 | 00:00:00 | |
| DM0DOS-11 | 2026-09-03 07:58:40 | 52.44145 | 8.68090 | 144° | 64km/h | 18361m | -10m/s | -51.3°C | 3.7% | 75.2hPa | 2.6V | 08:25:23 | 01:26:17 | 00:00:00 | |
| DO2JMG | 2026-09-03 07:58:39 | 52.44092 | 8.68132 | 163° | 51km/h | 18321m | -9.7m/s | -51.2°C | 0.4% | 75.7hPa | 2.7V | 08:25:49 | 01:26:21 | 00:00:00 | |
| HSKMA3-T | 2026-09-03 07:58:38 | 52.44104 | 8.68125 | 159° | 55km/h | 18331m | -9.8m/s | -51.2°C | 0.5% | 75.6hPa | 2.7V | 08:25:49 | 01:26:20 | 00:00:00 | |
| DF8AY | 2026-09-03 07:58:37 | 52.44118 | 8.68116 | 155° | 60km/h | 18341m | -10m/s | -51.2°C | 0.6% | 75.5hPa | 2.7V | 08:25:49 | 01:26:19 | 00:00:00 | |
| DJ2DS-15 | 2026-09-03 07:58:37 | 52.44118 | 8.68116 | 156° | 42km/h | 18341m | -10.0m/s | -51.2°C | 3.6% | 75.4hPa | 2.6V | 00:00:00 | 01:26:19 | 00:00:00 | |
| EDDB2-11 | 2026-09-03 07:58:36 | 52.44145 | 8.68090 | 144° | 62km/h | 18361m | -10.0m/s | -51.3°C | 1.2% | 75.2hPa | 2.6V | 00:00:00 | 00:00:00 | 00:00:00 | |
| DL1XH-15 | 2026-09-03 07:58:35 | 52.44194 | 8.67999 | 117° | 49km/h | 18407m | -9.6m/s | -51.6°C | 3.7% | 74.7hPa | 2.6V | 08:25:28 | 01:26:12 | 00:00:00 | |
| AA1-15 | 2026-09-03 07:58:35 | 52.44145 | 8.68090 | 145° | 64km/h | 18361m | -10m/s | -51.3°C | 0.6% | 75.2hPa | 2.6V | 08:25:49 | 01:26:17 | 00:00:00 | |
| DL1XH-west | 2026-09-03 07:58:34 | 52.44157 | 8.68074 | 139° | 64km/h | 18371m | -9.4m/s | -51.4°C | 0.6% | 75.1hPa | 2.6V | 08:25:49 | 01:26:16 | 00:00:00 | |
| DL1NUX | 2026-09-03 07:58:34 | 52.44199 | 8.67981 | 113° | 44km/h | 18417m | -9.8m/s | -51.5°C | 3.7% | 74.6hPa | 2.6V | 08:25:29 | 01:26:11 | 00:00:00 | |
| HTAHTA | 2026-09-03 07:58:32 | 52.44179 | 8.68037 | 127° | 58km/h | 18389m | -9.4m/s | -51.6°C | 1.2% | 74.9hPa | 2.7V | 00:00:00 | 00:00:00 | 00:00:00 | |
| DO3DL | 2026-09-03 07:58:31 | 52.44179 | 8.68037 | 128° | 60km/h | 18389m | -9.4m/s | -51.6°C | 1.2% | 74.9hPa | 2.7V | 08:25:00 | 00:00:00 | 00:00:00 | |
| DM0DOS-11 | 2026-09-03 07:58:30 | 52.44212 | 8.67935 | 129° | 18km/h | 18456m | -9.7m/s | -51.6°C | 3.6% | 74.2hPa | 2.7V | 08:25:33 | 01:26:07 | 00:00:00 | |
| DO2JMG | 2026-09-03 07:58:29 | 52.44199 | 8.67981 | 114° | 44km/h | 18417m | -9.8m/s | -51.5°C | 0.6% | 74.6hPa | 2.6V | 08:25:49 | 01:26:11 | 00:00:00 | |
| BIOWL1-15 | 2026-09-03 07:58:28 | 52.44203 | 8.67966 | 111° | 38km/h | 18427m | -9.5m/s | -51.4°C | 0.5% | 74.5hPa | 2.6V | 08:25:49 | 01:26:10 | 00:00:00 | |
| DF8AY | 2026-09-03 07:58:27 | 52.44206 | 8.67953 | 111° | 31km/h | 18436m | -9.9m/s | -51.5°C | 0.6% | 74.4hPa | 2.7V | 08:25:49 | 01:26:09 | 00:00:00 | |
| AA1-15 | 2026-09-03 07:58:24 | 52.44215 | 8.67930 | 149° | 16km/h | 18465m | -9.2m/s | -51.7°C | 0.6% | 74hPa | 2.6V | 08:25:49 | 01:26:06 | 00:00:00 | |
| DL1NUX | 2026-09-03 07:58:24 | 52.44247 | 8.67929 | 180° | 37km/h | 18515m | -9.9m/s | -51.9°C | 3.6% | 73.5hPa | 2.7V | 08:25:39 | 01:26:01 | 00:00:00 | |
| DL1XH-west | 2026-09-03 07:58:23 | 52.44219 | 8.67927 | 170° | 18km/h | 18475m | -9.4m/s | -51.7°C | 0.6% | 73.9hPa | 2.6V | 08:25:49 | 01:26:05 | 00:00:00 | |
| DO2SHX-10 | 2026-09-03 07:58:23 | 52.44219 | 8.67927 | 171° | 22km/h | 18475m | -9.3m/s | -51.7°C | 3.6% | 73.9hPa | 2.6V | 00:00:00 | 01:26:05 | 00:00:00 | |
| SONCRA | 2026-09-03 07:58:22 | 52.44224 | 8.67927 | 182° | 22km/h | 18485m | -10.1m/s | -51.8°C | 1.2% | 73.8hPa | 2.7V | 00:00:00 | 00:00:00 | 00:00:00 | |
| DL8DAS-15 | 2026-09-03 07:58:21 | 52.44224 | 8.67927 | 183° | 22km/h | 18485m | -10.1m/s | -51.8°C | 1.3% | 73.8hPa | 2.7V | 00:00:00 | 00:00:00 | 00:00:00 | |
| DM0DOS-11 | 2026-09-03 07:58:20 | 52.44288 | 8.67909 | 146° | 47km/h | 18553m | -9.5m/s | -52.4°C | 3.8% | 73.1hPa | 2.7V | 08:25:43 | 01:25:57 | 00:00:00 | |
| BIOWL1-15 | 2026-09-03 07:58:18 | 52.44257 | 8.67928 | 173° | 42km/h | 18525m | -9.9m/s | -52°C | 0.6% | 73.4hPa | 2.6V | 08:25:49 | 01:26:00 | 00:00:00 | |
| HSKMA3-T | 2026-09-03 07:58:17 | 52.44267 | 8.67925 | 165° | 44km/h | 18534m | -9.7m/s | -52.2°C | 0.6% | 73.2hPa | 2.6V | 08:25:49 | 01:25:59 | 00:00:00 | |
| DF8AY | 2026-09-03 07:58:16 | 52.44278 | 8.67919 | 156° | 46km/h | 18544m | -9.6m/s | -52.4°C | 0.7% | 73.1hPa | 2.6V | 08:25:49 | 01:25:58 | 00:00:00 | |
| DL1XH-15 | 2026-09-03 07:58:15 | 52.44319 | 8.67836 | 100° | 38km/h | 18602m | -10.1m/s | -51.9°C | 3.8% | 72.5hPa | 2.6V | 08:25:48 | 01:25:52 | 00:00:00 | |
| AA1-15 | 2026-09-03 07:58:13 | 52.44306 | 8.67883 | 128° | 46km/h | 18573m | -9.7m/s | -52.1°C | 0.8% | 72.8hPa | 2.7V | 08:25:49 | 01:25:55 | 00:00:00 | |
| DL1XH-west | 2026-09-03 07:58:12 | 52.44312 | 8.67868 | 118° | 44km/h | 18582m | -9.5m/s | -52°C | 0.7% | 72.7hPa | 2.6V | 08:25:49 | 01:25:54 | 00:00:00 | |
| BIOWL1-15 | 2026-09-03 07:58:09 | 52.44319 | 8.67797 | 80° | 24km/h | 18631m | -9.9m/s | -52.1°C | 0.7% | 72.2hPa | 2.6V | 08:26:40 | 01:25:49 | 00:00:00 | |
| DO2JMG | 2026-09-03 07:58:08 | 52.44320 | 8.67808 | 85° | 29km/h | 18621m | -9.8m/s | -52°C | 0.7% | 72.3hPa | 2.7V | 08:26:40 | 01:25:50 | 00:00:00 | |
| HSKMA3-T | 2026-09-03 07:58:06 | 52.44318 | 8.67789 | 77° | 18km/h | 18641m | -9.7m/s | -52.2°C | 0.7% | 72.1hPa | 2.6V | 08:26:40 | 01:25:48 | 00:00:00 | |
| DF8AY | 2026-09-03 07:58:05 | 52.44317 | 8.67782 | 80° | 13km/h | 18650m | -9.3m/s | -52.4°C | 0.7% | 71.9hPa | 2.7V | 08:26:40 | 01:25:47 | 00:00:00 | |
| DO2SHX-10 | 2026-09-03 07:58:05 | 52.44317 | 8.67782 | 80° | 7km/h | 18651m | -9.2m/s | -52.3°C | 3.7% | 71.9hPa | 2.7V | 08:25:00 | 01:25:47 | 00:00:00 | |
| HARRO8 | 2026-09-03 07:58:04 | 52.44317 | 8.67779 | 97° | 5km/h | 18660m | -9.5m/s | 0°C | -1.0% | 71.8hPa | 2.6V | 00:00:00 | 00:00:00 | 00:00:00 | |
| DL1NUX | 2026-09-03 07:58:03 | 52.44342 | 8.67779 | 176° | 33km/h | 18720m | -10.3m/s | -52.4°C | 3.5% | 71.2hPa | 2.6V | 08:26:00 | 01:25:40 | 00:00:00 | |
| AA1-15 | 2026-09-03 07:58:03 | 52.44318 | 8.67777 | 167° | 5km/h | 18669m | -9.6m/s | -52.5°C | 0.7% | 71.8hPa | 2.6V | 08:26:40 | 01:25:45 | 00:00:00 | |
| DL1XH-west | 2026-09-03 07:58:01 | 52.44324 | 8.67778 | 188° | 16km/h | 18689m | -9.9m/s | -52.5°C | 0.6% | 71.5hPa | 2.7V | 08:26:40 | 01:25:43 | 00:00:00 | |
| HTAHTA | 2026-09-03 07:58:01 | 52.44335 | 8.67779 | 180° | 27km/h | 18709m | -10.3m/s | -52.4°C | 1.2% | 71.3hPa | 2.6V | 00:00:00 | 00:00:00 | 00:00:00 | |
| DM0DOS-11 | 2026-09-03 07:58:00 | 52.44371 | 8.67769 | 158° | 44km/h | 18750m | -10.2m/s | -52.5°C | 3.7% | 70.8hPa | 2.6V | 08:26:03 | 01:25:37 | 00:00:00 | |
| DO2JMG | 2026-09-03 07:57:57 | 52.44351 | 8.67777 | 171° | 37km/h | 18730m | -10.4m/s | -52.4°C | 0.5% | 71hPa | 2.7V | 08:26:40 | 01:25:39 | 00:00:00 | |
| HSKMA3-T | 2026-09-03 07:57:56 | 52.44361 | 8.67774 | 165° | 40km/h | 18740m | -10.4m/s | -52.4°C | 0.6% | 71hPa | 2.7V | 08:26:40 | 01:25:38 | 00:00:00 | |
| DF8AY | 2026-09-03 07:57:54 | 52.44381 | 8.67761 | 152° | 47km/h | 18760m | -9.8m/s | -52.6°C | 0.7% | 70.7hPa | 2.6V | 08:26:40 | 01:25:36 | 00:00:00 | |
| DJ2KF-10 | 2026-09-03 07:57:54 | 52.44381 | 8.67760 | 152° | 38km/h | 18761m | -9.7m/s | -52.5°C | 3.8% | 70.7hPa | 2.6V | 00:00:00 | 01:25:36 | 00:00:00 | |
| DL1NUX | 2026-09-03 07:57:53 | 52.44425 | 8.67669 | 104° | 44km/h | 18820m | -10m/s | -52.8°C | 3.9% | 70.1hPa | 2.7V | 08:26:10 | 01:25:30 | 00:00:00 | |
| AA1-15 | 2026-09-03 07:57:53 | 52.44391 | 8.67750 | 144° | 49km/h | 18770m | -9.7m/s | -52.7°C | 0.8% | 70.6hPa | 2.7V | 08:26:40 | 01:25:35 | 00:00:00 | |
| DL1XH-west | 2026-09-03 07:57:51 | 52.44416 | 8.67704 | 119° | 49km/h | 18800m | -9.9m/s | -52.8°C | 0.8% | 70.3hPa | 2.6V | 08:26:40 | 01:25:32 | 00:00:00 | |
| DM0DOS-11 | 2026-09-03 07:57:50 | 52.44428 | 8.67624 | 89° | 27km/h | 18850m | -10m/s | -53.2°C | 3.9% | 69.7hPa | 2.6V | 08:26:13 | 01:25:27 | 00:00:00 | |
| BIOWL1-15 | 2026-09-03 07:57:48 | 52.44428 | 8.67637 | 94° | 35km/h | 18840m | -10.2m/s | -53.1°C | 0.7% | 69.9hPa | 2.7V | 08:26:40 | 01:25:28 | 00:00:00 | |
| DO2JMG | 2026-09-03 07:57:47 | 52.44427 | 8.67652 | 99° | 40km/h | 18830m | -10.1m/s | -53°C | 0.8% | 70hPa | 2.7V | 08:26:40 | 01:25:29 | 00:00:00 | |
| HSKMA3-T | 2026-09-03 07:57:45 | 52.44428 | 8.67624 | 89° | 27km/h | 18850m | -10m/s | -53.2°C | 0.8% | 69.7hPa | 2.6V | 08:26:40 | 01:25:27 | 00:00:00 | |
| DF8AY | 2026-09-03 07:57:44 | 52.44428 | 8.67614 | 87° | 22km/h | 18860m | -9.9m/s | -53.4°C | 0.8% | 69.6hPa | 2.6V | 08:26:40 | 01:25:26 | 00:00:00 | |
| AA1-15 | 2026-09-03 07:57:42 | 52.44429 | 8.67602 | 123° | 11km/h | 18881m | -10.3m/s | -53.5°C | 0.9% | 69.4hPa | 2.7V | 08:26:40 | 01:25:24 | 00:00:00 | |
| DO2SHX-10 | 2026-09-03 07:57:41 | 52.44431 | 8.67598 | 154° | 20km/h | 18891m | -9.7m/s | -53.4°C | 4.1% | 69.3hPa | 2.7V | 00:00:00 | 01:25:23 | 00:00:00 | |
| DM0DOS-11 | 2026-09-03 07:57:40 | 52.44478 | 8.67583 | 162° | 44km/h | 18949m | -10.5m/s | -53.3°C | 4% | 68.7hPa | 2.7V | 08:26:23 | 01:25:17 | 00:00:00 | |
| DL1XH-west | 2026-09-03 07:57:39 | 52.44441 | 8.67595 | 172° | 26km/h | 18910m | -9.4m/s | -53.3°C | 0.8% | 69.1hPa | 2.6V | 08:26:40 | 01:25:21 | 00:00:00 | |
| DF8AY-15 | 2026-09-03 07:57:39 | 52.44441 | 8.67595 | 173° | 33km/h | 18910m | -9.4m/s | -53.3°C | 4.0% | 69.1hPa | 2.6V | 00:00:00 | 01:25:21 | 00:00:00 | |
| DO2SHX-10 | 2026-09-03 07:57:38 | 52.44448 | 8.67593 | 172° | 38km/h | 18920m | -9.9m/s | -53.2°C | 4.1% | 68.9hPa | 2.6V | 00:00:00 | 01:25:20 | 00:00:00 | |
| DL1XH1-15 | 2026-09-03 07:57:37 | 52.44508 | 8.67560 | 145° | 42km/h | 18980m | -10m/s | -53.6°C | 4% | 68.3hPa | 2.6V | 08:26:26 | 01:25:14 | 00:00:00 | |
| DO2JMG | 2026-09-03 07:57:37 | 52.44457 | 8.67591 | 170° | 38km/h | 18929m | -9.7m/s | -53.3°C | 0.8% | 68.9hPa | 2.6V | 08:26:40 | 01:25:19 | 00:00:00 | |
| BIOWL1-15 | 2026-09-03 07:57:35 | 52.44478 | 8.67583 | 163° | 44km/h | 18949m | -10.5m/s | -53.3°C | 0.8% | 68.7hPa | 2.7V | 08:26:40 | 01:25:17 | 00:00:00 | |
| HSKMA3-T | 2026-09-03 07:57:34 | 52.44488 | 8.67577 | 159° | 46km/h | 18960m | -10.1m/s | -53.4°C | 0.8% | 68.6hPa | 2.7V | 08:26:40 | 01:25:16 | 00:00:00 | |
| AA1-15 | 2026-09-03 07:57:31 | 52.44516 | 8.67550 | 137° | 40km/h | 18990m | -9.8m/s | -53.7°C | 0.9% | 68.3hPa | 2.6V | 08:26:40 | 01:25:13 | 00:00:00 | |
| DL1XH-west | 2026-09-03 07:57:29 | 52.44528 | 8.67525 | 120° | 37km/h | 19009m | -9.3m/s | -53.5°C | 0.9% | 68.1hPa | 2.7V | 08:26:40 | 01:25:11 | 00:00:00 | |
| DB0UT-7 | 2026-09-03 07:57:29 | 52.44528 | 8.67525 | 120° | 33km/h | 19009m | -9.3m/s | -53.5°C | 4.1% | 68.0hPa | 2.7V | 00:00:00 | 01:25:11 | 00:00:00 | |
| AP2371 | 2026-09-03 07:57:28 | 52.44528 | 8.67525 | 121° | 37km/h | 19009m | -9.3m/s | -53.5°C | 0% | 68.1hPa | 2.7V | 08:26:00 | 00:00:00 | 00:00:00 | |
| DL1XH1-15 | 2026-09-03 07:57:27 | 52.44542 | 8.67433 | 107° | 29km/h | 19078m | -10.1m/s | -53.2°C | 4.1% | 67.3hPa | 2.7V | 08:26:36 | 01:25:04 | 00:00:00 | |
| DO2JMG | 2026-09-03 07:57:27 | 52.44535 | 8.67499 | 106° | 35km/h | 19028m | -9.7m/s | -53.3°C | 0.9% | 67.9hPa | 2.6V | 08:26:40 | 01:25:09 | 00:00:00 | |
| BIOWL1-15 | 2026-09-03 07:57:27 | 52.44538 | 8.67472 | 98° | 33km/h | 19047m | -10.4m/s | -53°C | 0.8% | 67.6hPa | 2.6V | 08:26:40 | 01:25:07 | 00:00:00 | |
| DB0DAN | 2026-09-03 07:57:25 | 52.44538 | 8.67472 | 97° | 31km/h | 19047m | -10.4m/s | -53°C | 1.3% | 67.64hPa | 2.6V | 00:00:00 | 00:00:00 | 00:00:00 | |
| DL1XH-15 | 2026-09-03 07:57:25 | 52.44549 | 8.67412 | 127° | 29km/h | 19098m | -9.8m/s | -53.1°C | 4.1% | 67.1hPa | 2.6V | 08:26:38 | 01:25:02 | 00:00:00 | |
| HSKMA3-T | 2026-09-03 07:57:24 | 52.44539 | 8.67458 | 97° | 33km/h | 19058m | -10.5m/s | -53°C | 0.8% | 67.6hPa | 2.7V | 08:26:40 | 01:25:06 | 00:00:00 | |
| DF8AY | 2026-09-03 07:57:23 | 52.44540 | 8.67445 | 100° | 31km/h | 19068m | -10.2m/s | -53°C | 0.8% | 67.4hPa | 2.7V | 08:26:40 | 01:25:05 | 00:00:00 | |
| DL1NUX | 2026-09-03 07:57:23 | 52.44559 | 8.67394 | 140° | 29km/h | 19117m | -9.7m/s | -53.1°C | 4.1% | 66.9hPa | 2.7V | 08:26:40 | 01:25:00 | 00:00:00 | |
| AA1-15 | 2026-09-03 07:57:21 | 52.44545 | 8.67422 | 118° | 29km/h | 19088m | -9.5m/s | -53.1°C | 0.9% | 67.2hPa | 2.6V | 08:26:40 | 01:25:03 | 00:00:00 | |
| DM0DOS-11 | 2026-09-03 07:57:20 | 52.44579 | 8.67377 | 164° | 26km/h | 19146m | -10.1m/s | -53.1°C | 4.1% | 66.6hPa | 2.6V | 08:26:43 | 01:24:57 | 00:00:00 | |
| DL1XH-west | 2026-09-03 07:57:19 | 52.44554 | 8.67402 | 135° | 29km/h | 19108m | -9.7m/s | -53.1°C | 1% | 67hPa | 2.6V | 08:26:40 | 01:25:01 | 00:00:00 | |
| BIOWL1-15 | 2026-09-03 07:57:17 | 52.44579 | 8.67377 | 164° | 26km/h | 19146m | -10.1m/s | -53.2°C | 1% | 66.6hPa | 2.6V | 08:27:31 | 01:24:57 | 00:00:00 | |
| DO2JMG | 2026-09-03 07:57:16 | 52.44572 | 8.67381 | 157° | 29km/h | 19137m | -9.5m/s | -53.1°C | 0.8% | 66.7hPa | 2.7V | 08:27:31 | 01:24:58 | 00:00:00 | |
| HSKMA3-T | 2026-09-03 07:57:13 | 52.44589 | 8.67372 | 152° | 18km/h | 19167m | -10.7m/s | -53.2°C | 0.9% | 66.4hPa | 2.6V | 08:27:31 | 01:24:55 | 00:00:00 | |
| DF8AY | 2026-09-03 07:57:12 | 52.44592 | 8.67367 | 131° | 18km/h | 19178m | -10.1m/s | -53.1°C | 0.9% | 66.3hPa | 2.7V | 08:27:31 | 01:24:54 | 00:00:00 | |
| DB0DAN | 2026-09-03 07:57:10 | 52.44597 | 8.67349 | 105° | 29km/h | 19197m | -9.2m/s | -53.1°C | 1.3% | 66.13hPa | 2.7V | 00:00:00 | 00:00:00 | 00:00:00 | |
| DM0DOS-11 | 2026-09-03 07:57:10 | 52.44610 | 8.67272 | 118° | 38km/h | 19245m | -9.4m/s | -53.1°C | 4% | 65.6hPa | 2.7V | 08:26:53 | 01:24:47 | 00:00:00 | |
| AA1-15 | 2026-09-03 07:57:10 | 52.44597 | 8.67349 | 105° | 31km/h | 19197m | -9.2m/s | -53.1°C | 0.9% | 66.1hPa | 2.7V | 08:27:31 | 01:24:52 | 00:00:00 | |
| DL1XH-west | 2026-09-03 07:57:08 | 52.44601 | 8.67319 | 102° | 40km/h | 19216m | -9.9m/s | -53.2°C | 0.9% | 65.9hPa | 2.6V | 08:27:31 | 01:24:50 | 00:00:00 | |
| DO2JMG | 2026-09-03 07:57:06 | 52.44606 | 8.67287 | 110° | 40km/h | 19236m | -9.7m/s | -53.1°C | 0.9% | 65.7hPa | 2.7V | 08:27:31 | 01:24:48 | 00:00:00 | |
| DL1XH-15 | 2026-09-03 07:57:06 | 52.44641 | 8.67210 | 124° | 44km/h | 19295m | -9.9m/s | -53.2°C | 4.1% | 65.1hPa | 2.7V | 08:26:58 | 01:24:42 | 00:00:00 | |
| BIOWL1-15 | 2026-09-03 07:57:04 | 52.44615 | 8.67259 | 128° | 37km/h | 19255m | -9.3m/s | -53.1°C | 0.9% | 65.5hPa | 2.7V | 08:27:31 | 01:24:46 | 00:00:00 | |
| DO2SHX-10 | 2026-09-03 07:57:04 | 52.44615 | 8.67259 | 129° | 38km/h | 19255m | -9.3m/s | -53.0°C | 4.0% | 65.5hPa | 2.7V | 00:00:00 | 01:24:46 | 00:00:00 | |
| DL1NUX | 2026-09-03 07:57:03 | 52.44651 | 8.67176 | 107° | 49km/h | 19314m | -9.3m/s | -53°C | 4.1% | 64.9hPa | 2.7V | 08:27:00 | 01:24:40 | 00:00:00 | |
| HSKMA3-T | 2026-09-03 07:57:02 | 52.44628 | 8.67236 | 134° | 38km/h | 19274m | -10.2m/s | -53.1°C | 0.9% | 65.3hPa | 2.6V | 08:27:31 | 01:24:44 | 00:00:00 | |
| AA1-15 | 2026-09-03 07:56:59 | 52.44647 | 8.67194 | 116° | 46km/h | 19305m | -9.6m/s | -53.2°C | 1% | 65hPa | 2.7V | 08:27:31 | 01:24:41 | 00:00:00 | |
| HTAHTA | 2026-09-03 07:56:59 | 52.44651 | 8.67176 | 107° | 47km/h | 19314m | -9.3m/s | -53.0°C | 1.3% | 64.9hPa | 2.7V | 00:00:00 | 00:00:00 | 00:00:00 | |
| DJ2DS-15 | 2026-09-03 07:56:58 | 52.44654 | 8.67157 | 99° | 49km/h | 19323m | -9.3m/s | -53.0°C | 1.3% | 64.8hPa | 2.7V | 00:00:00 | 00:00:00 | 00:00:00 | |
| DL1XH1-15 | 2026-09-03 07:56:57 | 52.44661 | 8.67086 | 137° | 22km/h | 19372m | -9.3m/s | -52.9°C | 3.9% | 64.3hPa | 2.7V | 08:27:06 | 01:24:34 | 00:00:00 | |
| DL1XH-west | 2026-09-03 07:56:57 | 52.44654 | 8.67157 | 100° | 49km/h | 19323m | -9.3m/s | -53°C | 0.9% | 64.8hPa | 2.6V | 08:27:31 | 01:24:39 | 00:00:00 | |
| DD8BA-10 | 2026-09-03 07:56:57 | 52.44654 | 8.67156 | 100° | 38km/h | 19323m | -9.3m/s | -53.0°C | 4.0% | 64.8hPa | 2.6V | 00:00:00 | 00:00:00 | 00:00:00 | |
| DL1XH-15 | 2026-09-03 07:56:56 | 52.44674 | 8.67074 | 157° | 38km/h | 19391m | -10.1m/s | -52.6°C | 3.8% | 64.1hPa | 2.6V | 08:27:08 | 01:24:32 | 00:00:00 | |
| DO2JMG | 2026-09-03 07:56:55 | 52.44656 | 8.67119 | 91° | 40km/h | 19344m | -10.6m/s | -53°C | 0.9% | 64.6hPa | 2.6V | 08:27:31 | 01:24:37 | 00:00:00 | |
| BIOWL1-15 | 2026-09-03 07:56:55 | 52.44657 | 8.67093 | 109° | 24km/h | 19363m | -9.3m/s | -52.9°C | 0.9% | 64.4hPa | 2.7V | 08:27:31 | 01:24:35 | 00:00:00 | |
| HSKMA3-T | 2026-09-03 07:56:52 | 52.44660 | 8.67086 | 138° | 22km/h | 19372m | -9.3m/s | -52.9°C | 0.8% | 64.3hPa | 2.7V | 08:27:31 | 01:24:34 | 00:00:00 | |
| DF8AY | 2026-09-03 07:56:51 | 52.44666 | 8.67080 | 154° | 29km/h | 19382m | -9.4m/s | -52.7°C | 0.8% | 64.3hPa | 2.6V | 08:27:31 | 01:24:33 | 00:00:00 | |
| AA1-15 | 2026-09-03 07:56:48 | 52.44694 | 8.67058 | 149° | 49km/h | 19413m | -10.9m/s | -52.3°C | 0.7% | 63.9hPa | 2.7V | 08:27:31 | 01:24:30 | 00:00:00 | |
| DL1XH1-15 | 2026-09-03 07:56:47 | 52.44736 | 8.66954 | 93° | 46km/h | 19474m | -9.9m/s | -52.2°C | 3.9% | 63.3hPa | 2.7V | 08:27:16 | 01:24:24 | 00:00:00 | |
| DL1XH-west | 2026-09-03 07:56:47 | 52.44704 | 8.67046 | 142° | 53km/h | 19424m | -10.4m/s | -52.3°C | 0.9% | 63.7hPa | 2.7V | 08:27:31 | 01:24:29 | 00:00:00 | |
| DD8BA-10 | 2026-09-03 07:56:47 | 52.44704 | 8.67046 | 143° | 44km/h | 19424m | -10.4m/s | -52.2°C | 3.9% | 63.7hPa | 2.7V | 00:00:00 | 00:00:00 | 00:00:00 | |
| DL1NUX | 2026-09-03 07:56:46 | 52.44735 | 8.66937 | 84° | 40km/h | 19484m | -10.2m/s | -52.1°C | 3.8% | 63.2hPa | 2.7V | 08:27:17 | 01:24:23 | 00:00:00 | |
| DL3AQ-11 | 2026-09-03 07:56:45 | 52.44723 | 8.67013 | 123° | 55km/h | 19444m | -10.2m/s | -52.5°C | 1.4% | 63.6hPa | 2.6V | 00:00:00 | 00:00:00 | 00:00:00 | |
| DO2JMG | 2026-09-03 07:56:44 | 52.44730 | 8.66994 | 114° | 53km/h | 19454m | -9.9m/s | -52.5°C | 1% | 63.5hPa | 2.6V | 08:27:31 | 01:24:26 | 00:00:00 | |
| BIOWL1-15 | 2026-09-03 07:56:42 | 52.44736 | 8.66954 | 93° | 46km/h | 19474m | -9.9m/s | -52.3°C | 0.8% | 63.4hPa | 2.7V | 08:27:31 | 01:24:24 | 00:00:00 | |
| HSKMA3-T | 2026-09-03 07:56:41 | 52.44735 | 8.66937 | 85° | 40km/h | 19484m | -10.2m/s | -52.1°C | 0.8% | 63.2hPa | 2.7V | 08:27:31 | 01:24:23 | 00:00:00 | |
| DF8AY | 2026-09-03 07:56:40 | 52.44734 | 8.66922 | 78° | 35km/h | 19495m | -10.3m/s | -52.1°C | 0.7% | 63.1hPa | 2.7V | 08:27:31 | 01:24:22 | 00:00:00 | |
| AA1-15 | 2026-09-03 07:56:38 | 52.44730 | 8.66901 | 71° | 18km/h | 19515m | -10.2m/s | -52.2°C | 0.8% | 62.9hPa | 2.6V | 08:27:31 | 01:24:20 | 00:00:00 | |
| DL1XH1-15 | 2026-09-03 07:56:37 | 52.44752 | 8.66879 | 156° | 38km/h | 19577m | -10.3m/s | -52.4°C | 3.7% | 62.3hPa | 2.6V | 08:27:26 | 01:24:14 | 00:00:00 | |
| DO2SHX-10 | 2026-09-03 07:56:37 | 52.44729 | 8.66895 | 88° | 11km/h | 19526m | -10.4m/s | -52.3°C | 3.7% | 62.7hPa | 2.6V | 00:00:00 | 01:24:19 | 00:00:00 | |
| DL1NUX | 2026-09-03 07:56:36 | 52.44761 | 8.66871 | 151° | 44km/h | 19587m | -10.2m/s | -52.4°C | 3.7% | 62.2hPa | 2.6V | 08:27:27 | 01:24:13 | 00:00:00 | |
| DL1XH-west | 2026-09-03 07:56:36 | 52.44730 | 8.66891 | 137° | 9km/h | 19536m | -9.8m/s | -52.4°C | 0.7% | 62.7hPa | 2.7V | 08:27:31 | 01:24:18 | 00:00:00 | |
| DO2JMG | 2026-09-03 07:56:34 | 52.44738 | 8.66887 | 166° | 24km/h | 19556m | -10.7m/s | -52.4°C | 0.7% | 62.5hPa | 2.7V | 08:27:31 | 01:24:16 | 00:00:00 | |
| DF8AY | 2026-09-03 07:56:31 | 52.44771 | 8.66861 | 145° | 47km/h | 19598m | -10.8m/s | -52.4°C | 0.7% | 62.1hPa | 2.7V | 08:27:31 | 01:24:12 | 00:00:00 | |
| HSKMA3-T | 2026-09-03 07:56:31 | 52.44761 | 8.66871 | 151° | 44km/h | 19587m | -10.3m/s | -52.4°C | 0.7% | 62.2hPa | 2.6V | 08:27:31 | 01:24:13 | 00:00:00 | |
| AA1-15 | 2026-09-03 07:56:28 | 52.44791 | 8.66834 | 133° | 53km/h | 19619m | -10.6m/s | -52.4°C | 0.8% | 61.9hPa | 2.7V | 08:27:31 | 01:24:10 | 00:00:00 | |
| HTAHTA | 2026-09-03 07:56:28 | 52.44799 | 8.66817 | 126° | 53km/h | 19630m | -10.4m/s | -52.5°C | 1.3% | 61.8hPa | 2.6V | 00:00:00 | 00:00:00 | 00:00:00 | |
| DD8BA-10 | 2026-09-03 07:56:27 | 52.44799 | 8.66817 | 127° | 35km/h | 19630m | -10.3m/s | -52.4°C | 4.0% | 61.7hPa | 2.6V | 00:00:00 | 00:00:00 | 00:00:00 | |
| DL1NUX | 2026-09-03 07:56:26 | 52.44819 | 8.66715 | 81° | 27km/h | 19694m | -10.5m/s | -52.8°C | 3.9% | 61.1hPa | 2.6V | 08:27:37 | 01:24:03 | 00:00:00 | |
| DF5WG-10 | 2026-09-03 07:56:26 | 52.44807 | 8.66799 | 121° | 51km/h | 19641m | -10.7m/s | -52.6°C | 4.0% | 61.6hPa | 2.6V | 00:00:00 | 01:24:08 | 08:30:00 | |
| DL1XH-15 | 2026-09-03 07:56:25 | 52.44818 | 8.66706 | 74° | 20km/h | 19705m | -11.2m/s | -52.7°C | 3.9% | 61hPa | 2.6V | 08:27:38 | 01:24:02 | 00:00:00 | |
| DL1XH-west | 2026-09-03 07:56:25 | 52.44813 | 8.66780 | 113° | 49km/h | 19651m | -10.8m/s | -52.7°C | 0.9% | 61.6hPa | 2.6V | 08:28:22 | 01:24:07 | 00:00:00 | |
| DO2JMG | 2026-09-03 07:56:23 | 52.44819 | 8.66743 | 98° | 40km/h | 19673m | -10.9m/s | -52.9°C | 0.9% | 61.4hPa | 2.7V | 08:28:22 | 01:24:05 | 00:00:00 | |
| DL4BBY-15 | 2026-09-03 07:56:23 | 52.44819 | 8.66743 | 98° | 26km/h | 19672m | -10.8m/s | -51.9°C | 0% | 0hPa | 2.6V | 00:00:00 | 00:00:00 | 00:00:00 | |
| DJ2DS-15 | 2026-09-03 07:56:22 | 52.44819 | 8.66715 | 81° | 26km/h | 19694m | -10.5m/s | -52.8°C | 1.3% | 61.1hPa | 2.6V | 00:00:00 | 00:00:00 | 00:00:00 | |
| DM0DOS-11 | 2026-09-03 07:56:20 | 52.44823 | 8.66700 | 197° | 22km/h | 19760m | -9.9m/s | -52.8°C | 3.9% | 60.5hPa | 2.6V | 08:27:43 | 01:23:57 | 00:00:00 | |
| BIOWL1-15 | 2026-09-03 07:56:20 | 52.44818 | 8.66706 | 75° | 20km/h | 19705m | -11.2m/s | -52.7°C | 0.8% | 61hPa | 2.6V | 08:28:22 | 01:24:02 | 00:00:00 | |
| AA1-15 | 2026-09-03 07:56:18 | 52.44816 | 8.66697 | 77° | 4km/h | 19727m | -11.2m/s | -52.7°C | 0.8% | 60.9hPa | 2.7V | 08:28:22 | 01:24:00 | 00:00:00 | |
| SONCRA | 2026-09-03 07:56:18 | 52.44817 | 8.66696 | 195° | 5km/h | 19739m | -11.7m/s | -52.8°C | 1.3% | 60.7hPa | 2.7V | 00:00:00 | 00:00:00 | 00:00:00 | |
| DL1XH1-15 | 2026-09-03 07:56:17 | 52.44847 | 8.66704 | 175° | 42km/h | 19788m | -9.8m/s | -52.7°C | 3.9% | 60.3hPa | 2.7V | 08:27:46 | 01:23:54 | 00:00:00 | |
| DL3AQ-11 | 2026-09-03 07:56:17 | 52.44819 | 8.66697 | 200° | 13km/h | 19750m | -10.5m/s | -52.8°C | 1.3% | 60.7hPa | 2.7V | 00:00:00 | 00:00:00 | 00:00:00 | |
| DJ2DS-15 | 2026-09-03 07:56:16 | 52.44819 | 8.66697 | 201° | 27km/h | 19750m | -10.5m/s | -52.8°C | 3.9% | 60.6hPa | 2.7V | 00:00:00 | 01:23:58 | 00:00:00 | |
| DL1XH-15 | 2026-09-03 07:56:15 | 52.44869 | 8.66696 | 159° | 46km/h | 19809m | -11.1m/s | -52.5°C | 3.9% | 60.1hPa | 2.7V | 08:27:48 | 01:23:52 | 00:00:00 | |
| DL1XH-west | 2026-09-03 07:56:15 | 52.44823 | 8.66700 | 197° | 22km/h | 19760m | -9.9m/s | -52.8°C | 0.9% | 60.5hPa | 2.6V | 08:28:22 | 01:23:57 | 00:00:00 | |
| DO2JMG | 2026-09-03 07:56:13 | 52.44838 | 8.66704 | 184° | 37km/h | 19779m | -9.2m/s | -52.8°C | 0.8% | 60.3hPa | 2.6V | 08:28:22 | 01:23:55 | 00:00:00 | |
| DO2SHX-10 | 2026-09-03 07:56:13 | 52.44838 | 8.66704 | 184° | 40km/h | 19779m | -9.1m/s | -52.8°C | 3.9% | 60.3hPa | 2.7V | 00:00:00 | 01:23:55 | 00:00:00 | |
| DB0DAN | 2026-09-03 07:56:10 | 52.44869 | 8.66696 | 159° | 44km/h | 19809m | -11.1m/s | -52.5°C | 1.3% | 60.09hPa | 2.7V | 00:00:00 | 00:00:00 | 00:00:00 | |
| DM0DOS-11 | 2026-09-03 07:56:10 | 52.44901 | 8.66647 | 97° | 24km/h | 19862m | -8.7m/s | -52.7°C | 3.8% | 59.6hPa | 2.7V | 08:27:53 | 01:23:47 | 00:00:00 | |
| DF8AY | 2026-09-03 07:56:10 | 52.44869 | 8.66696 | 159° | 46km/h | 19809m | -11.1m/s | -52.5°C | 0.8% | 60.1hPa | 2.7V | 08:28:22 | 01:23:52 | 00:00:00 | |
| HSKMA3-T | 2026-09-03 07:56:09 | 52.44879 | 8.66688 | 151° | 44km/h | 19820m | -11.2m/s | -52.5°C | 0.9% | 60hPa | 2.6V | 08:28:22 | 01:23:51 | 00:00:00 | |
| DL8DAS-14 | 2026-09-03 07:56:08 | 52.44888 | 8.66678 | 141° | 38km/h | 19832m | -11.1m/s | -52.5°C | 1.3% | 59.9hPa | 2.6V | 00:00:00 | 00:00:00 | 00:00:00 | |
| DL1XH1-15 | 2026-09-03 07:56:07 | 52.44896 | 8.66633 | 351° | 9km/h | 19892m | -10.8m/s | -52.7°C | 3.7% | 59.3hPa | 2.6V | 08:27:56 | 01:23:44 | 00:00:00 | |
| AA1-15 | 2026-09-03 07:56:07 | 52.44894 | 8.66668 | 130° | 35km/h | 19842m | -10.9m/s | -52.7°C | 0.7% | 59.8hPa | 2.6V | 08:28:22 | 01:23:49 | 00:00:00 | |
| DD8BA-10 | 2026-09-03 07:56:07 | 52.44894 | 8.66668 | 130° | 18km/h | 19843m | -10.8m/s | -52.6°C | 3.8% | 59.7hPa | 2.6V | 00:00:00 | 00:00:00 | 00:00:00 | |
| DL1NUX | 2026-09-03 07:56:06 | 52.44894 | 8.66635 | 299° | 7km/h | 19903m | -11.2m/s | -52.8°C | 3.7% | 59.2hPa | 2.6V | 08:27:57 | 01:23:43 | 00:00:00 | |
| DL1XH-west | 2026-09-03 07:56:04 | 52.44900 | 8.66639 | 70° | 16km/h | 19871m | -9.7m/s | -52.7°C | 0.8% | 59.5hPa | 2.7V | 08:28:22 | 01:23:46 | 00:00:00 | |
| DO2JMG | 2026-09-03 07:56:03 | 52.44896 | 8.66633 | 352° | 9km/h | 19892m | -10.9m/s | -52.7°C | 0.7% | 59.3hPa | 2.6V | 08:28:22 | 01:23:44 | 00:00:00 | |
| BUE01 | 2026-09-03 07:56:02 | 52.44894 | 8.66635 | 299° | 7km/h | 19903m | -11.2m/s | -52.8°C | 1.2% | 59.2hPa | 2.6V | 00:00:00 | 00:00:00 | 00:00:00 | |
| DL1CLM-18 | 2026-09-03 07:56:01 | 52.44896 | 8.66633 | 353° | 9km/h | 19892m | -10.9m/s | -52.7°C | 1.2% | 59.3hPa | 2.6V | 00:00:00 | 00:00:00 | 00:00:00 | |
| DM0DOS-11 | 2026-09-03 07:56:00 | 52.44924 | 8.66635 | 142° | 38km/h | 19965m | -10.6m/s | -52.9°C | 4.1% | 58.6hPa | 2.6V | 08:28:03 | 01:23:37 | 00:00:00 | |
| BIOWL1-15 | 2026-09-03 07:56:00 | 52.44901 | 8.66645 | 193° | 24km/h | 19934m | -9.8m/s | -53.2°C | 0.8% | 59hPa | 2.7V | 08:28:22 | 01:23:40 | 00:00:00 | |
| HSKMA3-T | 2026-09-03 07:55:59 | 52.44896 | 8.66642 | 211° | 16km/h | 19924m | -10.2m/s | -53.1°C | 0.8% | 59hPa | 2.7V | 08:28:22 | 01:23:41 | 00:00:00 | |
| AA1-15 | 2026-09-03 07:55:56 | 52.44916 | 8.66642 | 159° | 35km/h | 19955m | -10.9m/s | -53°C | 0.8% | 58.7hPa | 2.6V | 08:28:22 | 01:23:38 | 00:00:00 | |
| DB0DAN | 2026-09-03 07:55:55 | 52.44924 | 8.66635 | 143° | 37km/h | 19966m | -10.6m/s | -52.9°C | 1.3% | 58.63hPa | 2.6V | 00:00:00 | 00:00:00 | 00:00:00 | |
| DL1XH-west | 2026-09-03 07:55:54 | 52.44931 | 8.66624 | 127° | 38km/h | 19976m | -10.4m/s | -53°C | 0.9% | 58.5hPa | 2.7V | 08:28:22 | 01:23:36 | 00:00:00 | |
| DO2JMG | 2026-09-03 07:55:52 | 52.44938 | 8.66598 | 98° | 29km/h | 19997m | -10.4m/s | -53.3°C | 0.9% | 58.4hPa | 2.7V | 08:28:22 | 01:23:34 | 00:00:00 | |
| DD1CC8 | 2026-09-03 07:55:51 | 52.44937 | 8.66581 | 61° | 11km/h | 20018m | -11.0m/s | -53.5°C | 1.3% | 58.2hPa | 2.6V | 00:00:00 | 00:00:00 | 00:00:00 | |
| DM0DOS-11 | 2026-09-03 07:55:50 | 52.44944 | 8.66597 | 206° | 27km/h | 20069m | -10.9m/s | -53.2°C | 3.9% | 57.7hPa | 2.6V | 08:28:13 | 01:23:27 | 00:00:00 | |
| HSKMA3-T | 2026-09-03 07:55:49 | 52.44935 | 8.66579 | 9° | 4km/h | 20028m | -10.2m/s | -53.4°C | 0.9% | 58hPa | 2.6V | 08:28:22 | 01:23:31 | 00:00:00 | |
| BIOWL1-15 | 2026-09-03 07:55:48 | 52.44935 | 8.66581 | 265° | 9km/h | 20038m | -9.8m/s | -53.4°C | 0.9% | 57.9hPa | 2.7V | 08:28:22 | 01:23:30 | 00:00:00 | |
| AA1-15 | 2026-09-03 07:55:45 | 52.44944 | 8.66597 | 207° | 27km/h | 20069m | -10.9m/s | -53.2°C | 0.8% | 57.7hPa | 2.6V | 08:28:22 | 01:23:27 | 00:00:00 | |
| DL1XH-west | 2026-09-03 07:55:43 | 52.44958 | 8.66601 | 173° | 27km/h | 20091m | -10.9m/s | -53.2°C | 0.8% | 57.5hPa | 2.6V | 08:28:22 | 01:23:25 | 00:00:00 | |
| DO2JMG | 2026-09-03 07:55:42 | 52.44965 | 8.66598 | 154° | 29km/h | 20101m | -10.4m/s | -53.2°C | 0.8% | 57.4hPa | 2.7V | 08:28:22 | 01:23:24 | 00:00:00 | |
| DB0DAN | 2026-09-03 07:55:40 | 52.44975 | 8.66581 | 118° | 27km/h | 20123m | -11.2m/s | -53.1°C | 1.3% | 57.21hPa | 2.7V | 00:00:00 | 00:00:00 | 00:00:00 | |
| BIOWL1-15 | 2026-09-03 07:55:39 | 52.44975 | 8.66554 | 48° | 18km/h | 20154m | -10.3m/s | -53.2°C | 0.8% | 56.9hPa | 2.6V | 08:28:22 | 01:23:19 | 00:00:00 | |
| HSKMA3-T | 2026-09-03 07:55:38 | 52.44978 | 8.66561 | 77° | 22km/h | 20144m | -10.3m/s | -53.1°C | 0.8% | 57hPa | 2.6V | 08:28:22 | 01:23:20 | 00:00:00 | |
| DD8BA-10 | 2026-09-03 07:55:37 | 52.44975 | 8.66553 | 48° | 16km/h | 20154m | -10.2m/s | -53.2°C | 3.9% | 56.9hPa | 2.6V | 08:28:00 | 00:00:00 | 00:00:00 | |
| DL8DAS-15 | 2026-09-03 07:55:36 | 52.44975 | 8.66553 | 49° | 18km/h | 20154m | -10.3m/s | -53.2°C | 1.3% | 56.9hPa | 2.7V | 08:28:00 | 00:00:00 | 00:00:00 | |
| DL1XH-15 | 2026-09-03 07:55:35 | 52.44966 | 8.66565 | 168° | 15km/h | 20227m | -10.2m/s | -53.9°C | 4% | 56.3hPa | 2.7V | 08:28:28 | 01:23:12 | 00:00:00 | |
| AA1-15 | 2026-09-03 07:55:35 | 52.44967 | 8.66549 | 348° | 18km/h | 20174m | -10m/s | -53.5°C | 0.8% | 56.7hPa | 2.7V | 08:29:13 | 01:23:17 | 00:00:00 | |
| DL1XH-west | 2026-09-03 07:55:33 | 52.44961 | 8.66557 | 289° | 13km/h | 20195m | -11.2m/s | -53.6°C | 0.8% | 56.6hPa | 2.6V | 08:29:13 | 01:23:15 | 00:00:00 | |
| DO2JMG | 2026-09-03 07:55:31 | 52.44963 | 8.66565 | 205° | 11km/h | 20217m | -10.4m/s | -53.8°C | 0.9% | 56.3hPa | 2.6V | 08:29:13 | 01:23:13 | 00:00:00 | |
| DM0DOS-11 | 2026-09-03 07:55:31 | 52.44972 | 8.66514 | 63° | 37km/h | 20279m | -9.7m/s | -54.1°C | 4.2% | 55.8hPa | 2.6V | 08:28:33 | 01:23:07 | 00:00:00 | |
| HSKMA3-T | 2026-09-03 07:55:28 | 52.44973 | 8.66554 | 116° | 27km/h | 20248m | -11m/s | -54°C | 0.9% | 56.1hPa | 2.7V | 08:29:13 | 01:23:10 | 00:00:00 | |
| DL1NUX | 2026-09-03 07:55:28 | 52.44960 | 8.66493 | 30° | 33km/h | 20300m | -11.5m/s | -54.3°C | 4.3% | 55.6hPa | 2.7V | 08:28:35 | 01:23:05 | 00:00:00 | |
| BIOWL1-15 | 2026-09-03 07:55:28 | 52.44975 | 8.66529 | 80° | 37km/h | 20269m | -10m/s | -54°C | 0.9% | 55.9hPa | 2.6V | 08:29:13 | 01:23:08 | 00:00:00 | |
| DF8AY | 2026-09-03 07:55:27 | 52.44975 | 8.66542 | 96° | 31km/h | 20259m | -10.5m/s | -54.1°C | 1% | 56hPa | 2.6V | 08:29:13 | 01:23:09 | 00:00:00 | |
| AA1-15 | 2026-09-03 07:55:25 | 52.44972 | 8.66514 | 64° | 37km/h | 20279m | -9.7m/s | -54.1°C | 1% | 55.8hPa | 2.6V | 08:29:13 | 01:23:07 | 00:00:00 | |
| DB0DAN | 2026-09-03 07:55:25 | 52.44972 | 8.66514 | 64° | 35km/h | 20279m | -9.7m/s | -54.1°C | 1.4% | 55.82hPa | 2.6V | 00:00:00 | 00:00:00 | 00:00:00 | |
| DL1XH-west | 2026-09-03 07:55:23 | 52.44960 | 8.66493 | 31° | 33km/h | 20300m | -11.5m/s | -54.3°C | 1% | 55.6hPa | 2.7V | 08:29:13 | 01:23:05 | 00:00:00 | |
| DL4BBY-15 | 2026-09-03 07:55:23 | 52.44960 | 8.66493 | 31° | 26km/h | 20300m | -11.5m/s | -53.2°C | 0% | 0hPa | 2.6V | 00:00:00 | 00:00:00 | 00:00:00 | |
| SONDE2-11 | 2026-09-03 07:55:21 | 52.44947 | 8.66485 | 8° | 18km/h | 20323m | -11.8m/s | -54.4°C | 1.4% | 55.5hPa | 2.6V | 00:00:00 | 00:00:00 | 00:00:00 | |
| DM0DOS-11 | 2026-09-03 07:55:20 | 52.44959 | 8.66462 | 121° | 40km/h | 20391m | -11.2m/s | -53.9°C | 4.2% | 54.9hPa | 2.6V | 08:28:43 | 01:22:57 | 00:00:00 | |
| DO2JMG | 2026-09-03 07:55:20 | 52.44943 | 8.66485 | 354° | 11km/h | 20334m | -11.4m/s | -54.4°C | 0.9% | 55.3hPa | 2.6V | 08:29:13 | 01:23:02 | 00:00:00 | |
| DF8AY | 2026-09-03 07:55:18 | 52.44948 | 8.66482 | 147° | 24km/h | 20367m | -11.1m/s | -54.3°C | 1% | 55hPa | 2.7V | 08:29:13 | 01:22:59 | 00:00:00 | |
| HSKMA3-T | 2026-09-03 07:55:18 | 52.44944 | 8.66485 | 165° | 13km/h | 20357m | -10.7m/s | -54.4°C | 1.1% | 55.2hPa | 2.7V | 08:29:13 | 01:23:00 | 00:00:00 | |
| DL1XH1-15 | 2026-09-03 07:55:17 | 52.44965 | 8.66408 | 81° | 46km/h | 20424m | -11.4m/s | -53.8°C | 4.2% | 54.6hPa | 2.7V | 08:28:46 | 01:22:54 | 00:00:00 | |
| BIOWL1-15 | 2026-09-03 07:55:16 | 52.44953 | 8.66474 | 135° | 33km/h | 20379m | -12m/s | -54.2°C | 1.1% | 54.9hPa | 2.7V | 08:29:13 | 01:22:58 | 00:00:00 | |
| SONCRA | 2026-09-03 07:55:16 | 52.44959 | 8.66462 | 121° | 40km/h | 20391m | -11.2m/s | -53.9°C | 1.4% | 54.9hPa | 2.7V | 00:00:00 | 00:00:00 | 00:00:00 | |
| DL1XH-15 | 2026-09-03 07:55:15 | 52.44958 | 8.66376 | 60° | 37km/h | 20448m | -12.1m/s | -53.8°C | 4.2% | 54.4hPa | 2.7V | 08:28:48 | 01:22:52 | 00:00:00 | |
| AA1-15 | 2026-09-03 07:55:14 | 52.44963 | 8.66446 | 108° | 46km/h | 20402m | -10.7m/s | -53.8°C | 1% | 54.7hPa | 2.6V | 08:29:13 | 01:22:56 | 00:00:00 | |
| DL1XH-west | 2026-09-03 07:55:12 | 52.44965 | 8.66408 | 81° | 46km/h | 20424m | -11.4m/s | -53.8°C | 1% | 54.6hPa | 2.7V | 08:29:13 | 01:22:54 | 00:00:00 | |
| DM0DOS-11 | 2026-09-03 07:55:10 | 52.44951 | 8.66353 | 176° | 16km/h | 20503m | -10.3m/s | -53.6°C | 4.2% | 53.9hPa | 2.7V | 08:28:53 | 01:22:47 | 00:00:00 | |
| DO2JMG | 2026-09-03 07:55:09 | 52.44954 | 8.66364 | 52° | 27km/h | 20459m | -12m/s | -53.7°C | 1% | 54.2hPa | 2.6V | 08:29:13 | 01:22:51 | 00:00:00 | |
| SO1NDE-10 | 2026-09-03 07:55:09 | 52.44953 | 8.66364 | 53° | 22km/h | 20460m | -11.9m/s | -53.7°C | 4.2% | 54.2hPa | 2.6V | 00:00:00 | 01:22:51 | 00:00:00 | |
| DO2LYB-13 | 2026-09-03 07:55:08 | 52.44953 | 8.66364 | 53° | 27km/h | 20460m | -12.0m/s | -53.7°C | 1.4% | 54.2hPa | 2.6V | 00:00:00 | 00:00:00 | 00:00:00 | |
| DL1XH1-15 | 2026-09-03 07:55:07 | 52.44971 | 8.66341 | 148° | 38km/h | 20536m | -11.5m/s | -53.5°C | 4.2% | 53.6hPa | 2.6V | 08:28:56 | 01:22:44 | 00:00:00 | |
| HSKMA3-T | 2026-09-03 07:55:07 | 52.44948 | 8.66354 | 44° | 5km/h | 20482m | -10.5m/s | -53.7°C | 1% | 54.1hPa | 2.6V | 08:29:13 | 01:22:49 | 00:00:00 | |
| BIOWL1-15 | 2026-09-03 07:55:07 | 52.44951 | 8.66353 | 176° | 16km/h | 20503m | -10.3m/s | -53.6°C | 1% | 54hPa | 2.7V | 08:29:13 | 01:22:47 | 00:00:00 | |
| AA1-15 | 2026-09-03 07:55:04 | 52.44956 | 8.66352 | 166° | 26km/h | 20513m | -10.6m/s | -53.6°C | 1% | 53.9hPa | 2.7V | 08:29:13 | 01:22:46 | 00:00:00 | |
| DL1XH-west | 2026-09-03 07:55:01 | 52.44979 | 8.66331 | 139° | 40km/h | 20547m | -11.5m/s | -53.5°C | 1% | 53.5hPa | 2.6V | 08:29:13 | 01:22:43 | 00:00:00 | |
| DO2JMG | 2026-09-03 07:54:59 | 52.44991 | 8.66307 | 119° | 35km/h | 20570m | -11.4m/s | -53.4°C | 1% | 53.4hPa | 2.7V | 08:29:13 | 01:22:41 | 00:00:00 | |
| EDDB2-11 | 2026-09-03 07:54:59 | 52.44995 | 8.66295 | 109° | 29km/h | 20582m | -11.1m/s | -53.4°C | 1.3% | 53.3hPa | 2.7V | 00:00:00 | 00:00:00 | 00:00:00 | |
| DO3DL | 2026-09-03 07:54:58 | 52.44991 | 8.66307 | 120° | 35km/h | 20571m | -11.4m/s | -53.4°C | 1.3% | 53.4hPa | 2.7V | 08:29:00 | 00:00:00 | 00:00:00 | |
| DL1XH1-15 | 2026-09-03 07:54:57 | 52.44993 | 8.66271 | 245° | 4km/h | 20646m | -11.5m/s | -53.2°C | 4.2% | 52.7hPa | 2.7V | 08:29:06 | 01:22:34 | 00:00:00 | |
| HSKMA3-T | 2026-09-03 07:54:56 | 52.44996 | 8.66277 | 76° | 15km/h | 20602m | -9.9m/s | -53.3°C | 1% | 53.1hPa | 2.6V | 08:29:13 | 01:22:38 | 00:00:00 | |
| BIOWL1-15 | 2026-09-03 07:54:56 | 52.44994 | 8.66270 | 23° | 5km/h | 20623m | -10.9m/s | -53.2°C | 0.9% | 53hPa | 2.7V | 08:29:13 | 01:22:36 | 00:00:00 | |
| DL1XH-15 | 2026-09-03 07:54:55 | 52.44996 | 8.66275 | 212° | 13km/h | 20668m | -10.9m/s | -53°C | 4.1% | 52.5hPa | 2.6V | 08:29:08 | 01:22:32 | 00:00:00 | |
| AA1-15 | 2026-09-03 07:54:53 | 52.44993 | 8.66270 | 323° | 2km/h | 20635m | -11.2m/s | -53.2°C | 0.9% | 52.9hPa | 2.7V | 08:29:13 | 01:22:35 | 00:00:00 | |
| DL4BBY-15 | 2026-09-03 07:54:53 | 52.44993 | 8.66270 | 324° | 26km/h | 20635m | -11.1m/s | -52.1°C | 0% | 0hPa | 2.7V | 00:00:00 | 00:00:00 | 00:00:00 | |
| DL1NUX | 2026-09-03 07:54:52 | 52.45008 | 8.66280 | 183° | 22km/h | 20702m | -11.1m/s | -52.6°C | 3.9% | 52.3hPa | 2.7V | 08:29:11 | 01:22:29 | 00:00:00 | |
| DL1XH-west | 2026-09-03 07:54:51 | 52.44994 | 8.66273 | 234° | 7km/h | 20657m | -11.2m/s | -53.1°C | 0.9% | 52.6hPa | 2.6V | 08:29:13 | 01:22:33 | 00:00:00 | |
| DM0DOS-11 | 2026-09-03 07:54:50 | 52.45020 | 8.66278 | 169° | 22km/h | 20725m | -11.8m/s | -52.5°C | 3.9% | 52.1hPa | 2.6V | 08:29:13 | 01:22:27 | 00:00:00 | |
| DO2JMG | 2026-09-03 07:54:48 | 52.45003 | 8.66279 | 194° | 18km/h | 20691m | -11.5m/s | -52.8°C | 0.9% | 52.4hPa | 2.7V | 08:29:13 | 01:22:30 | 00:00:00 | |
| HSKMA3-T | 2026-09-03 07:54:46 | 52.45014 | 8.66280 | 172° | 22km/h | 20714m | -11.7m/s | -52.5°C | 0.8% | 52.2hPa | 2.7V | 08:29:13 | 01:22:28 | 00:00:00 | |
| DF8AY | 2026-09-03 07:54:45 | 52.45019 | 8.66278 | 169° | 22km/h | 20725m | -11.8m/s | -52.5°C | 0.8% | 52.1hPa | 2.6V | 08:29:13 | 01:22:27 | 00:00:00 | |
| BIOWL1-15 | 2026-09-03 07:54:44 | 52.45025 | 8.66275 | 153° | 24km/h | 20737m | -11.8m/s | -52.5°C | 0.8% | 52hPa | 2.6V | 18:12:15 | 01:22:26 | 00:00:00 | |
| AA1-15 | 2026-09-03 07:54:42 | 52.45035 | 8.66263 | 134° | 24km/h | 20761m | -11.9m/s | -52.5°C | 0.8% | 51.8hPa | 2.7V | 18:12:15 | 01:22:24 | 00:00:00 | |
| DL1NUX | 2026-09-03 07:54:42 | 52.45046 | 8.66204 | 91° | 33km/h | 20817m | -11.5m/s | -52.5°C | 4% | 51.4hPa | 2.6V | 08:30:00 | 01:22:19 | 00:00:00 | |
| DL8DAS-15 | 2026-09-03 07:54:41 | 52.45035 | 8.66263 | 135° | 24km/h | 20761m | -11.9m/s | -52.5°C | 1.3% | 51.8hPa | 2.7V | 00:00:00 | 00:00:00 | 00:00:00 | |
| DM0DOS-11 | 2026-09-03 07:54:40 | 52.45046 | 8.66177 | 85° | 33km/h | 20840m | -11.8m/s | -52.4°C | 4% | 51.2hPa | 2.7V | 08:30:00 | 01:22:17 | 00:00:00 | |
| DL1XH-west | 2026-09-03 07:54:40 | 52.45042 | 8.66243 | 110° | 31km/h | 20784m | -11.2m/s | -52.6°C | 0.9% | 51.6hPa | 2.7V | 18:12:15 | 01:22:22 | 00:00:00 | |
| DO2JMG | 2026-09-03 07:54:38 | 52.45046 | 8.66218 | 97° | 35km/h | 20806m | -10.7m/s | -52.5°C | 0.8% | 51.5hPa | 2.6V | 18:12:15 | 01:22:20 | 00:00:00 | |
| DF5WG-10 | 2026-09-03 07:54:38 | 52.45045 | 8.66218 | 98° | 31km/h | 20806m | -10.7m/s | -52.5°C | 3.9% | 51.4hPa | 2.6V | 00:00:00 | 01:22:20 | 00:00:00 | |
| DL1XH1-15 | 2026-09-03 07:54:37 | 52.45045 | 8.66141 | 81° | 29km/h | 20875m | -13.9m/s | -52.1°C | 3.8% | 50.9hPa | 2.6V | 08:30:00 | 01:22:14 | 00:00:00 | |
| HSKMA3-T | 2026-09-03 07:54:36 | 52.45046 | 8.66190 | 91° | 33km/h | 20828m | -11.7m/s | -52.4°C | 0.8% | 51.3hPa | 2.7V | 18:12:15 | 01:22:18 | 00:00:00 | |
| DL1XH-15 | 2026-09-03 07:54:35 | 52.45043 | 8.66118 | 84° | 27km/h | 20901m | -12.3m/s | -52.1°C | 3.9% | 50.7hPa | 2.7V | 08:30:00 | 01:22:12 | 00:00:00 | |
| DF8AY | 2026-09-03 07:54:34 | 52.45046 | 8.66164 | 89° | 29km/h | 20852m | -11.6m/s | -52.3°C | 0.8% | 51.1hPa | 2.7V | 18:12:15 | 01:22:16 | 00:00:00 | |
| BIOWL1-15 | 2026-09-03 07:54:33 | 52.45046 | 8.66152 | 86° | 27km/h | 20863m | -10.6m/s | -52.2°C | 0.8% | 51hPa | 2.6V | 18:12:15 | 01:22:15 | 00:00:00 | |
| D01LWL | 2026-09-03 07:54:33 | 52.45045 | 8.66141 | 81° | 27km/h | 20875m | -13.9m/s | -52.1°C | 1.2% | 50.9hPa | 2.6V | 00:00:00 | 00:00:00 | 00:00:00 | |
| DL1NUX | 2026-09-03 07:54:32 | 52.45042 | 8.66082 | 94° | 31km/h | 20938m | -12.1m/s | -52°C | 3.8% | 50.5hPa | 2.6V | 08:30:00 | 01:22:09 | 00:00:00 | |
| AA1-15 | 2026-09-03 07:54:31 | 52.45044 | 8.66129 | 78° | 27km/h | 20888m | -12.5m/s | -52.1°C | 0.8% | 50.8hPa | 2.6V | 18:12:15 | 01:22:13 | 00:00:00 | |
| DM0DOS-11 | 2026-09-03 07:54:30 | 52.45044 | 8.66058 | 103° | 29km/h | 20962m | -12.4m/s | -51.6°C | 3.7% | 50.2hPa | 2.6V | 08:30:00 | 01:22:07 | 00:00:00 | |
| DL1XH-west | 2026-09-03 07:54:29 | 52.45042 | 8.66107 | 86° | 31km/h | 20913m | -12.4m/s | -52.1°C | 0.7% | 50.7hPa | 2.7V | 18:12:15 | 01:22:11 | 00:00:00 | |
| BUE01 | 2026-09-03 07:54:29 | 52.45042 | 8.66095 | 87° | 27km/h | 20925m | -12.2m/s | -52.1°C | 1.2% | 50.5hPa | 2.7V | 00:00:00 | 00:00:00 | 00:00:00 | |
| DF5WG-10 | 2026-09-03 07:54:28 | 52.45042 | 8.66095 | 88° | 27km/h | 20926m | -12.1m/s | -52.0°C | 3.9% | 50.5hPa | 2.7V | 00:00:00 | 01:22:10 | 00:00:00 | |
| DL1XH1-15 | 2026-09-03 07:54:27 | 52.45050 | 8.66024 | 107° | 26km/h | 20999m | -11.9m/s | -51.8°C | 3.8% | 50hPa | 2.7V | 08:30:00 | 01:22:04 | 00:00:00 | |
| DO2JMG | 2026-09-03 07:54:27 | 52.45042 | 8.66082 | 94° | 31km/h | 20938m | -12.1m/s | -52°C | 0.7% | 50.5hPa | 2.6V | 18:12:15 | 01:22:09 | 00:00:00 | |
| DD8BA-10 | 2026-09-03 07:54:27 | 52.45042 | 8.66082 | 95° | 26km/h | 20938m | -12.0m/s | -51.9°C | 3.8% | 50.4hPa | 2.6V | 00:00:00 | 00:00:00 | 00:00:00 | |
| DO3DL | 2026-09-03 07:54:26 | 52.45042 | 8.66082 | 95° | 31km/h | 20938m | -12.1m/s | -52.0°C | 1.2% | 50.5hPa | 2.6V | 00:00:00 | 00:00:00 | 00:00:00 | |
| DL1XH-15 | 2026-09-03 07:54:25 | 52.45053 | 8.66005 | 109° | 18km/h | 21024m | -12.1m/s | -51.8°C | 3.7% | 49.8hPa | 2.6V | 08:30:00 | 01:22:02 | 00:00:00 | |
| HSKMA3-T | 2026-09-03 07:54:25 | 52.45044 | 8.66058 | 103° | 29km/h | 20962m | -12.4m/s | -51.7°C | 0.6% | 50.2hPa | 2.6V | 18:12:15 | 01:22:07 | 00:00:00 | |
| DF8AY | 2026-09-03 07:54:23 | 52.45048 | 8.66034 | 104° | 27km/h | 20987m | -12.7m/s | -51.7°C | 0.7% | 50hPa | 2.7V | 18:12:15 | 01:22:05 | 00:00:00 | |
| AA1-15 | 2026-09-03 07:54:21 | 52.45051 | 8.66014 | 108° | 24km/h | 21012m | -12.6m/s | -51.8°C | 0.6% | 49.9hPa | 2.6V | 18:12:15 | 01:22:03 | 00:00:00 | |
| DM0DOS-11 | 2026-09-03 07:54:20 | 52.45058 | 8.65974 | 88° | 11km/h | 21086m | -12m/s | -51.8°C | 3.7% | 49.3hPa | 2.6V | 08:30:00 | 01:21:57 | 00:00:00 | |
| DL1XH-west | 2026-09-03 07:54:19 | 52.45055 | 8.65998 | 112° | 20km/h | 21036m | -12.1m/s | -51.8°C | 0.7% | 49.7hPa | 2.6V | 18:12:15 | 01:22:01 | 00:00:00 | |
| DF8AY-15 | 2026-09-03 07:54:19 | 52.45055 | 8.65998 | 112° | 13km/h | 21036m | -12.0m/s | -51.8°C | 3.8% | 49.7hPa | 2.7V | 00:00:00 | 01:22:01 | 00:00:00 | |
| DD1CC8 | 2026-09-03 07:54:18 | 52.45058 | 8.65985 | 108° | 13km/h | 21061m | -12.8m/s | -51.8°C | 1.2% | 49.5hPa | 2.7V | 00:00:00 | 00:00:00 | 00:00:00 | |
| DL1XH1-15 | 2026-09-03 07:54:17 | 52.45058 | 8.65956 | 87° | 16km/h | 21120m | -12.8m/s | -51.7°C | 3.6% | 49hPa | 2.7V | 08:30:00 | 01:21:54 | 00:00:00 | |
| DO2JMG | 2026-09-03 07:54:16 | 52.45058 | 8.65979 | 91° | 15km/h | 21074m | -12.1m/s | -51.8°C | 0.7% | 49.4hPa | 2.7V | 18:12:15 | 01:21:58 | 00:00:00 | |
| DL1XH-15 | 2026-09-03 07:54:15 | 52.45060 | 8.65942 | 100° | 18km/h | 21145m | -12.5m/s | -51.8°C | 3.7% | 48.9hPa | 2.7V | 08:30:00 | 01:21:52 | 00:00:00 | |
| HSKMA3-T | 2026-09-03 07:54:14 | 52.45058 | 8.65969 | 93° | 13km/h | 21097m | -9.8m/s | -51.8°C | 0.6% | 49.2hPa | 2.6V | 18:12:15 | 01:21:56 | 00:00:00 | |
| BIOWL1-15 | 2026-09-03 07:54:13 | 52.45058 | 8.65963 | 90° | 16km/h | 21108m | -11.6m/s | -51.7°C | 0.6% | 49.1hPa | 2.6V | 18:12:15 | 01:21:55 | 00:00:00 | |
| AA1-15 | 2026-09-03 07:54:11 | 52.45059 | 8.65949 | 102° | 16km/h | 21133m | -12.4m/s | -51.8°C | 0.6% | 49hPa | 2.7V | 18:12:15 | 01:21:53 | 00:00:00 | |
| DL1XH-west | 2026-09-03 07:54:09 | 52.45061 | 8.65935 | 104° | 18km/h | 21157m | -12.7m/s | -51.8°C | 0.7% | 48.8hPa | 2.6V | 18:12:15 | 01:21:51 | 00:00:00 | |
| AU51GT2 | 2026-09-03 07:54:08 | 52.45062 | 8.65928 | 104° | 15km/h | 21170m | -12.6m/s | -51.8°C | 1.2% | 48.7hPa | 2.6V | 00:00:00 | 00:00:00 | 00:00:00 | |
| DL1XH1-15 | 2026-09-03 07:54:07 | 52.45067 | 8.65903 | 114° | 7km/h | 21238m | -10m/s | -52.1°C | 3.7% | 48.1hPa | 2.6V | 08:30:00 | 01:21:44 | 00:00:00 | |
| DO2JMG | 2026-09-03 07:54:06 | 52.45064 | 8.65917 | 108° | 13km/h | 21195m | -11.3m/s | -51.9°C | 0.6% | 48.5hPa | 2.7V | 18:12:15 | 01:21:48 | 00:00:00 | |
| BIOWL1-15 | 2026-09-03 07:54:04 | 52.45067 | 8.65903 | 115° | 7km/h | 21238m | -10m/s | -52.1°C | 0.7% | 48.1hPa | 2.6V | 18:12:15 | 01:21:44 | 00:00:00 | |
| HSKMA3-T | 2026-09-03 07:54:04 | 52.45066 | 8.65909 | 113° | 9km/h | 21218m | -11.1m/s | -52°C | 0.7% | 48.3hPa | 2.7V | 18:12:15 | 01:21:46 | 00:00:00 | |
| DF8AY | 2026-09-03 07:54:03 | 52.45066 | 8.65906 | 112° | 7km/h | 21229m | -9.5m/s | -52°C | 0.7% | 48.2hPa | 2.6V | 18:12:15 | 01:21:45 | 00:00:00 | |
| AA1-15 | 2026-09-03 07:54:01 | 52.45068 | 8.65900 | 89° | 5km/h | 21249m | -11.3m/s | -52.2°C | 0.7% | 48.1hPa | 2.6V | 18:12:15 | 01:21:43 | 00:00:00 | |
| DL1XH-west | 2026-09-03 07:53:59 | 52.45067 | 8.65894 | 74° | 9km/h | 21269m | -8.7m/s | -52.2°C | 0.8% | 47.9hPa | 2.7V | 18:12:15 | 01:21:41 | 00:00:00 | |
| DO2JMG | 2026-09-03 07:53:56 | 52.45065 | 8.65884 | 65° | 9km/h | 21303m | -12.7m/s | -52.4°C | 0.8% | 47.7hPa | 2.6V | 18:12:15 | 01:21:38 | 00:00:00 | |
| DL1XH-15 | 2026-09-03 07:53:55 | 52.45060 | 8.65851 | 80° | 16km/h | 21370m | -9.2m/s | -52.4°C | 3.9% | 47.1hPa | 2.6V | 08:30:00 | 01:21:32 | 00:00:00 | |
| DB0DAN | 2026-09-03 07:53:55 | 52.45064 | 8.65881 | 78° | 9km/h | 21314m | -9.9m/s | -52.4°C | 1.2% | 47.58hPa | 2.6V | 00:00:00 | 00:00:00 | 00:00:00 | |
| BIOWL1-15 | 2026-09-03 07:53:55 | 52.45061 | 8.65858 | 77° | 16km/h | 21360m | -11.7m/s | -52.4°C | 0.8% | 47.2hPa | 2.6V | 18:12:15 | 01:21:33 | 00:00:00 | |
| HSKMA3-T | 2026-09-03 07:53:53 | 52.45063 | 8.65871 | 77° | 15km/h | 21335m | -11.8m/s | -52.3°C | 0.8% | 47.4hPa | 2.7V | 18:12:15 | 01:21:35 | 00:00:00 | |
| DF8AY | 2026-09-03 07:53:52 | 52.45062 | 8.65865 | 78° | 16km/h | 21348m | -12.9m/s | -52.4°C | 0.8% | 47.3hPa | 2.7V | 18:12:15 | 01:21:34 | 00:00:00 | |
| DL1NUX | 2026-09-03 07:53:52 | 52.45059 | 8.65833 | 93° | 15km/h | 21402m | -11.8m/s | -52.5°C | 3.9% | 46.9hPa | 2.7V | 08:30:00 | 01:21:29 | 00:00:00 | |
| DO3DL | 2026-09-03 07:53:51 | 52.45062 | 8.65865 | 79° | 16km/h | 21348m | -12.9m/s | -52.4°C | 1.2% | 47.3hPa | 2.6V | 00:00:00 | 00:00:00 | 00:00:00 | |
| DM0DOS-11 | 2026-09-03 07:53:50 | 52.45060 | 8.65822 | 107° | 13km/h | 21426m | -12.2m/s | -52.6°C | 4% | 46.7hPa | 2.6V | 08:30:00 | 01:21:27 | 00:00:00 | |
| AA1-15 | 2026-09-03 07:53:50 | 52.45060 | 8.65852 | 80° | 16km/h | 21370m | -9.2m/s | -52.4°C | 0.8% | 47.1hPa | 2.6V | 18:12:15 | 01:21:32 | 00:00:00 | |
| DL1XH-west | 2026-09-03 07:53:48 | 52.45059 | 8.65839 | 87° | 15km/h | 21390m | -11.9m/s | -52.5°C | 0.8% | 47hPa | 2.7V | 18:12:15 | 01:21:30 | 00:00:00 | |
| DB0NH | 2026-09-03 07:53:48 | 52.45059 | 8.65838 | 88° | 13km/h | 21391m | -11.8m/s | -52.5°C | 3.9% | 46.9hPa | 2.7V | 00:00:00 | 01:21:30 | 00:00:00 | |
| DF5WG-10 | 2026-09-03 07:53:47 | 52.45059 | 8.65833 | 94° | 18km/h | 21402m | -11.7m/s | -52.5°C | 3.9% | 46.8hPa | 2.7V | 00:00:00 | 01:21:29 | 00:00:00 | |
| DC6BW-12 | 2026-09-03 07:53:46 | 52.45059 | 8.65833 | 95° | 15km/h | 21402m | -11.8m/s | -52.5°C | 1.2% | 46.9hPa | 2.7V | 00:00:00 | 00:00:00 | 00:00:00 | |
| DL1XH-15 | 2026-09-03 07:53:45 | 52.45071 | 8.65788 | 126° | 22km/h | 21485m | -12.3m/s | -52.5°C | 3.9% | 46.3hPa | 2.7V | 08:30:00 | 01:21:22 | 00:00:00 | |
| DO2JMG | 2026-09-03 07:53:45 | 52.45060 | 8.65822 | 107° | 13km/h | 21426m | -12.3m/s | -52.6°C | 0.8% | 46.8hPa | 2.6V | 18:12:15 | 01:21:27 | 00:00:00 | |
| HSKMA3-T | 2026-09-03 07:53:42 | 52.45065 | 8.65803 | 118° | 20km/h | 21462m | -12m/s | -52.6°C | 0.8% | 46.5hPa | 2.7V | 18:12:15 | 01:21:24 | 00:00:00 | |
| BIOWL1-15 | 2026-09-03 07:53:42 | 52.45071 | 8.65788 | 126° | 22km/h | 21485m | -12.3m/s | -52.5°C | 0.8% | 46.3hPa | 2.7V | 18:12:15 | 01:21:22 | 00:00:00 | |
| DL1NUX | 2026-09-03 07:53:42 | 52.45081 | 8.65768 | 135° | 18km/h | 21526m | -15.3m/s | -52.2°C | 3.8% | 46hPa | 2.6V | 08:30:00 | 01:21:19 | 00:00:00 | |
| DM0DOS-11 | 2026-09-03 07:53:40 | 52.45087 | 8.65759 | 138° | 15km/h | 21555m | -13.1m/s | -52.2°C | 3.8% | 45.8hPa | 2.7V | 08:30:00 | 01:21:17 | 00:00:00 | |
| DB0DAN | 2026-09-03 07:53:40 | 52.45071 | 8.65788 | 126° | 22km/h | 21485m | -12.3m/s | -52.5°C | 1.2% | 46.33hPa | 2.7V | 00:00:00 | 00:00:00 | 00:00:00 | |
| AA1-15 | 2026-09-03 07:53:39 | 52.45074 | 8.65781 | 128° | 22km/h | 21498m | -13.5m/s | -52.4°C | 0.8% | 46.2hPa | 2.6V | 18:12:15 | 01:21:21 | 00:00:00 | |
| DL1XH-west | 2026-09-03 07:53:37 | 52.45081 | 8.65768 | 135° | 18km/h | 21526m | -15.3m/s | -52.2°C | 0.8% | 46hPa | 2.6V | 18:12:15 | 01:21:19 | 00:00:00 | |
| DD8BA-10 | 2026-09-03 07:53:37 | 52.45081 | 8.65768 | 136° | 9km/h | 21526m | -15.3m/s | -52.2°C | 3.8% | 46.0hPa | 2.6V | 00:00:00 | 00:00:00 | 00:00:00 | |
| SO1NDE-10 | 2026-09-03 07:53:36 | 52.45084 | 8.65763 | 137° | 15km/h | 21541m | -15.0m/s | -52.2°C | 3.8% | 45.9hPa | 2.7V | 00:00:00 | 01:21:18 | 00:00:00 | |
| DL1XH-15 | 2026-09-03 07:53:35 | 52.45094 | 8.65749 | 121° | 4km/h | 21617m | -11.9m/s | -52.2°C | 3.8% | 45.4hPa | 2.7V | 08:30:00 | 01:21:12 | 00:00:00 | |
| DO2JMG | 2026-09-03 07:53:34 | 52.45089 | 8.65756 | 137° | 11km/h | 21567m | -11.3m/s | -52.3°C | 0.7% | 45.7hPa | 2.7V | 18:12:15 | 01:21:16 | 00:00:00 | |
| DL8DAS-14 | 2026-09-03 07:53:33 | 52.45091 | 8.65754 | 135° | 5km/h | 21579m | -13.9m/s | -52.3°C | 1.2% | 45.6hPa | 2.6V | 00:00:00 | 00:00:00 | 00:00:00 | |
| DL1NUX | 2026-09-03 07:53:32 | 52.45095 | 8.65742 | 98° | 5km/h | 21637m | 5.1m/s | -52.1°C | 3.7% | 45.1hPa | 2.6V | 08:30:00 | 01:21:09 | 00:00:00 | |
| HSKMA3-T | 2026-09-03 07:53:31 | 52.45093 | 8.65750 | 130° | 5km/h | 21605m | -12.8m/s | -52.3°C | 0.7% | 45.4hPa | 2.6V | 18:12:15 | 01:21:13 | 00:00:00 | |
| AA1-15 | 2026-09-03 07:53:29 | 52.45094 | 8.65747 | 114° | 7km/h | 21629m | -12m/s | -52.2°C | 0.7% | 45.3hPa | 2.7V | 18:12:15 | 01:21:11 | 00:00:00 | |
| DL1XH-west | 2026-09-03 07:53:27 | 52.45095 | 8.65742 | 98° | 5km/h | 21637m | 5.1m/s | -52.1°C | 0.6% | 45.2hPa | 2.6V | 18:12:15 | 01:21:09 | 00:00:00 | |
| DO3MHA-11 | 2026-09-03 07:53:27 | 52.45095 | 8.65742 | 99° | 9km/h | 21637m | 5.1m/s | -52.0°C | 3.7% | 45.1hPa | 2.6V | 00:00:00 | 01:21:09 | 00:00:00 | |
| DC6BW-12 | 2026-09-03 07:53:26 | 52.45095 | 8.65742 | 99° | 5km/h | 21637m | 5.1m/s | -52.1°C | 1.2% | 45.2hPa | 2.6V | 00:00:00 | 00:00:00 | 00:00:00 | |
| DL1XH-15 | 2026-09-03 07:53:25 | 52.45103 | 8.65719 | 148° | 11km/h | 21596m | 5.8m/s | -52.1°C | 3.8% | 45.5hPa | 2.6V | 08:30:00 | 01:21:02 | 00:00:00 | |
| DO2JMG | 2026-09-03 07:53:24 | 52.45097 | 8.65735 | 119° | 9km/h | 21620m | 6m/s | -52.3°C | 0.7% | 45.3hPa | 2.7V | 18:12:15 | 01:21:06 | 00:00:00 | |
| DF8AY | 2026-09-03 07:53:21 | 52.45100 | 8.65722 | 129° | 11km/h | 21602m | 6.3m/s | -52.1°C | 0.8% | 45.4hPa | 2.6V | 18:12:15 | 01:21:03 | 00:00:00 | |
| BIOWL1-15 | 2026-09-03 07:53:18 | 52.45109 | 8.65714 | 149° | 15km/h | 21587m | 5.5m/s | -52.2°C | 0.7% | 45.5hPa | 2.7V | 18:12:15 | 01:21:00 | 00:00:00 | |
| DL1XH-west | 2026-09-03 07:53:17 | 52.45112 | 8.65710 | 136° | 18km/h | 21581m | 6.2m/s | -52.2°C | 0.8% | 45.6hPa | 2.7V | 18:12:15 | 01:20:59 | 00:00:00 | |
| DO2JMG | 2026-09-03 07:53:13 | 52.45127 | 8.65684 | 141° | 22km/h | 21558m | 5m/s | -52.1°C | 0.6% | 45.8hPa | 2.6V | 18:12:15 | 01:20:55 | 00:00:00 | |
| DL8DAS-15 | 2026-09-03 07:53:12 | 52.45127 | 8.65684 | 141° | 22km/h | 21558m | 5.0m/s | -52.1°C | 1.2% | 45.8hPa | 2.7V | 00:00:00 | 00:00:00 | 00:00:00 | |
| DB0DAN | 2026-09-03 07:53:10 | 52.45137 | 8.65666 | 122° | 16km/h | 21541m | 3.8m/s | -52.1°C | 1.2% | 45.91hPa | 2.7V | 00:00:00 | 00:00:00 | 00:00:00 | |
| DM0DOS-11 | 2026-09-03 07:53:10 | 52.45148 | 8.65638 | 109° | 16km/h | 21513m | 5.5m/s | -52.3°C | 3.9% | 46.1hPa | 2.7V | 08:30:00 | 01:20:47 | 00:00:00 | |
| HSKMA3-T | 2026-09-03 07:53:10 | 52.45137 | 8.65666 | 122° | 18km/h | 21541m | 3.8m/s | -52.1°C | 0.7% | 45.9hPa | 2.7V | 18:12:15 | 01:20:52 | 00:00:00 | |
| BIOWL1-15 | 2026-09-03 07:53:08 | 52.45142 | 8.65655 | 130° | 16km/h | 21531m | 6.2m/s | -52.2°C | 0.8% | 46hPa | 2.6V | 18:12:15 | 01:20:50 | 00:00:00 | |
| DL1XH1-15 | 2026-09-03 07:53:08 | 52.45153 | 8.65621 | 123° | 13km/h | 21496m | 3.9m/s | -52.4°C | 3.8% | 46.2hPa | 2.6V | 08:30:00 | 01:20:44 | 00:00:00 | |
| AA1-15 | 2026-09-03 07:53:07 | 52.45144 | 8.65650 | 127° | 16km/h | 21525m | 4.8m/s | -52.2°C | 0.7% | 46hPa | 2.6V | 18:12:15 | 01:20:49 | 00:00:00 | |
| DL1XH-west | 2026-09-03 07:53:06 | 52.45147 | 8.65644 | 116° | 16km/h | 21519m | 6.7m/s | -52.2°C | 0.8% | 46hPa | 2.7V | 18:12:15 | 01:20:48 | 00:00:00 | |
| DO2JMG | 2026-09-03 07:53:02 | 52.45153 | 8.65621 | 123° | 13km/h | 21496m | 3.9m/s | -52.4°C | 0.8% | 46.2hPa | 2.6V | 18:12:15 | 01:20:44 | 00:00:00 | |
| DF8AY | 2026-09-03 07:53:00 | 52.45156 | 8.65611 | 112° | 16km/h | 21486m | 6.1m/s | -52.6°C | 0.7% | 46.3hPa | 2.7V | 18:12:15 | 01:20:42 | 00:00:00 | |
| HSKMA3-T | 2026-09-03 07:52:59 | 52.45158 | 8.65604 | 112° | 18km/h | 21480m | 5.1m/s | -52.6°C | 0.8% | 46.3hPa | 2.7V | 18:12:15 | 01:20:41 | 00:00:00 | |
| BIOWL1-15 | 2026-09-03 07:52:59 | 52.45162 | 8.65591 | 129° | 18km/h | 21469m | 6m/s | -52.5°C | 0.9% | 46.4hPa | 2.6V | 18:12:15 | 01:20:39 | 00:00:00 | |
| DB0UT-7 | 2026-09-03 07:52:59 | 52.45158 | 8.65604 | 113° | 16km/h | 21480m | 5.1m/s | -52.6°C | 3.9% | 46.3hPa | 2.7V | 00:00:00 | 00:00:00 | 00:00:00 | |
| DO3DL | 2026-09-03 07:52:58 | 52.45158 | 8.65604 | 113° | 18km/h | 21480m | 5.1m/s | -52.6°C | 1.2% | 46.3hPa | 2.7V | 00:00:00 | 00:00:00 | 00:00:00 | |
| DL1XH1-15 | 2026-09-03 07:52:57 | 52.45172 | 8.65557 | 98° | 18km/h | 21442m | 6.5m/s | -52.5°C | 3.9% | 46.6hPa | 2.7V | 08:30:00 | 01:20:34 | 00:00:00 | |
| AA1-15 | 2026-09-03 07:52:56 | 52.45165 | 8.65586 | 130° | 18km/h | 21464m | 4.3m/s | -52.5°C | 0.8% | 46.4hPa | 2.6V | 18:12:15 | 01:20:38 | 00:00:00 | |
| DL1XH-west | 2026-09-03 07:52:55 | 52.45168 | 8.65580 | 123° | 18km/h | 21459m | 5.6m/s | -52.5°C | 0.9% | 46.4hPa | 2.6V | 18:12:15 | 01:20:37 | 00:00:00 | |
| DB0DAN | 2026-09-03 07:52:55 | 52.45168 | 8.65580 | 123° | 18km/h | 21459m | 5.6m/s | -52.5°C | 1.3% | 46.42hPa | 2.6V | 00:00:00 | 00:00:00 | 00:00:00 | |
| DO2JMG | 2026-09-03 07:52:51 | 52.45173 | 8.65550 | 99° | 16km/h | 21436m | 5.9m/s | -52.6°C | 0.8% | 46.6hPa | 2.6V | 18:12:15 | 01:20:33 | 00:00:00 | |
| HSKMA3-T | 2026-09-03 07:52:49 | 52.45174 | 8.65537 | 91° | 16km/h | 21425m | 6m/s | -52.5°C | 0.7% | 46.7hPa | 2.6V | 18:12:15 | 01:20:31 | 00:00:00 | |
| BIOWL1-15 | 2026-09-03 07:52:46 | 52.45174 | 8.65515 | 96° | 16km/h | 21409m | 6.2m/s | -52.5°C | 0.8% | 46.9hPa | 2.7V | 18:12:15 | 01:20:28 | 00:00:00 | |
| AA1-15 | 2026-09-03 07:52:45 | 52.45174 | 8.65509 | 110° | 15km/h | 21402m | 5.9m/s | -52.5°C | 0.9% | 46.9hPa | 2.6V | 18:12:15 | 01:20:27 | 00:00:00 | |
| DL1XH-west | 2026-09-03 07:52:44 | 52.45176 | 8.65504 | 118° | 15km/h | 21397m | 4.6m/s | -52.5°C | 0.8% | 46.9hPa | 2.6V | 18:12:15 | 01:20:26 | 00:00:00 | |
| DJ8HS-15 | 2026-09-03 07:52:44 | 52.45176 | 8.65504 | 119° | 13km/h | 21398m | 4.5m/s | -52.4°C | 4.0% | 46.8hPa | 2.7V | 00:00:00 | 01:20:26 | 00:00:00 | |
| DM0DOS-11 | 2026-09-03 07:52:40 | 52.45185 | 8.65444 | 60° | 13km/h | 21348m | 6.5m/s | -52.5°C | 3.8% | 47.3hPa | 2.7V | 08:30:00 | 01:20:17 | 00:00:00 | |
| DO2JMG | 2026-09-03 07:52:40 | 52.45185 | 8.65476 | 118° | 18km/h | 21375m | 6.1m/s | -52.3°C | 0.8% | 47.1hPa | 2.7V | 18:12:15 | 01:20:22 | 00:00:00 | |
| DF8AY | 2026-09-03 07:52:39 | 52.45186 | 8.65470 | 111° | 16km/h | 21370m | 5m/s | -52.3°C | 0.8% | 47.1hPa | 2.6V | 18:12:15 | 01:20:21 | 00:00:00 | |
| BIOWL1-15 | 2026-09-03 07:52:38 | 52.45187 | 8.65450 | 72° | 16km/h | 21353m | 4.7m/s | -52.4°C | 0.7% | 47.2hPa | 2.7V | 18:12:15 | 01:20:18 | 00:00:00 | |
| HSKMA3-T | 2026-09-03 07:52:38 | 52.45187 | 8.65463 | 100° | 16km/h | 21364m | 6m/s | -52.3°C | 0.7% | 47.1hPa | 2.6V | 18:12:15 | 01:20:20 | 00:00:00 | |
| DL1XH1-15 | 2026-09-03 07:52:37 | 52.45180 | 8.65436 | 36° | 9km/h | 21330m | 6.7m/s | -52.3°C | 3.9% | 47.4hPa | 2.6V | 08:30:00 | 01:20:14 | 00:00:00 | |
| AA1-15 | 2026-09-03 07:52:35 | 52.45185 | 8.65444 | 60° | 13km/h | 21348m | 6.5m/s | -52.5°C | 0.7% | 47.3hPa | 2.7V | 18:12:15 | 01:20:17 | 00:00:00 | |
| DL1XH-west | 2026-09-03 07:52:34 | 52.45184 | 8.65440 | 42° | 9km/h | 21341m | 6.2m/s | -52.4°C | 0.8% | 47.3hPa | 2.7V | 18:12:15 | 01:20:16 | 00:00:00 | |
| DO3DL | 2026-09-03 07:52:33 | 52.45184 | 8.65440 | 43° | 9km/h | 21341m | 6.2m/s | -52.4°C | 1.2% | 47.3hPa | 2.6V | 00:00:00 | 00:00:00 | 00:00:00 | |
| DF7PN | 2026-09-03 07:52:32 | 52.45180 | 8.65436 | 36° | 7km/h | 21330m | 6.7m/s | -52.3°C | 1.2% | 47.4hPa | 2.6V | 00:00:00 | 00:00:00 | 00:00:00 | |
| DL8DAS-14 | 2026-09-03 07:52:31 | 52.45178 | 8.65434 | 49° | 7km/h | 21324m | 5.0m/s | -52.3°C | 1.2% | 47.5hPa | 2.6V | 00:00:00 | 00:00:00 | 00:00:00 | |
| DM0DOS-11 | 2026-09-03 07:52:30 | 52.45176 | 8.65418 | 80° | 16km/h | 21290m | 5.4m/s | -52.2°C | 3.9% | 47.7hPa | 2.6V | 08:30:00 | 01:20:07 | 00:00:00 | |
| DL1XH-15 | 2026-09-03 07:52:30 | 52.45177 | 8.65432 | 59° | 5km/h | 21318m | 5.9m/s | -52.2°C | 3.9% | 47.5hPa | 2.7V | 08:30:00 | 01:20:12 | 00:00:00 | |
| DO2JMG | 2026-09-03 07:52:30 | 52.45177 | 8.65432 | 59° | 5km/h | 21318m | 5.9m/s | -52.2°C | 0.8% | 47.5hPa | 2.7V | 18:12:15 | 01:20:12 | 00:00:00 | |
| DF8AY | 2026-09-03 07:52:29 | 52.45177 | 8.65430 | 57° | 2km/h | 21312m | 6.6m/s | -52.2°C | 0.8% | 47.5hPa | 2.7V | 18:12:15 | 01:20:11 | 00:00:00 | |
| D01LWL | 2026-09-03 07:52:29 | 52.45177 | 8.65429 | 82° | 2km/h | 21307m | 4.7m/s | -52.2°C | 1.2% | 47.6hPa | 2.7V | 00:00:00 | 00:00:00 | 00:00:00 | |
| DL1XH1-15 | 2026-09-03 07:52:27 | 52.45173 | 8.65399 | 69° | 16km/h | 21272m | 5.9m/s | -52.2°C | 3.9% | 47.8hPa | 2.7V | 08:30:00 | 01:20:04 | 00:00:00 | |
| HSKMA3-T | 2026-09-03 07:52:27 | 52.45177 | 8.65427 | 84° | 7km/h | 21302m | 5.2m/s | -52.3°C | 0.8% | 47.6hPa | 2.6V | 18:12:15 | 01:20:09 | 00:00:00 | |
| BIOWL1-15 | 2026-09-03 07:52:25 | 52.45176 | 8.65418 | 81° | 16km/h | 21290m | 5.4m/s | -52.2°C | 0.8% | 47.7hPa | 2.6V | 18:12:15 | 01:20:07 | 00:00:00 | |
| DB0DAN | 2026-09-03 07:52:25 | 52.45176 | 8.65418 | 81° | 15km/h | 21290m | 5.4m/s | -52.2°C | 1.2% | 47.72hPa | 2.6V | 00:00:00 | 00:00:00 | 00:00:00 | |
| AA1-15 | 2026-09-03 07:52:24 | 52.45175 | 8.65412 | 76° | 15km/h | 21284m | 7.3m/s | -52.2°C | 0.8% | 47.7hPa | 2.7V | 18:12:15 | 01:20:06 | 00:00:00 | |
| DL1XH-west | 2026-09-03 07:52:23 | 52.45174 | 8.65406 | 70° | 15km/h | 21277m | 4.7m/s | -52.2°C | 0.8% | 47.8hPa | 2.7V | 18:12:15 | 01:20:05 | 00:00:00 | |
| DL4BBY-15 | 2026-09-03 07:52:23 | 52.45174 | 8.65406 | 70° | 13km/h | 21277m | 4.7m/s | -51.1°C | 0% | 0hPa | 2.6V | 00:00:00 | 00:00:00 | 00:00:00 | |
| DM0DOS-11 | 2026-09-03 07:52:20 | 52.45168 | 8.65371 | 97° | 11km/h | 21230m | 5.2m/s | -51.9°C | 3.8% | 48.1hPa | 2.6V | 08:30:00 | 01:19:57 | 00:00:00 | |
| DF8AY | 2026-09-03 07:52:19 | 52.45169 | 8.65381 | 67° | 11km/h | 21254m | 7.4m/s | -52.1°C | 0.8% | 48hPa | 2.6V | 18:12:15 | 01:20:01 | 00:00:00 | |
| HSKMA3-T | 2026-09-03 07:52:16 | 52.45168 | 8.65374 | 98° | 7km/h | 21236m | 6.7m/s | -51.9°C | 0.8% | 48.1hPa | 2.7V | 18:12:15 | 01:19:58 | 00:00:00 | |
| BIOWL1-15 | 2026-09-03 07:52:14 | 52.45168 | 8.65366 | 95° | 13km/h | 21226m | 4m/s | -51.9°C | 0.7% | 48.2hPa | 2.6V | 18:12:15 | 01:19:56 | 00:00:00 | |
| AA1-15 | 2026-09-03 07:52:13 | 52.45168 | 8.65360 | 89° | 13km/h | 21221m | 5.8m/s | -52°C | 0.7% | 48.2hPa | 2.6V | 18:12:15 | 01:19:55 | 00:00:00 | |
| DL1XH-west | 2026-09-03 07:52:12 | 52.45168 | 8.65355 | 76° | 11km/h | 21215m | 6m/s | -52°C | 0.7% | 48.3hPa | 2.7V | 18:12:15 | 01:19:54 | 00:00:00 | |
| DB0DAN | 2026-09-03 07:52:10 | 52.45166 | 8.65345 | 66° | 15km/h | 21203m | 6.4m/s | -51.8°C | 1.2% | 48.34hPa | 2.7V | 00:00:00 | 00:00:00 | 00:00:00 | |
| DO2JMG | 2026-09-03 07:52:09 | 52.45164 | 8.65339 | 73° | 18km/h | 21197m | 6.3m/s | -51.7°C | 0.7% | 48.4hPa | 2.6V | 18:12:15 | 01:19:51 | 00:00:00 | |
| DF8AY | 2026-09-03 07:52:08 | 52.45163 | 8.65332 | 79° | 18km/h | 21192m | 4.3m/s | -51.7°C | 0.7% | 48.4hPa | 2.6V | 18:12:15 | 01:19:50 | 00:00:00 | |
| HSKMA3-T | 2026-09-03 07:52:05 | 52.45163 | 8.65314 | 108° | 13km/h | 21176m | 4.8m/s | -51.7°C | 0.6% | 48.6hPa | 2.7V | 18:12:15 | 01:19:47 | 00:00:00 | |
| AA1-15 | 2026-09-03 07:52:03 | 52.45166 | 8.65304 | 120° | 16km/h | 21164m | 5.3m/s | -51.8°C | 0.7% | 48.6hPa | 2.6V | 18:12:15 | 01:19:45 | 00:00:00 | |
| DL1XH-15 | 2026-09-03 07:52:02 | 52.45170 | 8.65290 | 92° | 11km/h | 21147m | 4.9m/s | -51.7°C | 3.7% | 48.8hPa | 2.7V | 08:30:00 | 01:19:42 | 00:00:00 | |
| DL1XH-west | 2026-09-03 07:52:01 | 52.45169 | 8.65294 | 116° | 11km/h | 21152m | 5.7m/s | -51.6°C | 0.7% | 48.8hPa | 2.6V | 18:12:15 | 01:19:43 | 00:00:00 | |
| DF7PN | 2026-09-03 07:52:01 | 52.45169 | 8.65294 | 116° | 9km/h | 21152m | 5.7m/s | -51.6°C | 1.2% | 48.8hPa | 2.6V | 00:00:00 | 00:00:00 | 00:00:00 | |
| DM0DOS-11 | 2026-09-03 07:52:00 | 52.45166 | 8.65260 | 74° | 13km/h | 21120m | 5.8m/s | -51.5°C | 3.8% | 49hPa | 2.6V | 08:30:00 | 01:19:37 | 00:00:00 | |
| DO2JMG | 2026-09-03 07:51:58 | 52.45169 | 8.65279 | 79° | 16km/h | 21135m | 5.1m/s | -51.6°C | 0.7% | 48.9hPa | 2.7V | 18:12:15 | 01:19:40 | 00:00:00 | |
| DF8AY | 2026-09-03 07:51:57 | 52.45168 | 8.65272 | 75° | 16km/h | 21131m | 4.1m/s | -51.6°C | 0.7% | 48.9hPa | 2.6V | 18:12:15 | 01:19:39 | 00:00:00 | |
| HSKMA3-T | 2026-09-03 07:51:55 | 52.45166 | 8.65260 | 75° | 13km/h | 21120m | 5.8m/s | -51.5°C | 0.8% | 49hPa | 2.6V | 18:12:15 | 01:19:37 | 00:00:00 | |
| DB0DAN | 2026-09-03 07:51:55 | 52.45166 | 8.65260 | 75° | 11km/h | 21120m | 5.8m/s | -51.5°C | 1.2% | 48.97hPa | 2.6V | 00:00:00 | 00:00:00 | 00:00:00 | |
| AA1-15 | 2026-09-03 07:51:53 | 52.45166 | 8.65250 | 95° | 13km/h | 21110m | 5.5m/s | -51.7°C | 0.7% | 49.1hPa | 2.7V | 18:12:15 | 01:19:35 | 00:00:00 | |
| EDDB2-11 | 2026-09-03 07:51:52 | 52.45166 | 8.65244 | 105° | 16km/h | 21104m | 6.9m/s | -51.6°C | 1.2% | 49.1hPa | 2.6V | 00:00:00 | 00:00:00 | 00:00:00 | |
| DL1XH-15 | 2026-09-03 07:51:52 | 52.45170 | 8.65228 | 117° | 20km/h | 21093m | 5m/s | -51.7°C | 3.8% | 49.2hPa | 2.6V | 08:30:00 | 01:19:32 | 00:00:00 | |
| DD1CC3-15 | 2026-09-03 07:51:51 | 52.45166 | 8.65243 | 107° | 18km/h | 21104m | 6.9m/s | -51.6°C | 1.2% | 49.1hPa | 2.6V | 00:00:00 | 00:00:00 | 00:00:00 | |
| DM0DOS-11 | 2026-09-03 07:51:50 | 52.45177 | 8.65192 | 86° | 18km/h | 21064m | 5.4m/s | -51.6°C | 3.8% | 49.4hPa | 2.6V | 08:30:00 | 01:19:27 | 00:00:00 | |
| DL1XH-west | 2026-09-03 07:51:50 | 52.45170 | 8.65228 | 117° | 20km/h | 21093m | 5m/s | -51.7°C | 0.7% | 49.2hPa | 2.6V | 18:12:15 | 01:19:32 | 00:00:00 | |
| DO2JMG | 2026-09-03 07:51:48 | 52.45175 | 8.65214 | 114° | 16km/h | 21082m | 5m/s | -51.6°C | 0.7% | 49.3hPa | 2.7V | 18:12:15 | 01:19:30 | 00:00:00 | |
| DF8AY | 2026-09-03 07:51:47 | 52.45176 | 8.65208 | 104° | 18km/h | 21076m | 6.9m/s | -51.7°C | 0.7% | 49.3hPa | 2.7V | 18:12:15 | 01:19:29 | 00:00:00 | |
| HSKMA3-T | 2026-09-03 07:51:44 | 52.45176 | 8.65185 | 76° | 16km/h | 21058m | 6.7m/s | -51.6°C | 0.7% | 49.5hPa | 2.6V | 18:12:15 | 01:19:26 | 00:00:00 | |
| DJ8HS-15 | 2026-09-03 07:51:44 | 52.45176 | 8.65184 | 76° | 24km/h | 21058m | 6.6m/s | -51.6°C | 3.7% | 49.4hPa | 2.7V | 00:00:00 | 01:19:26 | 00:00:00 | |
| SMARD9-10 | 2026-09-03 07:51:43 | 52.45176 | 8.65184 | 77° | 16km/h | 21058m | 6.7m/s | -51.6°C | 1.2% | 49.5hPa | 2.7V | 00:00:00 | 00:00:00 | 00:00:00 | |
| DL1XH-15 | 2026-09-03 07:51:42 | 52.45171 | 8.65156 | 87° | 20km/h | 21036m | 4.6m/s | -51.7°C | 3.8% | 49.6hPa | 2.7V | 08:30:00 | 01:19:22 | 00:00:00 | |
| AA1-15 | 2026-09-03 07:51:42 | 52.45173 | 8.65172 | 67° | 18km/h | 21047m | 6.3m/s | -51.7°C | 0.7% | 49.5hPa | 2.7V | 18:12:15 | 01:19:24 | 00:00:00 | |
| DL1XH-west | 2026-09-03 07:51:39 | 52.45171 | 8.65148 | 102° | 20km/h | 21030m | 6.7m/s | -51.7°C | 0.8% | 49.6hPa | 2.6V | 18:12:15 | 01:19:21 | 00:00:00 | |
| DF8AY-15 | 2026-09-03 07:51:39 | 52.45171 | 8.65148 | 102° | 27km/h | 21031m | 6.6m/s | -51.7°C | 3.8% | 49.6hPa | 2.6V | 00:00:00 | 01:19:21 | 00:00:00 | |
| BIOWL9-15 | 2026-09-03 07:51:38 | 52.45173 | 8.65140 | 119° | 22km/h | 21024m | 5.3m/s | -51.7°C | 1.2% | 49.7hPa | 2.7V | 00:00:00 | 00:00:00 | 00:00:00 | |
| DM0DOS-11 | 2026-09-03 07:51:37 | 52.45185 | 8.65110 | 123° | 33km/h | 21007m | 5.1m/s | -51.7°C | 3.8% | 49.8hPa | 2.7V | 08:30:00 | 01:19:17 | 00:00:00 | |
| DL1XH1-15 | 2026-09-03 07:51:37 | 52.45196 | 8.65079 | 103° | 22km/h | 20992m | 4.4m/s | -51.6°C | 3.7% | 49.9hPa | 2.6V | 08:30:00 | 01:19:14 | 00:00:00 | |
| DO2JMG | 2026-09-03 07:51:37 | 52.45176 | 8.65131 | 127° | 27km/h | 21019m | 5.2m/s | -51.8°C | 0.8% | 49.7hPa | 2.6V | 18:12:15 | 01:19:19 | 00:00:00 | |
| DF8AY | 2026-09-03 07:51:36 | 52.45181 | 8.65121 | 126° | 31km/h | 21013m | 6.8m/s | -51.8°C | 0.7% | 49.8hPa | 2.7V | 18:12:15 | 01:19:18 | 00:00:00 | |
| HSKMA3-T | 2026-09-03 07:51:33 | 52.45193 | 8.65088 | 117° | 27km/h | 20997m | 6.3m/s | -51.6°C | 0.7% | 49.9hPa | 2.6V | 18:12:15 | 01:19:15 | 00:00:00 | |
| AA1-15 | 2026-09-03 07:51:32 | 52.45196 | 8.65079 | 103° | 22km/h | 20992m | 4.4m/s | -51.6°C | 0.7% | 49.9hPa | 2.6V | 18:12:15 | 01:19:14 | 00:00:00 | |
| BIOWL1-15 | 2026-09-03 07:51:31 | 52.45196 | 8.65070 | 88° | 22km/h | 20987m | 5.6m/s | -51.7°C | 0.7% | 50hPa | 2.6V | 18:12:15 | 01:19:13 | 00:00:00 | |
| DL1XH-west | 2026-09-03 07:51:28 | 52.45191 | 8.65040 | 70° | 26km/h | 20970m | 4.6m/s | -51.5°C | 0.7% | 50.2hPa | 2.7V | 18:12:15 | 01:19:10 | 00:00:00 | |
| DL1XH1-15 | 2026-09-03 07:51:27 | 52.45198 | 8.64980 | 117° | 35km/h | 20936m | 4.9m/s | -52°C | 3.8% | 50.4hPa | 2.7V | 08:30:00 | 01:19:04 | 00:00:00 | |
| DO2JMG | 2026-09-03 07:51:27 | 52.45189 | 8.65030 | 72° | 24km/h | 20964m | 6.1m/s | -51.4°C | 0.6% | 50.2hPa | 2.6V | 18:12:15 | 01:19:09 | 00:00:00 | |
| DF8AY | 2026-09-03 07:51:26 | 52.45188 | 8.65021 | 88° | 20km/h | 20959m | 5.3m/s | -51.4°C | 0.6% | 50.2hPa | 2.6V | 18:12:15 | 01:19:08 | 00:00:00 | |
| HSKMA3-T | 2026-09-03 07:51:22 | 52.45198 | 8.64980 | 118° | 35km/h | 20936m | 4.9m/s | -52°C | 0.7% | 50.4hPa | 2.7V | 18:12:15 | 01:19:04 | 00:00:00 | |
| BIOWL1-15 | 2026-09-03 07:51:21 | 52.45202 | 8.64968 | 116° | 35km/h | 20931m | 6m/s | -52.1°C | 0.8% | 50.4hPa | 2.6V | 18:12:15 | 01:19:03 | 00:00:00 | |
| DL1XH-west | 2026-09-03 07:51:18 | 52.45208 | 8.64926 | 91° | 37km/h | 20915m | 6.2m/s | -51.9°C | 0.8% | 50.5hPa | 2.7V | 18:12:15 | 01:19:00 | 00:00:00 | |
| DO2JMG | 2026-09-03 07:51:16 | 52.45206 | 8.64896 | 81° | 35km/h | 20904m | 7m/s | -51.9°C | 0.7% | 50.7hPa | 2.7V | 18:12:15 | 01:18:58 | 00:00:00 | |
| DF8AY | 2026-09-03 07:51:15 | 52.45205 | 8.64883 | 78° | 31km/h | 20897m | 5.6m/s | -52°C | 0.7% | 50.7hPa | 2.6V | 18:12:15 | 01:18:57 | 00:00:00 | |
| Es werden nur die letzten 3500 von 6897 Frames angezeigt. GPX/KML und Diagramme bleiben verfügbar. | |||||||||||||||